<?xml version="1.0" encoding="UTF-8" standalone="no" ?>
<gpx xmlns="http://www.topografix.com/GPX/1/1" xmlns:xsi="http://www.w3.org/2001/XMLSchema-instance" xsi:schemaLocation="http://www.topografix.com/GPX/1/1 http://www.topografix.com/GPX/1/1/gpx.xsd" version="1.1" creator="VisuGPX - https://www.visugpx.com">
  <metadata>
    <name>Portugal_full</name>
  </metadata>
  <trk>
    <name><![CDATA[Portugal_full_2]]></name>
    <extensions>
      <line xmlns="http://www.topografix.com/GPX/gpx_style/0/2">
        <color>0000FF</color>
        <width>6</width>
          <extensions>
            <sens>1</sens>
          </extensions>
      </line>
    </extensions>
    <trkseg>
      <trkpt lat="40.31228" lon="-7.58373">
        <ele>1536.7</ele>
        <extensions>
          <visugpx:TrkExtension xmlns:visugpx="https://www.visugpx.com/editgpx/">
            <visugpx:node>3</visugpx:node>
            </visugpx:TrkExtension>
        </extensions>
      </trkpt>
      <trkpt lat="40.3121" lon="-7.58369">
        <ele>1551.143</ele>
        <time>2020-09-27T13:52:11Z</time>
      </trkpt>
      <trkpt lat="40.31204" lon="-7.58369">
        <ele>1550.664</ele>
        <time>2020-09-27T13:52:12Z</time>
      </trkpt>
      <trkpt lat="40.31202" lon="-7.5838">
        <ele>1549.61</ele>
        <time>2020-09-27T13:52:14Z</time>
      </trkpt>
      <trkpt lat="40.31204" lon="-7.58388">
        <ele>1549.008</ele>
        <time>2020-09-27T13:52:15Z</time>
      </trkpt>
      <trkpt lat="40.31209" lon="-7.58399">
        <ele>1548.379</ele>
        <time>2020-09-27T13:52:16Z</time>
      </trkpt>
      <trkpt lat="40.31216" lon="-7.58409">
        <ele>1547.691</ele>
        <time>2020-09-27T13:52:17Z</time>
      </trkpt>
      <trkpt lat="40.31234" lon="-7.5843">
        <ele>1546.499</ele>
        <time>2020-09-27T13:52:19Z</time>
      </trkpt>
      <trkpt lat="40.31243" lon="-7.58441">
        <ele>1545.751</ele>
        <time>2020-09-27T13:52:20Z</time>
      </trkpt>
      <trkpt lat="40.31257" lon="-7.58463">
        <ele>1545.359</ele>
        <time>2020-09-27T13:52:22Z</time>
      </trkpt>
      <trkpt lat="40.31266" lon="-7.58479">
        <ele>1546.179</ele>
        <time>2020-09-27T13:52:24Z</time>
      </trkpt>
      <trkpt lat="40.31271" lon="-7.58485">
        <ele>1545.319</ele>
        <time>2020-09-27T13:52:26Z</time>
      </trkpt>
      <trkpt lat="40.31278" lon="-7.58491">
        <ele>1542.547</ele>
        <time>2020-09-27T13:53:21Z</time>
      </trkpt>
      <trkpt lat="40.31292" lon="-7.58507">
        <ele>1540.327</ele>
        <time>2020-09-27T13:53:23Z</time>
      </trkpt>
      <trkpt lat="40.31309" lon="-7.5853">
        <ele>1539.768</ele>
        <time>2020-09-27T13:53:25Z</time>
      </trkpt>
      <trkpt lat="40.31319" lon="-7.58543">
        <ele>1538.414</ele>
        <time>2020-09-27T13:53:26Z</time>
      </trkpt>
      <trkpt lat="40.31329" lon="-7.58557">
        <ele>1536.708</ele>
        <time>2020-09-27T13:53:27Z</time>
      </trkpt>
      <trkpt lat="40.3135" lon="-7.58588">
        <ele>1534.237</ele>
        <time>2020-09-27T13:53:29Z</time>
      </trkpt>
      <trkpt lat="40.31359" lon="-7.58606">
        <ele>1532.099</ele>
        <time>2020-09-27T13:53:30Z</time>
      </trkpt>
      <trkpt lat="40.31372" lon="-7.58649">
        <ele>1529.227</ele>
        <time>2020-09-27T13:53:32Z</time>
      </trkpt>
      <trkpt lat="40.31377" lon="-7.58701">
        <ele>1526.049</ele>
        <time>2020-09-27T13:53:34Z</time>
      </trkpt>
      <trkpt lat="40.31382" lon="-7.58751">
        <ele>1522.527</ele>
        <time>2020-09-27T13:53:36Z</time>
      </trkpt>
      <trkpt lat="40.31386" lon="-7.58796">
        <ele>1520.287</ele>
        <time>2020-09-27T13:53:38Z</time>
      </trkpt>
      <trkpt lat="40.31393" lon="-7.5884">
        <ele>1516.597</ele>
        <time>2020-09-27T13:53:40Z</time>
      </trkpt>
      <trkpt lat="40.31401" lon="-7.58863">
        <ele>1513.855</ele>
        <time>2020-09-27T13:53:41Z</time>
      </trkpt>
      <trkpt lat="40.31409" lon="-7.58886">
        <ele>1511.566</ele>
        <time>2020-09-27T13:53:42Z</time>
      </trkpt>
      <trkpt lat="40.31417" lon="-7.5891">
        <ele>1509.329</ele>
        <time>2020-09-27T13:53:43Z</time>
      </trkpt>
      <trkpt lat="40.31426" lon="-7.58957">
        <ele>1506.421</ele>
        <time>2020-09-27T13:53:45Z</time>
      </trkpt>
      <trkpt lat="40.31429" lon="-7.5898">
        <ele>1504.008</ele>
        <time>2020-09-27T13:53:46Z</time>
      </trkpt>
      <trkpt lat="40.31437" lon="-7.59023">
        <ele>1501.291</ele>
        <time>2020-09-27T13:53:48Z</time>
      </trkpt>
      <trkpt lat="40.31439" lon="-7.59042">
        <ele>1498.883</ele>
        <time>2020-09-27T13:53:49Z</time>
      </trkpt>
      <trkpt lat="40.31434" lon="-7.59077">
        <ele>1502.891</ele>
        <time>2020-09-27T13:53:51Z</time>
      </trkpt>
      <trkpt lat="40.31413" lon="-7.59106">
        <ele>1502.233</ele>
        <time>2020-09-27T13:53:53Z</time>
      </trkpt>
      <trkpt lat="40.31377" lon="-7.59122">
        <ele>1498.211</ele>
        <time>2020-09-27T13:53:55Z</time>
      </trkpt>
      <trkpt lat="40.31335" lon="-7.59132">
        <ele>1494.221</ele>
        <time>2020-09-27T13:53:57Z</time>
      </trkpt>
      <trkpt lat="40.31291" lon="-7.59143">
        <ele>1490.221</ele>
        <time>2020-09-27T13:53:59Z</time>
      </trkpt>
      <trkpt lat="40.31255" lon="-7.59155">
        <ele>1487.519</ele>
        <time>2020-09-27T13:54:01Z</time>
      </trkpt>
      <trkpt lat="40.31228" lon="-7.59161">
        <ele>1486.786</ele>
        <time>2020-09-27T13:54:03Z</time>
      </trkpt>
      <trkpt lat="40.31212" lon="-7.59153">
        <ele>1486.56</ele>
        <time>2020-09-27T13:54:05Z</time>
      </trkpt>
      <trkpt lat="40.31207" lon="-7.59143">
        <ele>1486.226</ele>
        <time>2020-09-27T13:54:06Z</time>
      </trkpt>
      <trkpt lat="40.31205" lon="-7.59131">
        <ele>1485.508</ele>
        <time>2020-09-27T13:54:07Z</time>
      </trkpt>
      <trkpt lat="40.31203" lon="-7.59118">
        <ele>1484.553</ele>
        <time>2020-09-27T13:54:08Z</time>
      </trkpt>
      <trkpt lat="40.31205" lon="-7.59105">
        <ele>1483.625</ele>
        <time>2020-09-27T13:54:09Z</time>
      </trkpt>
      <trkpt lat="40.31216" lon="-7.5908">
        <ele>1482.443</ele>
        <time>2020-09-27T13:54:11Z</time>
      </trkpt>
      <trkpt lat="40.31222" lon="-7.59059">
        <ele>1481.745</ele>
        <time>2020-09-27T13:54:13Z</time>
      </trkpt>
      <trkpt lat="40.31215" lon="-7.5905">
        <ele>1481.333</ele>
        <time>2020-09-27T13:54:15Z</time>
      </trkpt>
      <trkpt lat="40.31208" lon="-7.59052">
        <ele>1481.093</ele>
        <time>2020-09-27T13:54:16Z</time>
      </trkpt>
      <trkpt lat="40.31189" lon="-7.59065">
        <ele>1485.053</ele>
        <time>2020-09-27T13:54:18Z</time>
      </trkpt>
      <trkpt lat="40.31167" lon="-7.59076">
        <ele>1484.381</ele>
        <time>2020-09-27T13:54:20Z</time>
      </trkpt>
      <trkpt lat="40.31147" lon="-7.59074">
        <ele>1480.635</ele>
        <time>2020-09-27T13:54:22Z</time>
      </trkpt>
      <trkpt lat="40.3114" lon="-7.59066">
        <ele>1477.086</ele>
        <time>2020-09-27T13:54:23Z</time>
      </trkpt>
      <trkpt lat="40.31135" lon="-7.59054">
        <ele>1474.014</ele>
        <time>2020-09-27T13:54:24Z</time>
      </trkpt>
      <trkpt lat="40.31134" lon="-7.59039">
        <ele>1471.408</ele>
        <time>2020-09-27T13:54:25Z</time>
      </trkpt>
      <trkpt lat="40.31136" lon="-7.59023">
        <ele>1469.288</ele>
        <time>2020-09-27T13:54:26Z</time>
      </trkpt>
      <trkpt lat="40.31141" lon="-7.59007">
        <ele>1467.34</ele>
        <time>2020-09-27T13:54:27Z</time>
      </trkpt>
      <trkpt lat="40.3116" lon="-7.58983">
        <ele>1465.748</ele>
        <time>2020-09-27T13:54:29Z</time>
      </trkpt>
      <trkpt lat="40.31173" lon="-7.58976">
        <ele>1464.65</ele>
        <time>2020-09-27T13:54:30Z</time>
      </trkpt>
      <trkpt lat="40.31188" lon="-7.58972">
        <ele>1464.278</ele>
        <time>2020-09-27T13:54:31Z</time>
      </trkpt>
      <trkpt lat="40.31215" lon="-7.58972">
        <ele>1464.148</ele>
        <time>2020-09-27T13:54:33Z</time>
      </trkpt>
      <trkpt lat="40.31237" lon="-7.58968">
        <ele>1463.998</ele>
        <time>2020-09-27T13:54:35Z</time>
      </trkpt>
      <trkpt lat="40.31245" lon="-7.58961">
        <ele>1463.826</ele>
        <time>2020-09-27T13:54:36Z</time>
      </trkpt>
      <trkpt lat="40.3125" lon="-7.58939">
        <ele>1463.931</ele>
        <time>2020-09-27T13:54:38Z</time>
      </trkpt>
      <trkpt lat="40.31248" lon="-7.58926">
        <ele>1463.961</ele>
        <time>2020-09-27T13:54:39Z</time>
      </trkpt>
      <trkpt lat="40.31249" lon="-7.58911">
        <ele>1464.207</ele>
        <time>2020-09-27T13:54:40Z</time>
      </trkpt>
      <trkpt lat="40.31257" lon="-7.58876">
        <ele>1464.408</ele>
        <time>2020-09-27T13:54:42Z</time>
      </trkpt>
      <trkpt lat="40.31266" lon="-7.58842">
        <ele>1464.578</ele>
        <time>2020-09-27T13:54:44Z</time>
      </trkpt>
      <trkpt lat="40.31265" lon="-7.58811">
        <ele>1468.59</ele>
        <time>2020-09-27T13:54:46Z</time>
      </trkpt>
      <trkpt lat="40.31252" lon="-7.58783">
        <ele>1469.378</ele>
        <time>2020-09-27T13:54:48Z</time>
      </trkpt>
      <trkpt lat="40.31243" lon="-7.5877">
        <ele>1468.63</ele>
        <time>2020-09-27T13:54:49Z</time>
      </trkpt>
      <trkpt lat="40.31225" lon="-7.58747">
        <ele>1466.598</ele>
        <time>2020-09-27T13:54:51Z</time>
      </trkpt>
      <trkpt lat="40.31216" lon="-7.58735">
        <ele>1464.688</ele>
        <time>2020-09-27T13:54:52Z</time>
      </trkpt>
      <trkpt lat="40.31205" lon="-7.58722">
        <ele>1462.898</ele>
        <time>2020-09-27T13:54:53Z</time>
      </trkpt>
      <trkpt lat="40.31178" lon="-7.58695">
        <ele>1459.926</ele>
        <time>2020-09-27T13:54:55Z</time>
      </trkpt>
      <trkpt lat="40.3115" lon="-7.58667">
        <ele>1456.525</ele>
        <time>2020-09-27T13:54:57Z</time>
      </trkpt>
      <trkpt lat="40.31137" lon="-7.58651">
        <ele>1454.526</ele>
        <time>2020-09-27T13:54:58Z</time>
      </trkpt>
      <trkpt lat="40.31122" lon="-7.58636">
        <ele>1458.508</ele>
        <time>2020-09-27T13:54:59Z</time>
      </trkpt>
      <trkpt lat="40.3109" lon="-7.58608">
        <ele>1457.908</ele>
        <time>2020-09-27T13:55:01Z</time>
      </trkpt>
      <trkpt lat="40.31073" lon="-7.58594">
        <ele>1455.647</ele>
        <time>2020-09-27T13:55:02Z</time>
      </trkpt>
      <trkpt lat="40.31042" lon="-7.58567">
        <ele>1451.749</ele>
        <time>2020-09-27T13:55:04Z</time>
      </trkpt>
      <trkpt lat="40.31006" lon="-7.58549">
        <ele>1447.787</ele>
        <time>2020-09-27T13:55:06Z</time>
      </trkpt>
      <trkpt lat="40.30986" lon="-7.58542">
        <ele>1443.729</ele>
        <time>2020-09-27T13:55:07Z</time>
      </trkpt>
      <trkpt lat="40.30947" lon="-7.58537">
        <ele>1439.787</ele>
        <time>2020-09-27T13:55:09Z</time>
      </trkpt>
      <trkpt lat="40.30913" lon="-7.5854">
        <ele>1435.957</ele>
        <time>2020-09-27T13:55:11Z</time>
      </trkpt>
      <trkpt lat="40.30897" lon="-7.58539">
        <ele>1433.127</ele>
        <time>2020-09-27T13:55:12Z</time>
      </trkpt>
      <trkpt lat="40.30884" lon="-7.58533">
        <ele>1431.095</ele>
        <time>2020-09-27T13:55:13Z</time>
      </trkpt>
      <trkpt lat="40.30857" lon="-7.58526">
        <ele>1429.011</ele>
        <time>2020-09-27T13:55:15Z</time>
      </trkpt>
      <trkpt lat="40.30842" lon="-7.58531">
        <ele>1427.121</ele>
        <time>2020-09-27T13:55:16Z</time>
      </trkpt>
      <trkpt lat="40.30807" lon="-7.58544">
        <ele>1425.003</ele>
        <time>2020-09-27T13:55:18Z</time>
      </trkpt>
      <trkpt lat="40.30771" lon="-7.58557">
        <ele>1422.408</ele>
        <time>2020-09-27T13:55:20Z</time>
      </trkpt>
      <trkpt lat="40.30736" lon="-7.58563">
        <ele>1419.866</ele>
        <time>2020-09-27T13:55:22Z</time>
      </trkpt>
      <trkpt lat="40.30721" lon="-7.58572">
        <ele>1417.718</ele>
        <time>2020-09-27T13:55:23Z</time>
      </trkpt>
      <trkpt lat="40.30692" lon="-7.586">
        <ele>1415.536</ele>
        <time>2020-09-27T13:55:25Z</time>
      </trkpt>
      <trkpt lat="40.30678" lon="-7.58613">
        <ele>1413.798</ele>
        <time>2020-09-27T13:55:26Z</time>
      </trkpt>
      <trkpt lat="40.30664" lon="-7.58623">
        <ele>1412.446</ele>
        <time>2020-09-27T13:55:27Z</time>
      </trkpt>
      <trkpt lat="40.30634" lon="-7.58631">
        <ele>1410.826</ele>
        <time>2020-09-27T13:55:29Z</time>
      </trkpt>
      <trkpt lat="40.3062" lon="-7.58636">
        <ele>1409.516</ele>
        <time>2020-09-27T13:55:30Z</time>
      </trkpt>
      <trkpt lat="40.30609" lon="-7.58646">
        <ele>1408.274</ele>
        <time>2020-09-27T13:55:31Z</time>
      </trkpt>
      <trkpt lat="40.30588" lon="-7.58669">
        <ele>1406.258</ele>
        <time>2020-09-27T13:55:33Z</time>
      </trkpt>
      <trkpt lat="40.30575" lon="-7.58675">
        <ele>1404.452</ele>
        <time>2020-09-27T13:55:34Z</time>
      </trkpt>
      <trkpt lat="40.30561" lon="-7.58678">
        <ele>1402.817</ele>
        <time>2020-09-27T13:55:35Z</time>
      </trkpt>
      <trkpt lat="40.30547" lon="-7.58681">
        <ele>1401.208</ele>
        <time>2020-09-27T13:55:36Z</time>
      </trkpt>
      <trkpt lat="40.30519" lon="-7.58688">
        <ele>1399.38</ele>
        <time>2020-09-27T13:55:38Z</time>
      </trkpt>
      <trkpt lat="40.30505" lon="-7.58691">
        <ele>1397.622</ele>
        <time>2020-09-27T13:55:39Z</time>
      </trkpt>
      <trkpt lat="40.30477" lon="-7.58697">
        <ele>1395.54</ele>
        <time>2020-09-27T13:55:41Z</time>
      </trkpt>
      <trkpt lat="40.30449" lon="-7.58703">
        <ele>1393.272</ele>
        <time>2020-09-27T13:55:43Z</time>
      </trkpt>
      <trkpt lat="40.30436" lon="-7.58707">
        <ele>1391.31</ele>
        <time>2020-09-27T13:55:44Z</time>
      </trkpt>
      <trkpt lat="40.30423" lon="-7.58712">
        <ele>1389.88</ele>
        <time>2020-09-27T13:55:45Z</time>
      </trkpt>
      <trkpt lat="40.30397" lon="-7.5872">
        <ele>1388.14</ele>
        <time>2020-09-27T13:55:47Z</time>
      </trkpt>
      <trkpt lat="40.30384" lon="-7.58722">
        <ele>1386.778</ele>
        <time>2020-09-27T13:55:48Z</time>
      </trkpt>
      <trkpt lat="40.30371" lon="-7.58725">
        <ele>1385.439</ele>
        <time>2020-09-27T13:55:49Z</time>
      </trkpt>
      <trkpt lat="40.30358" lon="-7.58729">
        <ele>1384.101</ele>
        <time>2020-09-27T13:55:50Z</time>
      </trkpt>
      <trkpt lat="40.30344" lon="-7.58735">
        <ele>1382.921</ele>
        <time>2020-09-27T13:55:51Z</time>
      </trkpt>
      <trkpt lat="40.30313" lon="-7.58743">
        <ele>1381.008</ele>
        <time>2020-09-27T13:55:53Z</time>
      </trkpt>
      <trkpt lat="40.3028" lon="-7.58748">
        <ele>1378.628</ele>
        <time>2020-09-27T13:55:55Z</time>
      </trkpt>
      <trkpt lat="40.30265" lon="-7.58751">
        <ele>1376.49</ele>
        <time>2020-09-27T13:55:56Z</time>
      </trkpt>
      <trkpt lat="40.30237" lon="-7.58759">
        <ele>1374.198</ele>
        <time>2020-09-27T13:55:58Z</time>
      </trkpt>
      <trkpt lat="40.30214" lon="-7.58765">
        <ele>1371.87</ele>
        <time>2020-09-27T13:56:00Z</time>
      </trkpt>
      <trkpt lat="40.30198" lon="-7.58771">
        <ele>1369.888</ele>
        <time>2020-09-27T13:56:02Z</time>
      </trkpt>
      <trkpt lat="40.30191" lon="-7.58787">
        <ele>1368.088</ele>
        <time>2020-09-27T13:56:04Z</time>
      </trkpt>
      <trkpt lat="40.30193" lon="-7.58796">
        <ele>1366.538</ele>
        <time>2020-09-27T13:56:05Z</time>
      </trkpt>
      <trkpt lat="40.30207" lon="-7.5881">
        <ele>1364.926</ele>
        <time>2020-09-27T13:56:07Z</time>
      </trkpt>
      <trkpt lat="40.30233" lon="-7.58809">
        <ele>1362.858</ele>
        <time>2020-09-27T13:56:09Z</time>
      </trkpt>
      <trkpt lat="40.30262" lon="-7.58802">
        <ele>1360.652</ele>
        <time>2020-09-27T13:56:11Z</time>
      </trkpt>
      <trkpt lat="40.30283" lon="-7.58798">
        <ele>1358.317</ele>
        <time>2020-09-27T13:56:13Z</time>
      </trkpt>
      <trkpt lat="40.3029" lon="-7.588">
        <ele>1356.508</ele>
        <time>2020-09-27T13:56:14Z</time>
      </trkpt>
      <trkpt lat="40.30294" lon="-7.58815">
        <ele>1354.74</ele>
        <time>2020-09-27T13:56:16Z</time>
      </trkpt>
      <trkpt lat="40.30291" lon="-7.58823">
        <ele>1353.482</ele>
        <time>2020-09-27T13:56:17Z</time>
      </trkpt>
      <trkpt lat="40.30273" lon="-7.58838">
        <ele>1351.81</ele>
        <time>2020-09-27T13:56:19Z</time>
      </trkpt>
      <trkpt lat="40.30259" lon="-7.58844">
        <ele>1350.392</ele>
        <time>2020-09-27T13:56:20Z</time>
      </trkpt>
      <trkpt lat="40.3023" lon="-7.58851">
        <ele>1348.29</ele>
        <time>2020-09-27T13:56:22Z</time>
      </trkpt>
      <trkpt lat="40.30218" lon="-7.58854">
        <ele>1346.67</ele>
        <time>2020-09-27T13:56:23Z</time>
      </trkpt>
      <trkpt lat="40.302" lon="-7.58857">
        <ele>1345.05</ele>
        <time>2020-09-27T13:56:25Z</time>
      </trkpt>
      <trkpt lat="40.30193" lon="-7.58857">
        <ele>1343.988</ele>
        <time>2020-09-27T13:56:26Z</time>
      </trkpt>
      <trkpt lat="40.30186" lon="-7.58859">
        <ele>1342.956</ele>
        <time>2020-09-27T13:56:27Z</time>
      </trkpt>
      <trkpt lat="40.30177" lon="-7.58868">
        <ele>1341.759</ele>
        <time>2020-09-27T13:56:29Z</time>
      </trkpt>
      <trkpt lat="40.30177" lon="-7.58876">
        <ele>1340.714</ele>
        <time>2020-09-27T13:56:30Z</time>
      </trkpt>
      <trkpt lat="40.30192" lon="-7.58887">
        <ele>1339.408</ele>
        <time>2020-09-27T13:56:32Z</time>
      </trkpt>
      <trkpt lat="40.30219" lon="-7.58886">
        <ele>1337.71</ele>
        <time>2020-09-27T13:56:34Z</time>
      </trkpt>
      <trkpt lat="40.30245" lon="-7.58886">
        <ele>1335.862</ele>
        <time>2020-09-27T13:56:36Z</time>
      </trkpt>
      <trkpt lat="40.3026" lon="-7.58892">
        <ele>1333.95</ele>
        <time>2020-09-27T13:56:38Z</time>
      </trkpt>
      <trkpt lat="40.30266" lon="-7.58907">
        <ele>1332.042</ele>
        <time>2020-09-27T13:56:40Z</time>
      </trkpt>
      <trkpt lat="40.30264" lon="-7.58917">
        <ele>1330.66</ele>
        <time>2020-09-27T13:56:41Z</time>
      </trkpt>
      <trkpt lat="40.30258" lon="-7.58927">
        <ele>1329.68</ele>
        <time>2020-09-27T13:56:42Z</time>
      </trkpt>
      <trkpt lat="40.30234" lon="-7.58941">
        <ele>1327.67</ele>
        <time>2020-09-27T13:56:44Z</time>
      </trkpt>
      <trkpt lat="40.30219" lon="-7.58946">
        <ele>1325.768</ele>
        <time>2020-09-27T13:56:45Z</time>
      </trkpt>
      <trkpt lat="40.30204" lon="-7.5895">
        <ele>1323.839</ele>
        <time>2020-09-27T13:56:46Z</time>
      </trkpt>
      <trkpt lat="40.30175" lon="-7.58956">
        <ele>1321.401</ele>
        <time>2020-09-27T13:56:48Z</time>
      </trkpt>
      <trkpt lat="40.30152" lon="-7.58967">
        <ele>1318.921</ele>
        <time>2020-09-27T13:56:50Z</time>
      </trkpt>
      <trkpt lat="40.30135" lon="-7.58976">
        <ele>1316.708</ele>
        <time>2020-09-27T13:56:52Z</time>
      </trkpt>
      <trkpt lat="40.30123" lon="-7.58982">
        <ele>1315.168</ele>
        <time>2020-09-27T13:56:54Z</time>
      </trkpt>
      <trkpt lat="40.30118" lon="-7.58981">
        <ele>1314.18</ele>
        <time>2020-09-27T13:56:55Z</time>
      </trkpt>
      <trkpt lat="40.3011" lon="-7.58979">
        <ele>1313.578</ele>
        <time>2020-09-27T13:56:57Z</time>
      </trkpt>
      <trkpt lat="40.30106" lon="-7.58975">
        <ele>1317.56</ele>
        <time>2020-09-27T13:56:58Z</time>
      </trkpt>
      <trkpt lat="40.30095" lon="-7.58961">
        <ele>1318.348</ele>
        <time>2020-09-27T13:57:00Z</time>
      </trkpt>
      <trkpt lat="40.30083" lon="-7.58947">
        <ele>1317.428</ele>
        <time>2020-09-27T13:57:02Z</time>
      </trkpt>
      <trkpt lat="40.30072" lon="-7.58938">
        <ele>1317.488</ele>
        <time>2020-09-27T13:57:04Z</time>
      </trkpt>
      <trkpt lat="40.30059" lon="-7.58935">
        <ele>1316.066</ele>
        <time>2020-09-27T13:57:06Z</time>
      </trkpt>
      <trkpt lat="40.30046" lon="-7.58929">
        <ele>1314.755</ele>
        <time>2020-09-27T13:57:08Z</time>
      </trkpt>
      <trkpt lat="40.30033" lon="-7.58925">
        <ele>1313.807</ele>
        <time>2020-09-27T13:57:10Z</time>
      </trkpt>
      <trkpt lat="40.30026" lon="-7.58923">
        <ele>1312.917</ele>
        <time>2020-09-27T13:57:12Z</time>
      </trkpt>
      <trkpt lat="40.30027" lon="-7.58916">
        <ele>1313.108</ele>
        <time>2020-09-27T13:57:38Z</time>
      </trkpt>
      <trkpt lat="40.30027" lon="-7.58922">
        <ele>1313.26</ele>
        <time>2020-09-27T13:59:31Z</time>
      </trkpt>
      <trkpt lat="40.30036" lon="-7.58916">
        <ele>1312.032</ele>
        <time>2020-09-27T14:02:09Z</time>
      </trkpt>
      <trkpt lat="40.30029" lon="-7.5892">
        <ele>1311.79</ele>
        <time>2020-09-27T14:02:42Z</time>
      </trkpt>
      <trkpt lat="40.30024" lon="-7.58921">
        <ele>1312.472</ele>
        <time>2020-09-27T14:02:49Z</time>
      </trkpt>
      <trkpt lat="40.30017" lon="-7.58917">
        <ele>1313.24</ele>
        <time>2020-09-27T14:04:03Z</time>
      </trkpt>
      <trkpt lat="40.30011" lon="-7.58914">
        <ele>1313.91</ele>
        <time>2020-09-27T14:04:04Z</time>
      </trkpt>
      <trkpt lat="40.29991" lon="-7.58907">
        <ele>1314.51</ele>
        <time>2020-09-27T14:04:06Z</time>
      </trkpt>
      <trkpt lat="40.2998" lon="-7.58906">
        <ele>1316.028</ele>
        <time>2020-09-27T14:04:07Z</time>
      </trkpt>
      <trkpt lat="40.29954" lon="-7.58908">
        <ele>1316.886</ele>
        <time>2020-09-27T14:04:09Z</time>
      </trkpt>
      <trkpt lat="40.29924" lon="-7.58915">
        <ele>1317.36</ele>
        <time>2020-09-27T14:04:11Z</time>
      </trkpt>
      <trkpt lat="40.29891" lon="-7.58923">
        <ele>1317.926</ele>
        <time>2020-09-27T14:04:13Z</time>
      </trkpt>
      <trkpt lat="40.2986" lon="-7.58929">
        <ele>1318.108</ele>
        <time>2020-09-27T14:04:15Z</time>
      </trkpt>
      <trkpt lat="40.29846" lon="-7.58932">
        <ele>1318.263</ele>
        <time>2020-09-27T14:04:16Z</time>
      </trkpt>
      <trkpt lat="40.29821" lon="-7.58937">
        <ele>1318.415</ele>
        <time>2020-09-27T14:04:18Z</time>
      </trkpt>
      <trkpt lat="40.29808" lon="-7.58938">
        <ele>1318.673</ele>
        <time>2020-09-27T14:04:19Z</time>
      </trkpt>
      <trkpt lat="40.29784" lon="-7.58937">
        <ele>1318.635</ele>
        <time>2020-09-27T14:04:21Z</time>
      </trkpt>
      <trkpt lat="40.29772" lon="-7.58936">
        <ele>1318.743</ele>
        <time>2020-09-27T14:04:22Z</time>
      </trkpt>
      <trkpt lat="40.29762" lon="-7.58936">
        <ele>1318.833</ele>
        <time>2020-09-27T14:04:23Z</time>
      </trkpt>
      <trkpt lat="40.29742" lon="-7.58934">
        <ele>1318.693</ele>
        <time>2020-09-27T14:04:25Z</time>
      </trkpt>
      <trkpt lat="40.29733" lon="-7.58933">
        <ele>1318.421</ele>
        <time>2020-09-27T14:04:26Z</time>
      </trkpt>
      <trkpt lat="40.29714" lon="-7.58933">
        <ele>1318.214</ele>
        <time>2020-09-27T14:04:28Z</time>
      </trkpt>
      <trkpt lat="40.29702" lon="-7.58933">
        <ele>1318.154</ele>
        <time>2020-09-27T14:04:29Z</time>
      </trkpt>
      <trkpt lat="40.29674" lon="-7.58933">
        <ele>1318.009</ele>
        <time>2020-09-27T14:04:31Z</time>
      </trkpt>
      <trkpt lat="40.29645" lon="-7.58935">
        <ele>1318.246</ele>
        <time>2020-09-27T14:04:33Z</time>
      </trkpt>
      <trkpt lat="40.29621" lon="-7.58936">
        <ele>1318.378</ele>
        <time>2020-09-27T14:04:35Z</time>
      </trkpt>
      <trkpt lat="40.29611" lon="-7.58935">
        <ele>1318.396</ele>
        <time>2020-09-27T14:04:36Z</time>
      </trkpt>
      <trkpt lat="40.29603" lon="-7.58933">
        <ele>1318.428</ele>
        <time>2020-09-27T14:04:37Z</time>
      </trkpt>
      <trkpt lat="40.29593" lon="-7.58928">
        <ele>1318.496</ele>
        <time>2020-09-27T14:04:39Z</time>
      </trkpt>
      <trkpt lat="40.29586" lon="-7.58923">
        <ele>1318.216</ele>
        <time>2020-09-27T14:04:41Z</time>
      </trkpt>
      <trkpt lat="40.29577" lon="-7.58918">
        <ele>1318.036</ele>
        <time>2020-09-27T14:04:43Z</time>
      </trkpt>
      <trkpt lat="40.2957" lon="-7.58916">
        <ele>1317.854</ele>
        <time>2020-09-27T14:04:44Z</time>
      </trkpt>
      <trkpt lat="40.29561" lon="-7.58914">
        <ele>1317.775</ele>
        <time>2020-09-27T14:04:45Z</time>
      </trkpt>
      <trkpt lat="40.29536" lon="-7.58907">
        <ele>1318.028</ele>
        <time>2020-09-27T14:04:47Z</time>
      </trkpt>
      <trkpt lat="40.29522" lon="-7.58907">
        <ele>1318.108</ele>
        <time>2020-09-27T14:04:48Z</time>
      </trkpt>
      <trkpt lat="40.29506" lon="-7.58911">
        <ele>1322.112</ele>
        <time>2020-09-27T14:04:49Z</time>
      </trkpt>
      <trkpt lat="40.29477" lon="-7.58924">
        <ele>1326.194</ele>
        <time>2020-09-27T14:04:51Z</time>
      </trkpt>
      <trkpt lat="40.29451" lon="-7.58933">
        <ele>1326.752</ele>
        <time>2020-09-27T14:04:53Z</time>
      </trkpt>
      <trkpt lat="40.29427" lon="-7.58936">
        <ele>1325.744</ele>
        <time>2020-09-27T14:04:55Z</time>
      </trkpt>
      <trkpt lat="40.29414" lon="-7.58935">
        <ele>1324.512</ele>
        <time>2020-09-27T14:04:56Z</time>
      </trkpt>
      <trkpt lat="40.29389" lon="-7.58941">
        <ele>1328.522</ele>
        <time>2020-09-27T14:04:58Z</time>
      </trkpt>
      <trkpt lat="40.29365" lon="-7.58948">
        <ele>1329.852</ele>
        <time>2020-09-27T14:05:00Z</time>
      </trkpt>
      <trkpt lat="40.29354" lon="-7.5895">
        <ele>1329.02</ele>
        <time>2020-09-27T14:05:01Z</time>
      </trkpt>
      <trkpt lat="40.29331" lon="-7.5895">
        <ele>1326.953</ele>
        <time>2020-09-27T14:05:03Z</time>
      </trkpt>
      <trkpt lat="40.29308" lon="-7.5895">
        <ele>1324.704</ele>
        <time>2020-09-27T14:05:05Z</time>
      </trkpt>
      <trkpt lat="40.29297" lon="-7.58952">
        <ele>1323.114</ele>
        <time>2020-09-27T14:05:06Z</time>
      </trkpt>
      <trkpt lat="40.29281" lon="-7.58958">
        <ele>1322.108</ele>
        <time>2020-09-27T14:05:08Z</time>
      </trkpt>
      <trkpt lat="40.29274" lon="-7.58959">
        <ele>1321.57</ele>
        <time>2020-09-27T14:05:09Z</time>
      </trkpt>
      <trkpt lat="40.2926" lon="-7.58961">
        <ele>1325.292</ele>
        <time>2020-09-27T14:05:11Z</time>
      </trkpt>
      <trkpt lat="40.29241" lon="-7.58962">
        <ele>1324.99</ele>
        <time>2020-09-27T14:05:13Z</time>
      </trkpt>
      <trkpt lat="40.29231" lon="-7.58963">
        <ele>1323.942</ele>
        <time>2020-09-27T14:05:14Z</time>
      </trkpt>
      <trkpt lat="40.29221" lon="-7.58965">
        <ele>1322.82</ele>
        <time>2020-09-27T14:05:15Z</time>
      </trkpt>
      <trkpt lat="40.29211" lon="-7.58966">
        <ele>1321.79</ele>
        <time>2020-09-27T14:05:16Z</time>
      </trkpt>
      <trkpt lat="40.29193" lon="-7.58966">
        <ele>1321.59</ele>
        <time>2020-09-27T14:05:18Z</time>
      </trkpt>
      <trkpt lat="40.29175" lon="-7.58962">
        <ele>1320.058</ele>
        <time>2020-09-27T14:05:20Z</time>
      </trkpt>
      <trkpt lat="40.29158" lon="-7.58954">
        <ele>1318.573</ele>
        <time>2020-09-27T14:05:22Z</time>
      </trkpt>
      <trkpt lat="40.2915" lon="-7.58949">
        <ele>1317.585</ele>
        <time>2020-09-27T14:05:23Z</time>
      </trkpt>
      <trkpt lat="40.29143" lon="-7.58944">
        <ele>1316.913</ele>
        <time>2020-09-27T14:05:24Z</time>
      </trkpt>
      <trkpt lat="40.2913" lon="-7.58933">
        <ele>1316.508</ele>
        <time>2020-09-27T14:05:26Z</time>
      </trkpt>
      <trkpt lat="40.29124" lon="-7.58926">
        <ele>1320.552</ele>
        <time>2020-09-27T14:05:27Z</time>
      </trkpt>
      <trkpt lat="40.29118" lon="-7.5892">
        <ele>1322.884</ele>
        <time>2020-09-27T14:05:28Z</time>
      </trkpt>
      <trkpt lat="40.29113" lon="-7.58915">
        <ele>1323.222</ele>
        <time>2020-09-27T14:05:29Z</time>
      </trkpt>
      <trkpt lat="40.29101" lon="-7.58903">
        <ele>1322.464</ele>
        <time>2020-09-27T14:05:31Z</time>
      </trkpt>
      <trkpt lat="40.29092" lon="-7.58897">
        <ele>1321.512</ele>
        <time>2020-09-27T14:05:32Z</time>
      </trkpt>
      <trkpt lat="40.29072" lon="-7.58889">
        <ele>1324.182</ele>
        <time>2020-09-27T14:05:34Z</time>
      </trkpt>
      <trkpt lat="40.29062" lon="-7.58888">
        <ele>1323.722</ele>
        <time>2020-09-27T14:05:35Z</time>
      </trkpt>
      <trkpt lat="40.29042" lon="-7.58893">
        <ele>1321.92</ele>
        <time>2020-09-27T14:05:37Z</time>
      </trkpt>
      <trkpt lat="40.29027" lon="-7.58907">
        <ele>1320.174</ele>
        <time>2020-09-27T14:05:39Z</time>
      </trkpt>
      <trkpt lat="40.29017" lon="-7.58935">
        <ele>1318.756</ele>
        <time>2020-09-27T14:05:41Z</time>
      </trkpt>
      <trkpt lat="40.29008" lon="-7.58968">
        <ele>1317.721</ele>
        <time>2020-09-27T14:05:43Z</time>
      </trkpt>
      <trkpt lat="40.29" lon="-7.58996">
        <ele>1316.608</ele>
        <time>2020-09-27T14:05:45Z</time>
      </trkpt>
      <trkpt lat="40.28992" lon="-7.59022">
        <ele>1315.822</ele>
        <time>2020-09-27T14:05:47Z</time>
      </trkpt>
      <trkpt lat="40.28985" lon="-7.59044">
        <ele>1315.114</ele>
        <time>2020-09-27T14:05:49Z</time>
      </trkpt>
      <trkpt lat="40.28982" lon="-7.59054">
        <ele>1314.752</ele>
        <time>2020-09-27T14:05:50Z</time>
      </trkpt>
      <trkpt lat="40.28974" lon="-7.59071">
        <ele>1314.384</ele>
        <time>2020-09-27T14:05:52Z</time>
      </trkpt>
      <trkpt lat="40.28964" lon="-7.59081">
        <ele>1314.052</ele>
        <time>2020-09-27T14:05:54Z</time>
      </trkpt>
      <trkpt lat="40.28952" lon="-7.59087">
        <ele>1313.992</ele>
        <time>2020-09-27T14:05:56Z</time>
      </trkpt>
      <trkpt lat="40.28935" lon="-7.59091">
        <ele>1313.882</ele>
        <time>2020-09-27T14:05:58Z</time>
      </trkpt>
      <trkpt lat="40.28916" lon="-7.59095">
        <ele>1313.78</ele>
        <time>2020-09-27T14:06:00Z</time>
      </trkpt>
      <trkpt lat="40.28898" lon="-7.591">
        <ele>1313.604</ele>
        <time>2020-09-27T14:06:02Z</time>
      </trkpt>
      <trkpt lat="40.28881" lon="-7.59104">
        <ele>1313.524</ele>
        <time>2020-09-27T14:06:04Z</time>
      </trkpt>
      <trkpt lat="40.28862" lon="-7.59107">
        <ele>1313.608</ele>
        <time>2020-09-27T14:06:06Z</time>
      </trkpt>
      <trkpt lat="40.2884" lon="-7.59107">
        <ele>1313.611</ele>
        <time>2020-09-27T14:06:08Z</time>
      </trkpt>
      <trkpt lat="40.28816" lon="-7.59105">
        <ele>1313.683</ele>
        <time>2020-09-27T14:06:10Z</time>
      </trkpt>
      <trkpt lat="40.28804" lon="-7.59104">
        <ele>1313.611</ele>
        <time>2020-09-27T14:06:11Z</time>
      </trkpt>
      <trkpt lat="40.28794" lon="-7.59105">
        <ele>1313.563</ele>
        <time>2020-09-27T14:06:12Z</time>
      </trkpt>
      <trkpt lat="40.28773" lon="-7.5911">
        <ele>1313.751</ele>
        <time>2020-09-27T14:06:14Z</time>
      </trkpt>
      <trkpt lat="40.28763" lon="-7.59116">
        <ele>1313.971</ele>
        <time>2020-09-27T14:06:15Z</time>
      </trkpt>
      <trkpt lat="40.28753" lon="-7.59122">
        <ele>1314.211</ele>
        <time>2020-09-27T14:06:16Z</time>
      </trkpt>
      <trkpt lat="40.28738" lon="-7.59134">
        <ele>1314.329</ele>
        <time>2020-09-27T14:06:18Z</time>
      </trkpt>
      <trkpt lat="40.28725" lon="-7.59145">
        <ele>1313.728</ele>
        <time>2020-09-27T14:06:20Z</time>
      </trkpt>
      <trkpt lat="40.28718" lon="-7.59151">
        <ele>1313.089</ele>
        <time>2020-09-27T14:06:21Z</time>
      </trkpt>
      <trkpt lat="40.28705" lon="-7.59164">
        <ele>1311.717</ele>
        <time>2020-09-27T14:06:23Z</time>
      </trkpt>
      <trkpt lat="40.28698" lon="-7.59169">
        <ele>1310.508</ele>
        <time>2020-09-27T14:06:24Z</time>
      </trkpt>
      <trkpt lat="40.2869" lon="-7.59173">
        <ele>1309.477</ele>
        <time>2020-09-27T14:06:25Z</time>
      </trkpt>
      <trkpt lat="40.28678" lon="-7.59181">
        <ele>1308.479</ele>
        <time>2020-09-27T14:06:27Z</time>
      </trkpt>
      <trkpt lat="40.28671" lon="-7.59183">
        <ele>1307.757</ele>
        <time>2020-09-27T14:06:28Z</time>
      </trkpt>
      <trkpt lat="40.28657" lon="-7.59186">
        <ele>1306.789</ele>
        <time>2020-09-27T14:06:30Z</time>
      </trkpt>
      <trkpt lat="40.28649" lon="-7.59188">
        <ele>1305.867</ele>
        <time>2020-09-27T14:06:31Z</time>
      </trkpt>
      <trkpt lat="40.28641" lon="-7.59191">
        <ele>1304.997</ele>
        <time>2020-09-27T14:06:32Z</time>
      </trkpt>
      <trkpt lat="40.28633" lon="-7.59193">
        <ele>1303.947</ele>
        <time>2020-09-27T14:06:33Z</time>
      </trkpt>
      <trkpt lat="40.28616" lon="-7.59194">
        <ele>1302.635</ele>
        <time>2020-09-27T14:06:35Z</time>
      </trkpt>
      <trkpt lat="40.28599" lon="-7.59192">
        <ele>1301.388</ele>
        <time>2020-09-27T14:06:37Z</time>
      </trkpt>
      <trkpt lat="40.28582" lon="-7.59189">
        <ele>1299.824</ele>
        <time>2020-09-27T14:06:39Z</time>
      </trkpt>
      <trkpt lat="40.28565" lon="-7.59187">
        <ele>1298.326</ele>
        <time>2020-09-27T14:06:41Z</time>
      </trkpt>
      <trkpt lat="40.28548" lon="-7.59187">
        <ele>1296.908</ele>
        <time>2020-09-27T14:06:43Z</time>
      </trkpt>
      <trkpt lat="40.2854" lon="-7.59186">
        <ele>1295.743</ele>
        <time>2020-09-27T14:06:44Z</time>
      </trkpt>
      <trkpt lat="40.28532" lon="-7.59187">
        <ele>1294.885</ele>
        <time>2020-09-27T14:06:45Z</time>
      </trkpt>
      <trkpt lat="40.28524" lon="-7.59187">
        <ele>1294.073</ele>
        <time>2020-09-27T14:06:46Z</time>
      </trkpt>
      <trkpt lat="40.28509" lon="-7.59185">
        <ele>1293.225</ele>
        <time>2020-09-27T14:06:48Z</time>
      </trkpt>
      <trkpt lat="40.28497" lon="-7.59179">
        <ele>1292.333</ele>
        <time>2020-09-27T14:06:50Z</time>
      </trkpt>
      <trkpt lat="40.28488" lon="-7.59173">
        <ele>1291.673</ele>
        <time>2020-09-27T14:06:52Z</time>
      </trkpt>
      <trkpt lat="40.28484" lon="-7.59169">
        <ele>1291.133</ele>
        <time>2020-09-27T14:06:54Z</time>
      </trkpt>
      <trkpt lat="40.28481" lon="-7.59165">
        <ele>1290.891</ele>
        <time>2020-09-27T14:06:57Z</time>
      </trkpt>
      <trkpt lat="40.28478" lon="-7.59158">
        <ele>1289.992</ele>
        <time>2020-09-27T14:08:00Z</time>
      </trkpt>
      <trkpt lat="40.28474" lon="-7.59151">
        <ele>1289.373</ele>
        <time>2020-09-27T14:08:01Z</time>
      </trkpt>
      <trkpt lat="40.28464" lon="-7.59138">
        <ele>1288.52</ele>
        <time>2020-09-27T14:08:03Z</time>
      </trkpt>
      <trkpt lat="40.28454" lon="-7.59123">
        <ele>1287.608</ele>
        <time>2020-09-27T14:08:05Z</time>
      </trkpt>
      <trkpt lat="40.28445" lon="-7.59101">
        <ele>1286.634</ele>
        <time>2020-09-27T14:08:07Z</time>
      </trkpt>
      <trkpt lat="40.28439" lon="-7.59088">
        <ele>1285.826</ele>
        <time>2020-09-27T14:08:08Z</time>
      </trkpt>
      <trkpt lat="40.28421" lon="-7.59064">
        <ele>1284.854</ele>
        <time>2020-09-27T14:08:10Z</time>
      </trkpt>
      <trkpt lat="40.28404" lon="-7.59045">
        <ele>1283.686</ele>
        <time>2020-09-27T14:08:12Z</time>
      </trkpt>
      <trkpt lat="40.28388" lon="-7.59027">
        <ele>1282.434</ele>
        <time>2020-09-27T14:08:14Z</time>
      </trkpt>
      <trkpt lat="40.28381" lon="-7.59019">
        <ele>1281.224</ele>
        <time>2020-09-27T14:08:15Z</time>
      </trkpt>
      <trkpt lat="40.28372" lon="-7.59015">
        <ele>1280.134</ele>
        <time>2020-09-27T14:08:16Z</time>
      </trkpt>
      <trkpt lat="40.28358" lon="-7.59026">
        <ele>1278.742</ele>
        <time>2020-09-27T14:08:18Z</time>
      </trkpt>
      <trkpt lat="40.28357" lon="-7.59037">
        <ele>1277.563</ele>
        <time>2020-09-27T14:08:19Z</time>
      </trkpt>
      <trkpt lat="40.2836" lon="-7.59048">
        <ele>1276.644</ele>
        <time>2020-09-27T14:08:20Z</time>
      </trkpt>
      <trkpt lat="40.28379" lon="-7.59067">
        <ele>1275.618</ele>
        <time>2020-09-27T14:08:22Z</time>
      </trkpt>
      <trkpt lat="40.28401" lon="-7.59091">
        <ele>1275.008</ele>
        <time>2020-09-27T14:08:24Z</time>
      </trkpt>
      <trkpt lat="40.28417" lon="-7.59124">
        <ele>1279.041</ele>
        <time>2020-09-27T14:08:26Z</time>
      </trkpt>
      <trkpt lat="40.28422" lon="-7.59142">
        <ele>1283.033</ele>
        <time>2020-09-27T14:08:27Z</time>
      </trkpt>
      <trkpt lat="40.28432" lon="-7.59176">
        <ele>1282.771</ele>
        <time>2020-09-27T14:08:29Z</time>
      </trkpt>
      <trkpt lat="40.28451" lon="-7.59204">
        <ele>1280.653</ele>
        <time>2020-09-27T14:08:31Z</time>
      </trkpt>
      <trkpt lat="40.28471" lon="-7.59219">
        <ele>1278.241</ele>
        <time>2020-09-27T14:08:33Z</time>
      </trkpt>
      <trkpt lat="40.28478" lon="-7.59224">
        <ele>1276.871</ele>
        <time>2020-09-27T14:08:34Z</time>
      </trkpt>
      <trkpt lat="40.28483" lon="-7.5924">
        <ele>1276.031</ele>
        <time>2020-09-27T14:08:36Z</time>
      </trkpt>
      <trkpt lat="40.28473" lon="-7.59251">
        <ele>1275.249</ele>
        <time>2020-09-27T14:08:38Z</time>
      </trkpt>
      <trkpt lat="40.28456" lon="-7.59247">
        <ele>1275.007</ele>
        <time>2020-09-27T14:08:40Z</time>
      </trkpt>
      <trkpt lat="40.28448" lon="-7.5924">
        <ele>1275.017</ele>
        <time>2020-09-27T14:08:41Z</time>
      </trkpt>
      <trkpt lat="40.28431" lon="-7.59222">
        <ele>1272.508</ele>
        <time>2020-09-27T14:08:43Z</time>
      </trkpt>
      <trkpt lat="40.28415" lon="-7.59206">
        <ele>1269.44</ele>
        <time>2020-09-27T14:08:45Z</time>
      </trkpt>
      <trkpt lat="40.28407" lon="-7.59197">
        <ele>1266.952</ele>
        <time>2020-09-27T14:08:46Z</time>
      </trkpt>
      <trkpt lat="40.28397" lon="-7.59172">
        <ele>1264.54</ele>
        <time>2020-09-27T14:08:48Z</time>
      </trkpt>
      <trkpt lat="40.28388" lon="-7.5915">
        <ele>1260.862</ele>
        <time>2020-09-27T14:08:50Z</time>
      </trkpt>
      <trkpt lat="40.28377" lon="-7.59134">
        <ele>1258.37</ele>
        <time>2020-09-27T14:08:52Z</time>
      </trkpt>
      <trkpt lat="40.2837" lon="-7.59137">
        <ele>1257.728</ele>
        <time>2020-09-27T14:08:54Z</time>
      </trkpt>
      <trkpt lat="40.28373" lon="-7.59153">
        <ele>1257.425</ele>
        <time>2020-09-27T14:08:56Z</time>
      </trkpt>
      <trkpt lat="40.28383" lon="-7.59178">
        <ele>1258.926</ele>
        <time>2020-09-27T14:08:58Z</time>
      </trkpt>
      <trkpt lat="40.28394" lon="-7.59207">
        <ele>1257.008</ele>
        <time>2020-09-27T14:09:00Z</time>
      </trkpt>
      <trkpt lat="40.28398" lon="-7.59222">
        <ele>1255.177</ele>
        <time>2020-09-27T14:09:01Z</time>
      </trkpt>
      <trkpt lat="40.28401" lon="-7.59236">
        <ele>1253.219</ele>
        <time>2020-09-27T14:09:02Z</time>
      </trkpt>
      <trkpt lat="40.28407" lon="-7.59264">
        <ele>1251.057</ele>
        <time>2020-09-27T14:09:04Z</time>
      </trkpt>
      <trkpt lat="40.28415" lon="-7.59289">
        <ele>1248.649</ele>
        <time>2020-09-27T14:09:06Z</time>
      </trkpt>
      <trkpt lat="40.28427" lon="-7.59311">
        <ele>1246.227</ele>
        <time>2020-09-27T14:09:08Z</time>
      </trkpt>
      <trkpt lat="40.28447" lon="-7.59327">
        <ele>1243.857</ele>
        <time>2020-09-27T14:09:10Z</time>
      </trkpt>
      <trkpt lat="40.28466" lon="-7.59336">
        <ele>1241.457</ele>
        <time>2020-09-27T14:09:12Z</time>
      </trkpt>
      <trkpt lat="40.2847" lon="-7.59352">
        <ele>1239.345</ele>
        <time>2020-09-27T14:09:14Z</time>
      </trkpt>
      <trkpt lat="40.28466" lon="-7.59361">
        <ele>1238.047</ele>
        <time>2020-09-27T14:09:15Z</time>
      </trkpt>
      <trkpt lat="40.28447" lon="-7.59373">
        <ele>1237.229</ele>
        <time>2020-09-27T14:09:17Z</time>
      </trkpt>
      <trkpt lat="40.28419" lon="-7.59381">
        <ele>1241.221</ele>
        <time>2020-09-27T14:09:19Z</time>
      </trkpt>
      <trkpt lat="40.28394" lon="-7.59403">
        <ele>1241.708</ele>
        <time>2020-09-27T14:09:21Z</time>
      </trkpt>
      <trkpt lat="40.2837" lon="-7.59427">
        <ele>1238.739</ele>
        <time>2020-09-27T14:09:23Z</time>
      </trkpt>
      <trkpt lat="40.28342" lon="-7.59443">
        <ele>1236.921</ele>
        <time>2020-09-27T14:09:25Z</time>
      </trkpt>
      <trkpt lat="40.28314" lon="-7.59454">
        <ele>1235.869</ele>
        <time>2020-09-27T14:09:27Z</time>
      </trkpt>
      <trkpt lat="40.28298" lon="-7.59458">
        <ele>1239.871</ele>
        <time>2020-09-27T14:09:28Z</time>
      </trkpt>
      <trkpt lat="40.28267" lon="-7.59464">
        <ele>1238.239</ele>
        <time>2020-09-27T14:09:30Z</time>
      </trkpt>
      <trkpt lat="40.28238" lon="-7.5947">
        <ele>1234.269</ele>
        <time>2020-09-27T14:09:32Z</time>
      </trkpt>
      <trkpt lat="40.28211" lon="-7.59474">
        <ele>1230.299</ele>
        <time>2020-09-27T14:09:34Z</time>
      </trkpt>
      <trkpt lat="40.28197" lon="-7.59476">
        <ele>1226.247</ele>
        <time>2020-09-27T14:09:35Z</time>
      </trkpt>
      <trkpt lat="40.28169" lon="-7.59488">
        <ele>1222.261</ele>
        <time>2020-09-27T14:09:37Z</time>
      </trkpt>
      <trkpt lat="40.28154" lon="-7.59497">
        <ele>1218.221</ele>
        <time>2020-09-27T14:09:38Z</time>
      </trkpt>
      <trkpt lat="40.28139" lon="-7.59507">
        <ele>1214.813</ele>
        <time>2020-09-27T14:09:39Z</time>
      </trkpt>
      <trkpt lat="40.28123" lon="-7.59518">
        <ele>1211.808</ele>
        <time>2020-09-27T14:09:40Z</time>
      </trkpt>
      <trkpt lat="40.28091" lon="-7.59541">
        <ele>1208.321</ele>
        <time>2020-09-27T14:09:42Z</time>
      </trkpt>
      <trkpt lat="40.28062" lon="-7.59561">
        <ele>1204.863</ele>
        <time>2020-09-27T14:09:44Z</time>
      </trkpt>
      <trkpt lat="40.28049" lon="-7.59571">
        <ele>1202.051</ele>
        <time>2020-09-27T14:09:45Z</time>
      </trkpt>
      <trkpt lat="40.28024" lon="-7.59594">
        <ele>1199.053</ele>
        <time>2020-09-27T14:09:47Z</time>
      </trkpt>
      <trkpt lat="40.28012" lon="-7.59608">
        <ele>1196.521</ele>
        <time>2020-09-27T14:09:48Z</time>
      </trkpt>
      <trkpt lat="40.2799" lon="-7.59637">
        <ele>1193.641</ele>
        <time>2020-09-27T14:09:50Z</time>
      </trkpt>
      <trkpt lat="40.27979" lon="-7.59649">
        <ele>1191.131</ele>
        <time>2020-09-27T14:09:51Z</time>
      </trkpt>
      <trkpt lat="40.27967" lon="-7.59658">
        <ele>1188.989</ele>
        <time>2020-09-27T14:09:52Z</time>
      </trkpt>
      <trkpt lat="40.27944" lon="-7.59678">
        <ele>1186.348</ele>
        <time>2020-09-27T14:09:54Z</time>
      </trkpt>
      <trkpt lat="40.27934" lon="-7.59691">
        <ele>1184.261</ele>
        <time>2020-09-27T14:09:55Z</time>
      </trkpt>
      <trkpt lat="40.27923" lon="-7.59726">
        <ele>1180.117</ele>
        <time>2020-09-27T14:09:57Z</time>
      </trkpt>
      <trkpt lat="40.27923" lon="-7.59765">
        <ele>1182.029</ele>
        <time>2020-09-27T14:09:59Z</time>
      </trkpt>
      <trkpt lat="40.27923" lon="-7.59784">
        <ele>1183.161</ele>
        <time>2020-09-27T14:10:00Z</time>
      </trkpt>
      <trkpt lat="40.27925" lon="-7.59803">
        <ele>1183.829</ele>
        <time>2020-09-27T14:10:01Z</time>
      </trkpt>
      <trkpt lat="40.27923" lon="-7.59836">
        <ele>1187.881</ele>
        <time>2020-09-27T14:10:03Z</time>
      </trkpt>
      <trkpt lat="40.27911" lon="-7.59862">
        <ele>1191.859</ele>
        <time>2020-09-27T14:10:05Z</time>
      </trkpt>
      <trkpt lat="40.27902" lon="-7.59873">
        <ele>1191.419</ele>
        <time>2020-09-27T14:10:06Z</time>
      </trkpt>
      <trkpt lat="40.27884" lon="-7.59895">
        <ele>1187.499</ele>
        <time>2020-09-27T14:10:08Z</time>
      </trkpt>
      <trkpt lat="40.27863" lon="-7.59912">
        <ele>1183.447</ele>
        <time>2020-09-27T14:10:10Z</time>
      </trkpt>
      <trkpt lat="40.27853" lon="-7.59918">
        <ele>1179.414</ele>
        <time>2020-09-27T14:10:11Z</time>
      </trkpt>
      <trkpt lat="40.2783" lon="-7.59926">
        <ele>1175.454</ele>
        <time>2020-09-27T14:10:13Z</time>
      </trkpt>
      <trkpt lat="40.27818" lon="-7.59929">
        <ele>1171.409</ele>
        <time>2020-09-27T14:10:14Z</time>
      </trkpt>
      <trkpt lat="40.27806" lon="-7.59931">
        <ele>1167.908</ele>
        <time>2020-09-27T14:10:15Z</time>
      </trkpt>
      <trkpt lat="40.27779" lon="-7.59933">
        <ele>1165.846</ele>
        <time>2020-09-27T14:10:17Z</time>
      </trkpt>
      <trkpt lat="40.27765" lon="-7.59935">
        <ele>1164.628</ele>
        <time>2020-09-27T14:10:18Z</time>
      </trkpt>
      <trkpt lat="40.27751" lon="-7.59939">
        <ele>1168.656</ele>
        <time>2020-09-27T14:10:19Z</time>
      </trkpt>
      <trkpt lat="40.2773" lon="-7.5996">
        <ele>1170.838</ele>
        <time>2020-09-27T14:10:21Z</time>
      </trkpt>
      <trkpt lat="40.27723" lon="-7.59977">
        <ele>1171.536</ele>
        <time>2020-09-27T14:10:22Z</time>
      </trkpt>
      <trkpt lat="40.27713" lon="-7.60008">
        <ele>1167.526</ele>
        <time>2020-09-27T14:10:24Z</time>
      </trkpt>
      <trkpt lat="40.27698" lon="-7.60032">
        <ele>1163.516</ele>
        <time>2020-09-27T14:10:26Z</time>
      </trkpt>
      <trkpt lat="40.27686" lon="-7.6004">
        <ele>1159.574</ele>
        <time>2020-09-27T14:10:27Z</time>
      </trkpt>
      <trkpt lat="40.27672" lon="-7.60044">
        <ele>1156.399</ele>
        <time>2020-09-27T14:10:28Z</time>
      </trkpt>
      <trkpt lat="40.27639" lon="-7.60048">
        <ele>1152.607</ele>
        <time>2020-09-27T14:10:30Z</time>
      </trkpt>
      <trkpt lat="40.27603" lon="-7.60051">
        <ele>1148.727</ele>
        <time>2020-09-27T14:10:32Z</time>
      </trkpt>
      <trkpt lat="40.27569" lon="-7.60057">
        <ele>1144.708</ele>
        <time>2020-09-27T14:10:34Z</time>
      </trkpt>
      <trkpt lat="40.27537" lon="-7.60073">
        <ele>1140.764</ele>
        <time>2020-09-27T14:10:36Z</time>
      </trkpt>
      <trkpt lat="40.27524" lon="-7.60085">
        <ele>1137.426</ele>
        <time>2020-09-27T14:10:37Z</time>
      </trkpt>
      <trkpt lat="40.27511" lon="-7.60097">
        <ele>1134.774</ele>
        <time>2020-09-27T14:10:38Z</time>
      </trkpt>
      <trkpt lat="40.27498" lon="-7.60104">
        <ele>1132.436</ele>
        <time>2020-09-27T14:10:39Z</time>
      </trkpt>
      <trkpt lat="40.27472" lon="-7.60103">
        <ele>1130.024</ele>
        <time>2020-09-27T14:10:41Z</time>
      </trkpt>
      <trkpt lat="40.27459" lon="-7.60094">
        <ele>1128.164</ele>
        <time>2020-09-27T14:10:42Z</time>
      </trkpt>
      <trkpt lat="40.27443" lon="-7.60064">
        <ele>1126.544</ele>
        <time>2020-09-27T14:10:44Z</time>
      </trkpt>
      <trkpt lat="40.27434" lon="-7.60034">
        <ele>1123.712</ele>
        <time>2020-09-27T14:10:46Z</time>
      </trkpt>
      <trkpt lat="40.27423" lon="-7.60025">
        <ele>1122.364</ele>
        <time>2020-09-27T14:10:48Z</time>
      </trkpt>
      <trkpt lat="40.27416" lon="-7.6004">
        <ele>1120.81</ele>
        <time>2020-09-27T14:10:50Z</time>
      </trkpt>
      <trkpt lat="40.27422" lon="-7.60071">
        <ele>1118.808</ele>
        <time>2020-09-27T14:10:52Z</time>
      </trkpt>
      <trkpt lat="40.27431" lon="-7.60109">
        <ele>1116.499</ele>
        <time>2020-09-27T14:10:54Z</time>
      </trkpt>
      <trkpt lat="40.27442" lon="-7.60147">
        <ele>1113.761</ele>
        <time>2020-09-27T14:10:56Z</time>
      </trkpt>
      <trkpt lat="40.27462" lon="-7.60179">
        <ele>1110.779</ele>
        <time>2020-09-27T14:10:58Z</time>
      </trkpt>
      <trkpt lat="40.27491" lon="-7.60206">
        <ele>1107.241</ele>
        <time>2020-09-27T14:11:00Z</time>
      </trkpt>
      <trkpt lat="40.27525" lon="-7.60221">
        <ele>1103.639</ele>
        <time>2020-09-27T14:11:02Z</time>
      </trkpt>
      <trkpt lat="40.27563" lon="-7.60222">
        <ele>1099.949</ele>
        <time>2020-09-27T14:11:04Z</time>
      </trkpt>
      <trkpt lat="40.27583" lon="-7.6022">
        <ele>1096.929</ele>
        <time>2020-09-27T14:11:05Z</time>
      </trkpt>
      <trkpt lat="40.27623" lon="-7.6022">
        <ele>1093.617</ele>
        <time>2020-09-27T14:11:07Z</time>
      </trkpt>
      <trkpt lat="40.27643" lon="-7.60223">
        <ele>1090.997</ele>
        <time>2020-09-27T14:11:08Z</time>
      </trkpt>
      <trkpt lat="40.27681" lon="-7.60233">
        <ele>1087.723</ele>
        <time>2020-09-27T14:11:10Z</time>
      </trkpt>
      <trkpt lat="40.27698" lon="-7.60239">
        <ele>1085.125</ele>
        <time>2020-09-27T14:11:11Z</time>
      </trkpt>
      <trkpt lat="40.2773" lon="-7.60249">
        <ele>1082.608</ele>
        <time>2020-09-27T14:11:13Z</time>
      </trkpt>
      <trkpt lat="40.27761" lon="-7.60248">
        <ele>1079.754</ele>
        <time>2020-09-27T14:11:15Z</time>
      </trkpt>
      <trkpt lat="40.27775" lon="-7.60242">
        <ele>1077.456</ele>
        <time>2020-09-27T14:11:16Z</time>
      </trkpt>
      <trkpt lat="40.27796" lon="-7.60228">
        <ele>1075.134</ele>
        <time>2020-09-27T14:11:18Z</time>
      </trkpt>
      <trkpt lat="40.27805" lon="-7.60223">
        <ele>1073.396</ele>
        <time>2020-09-27T14:11:19Z</time>
      </trkpt>
      <trkpt lat="40.27818" lon="-7.60225">
        <ele>1072.244</ele>
        <time>2020-09-27T14:11:21Z</time>
      </trkpt>
      <trkpt lat="40.27818" lon="-7.60234">
        <ele>1071.544</ele>
        <time>2020-09-27T14:11:22Z</time>
      </trkpt>
      <trkpt lat="40.2781" lon="-7.60257">
        <ele>1071.154</ele>
        <time>2020-09-27T14:11:24Z</time>
      </trkpt>
      <trkpt lat="40.27801" lon="-7.6027">
        <ele>1075.152</ele>
        <time>2020-09-27T14:11:25Z</time>
      </trkpt>
      <trkpt lat="40.27779" lon="-7.60294">
        <ele>1078.352</ele>
        <time>2020-09-27T14:11:27Z</time>
      </trkpt>
      <trkpt lat="40.27767" lon="-7.60308">
        <ele>1077.853</ele>
        <time>2020-09-27T14:11:28Z</time>
      </trkpt>
      <trkpt lat="40.27742" lon="-7.60336">
        <ele>1074.008</ele>
        <time>2020-09-27T14:11:30Z</time>
      </trkpt>
      <trkpt lat="40.27718" lon="-7.60364">
        <ele>1070.008</ele>
        <time>2020-09-27T14:11:32Z</time>
      </trkpt>
      <trkpt lat="40.27698" lon="-7.60391">
        <ele>1066.05</ele>
        <time>2020-09-27T14:11:34Z</time>
      </trkpt>
      <trkpt lat="40.27672" lon="-7.60411">
        <ele>1062.022</ele>
        <time>2020-09-27T14:11:36Z</time>
      </trkpt>
      <trkpt lat="40.27654" lon="-7.60419">
        <ele>1058.02</ele>
        <time>2020-09-27T14:11:37Z</time>
      </trkpt>
      <trkpt lat="40.27636" lon="-7.60426">
        <ele>1054.072</ele>
        <time>2020-09-27T14:11:38Z</time>
      </trkpt>
      <trkpt lat="40.27612" lon="-7.60426">
        <ele>1050.45</ele>
        <time>2020-09-27T14:11:39Z</time>
      </trkpt>
      <trkpt lat="40.27574" lon="-7.60441">
        <ele>1046.74</ele>
        <time>2020-09-27T14:11:41Z</time>
      </trkpt>
      <trkpt lat="40.27541" lon="-7.60458">
        <ele>1042.76</ele>
        <time>2020-09-27T14:11:43Z</time>
      </trkpt>
      <trkpt lat="40.27525" lon="-7.60465">
        <ele>1039.488</ele>
        <time>2020-09-27T14:11:44Z</time>
      </trkpt>
      <trkpt lat="40.27491" lon="-7.60473">
        <ele>1035.891</ele>
        <time>2020-09-27T14:11:46Z</time>
      </trkpt>
      <trkpt lat="40.27474" lon="-7.60475">
        <ele>1032.781</ele>
        <time>2020-09-27T14:11:47Z</time>
      </trkpt>
      <trkpt lat="40.27438" lon="-7.60476">
        <ele>1029.119</ele>
        <time>2020-09-27T14:11:49Z</time>
      </trkpt>
      <trkpt lat="40.274" lon="-7.60475">
        <ele>1025.608</ele>
        <time>2020-09-27T14:11:51Z</time>
      </trkpt>
      <trkpt lat="40.27366" lon="-7.60474">
        <ele>1023.584</ele>
        <time>2020-09-27T14:11:53Z</time>
      </trkpt>
      <trkpt lat="40.27352" lon="-7.60474">
        <ele>1022.276</ele>
        <time>2020-09-27T14:11:54Z</time>
      </trkpt>
      <trkpt lat="40.27332" lon="-7.60484">
        <ele>1025.284</ele>
        <time>2020-09-27T14:11:56Z</time>
      </trkpt>
      <trkpt lat="40.27323" lon="-7.60495">
        <ele>1024.566</ele>
        <time>2020-09-27T14:11:57Z</time>
      </trkpt>
      <trkpt lat="40.27315" lon="-7.60505">
        <ele>1022.114</ele>
        <time>2020-09-27T14:11:58Z</time>
      </trkpt>
      <trkpt lat="40.27295" lon="-7.60509">
        <ele>1018.174</ele>
        <time>2020-09-27T14:12:00Z</time>
      </trkpt>
      <trkpt lat="40.27285" lon="-7.60507">
        <ele>1014.124</ele>
        <time>2020-09-27T14:12:01Z</time>
      </trkpt>
      <trkpt lat="40.27259" lon="-7.60493">
        <ele>1010.172</ele>
        <time>2020-09-27T14:12:03Z</time>
      </trkpt>
      <trkpt lat="40.27232" lon="-7.60501">
        <ele>1006.133</ele>
        <time>2020-09-27T14:12:05Z</time>
      </trkpt>
      <trkpt lat="40.2721" lon="-7.60527">
        <ele>1010.123</ele>
        <time>2020-09-27T14:12:07Z</time>
      </trkpt>
      <trkpt lat="40.27204" lon="-7.60545">
        <ele>1012.115</ele>
        <time>2020-09-27T14:12:08Z</time>
      </trkpt>
      <trkpt lat="40.27207" lon="-7.60583">
        <ele>1008.108</ele>
        <time>2020-09-27T14:12:10Z</time>
      </trkpt>
      <trkpt lat="40.27212" lon="-7.60601">
        <ele>1004.168</ele>
        <time>2020-09-27T14:12:11Z</time>
      </trkpt>
      <trkpt lat="40.27222" lon="-7.60617">
        <ele>1000.14</ele>
        <time>2020-09-27T14:12:12Z</time>
      </trkpt>
      <trkpt lat="40.27245" lon="-7.60643">
        <ele>996.118</ele>
        <time>2020-09-27T14:12:14Z</time>
      </trkpt>
      <trkpt lat="40.27258" lon="-7.60654">
        <ele>992.11</ele>
        <time>2020-09-27T14:12:15Z</time>
      </trkpt>
      <trkpt lat="40.27278" lon="-7.60671">
        <ele>988.168</ele>
        <time>2020-09-27T14:12:17Z</time>
      </trkpt>
      <trkpt lat="40.27286" lon="-7.60692">
        <ele>984.168</ele>
        <time>2020-09-27T14:12:19Z</time>
      </trkpt>
      <trkpt lat="40.27285" lon="-7.60703">
        <ele>980.198</ele>
        <time>2020-09-27T14:12:20Z</time>
      </trkpt>
      <trkpt lat="40.27271" lon="-7.60722">
        <ele>976.126</ele>
        <time>2020-09-27T14:12:22Z</time>
      </trkpt>
      <trkpt lat="40.27259" lon="-7.60728">
        <ele>972.435</ele>
        <time>2020-09-27T14:12:23Z</time>
      </trkpt>
      <trkpt lat="40.27228" lon="-7.60737">
        <ele>969.186</ele>
        <time>2020-09-27T14:12:25Z</time>
      </trkpt>
      <trkpt lat="40.27194" lon="-7.60755">
        <ele>965.914</ele>
        <time>2020-09-27T14:12:27Z</time>
      </trkpt>
      <trkpt lat="40.27178" lon="-7.60764">
        <ele>963.208</ele>
        <time>2020-09-27T14:12:28Z</time>
      </trkpt>
      <trkpt lat="40.27145" lon="-7.60778">
        <ele>960.228</ele>
        <time>2020-09-27T14:12:30Z</time>
      </trkpt>
      <trkpt lat="40.27128" lon="-7.6078">
        <ele>957.63</ele>
        <time>2020-09-27T14:12:31Z</time>
      </trkpt>
      <trkpt lat="40.27111" lon="-7.60776">
        <ele>955.548</ele>
        <time>2020-09-27T14:12:32Z</time>
      </trkpt>
      <trkpt lat="40.27081" lon="-7.60754">
        <ele>953.24</ele>
        <time>2020-09-27T14:12:34Z</time>
      </trkpt>
      <trkpt lat="40.27061" lon="-7.60726">
        <ele>950.718</ele>
        <time>2020-09-27T14:12:36Z</time>
      </trkpt>
      <trkpt lat="40.2705" lon="-7.60718">
        <ele>948.628</ele>
        <time>2020-09-27T14:12:37Z</time>
      </trkpt>
      <trkpt lat="40.27028" lon="-7.60722">
        <ele>947.328</ele>
        <time>2020-09-27T14:12:39Z</time>
      </trkpt>
      <trkpt lat="40.27008" lon="-7.60748">
        <ele>951.366</ele>
        <time>2020-09-27T14:12:41Z</time>
      </trkpt>
      <trkpt lat="40.26986" lon="-7.60775">
        <ele>955.324</ele>
        <time>2020-09-27T14:12:43Z</time>
      </trkpt>
      <trkpt lat="40.26958" lon="-7.60791">
        <ele>956.504</ele>
        <time>2020-09-27T14:12:45Z</time>
      </trkpt>
      <trkpt lat="40.26928" lon="-7.60788">
        <ele>956.014</ele>
        <time>2020-09-27T14:12:47Z</time>
      </trkpt>
      <trkpt lat="40.26898" lon="-7.60768">
        <ele>960.008</ele>
        <time>2020-09-27T14:12:49Z</time>
      </trkpt>
      <trkpt lat="40.26869" lon="-7.60751">
        <ele>964.017</ele>
        <time>2020-09-27T14:12:51Z</time>
      </trkpt>
      <trkpt lat="40.26837" lon="-7.60752">
        <ele>963.829</ele>
        <time>2020-09-27T14:12:53Z</time>
      </trkpt>
      <trkpt lat="40.26807" lon="-7.60764">
        <ele>959.857</ele>
        <time>2020-09-27T14:12:55Z</time>
      </trkpt>
      <trkpt lat="40.26792" lon="-7.60767">
        <ele>955.839</ele>
        <time>2020-09-27T14:12:56Z</time>
      </trkpt>
      <trkpt lat="40.26761" lon="-7.60763">
        <ele>951.857</ele>
        <time>2020-09-27T14:12:58Z</time>
      </trkpt>
      <trkpt lat="40.26729" lon="-7.60744">
        <ele>947.837</ele>
        <time>2020-09-27T14:13:00Z</time>
      </trkpt>
      <trkpt lat="40.2669" lon="-7.60735">
        <ele>943.887</ele>
        <time>2020-09-27T14:13:02Z</time>
      </trkpt>
      <trkpt lat="40.26646" lon="-7.60739">
        <ele>939.825</ele>
        <time>2020-09-27T14:13:04Z</time>
      </trkpt>
      <trkpt lat="40.26598" lon="-7.6074">
        <ele>935.831</ele>
        <time>2020-09-27T14:13:06Z</time>
      </trkpt>
      <trkpt lat="40.26552" lon="-7.60736">
        <ele>931.861</ele>
        <time>2020-09-27T14:13:08Z</time>
      </trkpt>
      <trkpt lat="40.26511" lon="-7.60732">
        <ele>927.807</ele>
        <time>2020-09-27T14:13:10Z</time>
      </trkpt>
      <trkpt lat="40.26491" lon="-7.60732">
        <ele>923.808</ele>
        <time>2020-09-27T14:13:11Z</time>
      </trkpt>
      <trkpt lat="40.26473" lon="-7.60737">
        <ele>919.888</ele>
        <time>2020-09-27T14:13:12Z</time>
      </trkpt>
      <trkpt lat="40.26455" lon="-7.60746">
        <ele>916.06</ele>
        <time>2020-09-27T14:13:13Z</time>
      </trkpt>
      <trkpt lat="40.26438" lon="-7.60759">
        <ele>913.178</ele>
        <time>2020-09-27T14:13:14Z</time>
      </trkpt>
      <trkpt lat="40.26422" lon="-7.60773">
        <ele>910.76</ele>
        <time>2020-09-27T14:13:15Z</time>
      </trkpt>
      <trkpt lat="40.26389" lon="-7.608">
        <ele>908.318</ele>
        <time>2020-09-27T14:13:17Z</time>
      </trkpt>
      <trkpt lat="40.26374" lon="-7.60815">
        <ele>906.318</ele>
        <time>2020-09-27T14:13:18Z</time>
      </trkpt>
      <trkpt lat="40.26355" lon="-7.60856">
        <ele>905.138</ele>
        <time>2020-09-27T14:13:20Z</time>
      </trkpt>
      <trkpt lat="40.26348" lon="-7.60878">
        <ele>904.446</ele>
        <time>2020-09-27T14:13:21Z</time>
      </trkpt>
      <trkpt lat="40.26327" lon="-7.60915">
        <ele>908.442</ele>
        <time>2020-09-27T14:13:23Z</time>
      </trkpt>
      <trkpt lat="40.26314" lon="-7.60933">
        <ele>911.622</ele>
        <time>2020-09-27T14:13:24Z</time>
      </trkpt>
      <trkpt lat="40.26299" lon="-7.6095">
        <ele>911.114</ele>
        <time>2020-09-27T14:13:25Z</time>
      </trkpt>
      <trkpt lat="40.26272" lon="-7.60984">
        <ele>907.508</ele>
        <time>2020-09-27T14:13:27Z</time>
      </trkpt>
      <trkpt lat="40.26249" lon="-7.61018">
        <ele>903.569</ele>
        <time>2020-09-27T14:13:29Z</time>
      </trkpt>
      <trkpt lat="40.26238" lon="-7.6106">
        <ele>899.551</ele>
        <time>2020-09-27T14:13:31Z</time>
      </trkpt>
      <trkpt lat="40.26237" lon="-7.61083">
        <ele>896.599</ele>
        <time>2020-09-27T14:13:32Z</time>
      </trkpt>
      <trkpt lat="40.26238" lon="-7.61132">
        <ele>893.771</ele>
        <time>2020-09-27T14:13:34Z</time>
      </trkpt>
      <trkpt lat="40.2623" lon="-7.61181">
        <ele>890.839</ele>
        <time>2020-09-27T14:13:36Z</time>
      </trkpt>
      <trkpt lat="40.26221" lon="-7.61229">
        <ele>887.439</ele>
        <time>2020-09-27T14:13:38Z</time>
      </trkpt>
      <trkpt lat="40.26217" lon="-7.61251">
        <ele>884.799</ele>
        <time>2020-09-27T14:13:39Z</time>
      </trkpt>
      <trkpt lat="40.26212" lon="-7.61272">
        <ele>882.687</ele>
        <time>2020-09-27T14:13:40Z</time>
      </trkpt>
      <trkpt lat="40.26197" lon="-7.61309">
        <ele>880.382</ele>
        <time>2020-09-27T14:13:42Z</time>
      </trkpt>
      <trkpt lat="40.26187" lon="-7.61324">
        <ele>878.443</ele>
        <time>2020-09-27T14:13:43Z</time>
      </trkpt>
      <trkpt lat="40.26162" lon="-7.61344">
        <ele>876.417</ele>
        <time>2020-09-27T14:13:45Z</time>
      </trkpt>
      <trkpt lat="40.26147" lon="-7.61351">
        <ele>874.808</ele>
        <time>2020-09-27T14:13:46Z</time>
      </trkpt>
      <trkpt lat="40.26131" lon="-7.61353">
        <ele>873.343</ele>
        <time>2020-09-27T14:13:47Z</time>
      </trkpt>
      <trkpt lat="40.26097" lon="-7.61346">
        <ele>871.685</ele>
        <time>2020-09-27T14:13:49Z</time>
      </trkpt>
      <trkpt lat="40.26062" lon="-7.61327">
        <ele>875.643</ele>
        <time>2020-09-27T14:13:51Z</time>
      </trkpt>
      <trkpt lat="40.26044" lon="-7.61319">
        <ele>879.635</ele>
        <time>2020-09-27T14:13:52Z</time>
      </trkpt>
      <trkpt lat="40.26026" lon="-7.61313">
        <ele>881.813</ele>
        <time>2020-09-27T14:13:53Z</time>
      </trkpt>
      <trkpt lat="40.26007" lon="-7.61306">
        <ele>880.163</ele>
        <time>2020-09-27T14:13:54Z</time>
      </trkpt>
      <trkpt lat="40.25973" lon="-7.61289">
        <ele>876.153</ele>
        <time>2020-09-27T14:13:56Z</time>
      </trkpt>
      <trkpt lat="40.25958" lon="-7.6128">
        <ele>872.191</ele>
        <time>2020-09-27T14:13:57Z</time>
      </trkpt>
      <trkpt lat="40.25943" lon="-7.61272">
        <ele>868.765</ele>
        <time>2020-09-27T14:13:58Z</time>
      </trkpt>
      <trkpt lat="40.25916" lon="-7.61269">
        <ele>865.268</ele>
        <time>2020-09-27T14:14:00Z</time>
      </trkpt>
      <trkpt lat="40.25893" lon="-7.61282">
        <ele>861.814</ele>
        <time>2020-09-27T14:14:02Z</time>
      </trkpt>
      <trkpt lat="40.25884" lon="-7.61295">
        <ele>859.008</ele>
        <time>2020-09-27T14:14:03Z</time>
      </trkpt>
      <trkpt lat="40.25871" lon="-7.61337">
        <ele>856.031</ele>
        <time>2020-09-27T14:14:05Z</time>
      </trkpt>
      <trkpt lat="40.25859" lon="-7.61382">
        <ele>853.093</ele>
        <time>2020-09-27T14:14:07Z</time>
      </trkpt>
      <trkpt lat="40.25846" lon="-7.6142">
        <ele>850.331</ele>
        <time>2020-09-27T14:14:09Z</time>
      </trkpt>
      <trkpt lat="40.25823" lon="-7.61446">
        <ele>847.573</ele>
        <time>2020-09-27T14:14:11Z</time>
      </trkpt>
      <trkpt lat="40.2579" lon="-7.61454">
        <ele>844.821</ele>
        <time>2020-09-27T14:14:13Z</time>
      </trkpt>
      <trkpt lat="40.25753" lon="-7.61445">
        <ele>842.271</ele>
        <time>2020-09-27T14:14:15Z</time>
      </trkpt>
      <trkpt lat="40.25713" lon="-7.61433">
        <ele>839.331</ele>
        <time>2020-09-27T14:14:17Z</time>
      </trkpt>
      <trkpt lat="40.25693" lon="-7.61428">
        <ele>836.989</ele>
        <time>2020-09-27T14:14:18Z</time>
      </trkpt>
      <trkpt lat="40.25674" lon="-7.61421">
        <ele>835.455</ele>
        <time>2020-09-27T14:14:19Z</time>
      </trkpt>
      <trkpt lat="40.25637" lon="-7.61401">
        <ele>839.407</ele>
        <time>2020-09-27T14:14:21Z</time>
      </trkpt>
      <trkpt lat="40.25601" lon="-7.61376">
        <ele>839.317</ele>
        <time>2020-09-27T14:14:23Z</time>
      </trkpt>
      <trkpt lat="40.25568" lon="-7.61352">
        <ele>835.508</ele>
        <time>2020-09-27T14:14:25Z</time>
      </trkpt>
      <trkpt lat="40.25551" lon="-7.61343">
        <ele>831.84</ele>
        <time>2020-09-27T14:14:26Z</time>
      </trkpt>
      <trkpt lat="40.25514" lon="-7.61338">
        <ele>827.882</ele>
        <time>2020-09-27T14:14:28Z</time>
      </trkpt>
      <trkpt lat="40.25494" lon="-7.61341">
        <ele>823.83</ele>
        <time>2020-09-27T14:14:29Z</time>
      </trkpt>
      <trkpt lat="40.25455" lon="-7.61361">
        <ele>819.842</ele>
        <time>2020-09-27T14:14:31Z</time>
      </trkpt>
      <trkpt lat="40.25419" lon="-7.61383">
        <ele>815.81</ele>
        <time>2020-09-27T14:14:33Z</time>
      </trkpt>
      <trkpt lat="40.25402" lon="-7.61388">
        <ele>811.82</ele>
        <time>2020-09-27T14:14:34Z</time>
      </trkpt>
      <trkpt lat="40.25367" lon="-7.61389">
        <ele>808.45</ele>
        <time>2020-09-27T14:14:36Z</time>
      </trkpt>
      <trkpt lat="40.25351" lon="-7.61384">
        <ele>805.998</ele>
        <time>2020-09-27T14:14:37Z</time>
      </trkpt>
      <trkpt lat="40.25335" lon="-7.61377">
        <ele>803.953</ele>
        <time>2020-09-27T14:14:38Z</time>
      </trkpt>
      <trkpt lat="40.25304" lon="-7.61354">
        <ele>801.904</ele>
        <time>2020-09-27T14:14:40Z</time>
      </trkpt>
      <trkpt lat="40.25276" lon="-7.61321">
        <ele>799.814</ele>
        <time>2020-09-27T14:14:42Z</time>
      </trkpt>
      <trkpt lat="40.25251" lon="-7.61285">
        <ele>797.808</ele>
        <time>2020-09-27T14:14:44Z</time>
      </trkpt>
      <trkpt lat="40.25235" lon="-7.61248">
        <ele>796.08</ele>
        <time>2020-09-27T14:14:46Z</time>
      </trkpt>
      <trkpt lat="40.25229" lon="-7.61209">
        <ele>794.322</ele>
        <time>2020-09-27T14:14:48Z</time>
      </trkpt>
      <trkpt lat="40.25227" lon="-7.61192">
        <ele>793.12</ele>
        <time>2020-09-27T14:14:49Z</time>
      </trkpt>
      <trkpt lat="40.25217" lon="-7.61171">
        <ele>792.132</ele>
        <time>2020-09-27T14:14:51Z</time>
      </trkpt>
      <trkpt lat="40.2521" lon="-7.61166">
        <ele>791.28</ele>
        <time>2020-09-27T14:14:52Z</time>
      </trkpt>
      <trkpt lat="40.25193" lon="-7.61175">
        <ele>790.39</ele>
        <time>2020-09-27T14:14:54Z</time>
      </trkpt>
      <trkpt lat="40.25189" lon="-7.61188">
        <ele>789.64</ele>
        <time>2020-09-27T14:14:55Z</time>
      </trkpt>
      <trkpt lat="40.25189" lon="-7.61206">
        <ele>789.158</ele>
        <time>2020-09-27T14:14:56Z</time>
      </trkpt>
      <trkpt lat="40.25194" lon="-7.61226">
        <ele>788.834</ele>
        <time>2020-09-27T14:14:57Z</time>
      </trkpt>
      <trkpt lat="40.25201" lon="-7.61248">
        <ele>788.455</ele>
        <time>2020-09-27T14:14:58Z</time>
      </trkpt>
      <trkpt lat="40.25217" lon="-7.61294">
        <ele>787.81</ele>
        <time>2020-09-27T14:15:00Z</time>
      </trkpt>
      <trkpt lat="40.25225" lon="-7.61319">
        <ele>787.208</ele>
        <time>2020-09-27T14:15:01Z</time>
      </trkpt>
      <trkpt lat="40.25233" lon="-7.61343">
        <ele>786.738</ele>
        <time>2020-09-27T14:15:02Z</time>
      </trkpt>
      <trkpt lat="40.25241" lon="-7.61367">
        <ele>786.24</ele>
        <time>2020-09-27T14:15:03Z</time>
      </trkpt>
      <trkpt lat="40.25259" lon="-7.61409">
        <ele>785.458</ele>
        <time>2020-09-27T14:15:05Z</time>
      </trkpt>
      <trkpt lat="40.25269" lon="-7.61429">
        <ele>784.73</ele>
        <time>2020-09-27T14:15:06Z</time>
      </trkpt>
      <trkpt lat="40.25282" lon="-7.61448">
        <ele>783.968</ele>
        <time>2020-09-27T14:15:07Z</time>
      </trkpt>
      <trkpt lat="40.25298" lon="-7.61466">
        <ele>783.238</ele>
        <time>2020-09-27T14:15:08Z</time>
      </trkpt>
      <trkpt lat="40.25338" lon="-7.61489">
        <ele>782.158</ele>
        <time>2020-09-27T14:15:10Z</time>
      </trkpt>
      <trkpt lat="40.25356" lon="-7.61499">
        <ele>781.276</ele>
        <time>2020-09-27T14:15:11Z</time>
      </trkpt>
      <trkpt lat="40.25383" lon="-7.61511">
        <ele>780.245</ele>
        <time>2020-09-27T14:15:13Z</time>
      </trkpt>
      <trkpt lat="40.25391" lon="-7.61514">
        <ele>779.447</ele>
        <time>2020-09-27T14:15:14Z</time>
      </trkpt>
      <trkpt lat="40.25403" lon="-7.61517">
        <ele>778.711</ele>
        <time>2020-09-27T14:15:16Z</time>
      </trkpt>
      <trkpt lat="40.25418" lon="-7.61523">
        <ele>778.008</ele>
        <time>2020-09-27T14:15:18Z</time>
      </trkpt>
      <trkpt lat="40.25427" lon="-7.61527">
        <ele>777.559</ele>
        <time>2020-09-27T14:15:19Z</time>
      </trkpt>
      <trkpt lat="40.25437" lon="-7.61531">
        <ele>777.191</ele>
        <time>2020-09-27T14:15:20Z</time>
      </trkpt>
      <trkpt lat="40.25447" lon="-7.61538">
        <ele>776.539</ele>
        <time>2020-09-27T14:15:21Z</time>
      </trkpt>
      <trkpt lat="40.25456" lon="-7.61548">
        <ele>775.871</ele>
        <time>2020-09-27T14:15:22Z</time>
      </trkpt>
      <trkpt lat="40.25466" lon="-7.61578">
        <ele>774.799</ele>
        <time>2020-09-27T14:15:24Z</time>
      </trkpt>
      <trkpt lat="40.25476" lon="-7.61607">
        <ele>773.519</ele>
        <time>2020-09-27T14:15:26Z</time>
      </trkpt>
      <trkpt lat="40.25498" lon="-7.61627">
        <ele>772.359</ele>
        <time>2020-09-27T14:15:28Z</time>
      </trkpt>
      <trkpt lat="40.25526" lon="-7.61632">
        <ele>771.347</ele>
        <time>2020-09-27T14:15:30Z</time>
      </trkpt>
      <trkpt lat="40.25557" lon="-7.61633">
        <ele>770.281</ele>
        <time>2020-09-27T14:15:32Z</time>
      </trkpt>
      <trkpt lat="40.2559" lon="-7.61641">
        <ele>768.661</ele>
        <time>2020-09-27T14:15:34Z</time>
      </trkpt>
      <trkpt lat="40.25608" lon="-7.61647">
        <ele>767.617</ele>
        <time>2020-09-27T14:15:35Z</time>
      </trkpt>
      <trkpt lat="40.25642" lon="-7.61661">
        <ele>767.008</ele>
        <time>2020-09-27T14:15:37Z</time>
      </trkpt>
      <trkpt lat="40.25675" lon="-7.61673">
        <ele>771.023</ele>
        <time>2020-09-27T14:15:39Z</time>
      </trkpt>
      <trkpt lat="40.25693" lon="-7.61676">
        <ele>775.095</ele>
        <time>2020-09-27T14:15:40Z</time>
      </trkpt>
      <trkpt lat="40.25729" lon="-7.61681">
        <ele>776.573</ele>
        <time>2020-09-27T14:15:42Z</time>
      </trkpt>
      <trkpt lat="40.25763" lon="-7.61697">
        <ele>774.155</ele>
        <time>2020-09-27T14:15:44Z</time>
      </trkpt>
      <trkpt lat="40.25779" lon="-7.61706">
        <ele>771.493</ele>
        <time>2020-09-27T14:15:45Z</time>
      </trkpt>
      <trkpt lat="40.25813" lon="-7.61722">
        <ele>767.723</ele>
        <time>2020-09-27T14:15:47Z</time>
      </trkpt>
      <trkpt lat="40.25831" lon="-7.61727">
        <ele>764.793</ele>
        <time>2020-09-27T14:15:48Z</time>
      </trkpt>
      <trkpt lat="40.25868" lon="-7.61728">
        <ele>761.761</ele>
        <time>2020-09-27T14:15:50Z</time>
      </trkpt>
      <trkpt lat="40.25885" lon="-7.61724">
        <ele>759.454</ele>
        <time>2020-09-27T14:15:51Z</time>
      </trkpt>
      <trkpt lat="40.25901" lon="-7.61718">
        <ele>757.656</ele>
        <time>2020-09-27T14:15:52Z</time>
      </trkpt>
      <trkpt lat="40.25916" lon="-7.61711">
        <ele>756.211</ele>
        <time>2020-09-27T14:15:53Z</time>
      </trkpt>
      <trkpt lat="40.25939" lon="-7.61701">
        <ele>754.708</ele>
        <time>2020-09-27T14:15:55Z</time>
      </trkpt>
      <trkpt lat="40.25948" lon="-7.61702">
        <ele>753.43</ele>
        <time>2020-09-27T14:15:56Z</time>
      </trkpt>
      <trkpt lat="40.25955" lon="-7.61707">
        <ele>752.192</ele>
        <time>2020-09-27T14:15:57Z</time>
      </trkpt>
      <trkpt lat="40.25962" lon="-7.6173">
        <ele>750.79</ele>
        <time>2020-09-27T14:15:59Z</time>
      </trkpt>
      <trkpt lat="40.25961" lon="-7.61747">
        <ele>749.292</ele>
        <time>2020-09-27T14:16:00Z</time>
      </trkpt>
      <trkpt lat="40.25957" lon="-7.61785">
        <ele>748.34</ele>
        <time>2020-09-27T14:16:02Z</time>
      </trkpt>
      <trkpt lat="40.25953" lon="-7.61815">
        <ele>747.87</ele>
        <time>2020-09-27T14:16:04Z</time>
      </trkpt>
      <trkpt lat="40.25941" lon="-7.6184">
        <ele>747.59</ele>
        <time>2020-09-27T14:16:06Z</time>
      </trkpt>
      <trkpt lat="40.25921" lon="-7.61862">
        <ele>747.338</ele>
        <time>2020-09-27T14:16:08Z</time>
      </trkpt>
      <trkpt lat="40.25904" lon="-7.61879">
        <ele>751.383</ele>
        <time>2020-09-27T14:16:10Z</time>
      </trkpt>
      <trkpt lat="40.259" lon="-7.61887">
        <ele>753.425</ele>
        <time>2020-09-27T14:16:11Z</time>
      </trkpt>
      <trkpt lat="40.25899" lon="-7.61893">
        <ele>752.417</ele>
        <time>2020-09-27T14:16:12Z</time>
      </trkpt>
      <trkpt lat="40.25909" lon="-7.61899">
        <ele>748.408</ele>
        <time>2020-09-27T14:16:14Z</time>
      </trkpt>
      <trkpt lat="40.25918" lon="-7.61895">
        <ele>744.583</ele>
        <time>2020-09-27T14:16:15Z</time>
      </trkpt>
      <trkpt lat="40.2594" lon="-7.61881">
        <ele>740.535</ele>
        <time>2020-09-27T14:16:17Z</time>
      </trkpt>
      <trkpt lat="40.2597" lon="-7.61876">
        <ele>736.553</ele>
        <time>2020-09-27T14:16:19Z</time>
      </trkpt>
      <trkpt lat="40.25986" lon="-7.61879">
        <ele>732.745</ele>
        <time>2020-09-27T14:16:20Z</time>
      </trkpt>
      <trkpt lat="40.26002" lon="-7.61885">
        <ele>729.693</ele>
        <time>2020-09-27T14:16:21Z</time>
      </trkpt>
      <trkpt lat="40.26017" lon="-7.6189">
        <ele>727.093</ele>
        <time>2020-09-27T14:16:22Z</time>
      </trkpt>
      <trkpt lat="40.26042" lon="-7.61888">
        <ele>724.463</ele>
        <time>2020-09-27T14:16:24Z</time>
      </trkpt>
      <trkpt lat="40.26052" lon="-7.61883">
        <ele>722.391</ele>
        <time>2020-09-27T14:16:25Z</time>
      </trkpt>
      <trkpt lat="40.2607" lon="-7.61874">
        <ele>720.185</ele>
        <time>2020-09-27T14:16:27Z</time>
      </trkpt>
      <trkpt lat="40.26091" lon="-7.61885">
        <ele>718.389</ele>
        <time>2020-09-27T14:16:29Z</time>
      </trkpt>
      <trkpt lat="40.26104" lon="-7.61892">
        <ele>716.717</ele>
        <time>2020-09-27T14:16:30Z</time>
      </trkpt>
      <trkpt lat="40.26118" lon="-7.61897">
        <ele>715.408</ele>
        <time>2020-09-27T14:16:31Z</time>
      </trkpt>
      <trkpt lat="40.26134" lon="-7.61901">
        <ele>714.233</ele>
        <time>2020-09-27T14:16:32Z</time>
      </trkpt>
      <trkpt lat="40.2615" lon="-7.61906">
        <ele>712.965</ele>
        <time>2020-09-27T14:16:33Z</time>
      </trkpt>
      <trkpt lat="40.26181" lon="-7.61919">
        <ele>711.293</ele>
        <time>2020-09-27T14:16:35Z</time>
      </trkpt>
      <trkpt lat="40.2621" lon="-7.6193">
        <ele>709.355</ele>
        <time>2020-09-27T14:16:37Z</time>
      </trkpt>
      <trkpt lat="40.26224" lon="-7.61937">
        <ele>707.623</ele>
        <time>2020-09-27T14:16:38Z</time>
      </trkpt>
      <trkpt lat="40.26249" lon="-7.61952">
        <ele>705.643</ele>
        <time>2020-09-27T14:16:40Z</time>
      </trkpt>
      <trkpt lat="40.2626" lon="-7.61962">
        <ele>703.893</ele>
        <time>2020-09-27T14:16:41Z</time>
      </trkpt>
      <trkpt lat="40.2628" lon="-7.61986">
        <ele>701.591</ele>
        <time>2020-09-27T14:16:43Z</time>
      </trkpt>
      <trkpt lat="40.2629" lon="-7.62">
        <ele>699.565</ele>
        <time>2020-09-27T14:16:44Z</time>
      </trkpt>
      <trkpt lat="40.26307" lon="-7.62028">
        <ele>697.268</ele>
        <time>2020-09-27T14:16:46Z</time>
      </trkpt>
      <trkpt lat="40.26316" lon="-7.6204">
        <ele>695.314</ele>
        <time>2020-09-27T14:16:47Z</time>
      </trkpt>
      <trkpt lat="40.26325" lon="-7.62051">
        <ele>693.508</ele>
        <time>2020-09-27T14:16:48Z</time>
      </trkpt>
      <trkpt lat="40.26346" lon="-7.62066">
        <ele>691.651</ele>
        <time>2020-09-27T14:16:50Z</time>
      </trkpt>
      <trkpt lat="40.26365" lon="-7.62076">
        <ele>689.713</ele>
        <time>2020-09-27T14:16:52Z</time>
      </trkpt>
      <trkpt lat="40.26375" lon="-7.62092">
        <ele>687.881</ele>
        <time>2020-09-27T14:16:54Z</time>
      </trkpt>
      <trkpt lat="40.26377" lon="-7.62104">
        <ele>686.173</ele>
        <time>2020-09-27T14:16:55Z</time>
      </trkpt>
      <trkpt lat="40.2638" lon="-7.62116">
        <ele>684.371</ele>
        <time>2020-09-27T14:16:56Z</time>
      </trkpt>
      <trkpt lat="40.26381" lon="-7.62129">
        <ele>682.521</ele>
        <time>2020-09-27T14:16:57Z</time>
      </trkpt>
      <trkpt lat="40.26379" lon="-7.62142">
        <ele>680.751</ele>
        <time>2020-09-27T14:16:58Z</time>
      </trkpt>
      <trkpt lat="40.26364" lon="-7.62166">
        <ele>678.299</ele>
        <time>2020-09-27T14:17:00Z</time>
      </trkpt>
      <trkpt lat="40.26353" lon="-7.62173">
        <ele>676.243</ele>
        <time>2020-09-27T14:17:01Z</time>
      </trkpt>
      <trkpt lat="40.2634" lon="-7.62177">
        <ele>674.564</ele>
        <time>2020-09-27T14:17:02Z</time>
      </trkpt>
      <trkpt lat="40.26312" lon="-7.62175">
        <ele>672.41</ele>
        <time>2020-09-27T14:17:04Z</time>
      </trkpt>
      <trkpt lat="40.26283" lon="-7.6217">
        <ele>670.108</ele>
        <time>2020-09-27T14:17:06Z</time>
      </trkpt>
      <trkpt lat="40.2627" lon="-7.62168">
        <ele>668.279</ele>
        <time>2020-09-27T14:17:07Z</time>
      </trkpt>
      <trkpt lat="40.26247" lon="-7.62173">
        <ele>666.051</ele>
        <time>2020-09-27T14:17:09Z</time>
      </trkpt>
      <trkpt lat="40.26231" lon="-7.62196">
        <ele>663.649</ele>
        <time>2020-09-27T14:17:11Z</time>
      </trkpt>
      <trkpt lat="40.26227" lon="-7.62211">
        <ele>661.831</ele>
        <time>2020-09-27T14:17:12Z</time>
      </trkpt>
      <trkpt lat="40.26226" lon="-7.62242">
        <ele>660.679</ele>
        <time>2020-09-27T14:17:14Z</time>
      </trkpt>
      <trkpt lat="40.26226" lon="-7.62256">
        <ele>659.939</ele>
        <time>2020-09-27T14:17:15Z</time>
      </trkpt>
      <trkpt lat="40.26226" lon="-7.62268">
        <ele>659.449</ele>
        <time>2020-09-27T14:17:16Z</time>
      </trkpt>
      <trkpt lat="40.26225" lon="-7.62293">
        <ele>659.697</ele>
        <time>2020-09-27T14:17:18Z</time>
      </trkpt>
      <trkpt lat="40.26224" lon="-7.62318">
        <ele>660.355</ele>
        <time>2020-09-27T14:17:20Z</time>
      </trkpt>
      <trkpt lat="40.26222" lon="-7.62342">
        <ele>661.107</ele>
        <time>2020-09-27T14:17:22Z</time>
      </trkpt>
      <trkpt lat="40.26221" lon="-7.62352">
        <ele>661.717</ele>
        <time>2020-09-27T14:17:23Z</time>
      </trkpt>
      <trkpt lat="40.26218" lon="-7.62359">
        <ele>662.308</ele>
        <time>2020-09-27T14:17:24Z</time>
      </trkpt>
      <trkpt lat="40.26216" lon="-7.62364">
        <ele>662.94</ele>
        <time>2020-09-27T14:17:26Z</time>
      </trkpt>
      <trkpt lat="40.26208" lon="-7.62367">
        <ele>663.162</ele>
        <time>2020-09-27T14:17:29Z</time>
      </trkpt>
      <trkpt lat="40.26201" lon="-7.62364">
        <ele>663.15</ele>
        <time>2020-09-27T14:17:30Z</time>
      </trkpt>
      <trkpt lat="40.26186" lon="-7.62356">
        <ele>662.612</ele>
        <time>2020-09-27T14:17:32Z</time>
      </trkpt>
      <trkpt lat="40.26179" lon="-7.62352">
        <ele>662.18</ele>
        <time>2020-09-27T14:17:33Z</time>
      </trkpt>
      <trkpt lat="40.26164" lon="-7.62345">
        <ele>661.46</ele>
        <time>2020-09-27T14:17:35Z</time>
      </trkpt>
      <trkpt lat="40.26157" lon="-7.62342">
        <ele>660.82</ele>
        <time>2020-09-27T14:17:36Z</time>
      </trkpt>
      <trkpt lat="40.26141" lon="-7.62334">
        <ele>660.158</ele>
        <time>2020-09-27T14:17:38Z</time>
      </trkpt>
      <trkpt lat="40.26126" lon="-7.62329">
        <ele>659.541</ele>
        <time>2020-09-27T14:17:40Z</time>
      </trkpt>
      <trkpt lat="40.26118" lon="-7.62326">
        <ele>658.981</ele>
        <time>2020-09-27T14:17:41Z</time>
      </trkpt>
      <trkpt lat="40.26103" lon="-7.62323">
        <ele>658.009</ele>
        <time>2020-09-27T14:17:43Z</time>
      </trkpt>
      <trkpt lat="40.26095" lon="-7.62322">
        <ele>657.408</ele>
        <time>2020-09-27T14:17:44Z</time>
      </trkpt>
      <trkpt lat="40.26079" lon="-7.6232">
        <ele>656.569</ele>
        <time>2020-09-27T14:17:46Z</time>
      </trkpt>
      <trkpt lat="40.26063" lon="-7.62319">
        <ele>655.541</ele>
        <time>2020-09-27T14:17:48Z</time>
      </trkpt>
      <trkpt lat="40.26047" lon="-7.62319">
        <ele>654.769</ele>
        <time>2020-09-27T14:17:50Z</time>
      </trkpt>
      <trkpt lat="40.26032" lon="-7.6232">
        <ele>653.781</ele>
        <time>2020-09-27T14:17:52Z</time>
      </trkpt>
      <trkpt lat="40.26026" lon="-7.62321">
        <ele>653.089</ele>
        <time>2020-09-27T14:17:53Z</time>
      </trkpt>
      <trkpt lat="40.26021" lon="-7.62321">
        <ele>652.579</ele>
        <time>2020-09-27T14:17:55Z</time>
      </trkpt>
      <trkpt lat="40.26015" lon="-7.6232">
        <ele>651.999</ele>
        <time>2020-09-27T14:18:55Z</time>
      </trkpt>
      <trkpt lat="40.26007" lon="-7.62319">
        <ele>651.647</ele>
        <time>2020-09-27T14:18:56Z</time>
      </trkpt>
      <trkpt lat="40.25997" lon="-7.62319">
        <ele>651.461</ele>
        <time>2020-09-27T14:18:57Z</time>
      </trkpt>
      <trkpt lat="40.25974" lon="-7.6232">
        <ele>651.321</ele>
        <time>2020-09-27T14:18:59Z</time>
      </trkpt>
      <trkpt lat="40.25954" lon="-7.62321">
        <ele>651.213</ele>
        <time>2020-09-27T14:19:01Z</time>
      </trkpt>
      <trkpt lat="40.25941" lon="-7.62321">
        <ele>651.208</ele>
        <time>2020-09-27T14:19:03Z</time>
      </trkpt>
      <trkpt lat="40.25937" lon="-7.62324">
        <ele>651.221</ele>
        <time>2020-09-27T14:19:04Z</time>
      </trkpt>
      <trkpt lat="40.25928" lon="-7.62339">
        <ele>651.293</ele>
        <time>2020-09-27T14:19:06Z</time>
      </trkpt>
      <trkpt lat="40.25923" lon="-7.62347">
        <ele>651.241</ele>
        <time>2020-09-27T14:19:07Z</time>
      </trkpt>
      <trkpt lat="40.25913" lon="-7.62363">
        <ele>651.223</ele>
        <time>2020-09-27T14:19:09Z</time>
      </trkpt>
      <trkpt lat="40.25903" lon="-7.62376">
        <ele>651.271</ele>
        <time>2020-09-27T14:19:11Z</time>
      </trkpt>
      <trkpt lat="40.25892" lon="-7.62389">
        <ele>651.261</ele>
        <time>2020-09-27T14:19:13Z</time>
      </trkpt>
      <trkpt lat="40.25881" lon="-7.62403">
        <ele>651.261</ele>
        <time>2020-09-27T14:19:15Z</time>
      </trkpt>
      <trkpt lat="40.2587" lon="-7.62416">
        <ele>651.279</ele>
        <time>2020-09-27T14:19:17Z</time>
      </trkpt>
      <trkpt lat="40.25864" lon="-7.62423">
        <ele>651.254</ele>
        <time>2020-09-27T14:19:18Z</time>
      </trkpt>
      <trkpt lat="40.25852" lon="-7.62437">
        <ele>651.256</ele>
        <time>2020-09-27T14:19:20Z</time>
      </trkpt>
      <trkpt lat="40.2584" lon="-7.62453">
        <ele>651.211</ele>
        <time>2020-09-27T14:19:22Z</time>
      </trkpt>
      <trkpt lat="40.25834" lon="-7.62461">
        <ele>651.208</ele>
        <time>2020-09-27T14:19:23Z</time>
      </trkpt>
      <trkpt lat="40.2582" lon="-7.62479">
        <ele>651.29</ele>
        <time>2020-09-27T14:19:25Z</time>
      </trkpt>
      <trkpt lat="40.25813" lon="-7.62488">
        <ele>651.212</ele>
        <time>2020-09-27T14:19:26Z</time>
      </trkpt>
      <trkpt lat="40.25798" lon="-7.62506">
        <ele>651.28</ele>
        <time>2020-09-27T14:19:28Z</time>
      </trkpt>
      <trkpt lat="40.25781" lon="-7.62521">
        <ele>651.262</ele>
        <time>2020-09-27T14:19:30Z</time>
      </trkpt>
      <trkpt lat="40.25763" lon="-7.62532">
        <ele>651.27</ele>
        <time>2020-09-27T14:19:32Z</time>
      </trkpt>
      <trkpt lat="40.25741" lon="-7.62542">
        <ele>651.29</ele>
        <time>2020-09-27T14:19:34Z</time>
      </trkpt>
      <trkpt lat="40.25718" lon="-7.62552">
        <ele>651.24</ele>
        <time>2020-09-27T14:19:36Z</time>
      </trkpt>
      <trkpt lat="40.25705" lon="-7.62556">
        <ele>651.238</ele>
        <time>2020-09-27T14:19:37Z</time>
      </trkpt>
      <trkpt lat="40.25692" lon="-7.62558">
        <ele>651.292</ele>
        <time>2020-09-27T14:19:38Z</time>
      </trkpt>
      <trkpt lat="40.25665" lon="-7.62556">
        <ele>651.273</ele>
        <time>2020-09-27T14:19:40Z</time>
      </trkpt>
      <trkpt lat="40.25639" lon="-7.62557">
        <ele>651.22</ele>
        <time>2020-09-27T14:19:42Z</time>
      </trkpt>
      <trkpt lat="40.25626" lon="-7.62562">
        <ele>651.208</ele>
        <time>2020-09-27T14:19:43Z</time>
      </trkpt>
      <trkpt lat="40.25613" lon="-7.62568">
        <ele>651.264</ele>
        <time>2020-09-27T14:19:44Z</time>
      </trkpt>
      <trkpt lat="40.25587" lon="-7.62585">
        <ele>651.236</ele>
        <time>2020-09-27T14:19:46Z</time>
      </trkpt>
      <trkpt lat="40.25576" lon="-7.62595">
        <ele>651.244</ele>
        <time>2020-09-27T14:19:47Z</time>
      </trkpt>
      <trkpt lat="40.25561" lon="-7.62618">
        <ele>652.386</ele>
        <time>2020-09-27T14:19:49Z</time>
      </trkpt>
      <trkpt lat="40.25551" lon="-7.62643">
        <ele>652.964</ele>
        <time>2020-09-27T14:19:51Z</time>
      </trkpt>
      <trkpt lat="40.25533" lon="-7.62663">
        <ele>653.284</ele>
        <time>2020-09-27T14:19:53Z</time>
      </trkpt>
      <trkpt lat="40.25506" lon="-7.62674">
        <ele>653.564</ele>
        <time>2020-09-27T14:19:55Z</time>
      </trkpt>
      <trkpt lat="40.25491" lon="-7.62681">
        <ele>653.862</ele>
        <time>2020-09-27T14:19:56Z</time>
      </trkpt>
      <trkpt lat="40.25478" lon="-7.62692">
        <ele>653.844</ele>
        <time>2020-09-27T14:19:57Z</time>
      </trkpt>
      <trkpt lat="40.25457" lon="-7.62716">
        <ele>653.805</ele>
        <time>2020-09-27T14:19:59Z</time>
      </trkpt>
      <trkpt lat="40.25435" lon="-7.62728">
        <ele>653.815</ele>
        <time>2020-09-27T14:20:01Z</time>
      </trkpt>
      <trkpt lat="40.25424" lon="-7.62723">
        <ele>657.808</ele>
        <time>2020-09-27T14:20:02Z</time>
      </trkpt>
      <trkpt lat="40.25405" lon="-7.62692">
        <ele>661.839</ele>
        <time>2020-09-27T14:20:04Z</time>
      </trkpt>
      <trkpt lat="40.25394" lon="-7.62677">
        <ele>665.811</ele>
        <time>2020-09-27T14:20:05Z</time>
      </trkpt>
      <trkpt lat="40.25366" lon="-7.62663">
        <ele>668.339</ele>
        <time>2020-09-27T14:20:07Z</time>
      </trkpt>
      <trkpt lat="40.25351" lon="-7.62665">
        <ele>669.061</ele>
        <time>2020-09-27T14:20:08Z</time>
      </trkpt>
      <trkpt lat="40.25327" lon="-7.62683">
        <ele>668.569</ele>
        <time>2020-09-27T14:20:10Z</time>
      </trkpt>
      <trkpt lat="40.2532" lon="-7.62697">
        <ele>667.119</ele>
        <time>2020-09-27T14:20:11Z</time>
      </trkpt>
      <trkpt lat="40.25311" lon="-7.62731">
        <ele>666.279</ele>
        <time>2020-09-27T14:20:13Z</time>
      </trkpt>
      <trkpt lat="40.253" lon="-7.6277">
        <ele>665.737</ele>
        <time>2020-09-27T14:20:15Z</time>
      </trkpt>
      <trkpt lat="40.25294" lon="-7.62791">
        <ele>669.744</ele>
        <time>2020-09-27T14:20:16Z</time>
      </trkpt>
      <trkpt lat="40.25288" lon="-7.62813">
        <ele>672.605</ele>
        <time>2020-09-27T14:20:17Z</time>
      </trkpt>
      <trkpt lat="40.25282" lon="-7.62834">
        <ele>672.315</ele>
        <time>2020-09-27T14:20:18Z</time>
      </trkpt>
      <trkpt lat="40.25277" lon="-7.62853">
        <ele>670.708</ele>
        <time>2020-09-27T14:20:19Z</time>
      </trkpt>
      <trkpt lat="40.25265" lon="-7.62887">
        <ele>668.189</ele>
        <time>2020-09-27T14:20:21Z</time>
      </trkpt>
      <trkpt lat="40.25243" lon="-7.62902">
        <ele>666.011</ele>
        <time>2020-09-27T14:20:23Z</time>
      </trkpt>
      <trkpt lat="40.25229" lon="-7.62902">
        <ele>664.519</ele>
        <time>2020-09-27T14:20:24Z</time>
      </trkpt>
      <trkpt lat="40.252" lon="-7.62892">
        <ele>663.571</ele>
        <time>2020-09-27T14:20:26Z</time>
      </trkpt>
      <trkpt lat="40.2517" lon="-7.62882">
        <ele>662.799</ele>
        <time>2020-09-27T14:20:28Z</time>
      </trkpt>
      <trkpt lat="40.25155" lon="-7.62876">
        <ele>662.399</ele>
        <time>2020-09-27T14:20:29Z</time>
      </trkpt>
      <trkpt lat="40.2514" lon="-7.62871">
        <ele>662.259</ele>
        <time>2020-09-27T14:20:30Z</time>
      </trkpt>
      <trkpt lat="40.25115" lon="-7.62874">
        <ele>662.117</ele>
        <time>2020-09-27T14:20:32Z</time>
      </trkpt>
      <trkpt lat="40.25107" lon="-7.62882">
        <ele>661.914</ele>
        <time>2020-09-27T14:20:33Z</time>
      </trkpt>
      <trkpt lat="40.25098" lon="-7.62908">
        <ele>662.054</ele>
        <time>2020-09-27T14:20:35Z</time>
      </trkpt>
      <trkpt lat="40.251" lon="-7.62943">
        <ele>661.709</ele>
        <time>2020-09-27T14:20:37Z</time>
      </trkpt>
      <trkpt lat="40.251" lon="-7.62987">
        <ele>661.308</ele>
        <time>2020-09-27T14:20:39Z</time>
      </trkpt>
      <trkpt lat="40.25096" lon="-7.6301">
        <ele>661.036</ele>
        <time>2020-09-27T14:20:40Z</time>
      </trkpt>
      <trkpt lat="40.25088" lon="-7.63033">
        <ele>660.778</ele>
        <time>2020-09-27T14:20:41Z</time>
      </trkpt>
      <trkpt lat="40.2508" lon="-7.63056">
        <ele>660.646</ele>
        <time>2020-09-27T14:20:42Z</time>
      </trkpt>
      <trkpt lat="40.25072" lon="-7.63078">
        <ele>660.728</ele>
        <time>2020-09-27T14:20:43Z</time>
      </trkpt>
      <trkpt lat="40.25062" lon="-7.63123">
        <ele>661.056</ele>
        <time>2020-09-27T14:20:45Z</time>
      </trkpt>
      <trkpt lat="40.25067" lon="-7.6317">
        <ele>661.156</ele>
        <time>2020-09-27T14:20:47Z</time>
      </trkpt>
      <trkpt lat="40.2507" lon="-7.63193">
        <ele>661.396</ele>
        <time>2020-09-27T14:20:48Z</time>
      </trkpt>
      <trkpt lat="40.25075" lon="-7.63244">
        <ele>661.464</ele>
        <time>2020-09-27T14:20:50Z</time>
      </trkpt>
      <trkpt lat="40.25077" lon="-7.63269">
        <ele>661.572</ele>
        <time>2020-09-27T14:20:51Z</time>
      </trkpt>
      <trkpt lat="40.2508" lon="-7.63293">
        <ele>661.713</ele>
        <time>2020-09-27T14:20:52Z</time>
      </trkpt>
      <trkpt lat="40.25082" lon="-7.63315">
        <ele>661.814</ele>
        <time>2020-09-27T14:20:53Z</time>
      </trkpt>
      <trkpt lat="40.2508" lon="-7.63356">
        <ele>661.708</ele>
        <time>2020-09-27T14:20:55Z</time>
      </trkpt>
      <trkpt lat="40.25061" lon="-7.6339">
        <ele>662.162</ele>
        <time>2020-09-27T14:20:57Z</time>
      </trkpt>
      <trkpt lat="40.25053" lon="-7.63409">
        <ele>662.324</ele>
        <time>2020-09-27T14:20:58Z</time>
      </trkpt>
      <trkpt lat="40.25049" lon="-7.63429">
        <ele>662.612</ele>
        <time>2020-09-27T14:20:59Z</time>
      </trkpt>
      <trkpt lat="40.2505" lon="-7.63451">
        <ele>662.924</ele>
        <time>2020-09-27T14:21:00Z</time>
      </trkpt>
      <trkpt lat="40.25056" lon="-7.63493">
        <ele>663.452</ele>
        <time>2020-09-27T14:21:02Z</time>
      </trkpt>
      <trkpt lat="40.25056" lon="-7.63513">
        <ele>663.992</ele>
        <time>2020-09-27T14:21:03Z</time>
      </trkpt>
      <trkpt lat="40.25046" lon="-7.63544">
        <ele>663.962</ele>
        <time>2020-09-27T14:21:05Z</time>
      </trkpt>
      <trkpt lat="40.25026" lon="-7.63561">
        <ele>662.99</ele>
        <time>2020-09-27T14:21:07Z</time>
      </trkpt>
      <trkpt lat="40.2501" lon="-7.63557">
        <ele>662.952</ele>
        <time>2020-09-27T14:21:08Z</time>
      </trkpt>
      <trkpt lat="40.24972" lon="-7.63546">
        <ele>663.153</ele>
        <time>2020-09-27T14:21:10Z</time>
      </trkpt>
      <trkpt lat="40.24933" lon="-7.63548">
        <ele>663.408</ele>
        <time>2020-09-27T14:21:12Z</time>
      </trkpt>
      <trkpt lat="40.24892" lon="-7.63556">
        <ele>664.208</ele>
        <time>2020-09-27T14:21:14Z</time>
      </trkpt>
      <trkpt lat="40.24856" lon="-7.63565">
        <ele>665.36</ele>
        <time>2020-09-27T14:21:16Z</time>
      </trkpt>
      <trkpt lat="40.24829" lon="-7.63582">
        <ele>665.682</ele>
        <time>2020-09-27T14:21:18Z</time>
      </trkpt>
      <trkpt lat="40.24816" lon="-7.63616">
        <ele>665.76</ele>
        <time>2020-09-27T14:21:20Z</time>
      </trkpt>
      <trkpt lat="40.24818" lon="-7.63636">
        <ele>665.692</ele>
        <time>2020-09-27T14:21:21Z</time>
      </trkpt>
      <trkpt lat="40.24832" lon="-7.63671">
        <ele>665.59</ele>
        <time>2020-09-27T14:21:23Z</time>
      </trkpt>
      <trkpt lat="40.24834" lon="-7.63708">
        <ele>665.04</ele>
        <time>2020-09-27T14:21:25Z</time>
      </trkpt>
      <trkpt lat="40.24817" lon="-7.63747">
        <ele>663.94</ele>
        <time>2020-09-27T14:21:27Z</time>
      </trkpt>
      <trkpt lat="40.24798" lon="-7.63785">
        <ele>662.948</ele>
        <time>2020-09-27T14:21:29Z</time>
      </trkpt>
      <trkpt lat="40.24792" lon="-7.63805">
        <ele>662.025</ele>
        <time>2020-09-27T14:21:30Z</time>
      </trkpt>
      <trkpt lat="40.2479" lon="-7.63825">
        <ele>661.126</ele>
        <time>2020-09-27T14:21:31Z</time>
      </trkpt>
      <trkpt lat="40.24794" lon="-7.63868">
        <ele>660.008</ele>
        <time>2020-09-27T14:21:33Z</time>
      </trkpt>
      <trkpt lat="40.24809" lon="-7.63911">
        <ele>659.008</ele>
        <time>2020-09-27T14:21:35Z</time>
      </trkpt>
      <trkpt lat="40.24824" lon="-7.63956">
        <ele>657.987</ele>
        <time>2020-09-27T14:21:37Z</time>
      </trkpt>
      <trkpt lat="40.2483" lon="-7.63978">
        <ele>657.229</ele>
        <time>2020-09-27T14:21:38Z</time>
      </trkpt>
      <trkpt lat="40.24836" lon="-7.63999">
        <ele>656.477</ele>
        <time>2020-09-27T14:21:39Z</time>
      </trkpt>
      <trkpt lat="40.2484" lon="-7.64039">
        <ele>655.579</ele>
        <time>2020-09-27T14:21:41Z</time>
      </trkpt>
      <trkpt lat="40.24838" lon="-7.64059">
        <ele>654.857</ele>
        <time>2020-09-27T14:21:42Z</time>
      </trkpt>
      <trkpt lat="40.24834" lon="-7.64096">
        <ele>654.067</ele>
        <time>2020-09-27T14:21:44Z</time>
      </trkpt>
      <trkpt lat="40.24832" lon="-7.64113">
        <ele>653.587</ele>
        <time>2020-09-27T14:21:45Z</time>
      </trkpt>
      <trkpt lat="40.2483" lon="-7.64131">
        <ele>653.035</ele>
        <time>2020-09-27T14:21:46Z</time>
      </trkpt>
      <trkpt lat="40.24831" lon="-7.64164">
        <ele>652.157</ele>
        <time>2020-09-27T14:21:48Z</time>
      </trkpt>
      <trkpt lat="40.2484" lon="-7.64198">
        <ele>651.4</ele>
        <time>2020-09-27T14:21:50Z</time>
      </trkpt>
      <trkpt lat="40.24847" lon="-7.64216">
        <ele>651.02</ele>
        <time>2020-09-27T14:21:51Z</time>
      </trkpt>
      <trkpt lat="40.24865" lon="-7.64251">
        <ele>650.308</ele>
        <time>2020-09-27T14:21:53Z</time>
      </trkpt>
      <trkpt lat="40.24889" lon="-7.64278">
        <ele>649.69</ele>
        <time>2020-09-27T14:21:55Z</time>
      </trkpt>
      <trkpt lat="40.24904" lon="-7.64284">
        <ele>649.222</ele>
        <time>2020-09-27T14:21:56Z</time>
      </trkpt>
      <trkpt lat="40.24936" lon="-7.64283">
        <ele>648.67</ele>
        <time>2020-09-27T14:21:58Z</time>
      </trkpt>
      <trkpt lat="40.24965" lon="-7.64295">
        <ele>648.052</ele>
        <time>2020-09-27T14:22:00Z</time>
      </trkpt>
      <trkpt lat="40.24986" lon="-7.64322">
        <ele>646.85</ele>
        <time>2020-09-27T14:22:02Z</time>
      </trkpt>
      <trkpt lat="40.2499" lon="-7.64337">
        <ele>646.01</ele>
        <time>2020-09-27T14:22:03Z</time>
      </trkpt>
      <trkpt lat="40.24985" lon="-7.64368">
        <ele>645.62</ele>
        <time>2020-09-27T14:22:05Z</time>
      </trkpt>
      <trkpt lat="40.24964" lon="-7.64397">
        <ele>645.768</ele>
        <time>2020-09-27T14:22:07Z</time>
      </trkpt>
      <trkpt lat="40.24949" lon="-7.6441">
        <ele>645.775</ele>
        <time>2020-09-27T14:22:08Z</time>
      </trkpt>
      <trkpt lat="40.24918" lon="-7.6444">
        <ele>645.828</ele>
        <time>2020-09-27T14:22:10Z</time>
      </trkpt>
      <trkpt lat="40.24903" lon="-7.64456">
        <ele>646.02</ele>
        <time>2020-09-27T14:22:11Z</time>
      </trkpt>
      <trkpt lat="40.24873" lon="-7.64485">
        <ele>645.808</ele>
        <time>2020-09-27T14:22:13Z</time>
      </trkpt>
      <trkpt lat="40.24859" lon="-7.64498">
        <ele>645.322</ele>
        <time>2020-09-27T14:22:14Z</time>
      </trkpt>
      <trkpt lat="40.24846" lon="-7.64512">
        <ele>645.074</ele>
        <time>2020-09-27T14:22:15Z</time>
      </trkpt>
      <trkpt lat="40.24822" lon="-7.6454">
        <ele>644.872</ele>
        <time>2020-09-27T14:22:17Z</time>
      </trkpt>
      <trkpt lat="40.24812" lon="-7.64556">
        <ele>644.674</ele>
        <time>2020-09-27T14:22:18Z</time>
      </trkpt>
      <trkpt lat="40.24801" lon="-7.64573">
        <ele>644.782</ele>
        <time>2020-09-27T14:22:19Z</time>
      </trkpt>
      <trkpt lat="40.24789" lon="-7.6459">
        <ele>644.762</ele>
        <time>2020-09-27T14:22:20Z</time>
      </trkpt>
      <trkpt lat="40.24759" lon="-7.64617">
        <ele>644.682</ele>
        <time>2020-09-27T14:22:22Z</time>
      </trkpt>
      <trkpt lat="40.24743" lon="-7.64623">
        <ele>644.42</ele>
        <time>2020-09-27T14:22:23Z</time>
      </trkpt>
      <trkpt lat="40.24708" lon="-7.64618">
        <ele>644.535</ele>
        <time>2020-09-27T14:22:25Z</time>
      </trkpt>
      <trkpt lat="40.24676" lon="-7.64613">
        <ele>644.986</ele>
        <time>2020-09-27T14:22:27Z</time>
      </trkpt>
      <trkpt lat="40.24661" lon="-7.6462">
        <ele>645.014</ele>
        <time>2020-09-27T14:22:28Z</time>
      </trkpt>
      <trkpt lat="40.24632" lon="-7.64646">
        <ele>645.208</ele>
        <time>2020-09-27T14:22:30Z</time>
      </trkpt>
      <trkpt lat="40.24602" lon="-7.64675">
        <ele>644.958</ele>
        <time>2020-09-27T14:22:32Z</time>
      </trkpt>
      <trkpt lat="40.24582" lon="-7.64714">
        <ele>644.65</ele>
        <time>2020-09-27T14:22:34Z</time>
      </trkpt>
      <trkpt lat="40.2456" lon="-7.64754">
        <ele>644.398</ele>
        <time>2020-09-27T14:22:36Z</time>
      </trkpt>
      <trkpt lat="40.24544" lon="-7.64768">
        <ele>644.08</ele>
        <time>2020-09-27T14:22:37Z</time>
      </trkpt>
      <trkpt lat="40.24508" lon="-7.64792">
        <ele>643.938</ele>
        <time>2020-09-27T14:22:39Z</time>
      </trkpt>
      <trkpt lat="40.24483" lon="-7.64831">
        <ele>643.428</ele>
        <time>2020-09-27T14:22:41Z</time>
      </trkpt>
      <trkpt lat="40.24476" lon="-7.64855">
        <ele>643.118</ele>
        <time>2020-09-27T14:22:42Z</time>
      </trkpt>
      <trkpt lat="40.2447" lon="-7.64906">
        <ele>642.886</ele>
        <time>2020-09-27T14:22:44Z</time>
      </trkpt>
      <trkpt lat="40.24461" lon="-7.64926">
        <ele>642.974</ele>
        <time>2020-09-27T14:22:45Z</time>
      </trkpt>
      <trkpt lat="40.24449" lon="-7.64943">
        <ele>643.156</ele>
        <time>2020-09-27T14:22:46Z</time>
      </trkpt>
      <trkpt lat="40.24434" lon="-7.64981">
        <ele>643.021</ele>
        <time>2020-09-27T14:22:48Z</time>
      </trkpt>
      <trkpt lat="40.24434" lon="-7.65005">
        <ele>643.108</ele>
        <time>2020-09-27T14:22:49Z</time>
      </trkpt>
      <trkpt lat="40.24438" lon="-7.65031">
        <ele>643.332</ele>
        <time>2020-09-27T14:22:50Z</time>
      </trkpt>
      <trkpt lat="40.24448" lon="-7.65078">
        <ele>643.614</ele>
        <time>2020-09-27T14:22:52Z</time>
      </trkpt>
      <trkpt lat="40.24448" lon="-7.65097">
        <ele>644.272</ele>
        <time>2020-09-27T14:22:53Z</time>
      </trkpt>
      <trkpt lat="40.24443" lon="-7.6511">
        <ele>644.894</ele>
        <time>2020-09-27T14:22:54Z</time>
      </trkpt>
      <trkpt lat="40.24433" lon="-7.65119">
        <ele>645.472</ele>
        <time>2020-09-27T14:22:55Z</time>
      </trkpt>
      <trkpt lat="40.24406" lon="-7.65117">
        <ele>645.832</ele>
        <time>2020-09-27T14:22:57Z</time>
      </trkpt>
      <trkpt lat="40.24392" lon="-7.65107">
        <ele>646.052</ele>
        <time>2020-09-27T14:22:58Z</time>
      </trkpt>
      <trkpt lat="40.24364" lon="-7.65089">
        <ele>650.01</ele>
        <time>2020-09-27T14:23:00Z</time>
      </trkpt>
      <trkpt lat="40.24349" lon="-7.65086">
        <ele>654.087</ele>
        <time>2020-09-27T14:23:01Z</time>
      </trkpt>
      <trkpt lat="40.24318" lon="-7.65094">
        <ele>658.042</ele>
        <time>2020-09-27T14:23:03Z</time>
      </trkpt>
      <trkpt lat="40.24302" lon="-7.65101">
        <ele>662.026</ele>
        <time>2020-09-27T14:23:04Z</time>
      </trkpt>
      <trkpt lat="40.24286" lon="-7.65102">
        <ele>664.108</ele>
        <time>2020-09-27T14:23:05Z</time>
      </trkpt>
      <trkpt lat="40.24271" lon="-7.65095">
        <ele>664.543</ele>
        <time>2020-09-27T14:23:06Z</time>
      </trkpt>
      <trkpt lat="40.24244" lon="-7.65063">
        <ele>664.165</ele>
        <time>2020-09-27T14:23:08Z</time>
      </trkpt>
      <trkpt lat="40.24225" lon="-7.65015">
        <ele>663.473</ele>
        <time>2020-09-27T14:23:10Z</time>
      </trkpt>
      <trkpt lat="40.24213" lon="-7.64992">
        <ele>662.945</ele>
        <time>2020-09-27T14:23:11Z</time>
      </trkpt>
      <trkpt lat="40.24201" lon="-7.64969">
        <ele>662.763</ele>
        <time>2020-09-27T14:23:12Z</time>
      </trkpt>
      <trkpt lat="40.24173" lon="-7.6493">
        <ele>662.593</ele>
        <time>2020-09-27T14:23:14Z</time>
      </trkpt>
      <trkpt lat="40.24159" lon="-7.64919">
        <ele>662.333</ele>
        <time>2020-09-27T14:23:15Z</time>
      </trkpt>
      <trkpt lat="40.24143" lon="-7.64912">
        <ele>662.361</ele>
        <time>2020-09-27T14:23:16Z</time>
      </trkpt>
      <trkpt lat="40.24107" lon="-7.64907">
        <ele>662.523</ele>
        <time>2020-09-27T14:23:18Z</time>
      </trkpt>
      <trkpt lat="40.24089" lon="-7.64909">
        <ele>662.683</ele>
        <time>2020-09-27T14:23:19Z</time>
      </trkpt>
      <trkpt lat="40.24071" lon="-7.64919">
        <ele>662.711</ele>
        <time>2020-09-27T14:23:20Z</time>
      </trkpt>
      <trkpt lat="40.24055" lon="-7.64935">
        <ele>662.808</ele>
        <time>2020-09-27T14:23:21Z</time>
      </trkpt>
      <trkpt lat="40.24018" lon="-7.64966">
        <ele>663.047</ele>
        <time>2020-09-27T14:23:23Z</time>
      </trkpt>
      <trkpt lat="40.23989" lon="-7.64995">
        <ele>663.059</ele>
        <time>2020-09-27T14:23:25Z</time>
      </trkpt>
      <trkpt lat="40.23981" lon="-7.65012">
        <ele>663.167</ele>
        <time>2020-09-27T14:23:26Z</time>
      </trkpt>
      <trkpt lat="40.23983" lon="-7.65059">
        <ele>663.419</ele>
        <time>2020-09-27T14:23:28Z</time>
      </trkpt>
      <trkpt lat="40.23994" lon="-7.65113">
        <ele>663.687</ele>
        <time>2020-09-27T14:23:30Z</time>
      </trkpt>
      <trkpt lat="40.24007" lon="-7.65168">
        <ele>663.957</ele>
        <time>2020-09-27T14:23:32Z</time>
      </trkpt>
      <trkpt lat="40.2401" lon="-7.65193">
        <ele>664.317</ele>
        <time>2020-09-27T14:23:33Z</time>
      </trkpt>
      <trkpt lat="40.24004" lon="-7.65234">
        <ele>664.915</ele>
        <time>2020-09-27T14:23:35Z</time>
      </trkpt>
      <trkpt lat="40.23985" lon="-7.65257">
        <ele>665.379</ele>
        <time>2020-09-27T14:23:37Z</time>
      </trkpt>
      <trkpt lat="40.23974" lon="-7.65265">
        <ele>665.205</ele>
        <time>2020-09-27T14:23:38Z</time>
      </trkpt>
      <trkpt lat="40.23936" lon="-7.65241">
        <ele>666.125</ele>
        <time>2020-09-27T14:23:40Z</time>
      </trkpt>
      <trkpt lat="40.23916" lon="-7.65229">
        <ele>666.908</ele>
        <time>2020-09-27T14:23:41Z</time>
      </trkpt>
      <trkpt lat="40.23876" lon="-7.65212">
        <ele>668.022</ele>
        <time>2020-09-27T14:23:43Z</time>
      </trkpt>
      <trkpt lat="40.23857" lon="-7.65209">
        <ele>668.934</ele>
        <time>2020-09-27T14:23:44Z</time>
      </trkpt>
      <trkpt lat="40.23839" lon="-7.65208">
        <ele>669.572</ele>
        <time>2020-09-27T14:23:45Z</time>
      </trkpt>
      <trkpt lat="40.23807" lon="-7.65216">
        <ele>669.974</ele>
        <time>2020-09-27T14:23:47Z</time>
      </trkpt>
      <trkpt lat="40.23789" lon="-7.65248">
        <ele>669.832</ele>
        <time>2020-09-27T14:23:49Z</time>
      </trkpt>
      <trkpt lat="40.23793" lon="-7.65292">
        <ele>669.352</ele>
        <time>2020-09-27T14:23:51Z</time>
      </trkpt>
      <trkpt lat="40.23801" lon="-7.65314">
        <ele>668.932</ele>
        <time>2020-09-27T14:23:52Z</time>
      </trkpt>
      <trkpt lat="40.23811" lon="-7.65336">
        <ele>668.57</ele>
        <time>2020-09-27T14:23:53Z</time>
      </trkpt>
      <trkpt lat="40.23827" lon="-7.65381">
        <ele>667.932</ele>
        <time>2020-09-27T14:23:55Z</time>
      </trkpt>
      <trkpt lat="40.23835" lon="-7.65427">
        <ele>667.392</ele>
        <time>2020-09-27T14:23:57Z</time>
      </trkpt>
      <trkpt lat="40.23835" lon="-7.6545">
        <ele>667.311</ele>
        <time>2020-09-27T14:23:58Z</time>
      </trkpt>
      <trkpt lat="40.23833" lon="-7.65471">
        <ele>667.008</ele>
        <time>2020-09-27T14:23:59Z</time>
      </trkpt>
      <trkpt lat="40.23837" lon="-7.6551">
        <ele>666.628</ele>
        <time>2020-09-27T14:24:01Z</time>
      </trkpt>
      <trkpt lat="40.23844" lon="-7.65527">
        <ele>666.64</ele>
        <time>2020-09-27T14:24:02Z</time>
      </trkpt>
      <trkpt lat="40.23855" lon="-7.65542">
        <ele>666.878</ele>
        <time>2020-09-27T14:24:03Z</time>
      </trkpt>
      <trkpt lat="40.23882" lon="-7.65562">
        <ele>666.79</ele>
        <time>2020-09-27T14:24:05Z</time>
      </trkpt>
      <trkpt lat="40.23896" lon="-7.65572">
        <ele>666.628</ele>
        <time>2020-09-27T14:24:06Z</time>
      </trkpt>
      <trkpt lat="40.2392" lon="-7.65598">
        <ele>667.398</ele>
        <time>2020-09-27T14:24:08Z</time>
      </trkpt>
      <trkpt lat="40.23943" lon="-7.65621">
        <ele>668.168</ele>
        <time>2020-09-27T14:24:10Z</time>
      </trkpt>
      <trkpt lat="40.23966" lon="-7.65638">
        <ele>668.966</ele>
        <time>2020-09-27T14:24:12Z</time>
      </trkpt>
      <trkpt lat="40.23985" lon="-7.65654">
        <ele>669.485</ele>
        <time>2020-09-27T14:24:14Z</time>
      </trkpt>
      <trkpt lat="40.23991" lon="-7.65666">
        <ele>669.789</ele>
        <time>2020-09-27T14:24:15Z</time>
      </trkpt>
      <trkpt lat="40.23988" lon="-7.65694">
        <ele>670.017</ele>
        <time>2020-09-27T14:24:17Z</time>
      </trkpt>
      <trkpt lat="40.23981" lon="-7.65704">
        <ele>670.408</ele>
        <time>2020-09-27T14:24:18Z</time>
      </trkpt>
      <trkpt lat="40.23974" lon="-7.65713">
        <ele>670.763</ele>
        <time>2020-09-27T14:24:19Z</time>
      </trkpt>
      <trkpt lat="40.23956" lon="-7.65728">
        <ele>671.165</ele>
        <time>2020-09-27T14:24:21Z</time>
      </trkpt>
      <trkpt lat="40.2394" lon="-7.65748">
        <ele>671.963</ele>
        <time>2020-09-27T14:24:23Z</time>
      </trkpt>
      <trkpt lat="40.23934" lon="-7.65761">
        <ele>672.665</ele>
        <time>2020-09-27T14:24:24Z</time>
      </trkpt>
      <trkpt lat="40.23929" lon="-7.65775">
        <ele>673.113</ele>
        <time>2020-09-27T14:24:25Z</time>
      </trkpt>
      <trkpt lat="40.23924" lon="-7.65799">
        <ele>673.523</ele>
        <time>2020-09-27T14:24:26Z</time>
      </trkpt>
      <trkpt lat="40.23926" lon="-7.65823">
        <ele>672.893</ele>
        <time>2020-09-27T14:24:28Z</time>
      </trkpt>
      <trkpt lat="40.23943" lon="-7.65846">
        <ele>673.041</ele>
        <time>2020-09-27T14:24:30Z</time>
      </trkpt>
      <trkpt lat="40.23962" lon="-7.6586">
        <ele>674.071</ele>
        <time>2020-09-27T14:24:32Z</time>
      </trkpt>
      <trkpt lat="40.23971" lon="-7.65866">
        <ele>674.515</ele>
        <time>2020-09-27T14:24:33Z</time>
      </trkpt>
      <trkpt lat="40.23988" lon="-7.65881">
        <ele>675.308</ele>
        <time>2020-09-27T14:24:35Z</time>
      </trkpt>
      <trkpt lat="40.23996" lon="-7.65903">
        <ele>676.182</ele>
        <time>2020-09-27T14:24:37Z</time>
      </trkpt>
      <trkpt lat="40.2399" lon="-7.65929">
        <ele>676.884</ele>
        <time>2020-09-27T14:24:39Z</time>
      </trkpt>
      <trkpt lat="40.23972" lon="-7.65947">
        <ele>677.772</ele>
        <time>2020-09-27T14:24:41Z</time>
      </trkpt>
      <trkpt lat="40.23949" lon="-7.6596">
        <ele>678.754</ele>
        <time>2020-09-27T14:24:43Z</time>
      </trkpt>
      <trkpt lat="40.23939" lon="-7.65969">
        <ele>679.392</ele>
        <time>2020-09-27T14:24:44Z</time>
      </trkpt>
      <trkpt lat="40.23923" lon="-7.65991">
        <ele>679.792</ele>
        <time>2020-09-27T14:24:46Z</time>
      </trkpt>
      <trkpt lat="40.23918" lon="-7.66005">
        <ele>679.982</ele>
        <time>2020-09-27T14:24:47Z</time>
      </trkpt>
      <trkpt lat="40.23909" lon="-7.66033">
        <ele>683.95</ele>
        <time>2020-09-27T14:24:49Z</time>
      </trkpt>
      <trkpt lat="40.23891" lon="-7.66048">
        <ele>687.966</ele>
        <time>2020-09-27T14:24:51Z</time>
      </trkpt>
      <trkpt lat="40.2388" lon="-7.6605">
        <ele>691.929</ele>
        <time>2020-09-27T14:24:52Z</time>
      </trkpt>
      <trkpt lat="40.23857" lon="-7.66035">
        <ele>695.021</ele>
        <time>2020-09-27T14:24:54Z</time>
      </trkpt>
      <trkpt lat="40.23845" lon="-7.66028">
        <ele>696.108</ele>
        <time>2020-09-27T14:24:55Z</time>
      </trkpt>
      <trkpt lat="40.23832" lon="-7.66023">
        <ele>696.151</ele>
        <time>2020-09-27T14:24:56Z</time>
      </trkpt>
      <trkpt lat="40.23806" lon="-7.66022">
        <ele>695.213</ele>
        <time>2020-09-27T14:24:58Z</time>
      </trkpt>
      <trkpt lat="40.23781" lon="-7.66033">
        <ele>693.951</ele>
        <time>2020-09-27T14:25:00Z</time>
      </trkpt>
      <trkpt lat="40.2377" lon="-7.66042">
        <ele>693.013</ele>
        <time>2020-09-27T14:25:01Z</time>
      </trkpt>
      <trkpt lat="40.23753" lon="-7.66067">
        <ele>692.281</ele>
        <time>2020-09-27T14:25:03Z</time>
      </trkpt>
      <trkpt lat="40.23742" lon="-7.66094">
        <ele>691.541</ele>
        <time>2020-09-27T14:25:05Z</time>
      </trkpt>
      <trkpt lat="40.23739" lon="-7.66123">
        <ele>691.151</ele>
        <time>2020-09-27T14:25:07Z</time>
      </trkpt>
      <trkpt lat="40.2374" lon="-7.66139">
        <ele>691.148</ele>
        <time>2020-09-27T14:25:08Z</time>
      </trkpt>
      <trkpt lat="40.23741" lon="-7.66156">
        <ele>691.261</ele>
        <time>2020-09-27T14:25:09Z</time>
      </trkpt>
      <trkpt lat="40.23743" lon="-7.66174">
        <ele>691.217</ele>
        <time>2020-09-27T14:25:10Z</time>
      </trkpt>
      <trkpt lat="40.23753" lon="-7.66209">
        <ele>691.108</ele>
        <time>2020-09-27T14:25:12Z</time>
      </trkpt>
      <trkpt lat="40.23759" lon="-7.66225">
        <ele>691.399</ele>
        <time>2020-09-27T14:25:13Z</time>
      </trkpt>
      <trkpt lat="40.23773" lon="-7.66256">
        <ele>691.889</ele>
        <time>2020-09-27T14:25:15Z</time>
      </trkpt>
      <trkpt lat="40.23785" lon="-7.66285">
        <ele>692.161</ele>
        <time>2020-09-27T14:25:17Z</time>
      </trkpt>
      <trkpt lat="40.23791" lon="-7.663">
        <ele>692.329</ele>
        <time>2020-09-27T14:25:18Z</time>
      </trkpt>
      <trkpt lat="40.23801" lon="-7.66327">
        <ele>692.439</ele>
        <time>2020-09-27T14:25:20Z</time>
      </trkpt>
      <trkpt lat="40.23799" lon="-7.66354">
        <ele>692.579</ele>
        <time>2020-09-27T14:25:22Z</time>
      </trkpt>
      <trkpt lat="40.23792" lon="-7.66366">
        <ele>696.587</ele>
        <time>2020-09-27T14:25:23Z</time>
      </trkpt>
      <trkpt lat="40.23771" lon="-7.66385">
        <ele>700.551</ele>
        <time>2020-09-27T14:25:25Z</time>
      </trkpt>
      <trkpt lat="40.23759" lon="-7.66392">
        <ele>702.801</ele>
        <time>2020-09-27T14:25:26Z</time>
      </trkpt>
      <trkpt lat="40.23733" lon="-7.66407">
        <ele>702.111</ele>
        <time>2020-09-27T14:25:28Z</time>
      </trkpt>
      <trkpt lat="40.23713" lon="-7.66423">
        <ele>700.408</ele>
        <time>2020-09-27T14:25:30Z</time>
      </trkpt>
      <trkpt lat="40.23706" lon="-7.66433">
        <ele>699.28</ele>
        <time>2020-09-27T14:25:31Z</time>
      </trkpt>
      <trkpt lat="40.23702" lon="-7.66444">
        <ele>698.332</ele>
        <time>2020-09-27T14:25:32Z</time>
      </trkpt>
      <trkpt lat="40.23699" lon="-7.66454">
        <ele>697.81</ele>
        <time>2020-09-27T14:25:33Z</time>
      </trkpt>
      <trkpt lat="40.23687" lon="-7.66476">
        <ele>697.572</ele>
        <time>2020-09-27T14:25:35Z</time>
      </trkpt>
      <trkpt lat="40.23667" lon="-7.66496">
        <ele>697.32</ele>
        <time>2020-09-27T14:25:37Z</time>
      </trkpt>
      <trkpt lat="40.23656" lon="-7.66505">
        <ele>697.19</ele>
        <time>2020-09-27T14:25:38Z</time>
      </trkpt>
      <trkpt lat="40.23636" lon="-7.66529">
        <ele>696.86</ele>
        <time>2020-09-27T14:25:40Z</time>
      </trkpt>
      <trkpt lat="40.23624" lon="-7.66561">
        <ele>696.948</ele>
        <time>2020-09-27T14:25:42Z</time>
      </trkpt>
      <trkpt lat="40.23624" lon="-7.66576">
        <ele>697.037</ele>
        <time>2020-09-27T14:25:43Z</time>
      </trkpt>
      <trkpt lat="40.23635" lon="-7.666">
        <ele>697.249</ele>
        <time>2020-09-27T14:25:45Z</time>
      </trkpt>
      <trkpt lat="40.23642" lon="-7.6661">
        <ele>697.313</ele>
        <time>2020-09-27T14:25:46Z</time>
      </trkpt>
      <trkpt lat="40.23649" lon="-7.6662">
        <ele>697.408</ele>
        <time>2020-09-27T14:25:47Z</time>
      </trkpt>
      <trkpt lat="40.2366" lon="-7.66643">
        <ele>697.328</ele>
        <time>2020-09-27T14:25:49Z</time>
      </trkpt>
      <trkpt lat="40.23657" lon="-7.66665">
        <ele>697.21</ele>
        <time>2020-09-27T14:25:51Z</time>
      </trkpt>
      <trkpt lat="40.23638" lon="-7.66678">
        <ele>701.228</ele>
        <time>2020-09-27T14:25:53Z</time>
      </trkpt>
      <trkpt lat="40.23626" lon="-7.66682">
        <ele>703.09</ele>
        <time>2020-09-27T14:25:54Z</time>
      </trkpt>
      <trkpt lat="40.23613" lon="-7.66686">
        <ele>703.228</ele>
        <time>2020-09-27T14:25:55Z</time>
      </trkpt>
      <trkpt lat="40.23591" lon="-7.66703">
        <ele>702.148</ele>
        <time>2020-09-27T14:25:57Z</time>
      </trkpt>
      <trkpt lat="40.23583" lon="-7.66716">
        <ele>701.188</ele>
        <time>2020-09-27T14:25:58Z</time>
      </trkpt>
      <trkpt lat="40.23571" lon="-7.66746">
        <ele>700.156</ele>
        <time>2020-09-27T14:26:00Z</time>
      </trkpt>
      <trkpt lat="40.23552" lon="-7.66769">
        <ele>699.451</ele>
        <time>2020-09-27T14:26:02Z</time>
      </trkpt>
      <trkpt lat="40.23528" lon="-7.66782">
        <ele>699.001</ele>
        <time>2020-09-27T14:26:04Z</time>
      </trkpt>
      <trkpt lat="40.23515" lon="-7.66785">
        <ele>698.611</ele>
        <time>2020-09-27T14:26:05Z</time>
      </trkpt>
      <trkpt lat="40.23502" lon="-7.66785">
        <ele>698.208</ele>
        <time>2020-09-27T14:26:06Z</time>
      </trkpt>
      <trkpt lat="40.23491" lon="-7.66778">
        <ele>698.42</ele>
        <time>2020-09-27T14:26:07Z</time>
      </trkpt>
      <trkpt lat="40.2348" lon="-7.66767">
        <ele>698.632</ele>
        <time>2020-09-27T14:26:08Z</time>
      </trkpt>
      <trkpt lat="40.23462" lon="-7.66743">
        <ele>698.91</ele>
        <time>2020-09-27T14:26:10Z</time>
      </trkpt>
      <trkpt lat="40.23452" lon="-7.66733">
        <ele>699.232</ele>
        <time>2020-09-27T14:26:11Z</time>
      </trkpt>
      <trkpt lat="40.2343" lon="-7.6672">
        <ele>699.79</ele>
        <time>2020-09-27T14:26:13Z</time>
      </trkpt>
      <trkpt lat="40.23418" lon="-7.66718">
        <ele>700.35</ele>
        <time>2020-09-27T14:26:14Z</time>
      </trkpt>
      <trkpt lat="40.23405" lon="-7.66719">
        <ele>700.89</ele>
        <time>2020-09-27T14:26:15Z</time>
      </trkpt>
      <trkpt lat="40.23385" lon="-7.66738">
        <ele>701.298</ele>
        <time>2020-09-27T14:26:17Z</time>
      </trkpt>
      <trkpt lat="40.23377" lon="-7.6675">
        <ele>701.678</ele>
        <time>2020-09-27T14:26:18Z</time>
      </trkpt>
      <trkpt lat="40.23364" lon="-7.66776">
        <ele>702.233</ele>
        <time>2020-09-27T14:26:20Z</time>
      </trkpt>
      <trkpt lat="40.23357" lon="-7.66788">
        <ele>702.826</ele>
        <time>2020-09-27T14:26:21Z</time>
      </trkpt>
      <trkpt lat="40.23344" lon="-7.66814">
        <ele>703.408</ele>
        <time>2020-09-27T14:26:23Z</time>
      </trkpt>
      <trkpt lat="40.23341" lon="-7.66828">
        <ele>703.992</ele>
        <time>2020-09-27T14:26:24Z</time>
      </trkpt>
      <trkpt lat="40.23339" lon="-7.6686">
        <ele>704.424</ele>
        <time>2020-09-27T14:26:26Z</time>
      </trkpt>
      <trkpt lat="40.23339" lon="-7.66876">
        <ele>704.612</ele>
        <time>2020-09-27T14:26:27Z</time>
      </trkpt>
      <trkpt lat="40.23337" lon="-7.6691">
        <ele>705.274</ele>
        <time>2020-09-27T14:26:29Z</time>
      </trkpt>
      <trkpt lat="40.23334" lon="-7.66927">
        <ele>705.572</ele>
        <time>2020-09-27T14:26:30Z</time>
      </trkpt>
      <trkpt lat="40.23322" lon="-7.66959">
        <ele>706.082</ele>
        <time>2020-09-27T14:26:32Z</time>
      </trkpt>
      <trkpt lat="40.23313" lon="-7.66992">
        <ele>706.762</ele>
        <time>2020-09-27T14:26:34Z</time>
      </trkpt>
      <trkpt lat="40.23309" lon="-7.67009">
        <ele>707.31</ele>
        <time>2020-09-27T14:26:35Z</time>
      </trkpt>
      <trkpt lat="40.23307" lon="-7.67026">
        <ele>707.882</ele>
        <time>2020-09-27T14:26:36Z</time>
      </trkpt>
      <trkpt lat="40.23302" lon="-7.67058">
        <ele>708.543</ele>
        <time>2020-09-27T14:26:38Z</time>
      </trkpt>
      <trkpt lat="40.23299" lon="-7.67073">
        <ele>709.217</ele>
        <time>2020-09-27T14:26:39Z</time>
      </trkpt>
      <trkpt lat="40.23294" lon="-7.67102">
        <ele>710.008</ele>
        <time>2020-09-27T14:26:41Z</time>
      </trkpt>
      <trkpt lat="40.23291" lon="-7.67117">
        <ele>710.763</ele>
        <time>2020-09-27T14:26:42Z</time>
      </trkpt>
      <trkpt lat="40.23286" lon="-7.67141">
        <ele>711.515</ele>
        <time>2020-09-27T14:26:44Z</time>
      </trkpt>
      <trkpt lat="40.23284" lon="-7.67152">
        <ele>712.213</ele>
        <time>2020-09-27T14:26:45Z</time>
      </trkpt>
      <trkpt lat="40.23281" lon="-7.67166">
        <ele>712.935</ele>
        <time>2020-09-27T14:26:47Z</time>
      </trkpt>
      <trkpt lat="40.23282" lon="-7.67176">
        <ele>712.483</ele>
        <time>2020-09-27T14:30:43Z</time>
      </trkpt>
      <trkpt lat="40.2329" lon="-7.67193">
        <ele>712.173</ele>
        <time>2020-09-27T14:30:45Z</time>
      </trkpt>
      <trkpt lat="40.23307" lon="-7.67211">
        <ele>712.073</ele>
        <time>2020-09-27T14:30:47Z</time>
      </trkpt>
      <trkpt lat="40.23333" lon="-7.67231">
        <ele>712.181</ele>
        <time>2020-09-27T14:30:49Z</time>
      </trkpt>
      <trkpt lat="40.23364" lon="-7.67255">
        <ele>712.374</ele>
        <time>2020-09-27T14:30:51Z</time>
      </trkpt>
      <trkpt lat="40.2338" lon="-7.67268">
        <ele>712.456</ele>
        <time>2020-09-27T14:30:52Z</time>
      </trkpt>
      <trkpt lat="40.23413" lon="-7.67295">
        <ele>716.421</ele>
        <time>2020-09-27T14:30:54Z</time>
      </trkpt>
      <trkpt lat="40.23431" lon="-7.67308">
        <ele>720.408</ele>
        <time>2020-09-27T14:30:55Z</time>
      </trkpt>
      <trkpt lat="40.2345" lon="-7.67321">
        <ele>721.732</ele>
        <time>2020-09-27T14:30:56Z</time>
      </trkpt>
      <trkpt lat="40.23485" lon="-7.67345">
        <ele>720.344</ele>
        <time>2020-09-27T14:30:58Z</time>
      </trkpt>
      <trkpt lat="40.235" lon="-7.67357">
        <ele>718.812</ele>
        <time>2020-09-27T14:30:59Z</time>
      </trkpt>
      <trkpt lat="40.23523" lon="-7.67385">
        <ele>716.864</ele>
        <time>2020-09-27T14:31:01Z</time>
      </trkpt>
      <trkpt lat="40.23529" lon="-7.67405">
        <ele>714.942</ele>
        <time>2020-09-27T14:31:02Z</time>
      </trkpt>
      <trkpt lat="40.23527" lon="-7.67456">
        <ele>713.512</ele>
        <time>2020-09-27T14:31:04Z</time>
      </trkpt>
      <trkpt lat="40.23529" lon="-7.675">
        <ele>712.182</ele>
        <time>2020-09-27T14:31:06Z</time>
      </trkpt>
      <trkpt lat="40.23539" lon="-7.67518">
        <ele>711.06</ele>
        <time>2020-09-27T14:31:07Z</time>
      </trkpt>
      <trkpt lat="40.23553" lon="-7.67531">
        <ele>710.363</ele>
        <time>2020-09-27T14:31:08Z</time>
      </trkpt>
      <trkpt lat="40.23591" lon="-7.67551">
        <ele>709.644</ele>
        <time>2020-09-27T14:31:10Z</time>
      </trkpt>
      <trkpt lat="40.23612" lon="-7.67558">
        <ele>709.218</ele>
        <time>2020-09-27T14:31:11Z</time>
      </trkpt>
      <trkpt lat="40.23657" lon="-7.67563">
        <ele>708.608</ele>
        <time>2020-09-27T14:31:13Z</time>
      </trkpt>
      <trkpt lat="40.23679" lon="-7.67568">
        <ele>707.971</ele>
        <time>2020-09-27T14:31:14Z</time>
      </trkpt>
      <trkpt lat="40.23719" lon="-7.67585">
        <ele>707.333</ele>
        <time>2020-09-27T14:31:16Z</time>
      </trkpt>
      <trkpt lat="40.23737" lon="-7.67596">
        <ele>706.781</ele>
        <time>2020-09-27T14:31:17Z</time>
      </trkpt>
      <trkpt lat="40.23772" lon="-7.67607">
        <ele>705.933</ele>
        <time>2020-09-27T14:31:19Z</time>
      </trkpt>
      <trkpt lat="40.23789" lon="-7.67602">
        <ele>705.451</ele>
        <time>2020-09-27T14:31:20Z</time>
      </trkpt>
      <trkpt lat="40.23818" lon="-7.67572">
        <ele>704.741</ele>
        <time>2020-09-27T14:31:22Z</time>
      </trkpt>
      <trkpt lat="40.2384" lon="-7.67524">
        <ele>704.181</ele>
        <time>2020-09-27T14:31:24Z</time>
      </trkpt>
      <trkpt lat="40.23851" lon="-7.67498">
        <ele>703.669</ele>
        <time>2020-09-27T14:31:25Z</time>
      </trkpt>
      <trkpt lat="40.23877" lon="-7.67454">
        <ele>703.396</ele>
        <time>2020-09-27T14:31:27Z</time>
      </trkpt>
      <trkpt lat="40.23893" lon="-7.67435">
        <ele>703.131</ele>
        <time>2020-09-27T14:31:28Z</time>
      </trkpt>
      <trkpt lat="40.23933" lon="-7.67408">
        <ele>707.124</ele>
        <time>2020-09-27T14:31:30Z</time>
      </trkpt>
      <trkpt lat="40.23952" lon="-7.67392">
        <ele>711.108</ele>
        <time>2020-09-27T14:31:31Z</time>
      </trkpt>
      <trkpt lat="40.23969" lon="-7.67372">
        <ele>715.144</ele>
        <time>2020-09-27T14:31:32Z</time>
      </trkpt>
      <trkpt lat="40.24005" lon="-7.67327">
        <ele>718.236</ele>
        <time>2020-09-27T14:31:34Z</time>
      </trkpt>
      <trkpt lat="40.24041" lon="-7.67284">
        <ele>717.464</ele>
        <time>2020-09-27T14:31:36Z</time>
      </trkpt>
      <trkpt lat="40.24073" lon="-7.67248">
        <ele>715.246</ele>
        <time>2020-09-27T14:31:38Z</time>
      </trkpt>
      <trkpt lat="40.24102" lon="-7.67204">
        <ele>712.884</ele>
        <time>2020-09-27T14:31:40Z</time>
      </trkpt>
      <trkpt lat="40.24113" lon="-7.6718">
        <ele>710.964</ele>
        <time>2020-09-27T14:31:41Z</time>
      </trkpt>
      <trkpt lat="40.24136" lon="-7.67136">
        <ele>709.124</ele>
        <time>2020-09-27T14:31:43Z</time>
      </trkpt>
      <trkpt lat="40.2415" lon="-7.67116">
        <ele>708.172</ele>
        <time>2020-09-27T14:31:44Z</time>
      </trkpt>
      <trkpt lat="40.24179" lon="-7.67081">
        <ele>707.068</ele>
        <time>2020-09-27T14:31:46Z</time>
      </trkpt>
      <trkpt lat="40.24193" lon="-7.67067">
        <ele>706.042</ele>
        <time>2020-09-27T14:31:47Z</time>
      </trkpt>
      <trkpt lat="40.24215" lon="-7.67049">
        <ele>705.226</ele>
        <time>2020-09-27T14:31:49Z</time>
      </trkpt>
      <trkpt lat="40.24227" lon="-7.67047">
        <ele>704.408</ele>
        <time>2020-09-27T14:31:50Z</time>
      </trkpt>
      <trkpt lat="40.24246" lon="-7.67066">
        <ele>704.551</ele>
        <time>2020-09-27T14:31:52Z</time>
      </trkpt>
      <trkpt lat="40.24244" lon="-7.67115">
        <ele>704.893</ele>
        <time>2020-09-27T14:31:54Z</time>
      </trkpt>
      <trkpt lat="40.24236" lon="-7.67139">
        <ele>705.121</ele>
        <time>2020-09-27T14:31:55Z</time>
      </trkpt>
      <trkpt lat="40.24227" lon="-7.6719">
        <ele>705.013</ele>
        <time>2020-09-27T14:31:57Z</time>
      </trkpt>
      <trkpt lat="40.2423" lon="-7.67216">
        <ele>704.961</ele>
        <time>2020-09-27T14:31:58Z</time>
      </trkpt>
      <trkpt lat="40.24245" lon="-7.67266">
        <ele>704.661</ele>
        <time>2020-09-27T14:32:00Z</time>
      </trkpt>
      <trkpt lat="40.24247" lon="-7.67293">
        <ele>704.241</ele>
        <time>2020-09-27T14:32:01Z</time>
      </trkpt>
      <trkpt lat="40.24243" lon="-7.67349">
        <ele>703.889</ele>
        <time>2020-09-27T14:32:03Z</time>
      </trkpt>
      <trkpt lat="40.24244" lon="-7.67377">
        <ele>703.542</ele>
        <time>2020-09-27T14:32:04Z</time>
      </trkpt>
      <trkpt lat="40.24257" lon="-7.67434">
        <ele>703.022</ele>
        <time>2020-09-27T14:32:06Z</time>
      </trkpt>
      <trkpt lat="40.24274" lon="-7.67487">
        <ele>702.914</ele>
        <time>2020-09-27T14:32:08Z</time>
      </trkpt>
      <trkpt lat="40.24283" lon="-7.67509">
        <ele>702.908</ele>
        <time>2020-09-27T14:32:09Z</time>
      </trkpt>
      <trkpt lat="40.24313" lon="-7.67545">
        <ele>703.139</ele>
        <time>2020-09-27T14:32:11Z</time>
      </trkpt>
      <trkpt lat="40.2433" lon="-7.67557">
        <ele>703.281</ele>
        <time>2020-09-27T14:32:12Z</time>
      </trkpt>
      <trkpt lat="40.24349" lon="-7.67564">
        <ele>703.319</ele>
        <time>2020-09-27T14:32:13Z</time>
      </trkpt>
      <trkpt lat="40.24388" lon="-7.67567">
        <ele>703.641</ele>
        <time>2020-09-27T14:32:15Z</time>
      </trkpt>
      <trkpt lat="40.24416" lon="-7.67554">
        <ele>703.749</ele>
        <time>2020-09-27T14:32:17Z</time>
      </trkpt>
      <trkpt lat="40.24428" lon="-7.67539">
        <ele>703.979</ele>
        <time>2020-09-27T14:32:18Z</time>
      </trkpt>
      <trkpt lat="40.2444" lon="-7.6752">
        <ele>704.149</ele>
        <time>2020-09-27T14:32:19Z</time>
      </trkpt>
      <trkpt lat="40.24452" lon="-7.67499">
        <ele>704.377</ele>
        <time>2020-09-27T14:32:20Z</time>
      </trkpt>
      <trkpt lat="40.24465" lon="-7.67477">
        <ele>704.311</ele>
        <time>2020-09-27T14:32:21Z</time>
      </trkpt>
      <trkpt lat="40.24494" lon="-7.67432">
        <ele>704.421</ele>
        <time>2020-09-27T14:32:23Z</time>
      </trkpt>
      <trkpt lat="40.24527" lon="-7.67392">
        <ele>704.303</ele>
        <time>2020-09-27T14:32:25Z</time>
      </trkpt>
      <trkpt lat="40.24569" lon="-7.67366">
        <ele>704.308</ele>
        <time>2020-09-27T14:32:27Z</time>
      </trkpt>
      <trkpt lat="40.2459" lon="-7.67357">
        <ele>704.446</ele>
        <time>2020-09-27T14:32:28Z</time>
      </trkpt>
      <trkpt lat="40.24626" lon="-7.67334">
        <ele>704.598</ele>
        <time>2020-09-27T14:32:30Z</time>
      </trkpt>
      <trkpt lat="40.24649" lon="-7.6729">
        <ele>705.026</ele>
        <time>2020-09-27T14:32:32Z</time>
      </trkpt>
      <trkpt lat="40.24665" lon="-7.67244">
        <ele>705.268</ele>
        <time>2020-09-27T14:32:34Z</time>
      </trkpt>
      <trkpt lat="40.24678" lon="-7.67225">
        <ele>705.336</ele>
        <time>2020-09-27T14:32:35Z</time>
      </trkpt>
      <trkpt lat="40.24715" lon="-7.67195">
        <ele>705.476</ele>
        <time>2020-09-27T14:32:37Z</time>
      </trkpt>
      <trkpt lat="40.24735" lon="-7.67183">
        <ele>705.596</ele>
        <time>2020-09-27T14:32:38Z</time>
      </trkpt>
      <trkpt lat="40.24755" lon="-7.67174">
        <ele>705.434</ele>
        <time>2020-09-27T14:32:39Z</time>
      </trkpt>
      <trkpt lat="40.24776" lon="-7.6717">
        <ele>705.352</ele>
        <time>2020-09-27T14:32:40Z</time>
      </trkpt>
      <trkpt lat="40.24797" lon="-7.67172">
        <ele>705.453</ele>
        <time>2020-09-27T14:32:41Z</time>
      </trkpt>
      <trkpt lat="40.2482" lon="-7.67176">
        <ele>705.508</ele>
        <time>2020-09-27T14:32:42Z</time>
      </trkpt>
      <trkpt lat="40.24842" lon="-7.67177">
        <ele>705.708</ele>
        <time>2020-09-27T14:32:43Z</time>
      </trkpt>
      <trkpt lat="40.24886" lon="-7.67164">
        <ele>706.08</ele>
        <time>2020-09-27T14:32:45Z</time>
      </trkpt>
      <trkpt lat="40.24907" lon="-7.67156">
        <ele>706.222</ele>
        <time>2020-09-27T14:32:46Z</time>
      </trkpt>
      <trkpt lat="40.24928" lon="-7.67149">
        <ele>706.42</ele>
        <time>2020-09-27T14:32:47Z</time>
      </trkpt>
      <trkpt lat="40.24958" lon="-7.6714">
        <ele>706.522</ele>
        <time>2020-09-27T14:32:49Z</time>
      </trkpt>
      <trkpt lat="40.2497" lon="-7.67141">
        <ele>706.25</ele>
        <time>2020-09-27T14:32:50Z</time>
      </trkpt>
      <trkpt lat="40.24983" lon="-7.67162">
        <ele>706.12</ele>
        <time>2020-09-27T14:32:52Z</time>
      </trkpt>
      <trkpt lat="40.2498" lon="-7.67195">
        <ele>706.35</ele>
        <time>2020-09-27T14:32:54Z</time>
      </trkpt>
      <trkpt lat="40.24957" lon="-7.6723">
        <ele>706.838</ele>
        <time>2020-09-27T14:32:56Z</time>
      </trkpt>
      <trkpt lat="40.24927" lon="-7.67265">
        <ele>707.389</ele>
        <time>2020-09-27T14:32:58Z</time>
      </trkpt>
      <trkpt lat="40.24902" lon="-7.67305">
        <ele>708.106</ele>
        <time>2020-09-27T14:33:00Z</time>
      </trkpt>
      <trkpt lat="40.2487" lon="-7.67342">
        <ele>708.626</ele>
        <time>2020-09-27T14:33:02Z</time>
      </trkpt>
      <trkpt lat="40.24851" lon="-7.67356">
        <ele>708.908</ele>
        <time>2020-09-27T14:33:03Z</time>
      </trkpt>
      <trkpt lat="40.24825" lon="-7.67382">
        <ele>709.033</ele>
        <time>2020-09-27T14:33:05Z</time>
      </trkpt>
      <trkpt lat="40.24822" lon="-7.674">
        <ele>709.035</ele>
        <time>2020-09-27T14:33:06Z</time>
      </trkpt>
      <trkpt lat="40.24822" lon="-7.6742">
        <ele>709.173</ele>
        <time>2020-09-27T14:33:07Z</time>
      </trkpt>
      <trkpt lat="40.24825" lon="-7.67471">
        <ele>709.155</ele>
        <time>2020-09-27T14:33:09Z</time>
      </trkpt>
      <trkpt lat="40.24824" lon="-7.67498">
        <ele>708.913</ele>
        <time>2020-09-27T14:33:10Z</time>
      </trkpt>
      <trkpt lat="40.24815" lon="-7.67526">
        <ele>708.853</ele>
        <time>2020-09-27T14:33:11Z</time>
      </trkpt>
      <trkpt lat="40.24785" lon="-7.67574">
        <ele>708.623</ele>
        <time>2020-09-27T14:33:13Z</time>
      </trkpt>
      <trkpt lat="40.24769" lon="-7.67594">
        <ele>708.461</ele>
        <time>2020-09-27T14:33:14Z</time>
      </trkpt>
      <trkpt lat="40.24755" lon="-7.67613">
        <ele>708.047</ele>
        <time>2020-09-27T14:33:15Z</time>
      </trkpt>
      <trkpt lat="40.24743" lon="-7.67656">
        <ele>707.329</ele>
        <time>2020-09-27T14:33:17Z</time>
      </trkpt>
      <trkpt lat="40.24745" lon="-7.67679">
        <ele>706.821</ele>
        <time>2020-09-27T14:33:18Z</time>
      </trkpt>
      <trkpt lat="40.24753" lon="-7.67701">
        <ele>706.208</ele>
        <time>2020-09-27T14:33:19Z</time>
      </trkpt>
      <trkpt lat="40.24764" lon="-7.67724">
        <ele>705.989</ele>
        <time>2020-09-27T14:33:20Z</time>
      </trkpt>
      <trkpt lat="40.24777" lon="-7.67747">
        <ele>705.781</ele>
        <time>2020-09-27T14:33:21Z</time>
      </trkpt>
      <trkpt lat="40.24793" lon="-7.67769">
        <ele>705.749</ele>
        <time>2020-09-27T14:33:22Z</time>
      </trkpt>
      <trkpt lat="40.24829" lon="-7.67808">
        <ele>705.941</ele>
        <time>2020-09-27T14:33:24Z</time>
      </trkpt>
      <trkpt lat="40.2487" lon="-7.67842">
        <ele>706.479</ele>
        <time>2020-09-27T14:33:26Z</time>
      </trkpt>
      <trkpt lat="40.24915" lon="-7.67872">
        <ele>707.099</ele>
        <time>2020-09-27T14:33:28Z</time>
      </trkpt>
      <trkpt lat="40.24961" lon="-7.67898">
        <ele>707.669</ele>
        <time>2020-09-27T14:33:30Z</time>
      </trkpt>
      <trkpt lat="40.24986" lon="-7.67908">
        <ele>708.097</ele>
        <time>2020-09-27T14:33:31Z</time>
      </trkpt>
      <trkpt lat="40.25032" lon="-7.67926">
        <ele>708.327</ele>
        <time>2020-09-27T14:33:33Z</time>
      </trkpt>
      <trkpt lat="40.25052" lon="-7.67939">
        <ele>708.568</ele>
        <time>2020-09-27T14:33:34Z</time>
      </trkpt>
      <trkpt lat="40.25083" lon="-7.67977">
        <ele>708.914</ele>
        <time>2020-09-27T14:33:36Z</time>
      </trkpt>
      <trkpt lat="40.25114" lon="-7.68011">
        <ele>709.108</ele>
        <time>2020-09-27T14:33:38Z</time>
      </trkpt>
      <trkpt lat="40.25154" lon="-7.68036">
        <ele>709.297</ele>
        <time>2020-09-27T14:33:40Z</time>
      </trkpt>
      <trkpt lat="40.25197" lon="-7.6806">
        <ele>713.289</ele>
        <time>2020-09-27T14:33:42Z</time>
      </trkpt>
      <trkpt lat="40.25218" lon="-7.68072">
        <ele>717.227</ele>
        <time>2020-09-27T14:33:43Z</time>
      </trkpt>
      <trkpt lat="40.25255" lon="-7.68093">
        <ele>721.279</ele>
        <time>2020-09-27T14:33:45Z</time>
      </trkpt>
      <trkpt lat="40.25296" lon="-7.68103">
        <ele>721.397</ele>
        <time>2020-09-27T14:33:47Z</time>
      </trkpt>
      <trkpt lat="40.25335" lon="-7.68105">
        <ele>717.967</ele>
        <time>2020-09-27T14:33:49Z</time>
      </trkpt>
      <trkpt lat="40.25351" lon="-7.68105">
        <ele>716.445</ele>
        <time>2020-09-27T14:33:50Z</time>
      </trkpt>
      <trkpt lat="40.25371" lon="-7.68117">
        <ele>714.472</ele>
        <time>2020-09-27T14:33:52Z</time>
      </trkpt>
      <trkpt lat="40.25374" lon="-7.68144">
        <ele>712.613</ele>
        <time>2020-09-27T14:33:54Z</time>
      </trkpt>
      <trkpt lat="40.25357" lon="-7.68174">
        <ele>711.214</ele>
        <time>2020-09-27T14:33:56Z</time>
      </trkpt>
      <trkpt lat="40.25325" lon="-7.68205">
        <ele>710.208</ele>
        <time>2020-09-27T14:33:58Z</time>
      </trkpt>
      <trkpt lat="40.25291" lon="-7.68235">
        <ele>709.572</ele>
        <time>2020-09-27T14:34:00Z</time>
      </trkpt>
      <trkpt lat="40.25255" lon="-7.68253">
        <ele>709.144</ele>
        <time>2020-09-27T14:34:02Z</time>
      </trkpt>
      <trkpt lat="40.25212" lon="-7.68256">
        <ele>709.032</ele>
        <time>2020-09-27T14:34:04Z</time>
      </trkpt>
      <trkpt lat="40.25192" lon="-7.6826">
        <ele>709.294</ele>
        <time>2020-09-27T14:34:05Z</time>
      </trkpt>
      <trkpt lat="40.25175" lon="-7.68268">
        <ele>709.452</ele>
        <time>2020-09-27T14:34:06Z</time>
      </trkpt>
      <trkpt lat="40.25157" lon="-7.68275">
        <ele>709.732</ele>
        <time>2020-09-27T14:34:07Z</time>
      </trkpt>
      <trkpt lat="40.25114" lon="-7.68277">
        <ele>709.962</ele>
        <time>2020-09-27T14:34:09Z</time>
      </trkpt>
      <trkpt lat="40.25076" lon="-7.68279">
        <ele>713.92</ele>
        <time>2020-09-27T14:34:11Z</time>
      </trkpt>
      <trkpt lat="40.25064" lon="-7.68287">
        <ele>717.985</ele>
        <time>2020-09-27T14:34:12Z</time>
      </trkpt>
      <trkpt lat="40.2504" lon="-7.68295">
        <ele>721.989</ele>
        <time>2020-09-27T14:34:14Z</time>
      </trkpt>
      <trkpt lat="40.25024" lon="-7.68291">
        <ele>723.417</ele>
        <time>2020-09-27T14:34:15Z</time>
      </trkpt>
      <trkpt lat="40.25007" lon="-7.68283">
        <ele>723.408</ele>
        <time>2020-09-27T14:34:16Z</time>
      </trkpt>
      <trkpt lat="40.24968" lon="-7.68249">
        <ele>721.923</ele>
        <time>2020-09-27T14:34:18Z</time>
      </trkpt>
      <trkpt lat="40.24922" lon="-7.68228">
        <ele>720.195</ele>
        <time>2020-09-27T14:34:20Z</time>
      </trkpt>
      <trkpt lat="40.24898" lon="-7.68225">
        <ele>718.793</ele>
        <time>2020-09-27T14:34:21Z</time>
      </trkpt>
      <trkpt lat="40.24848" lon="-7.68224">
        <ele>717.525</ele>
        <time>2020-09-27T14:34:23Z</time>
      </trkpt>
      <trkpt lat="40.24824" lon="-7.68225">
        <ele>715.493</ele>
        <time>2020-09-27T14:34:24Z</time>
      </trkpt>
      <trkpt lat="40.24799" lon="-7.68224">
        <ele>714.083</ele>
        <time>2020-09-27T14:34:25Z</time>
      </trkpt>
      <trkpt lat="40.24749" lon="-7.68209">
        <ele>713.463</ele>
        <time>2020-09-27T14:34:27Z</time>
      </trkpt>
      <trkpt lat="40.24695" lon="-7.68189">
        <ele>713.471</ele>
        <time>2020-09-27T14:34:29Z</time>
      </trkpt>
      <trkpt lat="40.24666" lon="-7.68181">
        <ele>713.567</ele>
        <time>2020-09-27T14:34:30Z</time>
      </trkpt>
      <trkpt lat="40.2461" lon="-7.68169">
        <ele>713.981</ele>
        <time>2020-09-27T14:34:32Z</time>
      </trkpt>
      <trkpt lat="40.24586" lon="-7.68165">
        <ele>714.419</ele>
        <time>2020-09-27T14:34:33Z</time>
      </trkpt>
      <trkpt lat="40.24565" lon="-7.68162">
        <ele>715.008</ele>
        <time>2020-09-27T14:34:34Z</time>
      </trkpt>
      <trkpt lat="40.24526" lon="-7.68167">
        <ele>715.641</ele>
        <time>2020-09-27T14:34:36Z</time>
      </trkpt>
      <trkpt lat="40.24494" lon="-7.68191">
        <ele>715.933</ele>
        <time>2020-09-27T14:34:38Z</time>
      </trkpt>
      <trkpt lat="40.24475" lon="-7.68234">
        <ele>716.291</ele>
        <time>2020-09-27T14:34:40Z</time>
      </trkpt>
      <trkpt lat="40.24462" lon="-7.68289">
        <ele>716.363</ele>
        <time>2020-09-27T14:34:42Z</time>
      </trkpt>
      <trkpt lat="40.24452" lon="-7.68315">
        <ele>716.621</ele>
        <time>2020-09-27T14:34:43Z</time>
      </trkpt>
      <trkpt lat="40.24438" lon="-7.68336">
        <ele>716.221</ele>
        <time>2020-09-27T14:34:44Z</time>
      </trkpt>
      <trkpt lat="40.24414" lon="-7.68373">
        <ele>716.751</ele>
        <time>2020-09-27T14:34:46Z</time>
      </trkpt>
      <trkpt lat="40.24401" lon="-7.68421">
        <ele>717.429</ele>
        <time>2020-09-27T14:34:48Z</time>
      </trkpt>
      <trkpt lat="40.24391" lon="-7.68476">
        <ele>717.888</ele>
        <time>2020-09-27T14:34:50Z</time>
      </trkpt>
      <trkpt lat="40.24382" lon="-7.68499">
        <ele>718.024</ele>
        <time>2020-09-27T14:34:51Z</time>
      </trkpt>
      <trkpt lat="40.24351" lon="-7.68531">
        <ele>718.126</ele>
        <time>2020-09-27T14:34:53Z</time>
      </trkpt>
      <trkpt lat="40.2433" lon="-7.68541">
        <ele>722.108</ele>
        <time>2020-09-27T14:34:54Z</time>
      </trkpt>
      <trkpt lat="40.24291" lon="-7.68567">
        <ele>726.173</ele>
        <time>2020-09-27T14:34:56Z</time>
      </trkpt>
      <trkpt lat="40.24255" lon="-7.68603">
        <ele>730.125</ele>
        <time>2020-09-27T14:34:58Z</time>
      </trkpt>
      <trkpt lat="40.24233" lon="-7.68617">
        <ele>732.843</ele>
        <time>2020-09-27T14:34:59Z</time>
      </trkpt>
      <trkpt lat="40.2419" lon="-7.68649">
        <ele>734.495</ele>
        <time>2020-09-27T14:35:01Z</time>
      </trkpt>
      <trkpt lat="40.24171" lon="-7.68669">
        <ele>735.453</ele>
        <time>2020-09-27T14:35:02Z</time>
      </trkpt>
      <trkpt lat="40.24141" lon="-7.6871">
        <ele>739.473</ele>
        <time>2020-09-27T14:35:04Z</time>
      </trkpt>
      <trkpt lat="40.24122" lon="-7.68758">
        <ele>743.383</ele>
        <time>2020-09-27T14:35:06Z</time>
      </trkpt>
      <trkpt lat="40.24113" lon="-7.68814">
        <ele>742.331</ele>
        <time>2020-09-27T14:35:08Z</time>
      </trkpt>
      <trkpt lat="40.24115" lon="-7.68864">
        <ele>740.133</ele>
        <time>2020-09-27T14:35:10Z</time>
      </trkpt>
      <trkpt lat="40.24131" lon="-7.68911">
        <ele>737.823</ele>
        <time>2020-09-27T14:35:12Z</time>
      </trkpt>
      <trkpt lat="40.24153" lon="-7.68952">
        <ele>735.715</ele>
        <time>2020-09-27T14:35:14Z</time>
      </trkpt>
      <trkpt lat="40.24168" lon="-7.68967">
        <ele>734.008</ele>
        <time>2020-09-27T14:35:15Z</time>
      </trkpt>
      <trkpt lat="40.24186" lon="-7.68977">
        <ele>732.898</ele>
        <time>2020-09-27T14:35:16Z</time>
      </trkpt>
      <trkpt lat="40.2423" lon="-7.68988">
        <ele>731.78</ele>
        <time>2020-09-27T14:35:18Z</time>
      </trkpt>
      <trkpt lat="40.24252" lon="-7.68991">
        <ele>731.038</ele>
        <time>2020-09-27T14:35:19Z</time>
      </trkpt>
      <trkpt lat="40.24293" lon="-7.68998">
        <ele>730.62</ele>
        <time>2020-09-27T14:35:21Z</time>
      </trkpt>
      <trkpt lat="40.24312" lon="-7.69012">
        <ele>730.358</ele>
        <time>2020-09-27T14:35:22Z</time>
      </trkpt>
      <trkpt lat="40.24329" lon="-7.69031">
        <ele>730.168</ele>
        <time>2020-09-27T14:35:23Z</time>
      </trkpt>
      <trkpt lat="40.24344" lon="-7.69049">
        <ele>730.078</ele>
        <time>2020-09-27T14:35:24Z</time>
      </trkpt>
      <trkpt lat="40.24361" lon="-7.69061">
        <ele>730.136</ele>
        <time>2020-09-27T14:35:25Z</time>
      </trkpt>
      <trkpt lat="40.24403" lon="-7.69074">
        <ele>730.645</ele>
        <time>2020-09-27T14:35:27Z</time>
      </trkpt>
      <trkpt lat="40.24424" lon="-7.69078">
        <ele>731.147</ele>
        <time>2020-09-27T14:35:28Z</time>
      </trkpt>
      <trkpt lat="40.24466" lon="-7.69078">
        <ele>731.711</ele>
        <time>2020-09-27T14:35:30Z</time>
      </trkpt>
      <trkpt lat="40.24485" lon="-7.69072">
        <ele>732.108</ele>
        <time>2020-09-27T14:35:31Z</time>
      </trkpt>
      <trkpt lat="40.24505" lon="-7.69069">
        <ele>732.649</ele>
        <time>2020-09-27T14:35:32Z</time>
      </trkpt>
      <trkpt lat="40.24545" lon="-7.6908">
        <ele>733.291</ele>
        <time>2020-09-27T14:35:34Z</time>
      </trkpt>
      <trkpt lat="40.24563" lon="-7.69087">
        <ele>733.719</ele>
        <time>2020-09-27T14:35:35Z</time>
      </trkpt>
      <trkpt lat="40.2458" lon="-7.69091">
        <ele>734.011</ele>
        <time>2020-09-27T14:35:36Z</time>
      </trkpt>
      <trkpt lat="40.24614" lon="-7.69084">
        <ele>734.189</ele>
        <time>2020-09-27T14:35:38Z</time>
      </trkpt>
      <trkpt lat="40.24628" lon="-7.6908">
        <ele>733.989</ele>
        <time>2020-09-27T14:35:39Z</time>
      </trkpt>
      <trkpt lat="40.2464" lon="-7.69083">
        <ele>733.889</ele>
        <time>2020-09-27T14:35:40Z</time>
      </trkpt>
      <trkpt lat="40.24659" lon="-7.69102">
        <ele>733.437</ele>
        <time>2020-09-27T14:35:42Z</time>
      </trkpt>
      <trkpt lat="40.24664" lon="-7.6913">
        <ele>732.056</ele>
        <time>2020-09-27T14:35:44Z</time>
      </trkpt>
      <trkpt lat="40.24657" lon="-7.69151">
        <ele>731.259</ele>
        <time>2020-09-27T14:35:45Z</time>
      </trkpt>
      <trkpt lat="40.24647" lon="-7.69173">
        <ele>730.714</ele>
        <time>2020-09-27T14:35:46Z</time>
      </trkpt>
      <trkpt lat="40.24645" lon="-7.69215">
        <ele>730.408</ele>
        <time>2020-09-27T14:35:48Z</time>
      </trkpt>
      <trkpt lat="40.24655" lon="-7.69231">
        <ele>734.46</ele>
        <time>2020-09-27T14:35:49Z</time>
      </trkpt>
      <trkpt lat="40.24669" lon="-7.69245">
        <ele>738.412</ele>
        <time>2020-09-27T14:35:50Z</time>
      </trkpt>
      <trkpt lat="40.24701" lon="-7.69275">
        <ele>742.47</ele>
        <time>2020-09-27T14:35:52Z</time>
      </trkpt>
      <trkpt lat="40.24738" lon="-7.69297">
        <ele>745.692</ele>
        <time>2020-09-27T14:35:54Z</time>
      </trkpt>
      <trkpt lat="40.2478" lon="-7.69303">
        <ele>746.97</ele>
        <time>2020-09-27T14:35:56Z</time>
      </trkpt>
      <trkpt lat="40.24821" lon="-7.69297">
        <ele>747.56</ele>
        <time>2020-09-27T14:35:58Z</time>
      </trkpt>
      <trkpt lat="40.24838" lon="-7.69289">
        <ele>747.82</ele>
        <time>2020-09-27T14:35:59Z</time>
      </trkpt>
      <trkpt lat="40.24866" lon="-7.69265">
        <ele>747.568</ele>
        <time>2020-09-27T14:36:01Z</time>
      </trkpt>
      <trkpt lat="40.24895" lon="-7.69258">
        <ele>747.335</ele>
        <time>2020-09-27T14:36:03Z</time>
      </trkpt>
      <trkpt lat="40.24913" lon="-7.69263">
        <ele>747.386</ele>
        <time>2020-09-27T14:36:04Z</time>
      </trkpt>
      <trkpt lat="40.24954" lon="-7.69266">
        <ele>747.414</ele>
        <time>2020-09-27T14:36:06Z</time>
      </trkpt>
      <trkpt lat="40.24998" lon="-7.69263">
        <ele>747.708</ele>
        <time>2020-09-27T14:36:08Z</time>
      </trkpt>
      <trkpt lat="40.2504" lon="-7.69252">
        <ele>747.978</ele>
        <time>2020-09-27T14:36:10Z</time>
      </trkpt>
      <trkpt lat="40.25059" lon="-7.69247">
        <ele>748.36</ele>
        <time>2020-09-27T14:36:11Z</time>
      </trkpt>
      <trkpt lat="40.25087" lon="-7.69231">
        <ele>748.898</ele>
        <time>2020-09-27T14:36:13Z</time>
      </trkpt>
      <trkpt lat="40.25112" lon="-7.69227">
        <ele>748.87</ele>
        <time>2020-09-27T14:36:15Z</time>
      </trkpt>
      <trkpt lat="40.25124" lon="-7.69233">
        <ele>748.838</ele>
        <time>2020-09-27T14:36:16Z</time>
      </trkpt>
      <trkpt lat="40.25133" lon="-7.69251">
        <ele>748.888</ele>
        <time>2020-09-27T14:36:17Z</time>
      </trkpt>
      <trkpt lat="40.25139" lon="-7.69274">
        <ele>752.828</ele>
        <time>2020-09-27T14:36:18Z</time>
      </trkpt>
      <trkpt lat="40.2516" lon="-7.69303">
        <ele>756.846</ele>
        <time>2020-09-27T14:36:20Z</time>
      </trkpt>
      <trkpt lat="40.25174" lon="-7.69312">
        <ele>760.868</ele>
        <time>2020-09-27T14:36:21Z</time>
      </trkpt>
      <trkpt lat="40.2519" lon="-7.69342">
        <ele>764.842</ele>
        <time>2020-09-27T14:36:23Z</time>
      </trkpt>
      <trkpt lat="40.25189" lon="-7.69361">
        <ele>768.226</ele>
        <time>2020-09-27T14:36:24Z</time>
      </trkpt>
      <trkpt lat="40.25183" lon="-7.6938">
        <ele>770.308</ele>
        <time>2020-09-27T14:36:25Z</time>
      </trkpt>
      <trkpt lat="40.2518" lon="-7.69399">
        <ele>771.551</ele>
        <time>2020-09-27T14:36:26Z</time>
      </trkpt>
      <trkpt lat="40.25192" lon="-7.69433">
        <ele>775.573</ele>
        <time>2020-09-27T14:36:28Z</time>
      </trkpt>
      <trkpt lat="40.25206" lon="-7.69442">
        <ele>778.241</ele>
        <time>2020-09-27T14:36:29Z</time>
      </trkpt>
      <trkpt lat="40.25241" lon="-7.69438">
        <ele>775.723</ele>
        <time>2020-09-27T14:36:31Z</time>
      </trkpt>
      <trkpt lat="40.25259" lon="-7.69428">
        <ele>773.181</ele>
        <time>2020-09-27T14:36:32Z</time>
      </trkpt>
      <trkpt lat="40.25298" lon="-7.69407">
        <ele>770.131</ele>
        <time>2020-09-27T14:36:34Z</time>
      </trkpt>
      <trkpt lat="40.25341" lon="-7.694">
        <ele>767.131</ele>
        <time>2020-09-27T14:36:36Z</time>
      </trkpt>
      <trkpt lat="40.25385" lon="-7.69405">
        <ele>764.939</ele>
        <time>2020-09-27T14:36:38Z</time>
      </trkpt>
      <trkpt lat="40.25424" lon="-7.69411">
        <ele>763.146</ele>
        <time>2020-09-27T14:36:40Z</time>
      </trkpt>
      <trkpt lat="40.25439" lon="-7.69413">
        <ele>761.988</ele>
        <time>2020-09-27T14:36:41Z</time>
      </trkpt>
      <trkpt lat="40.25459" lon="-7.69428">
        <ele>761.016</ele>
        <time>2020-09-27T14:36:43Z</time>
      </trkpt>
      <trkpt lat="40.25463" lon="-7.69461">
        <ele>760.608</ele>
        <time>2020-09-27T14:36:45Z</time>
      </trkpt>
      <trkpt lat="40.25457" lon="-7.6948">
        <ele>760.499</ele>
        <time>2020-09-27T14:36:46Z</time>
      </trkpt>
      <trkpt lat="40.25446" lon="-7.69497">
        <ele>760.611</ele>
        <time>2020-09-27T14:36:47Z</time>
      </trkpt>
      <trkpt lat="40.25431" lon="-7.69514">
        <ele>760.929</ele>
        <time>2020-09-27T14:36:48Z</time>
      </trkpt>
      <trkpt lat="40.25403" lon="-7.69547">
        <ele>761.541</ele>
        <time>2020-09-27T14:36:50Z</time>
      </trkpt>
      <trkpt lat="40.25394" lon="-7.69564">
        <ele>762.019</ele>
        <time>2020-09-27T14:36:51Z</time>
      </trkpt>
      <trkpt lat="40.25391" lon="-7.69582">
        <ele>762.559</ele>
        <time>2020-09-27T14:36:52Z</time>
      </trkpt>
      <trkpt lat="40.25386" lon="-7.69627">
        <ele>762.079</ele>
        <time>2020-09-27T14:36:54Z</time>
      </trkpt>
      <trkpt lat="40.25376" lon="-7.6965">
        <ele>762.087</ele>
        <time>2020-09-27T14:36:55Z</time>
      </trkpt>
      <trkpt lat="40.25348" lon="-7.69688">
        <ele>762.563</ele>
        <time>2020-09-27T14:36:57Z</time>
      </trkpt>
      <trkpt lat="40.25315" lon="-7.69705">
        <ele>763.144</ele>
        <time>2020-09-27T14:36:59Z</time>
      </trkpt>
      <trkpt lat="40.25281" lon="-7.69721">
        <ele>763.818</ele>
        <time>2020-09-27T14:37:01Z</time>
      </trkpt>
      <trkpt lat="40.25265" lon="-7.69734">
        <ele>764.108</ele>
        <time>2020-09-27T14:37:02Z</time>
      </trkpt>
      <trkpt lat="40.25243" lon="-7.69744">
        <ele>764.661</ele>
        <time>2020-09-27T14:37:03Z</time>
      </trkpt>
      <trkpt lat="40.25219" lon="-7.69752">
        <ele>765.263</ele>
        <time>2020-09-27T14:37:04Z</time>
      </trkpt>
      <trkpt lat="40.25195" lon="-7.69759">
        <ele>766.071</ele>
        <time>2020-09-27T14:37:05Z</time>
      </trkpt>
      <trkpt lat="40.25151" lon="-7.69772">
        <ele>767.043</ele>
        <time>2020-09-27T14:37:07Z</time>
      </trkpt>
      <trkpt lat="40.25117" lon="-7.69792">
        <ele>768.231</ele>
        <time>2020-09-27T14:37:09Z</time>
      </trkpt>
      <trkpt lat="40.25103" lon="-7.69809">
        <ele>769.361</ele>
        <time>2020-09-27T14:37:10Z</time>
      </trkpt>
      <trkpt lat="40.25093" lon="-7.69829">
        <ele>769.961</ele>
        <time>2020-09-27T14:37:11Z</time>
      </trkpt>
      <trkpt lat="40.25086" lon="-7.69848">
        <ele>770.319</ele>
        <time>2020-09-27T14:37:12Z</time>
      </trkpt>
      <trkpt lat="40.25088" lon="-7.69884">
        <ele>770.493</ele>
        <time>2020-09-27T14:37:14Z</time>
      </trkpt>
      <trkpt lat="40.25109" lon="-7.69914">
        <ele>770.865</ele>
        <time>2020-09-27T14:37:16Z</time>
      </trkpt>
      <trkpt lat="40.25124" lon="-7.69928">
        <ele>771.221</ele>
        <time>2020-09-27T14:37:17Z</time>
      </trkpt>
      <trkpt lat="40.25159" lon="-7.69955">
        <ele>771.808</ele>
        <time>2020-09-27T14:37:19Z</time>
      </trkpt>
      <trkpt lat="40.252" lon="-7.69978">
        <ele>772.844</ele>
        <time>2020-09-27T14:37:21Z</time>
      </trkpt>
      <trkpt lat="40.25242" lon="-7.69994">
        <ele>773.866</ele>
        <time>2020-09-27T14:37:23Z</time>
      </trkpt>
      <trkpt lat="40.25278" lon="-7.70007">
        <ele>774.914</ele>
        <time>2020-09-27T14:37:25Z</time>
      </trkpt>
      <trkpt lat="40.25309" lon="-7.70018">
        <ele>775.986</ele>
        <time>2020-09-27T14:37:27Z</time>
      </trkpt>
      <trkpt lat="40.25342" lon="-7.70029">
        <ele>777.034</ele>
        <time>2020-09-27T14:37:29Z</time>
      </trkpt>
      <trkpt lat="40.25359" lon="-7.70035">
        <ele>777.814</ele>
        <time>2020-09-27T14:37:30Z</time>
      </trkpt>
      <trkpt lat="40.25377" lon="-7.70039">
        <ele>778.424</ele>
        <time>2020-09-27T14:37:31Z</time>
      </trkpt>
      <trkpt lat="40.25416" lon="-7.70041">
        <ele>779.112</ele>
        <time>2020-09-27T14:37:33Z</time>
      </trkpt>
      <trkpt lat="40.25461" lon="-7.70018">
        <ele>779.974</ele>
        <time>2020-09-27T14:37:35Z</time>
      </trkpt>
      <trkpt lat="40.25506" lon="-7.70007">
        <ele>780.956</ele>
        <time>2020-09-27T14:37:37Z</time>
      </trkpt>
      <trkpt lat="40.25529" lon="-7.70005">
        <ele>781.421</ele>
        <time>2020-09-27T14:37:38Z</time>
      </trkpt>
      <trkpt lat="40.25573" lon="-7.70008">
        <ele>782.108</ele>
        <time>2020-09-27T14:37:40Z</time>
      </trkpt>
      <trkpt lat="40.25593" lon="-7.70013">
        <ele>782.632</ele>
        <time>2020-09-27T14:37:41Z</time>
      </trkpt>
      <trkpt lat="40.25623" lon="-7.70021">
        <ele>782.744</ele>
        <time>2020-09-27T14:37:43Z</time>
      </trkpt>
      <trkpt lat="40.25629" lon="-7.70032">
        <ele>782.832</ele>
        <time>2020-09-27T14:37:44Z</time>
      </trkpt>
      <trkpt lat="40.25636" lon="-7.70049">
        <ele>783.074</ele>
        <time>2020-09-27T14:37:46Z</time>
      </trkpt>
      <trkpt lat="40.25631" lon="-7.70062">
        <ele>783.182</ele>
        <time>2020-09-27T14:37:47Z</time>
      </trkpt>
      <trkpt lat="40.2561" lon="-7.70089">
        <ele>783.732</ele>
        <time>2020-09-27T14:37:49Z</time>
      </trkpt>
      <trkpt lat="40.25593" lon="-7.70097">
        <ele>784.182</ele>
        <time>2020-09-27T14:37:50Z</time>
      </trkpt>
      <trkpt lat="40.2556" lon="-7.70114">
        <ele>785.37</ele>
        <time>2020-09-27T14:37:52Z</time>
      </trkpt>
      <trkpt lat="40.25547" lon="-7.70128">
        <ele>786.362</ele>
        <time>2020-09-27T14:37:53Z</time>
      </trkpt>
      <trkpt lat="40.25537" lon="-7.70147">
        <ele>787.283</ele>
        <time>2020-09-27T14:37:54Z</time>
      </trkpt>
      <trkpt lat="40.25529" lon="-7.70197">
        <ele>788.011</ele>
        <time>2020-09-27T14:37:56Z</time>
      </trkpt>
      <trkpt lat="40.25528" lon="-7.70226">
        <ele>788.708</ele>
        <time>2020-09-27T14:37:57Z</time>
      </trkpt>
      <trkpt lat="40.25515" lon="-7.70283">
        <ele>789.711</ele>
        <time>2020-09-27T14:37:59Z</time>
      </trkpt>
      <trkpt lat="40.25505" lon="-7.7031">
        <ele>790.753</ele>
        <time>2020-09-27T14:38:00Z</time>
      </trkpt>
      <trkpt lat="40.25489" lon="-7.70362">
        <ele>791.891</ele>
        <time>2020-09-27T14:38:02Z</time>
      </trkpt>
      <trkpt lat="40.25485" lon="-7.70389">
        <ele>792.683</ele>
        <time>2020-09-27T14:38:03Z</time>
      </trkpt>
      <trkpt lat="40.25484" lon="-7.70417">
        <ele>793.051</ele>
        <time>2020-09-27T14:38:04Z</time>
      </trkpt>
      <trkpt lat="40.25484" lon="-7.70444">
        <ele>793.331</ele>
        <time>2020-09-27T14:38:05Z</time>
      </trkpt>
      <trkpt lat="40.25487" lon="-7.70469">
        <ele>793.881</ele>
        <time>2020-09-27T14:38:06Z</time>
      </trkpt>
      <trkpt lat="40.25504" lon="-7.70516">
        <ele>794.519</ele>
        <time>2020-09-27T14:38:08Z</time>
      </trkpt>
      <trkpt lat="40.25515" lon="-7.70539">
        <ele>795.115</ele>
        <time>2020-09-27T14:38:09Z</time>
      </trkpt>
      <trkpt lat="40.25529" lon="-7.70561">
        <ele>795.565</ele>
        <time>2020-09-27T14:38:10Z</time>
      </trkpt>
      <trkpt lat="40.25563" lon="-7.70602">
        <ele>795.711</ele>
        <time>2020-09-27T14:38:12Z</time>
      </trkpt>
      <trkpt lat="40.25581" lon="-7.70621">
        <ele>795.808</ele>
        <time>2020-09-27T14:38:13Z</time>
      </trkpt>
      <trkpt lat="40.25602" lon="-7.70638">
        <ele>796.036</ele>
        <time>2020-09-27T14:38:14Z</time>
      </trkpt>
      <trkpt lat="40.25641" lon="-7.7067">
        <ele>796.078</ele>
        <time>2020-09-27T14:38:16Z</time>
      </trkpt>
      <trkpt lat="40.25658" lon="-7.70685">
        <ele>795.916</ele>
        <time>2020-09-27T14:38:17Z</time>
      </trkpt>
      <trkpt lat="40.2569" lon="-7.70704">
        <ele>795.928</ele>
        <time>2020-09-27T14:38:19Z</time>
      </trkpt>
      <trkpt lat="40.25717" lon="-7.70711">
        <ele>795.616</ele>
        <time>2020-09-27T14:38:21Z</time>
      </trkpt>
      <trkpt lat="40.25725" lon="-7.70721">
        <ele>795.646</ele>
        <time>2020-09-27T14:38:22Z</time>
      </trkpt>
      <trkpt lat="40.25729" lon="-7.70735">
        <ele>795.686</ele>
        <time>2020-09-27T14:38:23Z</time>
      </trkpt>
      <trkpt lat="40.25723" lon="-7.70773">
        <ele>795.934</ele>
        <time>2020-09-27T14:38:25Z</time>
      </trkpt>
      <trkpt lat="40.25715" lon="-7.70794">
        <ele>796.176</ele>
        <time>2020-09-27T14:38:26Z</time>
      </trkpt>
      <trkpt lat="40.25703" lon="-7.70815">
        <ele>796.39</ele>
        <time>2020-09-27T14:38:27Z</time>
      </trkpt>
      <trkpt lat="40.25687" lon="-7.70833">
        <ele>796.719</ele>
        <time>2020-09-27T14:38:28Z</time>
      </trkpt>
      <trkpt lat="40.25668" lon="-7.70848">
        <ele>797.408</ele>
        <time>2020-09-27T14:38:29Z</time>
      </trkpt>
      <trkpt lat="40.25623" lon="-7.70871">
        <ele>798.892</ele>
        <time>2020-09-27T14:38:31Z</time>
      </trkpt>
      <trkpt lat="40.25578" lon="-7.70891">
        <ele>799.694</ele>
        <time>2020-09-27T14:38:33Z</time>
      </trkpt>
      <trkpt lat="40.25556" lon="-7.70901">
        <ele>800.112</ele>
        <time>2020-09-27T14:38:34Z</time>
      </trkpt>
      <trkpt lat="40.25534" lon="-7.7091">
        <ele>804.144</ele>
        <time>2020-09-27T14:38:35Z</time>
      </trkpt>
      <trkpt lat="40.25512" lon="-7.7092">
        <ele>808.162</ele>
        <time>2020-09-27T14:38:36Z</time>
      </trkpt>
      <trkpt lat="40.25491" lon="-7.70931">
        <ele>812.142</ele>
        <time>2020-09-27T14:38:37Z</time>
      </trkpt>
      <trkpt lat="40.25458" lon="-7.70956">
        <ele>816.132</ele>
        <time>2020-09-27T14:38:39Z</time>
      </trkpt>
      <trkpt lat="40.25434" lon="-7.70978">
        <ele>817.45</ele>
        <time>2020-09-27T14:38:41Z</time>
      </trkpt>
      <trkpt lat="40.25418" lon="-7.70982">
        <ele>817.659</ele>
        <time>2020-09-27T14:38:42Z</time>
      </trkpt>
      <trkpt lat="40.25399" lon="-7.70982">
        <ele>817.303</ele>
        <time>2020-09-27T14:38:43Z</time>
      </trkpt>
      <trkpt lat="40.25354" lon="-7.70966">
        <ele>816.523</ele>
        <time>2020-09-27T14:38:45Z</time>
      </trkpt>
      <trkpt lat="40.25322" lon="-7.70984">
        <ele>815.908</ele>
        <time>2020-09-27T14:38:47Z</time>
      </trkpt>
      <trkpt lat="40.25307" lon="-7.71026">
        <ele>815.67</ele>
        <time>2020-09-27T14:38:49Z</time>
      </trkpt>
      <trkpt lat="40.25295" lon="-7.71077">
        <ele>815.632</ele>
        <time>2020-09-27T14:38:51Z</time>
      </trkpt>
      <trkpt lat="40.25284" lon="-7.71099">
        <ele>815.72</ele>
        <time>2020-09-27T14:38:52Z</time>
      </trkpt>
      <trkpt lat="40.2527" lon="-7.71116">
        <ele>816.192</ele>
        <time>2020-09-27T14:38:53Z</time>
      </trkpt>
      <trkpt lat="40.25257" lon="-7.71127">
        <ele>816.31</ele>
        <time>2020-09-27T14:38:54Z</time>
      </trkpt>
      <trkpt lat="40.25241" lon="-7.71143">
        <ele>816.66</ele>
        <time>2020-09-27T14:38:56Z</time>
      </trkpt>
      <trkpt lat="40.25225" lon="-7.71138">
        <ele>815.43</ele>
        <time>2020-09-27T14:38:57Z</time>
      </trkpt>
      <trkpt lat="40.25204" lon="-7.71115">
        <ele>815.318</ele>
        <time>2020-09-27T14:38:58Z</time>
      </trkpt>
      <trkpt lat="40.25158" lon="-7.71076">
        <ele>815.738</ele>
        <time>2020-09-27T14:39:00Z</time>
      </trkpt>
      <trkpt lat="40.25111" lon="-7.71049">
        <ele>816.87</ele>
        <time>2020-09-27T14:39:02Z</time>
      </trkpt>
      <trkpt lat="40.25086" lon="-7.71036">
        <ele>817.717</ele>
        <time>2020-09-27T14:39:03Z</time>
      </trkpt>
      <trkpt lat="40.25034" lon="-7.71018">
        <ele>819.008</ele>
        <time>2020-09-27T14:39:05Z</time>
      </trkpt>
      <trkpt lat="40.25006" lon="-7.71011">
        <ele>820.188</ele>
        <time>2020-09-27T14:39:06Z</time>
      </trkpt>
      <trkpt lat="40.24955" lon="-7.70984">
        <ele>821.94</ele>
        <time>2020-09-27T14:39:08Z</time>
      </trkpt>
      <trkpt lat="40.24932" lon="-7.70969">
        <ele>823.468</ele>
        <time>2020-09-27T14:39:09Z</time>
      </trkpt>
      <trkpt lat="40.24909" lon="-7.70957">
        <ele>824.81</ele>
        <time>2020-09-27T14:39:10Z</time>
      </trkpt>
      <trkpt lat="40.24887" lon="-7.70949">
        <ele>825.978</ele>
        <time>2020-09-27T14:39:11Z</time>
      </trkpt>
      <trkpt lat="40.24844" lon="-7.70939">
        <ele>827.058</ele>
        <time>2020-09-27T14:39:13Z</time>
      </trkpt>
      <trkpt lat="40.24797" lon="-7.70938">
        <ele>828.458</ele>
        <time>2020-09-27T14:39:15Z</time>
      </trkpt>
      <trkpt lat="40.24759" lon="-7.70941">
        <ele>829.886</ele>
        <time>2020-09-27T14:39:17Z</time>
      </trkpt>
      <trkpt lat="40.24745" lon="-7.70945">
        <ele>830.878</ele>
        <time>2020-09-27T14:39:18Z</time>
      </trkpt>
      <trkpt lat="40.24735" lon="-7.70954">
        <ele>831.633</ele>
        <time>2020-09-27T14:39:19Z</time>
      </trkpt>
      <trkpt lat="40.24729" lon="-7.70968">
        <ele>832.026</ele>
        <time>2020-09-27T14:39:20Z</time>
      </trkpt>
      <trkpt lat="40.24726" lon="-7.70986">
        <ele>832.208</ele>
        <time>2020-09-27T14:39:21Z</time>
      </trkpt>
      <trkpt lat="40.24727" lon="-7.71007">
        <ele>832.312</ele>
        <time>2020-09-27T14:39:22Z</time>
      </trkpt>
      <trkpt lat="40.24732" lon="-7.7103">
        <ele>832.314</ele>
        <time>2020-09-27T14:39:23Z</time>
      </trkpt>
      <trkpt lat="40.24751" lon="-7.71078">
        <ele>832.872</ele>
        <time>2020-09-27T14:39:25Z</time>
      </trkpt>
      <trkpt lat="40.24764" lon="-7.71102">
        <ele>833.174</ele>
        <time>2020-09-27T14:39:26Z</time>
      </trkpt>
      <trkpt lat="40.24778" lon="-7.71127">
        <ele>833.662</ele>
        <time>2020-09-27T14:39:27Z</time>
      </trkpt>
      <trkpt lat="40.24812" lon="-7.71175">
        <ele>834.772</ele>
        <time>2020-09-27T14:39:29Z</time>
      </trkpt>
      <trkpt lat="40.2483" lon="-7.71199">
        <ele>835.592</ele>
        <time>2020-09-27T14:39:30Z</time>
      </trkpt>
      <trkpt lat="40.24867" lon="-7.71248">
        <ele>836.76</ele>
        <time>2020-09-27T14:39:32Z</time>
      </trkpt>
      <trkpt lat="40.24889" lon="-7.71271">
        <ele>837.626</ele>
        <time>2020-09-27T14:39:33Z</time>
      </trkpt>
      <trkpt lat="40.24911" lon="-7.71292">
        <ele>838.247</ele>
        <time>2020-09-27T14:39:34Z</time>
      </trkpt>
      <trkpt lat="40.24951" lon="-7.7134">
        <ele>838.911</ele>
        <time>2020-09-27T14:39:36Z</time>
      </trkpt>
      <trkpt lat="40.24968" lon="-7.7137">
        <ele>839.608</ele>
        <time>2020-09-27T14:39:37Z</time>
      </trkpt>
      <trkpt lat="40.24997" lon="-7.71431">
        <ele>840.467</ele>
        <time>2020-09-27T14:39:39Z</time>
      </trkpt>
      <trkpt lat="40.25022" lon="-7.71483">
        <ele>840.959</ele>
        <time>2020-09-27T14:39:41Z</time>
      </trkpt>
      <trkpt lat="40.25032" lon="-7.71507">
        <ele>841.197</ele>
        <time>2020-09-27T14:39:42Z</time>
      </trkpt>
      <trkpt lat="40.2504" lon="-7.71529">
        <ele>840.999</ele>
        <time>2020-09-27T14:39:43Z</time>
      </trkpt>
      <trkpt lat="40.25038" lon="-7.71573">
        <ele>841.357</ele>
        <time>2020-09-27T14:39:45Z</time>
      </trkpt>
      <trkpt lat="40.25023" lon="-7.71626">
        <ele>841.747</ele>
        <time>2020-09-27T14:39:47Z</time>
      </trkpt>
      <trkpt lat="40.25015" lon="-7.71655">
        <ele>842.257</ele>
        <time>2020-09-27T14:39:48Z</time>
      </trkpt>
      <trkpt lat="40.25" lon="-7.71715">
        <ele>843.055</ele>
        <time>2020-09-27T14:39:50Z</time>
      </trkpt>
      <trkpt lat="40.24993" lon="-7.71744">
        <ele>843.469</ele>
        <time>2020-09-27T14:39:51Z</time>
      </trkpt>
      <trkpt lat="40.24985" lon="-7.71808">
        <ele>843.704</ele>
        <time>2020-09-27T14:39:53Z</time>
      </trkpt>
      <trkpt lat="40.24982" lon="-7.71842">
        <ele>843.824</ele>
        <time>2020-09-27T14:39:54Z</time>
      </trkpt>
      <trkpt lat="40.24975" lon="-7.71915">
        <ele>843.508</ele>
        <time>2020-09-27T14:39:56Z</time>
      </trkpt>
      <trkpt lat="40.24972" lon="-7.71987">
        <ele>843.371</ele>
        <time>2020-09-27T14:39:58Z</time>
      </trkpt>
      <trkpt lat="40.24971" lon="-7.7202">
        <ele>843.173</ele>
        <time>2020-09-27T14:39:59Z</time>
      </trkpt>
      <trkpt lat="40.24959" lon="-7.72082">
        <ele>843.221</ele>
        <time>2020-09-27T14:40:01Z</time>
      </trkpt>
      <trkpt lat="40.24932" lon="-7.72141">
        <ele>843.483</ele>
        <time>2020-09-27T14:40:03Z</time>
      </trkpt>
      <trkpt lat="40.24903" lon="-7.72201">
        <ele>844.061</ele>
        <time>2020-09-27T14:40:05Z</time>
      </trkpt>
      <trkpt lat="40.24881" lon="-7.7225">
        <ele>845.161</ele>
        <time>2020-09-27T14:40:07Z</time>
      </trkpt>
      <trkpt lat="40.24866" lon="-7.7229">
        <ele>846.511</ele>
        <time>2020-09-27T14:40:09Z</time>
      </trkpt>
      <trkpt lat="40.24858" lon="-7.72325">
        <ele>847.979</ele>
        <time>2020-09-27T14:40:11Z</time>
      </trkpt>
      <trkpt lat="40.24856" lon="-7.7234">
        <ele>848.988</ele>
        <time>2020-09-27T14:40:12Z</time>
      </trkpt>
      <trkpt lat="40.24855" lon="-7.72354">
        <ele>849.724</ele>
        <time>2020-09-27T14:40:13Z</time>
      </trkpt>
      <trkpt lat="40.24854" lon="-7.72378">
        <ele>850.526</ele>
        <time>2020-09-27T14:40:15Z</time>
      </trkpt>
      <trkpt lat="40.24851" lon="-7.72397">
        <ele>851.008</ele>
        <time>2020-09-27T14:40:17Z</time>
      </trkpt>
      <trkpt lat="40.24849" lon="-7.72414">
        <ele>851.213</ele>
        <time>2020-09-27T14:40:19Z</time>
      </trkpt>
      <trkpt lat="40.24846" lon="-7.7243">
        <ele>851.585</ele>
        <time>2020-09-27T14:40:21Z</time>
      </trkpt>
      <trkpt lat="40.24843" lon="-7.72447">
        <ele>851.783</ele>
        <time>2020-09-27T14:40:23Z</time>
      </trkpt>
      <trkpt lat="40.24846" lon="-7.72453">
        <ele>850.535</ele>
        <time>2020-09-27T14:40:24Z</time>
      </trkpt>
      <trkpt lat="40.24856" lon="-7.72452">
        <ele>850.763</ele>
        <time>2020-09-27T14:40:26Z</time>
      </trkpt>
      <trkpt lat="40.24868" lon="-7.72446">
        <ele>850.913</ele>
        <time>2020-09-27T14:40:28Z</time>
      </trkpt>
      <trkpt lat="40.24873" lon="-7.72442">
        <ele>851.183</ele>
        <time>2020-09-27T14:40:29Z</time>
      </trkpt>
      <trkpt lat="40.2488" lon="-7.72438">
        <ele>851.321</ele>
        <time>2020-09-27T14:40:31Z</time>
      </trkpt>
      <trkpt lat="40.24885" lon="-7.7244">
        <ele>851.158</ele>
        <time>2020-09-27T14:40:33Z</time>
      </trkpt>
      <trkpt lat="40.24644" lon="-7.73189">
        <ele>860.752</ele>
        <time>2020-09-27T15:46:43Z</time>
      </trkpt>
      <trkpt lat="40.24636" lon="-7.73203">
        <ele>860.017</ele>
        <time>2020-09-27T15:46:44Z</time>
      </trkpt>
      <trkpt lat="40.24615" lon="-7.73228">
        <ele>858.908</ele>
        <time>2020-09-27T15:46:46Z</time>
      </trkpt>
      <trkpt lat="40.24588" lon="-7.73255">
        <ele>857.58</ele>
        <time>2020-09-27T15:46:48Z</time>
      </trkpt>
      <trkpt lat="40.24561" lon="-7.73285">
        <ele>856.082</ele>
        <time>2020-09-27T15:46:50Z</time>
      </trkpt>
      <trkpt lat="40.24535" lon="-7.73312">
        <ele>854.24</ele>
        <time>2020-09-27T15:46:52Z</time>
      </trkpt>
      <trkpt lat="40.24522" lon="-7.73324">
        <ele>852.792</ele>
        <time>2020-09-27T15:46:53Z</time>
      </trkpt>
      <trkpt lat="40.24495" lon="-7.73341">
        <ele>851.11</ele>
        <time>2020-09-27T15:46:55Z</time>
      </trkpt>
      <trkpt lat="40.2448" lon="-7.73347">
        <ele>849.99</ele>
        <time>2020-09-27T15:46:56Z</time>
      </trkpt>
      <trkpt lat="40.2445" lon="-7.73351">
        <ele>849.29</ele>
        <time>2020-09-27T15:46:58Z</time>
      </trkpt>
      <trkpt lat="40.24418" lon="-7.73351">
        <ele>849.938</ele>
        <time>2020-09-27T15:47:00Z</time>
      </trkpt>
      <trkpt lat="40.244" lon="-7.7335">
        <ele>849.173</ele>
        <time>2020-09-27T15:47:01Z</time>
      </trkpt>
      <trkpt lat="40.24364" lon="-7.73347">
        <ele>847.485</ele>
        <time>2020-09-27T15:47:03Z</time>
      </trkpt>
      <trkpt lat="40.2433" lon="-7.73353">
        <ele>845.013</ele>
        <time>2020-09-27T15:47:05Z</time>
      </trkpt>
      <trkpt lat="40.24304" lon="-7.73388">
        <ele>846.508</ele>
        <time>2020-09-27T15:47:07Z</time>
      </trkpt>
      <trkpt lat="40.24287" lon="-7.73441">
        <ele>844.252</ele>
        <time>2020-09-27T15:47:09Z</time>
      </trkpt>
      <trkpt lat="40.2428" lon="-7.73469">
        <ele>841.174</ele>
        <time>2020-09-27T15:47:10Z</time>
      </trkpt>
      <trkpt lat="40.24271" lon="-7.73526">
        <ele>837.912</ele>
        <time>2020-09-27T15:47:12Z</time>
      </trkpt>
      <trkpt lat="40.24265" lon="-7.73582">
        <ele>835.574</ele>
        <time>2020-09-27T15:47:14Z</time>
      </trkpt>
      <trkpt lat="40.24256" lon="-7.73618">
        <ele>833.212</ele>
        <time>2020-09-27T15:47:16Z</time>
      </trkpt>
      <trkpt lat="40.24234" lon="-7.73639">
        <ele>831.072</ele>
        <time>2020-09-27T15:47:18Z</time>
      </trkpt>
      <trkpt lat="40.24204" lon="-7.73646">
        <ele>829.532</ele>
        <time>2020-09-27T15:47:20Z</time>
      </trkpt>
      <trkpt lat="40.2417" lon="-7.73645">
        <ele>827.91</ele>
        <time>2020-09-27T15:47:22Z</time>
      </trkpt>
      <trkpt lat="40.24154" lon="-7.73648">
        <ele>826.512</ele>
        <time>2020-09-27T15:47:23Z</time>
      </trkpt>
      <trkpt lat="40.2414" lon="-7.73656">
        <ele>825.132</ele>
        <time>2020-09-27T15:47:24Z</time>
      </trkpt>
      <trkpt lat="40.24128" lon="-7.73671">
        <ele>824.005</ele>
        <time>2020-09-27T15:47:25Z</time>
      </trkpt>
      <trkpt lat="40.24121" lon="-7.73717">
        <ele>822.508</ele>
        <time>2020-09-27T15:47:27Z</time>
      </trkpt>
      <trkpt lat="40.24124" lon="-7.73771">
        <ele>820.336</ele>
        <time>2020-09-27T15:47:29Z</time>
      </trkpt>
      <trkpt lat="40.24126" lon="-7.738">
        <ele>818.518</ele>
        <time>2020-09-27T15:47:30Z</time>
      </trkpt>
      <trkpt lat="40.24126" lon="-7.73828">
        <ele>816.976</ele>
        <time>2020-09-27T15:47:31Z</time>
      </trkpt>
      <trkpt lat="40.24119" lon="-7.73882">
        <ele>814.818</ele>
        <time>2020-09-27T15:47:33Z</time>
      </trkpt>
      <trkpt lat="40.24101" lon="-7.73938">
        <ele>812.266</ele>
        <time>2020-09-27T15:47:35Z</time>
      </trkpt>
      <trkpt lat="40.24081" lon="-7.73995">
        <ele>809.676</ele>
        <time>2020-09-27T15:47:37Z</time>
      </trkpt>
      <trkpt lat="40.24072" lon="-7.74022">
        <ele>807.536</ele>
        <time>2020-09-27T15:47:38Z</time>
      </trkpt>
      <trkpt lat="40.24052" lon="-7.74072">
        <ele>805.024</ele>
        <time>2020-09-27T15:47:40Z</time>
      </trkpt>
      <trkpt lat="40.24039" lon="-7.74092">
        <ele>803.281</ele>
        <time>2020-09-27T15:47:41Z</time>
      </trkpt>
      <trkpt lat="40.24014" lon="-7.74127">
        <ele>800.861</ele>
        <time>2020-09-27T15:47:43Z</time>
      </trkpt>
      <trkpt lat="40.24006" lon="-7.74148">
        <ele>798.717</ele>
        <time>2020-09-27T15:47:44Z</time>
      </trkpt>
      <trkpt lat="40.24003" lon="-7.74171">
        <ele>797.108</ele>
        <time>2020-09-27T15:47:45Z</time>
      </trkpt>
      <trkpt lat="40.24005" lon="-7.74195">
        <ele>795.723</ele>
        <time>2020-09-27T15:47:46Z</time>
      </trkpt>
      <trkpt lat="40.24001" lon="-7.7424">
        <ele>793.935</ele>
        <time>2020-09-27T15:47:48Z</time>
      </trkpt>
      <trkpt lat="40.23978" lon="-7.74278">
        <ele>792.033</ele>
        <time>2020-09-27T15:47:50Z</time>
      </trkpt>
      <trkpt lat="40.23962" lon="-7.74292">
        <ele>790.325</ele>
        <time>2020-09-27T15:47:51Z</time>
      </trkpt>
      <trkpt lat="40.23936" lon="-7.74322">
        <ele>788.433</ele>
        <time>2020-09-27T15:47:53Z</time>
      </trkpt>
      <trkpt lat="40.23934" lon="-7.7436">
        <ele>786.543</ele>
        <time>2020-09-27T15:47:55Z</time>
      </trkpt>
      <trkpt lat="40.23955" lon="-7.74394">
        <ele>784.743</ele>
        <time>2020-09-27T15:47:57Z</time>
      </trkpt>
      <trkpt lat="40.23973" lon="-7.74406">
        <ele>783.291</ele>
        <time>2020-09-27T15:47:58Z</time>
      </trkpt>
      <trkpt lat="40.23992" lon="-7.74417">
        <ele>781.886</ele>
        <time>2020-09-27T15:47:59Z</time>
      </trkpt>
      <trkpt lat="40.24012" lon="-7.74429">
        <ele>780.56</ele>
        <time>2020-09-27T15:48:00Z</time>
      </trkpt>
      <trkpt lat="40.24052" lon="-7.74452">
        <ele>778.626</ele>
        <time>2020-09-27T15:48:02Z</time>
      </trkpt>
      <trkpt lat="40.24088" lon="-7.74474">
        <ele>776.608</ele>
        <time>2020-09-27T15:48:04Z</time>
      </trkpt>
      <trkpt lat="40.24116" lon="-7.74501">
        <ele>774.343</ele>
        <time>2020-09-27T15:48:06Z</time>
      </trkpt>
      <trkpt lat="40.24126" lon="-7.74519">
        <ele>772.725</ele>
        <time>2020-09-27T15:48:07Z</time>
      </trkpt>
      <trkpt lat="40.24132" lon="-7.74538">
        <ele>771.683</ele>
        <time>2020-09-27T15:48:08Z</time>
      </trkpt>
      <trkpt lat="40.24137" lon="-7.74581">
        <ele>770.475</ele>
        <time>2020-09-27T15:48:10Z</time>
      </trkpt>
      <trkpt lat="40.24128" lon="-7.74612">
        <ele>768.943</ele>
        <time>2020-09-27T15:48:11Z</time>
      </trkpt>
      <trkpt lat="40.2411" lon="-7.74677">
        <ele>766.523</ele>
        <time>2020-09-27T15:48:13Z</time>
      </trkpt>
      <trkpt lat="40.24104" lon="-7.74707">
        <ele>764.983</ele>
        <time>2020-09-27T15:48:14Z</time>
      </trkpt>
      <trkpt lat="40.24091" lon="-7.74761">
        <ele>762.691</ele>
        <time>2020-09-27T15:48:16Z</time>
      </trkpt>
      <trkpt lat="40.24081" lon="-7.74787">
        <ele>760.833</ele>
        <time>2020-09-27T15:48:17Z</time>
      </trkpt>
      <trkpt lat="40.24055" lon="-7.74837">
        <ele>758.423</ele>
        <time>2020-09-27T15:48:19Z</time>
      </trkpt>
      <trkpt lat="40.24028" lon="-7.74889">
        <ele>755.415</ele>
        <time>2020-09-27T15:48:21Z</time>
      </trkpt>
      <trkpt lat="40.24016" lon="-7.74916">
        <ele>753.108</ele>
        <time>2020-09-27T15:48:22Z</time>
      </trkpt>
      <trkpt lat="40.23992" lon="-7.74966">
        <ele>750.448</ele>
        <time>2020-09-27T15:48:24Z</time>
      </trkpt>
      <trkpt lat="40.23981" lon="-7.74991">
        <ele>748.24</ele>
        <time>2020-09-27T15:48:25Z</time>
      </trkpt>
      <trkpt lat="40.23959" lon="-7.75037">
        <ele>745.728</ele>
        <time>2020-09-27T15:48:27Z</time>
      </trkpt>
      <trkpt lat="40.23944" lon="-7.75078">
        <ele>743.29</ele>
        <time>2020-09-27T15:48:29Z</time>
      </trkpt>
      <trkpt lat="40.23943" lon="-7.75099">
        <ele>741.028</ele>
        <time>2020-09-27T15:48:30Z</time>
      </trkpt>
      <trkpt lat="40.23949" lon="-7.75119">
        <ele>739.388</ele>
        <time>2020-09-27T15:48:31Z</time>
      </trkpt>
      <trkpt lat="40.2396" lon="-7.75137">
        <ele>738.158</ele>
        <time>2020-09-27T15:48:32Z</time>
      </trkpt>
      <trkpt lat="40.23986" lon="-7.75171">
        <ele>736.726</ele>
        <time>2020-09-27T15:48:34Z</time>
      </trkpt>
      <trkpt lat="40.23994" lon="-7.7519">
        <ele>735.263</ele>
        <time>2020-09-27T15:48:35Z</time>
      </trkpt>
      <trkpt lat="40.23997" lon="-7.75212">
        <ele>733.744</ele>
        <time>2020-09-27T15:48:36Z</time>
      </trkpt>
      <trkpt lat="40.23992" lon="-7.75263">
        <ele>731.518</ele>
        <time>2020-09-27T15:48:38Z</time>
      </trkpt>
      <trkpt lat="40.23988" lon="-7.75289">
        <ele>729.708</ele>
        <time>2020-09-27T15:48:39Z</time>
      </trkpt>
      <trkpt lat="40.23998" lon="-7.7534">
        <ele>727.711</ele>
        <time>2020-09-27T15:48:41Z</time>
      </trkpt>
      <trkpt lat="40.24008" lon="-7.75363">
        <ele>725.923</ele>
        <time>2020-09-27T15:48:42Z</time>
      </trkpt>
      <trkpt lat="40.24028" lon="-7.75408">
        <ele>724.171</ele>
        <time>2020-09-27T15:48:44Z</time>
      </trkpt>
      <trkpt lat="40.24049" lon="-7.75434">
        <ele>722.653</ele>
        <time>2020-09-27T15:48:46Z</time>
      </trkpt>
      <trkpt lat="40.24063" lon="-7.75436">
        <ele>720.791</ele>
        <time>2020-09-27T15:48:47Z</time>
      </trkpt>
      <trkpt lat="40.24079" lon="-7.7543">
        <ele>719.411</ele>
        <time>2020-09-27T15:48:48Z</time>
      </trkpt>
      <trkpt lat="40.24103" lon="-7.75397">
        <ele>717.821</ele>
        <time>2020-09-27T15:48:50Z</time>
      </trkpt>
      <trkpt lat="40.2411" lon="-7.75373">
        <ele>716.639</ele>
        <time>2020-09-27T15:48:51Z</time>
      </trkpt>
      <trkpt lat="40.24121" lon="-7.75319">
        <ele>715.496</ele>
        <time>2020-09-27T15:48:53Z</time>
      </trkpt>
      <trkpt lat="40.24141" lon="-7.75268">
        <ele>714.431</ele>
        <time>2020-09-27T15:48:55Z</time>
      </trkpt>
      <trkpt lat="40.24155" lon="-7.75244">
        <ele>713.724</ele>
        <time>2020-09-27T15:48:56Z</time>
      </trkpt>
      <trkpt lat="40.2417" lon="-7.75219">
        <ele>713.108</ele>
        <time>2020-09-27T15:48:57Z</time>
      </trkpt>
      <trkpt lat="40.24201" lon="-7.75168">
        <ele>712.264</ele>
        <time>2020-09-27T15:48:59Z</time>
      </trkpt>
      <trkpt lat="40.24215" lon="-7.75143">
        <ele>711.566</ele>
        <time>2020-09-27T15:49:00Z</time>
      </trkpt>
      <trkpt lat="40.24228" lon="-7.75119">
        <ele>711.044</ele>
        <time>2020-09-27T15:49:01Z</time>
      </trkpt>
      <trkpt lat="40.2424" lon="-7.75097">
        <ele>710.956</ele>
        <time>2020-09-27T15:49:02Z</time>
      </trkpt>
      <trkpt lat="40.2427" lon="-7.75062">
        <ele>710.584</ele>
        <time>2020-09-27T15:49:04Z</time>
      </trkpt>
      <trkpt lat="40.2431" lon="-7.75038">
        <ele>709.694</ele>
        <time>2020-09-27T15:49:06Z</time>
      </trkpt>
      <trkpt lat="40.24331" lon="-7.75025">
        <ele>708.764</ele>
        <time>2020-09-27T15:49:07Z</time>
      </trkpt>
      <trkpt lat="40.24366" lon="-7.74991">
        <ele>707.752</ele>
        <time>2020-09-27T15:49:09Z</time>
      </trkpt>
      <trkpt lat="40.24398" lon="-7.74963">
        <ele>706.717</ele>
        <time>2020-09-27T15:49:11Z</time>
      </trkpt>
      <trkpt lat="40.24414" lon="-7.7496">
        <ele>706.187</ele>
        <time>2020-09-27T15:49:12Z</time>
      </trkpt>
      <trkpt lat="40.24443" lon="-7.74978">
        <ele>705.715</ele>
        <time>2020-09-27T15:49:14Z</time>
      </trkpt>
      <trkpt lat="40.24468" lon="-7.75008">
        <ele>704.508</ele>
        <time>2020-09-27T15:49:16Z</time>
      </trkpt>
      <trkpt lat="40.24482" lon="-7.75015">
        <ele>703.666</ele>
        <time>2020-09-27T15:49:17Z</time>
      </trkpt>
      <trkpt lat="40.24509" lon="-7.75001">
        <ele>702.948</ele>
        <time>2020-09-27T15:49:19Z</time>
      </trkpt>
      <trkpt lat="40.2452" lon="-7.74986">
        <ele>701.996</ele>
        <time>2020-09-27T15:49:20Z</time>
      </trkpt>
      <trkpt lat="40.24525" lon="-7.74942">
        <ele>701.198</ele>
        <time>2020-09-27T15:49:22Z</time>
      </trkpt>
      <trkpt lat="40.24516" lon="-7.74892">
        <ele>700.366</ele>
        <time>2020-09-27T15:49:24Z</time>
      </trkpt>
      <trkpt lat="40.24515" lon="-7.74835">
        <ele>699.386</ele>
        <time>2020-09-27T15:49:26Z</time>
      </trkpt>
      <trkpt lat="40.2453" lon="-7.74777">
        <ele>698.386</ele>
        <time>2020-09-27T15:49:28Z</time>
      </trkpt>
      <trkpt lat="40.24552" lon="-7.7472">
        <ele>697.344</ele>
        <time>2020-09-27T15:49:30Z</time>
      </trkpt>
      <trkpt lat="40.2457" lon="-7.7467">
        <ele>696.366</ele>
        <time>2020-09-27T15:49:32Z</time>
      </trkpt>
      <trkpt lat="40.24581" lon="-7.74652">
        <ele>695.629</ele>
        <time>2020-09-27T15:49:33Z</time>
      </trkpt>
      <trkpt lat="40.24612" lon="-7.7463">
        <ele>695.121</ele>
        <time>2020-09-27T15:49:35Z</time>
      </trkpt>
      <trkpt lat="40.24651" lon="-7.7462">
        <ele>694.108</ele>
        <time>2020-09-27T15:49:37Z</time>
      </trkpt>
      <trkpt lat="40.24686" lon="-7.74612">
        <ele>693.021</ele>
        <time>2020-09-27T15:49:39Z</time>
      </trkpt>
      <trkpt lat="40.247" lon="-7.74603">
        <ele>692.353</ele>
        <time>2020-09-27T15:49:40Z</time>
      </trkpt>
      <trkpt lat="40.24714" lon="-7.7457">
        <ele>691.571</ele>
        <time>2020-09-27T15:49:42Z</time>
      </trkpt>
      <trkpt lat="40.24716" lon="-7.74547">
        <ele>690.923</ele>
        <time>2020-09-27T15:49:43Z</time>
      </trkpt>
      <trkpt lat="40.24719" lon="-7.74499">
        <ele>690.181</ele>
        <time>2020-09-27T15:49:45Z</time>
      </trkpt>
      <trkpt lat="40.24736" lon="-7.74449">
        <ele>689.421</ele>
        <time>2020-09-27T15:49:47Z</time>
      </trkpt>
      <trkpt lat="40.24755" lon="-7.74401">
        <ele>688.691</ele>
        <time>2020-09-27T15:49:49Z</time>
      </trkpt>
      <trkpt lat="40.2476" lon="-7.74377">
        <ele>687.929</ele>
        <time>2020-09-27T15:49:50Z</time>
      </trkpt>
      <trkpt lat="40.24775" lon="-7.74337">
        <ele>687.376</ele>
        <time>2020-09-27T15:49:52Z</time>
      </trkpt>
      <trkpt lat="40.24804" lon="-7.74311">
        <ele>686.89</ele>
        <time>2020-09-27T15:49:54Z</time>
      </trkpt>
      <trkpt lat="40.24843" lon="-7.74296">
        <ele>686.019</ele>
        <time>2020-09-27T15:49:56Z</time>
      </trkpt>
      <trkpt lat="40.24886" lon="-7.74282">
        <ele>684.908</ele>
        <time>2020-09-27T15:49:58Z</time>
      </trkpt>
      <trkpt lat="40.24908" lon="-7.74275">
        <ele>684.132</ele>
        <time>2020-09-27T15:49:59Z</time>
      </trkpt>
      <trkpt lat="40.24955" lon="-7.74266">
        <ele>683.264</ele>
        <time>2020-09-27T15:50:01Z</time>
      </trkpt>
      <trkpt lat="40.25003" lon="-7.74266">
        <ele>682.212</ele>
        <time>2020-09-27T15:50:03Z</time>
      </trkpt>
      <trkpt lat="40.25043" lon="-7.74266">
        <ele>680.784</ele>
        <time>2020-09-27T15:50:05Z</time>
      </trkpt>
      <trkpt lat="40.2506" lon="-7.74268">
        <ele>679.482</ele>
        <time>2020-09-27T15:50:06Z</time>
      </trkpt>
      <trkpt lat="40.25075" lon="-7.74276">
        <ele>678.272</ele>
        <time>2020-09-27T15:50:07Z</time>
      </trkpt>
      <trkpt lat="40.25088" lon="-7.74287">
        <ele>677.242</ele>
        <time>2020-09-27T15:50:08Z</time>
      </trkpt>
      <trkpt lat="40.25098" lon="-7.74301">
        <ele>676.44</ele>
        <time>2020-09-27T15:50:09Z</time>
      </trkpt>
      <trkpt lat="40.25109" lon="-7.74339">
        <ele>675.283</ele>
        <time>2020-09-27T15:50:11Z</time>
      </trkpt>
      <trkpt lat="40.25116" lon="-7.74383">
        <ele>674.125</ele>
        <time>2020-09-27T15:50:13Z</time>
      </trkpt>
      <trkpt lat="40.25142" lon="-7.74405">
        <ele>672.517</ele>
        <time>2020-09-27T15:50:15Z</time>
      </trkpt>
      <trkpt lat="40.25157" lon="-7.74405">
        <ele>671.408</ele>
        <time>2020-09-27T15:50:16Z</time>
      </trkpt>
      <trkpt lat="40.25184" lon="-7.74382">
        <ele>670.163</ele>
        <time>2020-09-27T15:50:18Z</time>
      </trkpt>
      <trkpt lat="40.25197" lon="-7.74363">
        <ele>668.885</ele>
        <time>2020-09-27T15:50:19Z</time>
      </trkpt>
      <trkpt lat="40.25213" lon="-7.74344">
        <ele>667.563</ele>
        <time>2020-09-27T15:50:20Z</time>
      </trkpt>
      <trkpt lat="40.25232" lon="-7.74328">
        <ele>666.565</ele>
        <time>2020-09-27T15:50:21Z</time>
      </trkpt>
      <trkpt lat="40.25252" lon="-7.74315">
        <ele>665.443</ele>
        <time>2020-09-27T15:50:22Z</time>
      </trkpt>
      <trkpt lat="40.25288" lon="-7.74284">
        <ele>664.283</ele>
        <time>2020-09-27T15:50:24Z</time>
      </trkpt>
      <trkpt lat="40.25302" lon="-7.74266">
        <ele>663.553</ele>
        <time>2020-09-27T15:50:25Z</time>
      </trkpt>
      <trkpt lat="40.25315" lon="-7.74248">
        <ele>662.951</ele>
        <time>2020-09-27T15:50:26Z</time>
      </trkpt>
      <trkpt lat="40.25329" lon="-7.74233">
        <ele>662.386</ele>
        <time>2020-09-27T15:50:27Z</time>
      </trkpt>
      <trkpt lat="40.25345" lon="-7.74221">
        <ele>661.66</ele>
        <time>2020-09-27T15:50:28Z</time>
      </trkpt>
      <trkpt lat="40.25362" lon="-7.74212">
        <ele>660.926</ele>
        <time>2020-09-27T15:50:29Z</time>
      </trkpt>
      <trkpt lat="40.25381" lon="-7.74207">
        <ele>660.208</ele>
        <time>2020-09-27T15:50:30Z</time>
      </trkpt>
      <trkpt lat="40.25421" lon="-7.74209">
        <ele>659.263</ele>
        <time>2020-09-27T15:50:32Z</time>
      </trkpt>
      <trkpt lat="40.25441" lon="-7.74216">
        <ele>658.435</ele>
        <time>2020-09-27T15:50:33Z</time>
      </trkpt>
      <trkpt lat="40.25461" lon="-7.74226">
        <ele>657.883</ele>
        <time>2020-09-27T15:50:34Z</time>
      </trkpt>
      <trkpt lat="40.25481" lon="-7.74241">
        <ele>657.335</ele>
        <time>2020-09-27T15:50:35Z</time>
      </trkpt>
      <trkpt lat="40.25498" lon="-7.74261">
        <ele>656.843</ele>
        <time>2020-09-27T15:50:36Z</time>
      </trkpt>
      <trkpt lat="40.25526" lon="-7.74311">
        <ele>656.363</ele>
        <time>2020-09-27T15:50:38Z</time>
      </trkpt>
      <trkpt lat="40.2554" lon="-7.74332">
        <ele>655.953</ele>
        <time>2020-09-27T15:50:39Z</time>
      </trkpt>
      <trkpt lat="40.25554" lon="-7.7435">
        <ele>655.721</ele>
        <time>2020-09-27T15:50:40Z</time>
      </trkpt>
      <trkpt lat="40.25583" lon="-7.74375">
        <ele>655.538</ele>
        <time>2020-09-27T15:50:42Z</time>
      </trkpt>
      <trkpt lat="40.25616" lon="-7.74377">
        <ele>655.57</ele>
        <time>2020-09-27T15:50:44Z</time>
      </trkpt>
      <trkpt lat="40.25632" lon="-7.74366">
        <ele>655.517</ele>
        <time>2020-09-27T15:50:45Z</time>
      </trkpt>
      <trkpt lat="40.25657" lon="-7.74327">
        <ele>659.508</ele>
        <time>2020-09-27T15:50:47Z</time>
      </trkpt>
      <trkpt lat="40.25673" lon="-7.7428">
        <ele>663.568</ele>
        <time>2020-09-27T15:50:49Z</time>
      </trkpt>
      <trkpt lat="40.25692" lon="-7.74237">
        <ele>666.43</ele>
        <time>2020-09-27T15:50:51Z</time>
      </trkpt>
      <trkpt lat="40.2572" lon="-7.74204">
        <ele>667.558</ele>
        <time>2020-09-27T15:50:53Z</time>
      </trkpt>
      <trkpt lat="40.25738" lon="-7.74192">
        <ele>668.06</ele>
        <time>2020-09-27T15:50:54Z</time>
      </trkpt>
      <trkpt lat="40.25758" lon="-7.74185">
        <ele>668.248</ele>
        <time>2020-09-27T15:50:55Z</time>
      </trkpt>
      <trkpt lat="40.25802" lon="-7.74184">
        <ele>668.268</ele>
        <time>2020-09-27T15:50:57Z</time>
      </trkpt>
      <trkpt lat="40.25825" lon="-7.74191">
        <ele>668.278</ele>
        <time>2020-09-27T15:50:58Z</time>
      </trkpt>
      <trkpt lat="40.25849" lon="-7.74201">
        <ele>668.366</ele>
        <time>2020-09-27T15:50:59Z</time>
      </trkpt>
      <trkpt lat="40.25891" lon="-7.74224">
        <ele>668.613</ele>
        <time>2020-09-27T15:51:01Z</time>
      </trkpt>
      <trkpt lat="40.25928" lon="-7.74258">
        <ele>669.143</ele>
        <time>2020-09-27T15:51:03Z</time>
      </trkpt>
      <trkpt lat="40.25943" lon="-7.74281">
        <ele>669.907</ele>
        <time>2020-09-27T15:51:04Z</time>
      </trkpt>
      <trkpt lat="40.25954" lon="-7.74309">
        <ele>670.708</ele>
        <time>2020-09-27T15:51:05Z</time>
      </trkpt>
      <trkpt lat="40.25969" lon="-7.74367">
        <ele>671.916</ele>
        <time>2020-09-27T15:51:07Z</time>
      </trkpt>
      <trkpt lat="40.25985" lon="-7.74416">
        <ele>673.248</ele>
        <time>2020-09-27T15:51:09Z</time>
      </trkpt>
      <trkpt lat="40.25997" lon="-7.74434">
        <ele>674.386</ele>
        <time>2020-09-27T15:51:10Z</time>
      </trkpt>
      <trkpt lat="40.26028" lon="-7.74455">
        <ele>675.478</ele>
        <time>2020-09-27T15:51:12Z</time>
      </trkpt>
      <trkpt lat="40.26046" lon="-7.74458">
        <ele>676.356</ele>
        <time>2020-09-27T15:51:13Z</time>
      </trkpt>
      <trkpt lat="40.26064" lon="-7.74458">
        <ele>677.156</ele>
        <time>2020-09-27T15:51:14Z</time>
      </trkpt>
      <trkpt lat="40.26082" lon="-7.7446">
        <ele>677.866</ele>
        <time>2020-09-27T15:51:15Z</time>
      </trkpt>
      <trkpt lat="40.2612" lon="-7.74472">
        <ele>678.444</ele>
        <time>2020-09-27T15:51:17Z</time>
      </trkpt>
      <trkpt lat="40.26139" lon="-7.74486">
        <ele>678.991</ele>
        <time>2020-09-27T15:51:18Z</time>
      </trkpt>
      <trkpt lat="40.26171" lon="-7.74526">
        <ele>679.781</ele>
        <time>2020-09-27T15:51:20Z</time>
      </trkpt>
      <trkpt lat="40.26183" lon="-7.74554">
        <ele>680.419</ele>
        <time>2020-09-27T15:51:21Z</time>
      </trkpt>
      <trkpt lat="40.26203" lon="-7.74602">
        <ele>681.208</ele>
        <time>2020-09-27T15:51:23Z</time>
      </trkpt>
      <trkpt lat="40.26235" lon="-7.74632">
        <ele>682.464</ele>
        <time>2020-09-27T15:51:25Z</time>
      </trkpt>
      <trkpt lat="40.26254" lon="-7.74638">
        <ele>683.616</ele>
        <time>2020-09-27T15:51:26Z</time>
      </trkpt>
      <trkpt lat="40.26299" lon="-7.74637">
        <ele>684.754</ele>
        <time>2020-09-27T15:51:28Z</time>
      </trkpt>
      <trkpt lat="40.26346" lon="-7.74632">
        <ele>686.056</ele>
        <time>2020-09-27T15:51:30Z</time>
      </trkpt>
      <trkpt lat="40.26371" lon="-7.7463">
        <ele>687.124</ele>
        <time>2020-09-27T15:51:31Z</time>
      </trkpt>
      <trkpt lat="40.26396" lon="-7.74629">
        <ele>688.174</ele>
        <time>2020-09-27T15:51:32Z</time>
      </trkpt>
      <trkpt lat="40.26444" lon="-7.74622">
        <ele>689.314</ele>
        <time>2020-09-27T15:51:34Z</time>
      </trkpt>
      <trkpt lat="40.26465" lon="-7.74615">
        <ele>690.372</ele>
        <time>2020-09-27T15:51:35Z</time>
      </trkpt>
      <trkpt lat="40.26486" lon="-7.74603">
        <ele>691.059</ele>
        <time>2020-09-27T15:51:36Z</time>
      </trkpt>
      <trkpt lat="40.26522" lon="-7.74563">
        <ele>692.003</ele>
        <time>2020-09-27T15:51:38Z</time>
      </trkpt>
      <trkpt lat="40.26548" lon="-7.74507">
        <ele>693.423</ele>
        <time>2020-09-27T15:51:40Z</time>
      </trkpt>
      <trkpt lat="40.2656" lon="-7.74443">
        <ele>695.008</ele>
        <time>2020-09-27T15:51:42Z</time>
      </trkpt>
      <trkpt lat="40.26556" lon="-7.74375">
        <ele>697.15</ele>
        <time>2020-09-27T15:51:44Z</time>
      </trkpt>
      <trkpt lat="40.26553" lon="-7.74343">
        <ele>698.932</ele>
        <time>2020-09-27T15:51:45Z</time>
      </trkpt>
      <trkpt lat="40.26551" lon="-7.74312">
        <ele>700.45</ele>
        <time>2020-09-27T15:51:46Z</time>
      </trkpt>
      <trkpt lat="40.26557" lon="-7.74255">
        <ele>702.242</ele>
        <time>2020-09-27T15:51:48Z</time>
      </trkpt>
      <trkpt lat="40.26579" lon="-7.74206">
        <ele>704.34</ele>
        <time>2020-09-27T15:51:50Z</time>
      </trkpt>
      <trkpt lat="40.26596" lon="-7.74184">
        <ele>706.01</ele>
        <time>2020-09-27T15:51:51Z</time>
      </trkpt>
      <trkpt lat="40.2663" lon="-7.74144">
        <ele>707.73</ele>
        <time>2020-09-27T15:51:53Z</time>
      </trkpt>
      <trkpt lat="40.26643" lon="-7.74121">
        <ele>709.228</ele>
        <time>2020-09-27T15:51:54Z</time>
      </trkpt>
      <trkpt lat="40.2666" lon="-7.74069">
        <ele>710.881</ele>
        <time>2020-09-27T15:51:56Z</time>
      </trkpt>
      <trkpt lat="40.26669" lon="-7.74014">
        <ele>712.361</ele>
        <time>2020-09-27T15:51:58Z</time>
      </trkpt>
      <trkpt lat="40.26686" lon="-7.73964">
        <ele>714.017</ele>
        <time>2020-09-27T15:52:00Z</time>
      </trkpt>
      <trkpt lat="40.26716" lon="-7.73923">
        <ele>715.008</ele>
        <time>2020-09-27T15:52:02Z</time>
      </trkpt>
      <trkpt lat="40.26736" lon="-7.73908">
        <ele>715.973</ele>
        <time>2020-09-27T15:52:03Z</time>
      </trkpt>
      <trkpt lat="40.26759" lon="-7.739">
        <ele>716.355</ele>
        <time>2020-09-27T15:52:04Z</time>
      </trkpt>
      <trkpt lat="40.26809" lon="-7.73899">
        <ele>715.573</ele>
        <time>2020-09-27T15:52:06Z</time>
      </trkpt>
      <trkpt lat="40.26858" lon="-7.73916">
        <ele>714.175</ele>
        <time>2020-09-27T15:52:08Z</time>
      </trkpt>
      <trkpt lat="40.26901" lon="-7.73919">
        <ele>712.653</ele>
        <time>2020-09-27T15:52:10Z</time>
      </trkpt>
      <trkpt lat="40.26942" lon="-7.73899">
        <ele>710.763</ele>
        <time>2020-09-27T15:52:12Z</time>
      </trkpt>
      <trkpt lat="40.26963" lon="-7.73889">
        <ele>708.913</ele>
        <time>2020-09-27T15:52:13Z</time>
      </trkpt>
      <trkpt lat="40.2701" lon="-7.73879">
        <ele>706.971</ele>
        <time>2020-09-27T15:52:15Z</time>
      </trkpt>
      <trkpt lat="40.27037" lon="-7.7388">
        <ele>705.266</ele>
        <time>2020-09-27T15:52:16Z</time>
      </trkpt>
      <trkpt lat="40.27093" lon="-7.73882">
        <ele>702.829</ele>
        <time>2020-09-27T15:52:18Z</time>
      </trkpt>
      <trkpt lat="40.27151" lon="-7.73883">
        <ele>700.621</ele>
        <time>2020-09-27T15:52:20Z</time>
      </trkpt>
      <trkpt lat="40.27206" lon="-7.73883">
        <ele>698.008</ele>
        <time>2020-09-27T15:52:22Z</time>
      </trkpt>
      <trkpt lat="40.27232" lon="-7.73884">
        <ele>695.851</ele>
        <time>2020-09-27T15:52:23Z</time>
      </trkpt>
      <trkpt lat="40.27285" lon="-7.73879">
        <ele>693.143</ele>
        <time>2020-09-27T15:52:25Z</time>
      </trkpt>
      <trkpt lat="40.27311" lon="-7.73869">
        <ele>690.951</ele>
        <time>2020-09-27T15:52:26Z</time>
      </trkpt>
      <trkpt lat="40.2736" lon="-7.73839">
        <ele>688.543</ele>
        <time>2020-09-27T15:52:28Z</time>
      </trkpt>
      <trkpt lat="40.27383" lon="-7.73823">
        <ele>686.661</ele>
        <time>2020-09-27T15:52:29Z</time>
      </trkpt>
      <trkpt lat="40.27432" lon="-7.73808">
        <ele>684.581</ele>
        <time>2020-09-27T15:52:31Z</time>
      </trkpt>
      <trkpt lat="40.27482" lon="-7.73818">
        <ele>682.621</ele>
        <time>2020-09-27T15:52:33Z</time>
      </trkpt>
      <trkpt lat="40.27505" lon="-7.7383">
        <ele>681.239</ele>
        <time>2020-09-27T15:52:34Z</time>
      </trkpt>
      <trkpt lat="40.27543" lon="-7.73863">
        <ele>680.345</ele>
        <time>2020-09-27T15:52:36Z</time>
      </trkpt>
      <trkpt lat="40.27555" lon="-7.73886">
        <ele>679.147</ele>
        <time>2020-09-27T15:52:37Z</time>
      </trkpt>
      <trkpt lat="40.27553" lon="-7.73924">
        <ele>677.811</ele>
        <time>2020-09-27T15:52:38Z</time>
      </trkpt>
      <trkpt lat="40.27533" lon="-7.74002">
        <ele>675.808</ele>
        <time>2020-09-27T15:52:40Z</time>
      </trkpt>
      <trkpt lat="40.27519" lon="-7.74036">
        <ele>674.069</ele>
        <time>2020-09-27T15:52:41Z</time>
      </trkpt>
      <trkpt lat="40.2749" lon="-7.74096">
        <ele>671.421</ele>
        <time>2020-09-27T15:52:43Z</time>
      </trkpt>
      <trkpt lat="40.27479" lon="-7.74155">
        <ele>668.899</ele>
        <time>2020-09-27T15:52:45Z</time>
      </trkpt>
      <trkpt lat="40.27491" lon="-7.74209">
        <ele>666.221</ele>
        <time>2020-09-27T15:52:47Z</time>
      </trkpt>
      <trkpt lat="40.27517" lon="-7.74251">
        <ele>663.779</ele>
        <time>2020-09-27T15:52:49Z</time>
      </trkpt>
      <trkpt lat="40.27558" lon="-7.74268">
        <ele>661.239</ele>
        <time>2020-09-27T15:52:51Z</time>
      </trkpt>
      <trkpt lat="40.27614" lon="-7.74266">
        <ele>658.539</ele>
        <time>2020-09-27T15:52:53Z</time>
      </trkpt>
      <trkpt lat="40.27644" lon="-7.74267">
        <ele>655.947</ele>
        <time>2020-09-27T15:52:54Z</time>
      </trkpt>
      <trkpt lat="40.27698" lon="-7.74277">
        <ele>653.241</ele>
        <time>2020-09-27T15:52:56Z</time>
      </trkpt>
      <trkpt lat="40.27724" lon="-7.74285">
        <ele>650.881</ele>
        <time>2020-09-27T15:52:57Z</time>
      </trkpt>
      <trkpt lat="40.27751" lon="-7.74293">
        <ele>649.109</ele>
        <time>2020-09-27T15:52:58Z</time>
      </trkpt>
      <trkpt lat="40.27802" lon="-7.74311">
        <ele>647.308</ele>
        <time>2020-09-27T15:53:00Z</time>
      </trkpt>
      <trkpt lat="40.27826" lon="-7.7432">
        <ele>645.949</ele>
        <time>2020-09-27T15:53:01Z</time>
      </trkpt>
      <trkpt lat="40.27849" lon="-7.7433">
        <ele>644.471</ele>
        <time>2020-09-27T15:53:02Z</time>
      </trkpt>
      <trkpt lat="40.27888" lon="-7.74364">
        <ele>642.399</ele>
        <time>2020-09-27T15:53:04Z</time>
      </trkpt>
      <trkpt lat="40.27904" lon="-7.74385">
        <ele>645.331</ele>
        <time>2020-09-27T15:53:05Z</time>
      </trkpt>
      <trkpt lat="40.27916" lon="-7.74408">
        <ele>644.859</ele>
        <time>2020-09-27T15:53:06Z</time>
      </trkpt>
      <trkpt lat="40.27923" lon="-7.74436">
        <ele>643.339</ele>
        <time>2020-09-27T15:53:07Z</time>
      </trkpt>
      <trkpt lat="40.27919" lon="-7.74509">
        <ele>641.049</ele>
        <time>2020-09-27T15:53:09Z</time>
      </trkpt>
      <trkpt lat="40.27876" lon="-7.74569">
        <ele>637.167</ele>
        <time>2020-09-27T15:53:11Z</time>
      </trkpt>
      <trkpt lat="40.27835" lon="-7.74619">
        <ele>633.183</ele>
        <time>2020-09-27T15:53:13Z</time>
      </trkpt>
      <trkpt lat="40.27814" lon="-7.74639">
        <ele>629.825</ele>
        <time>2020-09-27T15:53:14Z</time>
      </trkpt>
      <trkpt lat="40.27791" lon="-7.74653">
        <ele>627.117</ele>
        <time>2020-09-27T15:53:15Z</time>
      </trkpt>
      <trkpt lat="40.27738" lon="-7.74665">
        <ele>623.808</ele>
        <time>2020-09-27T15:53:17Z</time>
      </trkpt>
      <trkpt lat="40.27712" lon="-7.74666">
        <ele>620.673</ele>
        <time>2020-09-27T15:53:18Z</time>
      </trkpt>
      <trkpt lat="40.27662" lon="-7.74675">
        <ele>616.815</ele>
        <time>2020-09-27T15:53:20Z</time>
      </trkpt>
      <trkpt lat="40.27621" lon="-7.74706">
        <ele>613.243</ele>
        <time>2020-09-27T15:53:22Z</time>
      </trkpt>
      <trkpt lat="40.27587" lon="-7.74756">
        <ele>609.335</ele>
        <time>2020-09-27T15:53:24Z</time>
      </trkpt>
      <trkpt lat="40.27557" lon="-7.74813">
        <ele>605.563</ele>
        <time>2020-09-27T15:53:26Z</time>
      </trkpt>
      <trkpt lat="40.27524" lon="-7.74862">
        <ele>602.133</ele>
        <time>2020-09-27T15:53:28Z</time>
      </trkpt>
      <trkpt lat="40.27479" lon="-7.74889">
        <ele>598.853</ele>
        <time>2020-09-27T15:53:30Z</time>
      </trkpt>
      <trkpt lat="40.27454" lon="-7.74896">
        <ele>596.091</ele>
        <time>2020-09-27T15:53:31Z</time>
      </trkpt>
      <trkpt lat="40.27427" lon="-7.749">
        <ele>593.665</ele>
        <time>2020-09-27T15:53:32Z</time>
      </trkpt>
      <trkpt lat="40.27372" lon="-7.74894">
        <ele>590.668</ele>
        <time>2020-09-27T15:53:34Z</time>
      </trkpt>
      <trkpt lat="40.27345" lon="-7.74885">
        <ele>588.014</ele>
        <time>2020-09-27T15:53:35Z</time>
      </trkpt>
      <trkpt lat="40.27317" lon="-7.74875">
        <ele>585.808</ele>
        <time>2020-09-27T15:53:36Z</time>
      </trkpt>
      <trkpt lat="40.27291" lon="-7.74866">
        <ele>583.991</ele>
        <time>2020-09-27T15:53:37Z</time>
      </trkpt>
      <trkpt lat="40.27266" lon="-7.74858">
        <ele>582.143</ele>
        <time>2020-09-27T15:53:38Z</time>
      </trkpt>
      <trkpt lat="40.2722" lon="-7.74854">
        <ele>579.421</ele>
        <time>2020-09-27T15:53:40Z</time>
      </trkpt>
      <trkpt lat="40.27179" lon="-7.74872">
        <ele>576.633</ele>
        <time>2020-09-27T15:53:42Z</time>
      </trkpt>
      <trkpt lat="40.27152" lon="-7.74917">
        <ele>574.431</ele>
        <time>2020-09-27T15:53:44Z</time>
      </trkpt>
      <trkpt lat="40.27145" lon="-7.74947">
        <ele>572.781</ele>
        <time>2020-09-27T15:53:45Z</time>
      </trkpt>
      <trkpt lat="40.27127" lon="-7.7501">
        <ele>570.461</ele>
        <time>2020-09-27T15:53:47Z</time>
      </trkpt>
      <trkpt lat="40.27093" lon="-7.75054">
        <ele>568.249</ele>
        <time>2020-09-27T15:53:49Z</time>
      </trkpt>
      <trkpt lat="40.27063" lon="-7.75092">
        <ele>572.261</ele>
        <time>2020-09-27T15:53:51Z</time>
      </trkpt>
      <trkpt lat="40.27055" lon="-7.75115">
        <ele>576.221</ele>
        <time>2020-09-27T15:53:52Z</time>
      </trkpt>
      <trkpt lat="40.27057" lon="-7.75172">
        <ele>577.313</ele>
        <time>2020-09-27T15:53:54Z</time>
      </trkpt>
      <trkpt lat="40.27062" lon="-7.75201">
        <ele>578.008</ele>
        <time>2020-09-27T15:53:55Z</time>
      </trkpt>
      <trkpt lat="40.27075" lon="-7.7526">
        <ele>580.331</ele>
        <time>2020-09-27T15:53:57Z</time>
      </trkpt>
      <trkpt lat="40.27075" lon="-7.75291">
        <ele>577.643</ele>
        <time>2020-09-27T15:53:58Z</time>
      </trkpt>
      <trkpt lat="40.27058" lon="-7.75348">
        <ele>573.681</ele>
        <time>2020-09-27T15:54:00Z</time>
      </trkpt>
      <trkpt lat="40.27041" lon="-7.75373">
        <ele>569.643</ele>
        <time>2020-09-27T15:54:01Z</time>
      </trkpt>
      <trkpt lat="40.27022" lon="-7.75396">
        <ele>565.661</ele>
        <time>2020-09-27T15:54:02Z</time>
      </trkpt>
      <trkpt lat="40.26981" lon="-7.75434">
        <ele>561.641</ele>
        <time>2020-09-27T15:54:04Z</time>
      </trkpt>
      <trkpt lat="40.2696" lon="-7.75448">
        <ele>557.651</ele>
        <time>2020-09-27T15:54:05Z</time>
      </trkpt>
      <trkpt lat="40.26936" lon="-7.7546">
        <ele>553.619</ele>
        <time>2020-09-27T15:54:06Z</time>
      </trkpt>
      <trkpt lat="40.26887" lon="-7.75478">
        <ele>549.643</ele>
        <time>2020-09-27T15:54:08Z</time>
      </trkpt>
      <trkpt lat="40.26843" lon="-7.755">
        <ele>545.664</ele>
        <time>2020-09-27T15:54:10Z</time>
      </trkpt>
      <trkpt lat="40.26804" lon="-7.75536">
        <ele>541.61</ele>
        <time>2020-09-27T15:54:12Z</time>
      </trkpt>
      <trkpt lat="40.26787" lon="-7.75561">
        <ele>537.608</ele>
        <time>2020-09-27T15:54:13Z</time>
      </trkpt>
      <trkpt lat="40.26756" lon="-7.75615">
        <ele>533.689</ele>
        <time>2020-09-27T15:54:15Z</time>
      </trkpt>
      <trkpt lat="40.26741" lon="-7.75642">
        <ele>529.851</ele>
        <time>2020-09-27T15:54:16Z</time>
      </trkpt>
      <trkpt lat="40.26712" lon="-7.75689">
        <ele>526.369</ele>
        <time>2020-09-27T15:54:18Z</time>
      </trkpt>
      <trkpt lat="40.26699" lon="-7.75711">
        <ele>523.561</ele>
        <time>2020-09-27T15:54:19Z</time>
      </trkpt>
      <trkpt lat="40.26685" lon="-7.75759">
        <ele>520.599</ele>
        <time>2020-09-27T15:54:21Z</time>
      </trkpt>
      <trkpt lat="40.26685" lon="-7.75784">
        <ele>518.759</ele>
        <time>2020-09-27T15:54:22Z</time>
      </trkpt>
      <trkpt lat="40.26689" lon="-7.75807">
        <ele>522.719</ele>
        <time>2020-09-27T15:54:23Z</time>
      </trkpt>
      <trkpt lat="40.26712" lon="-7.75841">
        <ele>526.747</ele>
        <time>2020-09-27T15:54:25Z</time>
      </trkpt>
      <trkpt lat="40.26729" lon="-7.75848">
        <ele>528.852</ele>
        <time>2020-09-27T15:54:26Z</time>
      </trkpt>
      <trkpt lat="40.26769" lon="-7.75839">
        <ele>526.553</ele>
        <time>2020-09-27T15:54:28Z</time>
      </trkpt>
      <trkpt lat="40.26806" lon="-7.75805">
        <ele>523.808</ele>
        <time>2020-09-27T15:54:30Z</time>
      </trkpt>
      <trkpt lat="40.26844" lon="-7.75766">
        <ele>521.208</ele>
        <time>2020-09-27T15:54:32Z</time>
      </trkpt>
      <trkpt lat="40.26865" lon="-7.75754">
        <ele>519.23</ele>
        <time>2020-09-27T15:54:33Z</time>
      </trkpt>
      <trkpt lat="40.26888" lon="-7.75746">
        <ele>517.422</ele>
        <time>2020-09-27T15:54:34Z</time>
      </trkpt>
      <trkpt lat="40.26913" lon="-7.75741">
        <ele>515.75</ele>
        <time>2020-09-27T15:54:35Z</time>
      </trkpt>
      <trkpt lat="40.2694" lon="-7.75738">
        <ele>513.952</ele>
        <time>2020-09-27T15:54:36Z</time>
      </trkpt>
      <trkpt lat="40.26996" lon="-7.75726">
        <ele>511.44</ele>
        <time>2020-09-27T15:54:38Z</time>
      </trkpt>
      <trkpt lat="40.27025" lon="-7.75719">
        <ele>509.11</ele>
        <time>2020-09-27T15:54:39Z</time>
      </trkpt>
      <trkpt lat="40.27085" lon="-7.75699">
        <ele>506.74</ele>
        <time>2020-09-27T15:54:41Z</time>
      </trkpt>
      <trkpt lat="40.27115" lon="-7.75686">
        <ele>504.318</ele>
        <time>2020-09-27T15:54:42Z</time>
      </trkpt>
      <trkpt lat="40.27146" lon="-7.75673">
        <ele>502.214</ele>
        <time>2020-09-27T15:54:43Z</time>
      </trkpt>
      <trkpt lat="40.27204" lon="-7.75649">
        <ele>499.754</ele>
        <time>2020-09-27T15:54:45Z</time>
      </trkpt>
      <trkpt lat="40.27261" lon="-7.75624">
        <ele>497.309</ele>
        <time>2020-09-27T15:54:47Z</time>
      </trkpt>
      <trkpt lat="40.27286" lon="-7.75605">
        <ele>495.608</ele>
        <time>2020-09-27T15:54:48Z</time>
      </trkpt>
      <trkpt lat="40.2731" lon="-7.75583">
        <ele>494.426</ele>
        <time>2020-09-27T15:54:49Z</time>
      </trkpt>
      <trkpt lat="40.27353" lon="-7.75535">
        <ele>493.098</ele>
        <time>2020-09-27T15:54:51Z</time>
      </trkpt>
      <trkpt lat="40.27376" lon="-7.75515">
        <ele>492.086</ele>
        <time>2020-09-27T15:54:52Z</time>
      </trkpt>
      <trkpt lat="40.27427" lon="-7.75488">
        <ele>491.048</ele>
        <time>2020-09-27T15:54:54Z</time>
      </trkpt>
      <trkpt lat="40.27482" lon="-7.75483">
        <ele>489.856</ele>
        <time>2020-09-27T15:54:56Z</time>
      </trkpt>
      <trkpt lat="40.2751" lon="-7.75486">
        <ele>488.396</ele>
        <time>2020-09-27T15:54:57Z</time>
      </trkpt>
      <trkpt lat="40.27538" lon="-7.7549">
        <ele>486.826</ele>
        <time>2020-09-27T15:54:58Z</time>
      </trkpt>
      <trkpt lat="40.27592" lon="-7.755">
        <ele>485.014</ele>
        <time>2020-09-27T15:55:00Z</time>
      </trkpt>
      <trkpt lat="40.27639" lon="-7.75505">
        <ele>483.217</ele>
        <time>2020-09-27T15:55:02Z</time>
      </trkpt>
      <trkpt lat="40.27661" lon="-7.75503">
        <ele>481.887</ele>
        <time>2020-09-27T15:55:03Z</time>
      </trkpt>
      <trkpt lat="40.27708" lon="-7.75492">
        <ele>480.015</ele>
        <time>2020-09-27T15:55:05Z</time>
      </trkpt>
      <trkpt lat="40.27731" lon="-7.75486">
        <ele>478.508</ele>
        <time>2020-09-27T15:55:06Z</time>
      </trkpt>
      <trkpt lat="40.27754" lon="-7.75481">
        <ele>477.266</ele>
        <time>2020-09-27T15:55:07Z</time>
      </trkpt>
      <trkpt lat="40.27775" lon="-7.75479">
        <ele>476.128</ele>
        <time>2020-09-27T15:55:08Z</time>
      </trkpt>
      <trkpt lat="40.27795" lon="-7.75481">
        <ele>475.086</ele>
        <time>2020-09-27T15:55:09Z</time>
      </trkpt>
      <trkpt lat="40.27833" lon="-7.75498">
        <ele>473.528</ele>
        <time>2020-09-27T15:55:11Z</time>
      </trkpt>
      <trkpt lat="40.27869" lon="-7.75532">
        <ele>471.266</ele>
        <time>2020-09-27T15:55:13Z</time>
      </trkpt>
      <trkpt lat="40.27905" lon="-7.75565">
        <ele>469.246</ele>
        <time>2020-09-27T15:55:15Z</time>
      </trkpt>
      <trkpt lat="40.27943" lon="-7.75576">
        <ele>467.936</ele>
        <time>2020-09-27T15:55:17Z</time>
      </trkpt>
      <trkpt lat="40.2796" lon="-7.7557">
        <ele>467.034</ele>
        <time>2020-09-27T15:55:18Z</time>
      </trkpt>
      <trkpt lat="40.27976" lon="-7.75558">
        <ele>466.431</ele>
        <time>2020-09-27T15:55:19Z</time>
      </trkpt>
      <trkpt lat="40.2799" lon="-7.75541">
        <ele>466.061</ele>
        <time>2020-09-27T15:55:20Z</time>
      </trkpt>
      <trkpt lat="40.28009" lon="-7.75495">
        <ele>466.107</ele>
        <time>2020-09-27T15:55:22Z</time>
      </trkpt>
      <trkpt lat="40.28022" lon="-7.75442">
        <ele>466.608</ele>
        <time>2020-09-27T15:55:24Z</time>
      </trkpt>
      <trkpt lat="40.28044" lon="-7.75395">
        <ele>467.218</ele>
        <time>2020-09-27T15:55:26Z</time>
      </trkpt>
      <trkpt lat="40.2806" lon="-7.75378">
        <ele>467.63</ele>
        <time>2020-09-27T15:55:27Z</time>
      </trkpt>
      <trkpt lat="40.28099" lon="-7.75355">
        <ele>467.768</ele>
        <time>2020-09-27T15:55:29Z</time>
      </trkpt>
      <trkpt lat="40.28146" lon="-7.75351">
        <ele>467.37</ele>
        <time>2020-09-27T15:55:31Z</time>
      </trkpt>
      <trkpt lat="40.28172" lon="-7.75353">
        <ele>466.748</ele>
        <time>2020-09-27T15:55:32Z</time>
      </trkpt>
      <trkpt lat="40.28198" lon="-7.75357">
        <ele>466.018</ele>
        <time>2020-09-27T15:55:33Z</time>
      </trkpt>
      <trkpt lat="40.28225" lon="-7.7536">
        <ele>465.578</ele>
        <time>2020-09-27T15:55:34Z</time>
      </trkpt>
      <trkpt lat="40.28279" lon="-7.75366">
        <ele>465.436</ele>
        <time>2020-09-27T15:55:36Z</time>
      </trkpt>
      <trkpt lat="40.28307" lon="-7.75367">
        <ele>465.386</ele>
        <time>2020-09-27T15:55:37Z</time>
      </trkpt>
      <trkpt lat="40.28363" lon="-7.75371">
        <ele>465.36</ele>
        <time>2020-09-27T15:55:39Z</time>
      </trkpt>
      <trkpt lat="40.28389" lon="-7.75374">
        <ele>465.226</ele>
        <time>2020-09-27T15:55:40Z</time>
      </trkpt>
      <trkpt lat="40.28437" lon="-7.75386">
        <ele>465.408</ele>
        <time>2020-09-27T15:55:42Z</time>
      </trkpt>
      <trkpt lat="40.28474" lon="-7.7541">
        <ele>465.273</ele>
        <time>2020-09-27T15:55:44Z</time>
      </trkpt>
      <trkpt lat="40.2849" lon="-7.75428">
        <ele>464.985</ele>
        <time>2020-09-27T15:55:45Z</time>
      </trkpt>
      <trkpt lat="40.28515" lon="-7.75476">
        <ele>464.473</ele>
        <time>2020-09-27T15:55:47Z</time>
      </trkpt>
      <trkpt lat="40.28526" lon="-7.75498">
        <ele>463.895</ele>
        <time>2020-09-27T15:55:48Z</time>
      </trkpt>
      <trkpt lat="40.28541" lon="-7.75515">
        <ele>463.273</ele>
        <time>2020-09-27T15:55:49Z</time>
      </trkpt>
      <trkpt lat="40.28558" lon="-7.75523">
        <ele>462.553</ele>
        <time>2020-09-27T15:55:50Z</time>
      </trkpt>
      <trkpt lat="40.28577" lon="-7.75524">
        <ele>461.883</ele>
        <time>2020-09-27T15:55:51Z</time>
      </trkpt>
      <trkpt lat="40.28617" lon="-7.75504">
        <ele>460.811</ele>
        <time>2020-09-27T15:55:53Z</time>
      </trkpt>
      <trkpt lat="40.28637" lon="-7.75488">
        <ele>460.214</ele>
        <time>2020-09-27T15:55:54Z</time>
      </trkpt>
      <trkpt lat="40.28679" lon="-7.7546">
        <ele>459.654</ele>
        <time>2020-09-27T15:55:56Z</time>
      </trkpt>
      <trkpt lat="40.28701" lon="-7.75454">
        <ele>459.209</ele>
        <time>2020-09-27T15:55:57Z</time>
      </trkpt>
      <trkpt lat="40.28724" lon="-7.75454">
        <ele>459.108</ele>
        <time>2020-09-27T15:55:58Z</time>
      </trkpt>
      <trkpt lat="40.28748" lon="-7.75459">
        <ele>458.946</ele>
        <time>2020-09-27T15:55:59Z</time>
      </trkpt>
      <trkpt lat="40.28792" lon="-7.75489">
        <ele>458.558</ele>
        <time>2020-09-27T15:56:01Z</time>
      </trkpt>
      <trkpt lat="40.28813" lon="-7.75509">
        <ele>458.096</ele>
        <time>2020-09-27T15:56:02Z</time>
      </trkpt>
      <trkpt lat="40.28832" lon="-7.75528">
        <ele>457.568</ele>
        <time>2020-09-27T15:56:03Z</time>
      </trkpt>
      <trkpt lat="40.28848" lon="-7.75547">
        <ele>457.026</ele>
        <time>2020-09-27T15:56:04Z</time>
      </trkpt>
      <trkpt lat="40.2887" lon="-7.75592">
        <ele>456.146</ele>
        <time>2020-09-27T15:56:06Z</time>
      </trkpt>
      <trkpt lat="40.28883" lon="-7.75657">
        <ele>454.656</ele>
        <time>2020-09-27T15:56:08Z</time>
      </trkpt>
      <trkpt lat="40.28896" lon="-7.75724">
        <ele>452.814</ele>
        <time>2020-09-27T15:56:10Z</time>
      </trkpt>
      <trkpt lat="40.28909" lon="-7.75782">
        <ele>451.045</ele>
        <time>2020-09-27T15:56:12Z</time>
      </trkpt>
      <trkpt lat="40.28931" lon="-7.75826">
        <ele>448.847</ele>
        <time>2020-09-27T15:56:14Z</time>
      </trkpt>
      <trkpt lat="40.28948" lon="-7.75841">
        <ele>447.311</ele>
        <time>2020-09-27T15:56:15Z</time>
      </trkpt>
      <trkpt lat="40.28991" lon="-7.75853">
        <ele>445.708</ele>
        <time>2020-09-27T15:56:17Z</time>
      </trkpt>
      <trkpt lat="40.29015" lon="-7.75857">
        <ele>444.499</ele>
        <time>2020-09-27T15:56:18Z</time>
      </trkpt>
      <trkpt lat="40.29038" lon="-7.75864">
        <ele>443.061</ele>
        <time>2020-09-27T15:56:19Z</time>
      </trkpt>
      <trkpt lat="40.29077" lon="-7.75895">
        <ele>441.369</ele>
        <time>2020-09-27T15:56:21Z</time>
      </trkpt>
      <trkpt lat="40.29093" lon="-7.75916">
        <ele>439.571</ele>
        <time>2020-09-27T15:56:22Z</time>
      </trkpt>
      <trkpt lat="40.29128" lon="-7.75949">
        <ele>437.289</ele>
        <time>2020-09-27T15:56:24Z</time>
      </trkpt>
      <trkpt lat="40.29149" lon="-7.75958">
        <ele>435.569</ele>
        <time>2020-09-27T15:56:25Z</time>
      </trkpt>
      <trkpt lat="40.29196" lon="-7.75955">
        <ele>433.549</ele>
        <time>2020-09-27T15:56:27Z</time>
      </trkpt>
      <trkpt lat="40.29238" lon="-7.75954">
        <ele>431.347</ele>
        <time>2020-09-27T15:56:29Z</time>
      </trkpt>
      <trkpt lat="40.29258" lon="-7.75962">
        <ele>429.685</ele>
        <time>2020-09-27T15:56:30Z</time>
      </trkpt>
      <trkpt lat="40.29276" lon="-7.75975">
        <ele>428.589</ele>
        <time>2020-09-27T15:56:31Z</time>
      </trkpt>
      <trkpt lat="40.29292" lon="-7.75992">
        <ele>427.417</ele>
        <time>2020-09-27T15:56:32Z</time>
      </trkpt>
      <trkpt lat="40.29313" lon="-7.76032">
        <ele>426.408</ele>
        <time>2020-09-27T15:56:34Z</time>
      </trkpt>
      <trkpt lat="40.29309" lon="-7.76092">
        <ele>424.743</ele>
        <time>2020-09-27T15:56:36Z</time>
      </trkpt>
      <trkpt lat="40.29302" lon="-7.76124">
        <ele>422.985</ele>
        <time>2020-09-27T15:56:37Z</time>
      </trkpt>
      <trkpt lat="40.2928" lon="-7.76191">
        <ele>420.983</ele>
        <time>2020-09-27T15:56:39Z</time>
      </trkpt>
      <trkpt lat="40.29269" lon="-7.76224">
        <ele>419.475</ele>
        <time>2020-09-27T15:56:40Z</time>
      </trkpt>
      <trkpt lat="40.29247" lon="-7.7629">
        <ele>417.123</ele>
        <time>2020-09-27T15:56:42Z</time>
      </trkpt>
      <trkpt lat="40.29223" lon="-7.7635">
        <ele>415.233</ele>
        <time>2020-09-27T15:56:44Z</time>
      </trkpt>
      <trkpt lat="40.29212" lon="-7.76376">
        <ele>413.963</ele>
        <time>2020-09-27T15:56:45Z</time>
      </trkpt>
      <trkpt lat="40.29192" lon="-7.76422">
        <ele>412.261</ele>
        <time>2020-09-27T15:56:47Z</time>
      </trkpt>
      <trkpt lat="40.29165" lon="-7.76454">
        <ele>410.515</ele>
        <time>2020-09-27T15:56:49Z</time>
      </trkpt>
      <trkpt lat="40.2915" lon="-7.7647">
        <ele>409.065</ele>
        <time>2020-09-27T15:56:50Z</time>
      </trkpt>
      <trkpt lat="40.29131" lon="-7.76517">
        <ele>407.311</ele>
        <time>2020-09-27T15:56:52Z</time>
      </trkpt>
      <trkpt lat="40.29127" lon="-7.76546">
        <ele>405.708</ele>
        <time>2020-09-27T15:56:53Z</time>
      </trkpt>
      <trkpt lat="40.29119" lon="-7.76607">
        <ele>403.556</ele>
        <time>2020-09-27T15:56:55Z</time>
      </trkpt>
      <trkpt lat="40.29112" lon="-7.76661">
        <ele>401.118</ele>
        <time>2020-09-27T15:56:57Z</time>
      </trkpt>
      <trkpt lat="40.29115" lon="-7.76686">
        <ele>399.226</ele>
        <time>2020-09-27T15:56:58Z</time>
      </trkpt>
      <trkpt lat="40.29131" lon="-7.76732">
        <ele>397.358</ele>
        <time>2020-09-27T15:57:00Z</time>
      </trkpt>
      <trkpt lat="40.29168" lon="-7.7676">
        <ele>395.576</ele>
        <time>2020-09-27T15:57:02Z</time>
      </trkpt>
      <trkpt lat="40.29202" lon="-7.76788">
        <ele>393.986</ele>
        <time>2020-09-27T15:57:04Z</time>
      </trkpt>
      <trkpt lat="40.29217" lon="-7.76801">
        <ele>392.666</ele>
        <time>2020-09-27T15:57:05Z</time>
      </trkpt>
      <trkpt lat="40.29233" lon="-7.7681">
        <ele>391.734</ele>
        <time>2020-09-27T15:57:06Z</time>
      </trkpt>
      <trkpt lat="40.29265" lon="-7.76817">
        <ele>391.146</ele>
        <time>2020-09-27T15:57:08Z</time>
      </trkpt>
      <trkpt lat="40.29298" lon="-7.76825">
        <ele>390.488</ele>
        <time>2020-09-27T15:57:10Z</time>
      </trkpt>
      <trkpt lat="40.29324" lon="-7.76847">
        <ele>389.516</ele>
        <time>2020-09-27T15:57:12Z</time>
      </trkpt>
      <trkpt lat="40.29332" lon="-7.76861">
        <ele>388.808</ele>
        <time>2020-09-27T15:57:13Z</time>
      </trkpt>
      <trkpt lat="40.29334" lon="-7.76897">
        <ele>387.739</ele>
        <time>2020-09-27T15:57:15Z</time>
      </trkpt>
      <trkpt lat="40.29332" lon="-7.7692">
        <ele>387.121</ele>
        <time>2020-09-27T15:57:16Z</time>
      </trkpt>
      <trkpt lat="40.29324" lon="-7.76954">
        <ele>387.229</ele>
        <time>2020-09-27T15:57:17Z</time>
      </trkpt>
      <trkpt lat="40.29304" lon="-7.77019">
        <ele>386.941</ele>
        <time>2020-09-27T15:57:19Z</time>
      </trkpt>
      <trkpt lat="40.2929" lon="-7.77047">
        <ele>386.599</ele>
        <time>2020-09-27T15:57:20Z</time>
      </trkpt>
      <trkpt lat="40.29253" lon="-7.77091">
        <ele>385.999</ele>
        <time>2020-09-27T15:57:22Z</time>
      </trkpt>
      <trkpt lat="40.2921" lon="-7.77125">
        <ele>385.539</ele>
        <time>2020-09-27T15:57:24Z</time>
      </trkpt>
      <trkpt lat="40.29173" lon="-7.77159">
        <ele>385.047</ele>
        <time>2020-09-27T15:57:26Z</time>
      </trkpt>
      <trkpt lat="40.29145" lon="-7.77207">
        <ele>384.337</ele>
        <time>2020-09-27T15:57:28Z</time>
      </trkpt>
      <trkpt lat="40.29127" lon="-7.77267">
        <ele>382.749</ele>
        <time>2020-09-27T15:57:30Z</time>
      </trkpt>
      <trkpt lat="40.2911" lon="-7.77326">
        <ele>380.813</ele>
        <time>2020-09-27T15:57:32Z</time>
      </trkpt>
      <trkpt lat="40.29093" lon="-7.77381">
        <ele>378.608</ele>
        <time>2020-09-27T15:57:34Z</time>
      </trkpt>
      <trkpt lat="40.29089" lon="-7.7741">
        <ele>376.728</ele>
        <time>2020-09-27T15:57:35Z</time>
      </trkpt>
      <trkpt lat="40.29088" lon="-7.77441">
        <ele>374.92</ele>
        <time>2020-09-27T15:57:36Z</time>
      </trkpt>
      <trkpt lat="40.29087" lon="-7.77497">
        <ele>373.188</ele>
        <time>2020-09-27T15:57:38Z</time>
      </trkpt>
      <trkpt lat="40.29079" lon="-7.77536">
        <ele>371.21</ele>
        <time>2020-09-27T15:57:40Z</time>
      </trkpt>
      <trkpt lat="40.29069" lon="-7.77548">
        <ele>369.528</ele>
        <time>2020-09-27T15:57:41Z</time>
      </trkpt>
      <trkpt lat="40.29057" lon="-7.77555">
        <ele>368.298</ele>
        <time>2020-09-27T15:57:42Z</time>
      </trkpt>
      <trkpt lat="40.29041" lon="-7.77556">
        <ele>367.118</ele>
        <time>2020-09-27T15:57:43Z</time>
      </trkpt>
      <trkpt lat="40.29023" lon="-7.77552">
        <ele>365.836</ele>
        <time>2020-09-27T15:57:44Z</time>
      </trkpt>
      <trkpt lat="40.28981" lon="-7.77542">
        <ele>364.191</ele>
        <time>2020-09-27T15:57:46Z</time>
      </trkpt>
      <trkpt lat="40.28961" lon="-7.77538">
        <ele>362.881</ele>
        <time>2020-09-27T15:57:47Z</time>
      </trkpt>
      <trkpt lat="40.28944" lon="-7.77536">
        <ele>361.819</ele>
        <time>2020-09-27T15:57:48Z</time>
      </trkpt>
      <trkpt lat="40.28917" lon="-7.77551">
        <ele>360.808</ele>
        <time>2020-09-27T15:57:50Z</time>
      </trkpt>
      <trkpt lat="40.28908" lon="-7.77569">
        <ele>360.144</ele>
        <time>2020-09-27T15:57:51Z</time>
      </trkpt>
      <trkpt lat="40.28907" lon="-7.7761">
        <ele>359.716</ele>
        <time>2020-09-27T15:57:53Z</time>
      </trkpt>
      <trkpt lat="40.28929" lon="-7.77641">
        <ele>359.274</ele>
        <time>2020-09-27T15:57:55Z</time>
      </trkpt>
      <trkpt lat="40.28947" lon="-7.77653">
        <ele>358.676</ele>
        <time>2020-09-27T15:57:56Z</time>
      </trkpt>
      <trkpt lat="40.28977" lon="-7.77677">
        <ele>357.854</ele>
        <time>2020-09-27T15:57:58Z</time>
      </trkpt>
      <trkpt lat="40.28985" lon="-7.77694">
        <ele>357.284</ele>
        <time>2020-09-27T15:57:59Z</time>
      </trkpt>
      <trkpt lat="40.28984" lon="-7.77729">
        <ele>356.814</ele>
        <time>2020-09-27T15:58:01Z</time>
      </trkpt>
      <trkpt lat="40.28963" lon="-7.77763">
        <ele>356.192</ele>
        <time>2020-09-27T15:58:03Z</time>
      </trkpt>
      <trkpt lat="40.28951" lon="-7.77784">
        <ele>355.347</ele>
        <time>2020-09-27T15:58:04Z</time>
      </trkpt>
      <trkpt lat="40.28941" lon="-7.77836">
        <ele>354.829</ele>
        <time>2020-09-27T15:58:06Z</time>
      </trkpt>
      <trkpt lat="40.28943" lon="-7.77867">
        <ele>354.421</ele>
        <time>2020-09-27T15:58:07Z</time>
      </trkpt>
      <trkpt lat="40.28951" lon="-7.77932">
        <ele>353.508</ele>
        <time>2020-09-27T15:58:09Z</time>
      </trkpt>
      <trkpt lat="40.28956" lon="-7.77964">
        <ele>352.869</ele>
        <time>2020-09-27T15:58:10Z</time>
      </trkpt>
      <trkpt lat="40.28965" lon="-7.77995">
        <ele>352.281</ele>
        <time>2020-09-27T15:58:11Z</time>
      </trkpt>
      <trkpt lat="40.28996" lon="-7.78048">
        <ele>351.079</ele>
        <time>2020-09-27T15:58:13Z</time>
      </trkpt>
      <trkpt lat="40.29027" lon="-7.7809">
        <ele>349.741</ele>
        <time>2020-09-27T15:58:15Z</time>
      </trkpt>
      <trkpt lat="40.29038" lon="-7.78108">
        <ele>348.829</ele>
        <time>2020-09-27T15:58:16Z</time>
      </trkpt>
      <trkpt lat="40.29046" lon="-7.78145">
        <ele>348.359</ele>
        <time>2020-09-27T15:58:18Z</time>
      </trkpt>
      <trkpt lat="40.29047" lon="-7.78168">
        <ele>348.119</ele>
        <time>2020-09-27T15:58:19Z</time>
      </trkpt>
      <trkpt lat="40.2903" lon="-7.78223">
        <ele>347.147</ele>
        <time>2020-09-27T15:58:21Z</time>
      </trkpt>
      <trkpt lat="40.29028" lon="-7.78285">
        <ele>345.736</ele>
        <time>2020-09-27T15:58:23Z</time>
      </trkpt>
      <trkpt lat="40.29031" lon="-7.78316">
        <ele>344.317</ele>
        <time>2020-09-27T15:58:24Z</time>
      </trkpt>
      <trkpt lat="40.29035" lon="-7.78345">
        <ele>343.018</ele>
        <time>2020-09-27T15:58:25Z</time>
      </trkpt>
      <trkpt lat="40.29041" lon="-7.78373">
        <ele>341.808</ele>
        <time>2020-09-27T15:58:26Z</time>
      </trkpt>
      <trkpt lat="40.29056" lon="-7.78423">
        <ele>340.458</ele>
        <time>2020-09-27T15:58:28Z</time>
      </trkpt>
      <trkpt lat="40.29064" lon="-7.78445">
        <ele>339.19</ele>
        <time>2020-09-27T15:58:29Z</time>
      </trkpt>
      <trkpt lat="40.29071" lon="-7.78464">
        <ele>337.788</ele>
        <time>2020-09-27T15:58:30Z</time>
      </trkpt>
      <trkpt lat="40.2909" lon="-7.78489">
        <ele>336.13</ele>
        <time>2020-09-27T15:58:32Z</time>
      </trkpt>
      <trkpt lat="40.29122" lon="-7.7849">
        <ele>335.328</ele>
        <time>2020-09-27T15:58:34Z</time>
      </trkpt>
      <trkpt lat="40.2914" lon="-7.78487">
        <ele>334.838</ele>
        <time>2020-09-27T15:58:35Z</time>
      </trkpt>
      <trkpt lat="40.2918" lon="-7.78483">
        <ele>334.238</ele>
        <time>2020-09-27T15:58:37Z</time>
      </trkpt>
      <trkpt lat="40.29199" lon="-7.78487">
        <ele>333.546</ele>
        <time>2020-09-27T15:58:38Z</time>
      </trkpt>
      <trkpt lat="40.29235" lon="-7.78502">
        <ele>332.469</ele>
        <time>2020-09-27T15:58:40Z</time>
      </trkpt>
      <trkpt lat="40.29271" lon="-7.78506">
        <ele>330.904</ele>
        <time>2020-09-27T15:58:42Z</time>
      </trkpt>
      <trkpt lat="40.29289" lon="-7.78503">
        <ele>329.224</ele>
        <time>2020-09-27T15:58:43Z</time>
      </trkpt>
      <trkpt lat="40.29326" lon="-7.78489">
        <ele>327.508</ele>
        <time>2020-09-27T15:58:45Z</time>
      </trkpt>
      <trkpt lat="40.29362" lon="-7.78475">
        <ele>325.881</ele>
        <time>2020-09-27T15:58:47Z</time>
      </trkpt>
      <trkpt lat="40.2938" lon="-7.78469">
        <ele>324.613</ele>
        <time>2020-09-27T15:58:48Z</time>
      </trkpt>
      <trkpt lat="40.29398" lon="-7.78463">
        <ele>323.861</ele>
        <time>2020-09-27T15:58:49Z</time>
      </trkpt>
      <trkpt lat="40.29432" lon="-7.78449">
        <ele>323.223</ele>
        <time>2020-09-27T15:58:51Z</time>
      </trkpt>
      <trkpt lat="40.29449" lon="-7.78442">
        <ele>322.911</ele>
        <time>2020-09-27T15:58:52Z</time>
      </trkpt>
      <trkpt lat="40.29482" lon="-7.7843">
        <ele>322.831</ele>
        <time>2020-09-27T15:58:54Z</time>
      </trkpt>
      <trkpt lat="40.29511" lon="-7.78419">
        <ele>322.921</ele>
        <time>2020-09-27T15:58:56Z</time>
      </trkpt>
      <trkpt lat="40.29533" lon="-7.78411">
        <ele>323.399</ele>
        <time>2020-09-27T15:58:58Z</time>
      </trkpt>
      <trkpt lat="40.29544" lon="-7.78406">
        <ele>323.547</ele>
        <time>2020-09-27T15:58:59Z</time>
      </trkpt>
      <trkpt lat="40.29571" lon="-7.78398">
        <ele>324.229</ele>
        <time>2020-09-27T15:59:01Z</time>
      </trkpt>
      <trkpt lat="40.29588" lon="-7.78396">
        <ele>324.821</ele>
        <time>2020-09-27T15:59:02Z</time>
      </trkpt>
      <trkpt lat="40.29606" lon="-7.78397">
        <ele>326.008</ele>
        <time>2020-09-27T15:59:03Z</time>
      </trkpt>
      <trkpt lat="40.29648" lon="-7.78397">
        <ele>327.119</ele>
        <time>2020-09-27T15:59:05Z</time>
      </trkpt>
      <trkpt lat="40.29693" lon="-7.78395">
        <ele>328.431</ele>
        <time>2020-09-27T15:59:07Z</time>
      </trkpt>
      <trkpt lat="40.29736" lon="-7.78395">
        <ele>329.689</ele>
        <time>2020-09-27T15:59:09Z</time>
      </trkpt>
      <trkpt lat="40.29756" lon="-7.78399">
        <ele>330.611</ele>
        <time>2020-09-27T15:59:10Z</time>
      </trkpt>
      <trkpt lat="40.29794" lon="-7.78418">
        <ele>331.679</ele>
        <time>2020-09-27T15:59:12Z</time>
      </trkpt>
      <trkpt lat="40.29826" lon="-7.78451">
        <ele>332.439</ele>
        <time>2020-09-27T15:59:14Z</time>
      </trkpt>
      <trkpt lat="40.2985" lon="-7.78495">
        <ele>333.529</ele>
        <time>2020-09-27T15:59:16Z</time>
      </trkpt>
      <trkpt lat="40.29878" lon="-7.78528">
        <ele>334.127</ele>
        <time>2020-09-27T15:59:18Z</time>
      </trkpt>
      <trkpt lat="40.29917" lon="-7.78548">
        <ele>334.192</ele>
        <time>2020-09-27T15:59:20Z</time>
      </trkpt>
      <trkpt lat="40.29954" lon="-7.7856">
        <ele>333.673</ele>
        <time>2020-09-27T15:59:22Z</time>
      </trkpt>
      <trkpt lat="40.29971" lon="-7.78558">
        <ele>332.92</ele>
        <time>2020-09-27T15:59:23Z</time>
      </trkpt>
      <trkpt lat="40.29993" lon="-7.78536">
        <ele>332.208</ele>
        <time>2020-09-27T15:59:25Z</time>
      </trkpt>
      <trkpt lat="40.29996" lon="-7.78517">
        <ele>331.884</ele>
        <time>2020-09-27T15:59:26Z</time>
      </trkpt>
      <trkpt lat="40.30001" lon="-7.78471">
        <ele>331.296</ele>
        <time>2020-09-27T15:59:28Z</time>
      </trkpt>
      <trkpt lat="40.3001" lon="-7.78447">
        <ele>330.874</ele>
        <time>2020-09-27T15:59:29Z</time>
      </trkpt>
      <trkpt lat="40.30022" lon="-7.78422">
        <ele>330.266</ele>
        <time>2020-09-27T15:59:30Z</time>
      </trkpt>
      <trkpt lat="40.30036" lon="-7.78396">
        <ele>329.624</ele>
        <time>2020-09-27T15:59:31Z</time>
      </trkpt>
      <trkpt lat="40.30061" lon="-7.78347">
        <ele>328.714</ele>
        <time>2020-09-27T15:59:33Z</time>
      </trkpt>
      <trkpt lat="40.30076" lon="-7.78328">
        <ele>327.934</ele>
        <time>2020-09-27T15:59:34Z</time>
      </trkpt>
      <trkpt lat="40.30093" lon="-7.78315">
        <ele>327.332</ele>
        <time>2020-09-27T15:59:35Z</time>
      </trkpt>
      <trkpt lat="40.30112" lon="-7.78304">
        <ele>326.865</ele>
        <time>2020-09-27T15:59:36Z</time>
      </trkpt>
      <trkpt lat="40.30146" lon="-7.7828">
        <ele>326.568</ele>
        <time>2020-09-27T15:59:38Z</time>
      </trkpt>
      <trkpt lat="40.30159" lon="-7.78265">
        <ele>326.314</ele>
        <time>2020-09-27T15:59:39Z</time>
      </trkpt>
      <trkpt lat="40.30176" lon="-7.78258">
        <ele>326.308</ele>
        <time>2020-09-27T15:59:40Z</time>
      </trkpt>
      <trkpt lat="40.30216" lon="-7.78246">
        <ele>326.391</ele>
        <time>2020-09-27T15:59:42Z</time>
      </trkpt>
      <trkpt lat="40.30256" lon="-7.78233">
        <ele>326.013</ele>
        <time>2020-09-27T15:59:44Z</time>
      </trkpt>
      <trkpt lat="40.30292" lon="-7.78224">
        <ele>325.011</ele>
        <time>2020-09-27T15:59:46Z</time>
      </trkpt>
      <trkpt lat="40.3031" lon="-7.78227">
        <ele>324.253</ele>
        <time>2020-09-27T15:59:47Z</time>
      </trkpt>
      <trkpt lat="40.30326" lon="-7.78235">
        <ele>323.421</ele>
        <time>2020-09-27T15:59:48Z</time>
      </trkpt>
      <trkpt lat="40.30352" lon="-7.78264">
        <ele>322.651</ele>
        <time>2020-09-27T15:59:50Z</time>
      </trkpt>
      <trkpt lat="40.30364" lon="-7.78285">
        <ele>322.091</ele>
        <time>2020-09-27T15:59:51Z</time>
      </trkpt>
      <trkpt lat="40.30374" lon="-7.78306">
        <ele>321.579</ele>
        <time>2020-09-27T15:59:52Z</time>
      </trkpt>
      <trkpt lat="40.30393" lon="-7.78349">
        <ele>321.443</ele>
        <time>2020-09-27T15:59:54Z</time>
      </trkpt>
      <trkpt lat="40.30399" lon="-7.7837">
        <ele>321.864</ele>
        <time>2020-09-27T15:59:55Z</time>
      </trkpt>
      <trkpt lat="40.30414" lon="-7.78404">
        <ele>322.91</ele>
        <time>2020-09-27T15:59:57Z</time>
      </trkpt>
      <trkpt lat="40.30421" lon="-7.78421">
        <ele>323.608</ele>
        <time>2020-09-27T15:59:58Z</time>
      </trkpt>
      <trkpt lat="40.30426" lon="-7.78442">
        <ele>324.059</ele>
        <time>2020-09-27T15:59:59Z</time>
      </trkpt>
      <trkpt lat="40.30429" lon="-7.78465">
        <ele>324.291</ele>
        <time>2020-09-27T16:00:00Z</time>
      </trkpt>
      <trkpt lat="40.30427" lon="-7.78511">
        <ele>324.169</ele>
        <time>2020-09-27T16:00:02Z</time>
      </trkpt>
      <trkpt lat="40.30408" lon="-7.78552">
        <ele>324.021</ele>
        <time>2020-09-27T16:00:04Z</time>
      </trkpt>
      <trkpt lat="40.30384" lon="-7.78594">
        <ele>323.949</ele>
        <time>2020-09-27T16:00:06Z</time>
      </trkpt>
      <trkpt lat="40.30374" lon="-7.78618">
        <ele>324.079</ele>
        <time>2020-09-27T16:00:07Z</time>
      </trkpt>
      <trkpt lat="40.30358" lon="-7.78666">
        <ele>324.059</ele>
        <time>2020-09-27T16:00:09Z</time>
      </trkpt>
      <trkpt lat="40.30345" lon="-7.78713">
        <ele>324.137</ele>
        <time>2020-09-27T16:00:11Z</time>
      </trkpt>
      <trkpt lat="40.30338" lon="-7.78735">
        <ele>324.216</ele>
        <time>2020-09-27T16:00:12Z</time>
      </trkpt>
      <trkpt lat="40.30317" lon="-7.78771">
        <ele>324.276</ele>
        <time>2020-09-27T16:00:14Z</time>
      </trkpt>
      <trkpt lat="40.30304" lon="-7.78787">
        <ele>324.313</ele>
        <time>2020-09-27T16:00:15Z</time>
      </trkpt>
      <trkpt lat="40.30278" lon="-7.7882">
        <ele>324.308</ele>
        <time>2020-09-27T16:00:17Z</time>
      </trkpt>
      <trkpt lat="40.30255" lon="-7.78853">
        <ele>324.226</ele>
        <time>2020-09-27T16:00:19Z</time>
      </trkpt>
      <trkpt lat="40.30242" lon="-7.78895">
        <ele>324.018</ele>
        <time>2020-09-27T16:00:21Z</time>
      </trkpt>
      <trkpt lat="40.30238" lon="-7.78919">
        <ele>323.956</ele>
        <time>2020-09-27T16:00:22Z</time>
      </trkpt>
      <trkpt lat="40.30231" lon="-7.7897">
        <ele>323.858</ele>
        <time>2020-09-27T16:00:24Z</time>
      </trkpt>
      <trkpt lat="40.30228" lon="-7.79023">
        <ele>323.956</ele>
        <time>2020-09-27T16:00:26Z</time>
      </trkpt>
      <trkpt lat="40.30232" lon="-7.79079">
        <ele>323.846</ele>
        <time>2020-09-27T16:00:28Z</time>
      </trkpt>
      <trkpt lat="40.30236" lon="-7.79108">
        <ele>323.786</ele>
        <time>2020-09-27T16:00:29Z</time>
      </trkpt>
      <trkpt lat="40.30244" lon="-7.79164">
        <ele>323.864</ele>
        <time>2020-09-27T16:00:31Z</time>
      </trkpt>
      <trkpt lat="40.30253" lon="-7.79221">
        <ele>323.871</ele>
        <time>2020-09-27T16:00:33Z</time>
      </trkpt>
      <trkpt lat="40.30259" lon="-7.79249">
        <ele>323.741</ele>
        <time>2020-09-27T16:00:34Z</time>
      </trkpt>
      <trkpt lat="40.30264" lon="-7.79307">
        <ele>323.515</ele>
        <time>2020-09-27T16:00:36Z</time>
      </trkpt>
      <trkpt lat="40.30256" lon="-7.79364">
        <ele>323.408</ele>
        <time>2020-09-27T16:00:38Z</time>
      </trkpt>
      <trkpt lat="40.30246" lon="-7.79421">
        <ele>323.372</ele>
        <time>2020-09-27T16:00:40Z</time>
      </trkpt>
      <trkpt lat="40.30237" lon="-7.79473">
        <ele>323.334</ele>
        <time>2020-09-27T16:00:42Z</time>
      </trkpt>
      <trkpt lat="40.3023" lon="-7.79497">
        <ele>323.472</ele>
        <time>2020-09-27T16:00:43Z</time>
      </trkpt>
      <trkpt lat="40.30212" lon="-7.79542">
        <ele>323.524</ele>
        <time>2020-09-27T16:00:45Z</time>
      </trkpt>
      <trkpt lat="40.30205" lon="-7.79564">
        <ele>323.782</ele>
        <time>2020-09-27T16:00:46Z</time>
      </trkpt>
      <trkpt lat="40.30199" lon="-7.79584">
        <ele>323.912</ele>
        <time>2020-09-27T16:00:47Z</time>
      </trkpt>
      <trkpt lat="40.30183" lon="-7.79616">
        <ele>324.222</ele>
        <time>2020-09-27T16:00:49Z</time>
      </trkpt>
      <trkpt lat="40.30165" lon="-7.79647">
        <ele>324.19</ele>
        <time>2020-09-27T16:00:51Z</time>
      </trkpt>
      <trkpt lat="40.30139" lon="-7.79664">
        <ele>324.018</ele>
        <time>2020-09-27T16:00:53Z</time>
      </trkpt>
      <trkpt lat="40.30123" lon="-7.79666">
        <ele>324.098</ele>
        <time>2020-09-27T16:00:54Z</time>
      </trkpt>
      <trkpt lat="40.30106" lon="-7.79668">
        <ele>324.117</ele>
        <time>2020-09-27T16:00:55Z</time>
      </trkpt>
      <trkpt lat="40.30075" lon="-7.79663">
        <ele>324.408</ele>
        <time>2020-09-27T16:00:57Z</time>
      </trkpt>
      <trkpt lat="40.30045" lon="-7.79659">
        <ele>324.886</ele>
        <time>2020-09-27T16:00:59Z</time>
      </trkpt>
      <trkpt lat="40.30018" lon="-7.79668">
        <ele>325.468</ele>
        <time>2020-09-27T16:01:01Z</time>
      </trkpt>
      <trkpt lat="40.30007" lon="-7.79678">
        <ele>325.836</ele>
        <time>2020-09-27T16:01:02Z</time>
      </trkpt>
      <trkpt lat="40.3" lon="-7.7969">
        <ele>325.958</ele>
        <time>2020-09-27T16:01:03Z</time>
      </trkpt>
      <trkpt lat="40.29996" lon="-7.79706">
        <ele>326.076</ele>
        <time>2020-09-27T16:01:04Z</time>
      </trkpt>
      <trkpt lat="40.3" lon="-7.79744">
        <ele>326.366</ele>
        <time>2020-09-27T16:01:06Z</time>
      </trkpt>
      <trkpt lat="40.30004" lon="-7.79765">
        <ele>326.746</ele>
        <time>2020-09-27T16:01:07Z</time>
      </trkpt>
      <trkpt lat="40.30008" lon="-7.79807">
        <ele>326.794</ele>
        <time>2020-09-27T16:01:09Z</time>
      </trkpt>
      <trkpt lat="40.29997" lon="-7.79847">
        <ele>326.726</ele>
        <time>2020-09-27T16:01:11Z</time>
      </trkpt>
      <trkpt lat="40.29989" lon="-7.79865">
        <ele>326.747</ele>
        <time>2020-09-27T16:01:12Z</time>
      </trkpt>
      <trkpt lat="40.29974" lon="-7.799">
        <ele>326.211</ele>
        <time>2020-09-27T16:01:14Z</time>
      </trkpt>
      <trkpt lat="40.29963" lon="-7.79914">
        <ele>325.608</ele>
        <time>2020-09-27T16:01:15Z</time>
      </trkpt>
      <trkpt lat="40.29937" lon="-7.79937">
        <ele>324.977</ele>
        <time>2020-09-27T16:01:17Z</time>
      </trkpt>
      <trkpt lat="40.29907" lon="-7.79956">
        <ele>323.989</ele>
        <time>2020-09-27T16:01:19Z</time>
      </trkpt>
      <trkpt lat="40.29877" lon="-7.79969">
        <ele>322.817</ele>
        <time>2020-09-27T16:01:21Z</time>
      </trkpt>
      <trkpt lat="40.29862" lon="-7.79974">
        <ele>321.859</ele>
        <time>2020-09-27T16:01:22Z</time>
      </trkpt>
      <trkpt lat="40.29849" lon="-7.79982">
        <ele>320.997</ele>
        <time>2020-09-27T16:01:23Z</time>
      </trkpt>
      <trkpt lat="40.2984" lon="-7.79996">
        <ele>320.227</ele>
        <time>2020-09-27T16:01:24Z</time>
      </trkpt>
      <trkpt lat="40.29832" lon="-7.80034">
        <ele>319.887</ele>
        <time>2020-09-27T16:01:26Z</time>
      </trkpt>
      <trkpt lat="40.29835" lon="-7.80055">
        <ele>319.685</ele>
        <time>2020-09-27T16:01:27Z</time>
      </trkpt>
      <trkpt lat="40.29847" lon="-7.80102">
        <ele>323.654</ele>
        <time>2020-09-27T16:01:29Z</time>
      </trkpt>
      <trkpt lat="40.29862" lon="-7.80147">
        <ele>327.656</ele>
        <time>2020-09-27T16:01:31Z</time>
      </trkpt>
      <trkpt lat="40.29868" lon="-7.80169">
        <ele>330.511</ele>
        <time>2020-09-27T16:01:32Z</time>
      </trkpt>
      <trkpt lat="40.29872" lon="-7.80191">
        <ele>330.808</ele>
        <time>2020-09-27T16:01:33Z</time>
      </trkpt>
      <trkpt lat="40.29877" lon="-7.80214">
        <ele>330.05</ele>
        <time>2020-09-27T16:01:34Z</time>
      </trkpt>
      <trkpt lat="40.29892" lon="-7.8026">
        <ele>328.182</ele>
        <time>2020-09-27T16:01:36Z</time>
      </trkpt>
      <trkpt lat="40.29907" lon="-7.80307">
        <ele>325.89</ele>
        <time>2020-09-27T16:01:38Z</time>
      </trkpt>
      <trkpt lat="40.29921" lon="-7.80353">
        <ele>323.712</ele>
        <time>2020-09-27T16:01:40Z</time>
      </trkpt>
      <trkpt lat="40.29943" lon="-7.8039">
        <ele>321.77</ele>
        <time>2020-09-27T16:01:42Z</time>
      </trkpt>
      <trkpt lat="40.29951" lon="-7.80413">
        <ele>320.37</ele>
        <time>2020-09-27T16:01:43Z</time>
      </trkpt>
      <trkpt lat="40.29957" lon="-7.80438">
        <ele>319.27</ele>
        <time>2020-09-27T16:01:44Z</time>
      </trkpt>
      <trkpt lat="40.29966" lon="-7.80494">
        <ele>318.138</ele>
        <time>2020-09-27T16:01:46Z</time>
      </trkpt>
      <trkpt lat="40.29968" lon="-7.80526">
        <ele>317.216</ele>
        <time>2020-09-27T16:01:47Z</time>
      </trkpt>
      <trkpt lat="40.29966" lon="-7.80588">
        <ele>316.276</ele>
        <time>2020-09-27T16:01:49Z</time>
      </trkpt>
      <trkpt lat="40.29947" lon="-7.80646">
        <ele>315.513</ele>
        <time>2020-09-27T16:01:51Z</time>
      </trkpt>
      <trkpt lat="40.29923" lon="-7.80691">
        <ele>315.008</ele>
        <time>2020-09-27T16:01:53Z</time>
      </trkpt>
      <trkpt lat="40.29911" lon="-7.80708">
        <ele>314.726</ele>
        <time>2020-09-27T16:01:54Z</time>
      </trkpt>
      <trkpt lat="40.29906" lon="-7.80741">
        <ele>314.628</ele>
        <time>2020-09-27T16:01:56Z</time>
      </trkpt>
      <trkpt lat="40.29928" lon="-7.80773">
        <ele>314.416</ele>
        <time>2020-09-27T16:01:58Z</time>
      </trkpt>
      <trkpt lat="40.29944" lon="-7.80784">
        <ele>314.158</ele>
        <time>2020-09-27T16:01:59Z</time>
      </trkpt>
      <trkpt lat="40.29977" lon="-7.80782">
        <ele>314.086</ele>
        <time>2020-09-27T16:02:01Z</time>
      </trkpt>
      <trkpt lat="40.29994" lon="-7.8077">
        <ele>314.056</ele>
        <time>2020-09-27T16:02:02Z</time>
      </trkpt>
      <trkpt lat="40.30013" lon="-7.80755">
        <ele>318.016</ele>
        <time>2020-09-27T16:02:03Z</time>
      </trkpt>
      <trkpt lat="40.30033" lon="-7.8074">
        <ele>322.034</ele>
        <time>2020-09-27T16:02:04Z</time>
      </trkpt>
      <trkpt lat="40.30053" lon="-7.80728">
        <ele>324.683</ele>
        <time>2020-09-27T16:02:05Z</time>
      </trkpt>
      <trkpt lat="40.30091" lon="-7.80719">
        <ele>323.425</ele>
        <time>2020-09-27T16:02:07Z</time>
      </trkpt>
      <trkpt lat="40.30109" lon="-7.80724">
        <ele>322.017</ele>
        <time>2020-09-27T16:02:08Z</time>
      </trkpt>
      <trkpt lat="40.30136" lon="-7.80746">
        <ele>320.108</ele>
        <time>2020-09-27T16:02:10Z</time>
      </trkpt>
      <trkpt lat="40.30144" lon="-7.80761">
        <ele>318.693</ele>
        <time>2020-09-27T16:02:11Z</time>
      </trkpt>
      <trkpt lat="40.30148" lon="-7.8078">
        <ele>317.585</ele>
        <time>2020-09-27T16:02:12Z</time>
      </trkpt>
      <trkpt lat="40.30162" lon="-7.80819">
        <ele>316.833</ele>
        <time>2020-09-27T16:02:14Z</time>
      </trkpt>
      <trkpt lat="40.30174" lon="-7.80837">
        <ele>316.465</ele>
        <time>2020-09-27T16:02:15Z</time>
      </trkpt>
      <trkpt lat="40.30191" lon="-7.80871">
        <ele>315.823</ele>
        <time>2020-09-27T16:02:17Z</time>
      </trkpt>
      <trkpt lat="40.30195" lon="-7.80905">
        <ele>315.093</ele>
        <time>2020-09-27T16:02:19Z</time>
      </trkpt>
      <trkpt lat="40.30189" lon="-7.80944">
        <ele>313.343</ele>
        <time>2020-09-27T16:02:21Z</time>
      </trkpt>
      <trkpt lat="40.30179" lon="-7.80967">
        <ele>311.811</ele>
        <time>2020-09-27T16:02:22Z</time>
      </trkpt>
      <trkpt lat="40.30139" lon="-7.8101">
        <ele>311.467</ele>
        <time>2020-09-27T16:02:24Z</time>
      </trkpt>
      <trkpt lat="40.30119" lon="-7.8103">
        <ele>311.381</ele>
        <time>2020-09-27T16:02:25Z</time>
      </trkpt>
      <trkpt lat="40.30076" lon="-7.81067">
        <ele>311.519</ele>
        <time>2020-09-27T16:02:27Z</time>
      </trkpt>
      <trkpt lat="40.30037" lon="-7.81104">
        <ele>311.908</ele>
        <time>2020-09-27T16:02:29Z</time>
      </trkpt>
      <trkpt lat="40.3002" lon="-7.81123">
        <ele>312.291</ele>
        <time>2020-09-27T16:02:30Z</time>
      </trkpt>
      <trkpt lat="40.29993" lon="-7.81159">
        <ele>312.573</ele>
        <time>2020-09-27T16:02:32Z</time>
      </trkpt>
      <trkpt lat="40.29985" lon="-7.81176">
        <ele>312.981</ele>
        <time>2020-09-27T16:02:33Z</time>
      </trkpt>
      <trkpt lat="40.29984" lon="-7.81211">
        <ele>313.473</ele>
        <time>2020-09-27T16:02:35Z</time>
      </trkpt>
      <trkpt lat="40.2999" lon="-7.8123">
        <ele>313.961</ele>
        <time>2020-09-27T16:02:36Z</time>
      </trkpt>
      <trkpt lat="40.30006" lon="-7.81273">
        <ele>313.851</ele>
        <time>2020-09-27T16:02:38Z</time>
      </trkpt>
      <trkpt lat="40.3001" lon="-7.813">
        <ele>313.771</ele>
        <time>2020-09-27T16:02:39Z</time>
      </trkpt>
      <trkpt lat="40.30012" lon="-7.81361">
        <ele>313.799</ele>
        <time>2020-09-27T16:02:41Z</time>
      </trkpt>
      <trkpt lat="40.30016" lon="-7.81425">
        <ele>313.681</ele>
        <time>2020-09-27T16:02:43Z</time>
      </trkpt>
      <trkpt lat="40.30019" lon="-7.81456">
        <ele>313.561</ele>
        <time>2020-09-27T16:02:44Z</time>
      </trkpt>
      <trkpt lat="40.30019" lon="-7.81485">
        <ele>313.517</ele>
        <time>2020-09-27T16:02:45Z</time>
      </trkpt>
      <trkpt lat="40.30018" lon="-7.81511">
        <ele>313.508</ele>
        <time>2020-09-27T16:02:46Z</time>
      </trkpt>
      <trkpt lat="40.3002" lon="-7.81532">
        <ele>313.653</ele>
        <time>2020-09-27T16:02:47Z</time>
      </trkpt>
      <trkpt lat="40.30037" lon="-7.8156">
        <ele>313.745</ele>
        <time>2020-09-27T16:02:49Z</time>
      </trkpt>
      <trkpt lat="40.30067" lon="-7.81575">
        <ele>313.673</ele>
        <time>2020-09-27T16:02:51Z</time>
      </trkpt>
      <trkpt lat="40.30085" lon="-7.81581">
        <ele>313.565</ele>
        <time>2020-09-27T16:02:52Z</time>
      </trkpt>
      <trkpt lat="40.30125" lon="-7.81584">
        <ele>313.823</ele>
        <time>2020-09-27T16:02:54Z</time>
      </trkpt>
      <trkpt lat="40.30166" lon="-7.81566">
        <ele>313.843</ele>
        <time>2020-09-27T16:02:56Z</time>
      </trkpt>
      <trkpt lat="40.30184" lon="-7.81557">
        <ele>313.733</ele>
        <time>2020-09-27T16:02:57Z</time>
      </trkpt>
      <trkpt lat="40.30218" lon="-7.81555">
        <ele>313.591</ele>
        <time>2020-09-27T16:02:59Z</time>
      </trkpt>
      <trkpt lat="40.30232" lon="-7.81567">
        <ele>313.258</ele>
        <time>2020-09-27T16:03:00Z</time>
      </trkpt>
      <trkpt lat="40.30246" lon="-7.81589">
        <ele>312.952</ele>
        <time>2020-09-27T16:03:01Z</time>
      </trkpt>
      <trkpt lat="40.30259" lon="-7.81613">
        <ele>312.417</ele>
        <time>2020-09-27T16:03:02Z</time>
      </trkpt>
      <trkpt lat="40.30279" lon="-7.81664">
        <ele>311.608</ele>
        <time>2020-09-27T16:03:04Z</time>
      </trkpt>
      <trkpt lat="40.30283" lon="-7.81689">
        <ele>311.38</ele>
        <time>2020-09-27T16:03:05Z</time>
      </trkpt>
      <trkpt lat="40.30285" lon="-7.81711">
        <ele>311.052</ele>
        <time>2020-09-27T16:03:06Z</time>
      </trkpt>
      <trkpt lat="40.30301" lon="-7.81739">
        <ele>310.72</ele>
        <time>2020-09-27T16:03:08Z</time>
      </trkpt>
      <trkpt lat="40.30316" lon="-7.81745">
        <ele>310.612</ele>
        <time>2020-09-27T16:03:09Z</time>
      </trkpt>
      <trkpt lat="40.30346" lon="-7.81755">
        <ele>310.65</ele>
        <time>2020-09-27T16:03:11Z</time>
      </trkpt>
      <trkpt lat="40.30356" lon="-7.81764">
        <ele>310.56</ele>
        <time>2020-09-27T16:03:12Z</time>
      </trkpt>
      <trkpt lat="40.30362" lon="-7.81776">
        <ele>310.45</ele>
        <time>2020-09-27T16:03:13Z</time>
      </trkpt>
      <trkpt lat="40.30363" lon="-7.8179">
        <ele>310.398</ele>
        <time>2020-09-27T16:03:14Z</time>
      </trkpt>
      <trkpt lat="40.3035" lon="-7.81825">
        <ele>310.114</ele>
        <time>2020-09-27T16:03:16Z</time>
      </trkpt>
      <trkpt lat="40.30331" lon="-7.81837">
        <ele>311.054</ele>
        <time>2020-09-27T16:03:17Z</time>
      </trkpt>
      <trkpt lat="40.3031" lon="-7.81847">
        <ele>311.609</ele>
        <time>2020-09-27T16:03:18Z</time>
      </trkpt>
      <trkpt lat="40.30293" lon="-7.81861">
        <ele>312.108</ele>
        <time>2020-09-27T16:03:19Z</time>
      </trkpt>
      <trkpt lat="40.30268" lon="-7.81894">
        <ele>313.126</ele>
        <time>2020-09-27T16:03:21Z</time>
      </trkpt>
      <trkpt lat="40.30263" lon="-7.81911">
        <ele>314.128</ele>
        <time>2020-09-27T16:03:22Z</time>
      </trkpt>
      <trkpt lat="40.30272" lon="-7.81942">
        <ele>315.236</ele>
        <time>2020-09-27T16:03:24Z</time>
      </trkpt>
      <trkpt lat="40.30279" lon="-7.8196">
        <ele>316.038</ele>
        <time>2020-09-27T16:03:25Z</time>
      </trkpt>
      <trkpt lat="40.30283" lon="-7.81983">
        <ele>316.646</ele>
        <time>2020-09-27T16:03:26Z</time>
      </trkpt>
      <trkpt lat="40.30285" lon="-7.82009">
        <ele>317.376</ele>
        <time>2020-09-27T16:03:27Z</time>
      </trkpt>
      <trkpt lat="40.30287" lon="-7.82037">
        <ele>317.876</ele>
        <time>2020-09-27T16:03:28Z</time>
      </trkpt>
      <trkpt lat="40.30289" lon="-7.82064">
        <ele>318.434</ele>
        <time>2020-09-27T16:03:29Z</time>
      </trkpt>
      <trkpt lat="40.30288" lon="-7.82115">
        <ele>319.548</ele>
        <time>2020-09-27T16:03:31Z</time>
      </trkpt>
      <trkpt lat="40.30283" lon="-7.82157">
        <ele>320.661</ele>
        <time>2020-09-27T16:03:33Z</time>
      </trkpt>
      <trkpt lat="40.30274" lon="-7.82186">
        <ele>321.417</ele>
        <time>2020-09-27T16:03:35Z</time>
      </trkpt>
      <trkpt lat="40.30264" lon="-7.82203">
        <ele>321.808</ele>
        <time>2020-09-27T16:03:37Z</time>
      </trkpt>
      <trkpt lat="40.30252" lon="-7.82217">
        <ele>322.399</ele>
        <time>2020-09-27T16:03:39Z</time>
      </trkpt>
      <trkpt lat="40.30243" lon="-7.82234">
        <ele>323.061</ele>
        <time>2020-09-27T16:03:41Z</time>
      </trkpt>
      <trkpt lat="40.30241" lon="-7.82247">
        <ele>323.779</ele>
        <time>2020-09-27T16:03:43Z</time>
      </trkpt>
      <trkpt lat="40.30242" lon="-7.82257">
        <ele>324.251</ele>
        <time>2020-09-27T16:03:45Z</time>
      </trkpt>
      <trkpt lat="40.30251" lon="-7.82274">
        <ele>324.669</ele>
        <time>2020-09-27T16:03:47Z</time>
      </trkpt>
      <trkpt lat="40.30262" lon="-7.82281">
        <ele>325.079</ele>
        <time>2020-09-27T16:03:48Z</time>
      </trkpt>
      <trkpt lat="40.30277" lon="-7.82282">
        <ele>325.129</ele>
        <time>2020-09-27T16:03:49Z</time>
      </trkpt>
      <trkpt lat="40.30313" lon="-7.82276">
        <ele>324.867</ele>
        <time>2020-09-27T16:03:51Z</time>
      </trkpt>
      <trkpt lat="40.30332" lon="-7.82272">
        <ele>324.533</ele>
        <time>2020-09-27T16:03:52Z</time>
      </trkpt>
      <trkpt lat="40.30374" lon="-7.82266">
        <ele>324.023</ele>
        <time>2020-09-27T16:03:54Z</time>
      </trkpt>
      <trkpt lat="40.30411" lon="-7.82259">
        <ele>323.715</ele>
        <time>2020-09-27T16:03:56Z</time>
      </trkpt>
      <trkpt lat="40.30426" lon="-7.82261">
        <ele>323.408</ele>
        <time>2020-09-27T16:03:57Z</time>
      </trkpt>
      <trkpt lat="40.30449" lon="-7.8228">
        <ele>322.768</ele>
        <time>2020-09-27T16:03:59Z</time>
      </trkpt>
      <trkpt lat="40.30456" lon="-7.82292">
        <ele>322.04</ele>
        <time>2020-09-27T16:04:00Z</time>
      </trkpt>
      <trkpt lat="40.30459" lon="-7.82316">
        <ele>320.478</ele>
        <time>2020-09-27T16:04:02Z</time>
      </trkpt>
      <trkpt lat="40.30458" lon="-7.82332">
        <ele>318.66</ele>
        <time>2020-09-27T16:04:03Z</time>
      </trkpt>
      <trkpt lat="40.30451" lon="-7.82391">
        <ele>316.458</ele>
        <time>2020-09-27T16:04:05Z</time>
      </trkpt>
      <trkpt lat="40.3045" lon="-7.82424">
        <ele>314.538</ele>
        <time>2020-09-27T16:04:06Z</time>
      </trkpt>
      <trkpt lat="40.30449" lon="-7.82493">
        <ele>312.818</ele>
        <time>2020-09-27T16:04:08Z</time>
      </trkpt>
      <trkpt lat="40.30448" lon="-7.82527">
        <ele>311.546</ele>
        <time>2020-09-27T16:04:09Z</time>
      </trkpt>
      <trkpt lat="40.30448" lon="-7.82561">
        <ele>310.622</ele>
        <time>2020-09-27T16:04:10Z</time>
      </trkpt>
      <trkpt lat="40.30448" lon="-7.82594">
        <ele>309.962</ele>
        <time>2020-09-27T16:04:11Z</time>
      </trkpt>
      <trkpt lat="40.30448" lon="-7.82626">
        <ele>309.408</ele>
        <time>2020-09-27T16:04:12Z</time>
      </trkpt>
      <trkpt lat="40.3044" lon="-7.82687">
        <ele>308.708</ele>
        <time>2020-09-27T16:04:14Z</time>
      </trkpt>
      <trkpt lat="40.30431" lon="-7.82718">
        <ele>308.017</ele>
        <time>2020-09-27T16:04:15Z</time>
      </trkpt>
      <trkpt lat="40.30413" lon="-7.82779">
        <ele>307.069</ele>
        <time>2020-09-27T16:04:17Z</time>
      </trkpt>
      <trkpt lat="40.30401" lon="-7.82808">
        <ele>306.297</ele>
        <time>2020-09-27T16:04:18Z</time>
      </trkpt>
      <trkpt lat="40.30385" lon="-7.82835">
        <ele>305.639</ele>
        <time>2020-09-27T16:04:19Z</time>
      </trkpt>
      <trkpt lat="40.30368" lon="-7.8286">
        <ele>305.057</ele>
        <time>2020-09-27T16:04:20Z</time>
      </trkpt>
      <trkpt lat="40.30329" lon="-7.829">
        <ele>305.687</ele>
        <time>2020-09-27T16:04:22Z</time>
      </trkpt>
      <trkpt lat="40.30294" lon="-7.82929">
        <ele>306.137</ele>
        <time>2020-09-27T16:04:24Z</time>
      </trkpt>
      <trkpt lat="40.30267" lon="-7.82969">
        <ele>306.595</ele>
        <time>2020-09-27T16:04:26Z</time>
      </trkpt>
      <trkpt lat="40.30247" lon="-7.83001">
        <ele>306.743</ele>
        <time>2020-09-27T16:04:28Z</time>
      </trkpt>
      <trkpt lat="40.30243" lon="-7.83016">
        <ele>307.064</ele>
        <time>2020-09-27T16:04:29Z</time>
      </trkpt>
      <trkpt lat="40.30248" lon="-7.83046">
        <ele>307.41</ele>
        <time>2020-09-27T16:04:31Z</time>
      </trkpt>
      <trkpt lat="40.30254" lon="-7.83059">
        <ele>307.908</ele>
        <time>2020-09-27T16:04:32Z</time>
      </trkpt>
      <trkpt lat="40.30286" lon="-7.83044">
        <ele>307.719</ele>
        <time>2020-09-27T16:04:34Z</time>
      </trkpt>
      <trkpt lat="40.30302" lon="-7.83036">
        <ele>307.511</ele>
        <time>2020-09-27T16:04:35Z</time>
      </trkpt>
      <trkpt lat="40.30328" lon="-7.83045">
        <ele>307.449</ele>
        <time>2020-09-27T16:04:37Z</time>
      </trkpt>
      <trkpt lat="40.30333" lon="-7.83059">
        <ele>307.521</ele>
        <time>2020-09-27T16:04:38Z</time>
      </trkpt>
      <trkpt lat="40.30335" lon="-7.83076">
        <ele>307.759</ele>
        <time>2020-09-27T16:04:39Z</time>
      </trkpt>
      <trkpt lat="40.30326" lon="-7.83092">
        <ele>307.959</ele>
        <time>2020-09-27T16:04:40Z</time>
      </trkpt>
      <trkpt lat="40.30312" lon="-7.83104">
        <ele>307.929</ele>
        <time>2020-09-27T16:04:41Z</time>
      </trkpt>
      <trkpt lat="40.30291" lon="-7.83131">
        <ele>308.047</ele>
        <time>2020-09-27T16:04:43Z</time>
      </trkpt>
      <trkpt lat="40.30284" lon="-7.8317">
        <ele>308.385</ele>
        <time>2020-09-27T16:04:45Z</time>
      </trkpt>
      <trkpt lat="40.30293" lon="-7.83218">
        <ele>308.589</ele>
        <time>2020-09-27T16:04:47Z</time>
      </trkpt>
      <trkpt lat="40.30301" lon="-7.83267">
        <ele>308.417</ele>
        <time>2020-09-27T16:04:49Z</time>
      </trkpt>
      <trkpt lat="40.30302" lon="-7.8329">
        <ele>308.108</ele>
        <time>2020-09-27T16:04:50Z</time>
      </trkpt>
      <trkpt lat="40.30299" lon="-7.83313">
        <ele>308.053</ele>
        <time>2020-09-27T16:04:51Z</time>
      </trkpt>
      <trkpt lat="40.30288" lon="-7.83352">
        <ele>308.125</ele>
        <time>2020-09-27T16:04:53Z</time>
      </trkpt>
      <trkpt lat="40.30279" lon="-7.83384">
        <ele>308.273</ele>
        <time>2020-09-27T16:04:55Z</time>
      </trkpt>
      <trkpt lat="40.30278" lon="-7.83406">
        <ele>307.945</ele>
        <time>2020-09-27T16:04:57Z</time>
      </trkpt>
      <trkpt lat="40.30284" lon="-7.83429">
        <ele>307.483</ele>
        <time>2020-09-27T16:04:59Z</time>
      </trkpt>
      <trkpt lat="40.30291" lon="-7.83441">
        <ele>306.913</ele>
        <time>2020-09-27T16:05:00Z</time>
      </trkpt>
      <trkpt lat="40.30312" lon="-7.83457">
        <ele>306.283</ele>
        <time>2020-09-27T16:05:02Z</time>
      </trkpt>
      <trkpt lat="40.30325" lon="-7.83462">
        <ele>305.771</ele>
        <time>2020-09-27T16:05:03Z</time>
      </trkpt>
      <trkpt lat="40.30339" lon="-7.83465">
        <ele>305.417</ele>
        <time>2020-09-27T16:05:04Z</time>
      </trkpt>
      <trkpt lat="40.30367" lon="-7.83461">
        <ele>305.387</ele>
        <time>2020-09-27T16:05:06Z</time>
      </trkpt>
      <trkpt lat="40.3038" lon="-7.83454">
        <ele>305.215</ele>
        <time>2020-09-27T16:05:07Z</time>
      </trkpt>
      <trkpt lat="40.30392" lon="-7.83445">
        <ele>305.308</ele>
        <time>2020-09-27T16:05:08Z</time>
      </trkpt>
      <trkpt lat="40.30417" lon="-7.83431">
        <ele>304.946</ele>
        <time>2020-09-27T16:05:10Z</time>
      </trkpt>
      <trkpt lat="40.30443" lon="-7.83434">
        <ele>304.618</ele>
        <time>2020-09-27T16:05:12Z</time>
      </trkpt>
      <trkpt lat="40.30471" lon="-7.83452">
        <ele>304.246</ele>
        <time>2020-09-27T16:05:14Z</time>
      </trkpt>
      <trkpt lat="40.30499" lon="-7.83477">
        <ele>303.468</ele>
        <time>2020-09-27T16:05:16Z</time>
      </trkpt>
      <trkpt lat="40.30523" lon="-7.83515">
        <ele>303.026</ele>
        <time>2020-09-27T16:05:18Z</time>
      </trkpt>
      <trkpt lat="40.30534" lon="-7.83536">
        <ele>302.746</ele>
        <time>2020-09-27T16:05:19Z</time>
      </trkpt>
      <trkpt lat="40.30549" lon="-7.8358">
        <ele>302.566</ele>
        <time>2020-09-27T16:05:21Z</time>
      </trkpt>
      <trkpt lat="40.30553" lon="-7.83606">
        <ele>302.444</ele>
        <time>2020-09-27T16:05:22Z</time>
      </trkpt>
      <trkpt lat="40.30555" lon="-7.83633">
        <ele>302.322</ele>
        <time>2020-09-27T16:05:23Z</time>
      </trkpt>
      <trkpt lat="40.30554" lon="-7.8366">
        <ele>302.362</ele>
        <time>2020-09-27T16:05:24Z</time>
      </trkpt>
      <trkpt lat="40.30551" lon="-7.83687">
        <ele>302.608</ele>
        <time>2020-09-27T16:05:25Z</time>
      </trkpt>
      <trkpt lat="40.30547" lon="-7.83716">
        <ele>303.008</ele>
        <time>2020-09-27T16:05:26Z</time>
      </trkpt>
      <trkpt lat="40.30541" lon="-7.83774">
        <ele>303.687</ele>
        <time>2020-09-27T16:05:28Z</time>
      </trkpt>
      <trkpt lat="40.30535" lon="-7.83834">
        <ele>304.479</ele>
        <time>2020-09-27T16:05:30Z</time>
      </trkpt>
      <trkpt lat="40.30533" lon="-7.83863">
        <ele>304.887</ele>
        <time>2020-09-27T16:05:31Z</time>
      </trkpt>
      <trkpt lat="40.30532" lon="-7.83891">
        <ele>305.129</ele>
        <time>2020-09-27T16:05:32Z</time>
      </trkpt>
      <trkpt lat="40.30529" lon="-7.8394">
        <ele>305.197</ele>
        <time>2020-09-27T16:05:34Z</time>
      </trkpt>
      <trkpt lat="40.30521" lon="-7.83962">
        <ele>305.087</ele>
        <time>2020-09-27T16:05:35Z</time>
      </trkpt>
      <trkpt lat="40.30509" lon="-7.83984">
        <ele>305.147</ele>
        <time>2020-09-27T16:05:36Z</time>
      </trkpt>
      <trkpt lat="40.30498" lon="-7.84007">
        <ele>305.375</ele>
        <time>2020-09-27T16:05:37Z</time>
      </trkpt>
      <trkpt lat="40.30476" lon="-7.8405">
        <ele>305.564</ele>
        <time>2020-09-27T16:05:39Z</time>
      </trkpt>
      <trkpt lat="40.3047" lon="-7.84074">
        <ele>305.706</ele>
        <time>2020-09-27T16:05:40Z</time>
      </trkpt>
      <trkpt lat="40.30458" lon="-7.84126">
        <ele>305.716</ele>
        <time>2020-09-27T16:05:42Z</time>
      </trkpt>
      <trkpt lat="40.30448" lon="-7.84151">
        <ele>305.708</ele>
        <time>2020-09-27T16:05:43Z</time>
      </trkpt>
      <trkpt lat="40.30435" lon="-7.84173">
        <ele>305.621</ele>
        <time>2020-09-27T16:05:44Z</time>
      </trkpt>
      <trkpt lat="40.30423" lon="-7.84194">
        <ele>305.463</ele>
        <time>2020-09-27T16:05:45Z</time>
      </trkpt>
      <trkpt lat="40.30397" lon="-7.84225">
        <ele>305.381</ele>
        <time>2020-09-27T16:05:47Z</time>
      </trkpt>
      <trkpt lat="40.30371" lon="-7.84257">
        <ele>305.163</ele>
        <time>2020-09-27T16:05:49Z</time>
      </trkpt>
      <trkpt lat="40.30359" lon="-7.84278">
        <ele>305.131</ele>
        <time>2020-09-27T16:05:50Z</time>
      </trkpt>
      <trkpt lat="40.30338" lon="-7.84327">
        <ele>304.721</ele>
        <time>2020-09-27T16:05:52Z</time>
      </trkpt>
      <trkpt lat="40.30317" lon="-7.8437">
        <ele>304.561</ele>
        <time>2020-09-27T16:05:54Z</time>
      </trkpt>
      <trkpt lat="40.30309" lon="-7.84415">
        <ele>304.439</ele>
        <time>2020-09-27T16:05:56Z</time>
      </trkpt>
      <trkpt lat="40.30307" lon="-7.84465">
        <ele>304.292</ele>
        <time>2020-09-27T16:05:58Z</time>
      </trkpt>
      <trkpt lat="40.30314" lon="-7.84507">
        <ele>304.073</ele>
        <time>2020-09-27T16:06:00Z</time>
      </trkpt>
      <trkpt lat="40.30325" lon="-7.84521">
        <ele>303.92</ele>
        <time>2020-09-27T16:06:01Z</time>
      </trkpt>
      <trkpt lat="40.30358" lon="-7.84541">
        <ele>303.308</ele>
        <time>2020-09-27T16:06:03Z</time>
      </trkpt>
      <trkpt lat="40.30379" lon="-7.84551">
        <ele>302.594</ele>
        <time>2020-09-27T16:06:04Z</time>
      </trkpt>
      <trkpt lat="40.30423" lon="-7.84573">
        <ele>301.146</ele>
        <time>2020-09-27T16:06:06Z</time>
      </trkpt>
      <trkpt lat="40.30473" lon="-7.84597">
        <ele>299.334</ele>
        <time>2020-09-27T16:06:08Z</time>
      </trkpt>
      <trkpt lat="40.30497" lon="-7.84605">
        <ele>298.126</ele>
        <time>2020-09-27T16:06:09Z</time>
      </trkpt>
      <trkpt lat="40.30521" lon="-7.8461">
        <ele>297.364</ele>
        <time>2020-09-27T16:06:10Z</time>
      </trkpt>
      <trkpt lat="40.30571" lon="-7.84615">
        <ele>296.844</ele>
        <time>2020-09-27T16:06:12Z</time>
      </trkpt>
      <trkpt lat="40.30619" lon="-7.84636">
        <ele>296.554</ele>
        <time>2020-09-27T16:06:14Z</time>
      </trkpt>
      <trkpt lat="40.30665" lon="-7.84666">
        <ele>296.682</ele>
        <time>2020-09-27T16:06:16Z</time>
      </trkpt>
      <trkpt lat="40.30685" lon="-7.84682">
        <ele>297.083</ele>
        <time>2020-09-27T16:06:17Z</time>
      </trkpt>
      <trkpt lat="40.30718" lon="-7.84727">
        <ele>298.125</ele>
        <time>2020-09-27T16:06:19Z</time>
      </trkpt>
      <trkpt lat="40.30731" lon="-7.84751">
        <ele>299.217</ele>
        <time>2020-09-27T16:06:20Z</time>
      </trkpt>
      <trkpt lat="40.30746" lon="-7.84795">
        <ele>300.308</ele>
        <time>2020-09-27T16:06:22Z</time>
      </trkpt>
      <trkpt lat="40.30748" lon="-7.84843">
        <ele>301.433</ele>
        <time>2020-09-27T16:06:24Z</time>
      </trkpt>
      <trkpt lat="40.30745" lon="-7.8487">
        <ele>302.445</ele>
        <time>2020-09-27T16:06:25Z</time>
      </trkpt>
      <trkpt lat="40.30749" lon="-7.84891">
        <ele>303.573</ele>
        <time>2020-09-27T16:06:26Z</time>
      </trkpt>
      <trkpt lat="40.3077" lon="-7.84917">
        <ele>304.785</ele>
        <time>2020-09-27T16:06:28Z</time>
      </trkpt>
      <trkpt lat="40.3078" lon="-7.84928">
        <ele>305.583</ele>
        <time>2020-09-27T16:06:29Z</time>
      </trkpt>
      <trkpt lat="40.30789" lon="-7.84941">
        <ele>305.983</ele>
        <time>2020-09-27T16:06:30Z</time>
      </trkpt>
      <trkpt lat="40.30795" lon="-7.84968">
        <ele>306.143</ele>
        <time>2020-09-27T16:06:32Z</time>
      </trkpt>
      <trkpt lat="40.30793" lon="-7.84984">
        <ele>305.561</ele>
        <time>2020-09-27T16:06:33Z</time>
      </trkpt>
      <trkpt lat="40.30785" lon="-7.85004">
        <ele>305.746</ele>
        <time>2020-09-27T16:06:34Z</time>
      </trkpt>
      <trkpt lat="40.30776" lon="-7.85048">
        <ele>306.788</ele>
        <time>2020-09-27T16:06:36Z</time>
      </trkpt>
      <trkpt lat="40.30778" lon="-7.8507">
        <ele>306.916</ele>
        <time>2020-09-27T16:06:37Z</time>
      </trkpt>
      <trkpt lat="40.30767" lon="-7.85109">
        <ele>306.908</ele>
        <time>2020-09-27T16:06:39Z</time>
      </trkpt>
      <trkpt lat="40.30754" lon="-7.85123">
        <ele>306.949</ele>
        <time>2020-09-27T16:06:40Z</time>
      </trkpt>
      <trkpt lat="40.30741" lon="-7.85138">
        <ele>307.121</ele>
        <time>2020-09-27T16:06:41Z</time>
      </trkpt>
      <trkpt lat="40.30729" lon="-7.85182">
        <ele>307.699</ele>
        <time>2020-09-27T16:06:43Z</time>
      </trkpt>
      <trkpt lat="40.3072" lon="-7.85236">
        <ele>308.731</ele>
        <time>2020-09-27T16:06:45Z</time>
      </trkpt>
      <trkpt lat="40.30696" lon="-7.85286">
        <ele>309.919</ele>
        <time>2020-09-27T16:06:47Z</time>
      </trkpt>
      <trkpt lat="40.3066" lon="-7.85323">
        <ele>311.069</ele>
        <time>2020-09-27T16:06:49Z</time>
      </trkpt>
      <trkpt lat="40.30641" lon="-7.85336">
        <ele>311.839</ele>
        <time>2020-09-27T16:06:50Z</time>
      </trkpt>
      <trkpt lat="40.3062" lon="-7.85345">
        <ele>312.367</ele>
        <time>2020-09-27T16:06:51Z</time>
      </trkpt>
      <trkpt lat="40.30598" lon="-7.85349">
        <ele>312.316</ele>
        <time>2020-09-27T16:06:52Z</time>
      </trkpt>
      <trkpt lat="40.3056" lon="-7.85358">
        <ele>311.576</ele>
        <time>2020-09-27T16:06:54Z</time>
      </trkpt>
      <trkpt lat="40.30544" lon="-7.85367">
        <ele>310.713</ele>
        <time>2020-09-27T16:06:55Z</time>
      </trkpt>
      <trkpt lat="40.30522" lon="-7.85405">
        <ele>309.808</ele>
        <time>2020-09-27T16:06:57Z</time>
      </trkpt>
      <trkpt lat="40.30513" lon="-7.85458">
        <ele>309.086</ele>
        <time>2020-09-27T16:06:59Z</time>
      </trkpt>
      <trkpt lat="40.30522" lon="-7.85513">
        <ele>308.628</ele>
        <time>2020-09-27T16:07:01Z</time>
      </trkpt>
      <trkpt lat="40.30533" lon="-7.85537">
        <ele>308.526</ele>
        <time>2020-09-27T16:07:02Z</time>
      </trkpt>
      <trkpt lat="40.30548" lon="-7.85559">
        <ele>308.578</ele>
        <time>2020-09-27T16:07:03Z</time>
      </trkpt>
      <trkpt lat="40.30567" lon="-7.85579">
        <ele>308.546</ele>
        <time>2020-09-27T16:07:04Z</time>
      </trkpt>
      <trkpt lat="40.30599" lon="-7.85614">
        <ele>308.626</ele>
        <time>2020-09-27T16:07:06Z</time>
      </trkpt>
      <trkpt lat="40.30611" lon="-7.8563">
        <ele>308.686</ele>
        <time>2020-09-27T16:07:07Z</time>
      </trkpt>
      <trkpt lat="40.30631" lon="-7.85671">
        <ele>309.484</ele>
        <time>2020-09-27T16:07:09Z</time>
      </trkpt>
      <trkpt lat="40.30642" lon="-7.85691">
        <ele>310.248</ele>
        <time>2020-09-27T16:07:10Z</time>
      </trkpt>
      <trkpt lat="40.30666" lon="-7.85722">
        <ele>310.661</ele>
        <time>2020-09-27T16:07:12Z</time>
      </trkpt>
      <trkpt lat="40.30677" lon="-7.85757">
        <ele>310.417</ele>
        <time>2020-09-27T16:07:14Z</time>
      </trkpt>
      <trkpt lat="40.30675" lon="-7.85778">
        <ele>309.908</ele>
        <time>2020-09-27T16:07:15Z</time>
      </trkpt>
      <trkpt lat="40.30654" lon="-7.85835">
        <ele>310.979</ele>
        <time>2020-09-27T16:07:17Z</time>
      </trkpt>
      <trkpt lat="40.30637" lon="-7.85875">
        <ele>312.471</ele>
        <time>2020-09-27T16:07:19Z</time>
      </trkpt>
      <trkpt lat="40.30639" lon="-7.85892">
        <ele>313.919</ele>
        <time>2020-09-27T16:07:20Z</time>
      </trkpt>
      <trkpt lat="40.30654" lon="-7.85923">
        <ele>315.431</ele>
        <time>2020-09-27T16:07:22Z</time>
      </trkpt>
      <trkpt lat="40.30655" lon="-7.85964">
        <ele>317.229</ele>
        <time>2020-09-27T16:07:24Z</time>
      </trkpt>
      <trkpt lat="40.30645" lon="-7.8599">
        <ele>318.919</ele>
        <time>2020-09-27T16:07:25Z</time>
      </trkpt>
      <trkpt lat="40.30635" lon="-7.86014">
        <ele>320.069</ele>
        <time>2020-09-27T16:07:26Z</time>
      </trkpt>
      <trkpt lat="40.3061" lon="-7.86043">
        <ele>321.337</ele>
        <time>2020-09-27T16:07:28Z</time>
      </trkpt>
      <trkpt lat="40.30594" lon="-7.86047">
        <ele>322.449</ele>
        <time>2020-09-27T16:07:29Z</time>
      </trkpt>
      <trkpt lat="40.30579" lon="-7.86047">
        <ele>323.402</ele>
        <time>2020-09-27T16:07:30Z</time>
      </trkpt>
      <trkpt lat="40.30551" lon="-7.86062">
        <ele>324.222</ele>
        <time>2020-09-27T16:07:32Z</time>
      </trkpt>
      <trkpt lat="40.30537" lon="-7.86073">
        <ele>324.108</ele>
        <time>2020-09-27T16:07:33Z</time>
      </trkpt>
      <trkpt lat="40.305" lon="-7.8608">
        <ele>323.719</ele>
        <time>2020-09-27T16:07:35Z</time>
      </trkpt>
      <trkpt lat="40.30482" lon="-7.86081">
        <ele>323.361</ele>
        <time>2020-09-27T16:07:36Z</time>
      </trkpt>
      <trkpt lat="40.30449" lon="-7.86091">
        <ele>322.629</ele>
        <time>2020-09-27T16:07:38Z</time>
      </trkpt>
      <trkpt lat="40.3043" lon="-7.86089">
        <ele>322.481</ele>
        <time>2020-09-27T16:07:39Z</time>
      </trkpt>
      <trkpt lat="40.30394" lon="-7.86072">
        <ele>322.059</ele>
        <time>2020-09-27T16:07:41Z</time>
      </trkpt>
      <trkpt lat="40.30361" lon="-7.86067">
        <ele>321.439</ele>
        <time>2020-09-27T16:07:43Z</time>
      </trkpt>
      <trkpt lat="40.30346" lon="-7.86074">
        <ele>320.869</ele>
        <time>2020-09-27T16:07:44Z</time>
      </trkpt>
      <trkpt lat="40.30333" lon="-7.86084">
        <ele>320.287</ele>
        <time>2020-09-27T16:07:45Z</time>
      </trkpt>
      <trkpt lat="40.30307" lon="-7.86105">
        <ele>319.585</ele>
        <time>2020-09-27T16:07:47Z</time>
      </trkpt>
      <trkpt lat="40.30283" lon="-7.86128">
        <ele>318.589</ele>
        <time>2020-09-27T16:07:49Z</time>
      </trkpt>
      <trkpt lat="40.30271" lon="-7.8614">
        <ele>317.617</ele>
        <time>2020-09-27T16:07:50Z</time>
      </trkpt>
      <trkpt lat="40.3025" lon="-7.86163">
        <ele>316.808</ele>
        <time>2020-09-27T16:07:52Z</time>
      </trkpt>
      <trkpt lat="40.3024" lon="-7.86173">
        <ele>316.153</ele>
        <time>2020-09-27T16:07:53Z</time>
      </trkpt>
      <trkpt lat="40.3022" lon="-7.86191">
        <ele>315.225</ele>
        <time>2020-09-27T16:07:55Z</time>
      </trkpt>
      <trkpt lat="40.3021" lon="-7.86198">
        <ele>314.523</ele>
        <time>2020-09-27T16:07:56Z</time>
      </trkpt>
      <trkpt lat="40.30191" lon="-7.86211">
        <ele>313.945</ele>
        <time>2020-09-27T16:07:58Z</time>
      </trkpt>
      <trkpt lat="40.30183" lon="-7.8622">
        <ele>313.453</ele>
        <time>2020-09-27T16:07:59Z</time>
      </trkpt>
      <trkpt lat="40.30173" lon="-7.86243">
        <ele>312.913</ele>
        <time>2020-09-27T16:08:01Z</time>
      </trkpt>
      <trkpt lat="40.30171" lon="-7.86255">
        <ele>312.353</ele>
        <time>2020-09-27T16:08:02Z</time>
      </trkpt>
      <trkpt lat="40.3017" lon="-7.86268">
        <ele>311.691</ele>
        <time>2020-09-27T16:08:03Z</time>
      </trkpt>
      <trkpt lat="40.30172" lon="-7.8628">
        <ele>310.963</ele>
        <time>2020-09-27T16:08:04Z</time>
      </trkpt>
      <trkpt lat="40.30179" lon="-7.86304">
        <ele>310.144</ele>
        <time>2020-09-27T16:08:06Z</time>
      </trkpt>
      <trkpt lat="40.30187" lon="-7.86316">
        <ele>309.318</ele>
        <time>2020-09-27T16:08:07Z</time>
      </trkpt>
      <trkpt lat="40.30208" lon="-7.86333">
        <ele>311.508</ele>
        <time>2020-09-27T16:08:09Z</time>
      </trkpt>
      <trkpt lat="40.3022" lon="-7.86337">
        <ele>311.731</ele>
        <time>2020-09-27T16:08:10Z</time>
      </trkpt>
      <trkpt lat="40.30244" lon="-7.86339">
        <ele>310.783</ele>
        <time>2020-09-27T16:08:12Z</time>
      </trkpt>
      <trkpt lat="40.30268" lon="-7.86335">
        <ele>309.531</ele>
        <time>2020-09-27T16:08:14Z</time>
      </trkpt>
      <trkpt lat="40.3028" lon="-7.8633">
        <ele>308.313</ele>
        <time>2020-09-27T16:08:15Z</time>
      </trkpt>
      <trkpt lat="40.30303" lon="-7.86318">
        <ele>307.061</ele>
        <time>2020-09-27T16:08:17Z</time>
      </trkpt>
      <trkpt lat="40.30314" lon="-7.86312">
        <ele>305.971</ele>
        <time>2020-09-27T16:08:18Z</time>
      </trkpt>
      <trkpt lat="40.30334" lon="-7.86304">
        <ele>309.991</ele>
        <time>2020-09-27T16:08:20Z</time>
      </trkpt>
      <trkpt lat="40.30343" lon="-7.86301">
        <ele>313.269</ele>
        <time>2020-09-27T16:08:21Z</time>
      </trkpt>
      <trkpt lat="40.30363" lon="-7.86306">
        <ele>311.657</ele>
        <time>2020-09-27T16:08:23Z</time>
      </trkpt>
      <trkpt lat="40.30392" lon="-7.86331">
        <ele>308.8</ele>
        <time>2020-09-27T16:08:25Z</time>
      </trkpt>
      <trkpt lat="40.30425" lon="-7.86367">
        <ele>305.92</ele>
        <time>2020-09-27T16:08:27Z</time>
      </trkpt>
      <trkpt lat="40.30453" lon="-7.86403">
        <ele>303.008</ele>
        <time>2020-09-27T16:08:29Z</time>
      </trkpt>
      <trkpt lat="40.30469" lon="-7.86441">
        <ele>300.02</ele>
        <time>2020-09-27T16:08:31Z</time>
      </trkpt>
      <trkpt lat="40.30471" lon="-7.86466">
        <ele>297.872</ele>
        <time>2020-09-27T16:08:32Z</time>
      </trkpt>
      <trkpt lat="40.30466" lon="-7.86521">
        <ele>295.45</ele>
        <time>2020-09-27T16:08:34Z</time>
      </trkpt>
      <trkpt lat="40.30458" lon="-7.86549">
        <ele>294.032</ele>
        <time>2020-09-27T16:08:35Z</time>
      </trkpt>
      <trkpt lat="40.30447" lon="-7.86576">
        <ele>293.15</ele>
        <time>2020-09-27T16:08:36Z</time>
      </trkpt>
      <trkpt lat="40.30434" lon="-7.86601">
        <ele>297.15</ele>
        <time>2020-09-27T16:08:37Z</time>
      </trkpt>
      <trkpt lat="40.30407" lon="-7.86644">
        <ele>301.15</ele>
        <time>2020-09-27T16:08:39Z</time>
      </trkpt>
      <trkpt lat="40.30395" lon="-7.86664">
        <ele>305.168</ele>
        <time>2020-09-27T16:08:40Z</time>
      </trkpt>
      <trkpt lat="40.30385" lon="-7.86685">
        <ele>305.998</ele>
        <time>2020-09-27T16:08:41Z</time>
      </trkpt>
      <trkpt lat="40.30371" lon="-7.86729">
        <ele>303.115</ele>
        <time>2020-09-27T16:08:43Z</time>
      </trkpt>
      <trkpt lat="40.30373" lon="-7.86773">
        <ele>299.226</ele>
        <time>2020-09-27T16:08:45Z</time>
      </trkpt>
      <trkpt lat="40.30394" lon="-7.86812">
        <ele>295.308</ele>
        <time>2020-09-27T16:08:47Z</time>
      </trkpt>
      <trkpt lat="40.30425" lon="-7.86847">
        <ele>291.524</ele>
        <time>2020-09-27T16:08:49Z</time>
      </trkpt>
      <trkpt lat="40.30441" lon="-7.86866">
        <ele>288.656</ele>
        <time>2020-09-27T16:08:50Z</time>
      </trkpt>
      <trkpt lat="40.30471" lon="-7.86904">
        <ele>285.834</ele>
        <time>2020-09-27T16:08:52Z</time>
      </trkpt>
      <trkpt lat="40.30499" lon="-7.86938">
        <ele>283.216</ele>
        <time>2020-09-27T16:08:54Z</time>
      </trkpt>
      <trkpt lat="40.30513" lon="-7.86953">
        <ele>287.254</ele>
        <time>2020-09-27T16:08:55Z</time>
      </trkpt>
      <trkpt lat="40.30543" lon="-7.86978">
        <ele>285.314</ele>
        <time>2020-09-27T16:08:57Z</time>
      </trkpt>
      <trkpt lat="40.30571" lon="-7.87001">
        <ele>289.374</ele>
        <time>2020-09-27T16:08:59Z</time>
      </trkpt>
      <trkpt lat="40.30586" lon="-7.87011">
        <ele>293.322</ele>
        <time>2020-09-27T16:09:00Z</time>
      </trkpt>
      <trkpt lat="40.30616" lon="-7.87028">
        <ele>289.851</ele>
        <time>2020-09-27T16:09:02Z</time>
      </trkpt>
      <trkpt lat="40.30632" lon="-7.87035">
        <ele>286.101</ele>
        <time>2020-09-27T16:09:03Z</time>
      </trkpt>
      <trkpt lat="40.3066" lon="-7.87059">
        <ele>282.111</ele>
        <time>2020-09-27T16:09:05Z</time>
      </trkpt>
      <trkpt lat="40.30676" lon="-7.87092">
        <ele>278.608</ele>
        <time>2020-09-27T16:09:07Z</time>
      </trkpt>
      <trkpt lat="40.30679" lon="-7.87117">
        <ele>275.92</ele>
        <time>2020-09-27T16:09:09Z</time>
      </trkpt>
      <trkpt lat="40.30685" lon="-7.87129">
        <ele>273.962</ele>
        <time>2020-09-27T16:09:11Z</time>
      </trkpt>
      <trkpt lat="40.30701" lon="-7.87134">
        <ele>272.42</ele>
        <time>2020-09-27T16:09:13Z</time>
      </trkpt>
      <trkpt lat="40.30712" lon="-7.87139">
        <ele>271.312</ele>
        <time>2020-09-27T16:09:14Z</time>
      </trkpt>
      <trkpt lat="40.30724" lon="-7.87145">
        <ele>270.55</ele>
        <time>2020-09-27T16:09:15Z</time>
      </trkpt>
      <trkpt lat="40.30751" lon="-7.87157">
        <ele>269.92</ele>
        <time>2020-09-27T16:09:17Z</time>
      </trkpt>
      <trkpt lat="40.30763" lon="-7.87166">
        <ele>269.53</ele>
        <time>2020-09-27T16:09:18Z</time>
      </trkpt>
      <trkpt lat="40.30782" lon="-7.87191">
        <ele>269.278</ele>
        <time>2020-09-27T16:09:20Z</time>
      </trkpt>
      <trkpt lat="40.30788" lon="-7.87206">
        <ele>268.977</ele>
        <time>2020-09-27T16:09:21Z</time>
      </trkpt>
      <trkpt lat="40.3079" lon="-7.87227">
        <ele>269.061</ele>
        <time>2020-09-27T16:09:22Z</time>
      </trkpt>
      <trkpt lat="40.30783" lon="-7.87277">
        <ele>269.627</ele>
        <time>2020-09-27T16:09:24Z</time>
      </trkpt>
      <trkpt lat="40.30776" lon="-7.87301">
        <ele>269.908</ele>
        <time>2020-09-27T16:09:25Z</time>
      </trkpt>
      <trkpt lat="40.30759" lon="-7.8735">
        <ele>270.142</ele>
        <time>2020-09-27T16:09:27Z</time>
      </trkpt>
      <trkpt lat="40.30751" lon="-7.87376">
        <ele>274.154</ele>
        <time>2020-09-27T16:09:28Z</time>
      </trkpt>
      <trkpt lat="40.30736" lon="-7.87425">
        <ele>278.192</ele>
        <time>2020-09-27T16:09:30Z</time>
      </trkpt>
      <trkpt lat="40.3072" lon="-7.87474">
        <ele>282.194</ele>
        <time>2020-09-27T16:09:32Z</time>
      </trkpt>
      <trkpt lat="40.30709" lon="-7.87497">
        <ele>285.422</ele>
        <time>2020-09-27T16:09:33Z</time>
      </trkpt>
      <trkpt lat="40.30685" lon="-7.87542">
        <ele>286.372</ele>
        <time>2020-09-27T16:09:35Z</time>
      </trkpt>
      <trkpt lat="40.30675" lon="-7.87565">
        <ele>286.752</ele>
        <time>2020-09-27T16:09:36Z</time>
      </trkpt>
      <trkpt lat="40.30666" lon="-7.8759">
        <ele>287.09</ele>
        <time>2020-09-27T16:09:37Z</time>
      </trkpt>
      <trkpt lat="40.30657" lon="-7.8764">
        <ele>287.169</ele>
        <time>2020-09-27T16:09:39Z</time>
      </trkpt>
      <trkpt lat="40.30655" lon="-7.87667">
        <ele>287.104</ele>
        <time>2020-09-27T16:09:40Z</time>
      </trkpt>
      <trkpt lat="40.30651" lon="-7.87693">
        <ele>287.224</ele>
        <time>2020-09-27T16:09:41Z</time>
      </trkpt>
      <trkpt lat="40.30634" lon="-7.87734">
        <ele>287.508</ele>
        <time>2020-09-27T16:09:43Z</time>
      </trkpt>
      <trkpt lat="40.30623" lon="-7.87751">
        <ele>288.021</ele>
        <time>2020-09-27T16:09:44Z</time>
      </trkpt>
      <trkpt lat="40.30613" lon="-7.87789">
        <ele>288.453</ele>
        <time>2020-09-27T16:09:46Z</time>
      </trkpt>
      <trkpt lat="40.30615" lon="-7.87808">
        <ele>288.721</ele>
        <time>2020-09-27T16:09:47Z</time>
      </trkpt>
      <trkpt lat="40.30633" lon="-7.87841">
        <ele>289.233</ele>
        <time>2020-09-27T16:09:49Z</time>
      </trkpt>
      <trkpt lat="40.30658" lon="-7.87876">
        <ele>289.891</ele>
        <time>2020-09-27T16:09:51Z</time>
      </trkpt>
      <trkpt lat="40.30672" lon="-7.87894">
        <ele>290.421</ele>
        <time>2020-09-27T16:09:52Z</time>
      </trkpt>
      <trkpt lat="40.30697" lon="-7.87928">
        <ele>290.931</ele>
        <time>2020-09-27T16:09:54Z</time>
      </trkpt>
      <trkpt lat="40.30709" lon="-7.87942">
        <ele>291.569</ele>
        <time>2020-09-27T16:09:55Z</time>
      </trkpt>
      <trkpt lat="40.30733" lon="-7.87962">
        <ele>291.954</ele>
        <time>2020-09-27T16:09:57Z</time>
      </trkpt>
      <trkpt lat="40.3075" lon="-7.87983">
        <ele>292.156</ele>
        <time>2020-09-27T16:09:59Z</time>
      </trkpt>
      <trkpt lat="40.30753" lon="-7.88011">
        <ele>292.611</ele>
        <time>2020-09-27T16:10:01Z</time>
      </trkpt>
      <trkpt lat="40.30747" lon="-7.8804">
        <ele>293.108</ele>
        <time>2020-09-27T16:10:03Z</time>
      </trkpt>
      <trkpt lat="40.30748" lon="-7.88056">
        <ele>293.69</ele>
        <time>2020-09-27T16:10:04Z</time>
      </trkpt>
      <trkpt lat="40.30757" lon="-7.88086">
        <ele>294.452</ele>
        <time>2020-09-27T16:10:06Z</time>
      </trkpt>
      <trkpt lat="40.30769" lon="-7.88115">
        <ele>295.07</ele>
        <time>2020-09-27T16:10:08Z</time>
      </trkpt>
      <trkpt lat="40.30775" lon="-7.88143">
        <ele>295.712</ele>
        <time>2020-09-27T16:10:10Z</time>
      </trkpt>
      <trkpt lat="40.30774" lon="-7.88181">
        <ele>296.49</ele>
        <time>2020-09-27T16:10:12Z</time>
      </trkpt>
      <trkpt lat="40.30771" lon="-7.88203">
        <ele>297.03</ele>
        <time>2020-09-27T16:10:13Z</time>
      </trkpt>
      <trkpt lat="40.30767" lon="-7.88226">
        <ele>297.57</ele>
        <time>2020-09-27T16:10:14Z</time>
      </trkpt>
      <trkpt lat="40.30765" lon="-7.88277">
        <ele>298.378</ele>
        <time>2020-09-27T16:10:16Z</time>
      </trkpt>
      <trkpt lat="40.30768" lon="-7.88304">
        <ele>299.015</ele>
        <time>2020-09-27T16:10:17Z</time>
      </trkpt>
      <trkpt lat="40.30778" lon="-7.88353">
        <ele>299.765</ele>
        <time>2020-09-27T16:10:19Z</time>
      </trkpt>
      <trkpt lat="40.30787" lon="-7.88375">
        <ele>300.511</ele>
        <time>2020-09-27T16:10:20Z</time>
      </trkpt>
      <trkpt lat="40.30799" lon="-7.88393">
        <ele>301.108</ele>
        <time>2020-09-27T16:10:21Z</time>
      </trkpt>
      <trkpt lat="40.30812" lon="-7.88433">
        <ele>301.816</ele>
        <time>2020-09-27T16:10:23Z</time>
      </trkpt>
      <trkpt lat="40.30811" lon="-7.88458">
        <ele>302.358</ele>
        <time>2020-09-27T16:10:24Z</time>
      </trkpt>
      <trkpt lat="40.30811" lon="-7.88483">
        <ele>303.176</ele>
        <time>2020-09-27T16:10:25Z</time>
      </trkpt>
      <trkpt lat="40.30816" lon="-7.88522">
        <ele>303.728</ele>
        <time>2020-09-27T16:10:27Z</time>
      </trkpt>
      <trkpt lat="40.30806" lon="-7.88551">
        <ele>304.346</ele>
        <time>2020-09-27T16:10:29Z</time>
      </trkpt>
      <trkpt lat="40.3078" lon="-7.88563">
        <ele>305.046</ele>
        <time>2020-09-27T16:10:31Z</time>
      </trkpt>
      <trkpt lat="40.30764" lon="-7.88567">
        <ele>305.666</ele>
        <time>2020-09-27T16:10:32Z</time>
      </trkpt>
      <trkpt lat="40.30744" lon="-7.88589">
        <ele>306.034</ele>
        <time>2020-09-27T16:10:34Z</time>
      </trkpt>
      <trkpt lat="40.3074" lon="-7.88605">
        <ele>306.233</ele>
        <time>2020-09-27T16:10:35Z</time>
      </trkpt>
      <trkpt lat="40.30736" lon="-7.88624">
        <ele>306.323</ele>
        <time>2020-09-27T16:10:36Z</time>
      </trkpt>
      <trkpt lat="40.30725" lon="-7.88669">
        <ele>310.315</ele>
        <time>2020-09-27T16:10:38Z</time>
      </trkpt>
      <trkpt lat="40.30718" lon="-7.8869">
        <ele>314.308</ele>
        <time>2020-09-27T16:10:39Z</time>
      </trkpt>
      <trkpt lat="40.30697" lon="-7.8872">
        <ele>318.368</ele>
        <time>2020-09-27T16:10:41Z</time>
      </trkpt>
      <trkpt lat="40.30682" lon="-7.88728">
        <ele>321.25</ele>
        <time>2020-09-27T16:10:42Z</time>
      </trkpt>
      <trkpt lat="40.30651" lon="-7.88742">
        <ele>321.598</ele>
        <time>2020-09-27T16:10:44Z</time>
      </trkpt>
      <trkpt lat="40.30633" lon="-7.88771">
        <ele>321.18</ele>
        <time>2020-09-27T16:10:46Z</time>
      </trkpt>
      <trkpt lat="40.30629" lon="-7.8879">
        <ele>320.788</ele>
        <time>2020-09-27T16:10:47Z</time>
      </trkpt>
      <trkpt lat="40.30629" lon="-7.88837">
        <ele>320.438</ele>
        <time>2020-09-27T16:10:49Z</time>
      </trkpt>
      <trkpt lat="40.30631" lon="-7.88861">
        <ele>320.298</ele>
        <time>2020-09-27T16:10:50Z</time>
      </trkpt>
      <trkpt lat="40.30625" lon="-7.88905">
        <ele>320.176</ele>
        <time>2020-09-27T16:10:52Z</time>
      </trkpt>
      <trkpt lat="40.30601" lon="-7.88945">
        <ele>320.445</ele>
        <time>2020-09-27T16:10:54Z</time>
      </trkpt>
      <trkpt lat="40.30586" lon="-7.88961">
        <ele>320.747</ele>
        <time>2020-09-27T16:10:55Z</time>
      </trkpt>
      <trkpt lat="40.30572" lon="-7.88972">
        <ele>321.011</ele>
        <time>2020-09-27T16:10:56Z</time>
      </trkpt>
      <trkpt lat="40.30536" lon="-7.88974">
        <ele>321.608</ele>
        <time>2020-09-27T16:10:58Z</time>
      </trkpt>
      <trkpt lat="40.30496" lon="-7.88977">
        <ele>322.669</ele>
        <time>2020-09-27T16:11:00Z</time>
      </trkpt>
      <trkpt lat="40.30455" lon="-7.88996">
        <ele>323.791</ele>
        <time>2020-09-27T16:11:02Z</time>
      </trkpt>
      <trkpt lat="40.30437" lon="-7.89011">
        <ele>324.649</ele>
        <time>2020-09-27T16:11:03Z</time>
      </trkpt>
      <trkpt lat="40.30419" lon="-7.89029">
        <ele>325.611</ele>
        <time>2020-09-27T16:11:04Z</time>
      </trkpt>
      <trkpt lat="40.3038" lon="-7.89058">
        <ele>329.089</ele>
        <time>2020-09-27T16:11:06Z</time>
      </trkpt>
      <trkpt lat="40.30361" lon="-7.89064">
        <ele>330.289</ele>
        <time>2020-09-27T16:11:07Z</time>
      </trkpt>
      <trkpt lat="40.30327" lon="-7.89077">
        <ele>330.469</ele>
        <time>2020-09-27T16:11:09Z</time>
      </trkpt>
      <trkpt lat="40.30305" lon="-7.89111">
        <ele>330.727</ele>
        <time>2020-09-27T16:11:11Z</time>
      </trkpt>
      <trkpt lat="40.30297" lon="-7.89133">
        <ele>330.955</ele>
        <time>2020-09-27T16:11:12Z</time>
      </trkpt>
      <trkpt lat="40.30271" lon="-7.89159">
        <ele>331.507</ele>
        <time>2020-09-27T16:11:14Z</time>
      </trkpt>
      <trkpt lat="40.30254" lon="-7.89166">
        <ele>332.017</ele>
        <time>2020-09-27T16:11:15Z</time>
      </trkpt>
      <trkpt lat="40.30239" lon="-7.89173">
        <ele>332.508</ele>
        <time>2020-09-27T16:11:16Z</time>
      </trkpt>
      <trkpt lat="40.30227" lon="-7.89184">
        <ele>332.97</ele>
        <time>2020-09-27T16:11:17Z</time>
      </trkpt>
      <trkpt lat="40.30207" lon="-7.89214">
        <ele>333.492</ele>
        <time>2020-09-27T16:11:19Z</time>
      </trkpt>
      <trkpt lat="40.30189" lon="-7.89251">
        <ele>334.06</ele>
        <time>2020-09-27T16:11:21Z</time>
      </trkpt>
      <trkpt lat="40.30183" lon="-7.89274">
        <ele>334.792</ele>
        <time>2020-09-27T16:11:22Z</time>
      </trkpt>
      <trkpt lat="40.30167" lon="-7.89322">
        <ele>335.53</ele>
        <time>2020-09-27T16:11:24Z</time>
      </trkpt>
      <trkpt lat="40.30158" lon="-7.89363">
        <ele>336.44</ele>
        <time>2020-09-27T16:11:26Z</time>
      </trkpt>
      <trkpt lat="40.30163" lon="-7.89383">
        <ele>337.26</ele>
        <time>2020-09-27T16:11:27Z</time>
      </trkpt>
      <trkpt lat="40.30172" lon="-7.89404">
        <ele>338.088</ele>
        <time>2020-09-27T16:11:28Z</time>
      </trkpt>
      <trkpt lat="40.30182" lon="-7.89425">
        <ele>338.723</ele>
        <time>2020-09-27T16:11:29Z</time>
      </trkpt>
      <trkpt lat="40.30197" lon="-7.89463">
        <ele>339.483</ele>
        <time>2020-09-27T16:11:31Z</time>
      </trkpt>
      <trkpt lat="40.30199" lon="-7.89479">
        <ele>340.011</ele>
        <time>2020-09-27T16:11:32Z</time>
      </trkpt>
      <trkpt lat="40.30188" lon="-7.89507">
        <ele>340.808</ele>
        <time>2020-09-27T16:11:34Z</time>
      </trkpt>
      <trkpt lat="40.30178" lon="-7.8952">
        <ele>341.337</ele>
        <time>2020-09-27T16:11:35Z</time>
      </trkpt>
      <trkpt lat="40.30166" lon="-7.89533">
        <ele>341.819</ele>
        <time>2020-09-27T16:11:36Z</time>
      </trkpt>
      <trkpt lat="40.30145" lon="-7.89558">
        <ele>342.687</ele>
        <time>2020-09-27T16:11:38Z</time>
      </trkpt>
      <trkpt lat="40.30136" lon="-7.89572">
        <ele>343.389</ele>
        <time>2020-09-27T16:11:39Z</time>
      </trkpt>
      <trkpt lat="40.30126" lon="-7.89605">
        <ele>344.167</ele>
        <time>2020-09-27T16:11:41Z</time>
      </trkpt>
      <trkpt lat="40.30124" lon="-7.89625">
        <ele>344.897</ele>
        <time>2020-09-27T16:11:42Z</time>
      </trkpt>
      <trkpt lat="40.30123" lon="-7.89646">
        <ele>345.557</ele>
        <time>2020-09-27T16:11:43Z</time>
      </trkpt>
      <trkpt lat="40.30121" lon="-7.89686">
        <ele>346.395</ele>
        <time>2020-09-27T16:11:45Z</time>
      </trkpt>
      <trkpt lat="40.30109" lon="-7.89715">
        <ele>347.151</ele>
        <time>2020-09-27T16:11:47Z</time>
      </trkpt>
      <trkpt lat="40.30086" lon="-7.8973">
        <ele>348.001</ele>
        <time>2020-09-27T16:11:49Z</time>
      </trkpt>
      <trkpt lat="40.30058" lon="-7.89736">
        <ele>349.211</ele>
        <time>2020-09-27T16:11:51Z</time>
      </trkpt>
      <trkpt lat="40.30045" lon="-7.8974">
        <ele>350.008</ele>
        <time>2020-09-27T16:11:52Z</time>
      </trkpt>
      <trkpt lat="40.30025" lon="-7.8976">
        <ele>350.83</ele>
        <time>2020-09-27T16:11:54Z</time>
      </trkpt>
      <trkpt lat="40.30018" lon="-7.89775">
        <ele>351.492</ele>
        <time>2020-09-27T16:11:55Z</time>
      </trkpt>
      <trkpt lat="40.30013" lon="-7.89793">
        <ele>351.92</ele>
        <time>2020-09-27T16:11:56Z</time>
      </trkpt>
      <trkpt lat="40.30005" lon="-7.89829">
        <ele>352.572</ele>
        <time>2020-09-27T16:11:58Z</time>
      </trkpt>
      <trkpt lat="40.30004" lon="-7.89848">
        <ele>353.13</ele>
        <time>2020-09-27T16:11:59Z</time>
      </trkpt>
      <trkpt lat="40.30007" lon="-7.89885">
        <ele>353.99</ele>
        <time>2020-09-27T16:12:01Z</time>
      </trkpt>
      <trkpt lat="40.30008" lon="-7.89903">
        <ele>354.63</ele>
        <time>2020-09-27T16:12:02Z</time>
      </trkpt>
      <trkpt lat="40.30008" lon="-7.89919">
        <ele>355.068</ele>
        <time>2020-09-27T16:12:03Z</time>
      </trkpt>
      <trkpt lat="40.29996" lon="-7.89946">
        <ele>355.512</ele>
        <time>2020-09-27T16:12:05Z</time>
      </trkpt>
      <trkpt lat="40.29974" lon="-7.89965">
        <ele>356.032</ele>
        <time>2020-09-27T16:12:07Z</time>
      </trkpt>
      <trkpt lat="40.29962" lon="-7.89973">
        <ele>356.505</ele>
        <time>2020-09-27T16:12:08Z</time>
      </trkpt>
      <trkpt lat="40.29941" lon="-7.89989">
        <ele>357.108</ele>
        <time>2020-09-27T16:12:10Z</time>
      </trkpt>
      <trkpt lat="40.29931" lon="-7.90011">
        <ele>357.976</ele>
        <time>2020-09-27T16:12:12Z</time>
      </trkpt>
      <trkpt lat="40.29932" lon="-7.90025">
        <ele>358.428</ele>
        <time>2020-09-27T16:12:13Z</time>
      </trkpt>
      <trkpt lat="40.29935" lon="-7.9004">
        <ele>358.736</ele>
        <time>2020-09-27T16:12:14Z</time>
      </trkpt>
      <trkpt lat="40.2994" lon="-7.90073">
        <ele>362.748</ele>
        <time>2020-09-27T16:12:16Z</time>
      </trkpt>
      <trkpt lat="40.29937" lon="-7.9009">
        <ele>366.716</ele>
        <time>2020-09-27T16:12:17Z</time>
      </trkpt>
      <trkpt lat="40.29932" lon="-7.90108">
        <ele>370.766</ele>
        <time>2020-09-27T16:12:18Z</time>
      </trkpt>
      <trkpt lat="40.29926" lon="-7.90126">
        <ele>374.756</ele>
        <time>2020-09-27T16:12:19Z</time>
      </trkpt>
      <trkpt lat="40.29914" lon="-7.90157">
        <ele>375.244</ele>
        <time>2020-09-27T16:12:21Z</time>
      </trkpt>
      <trkpt lat="40.29908" lon="-7.9017">
        <ele>374.719</ele>
        <time>2020-09-27T16:12:22Z</time>
      </trkpt>
      <trkpt lat="40.299" lon="-7.90181">
        <ele>373.809</ele>
        <time>2020-09-27T16:12:23Z</time>
      </trkpt>
      <trkpt lat="40.29883" lon="-7.90203">
        <ele>372.819</ele>
        <time>2020-09-27T16:12:25Z</time>
      </trkpt>
      <trkpt lat="40.29865" lon="-7.90226">
        <ele>371.808</ele>
        <time>2020-09-27T16:12:27Z</time>
      </trkpt>
      <trkpt lat="40.29853" lon="-7.90254">
        <ele>375.826</ele>
        <time>2020-09-27T16:12:29Z</time>
      </trkpt>
      <trkpt lat="40.29851" lon="-7.90271">
        <ele>376.558</ele>
        <time>2020-09-27T16:12:30Z</time>
      </trkpt>
      <trkpt lat="40.2985" lon="-7.90288">
        <ele>375.896</ele>
        <time>2020-09-27T16:12:31Z</time>
      </trkpt>
      <trkpt lat="40.29851" lon="-7.90326">
        <ele>374.848</ele>
        <time>2020-09-27T16:12:33Z</time>
      </trkpt>
      <trkpt lat="40.29848" lon="-7.90365">
        <ele>374.036</ele>
        <time>2020-09-27T16:12:35Z</time>
      </trkpt>
      <trkpt lat="40.29846" lon="-7.90386">
        <ele>373.546</ele>
        <time>2020-09-27T16:12:36Z</time>
      </trkpt>
      <trkpt lat="40.29848" lon="-7.90429">
        <ele>373.096</ele>
        <time>2020-09-27T16:12:38Z</time>
      </trkpt>
      <trkpt lat="40.29851" lon="-7.9045">
        <ele>372.734</ele>
        <time>2020-09-27T16:12:39Z</time>
      </trkpt>
      <trkpt lat="40.29854" lon="-7.90469">
        <ele>372.456</ele>
        <time>2020-09-27T16:12:40Z</time>
      </trkpt>
      <trkpt lat="40.29851" lon="-7.90506">
        <ele>372.259</ele>
        <time>2020-09-27T16:12:42Z</time>
      </trkpt>
      <trkpt lat="40.29852" lon="-7.90524">
        <ele>372.014</ele>
        <time>2020-09-27T16:12:43Z</time>
      </trkpt>
      <trkpt lat="40.29858" lon="-7.90541">
        <ele>372.108</ele>
        <time>2020-09-27T16:12:44Z</time>
      </trkpt>
      <trkpt lat="40.29868" lon="-7.90555">
        <ele>372.32</ele>
        <time>2020-09-27T16:12:45Z</time>
      </trkpt>
      <trkpt lat="40.2989" lon="-7.90573">
        <ele>372.692</ele>
        <time>2020-09-27T16:12:47Z</time>
      </trkpt>
      <trkpt lat="40.299" lon="-7.90577">
        <ele>372.89</ele>
        <time>2020-09-27T16:12:48Z</time>
      </trkpt>
      <trkpt lat="40.29922" lon="-7.90571">
        <ele>373.242</ele>
        <time>2020-09-27T16:12:50Z</time>
      </trkpt>
      <trkpt lat="40.29931" lon="-7.90565">
        <ele>373.51</ele>
        <time>2020-09-27T16:12:51Z</time>
      </trkpt>
      <trkpt lat="40.29951" lon="-7.90557">
        <ele>374.03</ele>
        <time>2020-09-27T16:12:53Z</time>
      </trkpt>
      <trkpt lat="40.29974" lon="-7.9056">
        <ele>374.46</ele>
        <time>2020-09-27T16:12:55Z</time>
      </trkpt>
      <trkpt lat="40.29986" lon="-7.90566">
        <ele>374.718</ele>
        <time>2020-09-27T16:12:56Z</time>
      </trkpt>
      <trkpt lat="40.3001" lon="-7.9058">
        <ele>374.935</ele>
        <time>2020-09-27T16:12:58Z</time>
      </trkpt>
      <trkpt lat="40.30021" lon="-7.90589">
        <ele>375.286</ele>
        <time>2020-09-27T16:12:59Z</time>
      </trkpt>
      <trkpt lat="40.30032" lon="-7.906">
        <ele>375.614</ele>
        <time>2020-09-27T16:13:00Z</time>
      </trkpt>
      <trkpt lat="40.30043" lon="-7.9061">
        <ele>375.908</ele>
        <time>2020-09-27T16:13:01Z</time>
      </trkpt>
      <trkpt lat="40.30064" lon="-7.90625">
        <ele>376.198</ele>
        <time>2020-09-27T16:13:03Z</time>
      </trkpt>
      <trkpt lat="40.30083" lon="-7.90631">
        <ele>376.33</ele>
        <time>2020-09-27T16:13:05Z</time>
      </trkpt>
      <trkpt lat="40.30101" lon="-7.90638">
        <ele>376.648</ele>
        <time>2020-09-27T16:13:07Z</time>
      </trkpt>
      <trkpt lat="40.30116" lon="-7.90655">
        <ele>377.36</ele>
        <time>2020-09-27T16:13:09Z</time>
      </trkpt>
      <trkpt lat="40.30123" lon="-7.90681">
        <ele>377.878</ele>
        <time>2020-09-27T16:13:11Z</time>
      </trkpt>
      <trkpt lat="40.30123" lon="-7.90697">
        <ele>378.338</ele>
        <time>2020-09-27T16:13:12Z</time>
      </trkpt>
      <trkpt lat="40.30117" lon="-7.9073">
        <ele>379.338</ele>
        <time>2020-09-27T16:13:14Z</time>
      </trkpt>
      <trkpt lat="40.30111" lon="-7.90767">
        <ele>380.346</ele>
        <time>2020-09-27T16:13:16Z</time>
      </trkpt>
      <trkpt lat="40.30113" lon="-7.908">
        <ele>381.193</ele>
        <time>2020-09-27T16:13:18Z</time>
      </trkpt>
      <trkpt lat="40.3012" lon="-7.90813">
        <ele>381.865</ele>
        <time>2020-09-27T16:13:19Z</time>
      </trkpt>
      <trkpt lat="40.30129" lon="-7.90824">
        <ele>382.621</ele>
        <time>2020-09-27T16:13:20Z</time>
      </trkpt>
      <trkpt lat="40.30137" lon="-7.90835">
        <ele>383.108</ele>
        <time>2020-09-27T16:13:21Z</time>
      </trkpt>
      <trkpt lat="40.30143" lon="-7.90862">
        <ele>383.624</ele>
        <time>2020-09-27T16:13:23Z</time>
      </trkpt>
      <trkpt lat="40.30141" lon="-7.90875">
        <ele>384.216</ele>
        <time>2020-09-27T16:13:24Z</time>
      </trkpt>
      <trkpt lat="40.30126" lon="-7.90897">
        <ele>385.144</ele>
        <time>2020-09-27T16:13:26Z</time>
      </trkpt>
      <trkpt lat="40.30116" lon="-7.90906">
        <ele>385.856</ele>
        <time>2020-09-27T16:13:27Z</time>
      </trkpt>
      <trkpt lat="40.30091" lon="-7.90932">
        <ele>387.044</ele>
        <time>2020-09-27T16:13:29Z</time>
      </trkpt>
      <trkpt lat="40.30066" lon="-7.90974">
        <ele>391.014</ele>
        <time>2020-09-27T16:13:31Z</time>
      </trkpt>
      <trkpt lat="40.30039" lon="-7.91027">
        <ele>393.664</ele>
        <time>2020-09-27T16:13:33Z</time>
      </trkpt>
      <trkpt lat="40.30019" lon="-7.91078">
        <ele>394.782</ele>
        <time>2020-09-27T16:13:35Z</time>
      </trkpt>
      <trkpt lat="40.30013" lon="-7.91108">
        <ele>395.493</ele>
        <time>2020-09-27T16:13:36Z</time>
      </trkpt>
      <trkpt lat="40.30008" lon="-7.9114">
        <ele>394.865</ele>
        <time>2020-09-27T16:13:37Z</time>
      </trkpt>
      <trkpt lat="40.30004" lon="-7.91171">
        <ele>394.921</ele>
        <time>2020-09-27T16:13:38Z</time>
      </trkpt>
      <trkpt lat="40.29998" lon="-7.91223">
        <ele>395.708</ele>
        <time>2020-09-27T16:13:40Z</time>
      </trkpt>
      <trkpt lat="40.29995" lon="-7.91244">
        <ele>396.474</ele>
        <time>2020-09-27T16:13:41Z</time>
      </trkpt>
      <trkpt lat="40.29982" lon="-7.91283">
        <ele>397.466</ele>
        <time>2020-09-27T16:13:43Z</time>
      </trkpt>
      <trkpt lat="40.29967" lon="-7.91327">
        <ele>398.934</ele>
        <time>2020-09-27T16:13:45Z</time>
      </trkpt>
      <trkpt lat="40.29965" lon="-7.91354">
        <ele>400.246</ele>
        <time>2020-09-27T16:13:46Z</time>
      </trkpt>
      <trkpt lat="40.29963" lon="-7.91406">
        <ele>401.654</ele>
        <time>2020-09-27T16:13:48Z</time>
      </trkpt>
      <trkpt lat="40.29965" lon="-7.91427">
        <ele>402.454</ele>
        <time>2020-09-27T16:13:49Z</time>
      </trkpt>
      <trkpt lat="40.29983" lon="-7.91463">
        <ele>403.344</ele>
        <time>2020-09-27T16:13:51Z</time>
      </trkpt>
      <trkpt lat="40.30007" lon="-7.91502">
        <ele>404.162</ele>
        <time>2020-09-27T16:13:53Z</time>
      </trkpt>
      <trkpt lat="40.30012" lon="-7.91521">
        <ele>404.751</ele>
        <time>2020-09-27T16:13:54Z</time>
      </trkpt>
      <trkpt lat="40.30012" lon="-7.91542">
        <ele>405.501</ele>
        <time>2020-09-27T16:13:55Z</time>
      </trkpt>
      <trkpt lat="40.30006" lon="-7.91565">
        <ele>406.411</ele>
        <time>2020-09-27T16:13:56Z</time>
      </trkpt>
      <trkpt lat="40.29993" lon="-7.91614">
        <ele>407.408</ele>
        <time>2020-09-27T16:13:58Z</time>
      </trkpt>
      <trkpt lat="40.29991" lon="-7.91643">
        <ele>408.42</ele>
        <time>2020-09-27T16:13:59Z</time>
      </trkpt>
      <trkpt lat="40.29982" lon="-7.91696">
        <ele>409.762</ele>
        <time>2020-09-27T16:14:01Z</time>
      </trkpt>
      <trkpt lat="40.29976" lon="-7.91736">
        <ele>410.96</ele>
        <time>2020-09-27T16:14:03Z</time>
      </trkpt>
      <trkpt lat="40.29987" lon="-7.91764">
        <ele>411.582</ele>
        <time>2020-09-27T16:14:05Z</time>
      </trkpt>
      <trkpt lat="40.30013" lon="-7.9177">
        <ele>412.06</ele>
        <time>2020-09-27T16:14:07Z</time>
      </trkpt>
      <trkpt lat="40.3003" lon="-7.91763">
        <ele>412.34</ele>
        <time>2020-09-27T16:14:08Z</time>
      </trkpt>
      <trkpt lat="40.30045" lon="-7.91748">
        <ele>412.45</ele>
        <time>2020-09-27T16:14:09Z</time>
      </trkpt>
      <trkpt lat="40.30057" lon="-7.91726">
        <ele>413.228</ele>
        <time>2020-09-27T16:14:10Z</time>
      </trkpt>
      <trkpt lat="40.30076" lon="-7.91674">
        <ele>414.651</ele>
        <time>2020-09-27T16:14:12Z</time>
      </trkpt>
      <trkpt lat="40.30107" lon="-7.91632">
        <ele>415.601</ele>
        <time>2020-09-27T16:14:14Z</time>
      </trkpt>
      <trkpt lat="40.30145" lon="-7.91601">
        <ele>417.011</ele>
        <time>2020-09-27T16:14:16Z</time>
      </trkpt>
      <trkpt lat="40.30177" lon="-7.91583">
        <ele>418.508</ele>
        <time>2020-09-27T16:14:18Z</time>
      </trkpt>
      <trkpt lat="40.30201" lon="-7.91588">
        <ele>419.83</ele>
        <time>2020-09-27T16:14:20Z</time>
      </trkpt>
      <trkpt lat="40.30225" lon="-7.91617">
        <ele>421.152</ele>
        <time>2020-09-27T16:14:22Z</time>
      </trkpt>
      <trkpt lat="40.30247" lon="-7.9166">
        <ele>422.33</ele>
        <time>2020-09-27T16:14:24Z</time>
      </trkpt>
      <trkpt lat="40.30257" lon="-7.91709">
        <ele>423.342</ele>
        <time>2020-09-27T16:14:26Z</time>
      </trkpt>
      <trkpt lat="40.30257" lon="-7.91738">
        <ele>424.06</ele>
        <time>2020-09-27T16:14:27Z</time>
      </trkpt>
      <trkpt lat="40.30254" lon="-7.91767">
        <ele>424.61</ele>
        <time>2020-09-27T16:14:28Z</time>
      </trkpt>
      <trkpt lat="40.30249" lon="-7.9182">
        <ele>425.69</ele>
        <time>2020-09-27T16:14:30Z</time>
      </trkpt>
      <trkpt lat="40.30254" lon="-7.91865">
        <ele>426.918</ele>
        <time>2020-09-27T16:14:32Z</time>
      </trkpt>
      <trkpt lat="40.30262" lon="-7.91887">
        <ele>427.871</ele>
        <time>2020-09-27T16:14:33Z</time>
      </trkpt>
      <trkpt lat="40.30268" lon="-7.91939">
        <ele>428.941</ele>
        <time>2020-09-27T16:14:35Z</time>
      </trkpt>
      <trkpt lat="40.30266" lon="-7.91967">
        <ele>429.815</ele>
        <time>2020-09-27T16:14:36Z</time>
      </trkpt>
      <trkpt lat="40.30267" lon="-7.92018">
        <ele>430.808</ele>
        <time>2020-09-27T16:14:38Z</time>
      </trkpt>
      <trkpt lat="40.30274" lon="-7.92043">
        <ele>431.882</ele>
        <time>2020-09-27T16:14:39Z</time>
      </trkpt>
      <trkpt lat="40.30292" lon="-7.92095">
        <ele>432.974</ele>
        <time>2020-09-27T16:14:41Z</time>
      </trkpt>
      <trkpt lat="40.30318" lon="-7.92134">
        <ele>434.312</ele>
        <time>2020-09-27T16:14:43Z</time>
      </trkpt>
      <trkpt lat="40.30351" lon="-7.92161">
        <ele>435.334</ele>
        <time>2020-09-27T16:14:45Z</time>
      </trkpt>
      <trkpt lat="40.30361" lon="-7.92177">
        <ele>436.022</ele>
        <time>2020-09-27T16:14:46Z</time>
      </trkpt>
      <trkpt lat="40.30367" lon="-7.92216">
        <ele>436.912</ele>
        <time>2020-09-27T16:14:48Z</time>
      </trkpt>
      <trkpt lat="40.30367" lon="-7.92256">
        <ele>437.952</ele>
        <time>2020-09-27T16:14:50Z</time>
      </trkpt>
      <trkpt lat="40.30379" lon="-7.92266">
        <ele>438.67</ele>
        <time>2020-09-27T16:14:51Z</time>
      </trkpt>
      <trkpt lat="40.30394" lon="-7.92272">
        <ele>439.148</ele>
        <time>2020-09-27T16:14:52Z</time>
      </trkpt>
      <trkpt lat="40.3043" lon="-7.92282">
        <ele>439.961</ele>
        <time>2020-09-27T16:14:54Z</time>
      </trkpt>
      <trkpt lat="40.30449" lon="-7.92288">
        <ele>443.917</ele>
        <time>2020-09-27T16:14:55Z</time>
      </trkpt>
      <trkpt lat="40.30478" lon="-7.92297">
        <ele>445.108</ele>
        <time>2020-09-27T16:14:57Z</time>
      </trkpt>
      <trkpt lat="40.30511" lon="-7.92287">
        <ele>445.849</ele>
        <time>2020-09-27T16:14:59Z</time>
      </trkpt>
      <trkpt lat="40.30528" lon="-7.92274">
        <ele>446.431</ele>
        <time>2020-09-27T16:15:00Z</time>
      </trkpt>
      <trkpt lat="40.30563" lon="-7.92241">
        <ele>447.119</ele>
        <time>2020-09-27T16:15:02Z</time>
      </trkpt>
      <trkpt lat="40.30578" lon="-7.92219">
        <ele>447.651</ele>
        <time>2020-09-27T16:15:03Z</time>
      </trkpt>
      <trkpt lat="40.30605" lon="-7.92177">
        <ele>447.979</ele>
        <time>2020-09-27T16:15:05Z</time>
      </trkpt>
      <trkpt lat="40.30616" lon="-7.92162">
        <ele>448.179</ele>
        <time>2020-09-27T16:15:06Z</time>
      </trkpt>
      <trkpt lat="40.30639" lon="-7.92149">
        <ele>448.289</ele>
        <time>2020-09-27T16:15:08Z</time>
      </trkpt>
      <trkpt lat="40.30667" lon="-7.92166">
        <ele>452.217</ele>
        <time>2020-09-27T16:15:10Z</time>
      </trkpt>
      <trkpt lat="40.30682" lon="-7.92182">
        <ele>456.289</ele>
        <time>2020-09-27T16:15:11Z</time>
      </trkpt>
      <trkpt lat="40.30713" lon="-7.92211">
        <ele>460.206</ele>
        <time>2020-09-27T16:15:13Z</time>
      </trkpt>
      <trkpt lat="40.30727" lon="-7.9222">
        <ele>464.226</ele>
        <time>2020-09-27T16:15:14Z</time>
      </trkpt>
      <trkpt lat="40.3074" lon="-7.92222">
        <ele>467.508</ele>
        <time>2020-09-27T16:15:15Z</time>
      </trkpt>
      <trkpt lat="40.30764" lon="-7.92215">
        <ele>469.583</ele>
        <time>2020-09-27T16:15:17Z</time>
      </trkpt>
      <trkpt lat="40.30789" lon="-7.92199">
        <ele>470.715</ele>
        <time>2020-09-27T16:15:19Z</time>
      </trkpt>
      <trkpt lat="40.30802" lon="-7.92192">
        <ele>474.723</ele>
        <time>2020-09-27T16:15:20Z</time>
      </trkpt>
      <trkpt lat="40.30813" lon="-7.92186">
        <ele>478.775</ele>
        <time>2020-09-27T16:15:21Z</time>
      </trkpt>
      <trkpt lat="40.30825" lon="-7.92163">
        <ele>478.843</ele>
        <time>2020-09-27T16:15:23Z</time>
      </trkpt>
      <trkpt lat="40.30826" lon="-7.92145">
        <ele>477.293</ele>
        <time>2020-09-27T16:15:24Z</time>
      </trkpt>
      <trkpt lat="40.30822" lon="-7.92106">
        <ele>474.283</ele>
        <time>2020-09-27T16:15:26Z</time>
      </trkpt>
      <trkpt lat="40.30817" lon="-7.92089">
        <ele>471.521</ele>
        <time>2020-09-27T16:15:27Z</time>
      </trkpt>
      <trkpt lat="40.30811" lon="-7.92074">
        <ele>469.295</ele>
        <time>2020-09-27T16:15:28Z</time>
      </trkpt>
      <trkpt lat="40.30806" lon="-7.92062">
        <ele>467.349</ele>
        <time>2020-09-27T16:15:29Z</time>
      </trkpt>
      <trkpt lat="40.30808" lon="-7.92033">
        <ele>466.023</ele>
        <time>2020-09-27T16:15:31Z</time>
      </trkpt>
      <trkpt lat="40.30814" lon="-7.92004">
        <ele>465.108</ele>
        <time>2020-09-27T16:15:33Z</time>
      </trkpt>
      <trkpt lat="40.30825" lon="-7.91981">
        <ele>464.554</ele>
        <time>2020-09-27T16:15:35Z</time>
      </trkpt>
      <trkpt lat="40.30844" lon="-7.91961">
        <ele>464.376</ele>
        <time>2020-09-27T16:15:37Z</time>
      </trkpt>
      <trkpt lat="40.30853" lon="-7.91952">
        <ele>464.384</ele>
        <time>2020-09-27T16:15:38Z</time>
      </trkpt>
      <trkpt lat="40.30872" lon="-7.91934">
        <ele>464.586</ele>
        <time>2020-09-27T16:15:40Z</time>
      </trkpt>
      <trkpt lat="40.30893" lon="-7.91909">
        <ele>464.924</ele>
        <time>2020-09-27T16:15:42Z</time>
      </trkpt>
      <trkpt lat="40.30904" lon="-7.91895">
        <ele>465.274</ele>
        <time>2020-09-27T16:15:43Z</time>
      </trkpt>
      <trkpt lat="40.30925" lon="-7.91865">
        <ele>465.544</ele>
        <time>2020-09-27T16:15:45Z</time>
      </trkpt>
      <trkpt lat="40.30935" lon="-7.9185">
        <ele>465.982</ele>
        <time>2020-09-27T16:15:46Z</time>
      </trkpt>
      <trkpt lat="40.30955" lon="-7.91822">
        <ele>466.329</ele>
        <time>2020-09-27T16:15:48Z</time>
      </trkpt>
      <trkpt lat="40.30964" lon="-7.9181">
        <ele>466.7</ele>
        <time>2020-09-27T16:15:49Z</time>
      </trkpt>
      <trkpt lat="40.30984" lon="-7.91788">
        <ele>467.02</ele>
        <time>2020-09-27T16:15:51Z</time>
      </trkpt>
      <trkpt lat="40.31004" lon="-7.9177">
        <ele>467.208</ele>
        <time>2020-09-27T16:15:53Z</time>
      </trkpt>
      <trkpt lat="40.31023" lon="-7.91747">
        <ele>467.597</ele>
        <time>2020-09-27T16:15:55Z</time>
      </trkpt>
      <trkpt lat="40.31032" lon="-7.91735">
        <ele>467.999</ele>
        <time>2020-09-27T16:15:56Z</time>
      </trkpt>
      <trkpt lat="40.31042" lon="-7.91709">
        <ele>468.267</ele>
        <time>2020-09-27T16:15:58Z</time>
      </trkpt>
      <trkpt lat="40.31045" lon="-7.91702">
        <ele>468.389</ele>
        <time>2020-09-27T16:15:59Z</time>
      </trkpt>
      <trkpt lat="40.31048" lon="-7.91707">
        <ele>468.327</ele>
        <time>2020-09-27T16:16:02Z</time>
      </trkpt>
      <trkpt lat="40.31047" lon="-7.91714">
        <ele>468.517</ele>
        <time>2020-09-27T16:16:04Z</time>
      </trkpt>
      <trkpt lat="40.31041" lon="-7.91724">
        <ele>468.677</ele>
        <time>2020-09-27T16:16:06Z</time>
      </trkpt>
      <trkpt lat="40.31036" lon="-7.9173">
        <ele>468.635</ele>
        <time>2020-09-27T16:16:07Z</time>
      </trkpt>
      <trkpt lat="40.31024" lon="-7.91741">
        <ele>468.736</ele>
        <time>2020-09-27T16:16:09Z</time>
      </trkpt>
      <trkpt lat="40.30995" lon="-7.91762">
        <ele>468.317</ele>
        <time>2020-09-27T16:16:11Z</time>
      </trkpt>
      <trkpt lat="40.30962" lon="-7.91788">
        <ele>467.618</ele>
        <time>2020-09-27T16:16:13Z</time>
      </trkpt>
      <trkpt lat="40.3095" lon="-7.91804">
        <ele>467.108</ele>
        <time>2020-09-27T16:16:14Z</time>
      </trkpt>
      <trkpt lat="40.30934" lon="-7.91835">
        <ele>466.288</ele>
        <time>2020-09-27T16:16:16Z</time>
      </trkpt>
      <trkpt lat="40.30927" lon="-7.91848">
        <ele>465.28</ele>
        <time>2020-09-27T16:16:17Z</time>
      </trkpt>
      <trkpt lat="40.30916" lon="-7.91873">
        <ele>464.238</ele>
        <time>2020-09-27T16:16:19Z</time>
      </trkpt>
      <trkpt lat="40.3091" lon="-7.91884">
        <ele>463.54</ele>
        <time>2020-09-27T16:16:20Z</time>
      </trkpt>
      <trkpt lat="40.30905" lon="-7.91894">
        <ele>463.018</ele>
        <time>2020-09-27T16:16:21Z</time>
      </trkpt>
      <trkpt lat="40.30895" lon="-7.91907">
        <ele>462.558</ele>
        <time>2020-09-27T16:16:23Z</time>
      </trkpt>
      <trkpt lat="40.30885" lon="-7.91924">
        <ele>461.928</ele>
        <time>2020-09-27T16:16:25Z</time>
      </trkpt>
      <trkpt lat="40.30877" lon="-7.91947">
        <ele>461.436</ele>
        <time>2020-09-27T16:16:27Z</time>
      </trkpt>
      <trkpt lat="40.30873" lon="-7.9196">
        <ele>460.925</ele>
        <time>2020-09-27T16:16:29Z</time>
      </trkpt>
      <trkpt lat="40.3087" lon="-7.91955">
        <ele>460.826</ele>
        <time>2020-09-27T16:16:32Z</time>
      </trkpt>
      <trkpt lat="40.30875" lon="-7.91941">
        <ele>461.008</ele>
        <time>2020-09-27T16:16:34Z</time>
      </trkpt>
      <trkpt lat="40.30882" lon="-7.91919">
        <ele>461.308</ele>
        <time>2020-09-27T16:16:36Z</time>
      </trkpt>
      <trkpt lat="40.30902" lon="-7.91892">
        <ele>461.857</ele>
        <time>2020-09-27T16:16:38Z</time>
      </trkpt>
      <trkpt lat="40.3091" lon="-7.91877">
        <ele>462.269</ele>
        <time>2020-09-27T16:16:39Z</time>
      </trkpt>
      <trkpt lat="40.30927" lon="-7.91847">
        <ele>462.847</ele>
        <time>2020-09-27T16:16:41Z</time>
      </trkpt>
      <trkpt lat="40.30945" lon="-7.91814">
        <ele>463.659</ele>
        <time>2020-09-27T16:16:43Z</time>
      </trkpt>
      <trkpt lat="40.30955" lon="-7.91797">
        <ele>464.147</ele>
        <time>2020-09-27T16:16:44Z</time>
      </trkpt>
      <trkpt lat="40.30967" lon="-7.91781">
        <ele>464.587</ele>
        <time>2020-09-27T16:16:45Z</time>
      </trkpt>
      <trkpt lat="40.30999" lon="-7.91754">
        <ele>465.347</ele>
        <time>2020-09-27T16:16:47Z</time>
      </trkpt>
      <trkpt lat="40.31015" lon="-7.9174">
        <ele>465.855</ele>
        <time>2020-09-27T16:16:48Z</time>
      </trkpt>
      <trkpt lat="40.31042" lon="-7.91707">
        <ele>466.562</ele>
        <time>2020-09-27T16:16:50Z</time>
      </trkpt>
      <trkpt lat="40.31054" lon="-7.91673">
        <ele>467.383</ele>
        <time>2020-09-27T16:16:52Z</time>
      </trkpt>
      <trkpt lat="40.31054" lon="-7.91654">
        <ele>468.111</ele>
        <time>2020-09-27T16:16:53Z</time>
      </trkpt>
      <trkpt lat="40.31043" lon="-7.91612">
        <ele>469.308</ele>
        <time>2020-09-27T16:16:55Z</time>
      </trkpt>
      <trkpt lat="40.31035" lon="-7.91589">
        <ele>470.121</ele>
        <time>2020-09-27T16:16:56Z</time>
      </trkpt>
      <trkpt lat="40.31028" lon="-7.91565">
        <ele>470.853</ele>
        <time>2020-09-27T16:16:57Z</time>
      </trkpt>
      <trkpt lat="40.31011" lon="-7.91514">
        <ele>471.761</ele>
        <time>2020-09-27T16:16:59Z</time>
      </trkpt>
      <trkpt lat="40.31002" lon="-7.91492">
        <ele>472.453</ele>
        <time>2020-09-27T16:17:00Z</time>
      </trkpt>
      <trkpt lat="40.30988" lon="-7.91455">
        <ele>473.391</ele>
        <time>2020-09-27T16:17:02Z</time>
      </trkpt>
      <trkpt lat="40.30987" lon="-7.91419">
        <ele>474.411</ele>
        <time>2020-09-27T16:17:04Z</time>
      </trkpt>
      <trkpt lat="40.3099" lon="-7.91402">
        <ele>475.361</ele>
        <time>2020-09-27T16:17:05Z</time>
      </trkpt>
      <trkpt lat="40.31" lon="-7.91367">
        <ele>476.569</ele>
        <time>2020-09-27T16:17:07Z</time>
      </trkpt>
      <trkpt lat="40.31012" lon="-7.91333">
        <ele>477.728</ele>
        <time>2020-09-27T16:17:09Z</time>
      </trkpt>
      <trkpt lat="40.31019" lon="-7.91316">
        <ele>478.889</ele>
        <time>2020-09-27T16:17:10Z</time>
      </trkpt>
      <trkpt lat="40.31036" lon="-7.9128">
        <ele>480.017</ele>
        <time>2020-09-27T16:17:12Z</time>
      </trkpt>
      <trkpt lat="40.31066" lon="-7.91219">
        <ele>481.408</ele>
        <time>2020-09-27T16:17:14Z</time>
      </trkpt>
      <trkpt lat="40.31083" lon="-7.91194">
        <ele>482.457</ele>
        <time>2020-09-27T16:17:16Z</time>
      </trkpt>
      <trkpt lat="40.31094" lon="-7.91156">
        <ele>483.159</ele>
        <time>2020-09-27T16:17:17Z</time>
      </trkpt>
      <trkpt lat="40.31101" lon="-7.91124">
        <ele>483.797</ele>
        <time>2020-09-27T16:17:18Z</time>
      </trkpt>
      <trkpt lat="40.31108" lon="-7.91068">
        <ele>484.889</ele>
        <time>2020-09-27T16:17:20Z</time>
      </trkpt>
      <trkpt lat="40.3111" lon="-7.91015">
        <ele>485.867</ele>
        <time>2020-09-27T16:17:22Z</time>
      </trkpt>
      <trkpt lat="40.31111" lon="-7.90988">
        <ele>486.877</ele>
        <time>2020-09-27T16:17:23Z</time>
      </trkpt>
      <trkpt lat="40.31113" lon="-7.90962">
        <ele>487.857</ele>
        <time>2020-09-27T16:17:24Z</time>
      </trkpt>
      <trkpt lat="40.31117" lon="-7.90911">
        <ele>488.965</ele>
        <time>2020-09-27T16:17:26Z</time>
      </trkpt>
      <trkpt lat="40.31119" lon="-7.90888">
        <ele>489.878</ele>
        <time>2020-09-27T16:17:27Z</time>
      </trkpt>
      <trkpt lat="40.31121" lon="-7.90866">
        <ele>490.633</ele>
        <time>2020-09-27T16:17:28Z</time>
      </trkpt>
      <trkpt lat="40.31131" lon="-7.90824">
        <ele>491.326</ele>
        <time>2020-09-27T16:17:30Z</time>
      </trkpt>
      <trkpt lat="40.31162" lon="-7.90793">
        <ele>492.308</ele>
        <time>2020-09-27T16:17:32Z</time>
      </trkpt>
      <trkpt lat="40.31175" lon="-7.90776">
        <ele>493.112</ele>
        <time>2020-09-27T16:17:33Z</time>
      </trkpt>
      <trkpt lat="40.31185" lon="-7.90758">
        <ele>493.724</ele>
        <time>2020-09-27T16:17:34Z</time>
      </trkpt>
      <trkpt lat="40.3119" lon="-7.90736">
        <ele>494.432</ele>
        <time>2020-09-27T16:17:35Z</time>
      </trkpt>
      <trkpt lat="40.31195" lon="-7.90688">
        <ele>495.554</ele>
        <time>2020-09-27T16:17:37Z</time>
      </trkpt>
      <trkpt lat="40.31202" lon="-7.90635">
        <ele>496.942</ele>
        <time>2020-09-27T16:17:39Z</time>
      </trkpt>
      <trkpt lat="40.31206" lon="-7.90608">
        <ele>498.132</ele>
        <time>2020-09-27T16:17:40Z</time>
      </trkpt>
      <trkpt lat="40.31211" lon="-7.90581">
        <ele>499.012</ele>
        <time>2020-09-27T16:17:41Z</time>
      </trkpt>
      <trkpt lat="40.31215" lon="-7.90556">
        <ele>499.97</ele>
        <time>2020-09-27T16:17:42Z</time>
      </trkpt>
      <trkpt lat="40.31214" lon="-7.90508">
        <ele>500.997</ele>
        <time>2020-09-27T16:17:44Z</time>
      </trkpt>
      <trkpt lat="40.31208" lon="-7.90485">
        <ele>501.723</ele>
        <time>2020-09-27T16:17:45Z</time>
      </trkpt>
      <trkpt lat="40.31197" lon="-7.90435">
        <ele>502.625</ele>
        <time>2020-09-27T16:17:47Z</time>
      </trkpt>
      <trkpt lat="40.31197" lon="-7.90407">
        <ele>503.708</ele>
        <time>2020-09-27T16:17:48Z</time>
      </trkpt>
      <trkpt lat="40.31203" lon="-7.9035">
        <ele>504.984</ele>
        <time>2020-09-27T16:17:50Z</time>
      </trkpt>
      <trkpt lat="40.31207" lon="-7.90322">
        <ele>506.066</ele>
        <time>2020-09-27T16:17:51Z</time>
      </trkpt>
      <trkpt lat="40.31211" lon="-7.90294">
        <ele>507.014</ele>
        <time>2020-09-27T16:17:52Z</time>
      </trkpt>
      <trkpt lat="40.31214" lon="-7.90269">
        <ele>507.956</ele>
        <time>2020-09-27T16:17:53Z</time>
      </trkpt>
      <trkpt lat="40.31222" lon="-7.90221">
        <ele>509.024</ele>
        <time>2020-09-27T16:17:55Z</time>
      </trkpt>
      <trkpt lat="40.31225" lon="-7.90197">
        <ele>509.894</ele>
        <time>2020-09-27T16:17:56Z</time>
      </trkpt>
      <trkpt lat="40.31228" lon="-7.90149">
        <ele>510.974</ele>
        <time>2020-09-27T16:17:58Z</time>
      </trkpt>
      <trkpt lat="40.3123" lon="-7.90124">
        <ele>511.832</ele>
        <time>2020-09-27T16:17:59Z</time>
      </trkpt>
      <trkpt lat="40.31235" lon="-7.90072">
        <ele>512.898</ele>
        <time>2020-09-27T16:18:01Z</time>
      </trkpt>
      <trkpt lat="40.31245" lon="-7.90021">
        <ele>514.015</ele>
        <time>2020-09-27T16:18:03Z</time>
      </trkpt>
      <trkpt lat="40.31261" lon="-7.89971">
        <ele>515.426</ele>
        <time>2020-09-27T16:18:05Z</time>
      </trkpt>
      <trkpt lat="40.31269" lon="-7.89945">
        <ele>516.708</ele>
        <time>2020-09-27T16:18:06Z</time>
      </trkpt>
      <trkpt lat="40.31283" lon="-7.89892">
        <ele>518.284</ele>
        <time>2020-09-27T16:18:08Z</time>
      </trkpt>
      <trkpt lat="40.31297" lon="-7.8984">
        <ele>519.126</ele>
        <time>2020-09-27T16:18:10Z</time>
      </trkpt>
      <trkpt lat="40.31305" lon="-7.89814">
        <ele>519.694</ele>
        <time>2020-09-27T16:18:11Z</time>
      </trkpt>
      <trkpt lat="40.31319" lon="-7.89762">
        <ele>523.616</ele>
        <time>2020-09-27T16:18:13Z</time>
      </trkpt>
      <trkpt lat="40.31325" lon="-7.89739">
        <ele>527.194</ele>
        <time>2020-09-27T16:18:14Z</time>
      </trkpt>
      <trkpt lat="40.31337" lon="-7.89695">
        <ele>528.044</ele>
        <time>2020-09-27T16:18:16Z</time>
      </trkpt>
      <trkpt lat="40.31343" lon="-7.89673">
        <ele>528.334</ele>
        <time>2020-09-27T16:18:17Z</time>
      </trkpt>
      <trkpt lat="40.31355" lon="-7.8963">
        <ele>528.492</ele>
        <time>2020-09-27T16:18:19Z</time>
      </trkpt>
      <trkpt lat="40.3136" lon="-7.8961">
        <ele>528.576</ele>
        <time>2020-09-27T16:18:20Z</time>
      </trkpt>
      <trkpt lat="40.31371" lon="-7.89574">
        <ele>529.19</ele>
        <time>2020-09-27T16:18:22Z</time>
      </trkpt>
      <trkpt lat="40.31378" lon="-7.89559">
        <ele>529.519</ele>
        <time>2020-09-27T16:18:23Z</time>
      </trkpt>
      <trkpt lat="40.314" lon="-7.89536">
        <ele>530.008</ele>
        <time>2020-09-27T16:18:25Z</time>
      </trkpt>
      <trkpt lat="40.31425" lon="-7.89522">
        <ele>530.382</ele>
        <time>2020-09-27T16:18:27Z</time>
      </trkpt>
      <trkpt lat="40.31444" lon="-7.89512">
        <ele>534.334</ele>
        <time>2020-09-27T16:18:29Z</time>
      </trkpt>
      <trkpt lat="40.31451" lon="-7.89508">
        <ele>538.342</ele>
        <time>2020-09-27T16:18:30Z</time>
      </trkpt>
      <trkpt lat="40.31465" lon="-7.89502">
        <ele>539.664</ele>
        <time>2020-09-27T16:18:32Z</time>
      </trkpt>
      <trkpt lat="40.31469" lon="-7.895">
        <ele>539.812</ele>
        <time>2020-09-27T16:18:33Z</time>
      </trkpt>
      <trkpt lat="40.31474" lon="-7.89496">
        <ele>538.912</ele>
        <time>2020-09-27T16:18:36Z</time>
      </trkpt>
      <trkpt lat="40.3148" lon="-7.8949">
        <ele>538.022</ele>
        <time>2020-09-27T16:19:21Z</time>
      </trkpt>
      <trkpt lat="40.31488" lon="-7.89491">
        <ele>537.58</ele>
        <time>2020-09-27T16:19:23Z</time>
      </trkpt>
      <trkpt lat="40.31496" lon="-7.89506">
        <ele>537.263</ele>
        <time>2020-09-27T16:19:25Z</time>
      </trkpt>
      <trkpt lat="40.31504" lon="-7.89528">
        <ele>537.044</ele>
        <time>2020-09-27T16:19:27Z</time>
      </trkpt>
      <trkpt lat="40.31509" lon="-7.89553">
        <ele>536.918</ele>
        <time>2020-09-27T16:19:29Z</time>
      </trkpt>
      <trkpt lat="40.31512" lon="-7.89578">
        <ele>536.808</ele>
        <time>2020-09-27T16:19:31Z</time>
      </trkpt>
      <trkpt lat="40.31516" lon="-7.89603">
        <ele>536.861</ele>
        <time>2020-09-27T16:19:33Z</time>
      </trkpt>
      <trkpt lat="40.31517" lon="-7.89616">
        <ele>536.833</ele>
        <time>2020-09-27T16:19:34Z</time>
      </trkpt>
      <trkpt lat="40.31519" lon="-7.89629">
        <ele>536.811</ele>
        <time>2020-09-27T16:19:35Z</time>
      </trkpt>
      <trkpt lat="40.31522" lon="-7.8966">
        <ele>536.843</ele>
        <time>2020-09-27T16:19:37Z</time>
      </trkpt>
      <trkpt lat="40.31523" lon="-7.89678">
        <ele>536.871</ele>
        <time>2020-09-27T16:19:38Z</time>
      </trkpt>
      <trkpt lat="40.31524" lon="-7.89715">
        <ele>536.831</ele>
        <time>2020-09-27T16:19:40Z</time>
      </trkpt>
      <trkpt lat="40.31523" lon="-7.89735">
        <ele>536.811</ele>
        <time>2020-09-27T16:19:41Z</time>
      </trkpt>
      <trkpt lat="40.31523" lon="-7.89757">
        <ele>536.889</ele>
        <time>2020-09-27T16:19:42Z</time>
      </trkpt>
      <trkpt lat="40.31522" lon="-7.89779">
        <ele>536.894</ele>
        <time>2020-09-27T16:19:43Z</time>
      </trkpt>
      <trkpt lat="40.31524" lon="-7.89825">
        <ele>536.857</ele>
        <time>2020-09-27T16:19:45Z</time>
      </trkpt>
      <trkpt lat="40.31526" lon="-7.89873">
        <ele>536.822</ele>
        <time>2020-09-27T16:19:47Z</time>
      </trkpt>
      <trkpt lat="40.31527" lon="-7.8992">
        <ele>536.808</ele>
        <time>2020-09-27T16:19:49Z</time>
      </trkpt>
      <trkpt lat="40.31527" lon="-7.89944">
        <ele>536.864</ele>
        <time>2020-09-27T16:19:50Z</time>
      </trkpt>
      <trkpt lat="40.31528" lon="-7.89993">
        <ele>536.876</ele>
        <time>2020-09-27T16:19:52Z</time>
      </trkpt>
      <trkpt lat="40.31528" lon="-7.90018">
        <ele>536.834</ele>
        <time>2020-09-27T16:19:53Z</time>
      </trkpt>
      <trkpt lat="40.31528" lon="-7.90069">
        <ele>536.866</ele>
        <time>2020-09-27T16:19:55Z</time>
      </trkpt>
      <trkpt lat="40.31528" lon="-7.90123">
        <ele>536.854</ele>
        <time>2020-09-27T16:19:57Z</time>
      </trkpt>
      <trkpt lat="40.31529" lon="-7.90151">
        <ele>536.814</ele>
        <time>2020-09-27T16:19:58Z</time>
      </trkpt>
      <trkpt lat="40.31529" lon="-7.90207">
        <ele>536.824</ele>
        <time>2020-09-27T16:20:00Z</time>
      </trkpt>
      <trkpt lat="40.31529" lon="-7.90265">
        <ele>536.822</ele>
        <time>2020-09-27T16:20:02Z</time>
      </trkpt>
      <trkpt lat="40.3153" lon="-7.90294">
        <ele>536.887</ele>
        <time>2020-09-27T16:20:03Z</time>
      </trkpt>
      <trkpt lat="40.31533" lon="-7.90353">
        <ele>536.842</ele>
        <time>2020-09-27T16:20:05Z</time>
      </trkpt>
      <trkpt lat="40.31535" lon="-7.90383">
        <ele>536.826</ele>
        <time>2020-09-27T16:20:06Z</time>
      </trkpt>
      <trkpt lat="40.31538" lon="-7.90413">
        <ele>536.808</ele>
        <time>2020-09-27T16:20:07Z</time>
      </trkpt>
      <trkpt lat="40.31542" lon="-7.90474">
        <ele>536.883</ele>
        <time>2020-09-27T16:20:09Z</time>
      </trkpt>
      <trkpt lat="40.31544" lon="-7.90505">
        <ele>536.815</ele>
        <time>2020-09-27T16:20:10Z</time>
      </trkpt>
      <trkpt lat="40.31552" lon="-7.90563">
        <ele>536.883</ele>
        <time>2020-09-27T16:20:12Z</time>
      </trkpt>
      <trkpt lat="40.31569" lon="-7.90619">
        <ele>536.885</ele>
        <time>2020-09-27T16:20:14Z</time>
      </trkpt>
      <trkpt lat="40.31588" lon="-7.90673">
        <ele>536.853</ele>
        <time>2020-09-27T16:20:16Z</time>
      </trkpt>
      <trkpt lat="40.31598" lon="-7.90701">
        <ele>536.873</ele>
        <time>2020-09-27T16:20:17Z</time>
      </trkpt>
      <trkpt lat="40.31617" lon="-7.90758">
        <ele>536.893</ele>
        <time>2020-09-27T16:20:19Z</time>
      </trkpt>
      <trkpt lat="40.31637" lon="-7.90816">
        <ele>540.861</ele>
        <time>2020-09-27T16:20:21Z</time>
      </trkpt>
      <trkpt lat="40.31647" lon="-7.90846">
        <ele>544.887</ele>
        <time>2020-09-27T16:20:22Z</time>
      </trkpt>
      <trkpt lat="40.31656" lon="-7.90877">
        <ele>547.242</ele>
        <time>2020-09-27T16:20:23Z</time>
      </trkpt>
      <trkpt lat="40.31674" lon="-7.90942">
        <ele>543.426</ele>
        <time>2020-09-27T16:20:25Z</time>
      </trkpt>
      <trkpt lat="40.31681" lon="-7.90976">
        <ele>539.608</ele>
        <time>2020-09-27T16:20:26Z</time>
      </trkpt>
      <trkpt lat="40.31688" lon="-7.9101">
        <ele>536.293</ele>
        <time>2020-09-27T16:20:27Z</time>
      </trkpt>
      <trkpt lat="40.31693" lon="-7.91043">
        <ele>533.325</ele>
        <time>2020-09-27T16:20:28Z</time>
      </trkpt>
      <trkpt lat="40.31704" lon="-7.91104">
        <ele>530.353</ele>
        <time>2020-09-27T16:20:30Z</time>
      </trkpt>
      <trkpt lat="40.31709" lon="-7.91133">
        <ele>528.185</ele>
        <time>2020-09-27T16:20:31Z</time>
      </trkpt>
      <trkpt lat="40.31714" lon="-7.91161">
        <ele>526.823</ele>
        <time>2020-09-27T16:20:32Z</time>
      </trkpt>
      <trkpt lat="40.31719" lon="-7.91187">
        <ele>530.833</ele>
        <time>2020-09-27T16:20:33Z</time>
      </trkpt>
      <trkpt lat="40.31724" lon="-7.91209">
        <ele>534.873</ele>
        <time>2020-09-27T16:20:34Z</time>
      </trkpt>
      <trkpt lat="40.31746" lon="-7.91246">
        <ele>533.931</ele>
        <time>2020-09-27T16:20:36Z</time>
      </trkpt>
      <trkpt lat="40.31762" lon="-7.91261">
        <ele>532.585</ele>
        <time>2020-09-27T16:20:37Z</time>
      </trkpt>
      <trkpt lat="40.31781" lon="-7.91275">
        <ele>531.089</ele>
        <time>2020-09-27T16:20:38Z</time>
      </trkpt>
      <trkpt lat="40.31818" lon="-7.91309">
        <ele>532.317</ele>
        <time>2020-09-27T16:20:40Z</time>
      </trkpt>
      <trkpt lat="40.3185" lon="-7.9135">
        <ele>529.008</ele>
        <time>2020-09-27T16:20:42Z</time>
      </trkpt>
      <trkpt lat="40.31885" lon="-7.91389">
        <ele>525.053</ele>
        <time>2020-09-27T16:20:44Z</time>
      </trkpt>
      <trkpt lat="40.31925" lon="-7.91428">
        <ele>521.475</ele>
        <time>2020-09-27T16:20:46Z</time>
      </trkpt>
      <trkpt lat="40.31948" lon="-7.91447">
        <ele>518.613</ele>
        <time>2020-09-27T16:20:47Z</time>
      </trkpt>
      <trkpt lat="40.31991" lon="-7.91489">
        <ele>515.815</ele>
        <time>2020-09-27T16:20:49Z</time>
      </trkpt>
      <trkpt lat="40.32038" lon="-7.91537">
        <ele>513.143</ele>
        <time>2020-09-27T16:20:51Z</time>
      </trkpt>
      <trkpt lat="40.32087" lon="-7.91584">
        <ele>511.293</ele>
        <time>2020-09-27T16:20:53Z</time>
      </trkpt>
      <trkpt lat="40.32109" lon="-7.91603">
        <ele>510.143</ele>
        <time>2020-09-27T16:20:54Z</time>
      </trkpt>
      <trkpt lat="40.32144" lon="-7.91635">
        <ele>510.111</ele>
        <time>2020-09-27T16:20:56Z</time>
      </trkpt>
      <trkpt lat="40.32159" lon="-7.9165">
        <ele>510.639</ele>
        <time>2020-09-27T16:20:57Z</time>
      </trkpt>
      <trkpt lat="40.32175" lon="-7.91665">
        <ele>511.401</ele>
        <time>2020-09-27T16:20:58Z</time>
      </trkpt>
      <trkpt lat="40.32212" lon="-7.91705">
        <ele>512.821</ele>
        <time>2020-09-27T16:21:00Z</time>
      </trkpt>
      <trkpt lat="40.32259" lon="-7.91745">
        <ele>515.008</ele>
        <time>2020-09-27T16:21:02Z</time>
      </trkpt>
      <trkpt lat="40.32303" lon="-7.91787">
        <ele>519.018</ele>
        <time>2020-09-27T16:21:04Z</time>
      </trkpt>
      <trkpt lat="40.32342" lon="-7.91825">
        <ele>522.77</ele>
        <time>2020-09-27T16:21:06Z</time>
      </trkpt>
      <trkpt lat="40.3236" lon="-7.91843">
        <ele>524.198</ele>
        <time>2020-09-27T16:21:07Z</time>
      </trkpt>
      <trkpt lat="40.32376" lon="-7.9186">
        <ele>524.35</ele>
        <time>2020-09-27T16:21:08Z</time>
      </trkpt>
      <trkpt lat="40.32403" lon="-7.91902">
        <ele>523.268</ele>
        <time>2020-09-27T16:21:10Z</time>
      </trkpt>
      <trkpt lat="40.32412" lon="-7.91928">
        <ele>522.218</ele>
        <time>2020-09-27T16:21:11Z</time>
      </trkpt>
      <trkpt lat="40.32419" lon="-7.91988">
        <ele>521.378</ele>
        <time>2020-09-27T16:21:13Z</time>
      </trkpt>
      <trkpt lat="40.3242" lon="-7.92021">
        <ele>520.586</ele>
        <time>2020-09-27T16:21:14Z</time>
      </trkpt>
      <trkpt lat="40.32421" lon="-7.92089">
        <ele>519.255</ele>
        <time>2020-09-27T16:21:16Z</time>
      </trkpt>
      <trkpt lat="40.32422" lon="-7.92124">
        <ele>518.307</ele>
        <time>2020-09-27T16:21:17Z</time>
      </trkpt>
      <trkpt lat="40.32423" lon="-7.92188">
        <ele>517.317</ele>
        <time>2020-09-27T16:21:19Z</time>
      </trkpt>
      <trkpt lat="40.32422" lon="-7.92217">
        <ele>516.508</ele>
        <time>2020-09-27T16:21:20Z</time>
      </trkpt>
      <trkpt lat="40.3242" lon="-7.92246">
        <ele>516.09</ele>
        <time>2020-09-27T16:21:21Z</time>
      </trkpt>
      <trkpt lat="40.32409" lon="-7.92302">
        <ele>515.652</ele>
        <time>2020-09-27T16:21:23Z</time>
      </trkpt>
      <trkpt lat="40.32391" lon="-7.92354">
        <ele>515.62</ele>
        <time>2020-09-27T16:21:25Z</time>
      </trkpt>
      <trkpt lat="40.32377" lon="-7.92376">
        <ele>515.922</ele>
        <time>2020-09-27T16:21:26Z</time>
      </trkpt>
      <trkpt lat="40.32341" lon="-7.92415">
        <ele>516.47</ele>
        <time>2020-09-27T16:21:28Z</time>
      </trkpt>
      <trkpt lat="40.32302" lon="-7.92456">
        <ele>517.16</ele>
        <time>2020-09-27T16:21:30Z</time>
      </trkpt>
      <trkpt lat="40.32284" lon="-7.92477">
        <ele>517.76</ele>
        <time>2020-09-27T16:21:31Z</time>
      </trkpt>
      <trkpt lat="40.32254" lon="-7.92518">
        <ele>518.188</ele>
        <time>2020-09-27T16:21:33Z</time>
      </trkpt>
      <trkpt lat="40.32241" lon="-7.92538">
        <ele>518.331</ele>
        <time>2020-09-27T16:21:34Z</time>
      </trkpt>
      <trkpt lat="40.32224" lon="-7.92587">
        <ele>522.361</ele>
        <time>2020-09-27T16:21:36Z</time>
      </trkpt>
      <trkpt lat="40.32221" lon="-7.92614">
        <ele>526.307</ele>
        <time>2020-09-27T16:21:37Z</time>
      </trkpt>
      <trkpt lat="40.32224" lon="-7.92641">
        <ele>529.008</ele>
        <time>2020-09-27T16:21:38Z</time>
      </trkpt>
      <trkpt lat="40.32231" lon="-7.92666">
        <ele>529.998</ele>
        <time>2020-09-27T16:21:39Z</time>
      </trkpt>
      <trkpt lat="40.32254" lon="-7.92715">
        <ele>530.96</ele>
        <time>2020-09-27T16:21:41Z</time>
      </trkpt>
      <trkpt lat="40.32286" lon="-7.92758">
        <ele>530.348</ele>
        <time>2020-09-27T16:21:43Z</time>
      </trkpt>
      <trkpt lat="40.32329" lon="-7.9279">
        <ele>529.86</ele>
        <time>2020-09-27T16:21:45Z</time>
      </trkpt>
      <trkpt lat="40.32377" lon="-7.92811">
        <ele>529.788</ele>
        <time>2020-09-27T16:21:47Z</time>
      </trkpt>
      <trkpt lat="40.32402" lon="-7.92822">
        <ele>529.888</ele>
        <time>2020-09-27T16:21:48Z</time>
      </trkpt>
      <trkpt lat="40.32425" lon="-7.92836">
        <ele>530.238</ele>
        <time>2020-09-27T16:21:49Z</time>
      </trkpt>
      <trkpt lat="40.32468" lon="-7.92873">
        <ele>531.266</ele>
        <time>2020-09-27T16:21:51Z</time>
      </trkpt>
      <trkpt lat="40.32486" lon="-7.92893">
        <ele>532.188</ele>
        <time>2020-09-27T16:21:52Z</time>
      </trkpt>
      <trkpt lat="40.32512" lon="-7.92933">
        <ele>532.924</ele>
        <time>2020-09-27T16:21:54Z</time>
      </trkpt>
      <trkpt lat="40.32519" lon="-7.92957">
        <ele>533.726</ele>
        <time>2020-09-27T16:21:55Z</time>
      </trkpt>
      <trkpt lat="40.32519" lon="-7.9301">
        <ele>537.708</ele>
        <time>2020-09-27T16:21:57Z</time>
      </trkpt>
      <trkpt lat="40.32516" lon="-7.93037">
        <ele>541.713</ele>
        <time>2020-09-27T16:21:58Z</time>
      </trkpt>
      <trkpt lat="40.32519" lon="-7.93086">
        <ele>545.435</ele>
        <time>2020-09-27T16:22:00Z</time>
      </trkpt>
      <trkpt lat="40.32529" lon="-7.93105">
        <ele>545.713</ele>
        <time>2020-09-27T16:22:01Z</time>
      </trkpt>
      <trkpt lat="40.32545" lon="-7.9312">
        <ele>544.515</ele>
        <time>2020-09-27T16:22:02Z</time>
      </trkpt>
      <trkpt lat="40.32565" lon="-7.93133">
        <ele>542.763</ele>
        <time>2020-09-27T16:22:03Z</time>
      </trkpt>
      <trkpt lat="40.32603" lon="-7.93162">
        <ele>540.063</ele>
        <time>2020-09-27T16:22:05Z</time>
      </trkpt>
      <trkpt lat="40.32616" lon="-7.93184">
        <ele>537.773</ele>
        <time>2020-09-27T16:22:06Z</time>
      </trkpt>
      <trkpt lat="40.32626" lon="-7.93211">
        <ele>535.871</ele>
        <time>2020-09-27T16:22:07Z</time>
      </trkpt>
      <trkpt lat="40.32637" lon="-7.93275">
        <ele>533.269</ele>
        <time>2020-09-27T16:22:09Z</time>
      </trkpt>
      <trkpt lat="40.32648" lon="-7.93345">
        <ele>530.204</ele>
        <time>2020-09-27T16:22:11Z</time>
      </trkpt>
      <trkpt lat="40.32659" lon="-7.9342">
        <ele>526.824</ele>
        <time>2020-09-27T16:22:13Z</time>
      </trkpt>
      <trkpt lat="40.32665" lon="-7.93459">
        <ele>524.008</ele>
        <time>2020-09-27T16:22:14Z</time>
      </trkpt>
      <trkpt lat="40.32677" lon="-7.93539">
        <ele>520.941</ele>
        <time>2020-09-27T16:22:16Z</time>
      </trkpt>
      <trkpt lat="40.3269" lon="-7.93621">
        <ele>517.773</ele>
        <time>2020-09-27T16:22:18Z</time>
      </trkpt>
      <trkpt lat="40.32696" lon="-7.93662">
        <ele>515.361</ele>
        <time>2020-09-27T16:22:19Z</time>
      </trkpt>
      <trkpt lat="40.32706" lon="-7.93743">
        <ele>512.663</ele>
        <time>2020-09-27T16:22:21Z</time>
      </trkpt>
      <trkpt lat="40.3271" lon="-7.93784">
        <ele>510.681</ele>
        <time>2020-09-27T16:22:22Z</time>
      </trkpt>
      <trkpt lat="40.32718" lon="-7.93862">
        <ele>508.751</ele>
        <time>2020-09-27T16:22:24Z</time>
      </trkpt>
      <trkpt lat="40.32726" lon="-7.93932">
        <ele>506.941</ele>
        <time>2020-09-27T16:22:26Z</time>
      </trkpt>
      <trkpt lat="40.32731" lon="-7.93964">
        <ele>505.669</ele>
        <time>2020-09-27T16:22:27Z</time>
      </trkpt>
      <trkpt lat="40.32739" lon="-7.93994">
        <ele>504.654</ele>
        <time>2020-09-27T16:22:28Z</time>
      </trkpt>
      <trkpt lat="40.32765" lon="-7.94046">
        <ele>503.356</ele>
        <time>2020-09-27T16:22:30Z</time>
      </trkpt>
      <trkpt lat="40.32783" lon="-7.9407">
        <ele>502.111</ele>
        <time>2020-09-27T16:22:31Z</time>
      </trkpt>
      <trkpt lat="40.32824" lon="-7.94116">
        <ele>500.608</ele>
        <time>2020-09-27T16:22:33Z</time>
      </trkpt>
      <trkpt lat="40.32865" lon="-7.9416">
        <ele>498.95</ele>
        <time>2020-09-27T16:22:35Z</time>
      </trkpt>
      <trkpt lat="40.32882" lon="-7.9418">
        <ele>497.482</ele>
        <time>2020-09-27T16:22:36Z</time>
      </trkpt>
      <trkpt lat="40.32895" lon="-7.94201">
        <ele>496.11</ele>
        <time>2020-09-27T16:22:37Z</time>
      </trkpt>
      <trkpt lat="40.32903" lon="-7.94249">
        <ele>495.292</ele>
        <time>2020-09-27T16:22:39Z</time>
      </trkpt>
      <trkpt lat="40.32898" lon="-7.94276">
        <ele>494.85</ele>
        <time>2020-09-27T16:22:40Z</time>
      </trkpt>
      <trkpt lat="40.32878" lon="-7.94333">
        <ele>494.85</ele>
        <time>2020-09-27T16:22:42Z</time>
      </trkpt>
      <trkpt lat="40.32868" lon="-7.94363">
        <ele>494.99</ele>
        <time>2020-09-27T16:22:43Z</time>
      </trkpt>
      <trkpt lat="40.32855" lon="-7.94419">
        <ele>495.058</ele>
        <time>2020-09-27T16:22:45Z</time>
      </trkpt>
      <trkpt lat="40.32856" lon="-7.94446">
        <ele>495.367</ele>
        <time>2020-09-27T16:22:46Z</time>
      </trkpt>
      <trkpt lat="40.3287" lon="-7.94499">
        <ele>495.481</ele>
        <time>2020-09-27T16:22:48Z</time>
      </trkpt>
      <trkpt lat="40.3289" lon="-7.94553">
        <ele>495.019</ele>
        <time>2020-09-27T16:22:50Z</time>
      </trkpt>
      <trkpt lat="40.329" lon="-7.94583">
        <ele>494.608</ele>
        <time>2020-09-27T16:22:51Z</time>
      </trkpt>
      <trkpt lat="40.32913" lon="-7.94642">
        <ele>494.021</ele>
        <time>2020-09-27T16:22:53Z</time>
      </trkpt>
      <trkpt lat="40.32916" lon="-7.94708">
        <ele>493.463</ele>
        <time>2020-09-27T16:22:55Z</time>
      </trkpt>
      <trkpt lat="40.32913" lon="-7.94776">
        <ele>492.741</ele>
        <time>2020-09-27T16:22:57Z</time>
      </trkpt>
      <trkpt lat="40.32912" lon="-7.94811">
        <ele>492.183</ele>
        <time>2020-09-27T16:22:58Z</time>
      </trkpt>
      <trkpt lat="40.32911" lon="-7.94846">
        <ele>491.661</ele>
        <time>2020-09-27T16:22:59Z</time>
      </trkpt>
      <trkpt lat="40.32908" lon="-7.94917">
        <ele>491.141</ele>
        <time>2020-09-27T16:23:01Z</time>
      </trkpt>
      <trkpt lat="40.32907" lon="-7.94951">
        <ele>490.721</ele>
        <time>2020-09-27T16:23:02Z</time>
      </trkpt>
      <trkpt lat="40.32893" lon="-7.95015">
        <ele>490.519</ele>
        <time>2020-09-27T16:23:04Z</time>
      </trkpt>
      <trkpt lat="40.32864" lon="-7.9507">
        <ele>490.442</ele>
        <time>2020-09-27T16:23:06Z</time>
      </trkpt>
      <trkpt lat="40.32846" lon="-7.95097">
        <ele>490.322</ele>
        <time>2020-09-27T16:23:07Z</time>
      </trkpt>
      <trkpt lat="40.32828" lon="-7.95123">
        <ele>489.914</ele>
        <time>2020-09-27T16:23:08Z</time>
      </trkpt>
      <trkpt lat="40.32795" lon="-7.95174">
        <ele>488.908</ele>
        <time>2020-09-27T16:23:10Z</time>
      </trkpt>
      <trkpt lat="40.32768" lon="-7.95222">
        <ele>487.519</ele>
        <time>2020-09-27T16:23:12Z</time>
      </trkpt>
      <trkpt lat="40.32754" lon="-7.95279">
        <ele>486.041</ele>
        <time>2020-09-27T16:23:14Z</time>
      </trkpt>
      <trkpt lat="40.32754" lon="-7.95311">
        <ele>484.899</ele>
        <time>2020-09-27T16:23:15Z</time>
      </trkpt>
      <trkpt lat="40.32762" lon="-7.95378">
        <ele>483.861</ele>
        <time>2020-09-27T16:23:17Z</time>
      </trkpt>
      <trkpt lat="40.32767" lon="-7.95413">
        <ele>482.989</ele>
        <time>2020-09-27T16:23:18Z</time>
      </trkpt>
      <trkpt lat="40.32774" lon="-7.95449">
        <ele>482.159</ele>
        <time>2020-09-27T16:23:19Z</time>
      </trkpt>
      <trkpt lat="40.3278" lon="-7.95487">
        <ele>481.439</ele>
        <time>2020-09-27T16:23:20Z</time>
      </trkpt>
      <trkpt lat="40.32784" lon="-7.95526">
        <ele>480.847</ele>
        <time>2020-09-27T16:23:21Z</time>
      </trkpt>
      <trkpt lat="40.32784" lon="-7.95602">
        <ele>479.924</ele>
        <time>2020-09-27T16:23:23Z</time>
      </trkpt>
      <trkpt lat="40.32784" lon="-7.95639">
        <ele>478.904</ele>
        <time>2020-09-27T16:23:24Z</time>
      </trkpt>
      <trkpt lat="40.32783" lon="-7.95675">
        <ele>477.914</ele>
        <time>2020-09-27T16:23:25Z</time>
      </trkpt>
      <trkpt lat="40.32775" lon="-7.95744">
        <ele>476.508</ele>
        <time>2020-09-27T16:23:27Z</time>
      </trkpt>
      <trkpt lat="40.32765" lon="-7.95775">
        <ele>475.537</ele>
        <time>2020-09-27T16:23:28Z</time>
      </trkpt>
      <trkpt lat="40.32743" lon="-7.95832">
        <ele>474.549</ele>
        <time>2020-09-27T16:23:30Z</time>
      </trkpt>
      <trkpt lat="40.32735" lon="-7.95894">
        <ele>473.117</ele>
        <time>2020-09-27T16:23:32Z</time>
      </trkpt>
      <trkpt lat="40.32742" lon="-7.95963">
        <ele>471.239</ele>
        <time>2020-09-27T16:23:34Z</time>
      </trkpt>
      <trkpt lat="40.32752" lon="-7.96034">
        <ele>469.337</ele>
        <time>2020-09-27T16:23:36Z</time>
      </trkpt>
      <trkpt lat="40.32755" lon="-7.96067">
        <ele>467.717</ele>
        <time>2020-09-27T16:23:37Z</time>
      </trkpt>
      <trkpt lat="40.32759" lon="-7.961">
        <ele>471.767</ele>
        <time>2020-09-27T16:23:38Z</time>
      </trkpt>
      <trkpt lat="40.32762" lon="-7.9613">
        <ele>475.165</ele>
        <time>2020-09-27T16:23:39Z</time>
      </trkpt>
      <trkpt lat="40.32765" lon="-7.96157">
        <ele>474.753</ele>
        <time>2020-09-27T16:23:40Z</time>
      </trkpt>
      <trkpt lat="40.32768" lon="-7.96181">
        <ele>472.904</ele>
        <time>2020-09-27T16:23:41Z</time>
      </trkpt>
      <trkpt lat="40.32778" lon="-7.9622">
        <ele>470.114</ele>
        <time>2020-09-27T16:23:43Z</time>
      </trkpt>
      <trkpt lat="40.32788" lon="-7.96235">
        <ele>467.808</ele>
        <time>2020-09-27T16:23:44Z</time>
      </trkpt>
      <trkpt lat="40.32818" lon="-7.96258">
        <ele>465.31</ele>
        <time>2020-09-27T16:23:46Z</time>
      </trkpt>
      <trkpt lat="40.32837" lon="-7.96269">
        <ele>463.112</ele>
        <time>2020-09-27T16:23:47Z</time>
      </trkpt>
      <trkpt lat="40.32857" lon="-7.96281">
        <ele>461.16</ele>
        <time>2020-09-27T16:23:48Z</time>
      </trkpt>
      <trkpt lat="40.32876" lon="-7.96298">
        <ele>459.442</ele>
        <time>2020-09-27T16:23:49Z</time>
      </trkpt>
      <trkpt lat="40.32912" lon="-7.96344">
        <ele>457.21</ele>
        <time>2020-09-27T16:23:51Z</time>
      </trkpt>
      <trkpt lat="40.32929" lon="-7.9637">
        <ele>455.37</ele>
        <time>2020-09-27T16:23:52Z</time>
      </trkpt>
      <trkpt lat="40.32945" lon="-7.96394">
        <ele>453.69</ele>
        <time>2020-09-27T16:23:53Z</time>
      </trkpt>
      <trkpt lat="40.32976" lon="-7.96436">
        <ele>451.678</ele>
        <time>2020-09-27T16:23:55Z</time>
      </trkpt>
      <trkpt lat="40.3299" lon="-7.96454">
        <ele>450.148</ele>
        <time>2020-09-27T16:23:56Z</time>
      </trkpt>
      <trkpt lat="40.33003" lon="-7.96467">
        <ele>449.061</ele>
        <time>2020-09-27T16:23:57Z</time>
      </trkpt>
      <trkpt lat="40.33017" lon="-7.96475">
        <ele>448.317</ele>
        <time>2020-09-27T16:23:58Z</time>
      </trkpt>
      <trkpt lat="40.33031" lon="-7.96478">
        <ele>448.008</ele>
        <time>2020-09-27T16:23:59Z</time>
      </trkpt>
      <trkpt lat="40.33044" lon="-7.96481">
        <ele>447.869</ele>
        <time>2020-09-27T16:24:00Z</time>
      </trkpt>
      <trkpt lat="40.33063" lon="-7.96498">
        <ele>447.621</ele>
        <time>2020-09-27T16:24:02Z</time>
      </trkpt>
      <trkpt lat="40.33068" lon="-7.96511">
        <ele>447.349</ele>
        <time>2020-09-27T16:24:03Z</time>
      </trkpt>
      <trkpt lat="40.33075" lon="-7.96524">
        <ele>446.831</ele>
        <time>2020-09-27T16:24:04Z</time>
      </trkpt>
      <trkpt lat="40.33094" lon="-7.96546">
        <ele>446.399</ele>
        <time>2020-09-27T16:24:06Z</time>
      </trkpt>
      <trkpt lat="40.33116" lon="-7.96565">
        <ele>445.779</ele>
        <time>2020-09-27T16:24:08Z</time>
      </trkpt>
      <trkpt lat="40.33125" lon="-7.96573">
        <ele>445.289</ele>
        <time>2020-09-27T16:24:09Z</time>
      </trkpt>
      <trkpt lat="40.33144" lon="-7.96588">
        <ele>444.777</ele>
        <time>2020-09-27T16:24:11Z</time>
      </trkpt>
      <trkpt lat="40.33154" lon="-7.96592">
        <ele>444.339</ele>
        <time>2020-09-27T16:24:12Z</time>
      </trkpt>
      <trkpt lat="40.33163" lon="-7.96592">
        <ele>444.101</ele>
        <time>2020-09-27T16:24:13Z</time>
      </trkpt>
      <trkpt lat="40.33182" lon="-7.96596">
        <ele>443.721</ele>
        <time>2020-09-27T16:24:15Z</time>
      </trkpt>
      <trkpt lat="40.3319" lon="-7.96603">
        <ele>443.308</ele>
        <time>2020-09-27T16:24:16Z</time>
      </trkpt>
      <trkpt lat="40.33195" lon="-7.96624">
        <ele>442.968</ele>
        <time>2020-09-27T16:24:18Z</time>
      </trkpt>
      <trkpt lat="40.33193" lon="-7.96635">
        <ele>442.79</ele>
        <time>2020-09-27T16:24:19Z</time>
      </trkpt>
      <trkpt lat="40.33181" lon="-7.96651">
        <ele>442.618</ele>
        <time>2020-09-27T16:24:21Z</time>
      </trkpt>
      <trkpt lat="40.33162" lon="-7.96659">
        <ele>442.56</ele>
        <time>2020-09-27T16:24:23Z</time>
      </trkpt>
      <trkpt lat="40.33152" lon="-7.96661">
        <ele>446.568</ele>
        <time>2020-09-27T16:24:24Z</time>
      </trkpt>
      <trkpt lat="40.33137" lon="-7.96663">
        <ele>450.568</ele>
        <time>2020-09-27T16:24:26Z</time>
      </trkpt>
      <trkpt lat="40.33121" lon="-7.96669">
        <ele>452.988</ele>
        <time>2020-09-27T16:24:28Z</time>
      </trkpt>
      <trkpt lat="40.3311" lon="-7.96675">
        <ele>452.876</ele>
        <time>2020-09-27T16:24:29Z</time>
      </trkpt>
      <trkpt lat="40.33086" lon="-7.96698">
        <ele>450.635</ele>
        <time>2020-09-27T16:24:31Z</time>
      </trkpt>
      <trkpt lat="40.33064" lon="-7.96732">
        <ele>447.586</ele>
        <time>2020-09-27T16:24:33Z</time>
      </trkpt>
      <trkpt lat="40.33052" lon="-7.96751">
        <ele>444.914</ele>
        <time>2020-09-27T16:24:34Z</time>
      </trkpt>
      <trkpt lat="40.33025" lon="-7.96792">
        <ele>442.008</ele>
        <time>2020-09-27T16:24:36Z</time>
      </trkpt>
      <trkpt lat="40.33011" lon="-7.96814">
        <ele>439.878</ele>
        <time>2020-09-27T16:24:37Z</time>
      </trkpt>
      <trkpt lat="40.32996" lon="-7.96837">
        <ele>437.73</ele>
        <time>2020-09-27T16:24:38Z</time>
      </trkpt>
      <trkpt lat="40.32967" lon="-7.96883">
        <ele>435.158</ele>
        <time>2020-09-27T16:24:40Z</time>
      </trkpt>
      <trkpt lat="40.32952" lon="-7.96907">
        <ele>432.91</ele>
        <time>2020-09-27T16:24:41Z</time>
      </trkpt>
      <trkpt lat="40.32922" lon="-7.96958">
        <ele>430.858</ele>
        <time>2020-09-27T16:24:43Z</time>
      </trkpt>
      <trkpt lat="40.32895" lon="-7.97012">
        <ele>429.158</ele>
        <time>2020-09-27T16:24:45Z</time>
      </trkpt>
      <trkpt lat="40.32882" lon="-7.97041">
        <ele>427.888</ele>
        <time>2020-09-27T16:24:46Z</time>
      </trkpt>
      <trkpt lat="40.3287" lon="-7.97072">
        <ele>426.966</ele>
        <time>2020-09-27T16:24:47Z</time>
      </trkpt>
      <trkpt lat="40.32844" lon="-7.97135">
        <ele>426.158</ele>
        <time>2020-09-27T16:24:49Z</time>
      </trkpt>
      <trkpt lat="40.32831" lon="-7.97167">
        <ele>425.652</ele>
        <time>2020-09-27T16:24:50Z</time>
      </trkpt>
      <trkpt lat="40.32807" lon="-7.97233">
        <ele>429.617</ele>
        <time>2020-09-27T16:24:52Z</time>
      </trkpt>
      <trkpt lat="40.32796" lon="-7.97268">
        <ele>433.608</ele>
        <time>2020-09-27T16:24:53Z</time>
      </trkpt>
      <trkpt lat="40.32775" lon="-7.97338">
        <ele>437.62</ele>
        <time>2020-09-27T16:24:55Z</time>
      </trkpt>
      <trkpt lat="40.32753" lon="-7.97409">
        <ele>438.422</ele>
        <time>2020-09-27T16:24:57Z</time>
      </trkpt>
      <trkpt lat="40.32742" lon="-7.97445">
        <ele>437.58</ele>
        <time>2020-09-27T16:24:58Z</time>
      </trkpt>
      <trkpt lat="40.32731" lon="-7.97481">
        <ele>436.072</ele>
        <time>2020-09-27T16:24:59Z</time>
      </trkpt>
      <trkpt lat="40.32707" lon="-7.97553">
        <ele>433.72</ele>
        <time>2020-09-27T16:25:01Z</time>
      </trkpt>
      <trkpt lat="40.32695" lon="-7.97588">
        <ele>431.77</ele>
        <time>2020-09-27T16:25:02Z</time>
      </trkpt>
      <trkpt lat="40.32683" lon="-7.97624">
        <ele>429.92</ele>
        <time>2020-09-27T16:25:03Z</time>
      </trkpt>
      <trkpt lat="40.3266" lon="-7.97696">
        <ele>433.968</ele>
        <time>2020-09-27T16:25:05Z</time>
      </trkpt>
      <trkpt lat="40.32649" lon="-7.97732">
        <ele>434.232</ele>
        <time>2020-09-27T16:25:06Z</time>
      </trkpt>
      <trkpt lat="40.32638" lon="-7.97768">
        <ele>432.592</ele>
        <time>2020-09-27T16:25:07Z</time>
      </trkpt>
      <trkpt lat="40.32626" lon="-7.97803">
        <ele>430.111</ele>
        <time>2020-09-27T16:25:08Z</time>
      </trkpt>
      <trkpt lat="40.32614" lon="-7.97839">
        <ele>427.708</ele>
        <time>2020-09-27T16:25:09Z</time>
      </trkpt>
      <trkpt lat="40.32591" lon="-7.9791">
        <ele>424.758</ele>
        <time>2020-09-27T16:25:11Z</time>
      </trkpt>
      <trkpt lat="40.32568" lon="-7.97981">
        <ele>421.52</ele>
        <time>2020-09-27T16:25:13Z</time>
      </trkpt>
      <trkpt lat="40.32557" lon="-7.98017">
        <ele>419.058</ele>
        <time>2020-09-27T16:25:14Z</time>
      </trkpt>
      <trkpt lat="40.32534" lon="-7.98088">
        <ele>416.51</ele>
        <time>2020-09-27T16:25:16Z</time>
      </trkpt>
      <trkpt lat="40.32511" lon="-7.98159">
        <ele>414.078</ele>
        <time>2020-09-27T16:25:18Z</time>
      </trkpt>
      <trkpt lat="40.32488" lon="-7.98231">
        <ele>411.388</ele>
        <time>2020-09-27T16:25:20Z</time>
      </trkpt>
      <trkpt lat="40.32464" lon="-7.98303">
        <ele>408.528</ele>
        <time>2020-09-27T16:25:22Z</time>
      </trkpt>
      <trkpt lat="40.32452" lon="-7.98339">
        <ele>406.486</ele>
        <time>2020-09-27T16:25:23Z</time>
      </trkpt>
      <trkpt lat="40.3244" lon="-7.98375">
        <ele>404.511</ele>
        <time>2020-09-27T16:25:24Z</time>
      </trkpt>
      <trkpt lat="40.32417" lon="-7.98448">
        <ele>402.421</ele>
        <time>2020-09-27T16:25:26Z</time>
      </trkpt>
      <trkpt lat="40.32405" lon="-7.98485">
        <ele>400.603</ele>
        <time>2020-09-27T16:25:27Z</time>
      </trkpt>
      <trkpt lat="40.3238" lon="-7.98558">
        <ele>398.508</ele>
        <time>2020-09-27T16:25:29Z</time>
      </trkpt>
      <trkpt lat="40.32356" lon="-7.98633">
        <ele>396.136</ele>
        <time>2020-09-27T16:25:31Z</time>
      </trkpt>
      <trkpt lat="40.32332" lon="-7.98707">
        <ele>393.778</ele>
        <time>2020-09-27T16:25:33Z</time>
      </trkpt>
      <trkpt lat="40.3232" lon="-7.98745">
        <ele>391.896</ele>
        <time>2020-09-27T16:25:34Z</time>
      </trkpt>
      <trkpt lat="40.32297" lon="-7.98819">
        <ele>389.868</ele>
        <time>2020-09-27T16:25:36Z</time>
      </trkpt>
      <trkpt lat="40.32285" lon="-7.98856">
        <ele>388.136</ele>
        <time>2020-09-27T16:25:37Z</time>
      </trkpt>
      <trkpt lat="40.32261" lon="-7.98929">
        <ele>386.736</ele>
        <time>2020-09-27T16:25:39Z</time>
      </trkpt>
      <trkpt lat="40.32249" lon="-7.98966">
        <ele>385.846</ele>
        <time>2020-09-27T16:25:40Z</time>
      </trkpt>
      <trkpt lat="40.32225" lon="-7.99041">
        <ele>385.074</ele>
        <time>2020-09-27T16:25:42Z</time>
      </trkpt>
      <trkpt lat="40.32213" lon="-7.99079">
        <ele>384.564</ele>
        <time>2020-09-27T16:25:43Z</time>
      </trkpt>
      <trkpt lat="40.32189" lon="-7.99153">
        <ele>384.306</ele>
        <time>2020-09-27T16:25:45Z</time>
      </trkpt>
      <trkpt lat="40.32177" lon="-7.9919">
        <ele>384.316</ele>
        <time>2020-09-27T16:25:46Z</time>
      </trkpt>
      <trkpt lat="40.32152" lon="-7.99264">
        <ele>384.508</ele>
        <time>2020-09-27T16:25:48Z</time>
      </trkpt>
      <trkpt lat="40.32139" lon="-7.99302">
        <ele>384.781</ele>
        <time>2020-09-27T16:25:49Z</time>
      </trkpt>
      <trkpt lat="40.32126" lon="-7.9934">
        <ele>384.823</ele>
        <time>2020-09-27T16:25:50Z</time>
      </trkpt>
      <trkpt lat="40.32103" lon="-7.99417">
        <ele>384.831</ele>
        <time>2020-09-27T16:25:52Z</time>
      </trkpt>
      <trkpt lat="40.32092" lon="-7.99455">
        <ele>384.793</ele>
        <time>2020-09-27T16:25:53Z</time>
      </trkpt>
      <trkpt lat="40.3207" lon="-7.99532">
        <ele>384.821</ele>
        <time>2020-09-27T16:25:55Z</time>
      </trkpt>
      <trkpt lat="40.3206" lon="-7.99571">
        <ele>384.991</ele>
        <time>2020-09-27T16:25:56Z</time>
      </trkpt>
      <trkpt lat="40.32042" lon="-7.99647">
        <ele>385.071</ele>
        <time>2020-09-27T16:25:58Z</time>
      </trkpt>
      <trkpt lat="40.32033" lon="-7.99686">
        <ele>385.249</ele>
        <time>2020-09-27T16:25:59Z</time>
      </trkpt>
      <trkpt lat="40.32019" lon="-7.99763">
        <ele>385.139</ele>
        <time>2020-09-27T16:26:01Z</time>
      </trkpt>
      <trkpt lat="40.32012" lon="-7.99802">
        <ele>385.101</ele>
        <time>2020-09-27T16:26:02Z</time>
      </trkpt>
      <trkpt lat="40.32006" lon="-7.9984">
        <ele>385.021</ele>
        <time>2020-09-27T16:26:03Z</time>
      </trkpt>
      <trkpt lat="40.31996" lon="-7.99917">
        <ele>384.808</ele>
        <time>2020-09-27T16:26:05Z</time>
      </trkpt>
      <trkpt lat="40.31989" lon="-7.99995">
        <ele>384.388</ele>
        <time>2020-09-27T16:26:07Z</time>
      </trkpt>
      <trkpt lat="40.31987" lon="-8.00033">
        <ele>383.99</ele>
        <time>2020-09-27T16:26:08Z</time>
      </trkpt>
      <trkpt lat="40.31981" lon="-8.00111">
        <ele>383.258</ele>
        <time>2020-09-27T16:26:10Z</time>
      </trkpt>
      <trkpt lat="40.31977" lon="-8.0019">
        <ele>382.74</ele>
        <time>2020-09-27T16:26:12Z</time>
      </trkpt>
      <trkpt lat="40.31976" lon="-8.0027">
        <ele>382.158</ele>
        <time>2020-09-27T16:26:14Z</time>
      </trkpt>
      <trkpt lat="40.31979" lon="-8.00351">
        <ele>381.668</ele>
        <time>2020-09-27T16:26:16Z</time>
      </trkpt>
      <trkpt lat="40.31981" lon="-8.00391">
        <ele>381.258</ele>
        <time>2020-09-27T16:26:17Z</time>
      </trkpt>
      <trkpt lat="40.31985" lon="-8.00472">
        <ele>380.836</ele>
        <time>2020-09-27T16:26:19Z</time>
      </trkpt>
      <trkpt lat="40.31989" lon="-8.00513">
        <ele>380.513</ele>
        <time>2020-09-27T16:26:20Z</time>
      </trkpt>
      <trkpt lat="40.31993" lon="-8.00553">
        <ele>380.143</ele>
        <time>2020-09-27T16:26:21Z</time>
      </trkpt>
      <trkpt lat="40.31999" lon="-8.00593">
        <ele>379.707</ele>
        <time>2020-09-27T16:26:22Z</time>
      </trkpt>
      <trkpt lat="40.32005" lon="-8.00633">
        <ele>379.208</ele>
        <time>2020-09-27T16:26:23Z</time>
      </trkpt>
      <trkpt lat="40.32013" lon="-8.00673">
        <ele>378.826</ele>
        <time>2020-09-27T16:26:24Z</time>
      </trkpt>
      <trkpt lat="40.32028" lon="-8.00752">
        <ele>378.298</ele>
        <time>2020-09-27T16:26:26Z</time>
      </trkpt>
      <trkpt lat="40.32043" lon="-8.00832">
        <ele>377.476</ele>
        <time>2020-09-27T16:26:28Z</time>
      </trkpt>
      <trkpt lat="40.32061" lon="-8.0091">
        <ele>376.878</ele>
        <time>2020-09-27T16:26:30Z</time>
      </trkpt>
      <trkpt lat="40.32071" lon="-8.00949">
        <ele>376.426</ele>
        <time>2020-09-27T16:26:31Z</time>
      </trkpt>
      <trkpt lat="40.32093" lon="-8.01025">
        <ele>375.976</ele>
        <time>2020-09-27T16:26:33Z</time>
      </trkpt>
      <trkpt lat="40.32117" lon="-8.011">
        <ele>375.256</ele>
        <time>2020-09-27T16:26:35Z</time>
      </trkpt>
      <trkpt lat="40.32129" lon="-8.01137">
        <ele>374.864</ele>
        <time>2020-09-27T16:26:36Z</time>
      </trkpt>
      <trkpt lat="40.32157" lon="-8.0121">
        <ele>374.251</ele>
        <time>2020-09-27T16:26:38Z</time>
      </trkpt>
      <trkpt lat="40.32187" lon="-8.01282">
        <ele>373.401</ele>
        <time>2020-09-27T16:26:40Z</time>
      </trkpt>
      <trkpt lat="40.32216" lon="-8.01354">
        <ele>372.711</ele>
        <time>2020-09-27T16:26:42Z</time>
      </trkpt>
      <trkpt lat="40.32246" lon="-8.01427">
        <ele>371.908</ele>
        <time>2020-09-27T16:26:44Z</time>
      </trkpt>
      <trkpt lat="40.32261" lon="-8.01463">
        <ele>371.28</ele>
        <time>2020-09-27T16:26:45Z</time>
      </trkpt>
      <trkpt lat="40.32276" lon="-8.01499">
        <ele>370.512</ele>
        <time>2020-09-27T16:26:46Z</time>
      </trkpt>
      <trkpt lat="40.32291" lon="-8.01536">
        <ele>369.97</ele>
        <time>2020-09-27T16:26:47Z</time>
      </trkpt>
      <trkpt lat="40.32321" lon="-8.01608">
        <ele>368.962</ele>
        <time>2020-09-27T16:26:49Z</time>
      </trkpt>
      <trkpt lat="40.32336" lon="-8.01644">
        <ele>367.96</ele>
        <time>2020-09-27T16:26:50Z</time>
      </trkpt>
      <trkpt lat="40.32351" lon="-8.0168">
        <ele>367.03</ele>
        <time>2020-09-27T16:26:51Z</time>
      </trkpt>
      <trkpt lat="40.32367" lon="-8.01716">
        <ele>366.22</ele>
        <time>2020-09-27T16:26:52Z</time>
      </trkpt>
      <trkpt lat="40.32397" lon="-8.01787">
        <ele>364.918</ele>
        <time>2020-09-27T16:26:54Z</time>
      </trkpt>
      <trkpt lat="40.32413" lon="-8.01823">
        <ele>363.871</ele>
        <time>2020-09-27T16:26:55Z</time>
      </trkpt>
      <trkpt lat="40.32444" lon="-8.01894">
        <ele>362.241</ele>
        <time>2020-09-27T16:26:57Z</time>
      </trkpt>
      <trkpt lat="40.3246" lon="-8.0193">
        <ele>360.815</ele>
        <time>2020-09-27T16:26:58Z</time>
      </trkpt>
      <trkpt lat="40.32491" lon="-8.02001">
        <ele>359.108</ele>
        <time>2020-09-27T16:27:00Z</time>
      </trkpt>
      <trkpt lat="40.32507" lon="-8.02036">
        <ele>357.772</ele>
        <time>2020-09-27T16:27:01Z</time>
      </trkpt>
      <trkpt lat="40.32523" lon="-8.02072">
        <ele>356.344</ele>
        <time>2020-09-27T16:27:02Z</time>
      </trkpt>
      <trkpt lat="40.32538" lon="-8.02108">
        <ele>355.032</ele>
        <time>2020-09-27T16:27:03Z</time>
      </trkpt>
      <trkpt lat="40.32554" lon="-8.02144">
        <ele>353.654</ele>
        <time>2020-09-27T16:27:04Z</time>
      </trkpt>
      <trkpt lat="40.32569" lon="-8.0218">
        <ele>352.282</ele>
        <time>2020-09-27T16:27:05Z</time>
      </trkpt>
      <trkpt lat="40.32585" lon="-8.02216">
        <ele>350.762</ele>
        <time>2020-09-27T16:27:06Z</time>
      </trkpt>
      <trkpt lat="40.32617" lon="-8.02289">
        <ele>348.832</ele>
        <time>2020-09-27T16:27:08Z</time>
      </trkpt>
      <trkpt lat="40.32633" lon="-8.02325">
        <ele>347.09</ele>
        <time>2020-09-27T16:27:09Z</time>
      </trkpt>
      <trkpt lat="40.32665" lon="-8.02398">
        <ele>344.715</ele>
        <time>2020-09-27T16:27:11Z</time>
      </trkpt>
      <trkpt lat="40.32696" lon="-8.02472">
        <ele>341.965</ele>
        <time>2020-09-27T16:27:13Z</time>
      </trkpt>
      <trkpt lat="40.32711" lon="-8.02509">
        <ele>339.611</ele>
        <time>2020-09-27T16:27:14Z</time>
      </trkpt>
      <trkpt lat="40.32726" lon="-8.02546">
        <ele>337.508</ele>
        <time>2020-09-27T16:27:15Z</time>
      </trkpt>
      <trkpt lat="40.32741" lon="-8.02583">
        <ele>335.496</ele>
        <time>2020-09-27T16:27:16Z</time>
      </trkpt>
      <trkpt lat="40.32756" lon="-8.0262">
        <ele>333.788</ele>
        <time>2020-09-27T16:27:17Z</time>
      </trkpt>
      <trkpt lat="40.32783" lon="-8.02693">
        <ele>331.716</ele>
        <time>2020-09-27T16:27:19Z</time>
      </trkpt>
      <trkpt lat="40.32795" lon="-8.02731">
        <ele>330.198</ele>
        <time>2020-09-27T16:27:20Z</time>
      </trkpt>
      <trkpt lat="40.32805" lon="-8.02769">
        <ele>328.936</ele>
        <time>2020-09-27T16:27:21Z</time>
      </trkpt>
      <trkpt lat="40.32823" lon="-8.02847">
        <ele>327.746</ele>
        <time>2020-09-27T16:27:23Z</time>
      </trkpt>
      <trkpt lat="40.32831" lon="-8.02886">
        <ele>326.996</ele>
        <time>2020-09-27T16:27:24Z</time>
      </trkpt>
      <trkpt lat="40.32838" lon="-8.02926">
        <ele>326.314</ele>
        <time>2020-09-27T16:27:25Z</time>
      </trkpt>
      <trkpt lat="40.32845" lon="-8.02964">
        <ele>325.978</ele>
        <time>2020-09-27T16:27:26Z</time>
      </trkpt>
      <trkpt lat="40.32854" lon="-8.03042">
        <ele>325.833</ele>
        <time>2020-09-27T16:27:28Z</time>
      </trkpt>
      <trkpt lat="40.32861" lon="-8.03121">
        <ele>326.126</ele>
        <time>2020-09-27T16:27:30Z</time>
      </trkpt>
      <trkpt lat="40.32863" lon="-8.0316">
        <ele>326.408</ele>
        <time>2020-09-27T16:27:31Z</time>
      </trkpt>
      <trkpt lat="40.32864" lon="-8.03198">
        <ele>326.982</ele>
        <time>2020-09-27T16:27:32Z</time>
      </trkpt>
      <trkpt lat="40.32864" lon="-8.03237">
        <ele>327.574</ele>
        <time>2020-09-27T16:27:33Z</time>
      </trkpt>
      <trkpt lat="40.32863" lon="-8.03312">
        <ele>328.712</ele>
        <time>2020-09-27T16:27:35Z</time>
      </trkpt>
      <trkpt lat="40.32862" lon="-8.0335">
        <ele>329.744</ele>
        <time>2020-09-27T16:27:36Z</time>
      </trkpt>
      <trkpt lat="40.32855" lon="-8.03425">
        <ele>331.192</ele>
        <time>2020-09-27T16:27:38Z</time>
      </trkpt>
      <trkpt lat="40.32844" lon="-8.03499">
        <ele>332.042</ele>
        <time>2020-09-27T16:27:40Z</time>
      </trkpt>
      <trkpt lat="40.3283" lon="-8.03574">
        <ele>332.572</ele>
        <time>2020-09-27T16:27:42Z</time>
      </trkpt>
      <trkpt lat="40.32821" lon="-8.03611">
        <ele>336.59</ele>
        <time>2020-09-27T16:27:43Z</time>
      </trkpt>
      <trkpt lat="40.32811" lon="-8.03648">
        <ele>340.554</ele>
        <time>2020-09-27T16:27:44Z</time>
      </trkpt>
      <trkpt lat="40.32802" lon="-8.03685">
        <ele>344.556</ele>
        <time>2020-09-27T16:27:45Z</time>
      </trkpt>
      <trkpt lat="40.32791" lon="-8.03722">
        <ele>348.511</ele>
        <time>2020-09-27T16:27:46Z</time>
      </trkpt>
      <trkpt lat="40.32767" lon="-8.03796">
        <ele>350.708</ele>
        <time>2020-09-27T16:27:48Z</time>
      </trkpt>
      <trkpt lat="40.32752" lon="-8.03831">
        <ele>350.87</ele>
        <time>2020-09-27T16:27:49Z</time>
      </trkpt>
      <trkpt lat="40.32722" lon="-8.03901">
        <ele>348.812</ele>
        <time>2020-09-27T16:27:51Z</time>
      </trkpt>
      <trkpt lat="40.32691" lon="-8.03964">
        <ele>346.03</ele>
        <time>2020-09-27T16:27:53Z</time>
      </trkpt>
      <trkpt lat="40.3266" lon="-8.04022">
        <ele>342.882</ele>
        <time>2020-09-27T16:27:55Z</time>
      </trkpt>
      <trkpt lat="40.32625" lon="-8.0408">
        <ele>339.48</ele>
        <time>2020-09-27T16:27:57Z</time>
      </trkpt>
      <trkpt lat="40.32586" lon="-8.04138">
        <ele>335.68</ele>
        <time>2020-09-27T16:27:59Z</time>
      </trkpt>
      <trkpt lat="40.32543" lon="-8.04194">
        <ele>331.84</ele>
        <time>2020-09-27T16:28:01Z</time>
      </trkpt>
      <trkpt lat="40.32497" lon="-8.04247">
        <ele>328.538</ele>
        <time>2020-09-27T16:28:03Z</time>
      </trkpt>
      <trkpt lat="40.32453" lon="-8.04296">
        <ele>325.382</ele>
        <time>2020-09-27T16:28:05Z</time>
      </trkpt>
      <trkpt lat="40.32432" lon="-8.04319">
        <ele>322.843</ele>
        <time>2020-09-27T16:28:06Z</time>
      </trkpt>
      <trkpt lat="40.32387" lon="-8.04363">
        <ele>319.917</ele>
        <time>2020-09-27T16:28:08Z</time>
      </trkpt>
      <trkpt lat="40.32342" lon="-8.04409">
        <ele>317.008</ele>
        <time>2020-09-27T16:28:10Z</time>
      </trkpt>
      <trkpt lat="40.32296" lon="-8.04456">
        <ele>313.873</ele>
        <time>2020-09-27T16:28:12Z</time>
      </trkpt>
      <trkpt lat="40.32273" lon="-8.0448">
        <ele>311.375</ele>
        <time>2020-09-27T16:28:13Z</time>
      </trkpt>
      <trkpt lat="40.3225" lon="-8.04505">
        <ele>309.293</ele>
        <time>2020-09-27T16:28:14Z</time>
      </trkpt>
      <trkpt lat="40.32202" lon="-8.04552">
        <ele>307.155</ele>
        <time>2020-09-27T16:28:16Z</time>
      </trkpt>
      <trkpt lat="40.32179" lon="-8.04576">
        <ele>305.193</ele>
        <time>2020-09-27T16:28:17Z</time>
      </trkpt>
      <trkpt lat="40.32155" lon="-8.04601">
        <ele>303.253</ele>
        <time>2020-09-27T16:28:18Z</time>
      </trkpt>
      <trkpt lat="40.32107" lon="-8.04649">
        <ele>307.293</ele>
        <time>2020-09-27T16:28:20Z</time>
      </trkpt>
      <trkpt lat="40.32084" lon="-8.04674">
        <ele>311.221</ele>
        <time>2020-09-27T16:28:21Z</time>
      </trkpt>
      <trkpt lat="40.32037" lon="-8.04725">
        <ele>309.686</ele>
        <time>2020-09-27T16:28:23Z</time>
      </trkpt>
      <trkpt lat="40.32014" lon="-8.04751">
        <ele>306.76</ele>
        <time>2020-09-27T16:28:24Z</time>
      </trkpt>
      <trkpt lat="40.31974" lon="-8.04803">
        <ele>302.726</ele>
        <time>2020-09-27T16:28:26Z</time>
      </trkpt>
      <trkpt lat="40.31936" lon="-8.04856">
        <ele>299.008</ele>
        <time>2020-09-27T16:28:28Z</time>
      </trkpt>
      <trkpt lat="40.31918" lon="-8.04882">
        <ele>296.473</ele>
        <time>2020-09-27T16:28:29Z</time>
      </trkpt>
      <trkpt lat="40.31886" lon="-8.04933">
        <ele>293.655</ele>
        <time>2020-09-27T16:28:31Z</time>
      </trkpt>
      <trkpt lat="40.31871" lon="-8.04957">
        <ele>291.513</ele>
        <time>2020-09-27T16:28:32Z</time>
      </trkpt>
      <trkpt lat="40.31841" lon="-8.05009">
        <ele>289.475</ele>
        <time>2020-09-27T16:28:34Z</time>
      </trkpt>
      <trkpt lat="40.31826" lon="-8.05037">
        <ele>287.863</ele>
        <time>2020-09-27T16:28:35Z</time>
      </trkpt>
      <trkpt lat="40.31811" lon="-8.05067">
        <ele>286.563</ele>
        <time>2020-09-27T16:28:36Z</time>
      </trkpt>
      <trkpt lat="40.31781" lon="-8.0513">
        <ele>285.173</ele>
        <time>2020-09-27T16:28:38Z</time>
      </trkpt>
      <trkpt lat="40.31751" lon="-8.05195">
        <ele>283.821</ele>
        <time>2020-09-27T16:28:40Z</time>
      </trkpt>
      <trkpt lat="40.31735" lon="-8.05228">
        <ele>282.854</ele>
        <time>2020-09-27T16:28:41Z</time>
      </trkpt>
      <trkpt lat="40.3172" lon="-8.05262">
        <ele>281.856</ele>
        <time>2020-09-27T16:28:42Z</time>
      </trkpt>
      <trkpt lat="40.31691" lon="-8.05331">
        <ele>280.711</ele>
        <time>2020-09-27T16:28:44Z</time>
      </trkpt>
      <trkpt lat="40.31662" lon="-8.05402">
        <ele>279.708</ele>
        <time>2020-09-27T16:28:46Z</time>
      </trkpt>
      <trkpt lat="40.31629" lon="-8.0547">
        <ele>278.84</ele>
        <time>2020-09-27T16:28:48Z</time>
      </trkpt>
      <trkpt lat="40.3159" lon="-8.05536">
        <ele>278.562</ele>
        <time>2020-09-27T16:28:50Z</time>
      </trkpt>
      <trkpt lat="40.31569" lon="-8.0557">
        <ele>278.41</ele>
        <time>2020-09-27T16:28:51Z</time>
      </trkpt>
      <trkpt lat="40.31523" lon="-8.05632">
        <ele>278.792</ele>
        <time>2020-09-27T16:28:53Z</time>
      </trkpt>
      <trkpt lat="40.31499" lon="-8.05661">
        <ele>279.13</ele>
        <time>2020-09-27T16:28:54Z</time>
      </trkpt>
      <trkpt lat="40.31447" lon="-8.05713">
        <ele>280.38</ele>
        <time>2020-09-27T16:28:56Z</time>
      </trkpt>
      <trkpt lat="40.31396" lon="-8.05759">
        <ele>281.74</ele>
        <time>2020-09-27T16:28:58Z</time>
      </trkpt>
      <trkpt lat="40.31371" lon="-8.05782">
        <ele>282.868</ele>
        <time>2020-09-27T16:28:59Z</time>
      </trkpt>
      <trkpt lat="40.31326" lon="-8.05826">
        <ele>284.472</ele>
        <time>2020-09-27T16:29:01Z</time>
      </trkpt>
      <trkpt lat="40.31284" lon="-8.05868">
        <ele>286.213</ele>
        <time>2020-09-27T16:29:03Z</time>
      </trkpt>
      <trkpt lat="40.31243" lon="-8.05912">
        <ele>288.014</ele>
        <time>2020-09-27T16:29:05Z</time>
      </trkpt>
      <trkpt lat="40.31224" lon="-8.05935">
        <ele>289.408</ele>
        <time>2020-09-27T16:29:06Z</time>
      </trkpt>
      <trkpt lat="40.31187" lon="-8.05985">
        <ele>290.582</ele>
        <time>2020-09-27T16:29:08Z</time>
      </trkpt>
      <trkpt lat="40.31169" lon="-8.06012">
        <ele>291.414</ele>
        <time>2020-09-27T16:29:09Z</time>
      </trkpt>
      <trkpt lat="40.31152" lon="-8.0604">
        <ele>292.062</ele>
        <time>2020-09-27T16:29:10Z</time>
      </trkpt>
      <trkpt lat="40.31119" lon="-8.06099">
        <ele>292.874</ele>
        <time>2020-09-27T16:29:12Z</time>
      </trkpt>
      <trkpt lat="40.31104" lon="-8.0613">
        <ele>293.562</ele>
        <time>2020-09-27T16:29:13Z</time>
      </trkpt>
      <trkpt lat="40.31089" lon="-8.06162">
        <ele>294.132</ele>
        <time>2020-09-27T16:29:14Z</time>
      </trkpt>
      <trkpt lat="40.31062" lon="-8.06226">
        <ele>294.862</ele>
        <time>2020-09-27T16:29:16Z</time>
      </trkpt>
      <trkpt lat="40.3104" lon="-8.0629">
        <ele>295.27</ele>
        <time>2020-09-27T16:29:18Z</time>
      </trkpt>
      <trkpt lat="40.31031" lon="-8.06322">
        <ele>295.478</ele>
        <time>2020-09-27T16:29:19Z</time>
      </trkpt>
      <trkpt lat="40.31022" lon="-8.06355">
        <ele>295.533</ele>
        <time>2020-09-27T16:29:20Z</time>
      </trkpt>
      <trkpt lat="40.31005" lon="-8.06421">
        <ele>295.326</ele>
        <time>2020-09-27T16:29:22Z</time>
      </trkpt>
      <trkpt lat="40.30996" lon="-8.06454">
        <ele>294.908</ele>
        <time>2020-09-27T16:29:23Z</time>
      </trkpt>
      <trkpt lat="40.30988" lon="-8.06487">
        <ele>294.592</ele>
        <time>2020-09-27T16:29:24Z</time>
      </trkpt>
      <trkpt lat="40.3097" lon="-8.06552">
        <ele>294.254</ele>
        <time>2020-09-27T16:29:26Z</time>
      </trkpt>
      <trkpt lat="40.30962" lon="-8.06585">
        <ele>294.062</ele>
        <time>2020-09-27T16:29:27Z</time>
      </trkpt>
      <trkpt lat="40.30945" lon="-8.06649">
        <ele>293.784</ele>
        <time>2020-09-27T16:29:29Z</time>
      </trkpt>
      <trkpt lat="40.30936" lon="-8.06681">
        <ele>293.422</ele>
        <time>2020-09-27T16:29:30Z</time>
      </trkpt>
      <trkpt lat="40.30919" lon="-8.06746">
        <ele>293.012</ele>
        <time>2020-09-27T16:29:32Z</time>
      </trkpt>
      <trkpt lat="40.30911" lon="-8.06778">
        <ele>292.662</ele>
        <time>2020-09-27T16:29:33Z</time>
      </trkpt>
      <trkpt lat="40.30894" lon="-8.06844">
        <ele>292.18</ele>
        <time>2020-09-27T16:29:35Z</time>
      </trkpt>
      <trkpt lat="40.30877" lon="-8.06912">
        <ele>291.695</ele>
        <time>2020-09-27T16:29:37Z</time>
      </trkpt>
      <trkpt lat="40.30868" lon="-8.06945">
        <ele>291.349</ele>
        <time>2020-09-27T16:29:38Z</time>
      </trkpt>
      <trkpt lat="40.30849" lon="-8.07015">
        <ele>290.923</ele>
        <time>2020-09-27T16:29:40Z</time>
      </trkpt>
      <trkpt lat="40.3083" lon="-8.07087">
        <ele>290.608</ele>
        <time>2020-09-27T16:29:42Z</time>
      </trkpt>
      <trkpt lat="40.30821" lon="-8.07124">
        <ele>290.484</ele>
        <time>2020-09-27T16:29:43Z</time>
      </trkpt>
      <trkpt lat="40.30811" lon="-8.0716">
        <ele>290.126</ele>
        <time>2020-09-27T16:29:44Z</time>
      </trkpt>
      <trkpt lat="40.30792" lon="-8.07235">
        <ele>290.074</ele>
        <time>2020-09-27T16:29:46Z</time>
      </trkpt>
      <trkpt lat="40.30782" lon="-8.07272">
        <ele>289.736</ele>
        <time>2020-09-27T16:29:47Z</time>
      </trkpt>
      <trkpt lat="40.30771" lon="-8.07308">
        <ele>293.734</ele>
        <time>2020-09-27T16:29:48Z</time>
      </trkpt>
      <trkpt lat="40.3076" lon="-8.07343">
        <ele>294.354</ele>
        <time>2020-09-27T16:29:49Z</time>
      </trkpt>
      <trkpt lat="40.30738" lon="-8.07407">
        <ele>293.364</ele>
        <time>2020-09-27T16:29:51Z</time>
      </trkpt>
      <trkpt lat="40.30725" lon="-8.07439">
        <ele>292.282</ele>
        <time>2020-09-27T16:29:52Z</time>
      </trkpt>
      <trkpt lat="40.30698" lon="-8.07502">
        <ele>291.265</ele>
        <time>2020-09-27T16:29:54Z</time>
      </trkpt>
      <trkpt lat="40.30666" lon="-8.07561">
        <ele>290.568</ele>
        <time>2020-09-27T16:29:56Z</time>
      </trkpt>
      <trkpt lat="40.30648" lon="-8.07589">
        <ele>290.214</ele>
        <time>2020-09-27T16:29:57Z</time>
      </trkpt>
      <trkpt lat="40.30613" lon="-8.07644">
        <ele>290.408</ele>
        <time>2020-09-27T16:29:59Z</time>
      </trkpt>
      <trkpt lat="40.30595" lon="-8.0767">
        <ele>290.821</ele>
        <time>2020-09-27T16:30:00Z</time>
      </trkpt>
      <trkpt lat="40.30577" lon="-8.07694">
        <ele>291.293</ele>
        <time>2020-09-27T16:30:01Z</time>
      </trkpt>
      <trkpt lat="40.30558" lon="-8.07716">
        <ele>291.671</ele>
        <time>2020-09-27T16:30:02Z</time>
      </trkpt>
      <trkpt lat="40.30518" lon="-8.07759">
        <ele>292.673</ele>
        <time>2020-09-27T16:30:04Z</time>
      </trkpt>
      <trkpt lat="40.30497" lon="-8.0778">
        <ele>293.211</ele>
        <time>2020-09-27T16:30:05Z</time>
      </trkpt>
      <trkpt lat="40.30476" lon="-8.078">
        <ele>293.611</ele>
        <time>2020-09-27T16:30:06Z</time>
      </trkpt>
      <trkpt lat="40.30431" lon="-8.07838">
        <ele>294.151</ele>
        <time>2020-09-27T16:30:08Z</time>
      </trkpt>
      <trkpt lat="40.30409" lon="-8.07856">
        <ele>294.669</ele>
        <time>2020-09-27T16:30:09Z</time>
      </trkpt>
      <trkpt lat="40.30386" lon="-8.07872">
        <ele>295.113</ele>
        <time>2020-09-27T16:30:10Z</time>
      </trkpt>
      <trkpt lat="40.30338" lon="-8.07902">
        <ele>295.643</ele>
        <time>2020-09-27T16:30:12Z</time>
      </trkpt>
      <trkpt lat="40.30312" lon="-8.07915">
        <ele>295.907</ele>
        <time>2020-09-27T16:30:13Z</time>
      </trkpt>
      <trkpt lat="40.30258" lon="-8.07937">
        <ele>296.308</ele>
        <time>2020-09-27T16:30:15Z</time>
      </trkpt>
      <trkpt lat="40.302" lon="-8.07959">
        <ele>296.556</ele>
        <time>2020-09-27T16:30:17Z</time>
      </trkpt>
      <trkpt lat="40.30141" lon="-8.07981">
        <ele>297.088</ele>
        <time>2020-09-27T16:30:19Z</time>
      </trkpt>
      <trkpt lat="40.30111" lon="-8.07993">
        <ele>297.516</ele>
        <time>2020-09-27T16:30:20Z</time>
      </trkpt>
      <trkpt lat="40.30049" lon="-8.08019">
        <ele>301.578</ele>
        <time>2020-09-27T16:30:22Z</time>
      </trkpt>
      <trkpt lat="40.30018" lon="-8.08032">
        <ele>303.316</ele>
        <time>2020-09-27T16:30:23Z</time>
      </trkpt>
      <trkpt lat="40.29953" lon="-8.08059">
        <ele>303.456</ele>
        <time>2020-09-27T16:30:25Z</time>
      </trkpt>
      <trkpt lat="40.29889" lon="-8.08089">
        <ele>303.476</ele>
        <time>2020-09-27T16:30:27Z</time>
      </trkpt>
      <trkpt lat="40.29826" lon="-8.08124">
        <ele>303.864</ele>
        <time>2020-09-27T16:30:29Z</time>
      </trkpt>
      <trkpt lat="40.29763" lon="-8.08164">
        <ele>304.831</ele>
        <time>2020-09-27T16:30:31Z</time>
      </trkpt>
      <trkpt lat="40.29732" lon="-8.08185">
        <ele>305.661</ele>
        <time>2020-09-27T16:30:32Z</time>
      </trkpt>
      <trkpt lat="40.29672" lon="-8.08232">
        <ele>307.007</ele>
        <time>2020-09-27T16:30:34Z</time>
      </trkpt>
      <trkpt lat="40.29613" lon="-8.08281">
        <ele>308.908</ele>
        <time>2020-09-27T16:30:36Z</time>
      </trkpt>
      <trkpt lat="40.29584" lon="-8.08307">
        <ele>310.698</ele>
        <time>2020-09-27T16:30:37Z</time>
      </trkpt>
      <trkpt lat="40.29555" lon="-8.08333">
        <ele>312.39</ele>
        <time>2020-09-27T16:30:38Z</time>
      </trkpt>
      <trkpt lat="40.29498" lon="-8.08385">
        <ele>314.778</ele>
        <time>2020-09-27T16:30:40Z</time>
      </trkpt>
      <trkpt lat="40.2947" lon="-8.08411">
        <ele>316.76</ele>
        <time>2020-09-27T16:30:41Z</time>
      </trkpt>
      <trkpt lat="40.29414" lon="-8.08463">
        <ele>319.558</ele>
        <time>2020-09-27T16:30:43Z</time>
      </trkpt>
      <trkpt lat="40.29357" lon="-8.08514">
        <ele>322.648</ele>
        <time>2020-09-27T16:30:45Z</time>
      </trkpt>
      <trkpt lat="40.293" lon="-8.08566">
        <ele>325.548</ele>
        <time>2020-09-27T16:30:47Z</time>
      </trkpt>
      <trkpt lat="40.29272" lon="-8.08592">
        <ele>324.986</ele>
        <time>2020-09-27T16:30:48Z</time>
      </trkpt>
      <trkpt lat="40.29244" lon="-8.08618">
        <ele>325.946</ele>
        <time>2020-09-27T16:30:49Z</time>
      </trkpt>
      <trkpt lat="40.29189" lon="-8.08671">
        <ele>327.888</ele>
        <time>2020-09-27T16:30:51Z</time>
      </trkpt>
      <trkpt lat="40.29161" lon="-8.08696">
        <ele>329.316</ele>
        <time>2020-09-27T16:30:52Z</time>
      </trkpt>
      <trkpt lat="40.29103" lon="-8.08743">
        <ele>330.708</ele>
        <time>2020-09-27T16:30:54Z</time>
      </trkpt>
      <trkpt lat="40.29073" lon="-8.08763">
        <ele>331.749</ele>
        <time>2020-09-27T16:30:55Z</time>
      </trkpt>
      <trkpt lat="40.2901" lon="-8.08798">
        <ele>333.011</ele>
        <time>2020-09-27T16:30:57Z</time>
      </trkpt>
      <trkpt lat="40.28977" lon="-8.08812">
        <ele>333.489</ele>
        <time>2020-09-27T16:30:58Z</time>
      </trkpt>
      <trkpt lat="40.28911" lon="-8.08836">
        <ele>332.911</ele>
        <time>2020-09-27T16:31:00Z</time>
      </trkpt>
      <trkpt lat="40.28877" lon="-8.08845">
        <ele>331.929</ele>
        <time>2020-09-27T16:31:01Z</time>
      </trkpt>
      <trkpt lat="40.28843" lon="-8.08851">
        <ele>331.019</ele>
        <time>2020-09-27T16:31:02Z</time>
      </trkpt>
      <trkpt lat="40.28808" lon="-8.08856">
        <ele>330.029</ele>
        <time>2020-09-27T16:31:03Z</time>
      </trkpt>
      <trkpt lat="40.28737" lon="-8.08863">
        <ele>328.357</ele>
        <time>2020-09-27T16:31:05Z</time>
      </trkpt>
      <trkpt lat="40.28666" lon="-8.08869">
        <ele>326.588</ele>
        <time>2020-09-27T16:31:07Z</time>
      </trkpt>
      <trkpt lat="40.2863" lon="-8.08873">
        <ele>324.824</ele>
        <time>2020-09-27T16:31:08Z</time>
      </trkpt>
      <trkpt lat="40.2856" lon="-8.08887">
        <ele>323.026</ele>
        <time>2020-09-27T16:31:10Z</time>
      </trkpt>
      <trkpt lat="40.28527" lon="-8.08899">
        <ele>321.408</ele>
        <time>2020-09-27T16:31:11Z</time>
      </trkpt>
      <trkpt lat="40.28464" lon="-8.08932">
        <ele>319.733</ele>
        <time>2020-09-27T16:31:13Z</time>
      </trkpt>
      <trkpt lat="40.28434" lon="-8.08953">
        <ele>317.985</ele>
        <time>2020-09-27T16:31:14Z</time>
      </trkpt>
      <trkpt lat="40.28406" lon="-8.08977">
        <ele>316.033</ele>
        <time>2020-09-27T16:31:15Z</time>
      </trkpt>
      <trkpt lat="40.28353" lon="-8.09033">
        <ele>313.225</ele>
        <time>2020-09-27T16:31:17Z</time>
      </trkpt>
      <trkpt lat="40.28329" lon="-8.09064">
        <ele>311.493</ele>
        <time>2020-09-27T16:31:18Z</time>
      </trkpt>
      <trkpt lat="40.28306" lon="-8.09096">
        <ele>309.933</ele>
        <time>2020-09-27T16:31:19Z</time>
      </trkpt>
      <trkpt lat="40.28267" lon="-8.09165">
        <ele>308.293</ele>
        <time>2020-09-27T16:31:21Z</time>
      </trkpt>
      <trkpt lat="40.28251" lon="-8.092">
        <ele>306.841</ele>
        <time>2020-09-27T16:31:22Z</time>
      </trkpt>
      <trkpt lat="40.28223" lon="-8.09275">
        <ele>305.366</ele>
        <time>2020-09-27T16:31:24Z</time>
      </trkpt>
      <trkpt lat="40.28199" lon="-8.09356">
        <ele>303.429</ele>
        <time>2020-09-27T16:31:26Z</time>
      </trkpt>
      <trkpt lat="40.2819" lon="-8.09398">
        <ele>301.921</ele>
        <time>2020-09-27T16:31:27Z</time>
      </trkpt>
      <trkpt lat="40.28172" lon="-8.09484">
        <ele>300.108</ele>
        <time>2020-09-27T16:31:29Z</time>
      </trkpt>
      <trkpt lat="40.28161" lon="-8.09527">
        <ele>298.631</ele>
        <time>2020-09-27T16:31:30Z</time>
      </trkpt>
      <trkpt lat="40.28137" lon="-8.09614">
        <ele>296.823</ele>
        <time>2020-09-27T16:31:32Z</time>
      </trkpt>
      <trkpt lat="40.28125" lon="-8.09658">
        <ele>295.231</ele>
        <time>2020-09-27T16:31:33Z</time>
      </trkpt>
      <trkpt lat="40.28104" lon="-8.09747">
        <ele>293.213</ele>
        <time>2020-09-27T16:31:35Z</time>
      </trkpt>
      <trkpt lat="40.28083" lon="-8.09835">
        <ele>291.251</ele>
        <time>2020-09-27T16:31:37Z</time>
      </trkpt>
      <trkpt lat="40.28073" lon="-8.0988">
        <ele>289.631</ele>
        <time>2020-09-27T16:31:38Z</time>
      </trkpt>
      <trkpt lat="40.28051" lon="-8.09968">
        <ele>288.051</ele>
        <time>2020-09-27T16:31:40Z</time>
      </trkpt>
      <trkpt lat="40.2804" lon="-8.10012">
        <ele>286.969</ele>
        <time>2020-09-27T16:31:41Z</time>
      </trkpt>
      <trkpt lat="40.28017" lon="-8.101">
        <ele>285.712</ele>
        <time>2020-09-27T16:31:43Z</time>
      </trkpt>
      <trkpt lat="40.27991" lon="-8.10184">
        <ele>284.532</ele>
        <time>2020-09-27T16:31:45Z</time>
      </trkpt>
      <trkpt lat="40.27977" lon="-8.10225">
        <ele>283.505</ele>
        <time>2020-09-27T16:31:46Z</time>
      </trkpt>
      <trkpt lat="40.27962" lon="-8.10265">
        <ele>282.708</ele>
        <time>2020-09-27T16:31:47Z</time>
      </trkpt>
      <trkpt lat="40.27928" lon="-8.10343">
        <ele>281.866</ele>
        <time>2020-09-27T16:31:49Z</time>
      </trkpt>
      <trkpt lat="40.2791" lon="-8.10383">
        <ele>281.378</ele>
        <time>2020-09-27T16:31:50Z</time>
      </trkpt>
      <trkpt lat="40.27868" lon="-8.10464">
        <ele>280.676</ele>
        <time>2020-09-27T16:31:52Z</time>
      </trkpt>
      <trkpt lat="40.27823" lon="-8.10545">
        <ele>279.998</ele>
        <time>2020-09-27T16:31:54Z</time>
      </trkpt>
      <trkpt lat="40.27771" lon="-8.10621">
        <ele>279.946</ele>
        <time>2020-09-27T16:31:56Z</time>
      </trkpt>
      <trkpt lat="40.27745" lon="-8.10659">
        <ele>280.256</ele>
        <time>2020-09-27T16:31:57Z</time>
      </trkpt>
      <trkpt lat="40.27716" lon="-8.10695">
        <ele>280.656</ele>
        <time>2020-09-27T16:31:58Z</time>
      </trkpt>
      <trkpt lat="40.27688" lon="-8.10731">
        <ele>281.114</ele>
        <time>2020-09-27T16:31:59Z</time>
      </trkpt>
      <trkpt lat="40.27638" lon="-8.10806">
        <ele>281.779</ele>
        <time>2020-09-27T16:32:01Z</time>
      </trkpt>
      <trkpt lat="40.27598" lon="-8.10888">
        <ele>282.305</ele>
        <time>2020-09-27T16:32:03Z</time>
      </trkpt>
      <trkpt lat="40.2758" lon="-8.1093">
        <ele>282.825</ele>
        <time>2020-09-27T16:32:04Z</time>
      </trkpt>
      <trkpt lat="40.2755" lon="-8.11018">
        <ele>284.008</ele>
        <time>2020-09-27T16:32:06Z</time>
      </trkpt>
      <trkpt lat="40.27538" lon="-8.11063">
        <ele>285.232</ele>
        <time>2020-09-27T16:32:07Z</time>
      </trkpt>
      <trkpt lat="40.27519" lon="-8.11154">
        <ele>286.754</ele>
        <time>2020-09-27T16:32:09Z</time>
      </trkpt>
      <trkpt lat="40.27513" lon="-8.11201">
        <ele>288.152</ele>
        <time>2020-09-27T16:32:10Z</time>
      </trkpt>
      <trkpt lat="40.27507" lon="-8.11249">
        <ele>289.514</ele>
        <time>2020-09-27T16:32:11Z</time>
      </trkpt>
      <trkpt lat="40.27502" lon="-8.11344">
        <ele>290.922</ele>
        <time>2020-09-27T16:32:13Z</time>
      </trkpt>
      <trkpt lat="40.27504" lon="-8.11439">
        <ele>292.452</ele>
        <time>2020-09-27T16:32:15Z</time>
      </trkpt>
      <trkpt lat="40.27507" lon="-8.11487">
        <ele>293.722</ele>
        <time>2020-09-27T16:32:16Z</time>
      </trkpt>
      <trkpt lat="40.27511" lon="-8.11534">
        <ele>294.93</ele>
        <time>2020-09-27T16:32:17Z</time>
      </trkpt>
      <trkpt lat="40.2752" lon="-8.11629">
        <ele>296.157</ele>
        <time>2020-09-27T16:32:19Z</time>
      </trkpt>
      <trkpt lat="40.27524" lon="-8.11677">
        <ele>297.2</ele>
        <time>2020-09-27T16:32:20Z</time>
      </trkpt>
      <trkpt lat="40.27532" lon="-8.11773">
        <ele>298.92</ele>
        <time>2020-09-27T16:32:22Z</time>
      </trkpt>
      <trkpt lat="40.27535" lon="-8.11821">
        <ele>300.308</ele>
        <time>2020-09-27T16:32:23Z</time>
      </trkpt>
      <trkpt lat="40.27542" lon="-8.11916">
        <ele>301.91</ele>
        <time>2020-09-27T16:32:25Z</time>
      </trkpt>
      <trkpt lat="40.2755" lon="-8.12011">
        <ele>303.692</ele>
        <time>2020-09-27T16:32:27Z</time>
      </trkpt>
      <trkpt lat="40.27554" lon="-8.12058">
        <ele>304.92</ele>
        <time>2020-09-27T16:32:28Z</time>
      </trkpt>
      <trkpt lat="40.27562" lon="-8.12153">
        <ele>305.992</ele>
        <time>2020-09-27T16:32:30Z</time>
      </trkpt>
      <trkpt lat="40.27571" lon="-8.12246">
        <ele>306.87</ele>
        <time>2020-09-27T16:32:32Z</time>
      </trkpt>
      <trkpt lat="40.27575" lon="-8.12293">
        <ele>307.53</ele>
        <time>2020-09-27T16:32:33Z</time>
      </trkpt>
      <trkpt lat="40.27578" lon="-8.12339">
        <ele>308.16</ele>
        <time>2020-09-27T16:32:34Z</time>
      </trkpt>
      <trkpt lat="40.27581" lon="-8.12384">
        <ele>308.768</ele>
        <time>2020-09-27T16:32:35Z</time>
      </trkpt>
      <trkpt lat="40.27588" lon="-8.12468">
        <ele>309.114</ele>
        <time>2020-09-27T16:32:37Z</time>
      </trkpt>
      <trkpt lat="40.27593" lon="-8.12509">
        <ele>309.554</ele>
        <time>2020-09-27T16:32:38Z</time>
      </trkpt>
      <trkpt lat="40.27611" lon="-8.12587">
        <ele>309.809</ele>
        <time>2020-09-27T16:32:40Z</time>
      </trkpt>
      <trkpt lat="40.27642" lon="-8.12658">
        <ele>310.108</ele>
        <time>2020-09-27T16:32:42Z</time>
      </trkpt>
      <trkpt lat="40.27684" lon="-8.12721">
        <ele>310.226</ele>
        <time>2020-09-27T16:32:44Z</time>
      </trkpt>
      <trkpt lat="40.27707" lon="-8.1275">
        <ele>310.498</ele>
        <time>2020-09-27T16:32:45Z</time>
      </trkpt>
      <trkpt lat="40.2776" lon="-8.12802">
        <ele>310.886</ele>
        <time>2020-09-27T16:32:47Z</time>
      </trkpt>
      <trkpt lat="40.27787" lon="-8.12827">
        <ele>310.958</ele>
        <time>2020-09-27T16:32:48Z</time>
      </trkpt>
      <trkpt lat="40.27843" lon="-8.12878">
        <ele>310.426</ele>
        <time>2020-09-27T16:32:50Z</time>
      </trkpt>
      <trkpt lat="40.27899" lon="-8.12932">
        <ele>309.356</ele>
        <time>2020-09-27T16:32:52Z</time>
      </trkpt>
      <trkpt lat="40.27928" lon="-8.12961">
        <ele>308.286</ele>
        <time>2020-09-27T16:32:53Z</time>
      </trkpt>
      <trkpt lat="40.27983" lon="-8.1302">
        <ele>306.914</ele>
        <time>2020-09-27T16:32:55Z</time>
      </trkpt>
      <trkpt lat="40.28029" lon="-8.13091">
        <ele>305.862</ele>
        <time>2020-09-27T16:32:57Z</time>
      </trkpt>
      <trkpt lat="40.2807" lon="-8.13169">
        <ele>304.983</ele>
        <time>2020-09-27T16:32:59Z</time>
      </trkpt>
      <trkpt lat="40.28091" lon="-8.13206">
        <ele>304.111</ele>
        <time>2020-09-27T16:33:00Z</time>
      </trkpt>
      <trkpt lat="40.28132" lon="-8.13277">
        <ele>303.808</ele>
        <time>2020-09-27T16:33:02Z</time>
      </trkpt>
      <trkpt lat="40.28175" lon="-8.13342">
        <ele>303.261</ele>
        <time>2020-09-27T16:33:04Z</time>
      </trkpt>
      <trkpt lat="40.28201" lon="-8.1337">
        <ele>302.733</ele>
        <time>2020-09-27T16:33:05Z</time>
      </trkpt>
      <trkpt lat="40.28258" lon="-8.13414">
        <ele>302.191</ele>
        <time>2020-09-27T16:33:07Z</time>
      </trkpt>
      <trkpt lat="40.28319" lon="-8.13448">
        <ele>301.523</ele>
        <time>2020-09-27T16:33:09Z</time>
      </trkpt>
      <trkpt lat="40.2835" lon="-8.13466">
        <ele>301.021</ele>
        <time>2020-09-27T16:33:10Z</time>
      </trkpt>
      <trkpt lat="40.28381" lon="-8.13485">
        <ele>300.641</ele>
        <time>2020-09-27T16:33:11Z</time>
      </trkpt>
      <trkpt lat="40.2844" lon="-8.13532">
        <ele>299.971</ele>
        <time>2020-09-27T16:33:13Z</time>
      </trkpt>
      <trkpt lat="40.28467" lon="-8.13562">
        <ele>299.529</ele>
        <time>2020-09-27T16:33:14Z</time>
      </trkpt>
      <trkpt lat="40.28491" lon="-8.13595">
        <ele>299.315</ele>
        <time>2020-09-27T16:33:15Z</time>
      </trkpt>
      <trkpt lat="40.28532" lon="-8.13671">
        <ele>299.465</ele>
        <time>2020-09-27T16:33:17Z</time>
      </trkpt>
      <trkpt lat="40.28564" lon="-8.13751">
        <ele>299.511</ele>
        <time>2020-09-27T16:33:19Z</time>
      </trkpt>
      <trkpt lat="40.28598" lon="-8.13827">
        <ele>299.608</ele>
        <time>2020-09-27T16:33:21Z</time>
      </trkpt>
      <trkpt lat="40.28637" lon="-8.13896">
        <ele>299.716</ele>
        <time>2020-09-27T16:33:23Z</time>
      </trkpt>
      <trkpt lat="40.2866" lon="-8.13928">
        <ele>299.768</ele>
        <time>2020-09-27T16:33:24Z</time>
      </trkpt>
      <trkpt lat="40.28711" lon="-8.13983">
        <ele>299.826</ele>
        <time>2020-09-27T16:33:26Z</time>
      </trkpt>
      <trkpt lat="40.28769" lon="-8.14024">
        <ele>300.228</ele>
        <time>2020-09-27T16:33:28Z</time>
      </trkpt>
      <trkpt lat="40.28833" lon="-8.14046">
        <ele>300.916</ele>
        <time>2020-09-27T16:33:30Z</time>
      </trkpt>
      <trkpt lat="40.28866" lon="-8.14051">
        <ele>301.696</ele>
        <time>2020-09-27T16:33:31Z</time>
      </trkpt>
      <trkpt lat="40.28931" lon="-8.14045">
        <ele>302.526</ele>
        <time>2020-09-27T16:33:33Z</time>
      </trkpt>
      <trkpt lat="40.28993" lon="-8.14025">
        <ele>303.274</ele>
        <time>2020-09-27T16:33:35Z</time>
      </trkpt>
      <trkpt lat="40.29051" lon="-8.13992">
        <ele>303.581</ele>
        <time>2020-09-27T16:33:37Z</time>
      </trkpt>
      <trkpt lat="40.29106" lon="-8.13949">
        <ele>303.061</ele>
        <time>2020-09-27T16:33:39Z</time>
      </trkpt>
      <trkpt lat="40.29132" lon="-8.13925">
        <ele>302.417</ele>
        <time>2020-09-27T16:33:40Z</time>
      </trkpt>
      <trkpt lat="40.29185" lon="-8.13876">
        <ele>301.408</ele>
        <time>2020-09-27T16:33:42Z</time>
      </trkpt>
      <trkpt lat="40.29211" lon="-8.13851">
        <ele>300.813</ele>
        <time>2020-09-27T16:33:43Z</time>
      </trkpt>
      <trkpt lat="40.29237" lon="-8.13826">
        <ele>300.545</ele>
        <time>2020-09-27T16:33:44Z</time>
      </trkpt>
      <trkpt lat="40.2929" lon="-8.1378">
        <ele>300.433</ele>
        <time>2020-09-27T16:33:46Z</time>
      </trkpt>
      <trkpt lat="40.29317" lon="-8.13759">
        <ele>300.495</ele>
        <time>2020-09-27T16:33:47Z</time>
      </trkpt>
      <trkpt lat="40.29375" lon="-8.13728">
        <ele>300.633</ele>
        <time>2020-09-27T16:33:49Z</time>
      </trkpt>
      <trkpt lat="40.29406" lon="-8.13719">
        <ele>300.853</ele>
        <time>2020-09-27T16:33:50Z</time>
      </trkpt>
      <trkpt lat="40.29438" lon="-8.13715">
        <ele>301.123</ele>
        <time>2020-09-27T16:33:51Z</time>
      </trkpt>
      <trkpt lat="40.29469" lon="-8.13714">
        <ele>301.581</ele>
        <time>2020-09-27T16:33:52Z</time>
      </trkpt>
      <trkpt lat="40.29532" lon="-8.13726">
        <ele>301.867</ele>
        <time>2020-09-27T16:33:54Z</time>
      </trkpt>
      <trkpt lat="40.29564" lon="-8.13739">
        <ele>302.281</ele>
        <time>2020-09-27T16:33:55Z</time>
      </trkpt>
      <trkpt lat="40.29625" lon="-8.1377">
        <ele>302.319</ele>
        <time>2020-09-27T16:33:57Z</time>
      </trkpt>
      <trkpt lat="40.29687" lon="-8.13801">
        <ele>301.908</ele>
        <time>2020-09-27T16:33:59Z</time>
      </trkpt>
      <trkpt lat="40.29747" lon="-8.13831">
        <ele>300.781</ele>
        <time>2020-09-27T16:34:01Z</time>
      </trkpt>
      <trkpt lat="40.29802" lon="-8.13873">
        <ele>298.933</ele>
        <time>2020-09-27T16:34:03Z</time>
      </trkpt>
      <trkpt lat="40.29849" lon="-8.13931">
        <ele>296.021</ele>
        <time>2020-09-27T16:34:05Z</time>
      </trkpt>
      <trkpt lat="40.29891" lon="-8.13998">
        <ele>292.063</ele>
        <time>2020-09-27T16:34:07Z</time>
      </trkpt>
      <trkpt lat="40.29932" lon="-8.14068">
        <ele>288.061</ele>
        <time>2020-09-27T16:34:09Z</time>
      </trkpt>
      <trkpt lat="40.29954" lon="-8.14103">
        <ele>284.041</ele>
        <time>2020-09-27T16:34:10Z</time>
      </trkpt>
      <trkpt lat="40.29976" lon="-8.14138">
        <ele>280.071</ele>
        <time>2020-09-27T16:34:11Z</time>
      </trkpt>
      <trkpt lat="40.30022" lon="-8.14208">
        <ele>277.229</ele>
        <time>2020-09-27T16:34:13Z</time>
      </trkpt>
      <trkpt lat="40.30045" lon="-8.14243">
        <ele>273.776</ele>
        <time>2020-09-27T16:34:14Z</time>
      </trkpt>
      <trkpt lat="40.30091" lon="-8.14308">
        <ele>269.79</ele>
        <time>2020-09-27T16:34:16Z</time>
      </trkpt>
      <trkpt lat="40.30143" lon="-8.14363">
        <ele>265.719</ele>
        <time>2020-09-27T16:34:18Z</time>
      </trkpt>
      <trkpt lat="40.302" lon="-8.14408">
        <ele>262.708</ele>
        <time>2020-09-27T16:34:20Z</time>
      </trkpt>
      <trkpt lat="40.30229" lon="-8.1443">
        <ele>260.612</ele>
        <time>2020-09-27T16:34:21Z</time>
      </trkpt>
      <trkpt lat="40.30287" lon="-8.14477">
        <ele>260.174</ele>
        <time>2020-09-27T16:34:23Z</time>
      </trkpt>
      <trkpt lat="40.30346" lon="-8.14526">
        <ele>258.762</ele>
        <time>2020-09-27T16:34:25Z</time>
      </trkpt>
      <trkpt lat="40.30403" lon="-8.14578">
        <ele>257.294</ele>
        <time>2020-09-27T16:34:27Z</time>
      </trkpt>
      <trkpt lat="40.30429" lon="-8.14607">
        <ele>255.842</ele>
        <time>2020-09-27T16:34:28Z</time>
      </trkpt>
      <trkpt lat="40.30476" lon="-8.14672">
        <ele>254.922</ele>
        <time>2020-09-27T16:34:30Z</time>
      </trkpt>
      <trkpt lat="40.30496" lon="-8.1471">
        <ele>254.482</ele>
        <time>2020-09-27T16:34:31Z</time>
      </trkpt>
      <trkpt lat="40.3053" lon="-8.1479">
        <ele>253.98</ele>
        <time>2020-09-27T16:34:33Z</time>
      </trkpt>
      <trkpt lat="40.30562" lon="-8.14873">
        <ele>253.639</ele>
        <time>2020-09-27T16:34:35Z</time>
      </trkpt>
      <trkpt lat="40.30579" lon="-8.14915">
        <ele>253.401</ele>
        <time>2020-09-27T16:34:36Z</time>
      </trkpt>
      <trkpt lat="40.30597" lon="-8.14956">
        <ele>253.421</ele>
        <time>2020-09-27T16:34:37Z</time>
      </trkpt>
      <trkpt lat="40.30614" lon="-8.14998">
        <ele>253.508</ele>
        <time>2020-09-27T16:34:38Z</time>
      </trkpt>
      <trkpt lat="40.30644" lon="-8.15083">
        <ele>253.868</ele>
        <time>2020-09-27T16:34:40Z</time>
      </trkpt>
      <trkpt lat="40.30656" lon="-8.15128">
        <ele>254.55</ele>
        <time>2020-09-27T16:34:41Z</time>
      </trkpt>
      <trkpt lat="40.30675" lon="-8.15219">
        <ele>255.718</ele>
        <time>2020-09-27T16:34:43Z</time>
      </trkpt>
      <trkpt lat="40.3069" lon="-8.15312">
        <ele>257.35</ele>
        <time>2020-09-27T16:34:45Z</time>
      </trkpt>
      <trkpt lat="40.30708" lon="-8.15402">
        <ele>259.458</ele>
        <time>2020-09-27T16:34:47Z</time>
      </trkpt>
      <trkpt lat="40.30725" lon="-8.15483">
        <ele>261.588</ele>
        <time>2020-09-27T16:34:49Z</time>
      </trkpt>
      <trkpt lat="40.30732" lon="-8.1552">
        <ele>263.068</ele>
        <time>2020-09-27T16:34:50Z</time>
      </trkpt>
      <trkpt lat="40.30748" lon="-8.1559">
        <ele>264.036</ele>
        <time>2020-09-27T16:34:52Z</time>
      </trkpt>
      <trkpt lat="40.30761" lon="-8.15655">
        <ele>267.351</ele>
        <time>2020-09-27T16:34:54Z</time>
      </trkpt>
      <trkpt lat="40.30766" lon="-8.15686">
        <ele>268.201</ele>
        <time>2020-09-27T16:34:55Z</time>
      </trkpt>
      <trkpt lat="40.30774" lon="-8.15749">
        <ele>267.211</ele>
        <time>2020-09-27T16:34:57Z</time>
      </trkpt>
      <trkpt lat="40.30775" lon="-8.15782">
        <ele>266.008</ele>
        <time>2020-09-27T16:34:58Z</time>
      </trkpt>
      <trkpt lat="40.30771" lon="-8.15849">
        <ele>264.15</ele>
        <time>2020-09-27T16:35:00Z</time>
      </trkpt>
      <trkpt lat="40.30766" lon="-8.15883">
        <ele>262.452</ele>
        <time>2020-09-27T16:35:01Z</time>
      </trkpt>
      <trkpt lat="40.30748" lon="-8.15952">
        <ele>260.92</ele>
        <time>2020-09-27T16:35:03Z</time>
      </trkpt>
      <trkpt lat="40.30737" lon="-8.15983">
        <ele>259.342</ele>
        <time>2020-09-27T16:35:04Z</time>
      </trkpt>
      <trkpt lat="40.30713" lon="-8.16041">
        <ele>257.57</ele>
        <time>2020-09-27T16:35:06Z</time>
      </trkpt>
      <trkpt lat="40.30693" lon="-8.16095">
        <ele>256.23</ele>
        <time>2020-09-27T16:35:08Z</time>
      </trkpt>
      <trkpt lat="40.30684" lon="-8.16123">
        <ele>255.24</ele>
        <time>2020-09-27T16:35:09Z</time>
      </trkpt>
      <trkpt lat="40.3067" lon="-8.16185">
        <ele>254.328</ele>
        <time>2020-09-27T16:35:11Z</time>
      </trkpt>
      <trkpt lat="40.30661" lon="-8.16249">
        <ele>253.525</ele>
        <time>2020-09-27T16:35:13Z</time>
      </trkpt>
      <trkpt lat="40.30657" lon="-8.16282">
        <ele>252.726</ele>
        <time>2020-09-27T16:35:14Z</time>
      </trkpt>
      <trkpt lat="40.30649" lon="-8.16346">
        <ele>255.808</ele>
        <time>2020-09-27T16:35:16Z</time>
      </trkpt>
      <trkpt lat="40.30644" lon="-8.16379">
        <ele>255.708</ele>
        <time>2020-09-27T16:35:17Z</time>
      </trkpt>
      <trkpt lat="40.30635" lon="-8.16444">
        <ele>253.327</ele>
        <time>2020-09-27T16:35:19Z</time>
      </trkpt>
      <trkpt lat="40.30629" lon="-8.16509">
        <ele>250.299</ele>
        <time>2020-09-27T16:35:21Z</time>
      </trkpt>
      <trkpt lat="40.3063" lon="-8.16571">
        <ele>247.457</ele>
        <time>2020-09-27T16:35:23Z</time>
      </trkpt>
      <trkpt lat="40.30633" lon="-8.16602">
        <ele>245.549</ele>
        <time>2020-09-27T16:35:24Z</time>
      </trkpt>
      <trkpt lat="40.30638" lon="-8.16633">
        <ele>244.257</ele>
        <time>2020-09-27T16:35:25Z</time>
      </trkpt>
      <trkpt lat="40.30653" lon="-8.16692">
        <ele>243.627</ele>
        <time>2020-09-27T16:35:27Z</time>
      </trkpt>
      <trkpt lat="40.30662" lon="-8.1672">
        <ele>243.357</ele>
        <time>2020-09-27T16:35:28Z</time>
      </trkpt>
      <trkpt lat="40.30674" lon="-8.16748">
        <ele>243.135</ele>
        <time>2020-09-27T16:35:29Z</time>
      </trkpt>
      <trkpt lat="40.30702" lon="-8.16801">
        <ele>243.196</ele>
        <time>2020-09-27T16:35:31Z</time>
      </trkpt>
      <trkpt lat="40.30732" lon="-8.16851">
        <ele>242.931</ele>
        <time>2020-09-27T16:35:33Z</time>
      </trkpt>
      <trkpt lat="40.30748" lon="-8.16876">
        <ele>242.624</ele>
        <time>2020-09-27T16:35:34Z</time>
      </trkpt>
      <trkpt lat="40.30777" lon="-8.1693">
        <ele>241.908</ele>
        <time>2020-09-27T16:35:36Z</time>
      </trkpt>
      <trkpt lat="40.30789" lon="-8.16959">
        <ele>241.344</ele>
        <time>2020-09-27T16:35:37Z</time>
      </trkpt>
      <trkpt lat="40.308" lon="-8.1699">
        <ele>240.786</ele>
        <time>2020-09-27T16:35:38Z</time>
      </trkpt>
      <trkpt lat="40.30813" lon="-8.17051">
        <ele>239.974</ele>
        <time>2020-09-27T16:35:40Z</time>
      </trkpt>
      <trkpt lat="40.30817" lon="-8.1708">
        <ele>239.116</ele>
        <time>2020-09-27T16:35:41Z</time>
      </trkpt>
      <trkpt lat="40.30819" lon="-8.17108">
        <ele>238.584</ele>
        <time>2020-09-27T16:35:42Z</time>
      </trkpt>
      <trkpt lat="40.30821" lon="-8.17134">
        <ele>238.064</ele>
        <time>2020-09-27T16:35:43Z</time>
      </trkpt>
      <trkpt lat="40.30824" lon="-8.17185">
        <ele>237.634</ele>
        <time>2020-09-27T16:35:45Z</time>
      </trkpt>
      <trkpt lat="40.30829" lon="-8.17239">
        <ele>237.372</ele>
        <time>2020-09-27T16:35:47Z</time>
      </trkpt>
      <trkpt lat="40.30833" lon="-8.173">
        <ele>237.173</ele>
        <time>2020-09-27T16:35:49Z</time>
      </trkpt>
      <trkpt lat="40.30834" lon="-8.17365">
        <ele>236.885</ele>
        <time>2020-09-27T16:35:51Z</time>
      </trkpt>
      <trkpt lat="40.30832" lon="-8.17434">
        <ele>236.113</ele>
        <time>2020-09-27T16:35:53Z</time>
      </trkpt>
      <trkpt lat="40.30828" lon="-8.17504">
        <ele>234.708</ele>
        <time>2020-09-27T16:35:55Z</time>
      </trkpt>
      <trkpt lat="40.30822" lon="-8.17575">
        <ele>232.862</ele>
        <time>2020-09-27T16:35:57Z</time>
      </trkpt>
      <trkpt lat="40.3082" lon="-8.17611">
        <ele>231.164</ele>
        <time>2020-09-27T16:35:58Z</time>
      </trkpt>
      <trkpt lat="40.30817" lon="-8.1768">
        <ele>229.112</ele>
        <time>2020-09-27T16:36:00Z</time>
      </trkpt>
      <trkpt lat="40.30815" lon="-8.17715">
        <ele>227.594</ele>
        <time>2020-09-27T16:36:01Z</time>
      </trkpt>
      <trkpt lat="40.30811" lon="-8.17782">
        <ele>231.512</ele>
        <time>2020-09-27T16:36:03Z</time>
      </trkpt>
      <trkpt lat="40.30811" lon="-8.17847">
        <ele>230.642</ele>
        <time>2020-09-27T16:36:05Z</time>
      </trkpt>
      <trkpt lat="40.30816" lon="-8.17913">
        <ele>228.212</ele>
        <time>2020-09-27T16:36:07Z</time>
      </trkpt>
      <trkpt lat="40.30821" lon="-8.17946">
        <ele>226.24</ele>
        <time>2020-09-27T16:36:08Z</time>
      </trkpt>
      <trkpt lat="40.30832" lon="-8.18012">
        <ele>224.163</ele>
        <time>2020-09-27T16:36:10Z</time>
      </trkpt>
      <trkpt lat="40.30841" lon="-8.18078">
        <ele>222.144</ele>
        <time>2020-09-27T16:36:12Z</time>
      </trkpt>
      <trkpt lat="40.30844" lon="-8.18112">
        <ele>220.518</ele>
        <time>2020-09-27T16:36:13Z</time>
      </trkpt>
      <trkpt lat="40.30845" lon="-8.18146">
        <ele>219.108</ele>
        <time>2020-09-27T16:36:14Z</time>
      </trkpt>
      <trkpt lat="40.30843" lon="-8.18214">
        <ele>217.471</ele>
        <time>2020-09-27T16:36:16Z</time>
      </trkpt>
      <trkpt lat="40.30839" lon="-8.18248">
        <ele>216.013</ele>
        <time>2020-09-27T16:36:17Z</time>
      </trkpt>
      <trkpt lat="40.30837" lon="-8.18283">
        <ele>215.091</ele>
        <time>2020-09-27T16:36:18Z</time>
      </trkpt>
      <trkpt lat="40.30837" lon="-8.18348">
        <ele>213.753</ele>
        <time>2020-09-27T16:36:20Z</time>
      </trkpt>
      <trkpt lat="40.30839" lon="-8.18379">
        <ele>217.791</ele>
        <time>2020-09-27T16:36:21Z</time>
      </trkpt>
      <trkpt lat="40.30849" lon="-8.18441">
        <ele>217.241</ele>
        <time>2020-09-27T16:36:23Z</time>
      </trkpt>
      <trkpt lat="40.30865" lon="-8.18502">
        <ele>216.391</ele>
        <time>2020-09-27T16:36:25Z</time>
      </trkpt>
      <trkpt lat="40.30882" lon="-8.18563">
        <ele>215.769</ele>
        <time>2020-09-27T16:36:27Z</time>
      </trkpt>
      <trkpt lat="40.309" lon="-8.18626">
        <ele>215.437</ele>
        <time>2020-09-27T16:36:29Z</time>
      </trkpt>
      <trkpt lat="40.30909" lon="-8.18658">
        <ele>215.249</ele>
        <time>2020-09-27T16:36:30Z</time>
      </trkpt>
      <trkpt lat="40.30917" lon="-8.18689">
        <ele>214.913</ele>
        <time>2020-09-27T16:36:31Z</time>
      </trkpt>
      <trkpt lat="40.30925" lon="-8.18719">
        <ele>214.508</ele>
        <time>2020-09-27T16:36:32Z</time>
      </trkpt>
      <trkpt lat="40.30933" lon="-8.18749">
        <ele>214.158</ele>
        <time>2020-09-27T16:36:33Z</time>
      </trkpt>
      <trkpt lat="40.30949" lon="-8.18807">
        <ele>213.49</ele>
        <time>2020-09-27T16:36:35Z</time>
      </trkpt>
      <trkpt lat="40.30956" lon="-8.18833">
        <ele>212.748</ele>
        <time>2020-09-27T16:36:36Z</time>
      </trkpt>
      <trkpt lat="40.30967" lon="-8.18874">
        <ele>216.79</ele>
        <time>2020-09-27T16:36:38Z</time>
      </trkpt>
      <trkpt lat="40.30975" lon="-8.18898">
        <ele>217.378</ele>
        <time>2020-09-27T16:36:40Z</time>
      </trkpt>
      <trkpt lat="40.30982" lon="-8.18905">
        <ele>216.938</ele>
        <time>2020-09-27T16:36:41Z</time>
      </trkpt>
      <trkpt lat="40.31002" lon="-8.18912">
        <ele>215.818</ele>
        <time>2020-09-27T16:36:43Z</time>
      </trkpt>
      <trkpt lat="40.31013" lon="-8.1891">
        <ele>215.036</ele>
        <time>2020-09-27T16:36:44Z</time>
      </trkpt>
      <trkpt lat="40.31021" lon="-8.18904">
        <ele>214.451</ele>
        <time>2020-09-27T16:36:45Z</time>
      </trkpt>
      <trkpt lat="40.31026" lon="-8.18897">
        <ele>213.901</ele>
        <time>2020-09-27T16:36:46Z</time>
      </trkpt>
      <trkpt lat="40.31038" lon="-8.18889">
        <ele>213.011</ele>
        <time>2020-09-27T16:36:48Z</time>
      </trkpt>
      <trkpt lat="40.31049" lon="-8.18891">
        <ele>212.208</ele>
        <time>2020-09-27T16:36:49Z</time>
      </trkpt>
      <trkpt lat="40.3106" lon="-8.18895">
        <ele>211.34</ele>
        <time>2020-09-27T16:36:50Z</time>
      </trkpt>
      <trkpt lat="40.31081" lon="-8.18891">
        <ele>211.032</ele>
        <time>2020-09-27T16:36:52Z</time>
      </trkpt>
      <trkpt lat="40.31089" lon="-8.18878">
        <ele>211.17</ele>
        <time>2020-09-27T16:36:53Z</time>
      </trkpt>
      <trkpt lat="40.31095" lon="-8.18835">
        <ele>211.712</ele>
        <time>2020-09-27T16:36:55Z</time>
      </trkpt>
      <trkpt lat="40.31096" lon="-8.1881">
        <ele>212.57</ele>
        <time>2020-09-27T16:36:56Z</time>
      </trkpt>
      <trkpt lat="40.31102" lon="-8.18759">
        <ele>213.79</ele>
        <time>2020-09-27T16:36:58Z</time>
      </trkpt>
      <trkpt lat="40.31109" lon="-8.18716">
        <ele>214.82</ele>
        <time>2020-09-27T16:37:00Z</time>
      </trkpt>
      <trkpt lat="40.31114" lon="-8.18686">
        <ele>215.938</ele>
        <time>2020-09-27T16:37:02Z</time>
      </trkpt>
      <trkpt lat="40.31117" lon="-8.18674">
        <ele>216.788</ele>
        <time>2020-09-27T16:37:03Z</time>
      </trkpt>
      <trkpt lat="40.31116" lon="-8.18646">
        <ele>217.624</ele>
        <time>2020-09-27T16:37:05Z</time>
      </trkpt>
      <trkpt lat="40.31105" lon="-8.18608">
        <ele>218.526</ele>
        <time>2020-09-27T16:37:07Z</time>
      </trkpt>
      <trkpt lat="40.31096" lon="-8.18588">
        <ele>219.208</ele>
        <time>2020-09-27T16:37:08Z</time>
      </trkpt>
      <trkpt lat="40.31078" lon="-8.18546">
        <ele>219.643</ele>
        <time>2020-09-27T16:37:10Z</time>
      </trkpt>
      <trkpt lat="40.31068" lon="-8.18499">
        <ele>220.325</ele>
        <time>2020-09-27T16:37:12Z</time>
      </trkpt>
      <trkpt lat="40.31069" lon="-8.18445">
        <ele>221.183</ele>
        <time>2020-09-27T16:37:14Z</time>
      </trkpt>
      <trkpt lat="40.31071" lon="-8.18419">
        <ele>221.835</ele>
        <time>2020-09-27T16:37:15Z</time>
      </trkpt>
      <trkpt lat="40.31073" lon="-8.18368">
        <ele>225.863</ele>
        <time>2020-09-27T16:37:17Z</time>
      </trkpt>
      <trkpt lat="40.31075" lon="-8.18342">
        <ele>227.923</ele>
        <time>2020-09-27T16:37:18Z</time>
      </trkpt>
      <trkpt lat="40.31076" lon="-8.18293">
        <ele>228.043</ele>
        <time>2020-09-27T16:37:20Z</time>
      </trkpt>
      <trkpt lat="40.31077" lon="-8.1827">
        <ele>232.061</ele>
        <time>2020-09-27T16:37:21Z</time>
      </trkpt>
      <trkpt lat="40.31076" lon="-8.18228">
        <ele>232.428</ele>
        <time>2020-09-27T16:37:23Z</time>
      </trkpt>
      <trkpt lat="40.31071" lon="-8.18193">
        <ele>232.889</ele>
        <time>2020-09-27T16:37:25Z</time>
      </trkpt>
      <trkpt lat="40.3107" lon="-8.18181">
        <ele>232.417</ele>
        <time>2020-09-27T16:37:26Z</time>
      </trkpt>
      <trkpt lat="40.31075" lon="-8.18166">
        <ele>231.508</ele>
        <time>2020-09-27T16:37:28Z</time>
      </trkpt>
      <trkpt lat="40.31089" lon="-8.18164">
        <ele>230.837</ele>
        <time>2020-09-27T16:37:30Z</time>
      </trkpt>
      <trkpt lat="40.31109" lon="-8.18166">
        <ele>230.129</ele>
        <time>2020-09-27T16:37:32Z</time>
      </trkpt>
      <trkpt lat="40.31121" lon="-8.18168">
        <ele>229.617</ele>
        <time>2020-09-27T16:37:33Z</time>
      </trkpt>
      <trkpt lat="40.31133" lon="-8.18169">
        <ele>233.699</ele>
        <time>2020-09-27T16:37:34Z</time>
      </trkpt>
      <trkpt lat="40.31157" lon="-8.18174">
        <ele>234.717</ele>
        <time>2020-09-27T16:37:36Z</time>
      </trkpt>
      <trkpt lat="40.3117" lon="-8.18178">
        <ele>235.027</ele>
        <time>2020-09-27T16:37:37Z</time>
      </trkpt>
      <trkpt lat="40.31195" lon="-8.18189">
        <ele>234.987</ele>
        <time>2020-09-27T16:37:39Z</time>
      </trkpt>
      <trkpt lat="40.31219" lon="-8.18205">
        <ele>235.245</ele>
        <time>2020-09-27T16:37:41Z</time>
      </trkpt>
      <trkpt lat="40.31242" lon="-8.18226">
        <ele>238.558</ele>
        <time>2020-09-27T16:37:43Z</time>
      </trkpt>
      <trkpt lat="40.31254" lon="-8.18236">
        <ele>239.552</ele>
        <time>2020-09-27T16:37:44Z</time>
      </trkpt>
      <trkpt lat="40.31265" lon="-8.18248">
        <ele>239.817</ele>
        <time>2020-09-27T16:37:45Z</time>
      </trkpt>
      <trkpt lat="40.31277" lon="-8.1826">
        <ele>239.808</ele>
        <time>2020-09-27T16:37:46Z</time>
      </trkpt>
      <trkpt lat="40.31302" lon="-8.18286">
        <ele>239.78</ele>
        <time>2020-09-27T16:37:48Z</time>
      </trkpt>
      <trkpt lat="40.31332" lon="-8.18313">
        <ele>239.712</ele>
        <time>2020-09-27T16:37:50Z</time>
      </trkpt>
      <trkpt lat="40.31349" lon="-8.18327">
        <ele>240.09</ele>
        <time>2020-09-27T16:37:51Z</time>
      </trkpt>
      <trkpt lat="40.31384" lon="-8.18358">
        <ele>240.242</ele>
        <time>2020-09-27T16:37:53Z</time>
      </trkpt>
      <trkpt lat="40.31402" lon="-8.18374">
        <ele>240.53</ele>
        <time>2020-09-27T16:37:54Z</time>
      </trkpt>
      <trkpt lat="40.31438" lon="-8.18406">
        <ele>240.88</ele>
        <time>2020-09-27T16:37:56Z</time>
      </trkpt>
      <trkpt lat="40.31473" lon="-8.18438">
        <ele>241.12</ele>
        <time>2020-09-27T16:37:58Z</time>
      </trkpt>
      <trkpt lat="40.31492" lon="-8.18454">
        <ele>241.278</ele>
        <time>2020-09-27T16:37:59Z</time>
      </trkpt>
      <trkpt lat="40.31528" lon="-8.18485">
        <ele>241.643</ele>
        <time>2020-09-27T16:38:01Z</time>
      </trkpt>
      <trkpt lat="40.31547" lon="-8.18497">
        <ele>241.964</ele>
        <time>2020-09-27T16:38:02Z</time>
      </trkpt>
      <trkpt lat="40.31567" lon="-8.18507">
        <ele>242.21</ele>
        <time>2020-09-27T16:38:03Z</time>
      </trkpt>
      <trkpt lat="40.31608" lon="-8.18516">
        <ele>242.708</ele>
        <time>2020-09-27T16:38:05Z</time>
      </trkpt>
      <trkpt lat="40.3163" lon="-8.18514">
        <ele>243.229</ele>
        <time>2020-09-27T16:38:06Z</time>
      </trkpt>
      <trkpt lat="40.31674" lon="-8.18502">
        <ele>243.631</ele>
        <time>2020-09-27T16:38:08Z</time>
      </trkpt>
      <trkpt lat="40.31696" lon="-8.18493">
        <ele>243.849</ele>
        <time>2020-09-27T16:38:09Z</time>
      </trkpt>
      <trkpt lat="40.31718" lon="-8.18482">
        <ele>244.191</ele>
        <time>2020-09-27T16:38:10Z</time>
      </trkpt>
      <trkpt lat="40.31741" lon="-8.1847">
        <ele>244.249</ele>
        <time>2020-09-27T16:38:11Z</time>
      </trkpt>
      <trkpt lat="40.3179" lon="-8.18445">
        <ele>247.849</ele>
        <time>2020-09-27T16:38:13Z</time>
      </trkpt>
      <trkpt lat="40.3184" lon="-8.1841">
        <ele>248.949</ele>
        <time>2020-09-27T16:38:15Z</time>
      </trkpt>
      <trkpt lat="40.31867" lon="-8.18394">
        <ele>249.437</ele>
        <time>2020-09-27T16:38:16Z</time>
      </trkpt>
      <trkpt lat="40.31921" lon="-8.18363">
        <ele>249.773</ele>
        <time>2020-09-27T16:38:18Z</time>
      </trkpt>
      <trkpt lat="40.31974" lon="-8.18333">
        <ele>250.085</ele>
        <time>2020-09-27T16:38:20Z</time>
      </trkpt>
      <trkpt lat="40.32" lon="-8.18318">
        <ele>250.313</ele>
        <time>2020-09-27T16:38:21Z</time>
      </trkpt>
      <trkpt lat="40.32049" lon="-8.18291">
        <ele>251.208</ele>
        <time>2020-09-27T16:38:23Z</time>
      </trkpt>
      <trkpt lat="40.32074" lon="-8.18279">
        <ele>251.472</ele>
        <time>2020-09-27T16:38:24Z</time>
      </trkpt>
      <trkpt lat="40.32099" lon="-8.18271">
        <ele>251.434</ele>
        <time>2020-09-27T16:38:25Z</time>
      </trkpt>
      <trkpt lat="40.32152" lon="-8.18269">
        <ele>251.062</ele>
        <time>2020-09-27T16:38:27Z</time>
      </trkpt>
      <trkpt lat="40.322" lon="-8.18287">
        <ele>250.424</ele>
        <time>2020-09-27T16:38:29Z</time>
      </trkpt>
      <trkpt lat="40.32223" lon="-8.18303">
        <ele>249.792</ele>
        <time>2020-09-27T16:38:30Z</time>
      </trkpt>
      <trkpt lat="40.32267" lon="-8.18347">
        <ele>248.142</ele>
        <time>2020-09-27T16:38:32Z</time>
      </trkpt>
      <trkpt lat="40.32287" lon="-8.18374">
        <ele>246.412</ele>
        <time>2020-09-27T16:38:33Z</time>
      </trkpt>
      <trkpt lat="40.32327" lon="-8.18431">
        <ele>243.74</ele>
        <time>2020-09-27T16:38:35Z</time>
      </trkpt>
      <trkpt lat="40.32346" lon="-8.18457">
        <ele>241.325</ele>
        <time>2020-09-27T16:38:36Z</time>
      </trkpt>
      <trkpt lat="40.32382" lon="-8.18507">
        <ele>241.626</ele>
        <time>2020-09-27T16:38:38Z</time>
      </trkpt>
      <trkpt lat="40.32399" lon="-8.18528">
        <ele>240.108</ele>
        <time>2020-09-27T16:38:39Z</time>
      </trkpt>
      <trkpt lat="40.32433" lon="-8.18567">
        <ele>237.108</ele>
        <time>2020-09-27T16:38:41Z</time>
      </trkpt>
      <trkpt lat="40.32471" lon="-8.18599">
        <ele>234.587</ele>
        <time>2020-09-27T16:38:43Z</time>
      </trkpt>
      <trkpt lat="40.32493" lon="-8.18613">
        <ele>233.939</ele>
        <time>2020-09-27T16:38:44Z</time>
      </trkpt>
      <trkpt lat="40.32543" lon="-8.18632">
        <ele>232.967</ele>
        <time>2020-09-27T16:38:46Z</time>
      </trkpt>
      <trkpt lat="40.326" lon="-8.18643">
        <ele>234.099</ele>
        <time>2020-09-27T16:38:48Z</time>
      </trkpt>
      <trkpt lat="40.3266" lon="-8.18652">
        <ele>233.897</ele>
        <time>2020-09-27T16:38:50Z</time>
      </trkpt>
      <trkpt lat="40.32691" lon="-8.18658">
        <ele>233.787</ele>
        <time>2020-09-27T16:38:51Z</time>
      </trkpt>
      <trkpt lat="40.32752" lon="-8.1867">
        <ele>233.377</ele>
        <time>2020-09-27T16:38:53Z</time>
      </trkpt>
      <trkpt lat="40.32783" lon="-8.18676">
        <ele>233.115</ele>
        <time>2020-09-27T16:38:54Z</time>
      </trkpt>
      <trkpt lat="40.32814" lon="-8.18683">
        <ele>237.116</ele>
        <time>2020-09-27T16:38:55Z</time>
      </trkpt>
      <trkpt lat="40.32879" lon="-8.18695">
        <ele>237.276</ele>
        <time>2020-09-27T16:38:57Z</time>
      </trkpt>
      <trkpt lat="40.32911" lon="-8.18699">
        <ele>236.513</ele>
        <time>2020-09-27T16:38:58Z</time>
      </trkpt>
      <trkpt lat="40.32975" lon="-8.1871">
        <ele>234.808</ele>
        <time>2020-09-27T16:39:00Z</time>
      </trkpt>
      <trkpt lat="40.33005" lon="-8.18716">
        <ele>233.666</ele>
        <time>2020-09-27T16:39:01Z</time>
      </trkpt>
      <trkpt lat="40.33033" lon="-8.18723">
        <ele>232.658</ele>
        <time>2020-09-27T16:39:02Z</time>
      </trkpt>
      <trkpt lat="40.33085" lon="-8.18748">
        <ele>232.586</ele>
        <time>2020-09-27T16:39:04Z</time>
      </trkpt>
      <trkpt lat="40.33133" lon="-8.18792">
        <ele>230.088</ele>
        <time>2020-09-27T16:39:06Z</time>
      </trkpt>
      <trkpt lat="40.33179" lon="-8.18842">
        <ele>226.376</ele>
        <time>2020-09-27T16:39:08Z</time>
      </trkpt>
      <trkpt lat="40.33201" lon="-8.18869">
        <ele>223.276</ele>
        <time>2020-09-27T16:39:09Z</time>
      </trkpt>
      <trkpt lat="40.33243" lon="-8.18917">
        <ele>219.336</ele>
        <time>2020-09-27T16:39:11Z</time>
      </trkpt>
      <trkpt lat="40.33263" lon="-8.18939">
        <ele>216.164</ele>
        <time>2020-09-27T16:39:12Z</time>
      </trkpt>
      <trkpt lat="40.33283" lon="-8.18961">
        <ele>213.494</ele>
        <time>2020-09-27T16:39:13Z</time>
      </trkpt>
      <trkpt lat="40.33326" lon="-8.18998">
        <ele>212.457</ele>
        <time>2020-09-27T16:39:15Z</time>
      </trkpt>
      <trkpt lat="40.33375" lon="-8.19027">
        <ele>209.322</ele>
        <time>2020-09-27T16:39:17Z</time>
      </trkpt>
      <trkpt lat="40.33403" lon="-8.19036">
        <ele>206.808</ele>
        <time>2020-09-27T16:39:18Z</time>
      </trkpt>
      <trkpt lat="40.33432" lon="-8.19039">
        <ele>204.794</ele>
        <time>2020-09-27T16:39:19Z</time>
      </trkpt>
      <trkpt lat="40.33491" lon="-8.19033">
        <ele>202.526</ele>
        <time>2020-09-27T16:39:21Z</time>
      </trkpt>
      <trkpt lat="40.3355" lon="-8.1901">
        <ele>200.454</ele>
        <time>2020-09-27T16:39:23Z</time>
      </trkpt>
      <trkpt lat="40.33604" lon="-8.18988">
        <ele>198.346</ele>
        <time>2020-09-27T16:39:25Z</time>
      </trkpt>
      <trkpt lat="40.33653" lon="-8.18972">
        <ele>195.964</ele>
        <time>2020-09-27T16:39:27Z</time>
      </trkpt>
      <trkpt lat="40.33676" lon="-8.18969">
        <ele>198.774</ele>
        <time>2020-09-27T16:39:28Z</time>
      </trkpt>
      <trkpt lat="40.33699" lon="-8.18971">
        <ele>198.124</ele>
        <time>2020-09-27T16:39:29Z</time>
      </trkpt>
      <trkpt lat="40.3372" lon="-8.18981">
        <ele>196.352</ele>
        <time>2020-09-27T16:39:30Z</time>
      </trkpt>
      <trkpt lat="40.33741" lon="-8.18995">
        <ele>194.013</ele>
        <time>2020-09-27T16:39:31Z</time>
      </trkpt>
      <trkpt lat="40.3378" lon="-8.19037">
        <ele>190.243</ele>
        <time>2020-09-27T16:39:33Z</time>
      </trkpt>
      <trkpt lat="40.33816" lon="-8.19092">
        <ele>186.207</ele>
        <time>2020-09-27T16:39:35Z</time>
      </trkpt>
      <trkpt lat="40.33851" lon="-8.19154">
        <ele>182.208</ele>
        <time>2020-09-27T16:39:37Z</time>
      </trkpt>
      <trkpt lat="40.33883" lon="-8.19223">
        <ele>178.256</ele>
        <time>2020-09-27T16:39:39Z</time>
      </trkpt>
      <trkpt lat="40.33911" lon="-8.19294">
        <ele>174.228</ele>
        <time>2020-09-27T16:39:41Z</time>
      </trkpt>
      <trkpt lat="40.33924" lon="-8.19328">
        <ele>170.376</ele>
        <time>2020-09-27T16:39:42Z</time>
      </trkpt>
      <trkpt lat="40.33949" lon="-8.19389">
        <ele>166.788</ele>
        <time>2020-09-27T16:39:44Z</time>
      </trkpt>
      <trkpt lat="40.33961" lon="-8.19417">
        <ele>164.456</ele>
        <time>2020-09-27T16:39:45Z</time>
      </trkpt>
      <trkpt lat="40.33982" lon="-8.19469">
        <ele>162.636</ele>
        <time>2020-09-27T16:39:47Z</time>
      </trkpt>
      <trkpt lat="40.3399" lon="-8.19498">
        <ele>161.416</ele>
        <time>2020-09-27T16:39:48Z</time>
      </trkpt>
      <trkpt lat="40.33995" lon="-8.19528">
        <ele>160.794</ele>
        <time>2020-09-27T16:39:49Z</time>
      </trkpt>
      <trkpt lat="40.33998" lon="-8.19583">
        <ele>160.451</ele>
        <time>2020-09-27T16:39:51Z</time>
      </trkpt>
      <trkpt lat="40.34002" lon="-8.19629">
        <ele>160.101</ele>
        <time>2020-09-27T16:39:53Z</time>
      </trkpt>
      <trkpt lat="40.34019" lon="-8.19668">
        <ele>160.111</ele>
        <time>2020-09-27T16:39:55Z</time>
      </trkpt>
      <trkpt lat="40.34045" lon="-8.19705">
        <ele>160.208</ele>
        <time>2020-09-27T16:39:57Z</time>
      </trkpt>
      <trkpt lat="40.3406" lon="-8.19721">
        <ele>160.26</ele>
        <time>2020-09-27T16:39:58Z</time>
      </trkpt>
      <trkpt lat="40.34098" lon="-8.19745">
        <ele>160.492</ele>
        <time>2020-09-27T16:40:00Z</time>
      </trkpt>
      <trkpt lat="40.34142" lon="-8.19766">
        <ele>160.41</ele>
        <time>2020-09-27T16:40:02Z</time>
      </trkpt>
      <trkpt lat="40.34164" lon="-8.19774">
        <ele>160.522</ele>
        <time>2020-09-27T16:40:03Z</time>
      </trkpt>
      <trkpt lat="40.34184" lon="-8.1978">
        <ele>160.65</ele>
        <time>2020-09-27T16:40:04Z</time>
      </trkpt>
      <trkpt lat="40.34228" lon="-8.19779">
        <ele>160.92</ele>
        <time>2020-09-27T16:40:06Z</time>
      </trkpt>
      <trkpt lat="40.34252" lon="-8.19773">
        <ele>161.49</ele>
        <time>2020-09-27T16:40:07Z</time>
      </trkpt>
      <trkpt lat="40.34304" lon="-8.19754">
        <ele>162.628</ele>
        <time>2020-09-27T16:40:09Z</time>
      </trkpt>
      <trkpt lat="40.34357" lon="-8.19725">
        <ele>165.252</ele>
        <time>2020-09-27T16:40:11Z</time>
      </trkpt>
      <trkpt lat="40.34382" lon="-8.19704">
        <ele>169.253</ele>
        <time>2020-09-27T16:40:12Z</time>
      </trkpt>
      <trkpt lat="40.3443" lon="-8.19668">
        <ele>173.208</ele>
        <time>2020-09-27T16:40:14Z</time>
      </trkpt>
      <trkpt lat="40.34454" lon="-8.19656">
        <ele>177.208</ele>
        <time>2020-09-27T16:40:15Z</time>
      </trkpt>
      <trkpt lat="40.34499" lon="-8.19647">
        <ele>179.85</ele>
        <time>2020-09-27T16:40:17Z</time>
      </trkpt>
      <trkpt lat="40.3452" lon="-8.19652">
        <ele>181.362</ele>
        <time>2020-09-27T16:40:18Z</time>
      </trkpt>
      <trkpt lat="40.34542" lon="-8.19662">
        <ele>185.32</ele>
        <time>2020-09-27T16:40:19Z</time>
      </trkpt>
      <trkpt lat="40.34584" lon="-8.19693">
        <ele>189.322</ele>
        <time>2020-09-27T16:40:21Z</time>
      </trkpt>
      <trkpt lat="40.34626" lon="-8.19734">
        <ele>193.31</ele>
        <time>2020-09-27T16:40:23Z</time>
      </trkpt>
      <trkpt lat="40.34648" lon="-8.19755">
        <ele>196.16</ele>
        <time>2020-09-27T16:40:24Z</time>
      </trkpt>
      <trkpt lat="40.34691" lon="-8.19797">
        <ele>198.53</ele>
        <time>2020-09-27T16:40:26Z</time>
      </trkpt>
      <trkpt lat="40.34735" lon="-8.19844">
        <ele>200.828</ele>
        <time>2020-09-27T16:40:28Z</time>
      </trkpt>
      <trkpt lat="40.34777" lon="-8.1989">
        <ele>203.531</ele>
        <time>2020-09-27T16:40:30Z</time>
      </trkpt>
      <trkpt lat="40.34816" lon="-8.19932">
        <ele>205.861</ele>
        <time>2020-09-27T16:40:32Z</time>
      </trkpt>
      <trkpt lat="40.34833" lon="-8.19956">
        <ele>209.807</ele>
        <time>2020-09-27T16:40:33Z</time>
      </trkpt>
      <trkpt lat="40.34864" lon="-8.20006">
        <ele>210.508</ele>
        <time>2020-09-27T16:40:35Z</time>
      </trkpt>
      <trkpt lat="40.34894" lon="-8.20059">
        <ele>209.948</ele>
        <time>2020-09-27T16:40:37Z</time>
      </trkpt>
      <trkpt lat="40.3491" lon="-8.20086">
        <ele>209.08</ele>
        <time>2020-09-27T16:40:38Z</time>
      </trkpt>
      <trkpt lat="40.34941" lon="-8.20136">
        <ele>208.218</ele>
        <time>2020-09-27T16:40:40Z</time>
      </trkpt>
      <trkpt lat="40.34955" lon="-8.2016">
        <ele>207.48</ele>
        <time>2020-09-27T16:40:41Z</time>
      </trkpt>
      <trkpt lat="40.34985" lon="-8.20207">
        <ele>206.668</ele>
        <time>2020-09-27T16:40:43Z</time>
      </trkpt>
      <trkpt lat="40.34999" lon="-8.20229">
        <ele>206.018</ele>
        <time>2020-09-27T16:40:44Z</time>
      </trkpt>
      <trkpt lat="40.35022" lon="-8.2026">
        <ele>205.768</ele>
        <time>2020-09-27T16:40:46Z</time>
      </trkpt>
      <trkpt lat="40.35032" lon="-8.20268">
        <ele>205.856</ele>
        <time>2020-09-27T16:40:47Z</time>
      </trkpt>
      <trkpt lat="40.3505" lon="-8.20266">
        <ele>206.557</ele>
        <time>2020-09-27T16:40:49Z</time>
      </trkpt>
      <trkpt lat="40.35062" lon="-8.20247">
        <ele>206.9</ele>
        <time>2020-09-27T16:40:51Z</time>
      </trkpt>
      <trkpt lat="40.35066" lon="-8.20231">
        <ele>207.12</ele>
        <time>2020-09-27T16:40:52Z</time>
      </trkpt>
      <trkpt lat="40.35082" lon="-8.20191">
        <ele>207.008</ele>
        <time>2020-09-27T16:40:54Z</time>
      </trkpt>
      <trkpt lat="40.35094" lon="-8.2017">
        <ele>206.92</ele>
        <time>2020-09-27T16:40:55Z</time>
      </trkpt>
      <trkpt lat="40.35109" lon="-8.2015">
        <ele>207.062</ele>
        <time>2020-09-27T16:40:56Z</time>
      </trkpt>
      <trkpt lat="40.35145" lon="-8.2011">
        <ele>206.87</ele>
        <time>2020-09-27T16:40:58Z</time>
      </trkpt>
      <trkpt lat="40.35162" lon="-8.20089">
        <ele>206.862</ele>
        <time>2020-09-27T16:40:59Z</time>
      </trkpt>
      <trkpt lat="40.35199" lon="-8.20043">
        <ele>206.97</ele>
        <time>2020-09-27T16:41:01Z</time>
      </trkpt>
      <trkpt lat="40.3524" lon="-8.19999">
        <ele>206.81</ele>
        <time>2020-09-27T16:41:03Z</time>
      </trkpt>
      <trkpt lat="40.35261" lon="-8.19977">
        <ele>206.56</ele>
        <time>2020-09-27T16:41:04Z</time>
      </trkpt>
      <trkpt lat="40.35307" lon="-8.19932">
        <ele>207.268</ele>
        <time>2020-09-27T16:41:06Z</time>
      </trkpt>
      <trkpt lat="40.3533" lon="-8.19909">
        <ele>207.441</ele>
        <time>2020-09-27T16:41:07Z</time>
      </trkpt>
      <trkpt lat="40.35378" lon="-8.19863">
        <ele>207.881</ele>
        <time>2020-09-27T16:41:09Z</time>
      </trkpt>
      <trkpt lat="40.35402" lon="-8.19839">
        <ele>208.009</ele>
        <time>2020-09-27T16:41:10Z</time>
      </trkpt>
      <trkpt lat="40.3545" lon="-8.19791">
        <ele>209.408</ele>
        <time>2020-09-27T16:41:12Z</time>
      </trkpt>
      <trkpt lat="40.35497" lon="-8.19742">
        <ele>211.389</ele>
        <time>2020-09-27T16:41:14Z</time>
      </trkpt>
      <trkpt lat="40.35519" lon="-8.19715">
        <ele>212.981</ele>
        <time>2020-09-27T16:41:15Z</time>
      </trkpt>
      <trkpt lat="40.35542" lon="-8.19687">
        <ele>214.299</ele>
        <time>2020-09-27T16:41:16Z</time>
      </trkpt>
      <trkpt lat="40.35583" lon="-8.19634">
        <ele>215.431</ele>
        <time>2020-09-27T16:41:18Z</time>
      </trkpt>
      <trkpt lat="40.35626" lon="-8.19587">
        <ele>216.339</ele>
        <time>2020-09-27T16:41:20Z</time>
      </trkpt>
      <trkpt lat="40.3565" lon="-8.19566">
        <ele>216.889</ele>
        <time>2020-09-27T16:41:21Z</time>
      </trkpt>
      <trkpt lat="40.35676" lon="-8.19548">
        <ele>217.199</ele>
        <time>2020-09-27T16:41:22Z</time>
      </trkpt>
      <trkpt lat="40.35703" lon="-8.19532">
        <ele>217.367</ele>
        <time>2020-09-27T16:41:23Z</time>
      </trkpt>
      <trkpt lat="40.35732" lon="-8.19518">
        <ele>217.716</ele>
        <time>2020-09-27T16:41:24Z</time>
      </trkpt>
      <trkpt lat="40.35788" lon="-8.1949">
        <ele>220.376</ele>
        <time>2020-09-27T16:41:26Z</time>
      </trkpt>
      <trkpt lat="40.35815" lon="-8.19476">
        <ele>221.413</ele>
        <time>2020-09-27T16:41:27Z</time>
      </trkpt>
      <trkpt lat="40.35865" lon="-8.19449">
        <ele>221.708</ele>
        <time>2020-09-27T16:41:29Z</time>
      </trkpt>
      <trkpt lat="40.35891" lon="-8.19437">
        <ele>221.756</ele>
        <time>2020-09-27T16:41:30Z</time>
      </trkpt>
      <trkpt lat="40.35917" lon="-8.19426">
        <ele>221.918</ele>
        <time>2020-09-27T16:41:31Z</time>
      </trkpt>
      <trkpt lat="40.35943" lon="-8.19419">
        <ele>222.086</ele>
        <time>2020-09-27T16:41:32Z</time>
      </trkpt>
      <trkpt lat="40.35971" lon="-8.19416">
        <ele>222.068</ele>
        <time>2020-09-27T16:41:33Z</time>
      </trkpt>
      <trkpt lat="40.36026" lon="-8.19419">
        <ele>222.066</ele>
        <time>2020-09-27T16:41:35Z</time>
      </trkpt>
      <trkpt lat="40.3608" lon="-8.19439">
        <ele>222.216</ele>
        <time>2020-09-27T16:41:37Z</time>
      </trkpt>
      <trkpt lat="40.36106" lon="-8.19454">
        <ele>222.696</ele>
        <time>2020-09-27T16:41:38Z</time>
      </trkpt>
      <trkpt lat="40.36156" lon="-8.19492">
        <ele>223.284</ele>
        <time>2020-09-27T16:41:40Z</time>
      </trkpt>
      <trkpt lat="40.36181" lon="-8.19513">
        <ele>223.643</ele>
        <time>2020-09-27T16:41:41Z</time>
      </trkpt>
      <trkpt lat="40.36232" lon="-8.19553">
        <ele>223.864</ele>
        <time>2020-09-27T16:41:43Z</time>
      </trkpt>
      <trkpt lat="40.36285" lon="-8.19593">
        <ele>224.11</ele>
        <time>2020-09-27T16:41:45Z</time>
      </trkpt>
      <trkpt lat="40.36337" lon="-8.19634">
        <ele>224.208</ele>
        <time>2020-09-27T16:41:47Z</time>
      </trkpt>
      <trkpt lat="40.36362" lon="-8.19653">
        <ele>224.429</ele>
        <time>2020-09-27T16:41:48Z</time>
      </trkpt>
      <trkpt lat="40.36411" lon="-8.19688">
        <ele>224.881</ele>
        <time>2020-09-27T16:41:50Z</time>
      </trkpt>
      <trkpt lat="40.36438" lon="-8.197">
        <ele>225.029</ele>
        <time>2020-09-27T16:41:51Z</time>
      </trkpt>
      <trkpt lat="40.36465" lon="-8.19709">
        <ele>225.211</ele>
        <time>2020-09-27T16:41:52Z</time>
      </trkpt>
      <trkpt lat="40.36521" lon="-8.19718">
        <ele>224.969</ele>
        <time>2020-09-27T16:41:54Z</time>
      </trkpt>
      <trkpt lat="40.36549" lon="-8.19717">
        <ele>224.629</ele>
        <time>2020-09-27T16:41:55Z</time>
      </trkpt>
      <trkpt lat="40.36577" lon="-8.19713">
        <ele>224.489</ele>
        <time>2020-09-27T16:41:56Z</time>
      </trkpt>
      <trkpt lat="40.36605" lon="-8.19706">
        <ele>224.497</ele>
        <time>2020-09-27T16:41:57Z</time>
      </trkpt>
      <trkpt lat="40.3666" lon="-8.19681">
        <ele>224.257</ele>
        <time>2020-09-27T16:41:59Z</time>
      </trkpt>
      <trkpt lat="40.36715" lon="-8.19646">
        <ele>226.1</ele>
        <time>2020-09-27T16:42:01Z</time>
      </trkpt>
      <trkpt lat="40.36769" lon="-8.19609">
        <ele>225.92</ele>
        <time>2020-09-27T16:42:03Z</time>
      </trkpt>
      <trkpt lat="40.36797" lon="-8.19591">
        <ele>225.308</ele>
        <time>2020-09-27T16:42:04Z</time>
      </trkpt>
      <trkpt lat="40.36852" lon="-8.19558">
        <ele>224.78</ele>
        <time>2020-09-27T16:42:06Z</time>
      </trkpt>
      <trkpt lat="40.36901" lon="-8.19527">
        <ele>224.182</ele>
        <time>2020-09-27T16:42:08Z</time>
      </trkpt>
      <trkpt lat="40.36925" lon="-8.19511">
        <ele>223.75</ele>
        <time>2020-09-27T16:42:09Z</time>
      </trkpt>
      <trkpt lat="40.36971" lon="-8.19481">
        <ele>223.342</ele>
        <time>2020-09-27T16:42:11Z</time>
      </trkpt>
      <trkpt lat="40.37014" lon="-8.19455">
        <ele>223.11</ele>
        <time>2020-09-27T16:42:13Z</time>
      </trkpt>
      <trkpt lat="40.37034" lon="-8.19443">
        <ele>222.87</ele>
        <time>2020-09-27T16:42:14Z</time>
      </trkpt>
      <trkpt lat="40.37053" lon="-8.19431">
        <ele>222.42</ele>
        <time>2020-09-27T16:42:15Z</time>
      </trkpt>
      <trkpt lat="40.37089" lon="-8.19414">
        <ele>222.148</ele>
        <time>2020-09-27T16:42:17Z</time>
      </trkpt>
      <trkpt lat="40.37107" lon="-8.19409">
        <ele>221.977</ele>
        <time>2020-09-27T16:42:18Z</time>
      </trkpt>
      <trkpt lat="40.37145" lon="-8.19405">
        <ele>221.561</ele>
        <time>2020-09-27T16:42:20Z</time>
      </trkpt>
      <trkpt lat="40.37165" lon="-8.19405">
        <ele>220.927</ele>
        <time>2020-09-27T16:42:21Z</time>
      </trkpt>
      <trkpt lat="40.37185" lon="-8.19405">
        <ele>220.008</ele>
        <time>2020-09-27T16:42:22Z</time>
      </trkpt>
      <trkpt lat="40.37205" lon="-8.19408">
        <ele>219.242</ele>
        <time>2020-09-27T16:42:23Z</time>
      </trkpt>
      <trkpt lat="40.37243" lon="-8.19415">
        <ele>218.254</ele>
        <time>2020-09-27T16:42:25Z</time>
      </trkpt>
      <trkpt lat="40.37263" lon="-8.19418">
        <ele>217.392</ele>
        <time>2020-09-27T16:42:26Z</time>
      </trkpt>
      <trkpt lat="40.37307" lon="-8.19427">
        <ele>216.914</ele>
        <time>2020-09-27T16:42:28Z</time>
      </trkpt>
      <trkpt lat="40.37332" lon="-8.19431">
        <ele>216.172</ele>
        <time>2020-09-27T16:42:29Z</time>
      </trkpt>
      <trkpt lat="40.37358" lon="-8.19435">
        <ele>215.172</ele>
        <time>2020-09-27T16:42:30Z</time>
      </trkpt>
      <trkpt lat="40.37386" lon="-8.19439">
        <ele>214.042</ele>
        <time>2020-09-27T16:42:31Z</time>
      </trkpt>
      <trkpt lat="40.37442" lon="-8.19445">
        <ele>213.19</ele>
        <time>2020-09-27T16:42:33Z</time>
      </trkpt>
      <trkpt lat="40.37503" lon="-8.19451">
        <ele>217.152</ele>
        <time>2020-09-27T16:42:35Z</time>
      </trkpt>
      <trkpt lat="40.37535" lon="-8.19453">
        <ele>219.853</ele>
        <time>2020-09-27T16:42:36Z</time>
      </trkpt>
      <trkpt lat="40.37567" lon="-8.19457">
        <ele>220.208</ele>
        <time>2020-09-27T16:42:37Z</time>
      </trkpt>
      <trkpt lat="40.37629" lon="-8.19467">
        <ele>219.408</ele>
        <time>2020-09-27T16:42:39Z</time>
      </trkpt>
      <trkpt lat="40.37659" lon="-8.19471">
        <ele>218.93</ele>
        <time>2020-09-27T16:42:40Z</time>
      </trkpt>
      <trkpt lat="40.3769" lon="-8.19475">
        <ele>218.642</ele>
        <time>2020-09-27T16:42:41Z</time>
      </trkpt>
      <trkpt lat="40.3775" lon="-8.19483">
        <ele>218.67</ele>
        <time>2020-09-27T16:42:43Z</time>
      </trkpt>
      <trkpt lat="40.37778" lon="-8.19487">
        <ele>218.772</ele>
        <time>2020-09-27T16:42:44Z</time>
      </trkpt>
      <trkpt lat="40.37807" lon="-8.19492">
        <ele>219.01</ele>
        <time>2020-09-27T16:42:45Z</time>
      </trkpt>
      <trkpt lat="40.37834" lon="-8.19499">
        <ele>221.43</ele>
        <time>2020-09-27T16:42:46Z</time>
      </trkpt>
      <trkpt lat="40.37861" lon="-8.19509">
        <ele>222.24</ele>
        <time>2020-09-27T16:42:47Z</time>
      </trkpt>
      <trkpt lat="40.37912" lon="-8.19536">
        <ele>222.128</ele>
        <time>2020-09-27T16:42:49Z</time>
      </trkpt>
      <trkpt lat="40.37936" lon="-8.19554">
        <ele>221.946</ele>
        <time>2020-09-27T16:42:50Z</time>
      </trkpt>
      <trkpt lat="40.37982" lon="-8.19596">
        <ele>225.988</ele>
        <time>2020-09-27T16:42:52Z</time>
      </trkpt>
      <trkpt lat="40.38027" lon="-8.1964">
        <ele>226.816</ele>
        <time>2020-09-27T16:42:54Z</time>
      </trkpt>
      <trkpt lat="40.38074" lon="-8.19684">
        <ele>226.008</ele>
        <time>2020-09-27T16:42:56Z</time>
      </trkpt>
      <trkpt lat="40.38122" lon="-8.19728">
        <ele>225.789</ele>
        <time>2020-09-27T16:42:58Z</time>
      </trkpt>
      <trkpt lat="40.38169" lon="-8.19773">
        <ele>224.861</ele>
        <time>2020-09-27T16:43:00Z</time>
      </trkpt>
      <trkpt lat="40.38192" lon="-8.19795">
        <ele>224.229</ele>
        <time>2020-09-27T16:43:01Z</time>
      </trkpt>
      <trkpt lat="40.38216" lon="-8.19817">
        <ele>223.871</ele>
        <time>2020-09-27T16:43:02Z</time>
      </trkpt>
      <trkpt lat="40.38239" lon="-8.19839">
        <ele>223.689</ele>
        <time>2020-09-27T16:43:03Z</time>
      </trkpt>
      <trkpt lat="40.38287" lon="-8.19881">
        <ele>223.329</ele>
        <time>2020-09-27T16:43:05Z</time>
      </trkpt>
      <trkpt lat="40.38312" lon="-8.19898">
        <ele>223.129</ele>
        <time>2020-09-27T16:43:06Z</time>
      </trkpt>
      <trkpt lat="40.38338" lon="-8.19912">
        <ele>223.527</ele>
        <time>2020-09-27T16:43:07Z</time>
      </trkpt>
      <trkpt lat="40.38393" lon="-8.19934">
        <ele>223.472</ele>
        <time>2020-09-27T16:43:09Z</time>
      </trkpt>
      <trkpt lat="40.38422" lon="-8.19942">
        <ele>223.413</ele>
        <time>2020-09-27T16:43:10Z</time>
      </trkpt>
      <trkpt lat="40.38479" lon="-8.1995">
        <ele>223.414</ele>
        <time>2020-09-27T16:43:12Z</time>
      </trkpt>
      <trkpt lat="40.38509" lon="-8.19954">
        <ele>225.408</ele>
        <time>2020-09-27T16:43:13Z</time>
      </trkpt>
      <trkpt lat="40.38538" lon="-8.19958">
        <ele>225.692</ele>
        <time>2020-09-27T16:43:14Z</time>
      </trkpt>
      <trkpt lat="40.38567" lon="-8.19964">
        <ele>225.214</ele>
        <time>2020-09-27T16:43:15Z</time>
      </trkpt>
      <trkpt lat="40.3862" lon="-8.19974">
        <ele>227.792</ele>
        <time>2020-09-27T16:43:17Z</time>
      </trkpt>
      <trkpt lat="40.38669" lon="-8.19984">
        <ele>225.784</ele>
        <time>2020-09-27T16:43:19Z</time>
      </trkpt>
      <trkpt lat="40.38692" lon="-8.19989">
        <ele>223.492</ele>
        <time>2020-09-27T16:43:20Z</time>
      </trkpt>
      <trkpt lat="40.38715" lon="-8.19994">
        <ele>221.372</ele>
        <time>2020-09-27T16:43:21Z</time>
      </trkpt>
      <trkpt lat="40.38763" lon="-8.20003">
        <ele>220.282</ele>
        <time>2020-09-27T16:43:23Z</time>
      </trkpt>
      <trkpt lat="40.38813" lon="-8.20013">
        <ele>217.55</ele>
        <time>2020-09-27T16:43:25Z</time>
      </trkpt>
      <trkpt lat="40.38839" lon="-8.20018">
        <ele>215.277</ele>
        <time>2020-09-27T16:43:26Z</time>
      </trkpt>
      <trkpt lat="40.38892" lon="-8.20027">
        <ele>212.561</ele>
        <time>2020-09-27T16:43:28Z</time>
      </trkpt>
      <trkpt lat="40.38919" lon="-8.20032">
        <ele>210.327</ele>
        <time>2020-09-27T16:43:29Z</time>
      </trkpt>
      <trkpt lat="40.38973" lon="-8.20042">
        <ele>208.108</ele>
        <time>2020-09-27T16:43:31Z</time>
      </trkpt>
      <trkpt lat="40.38999" lon="-8.20047">
        <ele>206.442</ele>
        <time>2020-09-27T16:43:32Z</time>
      </trkpt>
      <trkpt lat="40.39047" lon="-8.20057">
        <ele>209.414</ele>
        <time>2020-09-27T16:43:34Z</time>
      </trkpt>
      <trkpt lat="40.39069" lon="-8.20064">
        <ele>209.272</ele>
        <time>2020-09-27T16:43:35Z</time>
      </trkpt>
      <trkpt lat="40.39091" lon="-8.20073">
        <ele>207.844</ele>
        <time>2020-09-27T16:43:36Z</time>
      </trkpt>
      <trkpt lat="40.39133" lon="-8.20102">
        <ele>204.752</ele>
        <time>2020-09-27T16:43:38Z</time>
      </trkpt>
      <trkpt lat="40.39154" lon="-8.2012">
        <ele>202.152</ele>
        <time>2020-09-27T16:43:39Z</time>
      </trkpt>
      <trkpt lat="40.39173" lon="-8.20141">
        <ele>199.852</ele>
        <time>2020-09-27T16:43:40Z</time>
      </trkpt>
      <trkpt lat="40.39203" lon="-8.2019">
        <ele>197.77</ele>
        <time>2020-09-27T16:43:42Z</time>
      </trkpt>
      <trkpt lat="40.39216" lon="-8.20216">
        <ele>196.156</ele>
        <time>2020-09-27T16:43:43Z</time>
      </trkpt>
      <trkpt lat="40.39235" lon="-8.20268">
        <ele>194.959</ele>
        <time>2020-09-27T16:43:45Z</time>
      </trkpt>
      <trkpt lat="40.39248" lon="-8.20321">
        <ele>194.114</ele>
        <time>2020-09-27T16:43:47Z</time>
      </trkpt>
      <trkpt lat="40.39265" lon="-8.20378">
        <ele>193.408</ele>
        <time>2020-09-27T16:43:49Z</time>
      </trkpt>
      <trkpt lat="40.39286" lon="-8.2044">
        <ele>192.93</ele>
        <time>2020-09-27T16:43:51Z</time>
      </trkpt>
      <trkpt lat="40.39296" lon="-8.20472">
        <ele>192.582</ele>
        <time>2020-09-27T16:43:52Z</time>
      </trkpt>
      <trkpt lat="40.39318" lon="-8.20539">
        <ele>192.13</ele>
        <time>2020-09-27T16:43:54Z</time>
      </trkpt>
      <trkpt lat="40.39329" lon="-8.20573">
        <ele>191.862</ele>
        <time>2020-09-27T16:43:55Z</time>
      </trkpt>
      <trkpt lat="40.39353" lon="-8.20639">
        <ele>193.93</ele>
        <time>2020-09-27T16:43:57Z</time>
      </trkpt>
      <trkpt lat="40.39365" lon="-8.20671">
        <ele>194.05</ele>
        <time>2020-09-27T16:43:58Z</time>
      </trkpt>
      <trkpt lat="40.39378" lon="-8.20701">
        <ele>193.28</ele>
        <time>2020-09-27T16:43:59Z</time>
      </trkpt>
      <trkpt lat="40.39393" lon="-8.2073">
        <ele>192.298</ele>
        <time>2020-09-27T16:44:00Z</time>
      </trkpt>
      <trkpt lat="40.39428" lon="-8.20784">
        <ele>190.641</ele>
        <time>2020-09-27T16:44:02Z</time>
      </trkpt>
      <trkpt lat="40.39447" lon="-8.20808">
        <ele>189.081</ele>
        <time>2020-09-27T16:44:03Z</time>
      </trkpt>
      <trkpt lat="40.3949" lon="-8.20854">
        <ele>187.009</ele>
        <time>2020-09-27T16:44:05Z</time>
      </trkpt>
      <trkpt lat="40.39512" lon="-8.20878">
        <ele>185.208</ele>
        <time>2020-09-27T16:44:06Z</time>
      </trkpt>
      <trkpt lat="40.39554" lon="-8.2093">
        <ele>182.969</ele>
        <time>2020-09-27T16:44:08Z</time>
      </trkpt>
      <trkpt lat="40.39575" lon="-8.20956">
        <ele>180.961</ele>
        <time>2020-09-27T16:44:09Z</time>
      </trkpt>
      <trkpt lat="40.39617" lon="-8.21008">
        <ele>178.569</ele>
        <time>2020-09-27T16:44:11Z</time>
      </trkpt>
      <trkpt lat="40.3966" lon="-8.21058">
        <ele>175.861</ele>
        <time>2020-09-27T16:44:13Z</time>
      </trkpt>
      <trkpt lat="40.39701" lon="-8.21107">
        <ele>173.469</ele>
        <time>2020-09-27T16:44:15Z</time>
      </trkpt>
      <trkpt lat="40.39741" lon="-8.21154">
        <ele>171.129</ele>
        <time>2020-09-27T16:44:17Z</time>
      </trkpt>
      <trkpt lat="40.39761" lon="-8.21178">
        <ele>169.249</ele>
        <time>2020-09-27T16:44:18Z</time>
      </trkpt>
      <trkpt lat="40.3978" lon="-8.21201">
        <ele>167.627</ele>
        <time>2020-09-27T16:44:19Z</time>
      </trkpt>
      <trkpt lat="40.39799" lon="-8.21224">
        <ele>166.175</ele>
        <time>2020-09-27T16:44:20Z</time>
      </trkpt>
      <trkpt lat="40.39817" lon="-8.21245">
        <ele>164.928</ele>
        <time>2020-09-27T16:44:21Z</time>
      </trkpt>
      <trkpt lat="40.39835" lon="-8.21266">
        <ele>163.62</ele>
        <time>2020-09-27T16:44:22Z</time>
      </trkpt>
      <trkpt lat="40.39853" lon="-8.21288">
        <ele>162.508</ele>
        <time>2020-09-27T16:44:23Z</time>
      </trkpt>
      <trkpt lat="40.3987" lon="-8.21308">
        <ele>161.582</ele>
        <time>2020-09-27T16:44:24Z</time>
      </trkpt>
      <trkpt lat="40.39885" lon="-8.21328">
        <ele>160.474</ele>
        <time>2020-09-27T16:44:25Z</time>
      </trkpt>
      <trkpt lat="40.39915" lon="-8.21365">
        <ele>158.822</ele>
        <time>2020-09-27T16:44:27Z</time>
      </trkpt>
      <trkpt lat="40.39944" lon="-8.21398">
        <ele>157.374</ele>
        <time>2020-09-27T16:44:29Z</time>
      </trkpt>
      <trkpt lat="40.39967" lon="-8.21419">
        <ele>156.412</ele>
        <time>2020-09-27T16:44:31Z</time>
      </trkpt>
      <trkpt lat="40.39979" lon="-8.21422">
        <ele>155.862</ele>
        <time>2020-09-27T16:44:32Z</time>
      </trkpt>
      <trkpt lat="40.39996" lon="-8.2143">
        <ele>155.012</ele>
        <time>2020-09-27T16:44:34Z</time>
      </trkpt>
      <trkpt lat="40.39997" lon="-8.21455">
        <ele>154.24</ele>
        <time>2020-09-27T16:44:36Z</time>
      </trkpt>
      <trkpt lat="40.39983" lon="-8.21494">
        <ele>153.665</ele>
        <time>2020-09-27T16:44:38Z</time>
      </trkpt>
      <trkpt lat="40.39969" lon="-8.21544">
        <ele>152.468</ele>
        <time>2020-09-27T16:44:40Z</time>
      </trkpt>
      <trkpt lat="40.39962" lon="-8.21571">
        <ele>151.314</ele>
        <time>2020-09-27T16:44:41Z</time>
      </trkpt>
      <trkpt lat="40.39948" lon="-8.21627">
        <ele>149.608</ele>
        <time>2020-09-27T16:44:43Z</time>
      </trkpt>
      <trkpt lat="40.39938" lon="-8.21687">
        <ele>147.391</ele>
        <time>2020-09-27T16:44:45Z</time>
      </trkpt>
      <trkpt lat="40.39932" lon="-8.21746">
        <ele>145.013</ele>
        <time>2020-09-27T16:44:47Z</time>
      </trkpt>
      <trkpt lat="40.39933" lon="-8.21804">
        <ele>142.971</ele>
        <time>2020-09-27T16:44:49Z</time>
      </trkpt>
      <trkpt lat="40.39942" lon="-8.21862">
        <ele>140.973</ele>
        <time>2020-09-27T16:44:51Z</time>
      </trkpt>
      <trkpt lat="40.3995" lon="-8.2189">
        <ele>139.451</ele>
        <time>2020-09-27T16:44:52Z</time>
      </trkpt>
      <trkpt lat="40.39971" lon="-8.21943">
        <ele>138.221</ele>
        <time>2020-09-27T16:44:54Z</time>
      </trkpt>
      <trkpt lat="40.39998" lon="-8.21989">
        <ele>137.421</ele>
        <time>2020-09-27T16:44:56Z</time>
      </trkpt>
      <trkpt lat="40.40023" lon="-8.2203">
        <ele>136.729</ele>
        <time>2020-09-27T16:44:58Z</time>
      </trkpt>
      <trkpt lat="40.40047" lon="-8.22073">
        <ele>136.061</ele>
        <time>2020-09-27T16:45:00Z</time>
      </trkpt>
      <trkpt lat="40.40058" lon="-8.22095">
        <ele>135.521</ele>
        <time>2020-09-27T16:45:01Z</time>
      </trkpt>
      <trkpt lat="40.4008" lon="-8.22135">
        <ele>135.013</ele>
        <time>2020-09-27T16:45:03Z</time>
      </trkpt>
      <trkpt lat="40.401" lon="-8.2217">
        <ele>134.808</ele>
        <time>2020-09-27T16:45:05Z</time>
      </trkpt>
      <trkpt lat="40.40109" lon="-8.22187">
        <ele>134.691</ele>
        <time>2020-09-27T16:45:06Z</time>
      </trkpt>
      <trkpt lat="40.40126" lon="-8.22217">
        <ele>134.623</ele>
        <time>2020-09-27T16:45:08Z</time>
      </trkpt>
      <trkpt lat="40.40135" lon="-8.22232">
        <ele>134.641</ele>
        <time>2020-09-27T16:45:09Z</time>
      </trkpt>
      <trkpt lat="40.4015" lon="-8.22258">
        <ele>134.543</ele>
        <time>2020-09-27T16:45:11Z</time>
      </trkpt>
      <trkpt lat="40.40163" lon="-8.22283">
        <ele>134.371</ele>
        <time>2020-09-27T16:45:13Z</time>
      </trkpt>
      <trkpt lat="40.4017" lon="-8.22295">
        <ele>134.231</ele>
        <time>2020-09-27T16:45:14Z</time>
      </trkpt>
      <trkpt lat="40.40177" lon="-8.22307">
        <ele>134.221</ele>
        <time>2020-09-27T16:45:15Z</time>
      </trkpt>
      <trkpt lat="40.40184" lon="-8.2232">
        <ele>134.289</ele>
        <time>2020-09-27T16:45:16Z</time>
      </trkpt>
      <trkpt lat="40.40191" lon="-8.22333">
        <ele>134.278</ele>
        <time>2020-09-27T16:45:17Z</time>
      </trkpt>
      <trkpt lat="40.40198" lon="-8.22347">
        <ele>134.233</ele>
        <time>2020-09-27T16:45:18Z</time>
      </trkpt>
      <trkpt lat="40.40214" lon="-8.22374">
        <ele>134.126</ele>
        <time>2020-09-27T16:45:20Z</time>
      </trkpt>
      <trkpt lat="40.40223" lon="-8.22384">
        <ele>134.108</ele>
        <time>2020-09-27T16:45:21Z</time>
      </trkpt>
      <trkpt lat="40.40233" lon="-8.22393">
        <ele>134.372</ele>
        <time>2020-09-27T16:45:22Z</time>
      </trkpt>
      <trkpt lat="40.40243" lon="-8.22399">
        <ele>134.514</ele>
        <time>2020-09-27T16:45:23Z</time>
      </trkpt>
      <trkpt lat="40.40256" lon="-8.22417">
        <ele>134.882</ele>
        <time>2020-09-27T16:45:25Z</time>
      </trkpt>
      <trkpt lat="40.40262" lon="-8.22449">
        <ele>135.494</ele>
        <time>2020-09-27T16:45:27Z</time>
      </trkpt>
      <trkpt lat="40.40269" lon="-8.22468">
        <ele>136.082</ele>
        <time>2020-09-27T16:45:28Z</time>
      </trkpt>
      <trkpt lat="40.40279" lon="-8.22487">
        <ele>136.782</ele>
        <time>2020-09-27T16:45:29Z</time>
      </trkpt>
      <trkpt lat="40.40301" lon="-8.22523">
        <ele>137.612</ele>
        <time>2020-09-27T16:45:31Z</time>
      </trkpt>
      <trkpt lat="40.40311" lon="-8.22543">
        <ele>138.43</ele>
        <time>2020-09-27T16:45:32Z</time>
      </trkpt>
      <trkpt lat="40.40336" lon="-8.22585">
        <ele>139.678</ele>
        <time>2020-09-27T16:45:34Z</time>
      </trkpt>
      <trkpt lat="40.40349" lon="-8.2261">
        <ele>140.733</ele>
        <time>2020-09-27T16:45:35Z</time>
      </trkpt>
      <trkpt lat="40.40363" lon="-8.22636">
        <ele>141.826</ele>
        <time>2020-09-27T16:45:36Z</time>
      </trkpt>
      <trkpt lat="40.40389" lon="-8.22691">
        <ele>143.308</ele>
        <time>2020-09-27T16:45:38Z</time>
      </trkpt>
      <trkpt lat="40.404" lon="-8.22721">
        <ele>144.412</ele>
        <time>2020-09-27T16:45:39Z</time>
      </trkpt>
      <trkpt lat="40.4041" lon="-8.22752">
        <ele>145.524</ele>
        <time>2020-09-27T16:45:40Z</time>
      </trkpt>
      <trkpt lat="40.40426" lon="-8.22815">
        <ele>146.792</ele>
        <time>2020-09-27T16:45:42Z</time>
      </trkpt>
      <trkpt lat="40.40431" lon="-8.22849">
        <ele>147.594</ele>
        <time>2020-09-27T16:45:43Z</time>
      </trkpt>
      <trkpt lat="40.40435" lon="-8.22916">
        <ele>148.172</ele>
        <time>2020-09-27T16:45:45Z</time>
      </trkpt>
      <trkpt lat="40.40433" lon="-8.2298">
        <ele>148.582</ele>
        <time>2020-09-27T16:45:47Z</time>
      </trkpt>
      <trkpt lat="40.40425" lon="-8.23038">
        <ele>148.542</ele>
        <time>2020-09-27T16:45:49Z</time>
      </trkpt>
      <trkpt lat="40.4042" lon="-8.23065">
        <ele>148.59</ele>
        <time>2020-09-27T16:45:50Z</time>
      </trkpt>
      <trkpt lat="40.40407" lon="-8.23117">
        <ele>148.638</ele>
        <time>2020-09-27T16:45:52Z</time>
      </trkpt>
      <trkpt lat="40.40399" lon="-8.23141">
        <ele>148.57</ele>
        <time>2020-09-27T16:45:53Z</time>
      </trkpt>
      <trkpt lat="40.40379" lon="-8.23185">
        <ele>148.117</ele>
        <time>2020-09-27T16:45:55Z</time>
      </trkpt>
      <trkpt lat="40.40368" lon="-8.23208">
        <ele>147.708</ele>
        <time>2020-09-27T16:45:56Z</time>
      </trkpt>
      <trkpt lat="40.40345" lon="-8.23255">
        <ele>147.258</ele>
        <time>2020-09-27T16:45:58Z</time>
      </trkpt>
      <trkpt lat="40.40323" lon="-8.23303">
        <ele>146.57</ele>
        <time>2020-09-27T16:46:00Z</time>
      </trkpt>
      <trkpt lat="40.40312" lon="-8.23327">
        <ele>145.958</ele>
        <time>2020-09-27T16:46:01Z</time>
      </trkpt>
      <trkpt lat="40.4029" lon="-8.23376">
        <ele>145.35</ele>
        <time>2020-09-27T16:46:03Z</time>
      </trkpt>
      <trkpt lat="40.40279" lon="-8.234">
        <ele>144.828</ele>
        <time>2020-09-27T16:46:04Z</time>
      </trkpt>
      <trkpt lat="40.40258" lon="-8.23445">
        <ele>144.428</ele>
        <time>2020-09-27T16:46:06Z</time>
      </trkpt>
      <trkpt lat="40.40248" lon="-8.23466">
        <ele>144.148</ele>
        <time>2020-09-27T16:46:07Z</time>
      </trkpt>
      <trkpt lat="40.40238" lon="-8.23486">
        <ele>143.826</ele>
        <time>2020-09-27T16:46:08Z</time>
      </trkpt>
      <trkpt lat="40.40221" lon="-8.23525">
        <ele>146.582</ele>
        <time>2020-09-27T16:46:10Z</time>
      </trkpt>
      <trkpt lat="40.40212" lon="-8.23544">
        <ele>147.143</ele>
        <time>2020-09-27T16:46:11Z</time>
      </trkpt>
      <trkpt lat="40.40194" lon="-8.23585">
        <ele>146.417</ele>
        <time>2020-09-27T16:46:13Z</time>
      </trkpt>
      <trkpt lat="40.40185" lon="-8.23606">
        <ele>145.508</ele>
        <time>2020-09-27T16:46:14Z</time>
      </trkpt>
      <trkpt lat="40.40175" lon="-8.23628">
        <ele>144.723</ele>
        <time>2020-09-27T16:46:15Z</time>
      </trkpt>
      <trkpt lat="40.40155" lon="-8.23668">
        <ele>143.875</ele>
        <time>2020-09-27T16:46:17Z</time>
      </trkpt>
      <trkpt lat="40.4014" lon="-8.23703">
        <ele>143.123</ele>
        <time>2020-09-27T16:46:19Z</time>
      </trkpt>
      <trkpt lat="40.40133" lon="-8.23736">
        <ele>142.415</ele>
        <time>2020-09-27T16:46:21Z</time>
      </trkpt>
      <trkpt lat="40.40135" lon="-8.23752">
        <ele>141.993</ele>
        <time>2020-09-27T16:46:22Z</time>
      </trkpt>
      <trkpt lat="40.4015" lon="-8.23776">
        <ele>141.623</ele>
        <time>2020-09-27T16:46:24Z</time>
      </trkpt>
      <trkpt lat="40.40161" lon="-8.23781">
        <ele>141.543</ele>
        <time>2020-09-27T16:46:25Z</time>
      </trkpt>
      <trkpt lat="40.40172" lon="-8.23781">
        <ele>141.271</ele>
        <time>2020-09-27T16:46:26Z</time>
      </trkpt>
      <trkpt lat="40.40191" lon="-8.23784">
        <ele>140.765</ele>
        <time>2020-09-27T16:46:28Z</time>
      </trkpt>
      <trkpt lat="40.40196" lon="-8.23793">
        <ele>140.468</ele>
        <time>2020-09-27T16:46:29Z</time>
      </trkpt>
      <trkpt lat="40.40195" lon="-8.2382">
        <ele>140.314</ele>
        <time>2020-09-27T16:46:31Z</time>
      </trkpt>
      <trkpt lat="40.40193" lon="-8.23838">
        <ele>139.908</ele>
        <time>2020-09-27T16:46:32Z</time>
      </trkpt>
      <trkpt lat="40.40201" lon="-8.23882">
        <ele>138.931</ele>
        <time>2020-09-27T16:46:34Z</time>
      </trkpt>
      <trkpt lat="40.40207" lon="-8.23908">
        <ele>138.143</ele>
        <time>2020-09-27T16:46:35Z</time>
      </trkpt>
      <trkpt lat="40.40217" lon="-8.23973">
        <ele>137.091</ele>
        <time>2020-09-27T16:46:37Z</time>
      </trkpt>
      <trkpt lat="40.40221" lon="-8.24009">
        <ele>136.053</ele>
        <time>2020-09-27T16:46:38Z</time>
      </trkpt>
      <trkpt lat="40.40223" lon="-8.24086">
        <ele>134.961</ele>
        <time>2020-09-27T16:46:40Z</time>
      </trkpt>
      <trkpt lat="40.40224" lon="-8.24123">
        <ele>133.931</ele>
        <time>2020-09-27T16:46:41Z</time>
      </trkpt>
      <trkpt lat="40.40226" lon="-8.24157">
        <ele>132.911</ele>
        <time>2020-09-27T16:46:42Z</time>
      </trkpt>
      <trkpt lat="40.40231" lon="-8.24219">
        <ele>131.859</ele>
        <time>2020-09-27T16:46:44Z</time>
      </trkpt>
      <trkpt lat="40.40247" lon="-8.24277">
        <ele>130.978</ele>
        <time>2020-09-27T16:46:46Z</time>
      </trkpt>
      <trkpt lat="40.4026" lon="-8.24304">
        <ele>130.333</ele>
        <time>2020-09-27T16:46:47Z</time>
      </trkpt>
      <trkpt lat="40.40276" lon="-8.24329">
        <ele>130.126</ele>
        <time>2020-09-27T16:46:48Z</time>
      </trkpt>
      <trkpt lat="40.40317" lon="-8.24371">
        <ele>130.208</ele>
        <time>2020-09-27T16:46:50Z</time>
      </trkpt>
      <trkpt lat="40.40341" lon="-8.24386">
        <ele>130.332</ele>
        <time>2020-09-27T16:46:51Z</time>
      </trkpt>
      <trkpt lat="40.40393" lon="-8.24414">
        <ele>130.364</ele>
        <time>2020-09-27T16:46:53Z</time>
      </trkpt>
      <trkpt lat="40.4042" lon="-8.2443">
        <ele>130.322</ele>
        <time>2020-09-27T16:46:54Z</time>
      </trkpt>
      <trkpt lat="40.40446" lon="-8.24446">
        <ele>130.344</ele>
        <time>2020-09-27T16:46:55Z</time>
      </trkpt>
      <trkpt lat="40.40492" lon="-8.24484">
        <ele>130.572</ele>
        <time>2020-09-27T16:46:57Z</time>
      </trkpt>
      <trkpt lat="40.4051" lon="-8.24509">
        <ele>130.792</ele>
        <time>2020-09-27T16:46:58Z</time>
      </trkpt>
      <trkpt lat="40.40526" lon="-8.24538">
        <ele>130.942</ele>
        <time>2020-09-27T16:46:59Z</time>
      </trkpt>
      <trkpt lat="40.4054" lon="-8.2457">
        <ele>131.06</ele>
        <time>2020-09-27T16:47:00Z</time>
      </trkpt>
      <trkpt lat="40.40566" lon="-8.24631">
        <ele>131.334</ele>
        <time>2020-09-27T16:47:02Z</time>
      </trkpt>
      <trkpt lat="40.4058" lon="-8.24657">
        <ele>131.855</ele>
        <time>2020-09-27T16:47:03Z</time>
      </trkpt>
      <trkpt lat="40.40598" lon="-8.24679">
        <ele>132.21</ele>
        <time>2020-09-27T16:47:04Z</time>
      </trkpt>
      <trkpt lat="40.4064" lon="-8.24713">
        <ele>132.808</ele>
        <time>2020-09-27T16:47:06Z</time>
      </trkpt>
      <trkpt lat="40.4066" lon="-8.24724">
        <ele>133.238</ele>
        <time>2020-09-27T16:47:07Z</time>
      </trkpt>
      <trkpt lat="40.40679" lon="-8.24732">
        <ele>133.53</ele>
        <time>2020-09-27T16:47:08Z</time>
      </trkpt>
      <trkpt lat="40.40712" lon="-8.24748">
        <ele>134.518</ele>
        <time>2020-09-27T16:47:10Z</time>
      </trkpt>
      <trkpt lat="40.40727" lon="-8.24756">
        <ele>135.49</ele>
        <time>2020-09-27T16:47:11Z</time>
      </trkpt>
      <trkpt lat="40.40741" lon="-8.24764">
        <ele>136.048</ele>
        <time>2020-09-27T16:47:12Z</time>
      </trkpt>
      <trkpt lat="40.40765" lon="-8.24783">
        <ele>136.638</ele>
        <time>2020-09-27T16:47:14Z</time>
      </trkpt>
      <trkpt lat="40.40777" lon="-8.24797">
        <ele>137.298</ele>
        <time>2020-09-27T16:47:15Z</time>
      </trkpt>
      <trkpt lat="40.40792" lon="-8.24812">
        <ele>137.876</ele>
        <time>2020-09-27T16:47:16Z</time>
      </trkpt>
      <trkpt lat="40.40808" lon="-8.24829">
        <ele>138.496</ele>
        <time>2020-09-27T16:47:17Z</time>
      </trkpt>
      <trkpt lat="40.40838" lon="-8.24873">
        <ele>139.331</ele>
        <time>2020-09-27T16:47:19Z</time>
      </trkpt>
      <trkpt lat="40.40853" lon="-8.24898">
        <ele>139.924</ele>
        <time>2020-09-27T16:47:20Z</time>
      </trkpt>
      <trkpt lat="40.40884" lon="-8.24948">
        <ele>140.208</ele>
        <time>2020-09-27T16:47:22Z</time>
      </trkpt>
      <trkpt lat="40.409" lon="-8.24975">
        <ele>140.624</ele>
        <time>2020-09-27T16:47:23Z</time>
      </trkpt>
      <trkpt lat="40.40933" lon="-8.25028">
        <ele>141.096</ele>
        <time>2020-09-27T16:47:25Z</time>
      </trkpt>
      <trkpt lat="40.4095" lon="-8.25055">
        <ele>141.324</ele>
        <time>2020-09-27T16:47:26Z</time>
      </trkpt>
      <trkpt lat="40.40985" lon="-8.25108">
        <ele>141.996</ele>
        <time>2020-09-27T16:47:28Z</time>
      </trkpt>
      <trkpt lat="40.41026" lon="-8.25151">
        <ele>142.794</ele>
        <time>2020-09-27T16:47:30Z</time>
      </trkpt>
      <trkpt lat="40.41064" lon="-8.25183">
        <ele>143.174</ele>
        <time>2020-09-27T16:47:32Z</time>
      </trkpt>
      <trkpt lat="40.4108" lon="-8.25195">
        <ele>143.124</ele>
        <time>2020-09-27T16:47:33Z</time>
      </trkpt>
      <trkpt lat="40.41092" lon="-8.25206">
        <ele>143.152</ele>
        <time>2020-09-27T16:47:34Z</time>
      </trkpt>
      <trkpt lat="40.41104" lon="-8.25216">
        <ele>143.258</ele>
        <time>2020-09-27T16:47:35Z</time>
      </trkpt>
      <trkpt lat="40.41125" lon="-8.25235">
        <ele>143.352</ele>
        <time>2020-09-27T16:47:37Z</time>
      </trkpt>
      <trkpt lat="40.41135" lon="-8.25244">
        <ele>143.317</ele>
        <time>2020-09-27T16:47:38Z</time>
      </trkpt>
      <trkpt lat="40.41153" lon="-8.2526">
        <ele>143.408</ele>
        <time>2020-09-27T16:47:40Z</time>
      </trkpt>
      <trkpt lat="40.41172" lon="-8.25276">
        <ele>143.48</ele>
        <time>2020-09-27T16:47:42Z</time>
      </trkpt>
      <trkpt lat="40.41191" lon="-8.25292">
        <ele>143.692</ele>
        <time>2020-09-27T16:47:44Z</time>
      </trkpt>
      <trkpt lat="40.412" lon="-8.253">
        <ele>143.93</ele>
        <time>2020-09-27T16:47:45Z</time>
      </trkpt>
      <trkpt lat="40.4121" lon="-8.25308">
        <ele>144.492</ele>
        <time>2020-09-27T16:47:46Z</time>
      </trkpt>
      <trkpt lat="40.41219" lon="-8.25316">
        <ele>144.97</ele>
        <time>2020-09-27T16:47:47Z</time>
      </trkpt>
      <trkpt lat="40.41228" lon="-8.25325">
        <ele>145.21</ele>
        <time>2020-09-27T16:47:48Z</time>
      </trkpt>
      <trkpt lat="40.41247" lon="-8.25342">
        <ele>145.75</ele>
        <time>2020-09-27T16:47:50Z</time>
      </trkpt>
      <trkpt lat="40.41257" lon="-8.25351">
        <ele>146.238</ele>
        <time>2020-09-27T16:47:51Z</time>
      </trkpt>
      <trkpt lat="40.41275" lon="-8.25369">
        <ele>146.732</ele>
        <time>2020-09-27T16:47:53Z</time>
      </trkpt>
      <trkpt lat="40.41296" lon="-8.25386">
        <ele>147.292</ele>
        <time>2020-09-27T16:47:55Z</time>
      </trkpt>
      <trkpt lat="40.4132" lon="-8.25407">
        <ele>147.711</ele>
        <time>2020-09-27T16:47:57Z</time>
      </trkpt>
      <trkpt lat="40.41335" lon="-8.2542">
        <ele>148.208</ele>
        <time>2020-09-27T16:47:58Z</time>
      </trkpt>
      <trkpt lat="40.41367" lon="-8.25448">
        <ele>149.018</ele>
        <time>2020-09-27T16:48:00Z</time>
      </trkpt>
      <trkpt lat="40.41382" lon="-8.25463">
        <ele>149.58</ele>
        <time>2020-09-27T16:48:01Z</time>
      </trkpt>
      <trkpt lat="40.41411" lon="-8.25498">
        <ele>150.198</ele>
        <time>2020-09-27T16:48:03Z</time>
      </trkpt>
      <trkpt lat="40.41437" lon="-8.25544">
        <ele>150.63</ele>
        <time>2020-09-27T16:48:05Z</time>
      </trkpt>
      <trkpt lat="40.41458" lon="-8.25593">
        <ele>150.488</ele>
        <time>2020-09-27T16:48:07Z</time>
      </trkpt>
      <trkpt lat="40.4148" lon="-8.2564">
        <ele>149.988</ele>
        <time>2020-09-27T16:48:09Z</time>
      </trkpt>
      <trkpt lat="40.41494" lon="-8.2566">
        <ele>149.298</ele>
        <time>2020-09-27T16:48:10Z</time>
      </trkpt>
      <trkpt lat="40.41528" lon="-8.25698">
        <ele>147.986</ele>
        <time>2020-09-27T16:48:12Z</time>
      </trkpt>
      <trkpt lat="40.41559" lon="-8.25738">
        <ele>146.285</ele>
        <time>2020-09-27T16:48:14Z</time>
      </trkpt>
      <trkpt lat="40.41578" lon="-8.25791">
        <ele>143.989</ele>
        <time>2020-09-27T16:48:16Z</time>
      </trkpt>
      <trkpt lat="40.41589" lon="-8.25851">
        <ele>141.717</ele>
        <time>2020-09-27T16:48:18Z</time>
      </trkpt>
      <trkpt lat="40.41599" lon="-8.25913">
        <ele>140.408</ele>
        <time>2020-09-27T16:48:20Z</time>
      </trkpt>
      <trkpt lat="40.41607" lon="-8.25968">
        <ele>139.843</ele>
        <time>2020-09-27T16:48:22Z</time>
      </trkpt>
      <trkpt lat="40.41613" lon="-8.25995">
        <ele>139.595</ele>
        <time>2020-09-27T16:48:23Z</time>
      </trkpt>
      <trkpt lat="40.41634" lon="-8.26044">
        <ele>139.313</ele>
        <time>2020-09-27T16:48:25Z</time>
      </trkpt>
      <trkpt lat="40.41648" lon="-8.26065">
        <ele>139.265</ele>
        <time>2020-09-27T16:48:26Z</time>
      </trkpt>
      <trkpt lat="40.41682" lon="-8.26101">
        <ele>139.473</ele>
        <time>2020-09-27T16:48:28Z</time>
      </trkpt>
      <trkpt lat="40.41702" lon="-8.26115">
        <ele>139.873</ele>
        <time>2020-09-27T16:48:29Z</time>
      </trkpt>
      <trkpt lat="40.41743" lon="-8.26142">
        <ele>140.473</ele>
        <time>2020-09-27T16:48:31Z</time>
      </trkpt>
      <trkpt lat="40.41788" lon="-8.26169">
        <ele>141.141</ele>
        <time>2020-09-27T16:48:33Z</time>
      </trkpt>
      <trkpt lat="40.4181" lon="-8.26185">
        <ele>141.798</ele>
        <time>2020-09-27T16:48:34Z</time>
      </trkpt>
      <trkpt lat="40.41857" lon="-8.26215">
        <ele>141.915</ele>
        <time>2020-09-27T16:48:36Z</time>
      </trkpt>
      <trkpt lat="40.41882" lon="-8.26231">
        <ele>142.026</ele>
        <time>2020-09-27T16:48:37Z</time>
      </trkpt>
      <trkpt lat="40.41907" lon="-8.26248">
        <ele>142.108</ele>
        <time>2020-09-27T16:48:38Z</time>
      </trkpt>
      <trkpt lat="40.41958" lon="-8.26281">
        <ele>141.964</ele>
        <time>2020-09-27T16:48:40Z</time>
      </trkpt>
      <trkpt lat="40.42008" lon="-8.26321">
        <ele>141.676</ele>
        <time>2020-09-27T16:48:42Z</time>
      </trkpt>
      <trkpt lat="40.42056" lon="-8.26367">
        <ele>141.454</ele>
        <time>2020-09-27T16:48:44Z</time>
      </trkpt>
      <trkpt lat="40.42106" lon="-8.26409">
        <ele>141.126</ele>
        <time>2020-09-27T16:48:46Z</time>
      </trkpt>
      <trkpt lat="40.42132" lon="-8.2643">
        <ele>141.154</ele>
        <time>2020-09-27T16:48:47Z</time>
      </trkpt>
      <trkpt lat="40.42182" lon="-8.26476">
        <ele>142.034</ele>
        <time>2020-09-27T16:48:49Z</time>
      </trkpt>
      <trkpt lat="40.42205" lon="-8.26501">
        <ele>142.914</ele>
        <time>2020-09-27T16:48:50Z</time>
      </trkpt>
      <trkpt lat="40.4225" lon="-8.26548">
        <ele>144.472</ele>
        <time>2020-09-27T16:48:52Z</time>
      </trkpt>
      <trkpt lat="40.42298" lon="-8.26582">
        <ele>145.854</ele>
        <time>2020-09-27T16:48:54Z</time>
      </trkpt>
      <trkpt lat="40.42324" lon="-8.26598">
        <ele>147.156</ele>
        <time>2020-09-27T16:48:55Z</time>
      </trkpt>
      <trkpt lat="40.4237" lon="-8.26636">
        <ele>148.211</ele>
        <time>2020-09-27T16:48:57Z</time>
      </trkpt>
      <trkpt lat="40.42392" lon="-8.26652">
        <ele>148.908</ele>
        <time>2020-09-27T16:48:58Z</time>
      </trkpt>
      <trkpt lat="40.42415" lon="-8.26663">
        <ele>149.56</ele>
        <time>2020-09-27T16:48:59Z</time>
      </trkpt>
      <trkpt lat="40.4244" lon="-8.2667">
        <ele>149.992</ele>
        <time>2020-09-27T16:49:00Z</time>
      </trkpt>
      <trkpt lat="40.42466" lon="-8.26674">
        <ele>150.31</ele>
        <time>2020-09-27T16:49:01Z</time>
      </trkpt>
      <trkpt lat="40.42493" lon="-8.26678">
        <ele>150.572</ele>
        <time>2020-09-27T16:49:02Z</time>
      </trkpt>
      <trkpt lat="40.42544" lon="-8.26686">
        <ele>151.33</ele>
        <time>2020-09-27T16:49:04Z</time>
      </trkpt>
      <trkpt lat="40.42567" lon="-8.2669">
        <ele>151.72</ele>
        <time>2020-09-27T16:49:05Z</time>
      </trkpt>
      <trkpt lat="40.42611" lon="-8.26692">
        <ele>151.94</ele>
        <time>2020-09-27T16:49:07Z</time>
      </trkpt>
      <trkpt lat="40.42632" lon="-8.26685">
        <ele>152.218</ele>
        <time>2020-09-27T16:49:08Z</time>
      </trkpt>
      <trkpt lat="40.42674" lon="-8.26657">
        <ele>153.378</ele>
        <time>2020-09-27T16:49:10Z</time>
      </trkpt>
      <trkpt lat="40.42695" lon="-8.2664">
        <ele>154.233</ele>
        <time>2020-09-27T16:49:11Z</time>
      </trkpt>
      <trkpt lat="40.42716" lon="-8.26623">
        <ele>155.126</ele>
        <time>2020-09-27T16:49:12Z</time>
      </trkpt>
      <trkpt lat="40.42738" lon="-8.26611">
        <ele>155.608</ele>
        <time>2020-09-27T16:49:13Z</time>
      </trkpt>
      <trkpt lat="40.42775" lon="-8.26598">
        <ele>156.632</ele>
        <time>2020-09-27T16:49:15Z</time>
      </trkpt>
      <trkpt lat="40.428" lon="-8.26595">
        <ele>158.034</ele>
        <time>2020-09-27T16:49:17Z</time>
      </trkpt>
      <trkpt lat="40.42822" lon="-8.26594">
        <ele>159.452</ele>
        <time>2020-09-27T16:49:19Z</time>
      </trkpt>
      <trkpt lat="40.42833" lon="-8.26595">
        <ele>160.644</ele>
        <time>2020-09-27T16:49:20Z</time>
      </trkpt>
      <trkpt lat="40.42858" lon="-8.26599">
        <ele>162.572</ele>
        <time>2020-09-27T16:49:22Z</time>
      </trkpt>
      <trkpt lat="40.42873" lon="-8.26604">
        <ele>164.112</ele>
        <time>2020-09-27T16:49:23Z</time>
      </trkpt>
      <trkpt lat="40.42907" lon="-8.26615">
        <ele>166.062</ele>
        <time>2020-09-27T16:49:25Z</time>
      </trkpt>
      <trkpt lat="40.42926" lon="-8.26618">
        <ele>167.64</ele>
        <time>2020-09-27T16:49:26Z</time>
      </trkpt>
      <trkpt lat="40.42962" lon="-8.26629">
        <ele>169.678</ele>
        <time>2020-09-27T16:49:28Z</time>
      </trkpt>
      <trkpt lat="40.42994" lon="-8.26653">
        <ele>172.033</ele>
        <time>2020-09-27T16:49:30Z</time>
      </trkpt>
      <trkpt lat="40.43024" lon="-8.26684">
        <ele>173.626</ele>
        <time>2020-09-27T16:49:32Z</time>
      </trkpt>
      <trkpt lat="40.4304" lon="-8.267">
        <ele>174.608</ele>
        <time>2020-09-27T16:49:33Z</time>
      </trkpt>
      <trkpt lat="40.43076" lon="-8.26727">
        <ele>175.382</ele>
        <time>2020-09-27T16:49:35Z</time>
      </trkpt>
      <trkpt lat="40.43116" lon="-8.2674">
        <ele>176.494</ele>
        <time>2020-09-27T16:49:37Z</time>
      </trkpt>
      <trkpt lat="40.43147" lon="-8.26748">
        <ele>177.662</ele>
        <time>2020-09-27T16:49:39Z</time>
      </trkpt>
      <trkpt lat="40.43172" lon="-8.26759">
        <ele>178.754</ele>
        <time>2020-09-27T16:49:41Z</time>
      </trkpt>
      <trkpt lat="40.43198" lon="-8.2678">
        <ele>179.752</ele>
        <time>2020-09-27T16:49:43Z</time>
      </trkpt>
      <trkpt lat="40.43224" lon="-8.26816">
        <ele>180.642</ele>
        <time>2020-09-27T16:49:45Z</time>
      </trkpt>
      <trkpt lat="40.4325" lon="-8.2686">
        <ele>181.722</ele>
        <time>2020-09-27T16:49:47Z</time>
      </trkpt>
      <trkpt lat="40.43276" lon="-8.26909">
        <ele>182.41</ele>
        <time>2020-09-27T16:49:49Z</time>
      </trkpt>
      <trkpt lat="40.4329" lon="-8.26932">
        <ele>183.086</ele>
        <time>2020-09-27T16:49:50Z</time>
      </trkpt>
      <trkpt lat="40.43304" lon="-8.26955">
        <ele>183.46</ele>
        <time>2020-09-27T16:49:51Z</time>
      </trkpt>
      <trkpt lat="40.43324" lon="-8.26998">
        <ele>183.426</ele>
        <time>2020-09-27T16:49:53Z</time>
      </trkpt>
      <trkpt lat="40.4333" lon="-8.27044">
        <ele>182.808</ele>
        <time>2020-09-27T16:49:55Z</time>
      </trkpt>
      <trkpt lat="40.43323" lon="-8.27091">
        <ele>182.123</ele>
        <time>2020-09-27T16:49:57Z</time>
      </trkpt>
      <trkpt lat="40.43314" lon="-8.27113">
        <ele>181.245</ele>
        <time>2020-09-27T16:49:58Z</time>
      </trkpt>
      <trkpt lat="40.43277" lon="-8.27157">
        <ele>181.653</ele>
        <time>2020-09-27T16:50:00Z</time>
      </trkpt>
      <trkpt lat="40.43261" lon="-8.27179">
        <ele>182.575</ele>
        <time>2020-09-27T16:50:01Z</time>
      </trkpt>
      <trkpt lat="40.4324" lon="-8.27224">
        <ele>183.943</ele>
        <time>2020-09-27T16:50:03Z</time>
      </trkpt>
      <trkpt lat="40.43235" lon="-8.27277">
        <ele>185.693</ele>
        <time>2020-09-27T16:50:05Z</time>
      </trkpt>
      <trkpt lat="40.43247" lon="-8.2733">
        <ele>187.883</ele>
        <time>2020-09-27T16:50:07Z</time>
      </trkpt>
      <trkpt lat="40.43259" lon="-8.27354">
        <ele>189.471</ele>
        <time>2020-09-27T16:50:08Z</time>
      </trkpt>
      <trkpt lat="40.43292" lon="-8.27393">
        <ele>187.656</ele>
        <time>2020-09-27T16:50:10Z</time>
      </trkpt>
      <trkpt lat="40.43327" lon="-8.27429">
        <ele>189.459</ele>
        <time>2020-09-27T16:50:12Z</time>
      </trkpt>
      <trkpt lat="40.43343" lon="-8.2745">
        <ele>191.114</ele>
        <time>2020-09-27T16:50:13Z</time>
      </trkpt>
      <trkpt lat="40.43365" lon="-8.27507">
        <ele>194.008</ele>
        <time>2020-09-27T16:50:15Z</time>
      </trkpt>
      <trkpt lat="40.43374" lon="-8.27539">
        <ele>195.77</ele>
        <time>2020-09-27T16:50:16Z</time>
      </trkpt>
      <trkpt lat="40.43398" lon="-8.27605">
        <ele>199.142</ele>
        <time>2020-09-27T16:50:18Z</time>
      </trkpt>
      <trkpt lat="40.43411" lon="-8.27636">
        <ele>202.01</ele>
        <time>2020-09-27T16:50:19Z</time>
      </trkpt>
      <trkpt lat="40.43428" lon="-8.27663">
        <ele>204.522</ele>
        <time>2020-09-27T16:50:20Z</time>
      </trkpt>
      <trkpt lat="40.43472" lon="-8.27701">
        <ele>207.21</ele>
        <time>2020-09-27T16:50:22Z</time>
      </trkpt>
      <trkpt lat="40.43498" lon="-8.27716">
        <ele>209.43</ele>
        <time>2020-09-27T16:50:23Z</time>
      </trkpt>
      <trkpt lat="40.43552" lon="-8.27749">
        <ele>212.35</ele>
        <time>2020-09-27T16:50:25Z</time>
      </trkpt>
      <trkpt lat="40.43605" lon="-8.27786">
        <ele>215.658</ele>
        <time>2020-09-27T16:50:27Z</time>
      </trkpt>
      <trkpt lat="40.4363" lon="-8.27807">
        <ele>218.386</ele>
        <time>2020-09-27T16:50:28Z</time>
      </trkpt>
      <trkpt lat="40.43678" lon="-8.27859">
        <ele>221.26</ele>
        <time>2020-09-27T16:50:30Z</time>
      </trkpt>
      <trkpt lat="40.43726" lon="-8.27918">
        <ele>224.226</ele>
        <time>2020-09-27T16:50:32Z</time>
      </trkpt>
      <trkpt lat="40.43776" lon="-8.27977">
        <ele>227.608</ele>
        <time>2020-09-27T16:50:34Z</time>
      </trkpt>
      <trkpt lat="40.43799" lon="-8.28005">
        <ele>230.633</ele>
        <time>2020-09-27T16:50:35Z</time>
      </trkpt>
      <trkpt lat="40.43821" lon="-8.28031">
        <ele>233.155</ele>
        <time>2020-09-27T16:50:36Z</time>
      </trkpt>
      <trkpt lat="40.43861" lon="-8.28081">
        <ele>235.923</ele>
        <time>2020-09-27T16:50:38Z</time>
      </trkpt>
      <trkpt lat="40.43881" lon="-8.28105">
        <ele>238.365</ele>
        <time>2020-09-27T16:50:39Z</time>
      </trkpt>
      <trkpt lat="40.43902" lon="-8.28128">
        <ele>240.333</ele>
        <time>2020-09-27T16:50:40Z</time>
      </trkpt>
      <trkpt lat="40.43949" lon="-8.28162">
        <ele>242.913</ele>
        <time>2020-09-27T16:50:42Z</time>
      </trkpt>
      <trkpt lat="40.43974" lon="-8.2817">
        <ele>245.183</ele>
        <time>2020-09-27T16:50:43Z</time>
      </trkpt>
      <trkpt lat="40.44002" lon="-8.28172">
        <ele>246.931</ele>
        <time>2020-09-27T16:50:44Z</time>
      </trkpt>
      <trkpt lat="40.4403" lon="-8.28171">
        <ele>248.554</ele>
        <time>2020-09-27T16:50:45Z</time>
      </trkpt>
      <trkpt lat="40.44058" lon="-8.28169">
        <ele>249.856</ele>
        <time>2020-09-27T16:50:46Z</time>
      </trkpt>
      <trkpt lat="40.44117" lon="-8.28167">
        <ele>251.511</ele>
        <time>2020-09-27T16:50:48Z</time>
      </trkpt>
      <trkpt lat="40.44146" lon="-8.28167">
        <ele>253.008</ele>
        <time>2020-09-27T16:50:49Z</time>
      </trkpt>
      <trkpt lat="40.44206" lon="-8.28168">
        <ele>254.58</ele>
        <time>2020-09-27T16:50:51Z</time>
      </trkpt>
      <trkpt lat="40.44235" lon="-8.28168">
        <ele>255.972</ele>
        <time>2020-09-27T16:50:52Z</time>
      </trkpt>
      <trkpt lat="40.44262" lon="-8.28168">
        <ele>257.12</ele>
        <time>2020-09-27T16:50:53Z</time>
      </trkpt>
      <trkpt lat="40.44287" lon="-8.28168">
        <ele>258.592</ele>
        <time>2020-09-27T16:50:54Z</time>
      </trkpt>
      <trkpt lat="40.44311" lon="-8.28168">
        <ele>259.66</ele>
        <time>2020-09-27T16:50:55Z</time>
      </trkpt>
      <trkpt lat="40.44359" lon="-8.28176">
        <ele>260.43</ele>
        <time>2020-09-27T16:50:57Z</time>
      </trkpt>
      <trkpt lat="40.44383" lon="-8.28186">
        <ele>261.08</ele>
        <time>2020-09-27T16:50:58Z</time>
      </trkpt>
      <trkpt lat="40.4443" lon="-8.28216">
        <ele>261.628</ele>
        <time>2020-09-27T16:51:00Z</time>
      </trkpt>
      <trkpt lat="40.44454" lon="-8.28235">
        <ele>262.013</ele>
        <time>2020-09-27T16:51:01Z</time>
      </trkpt>
      <trkpt lat="40.44502" lon="-8.28274">
        <ele>262.743</ele>
        <time>2020-09-27T16:51:03Z</time>
      </trkpt>
      <trkpt lat="40.44551" lon="-8.28311">
        <ele>263.407</ele>
        <time>2020-09-27T16:51:05Z</time>
      </trkpt>
      <trkpt lat="40.44601" lon="-8.28346">
        <ele>263.908</ele>
        <time>2020-09-27T16:51:07Z</time>
      </trkpt>
      <trkpt lat="40.44651" lon="-8.28384">
        <ele>264.996</ele>
        <time>2020-09-27T16:51:09Z</time>
      </trkpt>
      <trkpt lat="40.44677" lon="-8.28402">
        <ele>265.948</ele>
        <time>2020-09-27T16:51:10Z</time>
      </trkpt>
      <trkpt lat="40.44727" lon="-8.28441">
        <ele>266.916</ele>
        <time>2020-09-27T16:51:12Z</time>
      </trkpt>
      <trkpt lat="40.44753" lon="-8.2846">
        <ele>267.798</ele>
        <time>2020-09-27T16:51:13Z</time>
      </trkpt>
      <trkpt lat="40.44804" lon="-8.28498">
        <ele>268.736</ele>
        <time>2020-09-27T16:51:15Z</time>
      </trkpt>
      <trkpt lat="40.4483" lon="-8.28518">
        <ele>269.586</ele>
        <time>2020-09-27T16:51:16Z</time>
      </trkpt>
      <trkpt lat="40.44883" lon="-8.28555">
        <ele>270.756</ele>
        <time>2020-09-27T16:51:18Z</time>
      </trkpt>
      <trkpt lat="40.44933" lon="-8.28591">
        <ele>272.064</ele>
        <time>2020-09-27T16:51:20Z</time>
      </trkpt>
      <trkpt lat="40.44956" lon="-8.28607">
        <ele>272.951</ele>
        <time>2020-09-27T16:51:21Z</time>
      </trkpt>
      <trkpt lat="40.45006" lon="-8.2863">
        <ele>273.701</ele>
        <time>2020-09-27T16:51:23Z</time>
      </trkpt>
      <trkpt lat="40.4506" lon="-8.2864">
        <ele>274.711</ele>
        <time>2020-09-27T16:51:25Z</time>
      </trkpt>
      <trkpt lat="40.45088" lon="-8.28644">
        <ele>275.508</ele>
        <time>2020-09-27T16:51:26Z</time>
      </trkpt>
      <trkpt lat="40.45143" lon="-8.28661">
        <ele>276.48</ele>
        <time>2020-09-27T16:51:28Z</time>
      </trkpt>
      <trkpt lat="40.45191" lon="-8.28699">
        <ele>277.792</ele>
        <time>2020-09-27T16:51:30Z</time>
      </trkpt>
      <trkpt lat="40.45212" lon="-8.28727">
        <ele>278.85</ele>
        <time>2020-09-27T16:51:31Z</time>
      </trkpt>
      <trkpt lat="40.45249" lon="-8.28785">
        <ele>280.592</ele>
        <time>2020-09-27T16:51:33Z</time>
      </trkpt>
      <trkpt lat="40.45266" lon="-8.28809">
        <ele>281.96</ele>
        <time>2020-09-27T16:51:34Z</time>
      </trkpt>
      <trkpt lat="40.45301" lon="-8.28847">
        <ele>283.46</ele>
        <time>2020-09-27T16:51:36Z</time>
      </trkpt>
      <trkpt lat="40.45345" lon="-8.28869">
        <ele>285.07</ele>
        <time>2020-09-27T16:51:38Z</time>
      </trkpt>
      <trkpt lat="40.45394" lon="-8.28882">
        <ele>286.688</ele>
        <time>2020-09-27T16:51:40Z</time>
      </trkpt>
      <trkpt lat="40.45442" lon="-8.289">
        <ele>288.558</ele>
        <time>2020-09-27T16:51:42Z</time>
      </trkpt>
      <trkpt lat="40.45463" lon="-8.28912">
        <ele>290.052</ele>
        <time>2020-09-27T16:51:43Z</time>
      </trkpt>
      <trkpt lat="40.455" lon="-8.28952">
        <ele>291.817</ele>
        <time>2020-09-27T16:51:45Z</time>
      </trkpt>
      <trkpt lat="40.45516" lon="-8.28977">
        <ele>293.008</ele>
        <time>2020-09-27T16:51:46Z</time>
      </trkpt>
      <trkpt lat="40.45548" lon="-8.29012">
        <ele>293.59</ele>
        <time>2020-09-27T16:51:48Z</time>
      </trkpt>
      <trkpt lat="40.45567" lon="-8.29019">
        <ele>293.722</ele>
        <time>2020-09-27T16:51:49Z</time>
      </trkpt>
      <trkpt lat="40.45588" lon="-8.29019">
        <ele>293.71</ele>
        <time>2020-09-27T16:51:50Z</time>
      </trkpt>
      <trkpt lat="40.45631" lon="-8.28995">
        <ele>293.352</ele>
        <time>2020-09-27T16:51:52Z</time>
      </trkpt>
      <trkpt lat="40.45652" lon="-8.2898">
        <ele>292.62</ele>
        <time>2020-09-27T16:51:53Z</time>
      </trkpt>
      <trkpt lat="40.45695" lon="-8.28969">
        <ele>291.75</ele>
        <time>2020-09-27T16:51:55Z</time>
      </trkpt>
      <trkpt lat="40.45719" lon="-8.28974">
        <ele>290.91</ele>
        <time>2020-09-27T16:51:56Z</time>
      </trkpt>
      <trkpt lat="40.45742" lon="-8.28984">
        <ele>290.118</ele>
        <time>2020-09-27T16:51:57Z</time>
      </trkpt>
      <trkpt lat="40.45782" lon="-8.29016">
        <ele>288.694</ele>
        <time>2020-09-27T16:51:59Z</time>
      </trkpt>
      <trkpt lat="40.45821" lon="-8.2902">
        <ele>286.357</ele>
        <time>2020-09-27T16:52:01Z</time>
      </trkpt>
      <trkpt lat="40.45841" lon="-8.29013">
        <ele>284.422</ele>
        <time>2020-09-27T16:52:02Z</time>
      </trkpt>
      <trkpt lat="40.45881" lon="-8.28993">
        <ele>283.008</ele>
        <time>2020-09-27T16:52:04Z</time>
      </trkpt>
      <trkpt lat="40.45921" lon="-8.29001">
        <ele>280.664</ele>
        <time>2020-09-27T16:52:06Z</time>
      </trkpt>
      <trkpt lat="40.45957" lon="-8.29039">
        <ele>278.156</ele>
        <time>2020-09-27T16:52:08Z</time>
      </trkpt>
      <trkpt lat="40.45984" lon="-8.29088">
        <ele>274.414</ele>
        <time>2020-09-27T16:52:10Z</time>
      </trkpt>
      <trkpt lat="40.46004" lon="-8.29147">
        <ele>270.496</ele>
        <time>2020-09-27T16:52:12Z</time>
      </trkpt>
      <trkpt lat="40.46008" lon="-8.29188">
        <ele>267.584</ele>
        <time>2020-09-27T16:52:13Z</time>
      </trkpt>
      <trkpt lat="40.46012" lon="-8.29227">
        <ele>265.064</ele>
        <time>2020-09-27T16:52:14Z</time>
      </trkpt>
      <trkpt lat="40.46022" lon="-8.29296">
        <ele>262.374</ele>
        <time>2020-09-27T16:52:16Z</time>
      </trkpt>
      <trkpt lat="40.46028" lon="-8.29326">
        <ele>260.562</ele>
        <time>2020-09-27T16:52:17Z</time>
      </trkpt>
      <trkpt lat="40.46049" lon="-8.29375">
        <ele>259.274</ele>
        <time>2020-09-27T16:52:19Z</time>
      </trkpt>
      <trkpt lat="40.46065" lon="-8.29393">
        <ele>258.256</ele>
        <time>2020-09-27T16:52:20Z</time>
      </trkpt>
      <trkpt lat="40.46104" lon="-8.29422">
        <ele>256.521</ele>
        <time>2020-09-27T16:52:22Z</time>
      </trkpt>
      <trkpt lat="40.46126" lon="-8.29436">
        <ele>254.908</ele>
        <time>2020-09-27T16:52:23Z</time>
      </trkpt>
      <trkpt lat="40.46171" lon="-8.29467">
        <ele>253.042</ele>
        <time>2020-09-27T16:52:25Z</time>
      </trkpt>
      <trkpt lat="40.46193" lon="-8.29483">
        <ele>251.354</ele>
        <time>2020-09-27T16:52:26Z</time>
      </trkpt>
      <trkpt lat="40.46231" lon="-8.29516">
        <ele>249.832</ele>
        <time>2020-09-27T16:52:28Z</time>
      </trkpt>
      <trkpt lat="40.46245" lon="-8.29537">
        <ele>248.594</ele>
        <time>2020-09-27T16:52:29Z</time>
      </trkpt>
      <trkpt lat="40.46259" lon="-8.29583">
        <ele>247.282</ele>
        <time>2020-09-27T16:52:31Z</time>
      </trkpt>
      <trkpt lat="40.46262" lon="-8.29604">
        <ele>246.312</ele>
        <time>2020-09-27T16:52:32Z</time>
      </trkpt>
      <trkpt lat="40.46257" lon="-8.29643">
        <ele>244.372</ele>
        <time>2020-09-27T16:52:34Z</time>
      </trkpt>
      <trkpt lat="40.46245" lon="-8.29665">
        <ele>242.06</ele>
        <time>2020-09-27T16:52:35Z</time>
      </trkpt>
      <trkpt lat="40.46184" lon="-8.29695">
        <ele>240.398</ele>
        <time>2020-09-27T16:52:37Z</time>
      </trkpt>
      <trkpt lat="40.46132" lon="-8.29724">
        <ele>238.515</ele>
        <time>2020-09-27T16:52:39Z</time>
      </trkpt>
      <trkpt lat="40.46113" lon="-8.29742">
        <ele>236.826</ele>
        <time>2020-09-27T16:52:40Z</time>
      </trkpt>
      <trkpt lat="40.46099" lon="-8.29764">
        <ele>235.508</ele>
        <time>2020-09-27T16:52:41Z</time>
      </trkpt>
      <trkpt lat="40.46084" lon="-8.29815">
        <ele>234.644</ele>
        <time>2020-09-27T16:52:43Z</time>
      </trkpt>
      <trkpt lat="40.46084" lon="-8.29842">
        <ele>233.736</ele>
        <time>2020-09-27T16:52:44Z</time>
      </trkpt>
      <trkpt lat="40.46098" lon="-8.29894">
        <ele>233.544</ele>
        <time>2020-09-27T16:52:46Z</time>
      </trkpt>
      <trkpt lat="40.4613" lon="-8.29931">
        <ele>234.016</ele>
        <time>2020-09-27T16:52:48Z</time>
      </trkpt>
      <trkpt lat="40.4615" lon="-8.29942">
        <ele>234.794</ele>
        <time>2020-09-27T16:52:49Z</time>
      </trkpt>
      <trkpt lat="40.46172" lon="-8.2995">
        <ele>235.624</ele>
        <time>2020-09-27T16:52:50Z</time>
      </trkpt>
      <trkpt lat="40.4622" lon="-8.29963">
        <ele>237.414</ele>
        <time>2020-09-27T16:52:52Z</time>
      </trkpt>
      <trkpt lat="40.46244" lon="-8.29971">
        <ele>239.182</ele>
        <time>2020-09-27T16:52:53Z</time>
      </trkpt>
      <trkpt lat="40.46294" lon="-8.29988">
        <ele>241.662</ele>
        <time>2020-09-27T16:52:55Z</time>
      </trkpt>
      <trkpt lat="40.46317" lon="-8.29994">
        <ele>243.783</ele>
        <time>2020-09-27T16:52:56Z</time>
      </trkpt>
      <trkpt lat="40.46338" lon="-8.30001">
        <ele>245.611</ele>
        <time>2020-09-27T16:52:57Z</time>
      </trkpt>
      <trkpt lat="40.46356" lon="-8.30014">
        <ele>247.208</ele>
        <time>2020-09-27T16:52:58Z</time>
      </trkpt>
      <trkpt lat="40.46391" lon="-8.30048">
        <ele>248.451</ele>
        <time>2020-09-27T16:53:00Z</time>
      </trkpt>
      <trkpt lat="40.46411" lon="-8.30103">
        <ele>250.713</ele>
        <time>2020-09-27T16:53:02Z</time>
      </trkpt>
      <trkpt lat="40.46433" lon="-8.30158">
        <ele>252.971</ele>
        <time>2020-09-27T16:53:04Z</time>
      </trkpt>
      <trkpt lat="40.46445" lon="-8.30184">
        <ele>254.943</ele>
        <time>2020-09-27T16:53:05Z</time>
      </trkpt>
      <trkpt lat="40.46469" lon="-8.30225">
        <ele>257.371</ele>
        <time>2020-09-27T16:53:07Z</time>
      </trkpt>
      <trkpt lat="40.46487" lon="-8.30236">
        <ele>259.341</ele>
        <time>2020-09-27T16:53:08Z</time>
      </trkpt>
      <trkpt lat="40.46529" lon="-8.30239">
        <ele>261.661</ele>
        <time>2020-09-27T16:53:10Z</time>
      </trkpt>
      <trkpt lat="40.46575" lon="-8.30229">
        <ele>264.379</ele>
        <time>2020-09-27T16:53:12Z</time>
      </trkpt>
      <trkpt lat="40.46599" lon="-8.30232">
        <ele>266.848</ele>
        <time>2020-09-27T16:53:13Z</time>
      </trkpt>
      <trkpt lat="40.46647" lon="-8.30259">
        <ele>269.561</ele>
        <time>2020-09-27T16:53:15Z</time>
      </trkpt>
      <trkpt lat="40.46671" lon="-8.30279">
        <ele>271.817</ele>
        <time>2020-09-27T16:53:16Z</time>
      </trkpt>
      <trkpt lat="40.46719" lon="-8.30323">
        <ele>274.908</ele>
        <time>2020-09-27T16:53:18Z</time>
      </trkpt>
      <trkpt lat="40.46769" lon="-8.30368">
        <ele>278.339</ele>
        <time>2020-09-27T16:53:20Z</time>
      </trkpt>
      <trkpt lat="40.46794" lon="-8.30389">
        <ele>281.181</ele>
        <time>2020-09-27T16:53:21Z</time>
      </trkpt>
      <trkpt lat="40.46834" lon="-8.30425">
        <ele>283.939</ele>
        <time>2020-09-27T16:53:23Z</time>
      </trkpt>
      <trkpt lat="40.46862" lon="-8.30461">
        <ele>286.421</ele>
        <time>2020-09-27T16:53:25Z</time>
      </trkpt>
      <trkpt lat="40.46873" lon="-8.30486">
        <ele>288.639</ele>
        <time>2020-09-27T16:53:26Z</time>
      </trkpt>
      <trkpt lat="40.46892" lon="-8.30542">
        <ele>291.069</ele>
        <time>2020-09-27T16:53:28Z</time>
      </trkpt>
      <trkpt lat="40.46912" lon="-8.30601">
        <ele>293.799</ele>
        <time>2020-09-27T16:53:30Z</time>
      </trkpt>
      <trkpt lat="40.46923" lon="-8.30632">
        <ele>296.187</ele>
        <time>2020-09-27T16:53:31Z</time>
      </trkpt>
      <trkpt lat="40.46934" lon="-8.30662">
        <ele>298.256</ele>
        <time>2020-09-27T16:53:32Z</time>
      </trkpt>
      <trkpt lat="40.46945" lon="-8.30691">
        <ele>300.159</ele>
        <time>2020-09-27T16:53:33Z</time>
      </trkpt>
      <trkpt lat="40.46964" lon="-8.30741">
        <ele>302.414</ele>
        <time>2020-09-27T16:53:35Z</time>
      </trkpt>
      <trkpt lat="40.46976" lon="-8.30762">
        <ele>304.208</ele>
        <time>2020-09-27T16:53:36Z</time>
      </trkpt>
      <trkpt lat="40.4699" lon="-8.30779">
        <ele>305.69</ele>
        <time>2020-09-27T16:53:37Z</time>
      </trkpt>
      <trkpt lat="40.47026" lon="-8.308">
        <ele>307.182</ele>
        <time>2020-09-27T16:53:39Z</time>
      </trkpt>
      <trkpt lat="40.47046" lon="-8.30806">
        <ele>308.36</ele>
        <time>2020-09-27T16:53:40Z</time>
      </trkpt>
      <trkpt lat="40.47068" lon="-8.30804">
        <ele>309.412</ele>
        <time>2020-09-27T16:53:41Z</time>
      </trkpt>
      <trkpt lat="40.47093" lon="-8.30784">
        <ele>310.51</ele>
        <time>2020-09-27T16:53:42Z</time>
      </trkpt>
      <trkpt lat="40.47118" lon="-8.30763">
        <ele>312.14</ele>
        <time>2020-09-27T16:53:43Z</time>
      </trkpt>
      <trkpt lat="40.47142" lon="-8.30751">
        <ele>314.53</ele>
        <time>2020-09-27T16:53:44Z</time>
      </trkpt>
      <trkpt lat="40.47188" lon="-8.30754">
        <ele>317.468</ele>
        <time>2020-09-27T16:53:46Z</time>
      </trkpt>
      <trkpt lat="40.47227" lon="-8.30792">
        <ele>321.028</ele>
        <time>2020-09-27T16:53:48Z</time>
      </trkpt>
      <trkpt lat="40.47243" lon="-8.30819">
        <ele>323.889</ele>
        <time>2020-09-27T16:53:49Z</time>
      </trkpt>
      <trkpt lat="40.47277" lon="-8.30878">
        <ele>327.017</ele>
        <time>2020-09-27T16:53:51Z</time>
      </trkpt>
      <trkpt lat="40.47326" lon="-8.30922">
        <ele>330.308</ele>
        <time>2020-09-27T16:53:53Z</time>
      </trkpt>
      <trkpt lat="40.47355" lon="-8.30939">
        <ele>333.257</ele>
        <time>2020-09-27T16:53:54Z</time>
      </trkpt>
      <trkpt lat="40.47385" lon="-8.30956">
        <ele>335.629</ele>
        <time>2020-09-27T16:53:55Z</time>
      </trkpt>
      <trkpt lat="40.47416" lon="-8.30973">
        <ele>337.977</ele>
        <time>2020-09-27T16:53:56Z</time>
      </trkpt>
      <trkpt lat="40.47478" lon="-8.3101">
        <ele>341.079</ele>
        <time>2020-09-27T16:53:58Z</time>
      </trkpt>
      <trkpt lat="40.47535" lon="-8.31046">
        <ele>344.997</ele>
        <time>2020-09-27T16:54:00Z</time>
      </trkpt>
      <trkpt lat="40.47559" lon="-8.31063">
        <ele>348.267</ele>
        <time>2020-09-27T16:54:01Z</time>
      </trkpt>
      <trkpt lat="40.47582" lon="-8.31079">
        <ele>350.947</ele>
        <time>2020-09-27T16:54:02Z</time>
      </trkpt>
      <trkpt lat="40.47629" lon="-8.31105">
        <ele>353.835</ele>
        <time>2020-09-27T16:54:04Z</time>
      </trkpt>
      <trkpt lat="40.47678" lon="-8.31118">
        <ele>357.018</ele>
        <time>2020-09-27T16:54:06Z</time>
      </trkpt>
      <trkpt lat="40.4773" lon="-8.31125">
        <ele>360.198</ele>
        <time>2020-09-27T16:54:08Z</time>
      </trkpt>
      <trkpt lat="40.47757" lon="-8.31129">
        <ele>362.417</ele>
        <time>2020-09-27T16:54:09Z</time>
      </trkpt>
      <trkpt lat="40.47784" lon="-8.31133">
        <ele>364.408</ele>
        <time>2020-09-27T16:54:10Z</time>
      </trkpt>
      <trkpt lat="40.47835" lon="-8.31155">
        <ele>366.886</ele>
        <time>2020-09-27T16:54:12Z</time>
      </trkpt>
      <trkpt lat="40.47881" lon="-8.31199">
        <ele>369.378</ele>
        <time>2020-09-27T16:54:14Z</time>
      </trkpt>
      <trkpt lat="40.47928" lon="-8.3125">
        <ele>372.386</ele>
        <time>2020-09-27T16:54:16Z</time>
      </trkpt>
      <trkpt lat="40.47971" lon="-8.31293">
        <ele>375.378</ele>
        <time>2020-09-27T16:54:18Z</time>
      </trkpt>
      <trkpt lat="40.48011" lon="-8.31332">
        <ele>378.396</ele>
        <time>2020-09-27T16:54:20Z</time>
      </trkpt>
      <trkpt lat="40.48031" lon="-8.31348">
        <ele>380.666</ele>
        <time>2020-09-27T16:54:21Z</time>
      </trkpt>
      <trkpt lat="40.48053" lon="-8.31358">
        <ele>382.556</ele>
        <time>2020-09-27T16:54:22Z</time>
      </trkpt>
      <trkpt lat="40.48077" lon="-8.31361">
        <ele>384.084</ele>
        <time>2020-09-27T16:54:23Z</time>
      </trkpt>
      <trkpt lat="40.48127" lon="-8.31353">
        <ele>386.099</ele>
        <time>2020-09-27T16:54:25Z</time>
      </trkpt>
      <trkpt lat="40.48154" lon="-8.31344">
        <ele>387.607</ele>
        <time>2020-09-27T16:54:26Z</time>
      </trkpt>
      <trkpt lat="40.48181" lon="-8.31337">
        <ele>389.127</ele>
        <time>2020-09-27T16:54:27Z</time>
      </trkpt>
      <trkpt lat="40.48208" lon="-8.3133">
        <ele>390.708</ele>
        <time>2020-09-27T16:54:28Z</time>
      </trkpt>
      <trkpt lat="40.48267" lon="-8.31316">
        <ele>393.184</ele>
        <time>2020-09-27T16:54:30Z</time>
      </trkpt>
      <trkpt lat="40.48327" lon="-8.313">
        <ele>396.196</ele>
        <time>2020-09-27T16:54:32Z</time>
      </trkpt>
      <trkpt lat="40.48379" lon="-8.31288">
        <ele>399.274</ele>
        <time>2020-09-27T16:54:34Z</time>
      </trkpt>
      <trkpt lat="40.48404" lon="-8.31287">
        <ele>401.666</ele>
        <time>2020-09-27T16:54:35Z</time>
      </trkpt>
      <trkpt lat="40.48456" lon="-8.31303">
        <ele>404.554</ele>
        <time>2020-09-27T16:54:37Z</time>
      </trkpt>
      <trkpt lat="40.48509" lon="-8.31331">
        <ele>407.764</ele>
        <time>2020-09-27T16:54:39Z</time>
      </trkpt>
      <trkpt lat="40.48552" lon="-8.31364">
        <ele>410.964</ele>
        <time>2020-09-27T16:54:41Z</time>
      </trkpt>
      <trkpt lat="40.48584" lon="-8.31412">
        <ele>413.382</ele>
        <time>2020-09-27T16:54:43Z</time>
      </trkpt>
      <trkpt lat="40.48603" lon="-8.31479">
        <ele>416.494</ele>
        <time>2020-09-27T16:54:45Z</time>
      </trkpt>
      <trkpt lat="40.48628" lon="-8.31532">
        <ele>419.357</ele>
        <time>2020-09-27T16:54:47Z</time>
      </trkpt>
      <trkpt lat="40.48647" lon="-8.31549">
        <ele>421.522</ele>
        <time>2020-09-27T16:54:48Z</time>
      </trkpt>
      <trkpt lat="40.48691" lon="-8.31564">
        <ele>424.108</ele>
        <time>2020-09-27T16:54:50Z</time>
      </trkpt>
      <trkpt lat="40.48737" lon="-8.31551">
        <ele>426.814</ele>
        <time>2020-09-27T16:54:52Z</time>
      </trkpt>
      <trkpt lat="40.4876" lon="-8.31536">
        <ele>429.196</ele>
        <time>2020-09-27T16:54:53Z</time>
      </trkpt>
      <trkpt lat="40.4881" lon="-8.31509">
        <ele>431.594</ele>
        <time>2020-09-27T16:54:55Z</time>
      </trkpt>
      <trkpt lat="40.48838" lon="-8.31501">
        <ele>433.466</ele>
        <time>2020-09-27T16:54:56Z</time>
      </trkpt>
      <trkpt lat="40.48898" lon="-8.31495">
        <ele>429.484</ele>
        <time>2020-09-27T16:54:58Z</time>
      </trkpt>
      <trkpt lat="40.48929" lon="-8.31497">
        <ele>425.464</ele>
        <time>2020-09-27T16:54:59Z</time>
      </trkpt>
      <trkpt lat="40.48988" lon="-8.31501">
        <ele>426.934</ele>
        <time>2020-09-27T16:55:01Z</time>
      </trkpt>
      <trkpt lat="40.49036" lon="-8.31503">
        <ele>430.972</ele>
        <time>2020-09-27T16:55:03Z</time>
      </trkpt>
      <trkpt lat="40.49055" lon="-8.3151">
        <ele>434.921</ele>
        <time>2020-09-27T16:55:04Z</time>
      </trkpt>
      <trkpt lat="40.49088" lon="-8.31539">
        <ele>438.941</ele>
        <time>2020-09-27T16:55:06Z</time>
      </trkpt>
      <trkpt lat="40.49113" lon="-8.31576">
        <ele>442.905</ele>
        <time>2020-09-27T16:55:08Z</time>
      </trkpt>
      <trkpt lat="40.4912" lon="-8.31597">
        <ele>445.608</ele>
        <time>2020-09-27T16:55:09Z</time>
      </trkpt>
      <trkpt lat="40.49124" lon="-8.31638">
        <ele>445.957</ele>
        <time>2020-09-27T16:55:11Z</time>
      </trkpt>
      <trkpt lat="40.49127" lon="-8.31694">
        <ele>448.399</ele>
        <time>2020-09-27T16:55:13Z</time>
      </trkpt>
      <trkpt lat="40.49137" lon="-8.31719">
        <ele>450.527</ele>
        <time>2020-09-27T16:55:14Z</time>
      </trkpt>
      <trkpt lat="40.49172" lon="-8.31755">
        <ele>452.749</ele>
        <time>2020-09-27T16:55:16Z</time>
      </trkpt>
      <trkpt lat="40.49192" lon="-8.31769">
        <ele>454.467</ele>
        <time>2020-09-27T16:55:17Z</time>
      </trkpt>
      <trkpt lat="40.49238" lon="-8.318">
        <ele>456.637</ele>
        <time>2020-09-27T16:55:19Z</time>
      </trkpt>
      <trkpt lat="40.49262" lon="-8.31817">
        <ele>458.467</ele>
        <time>2020-09-27T16:55:20Z</time>
      </trkpt>
      <trkpt lat="40.49312" lon="-8.3185">
        <ele>460.735</ele>
        <time>2020-09-27T16:55:22Z</time>
      </trkpt>
      <trkpt lat="40.4935" lon="-8.31881">
        <ele>463.093</ele>
        <time>2020-09-27T16:55:24Z</time>
      </trkpt>
      <trkpt lat="40.49364" lon="-8.319">
        <ele>464.865</ele>
        <time>2020-09-27T16:55:25Z</time>
      </trkpt>
      <trkpt lat="40.49376" lon="-8.3195">
        <ele>465.821</ele>
        <time>2020-09-27T16:55:27Z</time>
      </trkpt>
      <trkpt lat="40.49368" lon="-8.32008">
        <ele>466.308</ele>
        <time>2020-09-27T16:55:29Z</time>
      </trkpt>
      <trkpt lat="40.49357" lon="-8.32039">
        <ele>466.774</ele>
        <time>2020-09-27T16:55:30Z</time>
      </trkpt>
      <trkpt lat="40.49345" lon="-8.32073">
        <ele>467.286</ele>
        <time>2020-09-27T16:55:31Z</time>
      </trkpt>
      <trkpt lat="40.4932" lon="-8.32143">
        <ele>467.534</ele>
        <time>2020-09-27T16:55:33Z</time>
      </trkpt>
      <trkpt lat="40.49295" lon="-8.32211">
        <ele>467.826</ele>
        <time>2020-09-27T16:55:35Z</time>
      </trkpt>
      <trkpt lat="40.49287" lon="-8.32246">
        <ele>468.084</ele>
        <time>2020-09-27T16:55:36Z</time>
      </trkpt>
      <trkpt lat="40.49282" lon="-8.32312">
        <ele>464.034</ele>
        <time>2020-09-27T16:55:38Z</time>
      </trkpt>
      <trkpt lat="40.49279" lon="-8.3234">
        <ele>460.214</ele>
        <time>2020-09-27T16:55:39Z</time>
      </trkpt>
      <trkpt lat="40.4926" lon="-8.32389">
        <ele>460.742</ele>
        <time>2020-09-27T16:55:41Z</time>
      </trkpt>
      <trkpt lat="40.49224" lon="-8.32434">
        <ele>461.394</ele>
        <time>2020-09-27T16:55:43Z</time>
      </trkpt>
      <trkpt lat="40.49206" lon="-8.32456">
        <ele>461.757</ele>
        <time>2020-09-27T16:55:44Z</time>
      </trkpt>
      <trkpt lat="40.4919" lon="-8.32478">
        <ele>462.022</ele>
        <time>2020-09-27T16:55:45Z</time>
      </trkpt>
      <trkpt lat="40.49172" lon="-8.32529">
        <ele>461.908</ele>
        <time>2020-09-27T16:55:47Z</time>
      </trkpt>
      <trkpt lat="40.49171" lon="-8.3259">
        <ele>461.274</ele>
        <time>2020-09-27T16:55:49Z</time>
      </trkpt>
      <trkpt lat="40.49177" lon="-8.32623">
        <ele>460.356</ele>
        <time>2020-09-27T16:55:50Z</time>
      </trkpt>
      <trkpt lat="40.49195" lon="-8.32692">
        <ele>458.844</ele>
        <time>2020-09-27T16:55:52Z</time>
      </trkpt>
      <trkpt lat="40.4921" lon="-8.3276">
        <ele>456.796</ele>
        <time>2020-09-27T16:55:54Z</time>
      </trkpt>
      <trkpt lat="40.49222" lon="-8.32811">
        <ele>454.594</ele>
        <time>2020-09-27T16:55:56Z</time>
      </trkpt>
      <trkpt lat="40.49231" lon="-8.32829">
        <ele>452.944</ele>
        <time>2020-09-27T16:55:57Z</time>
      </trkpt>
      <trkpt lat="40.49264" lon="-8.32856">
        <ele>451.754</ele>
        <time>2020-09-27T16:55:59Z</time>
      </trkpt>
      <trkpt lat="40.49284" lon="-8.32868">
        <ele>450.562</ele>
        <time>2020-09-27T16:56:00Z</time>
      </trkpt>
      <trkpt lat="40.49301" lon="-8.3288">
        <ele>449.543</ele>
        <time>2020-09-27T16:56:01Z</time>
      </trkpt>
      <trkpt lat="40.49315" lon="-8.32894">
        <ele>448.364</ele>
        <time>2020-09-27T16:56:02Z</time>
      </trkpt>
      <trkpt lat="40.4933" lon="-8.32935">
        <ele>447.41</ele>
        <time>2020-09-27T16:56:04Z</time>
      </trkpt>
      <trkpt lat="40.49322" lon="-8.32985">
        <ele>445.508</ele>
        <time>2020-09-27T16:56:06Z</time>
      </trkpt>
      <trkpt lat="40.49311" lon="-8.3301">
        <ele>443.949</ele>
        <time>2020-09-27T16:56:07Z</time>
      </trkpt>
      <trkpt lat="40.49304" lon="-8.33035">
        <ele>442.351</ele>
        <time>2020-09-27T16:56:08Z</time>
      </trkpt>
      <trkpt lat="40.49305" lon="-8.33088">
        <ele>440.799</ele>
        <time>2020-09-27T16:56:10Z</time>
      </trkpt>
      <trkpt lat="40.49302" lon="-8.33131">
        <ele>438.681</ele>
        <time>2020-09-27T16:56:12Z</time>
      </trkpt>
      <trkpt lat="40.49294" lon="-8.3315">
        <ele>436.859</ele>
        <time>2020-09-27T16:56:13Z</time>
      </trkpt>
      <trkpt lat="40.49282" lon="-8.33168">
        <ele>435.659</ele>
        <time>2020-09-27T16:56:14Z</time>
      </trkpt>
      <trkpt lat="40.49268" lon="-8.33182">
        <ele>434.329</ele>
        <time>2020-09-27T16:56:15Z</time>
      </trkpt>
      <trkpt lat="40.49251" lon="-8.33195">
        <ele>433.417</ele>
        <time>2020-09-27T16:56:16Z</time>
      </trkpt>
      <trkpt lat="40.49218" lon="-8.33213">
        <ele>432.177</ele>
        <time>2020-09-27T16:56:18Z</time>
      </trkpt>
      <trkpt lat="40.49195" lon="-8.33238">
        <ele>430.661</ele>
        <time>2020-09-27T16:56:20Z</time>
      </trkpt>
      <trkpt lat="40.49193" lon="-8.33265">
        <ele>430.027</ele>
        <time>2020-09-27T16:56:22Z</time>
      </trkpt>
      <trkpt lat="40.49199" lon="-8.33281">
        <ele>429.008</ele>
        <time>2020-09-27T16:56:23Z</time>
      </trkpt>
      <trkpt lat="40.49223" lon="-8.33326">
        <ele>427.862</ele>
        <time>2020-09-27T16:56:25Z</time>
      </trkpt>
      <trkpt lat="40.49258" lon="-8.33377">
        <ele>426.154</ele>
        <time>2020-09-27T16:56:27Z</time>
      </trkpt>
      <trkpt lat="40.49279" lon="-8.33417">
        <ele>424.562</ele>
        <time>2020-09-27T16:56:29Z</time>
      </trkpt>
      <trkpt lat="40.49282" lon="-8.33439">
        <ele>422.494</ele>
        <time>2020-09-27T16:56:30Z</time>
      </trkpt>
      <trkpt lat="40.4928" lon="-8.33465">
        <ele>420.692</ele>
        <time>2020-09-27T16:56:31Z</time>
      </trkpt>
      <trkpt lat="40.49274" lon="-8.33495">
        <ele>418.922</ele>
        <time>2020-09-27T16:56:32Z</time>
      </trkpt>
      <trkpt lat="40.49264" lon="-8.33555">
        <ele>416.522</ele>
        <time>2020-09-27T16:56:34Z</time>
      </trkpt>
      <trkpt lat="40.49265" lon="-8.33617">
        <ele>414.18</ele>
        <time>2020-09-27T16:56:36Z</time>
      </trkpt>
      <trkpt lat="40.49269" lon="-8.33652">
        <ele>412.176</ele>
        <time>2020-09-27T16:56:37Z</time>
      </trkpt>
      <trkpt lat="40.49273" lon="-8.33689">
        <ele>410.39</ele>
        <time>2020-09-27T16:56:38Z</time>
      </trkpt>
      <trkpt lat="40.49281" lon="-8.33768">
        <ele>408.119</ele>
        <time>2020-09-27T16:56:40Z</time>
      </trkpt>
      <trkpt lat="40.49288" lon="-8.33852">
        <ele>405.408</ele>
        <time>2020-09-27T16:56:42Z</time>
      </trkpt>
      <trkpt lat="40.49292" lon="-8.33896">
        <ele>407.742</ele>
        <time>2020-09-27T16:56:43Z</time>
      </trkpt>
      <trkpt lat="40.49299" lon="-8.33984">
        <ele>403.944</ele>
        <time>2020-09-27T16:56:45Z</time>
      </trkpt>
      <trkpt lat="40.49307" lon="-8.3407">
        <ele>399.992</ele>
        <time>2020-09-27T16:56:47Z</time>
      </trkpt>
      <trkpt lat="40.49311" lon="-8.3411">
        <ele>396.054</ele>
        <time>2020-09-27T16:56:48Z</time>
      </trkpt>
      <trkpt lat="40.49315" lon="-8.34148">
        <ele>392.462</ele>
        <time>2020-09-27T16:56:49Z</time>
      </trkpt>
      <trkpt lat="40.49319" lon="-8.34181">
        <ele>389.542</ele>
        <time>2020-09-27T16:56:50Z</time>
      </trkpt>
      <trkpt lat="40.49323" lon="-8.34212">
        <ele>387.292</ele>
        <time>2020-09-27T16:56:51Z</time>
      </trkpt>
      <trkpt lat="40.49321" lon="-8.34275">
        <ele>384.39</ele>
        <time>2020-09-27T16:56:53Z</time>
      </trkpt>
      <trkpt lat="40.49304" lon="-8.34341">
        <ele>380.843</ele>
        <time>2020-09-27T16:56:55Z</time>
      </trkpt>
      <trkpt lat="40.49285" lon="-8.34398">
        <ele>377.664</ele>
        <time>2020-09-27T16:56:57Z</time>
      </trkpt>
      <trkpt lat="40.49279" lon="-8.34425">
        <ele>375.11</ele>
        <time>2020-09-27T16:56:58Z</time>
      </trkpt>
      <trkpt lat="40.4928" lon="-8.34479">
        <ele>372.208</ele>
        <time>2020-09-27T16:57:00Z</time>
      </trkpt>
      <trkpt lat="40.49292" lon="-8.34527">
        <ele>369.189</ele>
        <time>2020-09-27T16:57:02Z</time>
      </trkpt>
      <trkpt lat="40.49286" lon="-8.34571">
        <ele>366.391</ele>
        <time>2020-09-27T16:57:04Z</time>
      </trkpt>
      <trkpt lat="40.49265" lon="-8.34615">
        <ele>366.769</ele>
        <time>2020-09-27T16:57:06Z</time>
      </trkpt>
      <trkpt lat="40.49258" lon="-8.34636">
        <ele>365.291</ele>
        <time>2020-09-27T16:57:07Z</time>
      </trkpt>
      <trkpt lat="40.49256" lon="-8.34686">
        <ele>362.069</ele>
        <time>2020-09-27T16:57:09Z</time>
      </trkpt>
      <trkpt lat="40.49258" lon="-8.34737">
        <ele>358.399</ele>
        <time>2020-09-27T16:57:11Z</time>
      </trkpt>
      <trkpt lat="40.49254" lon="-8.34758">
        <ele>356.259</ele>
        <time>2020-09-27T16:57:12Z</time>
      </trkpt>
      <trkpt lat="40.49247" lon="-8.34778">
        <ele>354.257</ele>
        <time>2020-09-27T16:57:13Z</time>
      </trkpt>
      <trkpt lat="40.49236" lon="-8.34799">
        <ele>352.295</ele>
        <time>2020-09-27T16:57:14Z</time>
      </trkpt>
      <trkpt lat="40.4922" lon="-8.34813">
        <ele>350.549</ele>
        <time>2020-09-27T16:57:15Z</time>
      </trkpt>
      <trkpt lat="40.49203" lon="-8.34825">
        <ele>348.823</ele>
        <time>2020-09-27T16:57:16Z</time>
      </trkpt>
      <trkpt lat="40.49186" lon="-8.34864">
        <ele>346.308</ele>
        <time>2020-09-27T16:57:18Z</time>
      </trkpt>
      <trkpt lat="40.49186" lon="-8.34892">
        <ele>344.024</ele>
        <time>2020-09-27T16:57:19Z</time>
      </trkpt>
      <trkpt lat="40.49186" lon="-8.34924">
        <ele>341.856</ele>
        <time>2020-09-27T16:57:20Z</time>
      </trkpt>
      <trkpt lat="40.49183" lon="-8.34986">
        <ele>339.114</ele>
        <time>2020-09-27T16:57:22Z</time>
      </trkpt>
      <trkpt lat="40.49181" lon="-8.35015">
        <ele>336.816</ele>
        <time>2020-09-27T16:57:23Z</time>
      </trkpt>
      <trkpt lat="40.49181" lon="-8.35069">
        <ele>334.394</ele>
        <time>2020-09-27T16:57:25Z</time>
      </trkpt>
      <trkpt lat="40.49185" lon="-8.35094">
        <ele>331.894</ele>
        <time>2020-09-27T16:57:26Z</time>
      </trkpt>
      <trkpt lat="40.49194" lon="-8.35119">
        <ele>329.974</ele>
        <time>2020-09-27T16:57:27Z</time>
      </trkpt>
      <trkpt lat="40.49208" lon="-8.35144">
        <ele>328.182</ele>
        <time>2020-09-27T16:57:28Z</time>
      </trkpt>
      <trkpt lat="40.49241" lon="-8.35187">
        <ele>326.173</ele>
        <time>2020-09-27T16:57:30Z</time>
      </trkpt>
      <trkpt lat="40.49254" lon="-8.35205">
        <ele>325.485</ele>
        <time>2020-09-27T16:57:31Z</time>
      </trkpt>
      <trkpt lat="40.49263" lon="-8.35222">
        <ele>323.813</ele>
        <time>2020-09-27T16:57:32Z</time>
      </trkpt>
      <trkpt lat="40.49266" lon="-8.35258">
        <ele>321.508</ele>
        <time>2020-09-27T16:57:34Z</time>
      </trkpt>
      <trkpt lat="40.49258" lon="-8.35297">
        <ele>318.842</ele>
        <time>2020-09-27T16:57:36Z</time>
      </trkpt>
      <trkpt lat="40.49239" lon="-8.35341">
        <ele>315.654</ele>
        <time>2020-09-27T16:57:38Z</time>
      </trkpt>
      <trkpt lat="40.49235" lon="-8.35363">
        <ele>313.452</ele>
        <time>2020-09-27T16:57:39Z</time>
      </trkpt>
      <trkpt lat="40.49246" lon="-8.354">
        <ele>311.834</ele>
        <time>2020-09-27T16:57:41Z</time>
      </trkpt>
      <trkpt lat="40.49274" lon="-8.3542">
        <ele>310.122</ele>
        <time>2020-09-27T16:57:43Z</time>
      </trkpt>
      <trkpt lat="40.49292" lon="-8.35423">
        <ele>309.192</ele>
        <time>2020-09-27T16:57:44Z</time>
      </trkpt>
      <trkpt lat="40.49345" lon="-8.35432">
        <ele>306.252</ele>
        <time>2020-09-27T16:57:46Z</time>
      </trkpt>
      <trkpt lat="40.49372" lon="-8.35438">
        <ele>303.79</ele>
        <time>2020-09-27T16:57:47Z</time>
      </trkpt>
      <trkpt lat="40.49399" lon="-8.35444">
        <ele>302.476</ele>
        <time>2020-09-27T16:57:48Z</time>
      </trkpt>
      <trkpt lat="40.49423" lon="-8.35449">
        <ele>300.89</ele>
        <time>2020-09-27T16:57:49Z</time>
      </trkpt>
      <trkpt lat="40.49447" lon="-8.35452">
        <ele>299.019</ele>
        <time>2020-09-27T16:57:50Z</time>
      </trkpt>
      <trkpt lat="40.49492" lon="-8.35446">
        <ele>296.408</ele>
        <time>2020-09-27T16:57:52Z</time>
      </trkpt>
      <trkpt lat="40.49513" lon="-8.35436">
        <ele>294.452</ele>
        <time>2020-09-27T16:57:53Z</time>
      </trkpt>
      <trkpt lat="40.49551" lon="-8.35396">
        <ele>291.864</ele>
        <time>2020-09-27T16:57:55Z</time>
      </trkpt>
      <trkpt lat="40.4958" lon="-8.35359">
        <ele>289.492</ele>
        <time>2020-09-27T16:57:57Z</time>
      </trkpt>
      <trkpt lat="40.49595" lon="-8.3535">
        <ele>287.494</ele>
        <time>2020-09-27T16:57:58Z</time>
      </trkpt>
      <trkpt lat="40.49627" lon="-8.35353">
        <ele>284.532</ele>
        <time>2020-09-27T16:58:00Z</time>
      </trkpt>
      <trkpt lat="40.49644" lon="-8.35365">
        <ele>282.292</ele>
        <time>2020-09-27T16:58:01Z</time>
      </trkpt>
      <trkpt lat="40.49662" lon="-8.35383">
        <ele>280.542</ele>
        <time>2020-09-27T16:58:02Z</time>
      </trkpt>
      <trkpt lat="40.49696" lon="-8.35435">
        <ele>278.42</ele>
        <time>2020-09-27T16:58:04Z</time>
      </trkpt>
      <trkpt lat="40.49715" lon="-8.35461">
        <ele>278.646</ele>
        <time>2020-09-27T16:58:05Z</time>
      </trkpt>
      <trkpt lat="40.49734" lon="-8.35489">
        <ele>277.288</ele>
        <time>2020-09-27T16:58:06Z</time>
      </trkpt>
      <trkpt lat="40.49772" lon="-8.35548">
        <ele>273.616</ele>
        <time>2020-09-27T16:58:08Z</time>
      </trkpt>
      <trkpt lat="40.49812" lon="-8.35614">
        <ele>269.608</ele>
        <time>2020-09-27T16:58:10Z</time>
      </trkpt>
      <trkpt lat="40.4983" lon="-8.35648">
        <ele>266.299</ele>
        <time>2020-09-27T16:58:11Z</time>
      </trkpt>
      <trkpt lat="40.49846" lon="-8.3568">
        <ele>263.251</ele>
        <time>2020-09-27T16:58:12Z</time>
      </trkpt>
      <trkpt lat="40.49871" lon="-8.35732">
        <ele>259.919</ele>
        <time>2020-09-27T16:58:14Z</time>
      </trkpt>
      <trkpt lat="40.49888" lon="-8.3577">
        <ele>258.711</ele>
        <time>2020-09-27T16:58:16Z</time>
      </trkpt>
      <trkpt lat="40.49892" lon="-8.35788">
        <ele>256.489</ele>
        <time>2020-09-27T16:58:17Z</time>
      </trkpt>
      <trkpt lat="40.49889" lon="-8.35828">
        <ele>253.129</ele>
        <time>2020-09-27T16:58:19Z</time>
      </trkpt>
      <trkpt lat="40.49882" lon="-8.35847">
        <ele>250.649</ele>
        <time>2020-09-27T16:58:20Z</time>
      </trkpt>
      <trkpt lat="40.49854" lon="-8.35872">
        <ele>247.937</ele>
        <time>2020-09-27T16:58:22Z</time>
      </trkpt>
      <trkpt lat="40.49837" lon="-8.35879">
        <ele>246.986</ele>
        <time>2020-09-27T16:58:23Z</time>
      </trkpt>
      <trkpt lat="40.49796" lon="-8.35884">
        <ele>245.06</ele>
        <time>2020-09-27T16:58:25Z</time>
      </trkpt>
      <trkpt lat="40.49779" lon="-8.35873">
        <ele>242.626</ele>
        <time>2020-09-27T16:58:26Z</time>
      </trkpt>
      <trkpt lat="40.49767" lon="-8.3585">
        <ele>240.608</ele>
        <time>2020-09-27T16:58:27Z</time>
      </trkpt>
      <trkpt lat="40.49754" lon="-8.3583">
        <ele>239.173</ele>
        <time>2020-09-27T16:58:28Z</time>
      </trkpt>
      <trkpt lat="40.49727" lon="-8.35818">
        <ele>237.775</ele>
        <time>2020-09-27T16:58:30Z</time>
      </trkpt>
      <trkpt lat="40.49711" lon="-8.35824">
        <ele>236.243</ele>
        <time>2020-09-27T16:58:31Z</time>
      </trkpt>
      <trkpt lat="40.49694" lon="-8.35834">
        <ele>235.185</ele>
        <time>2020-09-27T16:58:32Z</time>
      </trkpt>
      <trkpt lat="40.49657" lon="-8.35851">
        <ele>239.183</ele>
        <time>2020-09-27T16:58:34Z</time>
      </trkpt>
      <trkpt lat="40.49631" lon="-8.35874">
        <ele>238.963</ele>
        <time>2020-09-27T16:58:36Z</time>
      </trkpt>
      <trkpt lat="40.49623" lon="-8.35893">
        <ele>236.873</ele>
        <time>2020-09-27T16:58:37Z</time>
      </trkpt>
      <trkpt lat="40.4962" lon="-8.35914">
        <ele>234.251</ele>
        <time>2020-09-27T16:58:38Z</time>
      </trkpt>
      <trkpt lat="40.49631" lon="-8.35956">
        <ele>233.342</ele>
        <time>2020-09-27T16:58:40Z</time>
      </trkpt>
      <trkpt lat="40.4966" lon="-8.35998">
        <ele>229.322</ele>
        <time>2020-09-27T16:58:42Z</time>
      </trkpt>
      <trkpt lat="40.49675" lon="-8.36019">
        <ele>225.314</ele>
        <time>2020-09-27T16:58:43Z</time>
      </trkpt>
      <trkpt lat="40.49687" lon="-8.36038">
        <ele>221.708</ele>
        <time>2020-09-27T16:58:44Z</time>
      </trkpt>
      <trkpt lat="40.49699" lon="-8.36077">
        <ele>218.279</ele>
        <time>2020-09-27T16:58:46Z</time>
      </trkpt>
      <trkpt lat="40.49696" lon="-8.36102">
        <ele>215.671</ele>
        <time>2020-09-27T16:58:47Z</time>
      </trkpt>
      <trkpt lat="40.49688" lon="-8.3613">
        <ele>215.239</ele>
        <time>2020-09-27T16:58:48Z</time>
      </trkpt>
      <trkpt lat="40.4968" lon="-8.36159">
        <ele>213.361</ele>
        <time>2020-09-27T16:58:49Z</time>
      </trkpt>
      <trkpt lat="40.49676" lon="-8.36218">
        <ele>214.419</ele>
        <time>2020-09-27T16:58:51Z</time>
      </trkpt>
      <trkpt lat="40.4968" lon="-8.36249">
        <ele>212.819</ele>
        <time>2020-09-27T16:58:52Z</time>
      </trkpt>
      <trkpt lat="40.49701" lon="-8.36311">
        <ele>208.839</ele>
        <time>2020-09-27T16:58:54Z</time>
      </trkpt>
      <trkpt lat="40.49725" lon="-8.36372">
        <ele>204.837</ele>
        <time>2020-09-27T16:58:56Z</time>
      </trkpt>
      <trkpt lat="40.49735" lon="-8.36399">
        <ele>200.884</ele>
        <time>2020-09-27T16:58:57Z</time>
      </trkpt>
      <trkpt lat="40.49757" lon="-8.36441">
        <ele>199.707</ele>
        <time>2020-09-27T16:58:59Z</time>
      </trkpt>
      <trkpt lat="40.49774" lon="-8.36456">
        <ele>196.817</ele>
        <time>2020-09-27T16:59:00Z</time>
      </trkpt>
      <trkpt lat="40.4982" lon="-8.36484">
        <ele>192.808</ele>
        <time>2020-09-27T16:59:02Z</time>
      </trkpt>
      <trkpt lat="40.49862" lon="-8.36509">
        <ele>188.813</ele>
        <time>2020-09-27T16:59:04Z</time>
      </trkpt>
      <trkpt lat="40.49892" lon="-8.36534">
        <ele>189.635</ele>
        <time>2020-09-27T16:59:06Z</time>
      </trkpt>
      <trkpt lat="40.499" lon="-8.36554">
        <ele>187.233</ele>
        <time>2020-09-27T16:59:07Z</time>
      </trkpt>
      <trkpt lat="40.49904" lon="-8.36576">
        <ele>183.965</ele>
        <time>2020-09-27T16:59:08Z</time>
      </trkpt>
      <trkpt lat="40.49903" lon="-8.36626">
        <ele>180.223</ele>
        <time>2020-09-27T16:59:10Z</time>
      </trkpt>
      <trkpt lat="40.49899" lon="-8.36658">
        <ele>177.213</ele>
        <time>2020-09-27T16:59:11Z</time>
      </trkpt>
      <trkpt lat="40.49896" lon="-8.36696">
        <ele>174.693</ele>
        <time>2020-09-27T16:59:12Z</time>
      </trkpt>
      <trkpt lat="40.49896" lon="-8.3678">
        <ele>171.011</ele>
        <time>2020-09-27T16:59:14Z</time>
      </trkpt>
      <trkpt lat="40.49905" lon="-8.36866">
        <ele>167.032</ele>
        <time>2020-09-27T16:59:16Z</time>
      </trkpt>
      <trkpt lat="40.49913" lon="-8.36908">
        <ele>163.092</ele>
        <time>2020-09-27T16:59:17Z</time>
      </trkpt>
      <trkpt lat="40.49929" lon="-8.36982">
        <ele>159.011</ele>
        <time>2020-09-27T16:59:19Z</time>
      </trkpt>
      <trkpt lat="40.49935" lon="-8.37014">
        <ele>155.008</ele>
        <time>2020-09-27T16:59:20Z</time>
      </trkpt>
      <trkpt lat="40.49943" lon="-8.3707">
        <ele>159.028</ele>
        <time>2020-09-27T16:59:22Z</time>
      </trkpt>
      <trkpt lat="40.49939" lon="-8.37103">
        <ele>157.43</ele>
        <time>2020-09-27T16:59:24Z</time>
      </trkpt>
      <trkpt lat="40.49939" lon="-8.37111">
        <ele>155.158</ele>
        <time>2020-09-27T16:59:25Z</time>
      </trkpt>
      <trkpt lat="40.49946" lon="-8.37132">
        <ele>152.36</ele>
        <time>2020-09-27T16:59:27Z</time>
      </trkpt>
      <trkpt lat="40.49956" lon="-8.37147">
        <ele>150.018</ele>
        <time>2020-09-27T16:59:28Z</time>
      </trkpt>
      <trkpt lat="40.49975" lon="-8.37189">
        <ele>147.978</ele>
        <time>2020-09-27T16:59:30Z</time>
      </trkpt>
      <trkpt lat="40.49991" lon="-8.37248">
        <ele>147.068</ele>
        <time>2020-09-27T16:59:32Z</time>
      </trkpt>
      <trkpt lat="40.50009" lon="-8.37308">
        <ele>147.636</ele>
        <time>2020-09-27T16:59:34Z</time>
      </trkpt>
      <trkpt lat="40.50026" lon="-8.37361">
        <ele>148.681</ele>
        <time>2020-09-27T16:59:36Z</time>
      </trkpt>
      <trkpt lat="40.50034" lon="-8.37387">
        <ele>149.361</ele>
        <time>2020-09-27T16:59:37Z</time>
      </trkpt>
      <trkpt lat="40.50048" lon="-8.37433">
        <ele>150.217</ele>
        <time>2020-09-27T16:59:39Z</time>
      </trkpt>
      <trkpt lat="40.50058" lon="-8.37453">
        <ele>150.908</ele>
        <time>2020-09-27T16:59:40Z</time>
      </trkpt>
      <trkpt lat="40.5007" lon="-8.37469">
        <ele>151.543</ele>
        <time>2020-09-27T16:59:41Z</time>
      </trkpt>
      <trkpt lat="40.50099" lon="-8.37494">
        <ele>152.245</ele>
        <time>2020-09-27T16:59:43Z</time>
      </trkpt>
      <trkpt lat="40.50129" lon="-8.37505">
        <ele>153.183</ele>
        <time>2020-09-27T16:59:45Z</time>
      </trkpt>
      <trkpt lat="40.50162" lon="-8.37506">
        <ele>154.115</ele>
        <time>2020-09-27T16:59:47Z</time>
      </trkpt>
      <trkpt lat="40.5018" lon="-8.37502">
        <ele>155.253</ele>
        <time>2020-09-27T16:59:48Z</time>
      </trkpt>
      <trkpt lat="40.50218" lon="-8.37484">
        <ele>156.763</ele>
        <time>2020-09-27T16:59:50Z</time>
      </trkpt>
      <trkpt lat="40.50239" lon="-8.37472">
        <ele>157.983</ele>
        <time>2020-09-27T16:59:51Z</time>
      </trkpt>
      <trkpt lat="40.50284" lon="-8.37449">
        <ele>159.851</ele>
        <time>2020-09-27T16:59:53Z</time>
      </trkpt>
      <trkpt lat="40.50334" lon="-8.37423">
        <ele>162.314</ele>
        <time>2020-09-27T16:59:55Z</time>
      </trkpt>
      <trkpt lat="40.50384" lon="-8.374">
        <ele>164.754</ele>
        <time>2020-09-27T16:59:57Z</time>
      </trkpt>
      <trkpt lat="40.50409" lon="-8.37387">
        <ele>166.809</ele>
        <time>2020-09-27T16:59:58Z</time>
      </trkpt>
      <trkpt lat="40.50435" lon="-8.37374">
        <ele>170.808</ele>
        <time>2020-09-27T16:59:59Z</time>
      </trkpt>
      <trkpt lat="40.50488" lon="-8.37348">
        <ele>174.836</ele>
        <time>2020-09-27T17:00:01Z</time>
      </trkpt>
      <trkpt lat="40.50543" lon="-8.37322">
        <ele>177.728</ele>
        <time>2020-09-27T17:00:03Z</time>
      </trkpt>
      <trkpt lat="40.5057" lon="-8.37309">
        <ele>179.076</ele>
        <time>2020-09-27T17:00:04Z</time>
      </trkpt>
      <trkpt lat="40.50595" lon="-8.37296">
        <ele>179.558</ele>
        <time>2020-09-27T17:00:05Z</time>
      </trkpt>
      <trkpt lat="40.50644" lon="-8.37272">
        <ele>179.626</ele>
        <time>2020-09-27T17:00:07Z</time>
      </trkpt>
      <trkpt lat="40.50689" lon="-8.37251">
        <ele>179.086</ele>
        <time>2020-09-27T17:00:09Z</time>
      </trkpt>
      <trkpt lat="40.50726" lon="-8.37226">
        <ele>177.926</ele>
        <time>2020-09-27T17:00:11Z</time>
      </trkpt>
      <trkpt lat="40.50756" lon="-8.37184">
        <ele>176.824</ele>
        <time>2020-09-27T17:00:13Z</time>
      </trkpt>
      <trkpt lat="40.5077" lon="-8.37157">
        <ele>175.987</ele>
        <time>2020-09-27T17:00:14Z</time>
      </trkpt>
      <trkpt lat="40.50786" lon="-8.37129">
        <ele>175.342</ele>
        <time>2020-09-27T17:00:15Z</time>
      </trkpt>
      <trkpt lat="40.50803" lon="-8.37101">
        <ele>174.526</ele>
        <time>2020-09-27T17:00:16Z</time>
      </trkpt>
      <trkpt lat="40.50841" lon="-8.37044">
        <ele>173.608</ele>
        <time>2020-09-27T17:00:18Z</time>
      </trkpt>
      <trkpt lat="40.5086" lon="-8.37016">
        <ele>172.623</ele>
        <time>2020-09-27T17:00:19Z</time>
      </trkpt>
      <trkpt lat="40.5088" lon="-8.36988">
        <ele>171.545</ele>
        <time>2020-09-27T17:00:20Z</time>
      </trkpt>
      <trkpt lat="40.50916" lon="-8.36936">
        <ele>169.493</ele>
        <time>2020-09-27T17:00:22Z</time>
      </trkpt>
      <trkpt lat="40.50932" lon="-8.36912">
        <ele>167.565</ele>
        <time>2020-09-27T17:00:23Z</time>
      </trkpt>
      <trkpt lat="40.50963" lon="-8.36867">
        <ele>165.393</ele>
        <time>2020-09-27T17:00:25Z</time>
      </trkpt>
      <trkpt lat="40.50979" lon="-8.3685">
        <ele>163.443</ele>
        <time>2020-09-27T17:00:26Z</time>
      </trkpt>
      <trkpt lat="40.51017" lon="-8.3683">
        <ele>160.873</ele>
        <time>2020-09-27T17:00:28Z</time>
      </trkpt>
      <trkpt lat="40.51063" lon="-8.36827">
        <ele>157.821</ele>
        <time>2020-09-27T17:00:30Z</time>
      </trkpt>
      <trkpt lat="40.51087" lon="-8.3683">
        <ele>155.251</ele>
        <time>2020-09-27T17:00:31Z</time>
      </trkpt>
      <trkpt lat="40.51133" lon="-8.36844">
        <ele>152.401</ele>
        <time>2020-09-27T17:00:33Z</time>
      </trkpt>
      <trkpt lat="40.51154" lon="-8.36857">
        <ele>150.411</ele>
        <time>2020-09-27T17:00:34Z</time>
      </trkpt>
      <trkpt lat="40.51173" lon="-8.36874">
        <ele>148.608</ele>
        <time>2020-09-27T17:00:35Z</time>
      </trkpt>
      <trkpt lat="40.51191" lon="-8.36889">
        <ele>146.91</ele>
        <time>2020-09-27T17:00:36Z</time>
      </trkpt>
      <trkpt lat="40.51209" lon="-8.36901">
        <ele>145.422</ele>
        <time>2020-09-27T17:00:37Z</time>
      </trkpt>
      <trkpt lat="40.5125" lon="-8.36908">
        <ele>144.21</ele>
        <time>2020-09-27T17:00:39Z</time>
      </trkpt>
      <trkpt lat="40.51271" lon="-8.36907">
        <ele>143.552</ele>
        <time>2020-09-27T17:00:40Z</time>
      </trkpt>
      <trkpt lat="40.51291" lon="-8.36908">
        <ele>143.29</ele>
        <time>2020-09-27T17:00:41Z</time>
      </trkpt>
      <trkpt lat="40.5133" lon="-8.3692">
        <ele>143.33</ele>
        <time>2020-09-27T17:00:43Z</time>
      </trkpt>
      <trkpt lat="40.51348" lon="-8.36931">
        <ele>144.18</ele>
        <time>2020-09-27T17:00:44Z</time>
      </trkpt>
      <trkpt lat="40.51379" lon="-8.36956">
        <ele>145.588</ele>
        <time>2020-09-27T17:00:46Z</time>
      </trkpt>
      <trkpt lat="40.51393" lon="-8.36966">
        <ele>146.873</ele>
        <time>2020-09-27T17:00:47Z</time>
      </trkpt>
      <trkpt lat="40.51419" lon="-8.36984">
        <ele>147.785</ele>
        <time>2020-09-27T17:00:49Z</time>
      </trkpt>
      <trkpt lat="40.51432" lon="-8.36991">
        <ele>148.413</ele>
        <time>2020-09-27T17:00:50Z</time>
      </trkpt>
      <trkpt lat="40.51456" lon="-8.37007">
        <ele>148.708</ele>
        <time>2020-09-27T17:00:52Z</time>
      </trkpt>
      <trkpt lat="40.51483" lon="-8.37009">
        <ele>148.932</ele>
        <time>2020-09-27T17:00:54Z</time>
      </trkpt>
      <trkpt lat="40.51497" lon="-8.37002">
        <ele>149.224</ele>
        <time>2020-09-27T17:00:55Z</time>
      </trkpt>
      <trkpt lat="40.5152" lon="-8.3698">
        <ele>148.972</ele>
        <time>2020-09-27T17:00:57Z</time>
      </trkpt>
      <trkpt lat="40.5154" lon="-8.36957">
        <ele>148.564</ele>
        <time>2020-09-27T17:00:59Z</time>
      </trkpt>
      <trkpt lat="40.51559" lon="-8.36938">
        <ele>148.262</ele>
        <time>2020-09-27T17:01:01Z</time>
      </trkpt>
      <trkpt lat="40.51579" lon="-8.3692">
        <ele>148.412</ele>
        <time>2020-09-27T17:01:03Z</time>
      </trkpt>
      <trkpt lat="40.5159" lon="-8.36913">
        <ele>148.642</ele>
        <time>2020-09-27T17:01:04Z</time>
      </trkpt>
      <trkpt lat="40.51613" lon="-8.36907">
        <ele>149.01</ele>
        <time>2020-09-27T17:01:06Z</time>
      </trkpt>
      <trkpt lat="40.51635" lon="-8.3691">
        <ele>149.957</ele>
        <time>2020-09-27T17:01:08Z</time>
      </trkpt>
      <trkpt lat="40.51656" lon="-8.36918">
        <ele>151</ele>
        <time>2020-09-27T17:01:10Z</time>
      </trkpt>
      <trkpt lat="40.51677" lon="-8.36928">
        <ele>152.12</ele>
        <time>2020-09-27T17:01:12Z</time>
      </trkpt>
      <trkpt lat="40.51697" lon="-8.36937">
        <ele>153.208</ele>
        <time>2020-09-27T17:01:14Z</time>
      </trkpt>
      <trkpt lat="40.51708" lon="-8.36942">
        <ele>154.18</ele>
        <time>2020-09-27T17:01:15Z</time>
      </trkpt>
      <trkpt lat="40.51731" lon="-8.36951">
        <ele>154.992</ele>
        <time>2020-09-27T17:01:17Z</time>
      </trkpt>
      <trkpt lat="40.51743" lon="-8.36956">
        <ele>155.57</ele>
        <time>2020-09-27T17:01:18Z</time>
      </trkpt>
      <trkpt lat="40.5177" lon="-8.36969">
        <ele>156.162</ele>
        <time>2020-09-27T17:01:20Z</time>
      </trkpt>
      <trkpt lat="40.51785" lon="-8.36975">
        <ele>156.24</ele>
        <time>2020-09-27T17:01:21Z</time>
      </trkpt>
      <trkpt lat="40.518" lon="-8.36981">
        <ele>156.14</ele>
        <time>2020-09-27T17:01:22Z</time>
      </trkpt>
      <trkpt lat="40.51829" lon="-8.36997">
        <ele>155.67</ele>
        <time>2020-09-27T17:01:24Z</time>
      </trkpt>
      <trkpt lat="40.51846" lon="-8.37012">
        <ele>154.748</ele>
        <time>2020-09-27T17:01:25Z</time>
      </trkpt>
      <trkpt lat="40.51883" lon="-8.37054">
        <ele>153.314</ele>
        <time>2020-09-27T17:01:27Z</time>
      </trkpt>
      <trkpt lat="40.51921" lon="-8.371">
        <ele>151.654</ele>
        <time>2020-09-27T17:01:29Z</time>
      </trkpt>
      <trkpt lat="40.51959" lon="-8.37145">
        <ele>150.209</ele>
        <time>2020-09-27T17:01:31Z</time>
      </trkpt>
      <trkpt lat="40.51977" lon="-8.37166">
        <ele>149.208</ele>
        <time>2020-09-27T17:01:32Z</time>
      </trkpt>
      <trkpt lat="40.51994" lon="-8.37186">
        <ele>148.826</ele>
        <time>2020-09-27T17:01:33Z</time>
      </trkpt>
      <trkpt lat="40.52027" lon="-8.37216">
        <ele>148.748</ele>
        <time>2020-09-27T17:01:35Z</time>
      </trkpt>
      <trkpt lat="40.52044" lon="-8.37227">
        <ele>148.686</ele>
        <time>2020-09-27T17:01:36Z</time>
      </trkpt>
      <trkpt lat="40.52086" lon="-8.37245">
        <ele>148.788</ele>
        <time>2020-09-27T17:01:38Z</time>
      </trkpt>
      <trkpt lat="40.52109" lon="-8.37254">
        <ele>148.886</ele>
        <time>2020-09-27T17:01:39Z</time>
      </trkpt>
      <trkpt lat="40.52159" lon="-8.37273">
        <ele>149.026</ele>
        <time>2020-09-27T17:01:41Z</time>
      </trkpt>
      <trkpt lat="40.5221" lon="-8.37294">
        <ele>149.236</ele>
        <time>2020-09-27T17:01:43Z</time>
      </trkpt>
      <trkpt lat="40.52233" lon="-8.37303">
        <ele>149.264</ele>
        <time>2020-09-27T17:01:44Z</time>
      </trkpt>
      <trkpt lat="40.52251" lon="-8.37311">
        <ele>149.171</ele>
        <time>2020-09-27T17:01:45Z</time>
      </trkpt>
      <trkpt lat="40.5228" lon="-8.37321">
        <ele>149.041</ele>
        <time>2020-09-27T17:01:47Z</time>
      </trkpt>
      <trkpt lat="40.52297" lon="-8.3733">
        <ele>148.915</ele>
        <time>2020-09-27T17:01:49Z</time>
      </trkpt>
      <trkpt lat="40.52301" lon="-8.37346">
        <ele>148.708</ele>
        <time>2020-09-27T17:01:51Z</time>
      </trkpt>
      <trkpt lat="40.523" lon="-8.37358">
        <ele>148.392</ele>
        <time>2020-09-27T17:01:52Z</time>
      </trkpt>
      <trkpt lat="40.52303" lon="-8.37372">
        <ele>147.894</ele>
        <time>2020-09-27T17:01:53Z</time>
      </trkpt>
      <trkpt lat="40.52321" lon="-8.37403">
        <ele>146.792</ele>
        <time>2020-09-27T17:01:55Z</time>
      </trkpt>
      <trkpt lat="40.52347" lon="-8.37444">
        <ele>145.494</ele>
        <time>2020-09-27T17:01:57Z</time>
      </trkpt>
      <trkpt lat="40.5236" lon="-8.37467">
        <ele>144.362</ele>
        <time>2020-09-27T17:01:58Z</time>
      </trkpt>
      <trkpt lat="40.52382" lon="-8.37521">
        <ele>143.272</ele>
        <time>2020-09-27T17:02:00Z</time>
      </trkpt>
      <trkpt lat="40.52389" lon="-8.37553">
        <ele>142.212</ele>
        <time>2020-09-27T17:02:01Z</time>
      </trkpt>
      <trkpt lat="40.52401" lon="-8.3762">
        <ele>140.96</ele>
        <time>2020-09-27T17:02:03Z</time>
      </trkpt>
      <trkpt lat="40.52405" lon="-8.37651">
        <ele>140.187</ele>
        <time>2020-09-27T17:02:04Z</time>
      </trkpt>
      <trkpt lat="40.52408" lon="-8.37708">
        <ele>139.142</ele>
        <time>2020-09-27T17:02:06Z</time>
      </trkpt>
      <trkpt lat="40.52405" lon="-8.37739">
        <ele>138.526</ele>
        <time>2020-09-27T17:02:07Z</time>
      </trkpt>
      <trkpt lat="40.52401" lon="-8.37769">
        <ele>138.008</ele>
        <time>2020-09-27T17:02:08Z</time>
      </trkpt>
      <trkpt lat="40.52394" lon="-8.37821">
        <ele>137.663</ele>
        <time>2020-09-27T17:02:10Z</time>
      </trkpt>
      <trkpt lat="40.52394" lon="-8.37844">
        <ele>137.285</ele>
        <time>2020-09-27T17:02:11Z</time>
      </trkpt>
      <trkpt lat="40.52397" lon="-8.37867">
        <ele>137.053</ele>
        <time>2020-09-27T17:02:12Z</time>
      </trkpt>
      <trkpt lat="40.52403" lon="-8.37892">
        <ele>136.885</ele>
        <time>2020-09-27T17:02:13Z</time>
      </trkpt>
      <trkpt lat="40.52425" lon="-8.37942">
        <ele>136.783</ele>
        <time>2020-09-27T17:02:15Z</time>
      </trkpt>
      <trkpt lat="40.5244" lon="-8.37967">
        <ele>136.923</ele>
        <time>2020-09-27T17:02:16Z</time>
      </trkpt>
      <trkpt lat="40.52457" lon="-8.37992">
        <ele>136.973</ele>
        <time>2020-09-27T17:02:17Z</time>
      </trkpt>
      <trkpt lat="40.52474" lon="-8.38017">
        <ele>137.091</ele>
        <time>2020-09-27T17:02:18Z</time>
      </trkpt>
      <trkpt lat="40.52507" lon="-8.3807">
        <ele>136.457</ele>
        <time>2020-09-27T17:02:20Z</time>
      </trkpt>
      <trkpt lat="40.52534" lon="-8.38129">
        <ele>135.1</ele>
        <time>2020-09-27T17:02:22Z</time>
      </trkpt>
      <trkpt lat="40.52546" lon="-8.38163">
        <ele>133.62</ele>
        <time>2020-09-27T17:02:23Z</time>
      </trkpt>
      <trkpt lat="40.52557" lon="-8.382">
        <ele>131.708</ele>
        <time>2020-09-27T17:02:24Z</time>
      </trkpt>
      <trkpt lat="40.52582" lon="-8.38277">
        <ele>128.45</ele>
        <time>2020-09-27T17:02:26Z</time>
      </trkpt>
      <trkpt lat="40.52595" lon="-8.38316">
        <ele>125.452</ele>
        <time>2020-09-27T17:02:27Z</time>
      </trkpt>
      <trkpt lat="40.52621" lon="-8.38386">
        <ele>122.44</ele>
        <time>2020-09-27T17:02:29Z</time>
      </trkpt>
      <trkpt lat="40.52651" lon="-8.38442">
        <ele>120.062</ele>
        <time>2020-09-27T17:02:31Z</time>
      </trkpt>
      <trkpt lat="40.52691" lon="-8.38484">
        <ele>118.76</ele>
        <time>2020-09-27T17:02:33Z</time>
      </trkpt>
      <trkpt lat="40.52745" lon="-8.38515">
        <ele>117.73</ele>
        <time>2020-09-27T17:02:35Z</time>
      </trkpt>
      <trkpt lat="40.52802" lon="-8.38549">
        <ele>117.16</ele>
        <time>2020-09-27T17:02:37Z</time>
      </trkpt>
      <trkpt lat="40.52831" lon="-8.38568">
        <ele>116.638</ele>
        <time>2020-09-27T17:02:38Z</time>
      </trkpt>
      <trkpt lat="40.5289" lon="-8.38611">
        <ele>115.973</ele>
        <time>2020-09-27T17:02:40Z</time>
      </trkpt>
      <trkpt lat="40.52947" lon="-8.38654">
        <ele>115.085</ele>
        <time>2020-09-27T17:02:42Z</time>
      </trkpt>
      <trkpt lat="40.52976" lon="-8.38677">
        <ele>114.413</ele>
        <time>2020-09-27T17:02:43Z</time>
      </trkpt>
      <trkpt lat="40.53033" lon="-8.38722">
        <ele>114.108</ele>
        <time>2020-09-27T17:02:45Z</time>
      </trkpt>
      <trkpt lat="40.5309" lon="-8.38767">
        <ele>114.372</ele>
        <time>2020-09-27T17:02:47Z</time>
      </trkpt>
      <trkpt lat="40.53118" lon="-8.3879">
        <ele>114.364</ele>
        <time>2020-09-27T17:02:48Z</time>
      </trkpt>
      <trkpt lat="40.53146" lon="-8.38812">
        <ele>114.292</ele>
        <time>2020-09-27T17:02:49Z</time>
      </trkpt>
      <trkpt lat="40.53175" lon="-8.38834">
        <ele>114.374</ele>
        <time>2020-09-27T17:02:50Z</time>
      </trkpt>
      <trkpt lat="40.53204" lon="-8.38857">
        <ele>114.582</ele>
        <time>2020-09-27T17:02:51Z</time>
      </trkpt>
      <trkpt lat="40.53261" lon="-8.38901">
        <ele>115.072</ele>
        <time>2020-09-27T17:02:53Z</time>
      </trkpt>
      <trkpt lat="40.53319" lon="-8.38948">
        <ele>115.562</ele>
        <time>2020-09-27T17:02:55Z</time>
      </trkpt>
      <trkpt lat="40.53377" lon="-8.38995">
        <ele>116.17</ele>
        <time>2020-09-27T17:02:57Z</time>
      </trkpt>
      <trkpt lat="40.53406" lon="-8.39018">
        <ele>120.198</ele>
        <time>2020-09-27T17:02:58Z</time>
      </trkpt>
      <trkpt lat="40.53464" lon="-8.39064">
        <ele>124.115</ele>
        <time>2020-09-27T17:03:00Z</time>
      </trkpt>
      <trkpt lat="40.53493" lon="-8.39087">
        <ele>126.726</ele>
        <time>2020-09-27T17:03:01Z</time>
      </trkpt>
      <trkpt lat="40.53522" lon="-8.3911">
        <ele>126.908</ele>
        <time>2020-09-27T17:03:02Z</time>
      </trkpt>
      <trkpt lat="40.53579" lon="-8.39154">
        <ele>126.334</ele>
        <time>2020-09-27T17:03:04Z</time>
      </trkpt>
      <trkpt lat="40.53636" lon="-8.39198">
        <ele>125.816</ele>
        <time>2020-09-27T17:03:06Z</time>
      </trkpt>
      <trkpt lat="40.53664" lon="-8.39221">
        <ele>125.554</ele>
        <time>2020-09-27T17:03:07Z</time>
      </trkpt>
      <trkpt lat="40.53721" lon="-8.39265">
        <ele>124.796</ele>
        <time>2020-09-27T17:03:09Z</time>
      </trkpt>
      <trkpt lat="40.53779" lon="-8.3931">
        <ele>123.134</ele>
        <time>2020-09-27T17:03:11Z</time>
      </trkpt>
      <trkpt lat="40.53809" lon="-8.39331">
        <ele>121.644</ele>
        <time>2020-09-27T17:03:12Z</time>
      </trkpt>
      <trkpt lat="40.5387" lon="-8.39376">
        <ele>120.094</ele>
        <time>2020-09-27T17:03:14Z</time>
      </trkpt>
      <trkpt lat="40.53929" lon="-8.39424">
        <ele>118.692</ele>
        <time>2020-09-27T17:03:16Z</time>
      </trkpt>
      <trkpt lat="40.53988" lon="-8.39474">
        <ele>117.818</ele>
        <time>2020-09-27T17:03:18Z</time>
      </trkpt>
      <trkpt lat="40.54044" lon="-8.39526">
        <ele>117.198</ele>
        <time>2020-09-27T17:03:20Z</time>
      </trkpt>
      <trkpt lat="40.54071" lon="-8.3955">
        <ele>116.617</ele>
        <time>2020-09-27T17:03:21Z</time>
      </trkpt>
      <trkpt lat="40.54121" lon="-8.39594">
        <ele>116.508</ele>
        <time>2020-09-27T17:03:23Z</time>
      </trkpt>
      <trkpt lat="40.54144" lon="-8.39615">
        <ele>116.736</ele>
        <time>2020-09-27T17:03:24Z</time>
      </trkpt>
      <trkpt lat="40.54167" lon="-8.39634">
        <ele>116.938</ele>
        <time>2020-09-27T17:03:25Z</time>
      </trkpt>
      <trkpt lat="40.54211" lon="-8.39675">
        <ele>117.116</ele>
        <time>2020-09-27T17:03:27Z</time>
      </trkpt>
      <trkpt lat="40.54233" lon="-8.39696">
        <ele>117.298</ele>
        <time>2020-09-27T17:03:28Z</time>
      </trkpt>
      <trkpt lat="40.54275" lon="-8.39747">
        <ele>117.016</ele>
        <time>2020-09-27T17:03:30Z</time>
      </trkpt>
      <trkpt lat="40.54315" lon="-8.39805">
        <ele>116.676</ele>
        <time>2020-09-27T17:03:32Z</time>
      </trkpt>
      <trkpt lat="40.54355" lon="-8.39864">
        <ele>116.266</ele>
        <time>2020-09-27T17:03:34Z</time>
      </trkpt>
      <trkpt lat="40.54373" lon="-8.39891">
        <ele>115.914</ele>
        <time>2020-09-27T17:03:35Z</time>
      </trkpt>
      <trkpt lat="40.54401" lon="-8.39947">
        <ele>115.751</ele>
        <time>2020-09-27T17:03:37Z</time>
      </trkpt>
      <trkpt lat="40.54416" lon="-8.40014">
        <ele>115.501</ele>
        <time>2020-09-27T17:03:39Z</time>
      </trkpt>
      <trkpt lat="40.54424" lon="-8.40089">
        <ele>115.411</ele>
        <time>2020-09-27T17:03:41Z</time>
      </trkpt>
      <trkpt lat="40.54428" lon="-8.40128">
        <ele>115.508</ele>
        <time>2020-09-27T17:03:42Z</time>
      </trkpt>
      <trkpt lat="40.54438" lon="-8.40208">
        <ele>116.17</ele>
        <time>2020-09-27T17:03:44Z</time>
      </trkpt>
      <trkpt lat="40.54443" lon="-8.40247">
        <ele>117.072</ele>
        <time>2020-09-27T17:03:45Z</time>
      </trkpt>
      <trkpt lat="40.5445" lon="-8.40318">
        <ele>118.82</ele>
        <time>2020-09-27T17:03:47Z</time>
      </trkpt>
      <trkpt lat="40.54455" lon="-8.40351">
        <ele>120.552</ele>
        <time>2020-09-27T17:03:48Z</time>
      </trkpt>
      <trkpt lat="40.54469" lon="-8.40417">
        <ele>121.44</ele>
        <time>2020-09-27T17:03:50Z</time>
      </trkpt>
      <trkpt lat="40.54479" lon="-8.40448">
        <ele>122.21</ele>
        <time>2020-09-27T17:03:51Z</time>
      </trkpt>
      <trkpt lat="40.54492" lon="-8.4048">
        <ele>122.87</ele>
        <time>2020-09-27T17:03:52Z</time>
      </trkpt>
      <trkpt lat="40.54505" lon="-8.40512">
        <ele>123.198</ele>
        <time>2020-09-27T17:03:53Z</time>
      </trkpt>
      <trkpt lat="40.54532" lon="-8.40579">
        <ele>123.066</ele>
        <time>2020-09-27T17:03:55Z</time>
      </trkpt>
      <trkpt lat="40.54558" lon="-8.40648">
        <ele>122.529</ele>
        <time>2020-09-27T17:03:57Z</time>
      </trkpt>
      <trkpt lat="40.54584" lon="-8.40716">
        <ele>121.821</ele>
        <time>2020-09-27T17:03:59Z</time>
      </trkpt>
      <trkpt lat="40.54597" lon="-8.4075">
        <ele>121.208</ele>
        <time>2020-09-27T17:04:00Z</time>
      </trkpt>
      <trkpt lat="40.5461" lon="-8.40784">
        <ele>120.631</ele>
        <time>2020-09-27T17:04:01Z</time>
      </trkpt>
      <trkpt lat="40.54634" lon="-8.40852">
        <ele>119.813</ele>
        <time>2020-09-27T17:04:03Z</time>
      </trkpt>
      <trkpt lat="40.54647" lon="-8.40887">
        <ele>119.351</ele>
        <time>2020-09-27T17:04:04Z</time>
      </trkpt>
      <trkpt lat="40.54662" lon="-8.40921">
        <ele>118.963</ele>
        <time>2020-09-27T17:04:05Z</time>
      </trkpt>
      <trkpt lat="40.54696" lon="-8.40987">
        <ele>118.461</ele>
        <time>2020-09-27T17:04:07Z</time>
      </trkpt>
      <trkpt lat="40.54715" lon="-8.41019">
        <ele>117.851</ele>
        <time>2020-09-27T17:04:08Z</time>
      </trkpt>
      <trkpt lat="40.54756" lon="-8.41082">
        <ele>116.861</ele>
        <time>2020-09-27T17:04:10Z</time>
      </trkpt>
      <trkpt lat="40.54777" lon="-8.41115">
        <ele>115.879</ele>
        <time>2020-09-27T17:04:11Z</time>
      </trkpt>
      <trkpt lat="40.54798" lon="-8.41148">
        <ele>115.041</ele>
        <time>2020-09-27T17:04:12Z</time>
      </trkpt>
      <trkpt lat="40.54838" lon="-8.41217">
        <ele>114.681</ele>
        <time>2020-09-27T17:04:14Z</time>
      </trkpt>
      <trkpt lat="40.54859" lon="-8.4125">
        <ele>118.309</ele>
        <time>2020-09-27T17:04:15Z</time>
      </trkpt>
      <trkpt lat="40.5488" lon="-8.41283">
        <ele>119.208</ele>
        <time>2020-09-27T17:04:16Z</time>
      </trkpt>
      <trkpt lat="40.54921" lon="-8.41349">
        <ele>118.759</ele>
        <time>2020-09-27T17:04:18Z</time>
      </trkpt>
      <trkpt lat="40.54941" lon="-8.41382">
        <ele>118.011</ele>
        <time>2020-09-27T17:04:19Z</time>
      </trkpt>
      <trkpt lat="40.54982" lon="-8.41447">
        <ele>117.259</ele>
        <time>2020-09-27T17:04:21Z</time>
      </trkpt>
      <trkpt lat="40.55022" lon="-8.41512">
        <ele>116.741</ele>
        <time>2020-09-27T17:04:23Z</time>
      </trkpt>
      <trkpt lat="40.55042" lon="-8.41544">
        <ele>116.399</ele>
        <time>2020-09-27T17:04:24Z</time>
      </trkpt>
      <trkpt lat="40.55078" lon="-8.41603">
        <ele>115.899</ele>
        <time>2020-09-27T17:04:26Z</time>
      </trkpt>
      <trkpt lat="40.5511" lon="-8.41664">
        <ele>115.759</ele>
        <time>2020-09-27T17:04:28Z</time>
      </trkpt>
      <trkpt lat="40.55122" lon="-8.41697">
        <ele>115.717</ele>
        <time>2020-09-27T17:04:29Z</time>
      </trkpt>
      <trkpt lat="40.55129" lon="-8.41733">
        <ele>115.728</ele>
        <time>2020-09-27T17:04:30Z</time>
      </trkpt>
      <trkpt lat="40.55134" lon="-8.41812">
        <ele>115.889</ele>
        <time>2020-09-27T17:04:32Z</time>
      </trkpt>
      <trkpt lat="40.55134" lon="-8.41853">
        <ele>115.617</ele>
        <time>2020-09-27T17:04:33Z</time>
      </trkpt>
      <trkpt lat="40.55132" lon="-8.41894">
        <ele>115.808</ele>
        <time>2020-09-27T17:04:34Z</time>
      </trkpt>
      <trkpt lat="40.55131" lon="-8.41936">
        <ele>115.827</ele>
        <time>2020-09-27T17:04:35Z</time>
      </trkpt>
      <trkpt lat="40.55129" lon="-8.42013">
        <ele>115.869</ele>
        <time>2020-09-27T17:04:37Z</time>
      </trkpt>
      <trkpt lat="40.55128" lon="-8.4208">
        <ele>115.537</ele>
        <time>2020-09-27T17:04:39Z</time>
      </trkpt>
      <trkpt lat="40.55123" lon="-8.42142">
        <ele>115.919</ele>
        <time>2020-09-27T17:04:41Z</time>
      </trkpt>
      <trkpt lat="40.55116" lon="-8.42174">
        <ele>116.277</ele>
        <time>2020-09-27T17:04:42Z</time>
      </trkpt>
      <trkpt lat="40.55106" lon="-8.42207">
        <ele>116.387</ele>
        <time>2020-09-27T17:04:43Z</time>
      </trkpt>
      <trkpt lat="40.55082" lon="-8.42272">
        <ele>116.047</ele>
        <time>2020-09-27T17:04:45Z</time>
      </trkpt>
      <trkpt lat="40.55069" lon="-8.42306">
        <ele>115.975</ele>
        <time>2020-09-27T17:04:46Z</time>
      </trkpt>
      <trkpt lat="40.55057" lon="-8.42341">
        <ele>115.992</ele>
        <time>2020-09-27T17:04:47Z</time>
      </trkpt>
      <trkpt lat="40.55033" lon="-8.42412">
        <ele>115.973</ele>
        <time>2020-09-27T17:04:49Z</time>
      </trkpt>
      <trkpt lat="40.5501" lon="-8.42482">
        <ele>115.62</ele>
        <time>2020-09-27T17:04:51Z</time>
      </trkpt>
      <trkpt lat="40.54987" lon="-8.4255">
        <ele>116.108</ele>
        <time>2020-09-27T17:04:53Z</time>
      </trkpt>
      <trkpt lat="40.54966" lon="-8.42612">
        <ele>115.814</ele>
        <time>2020-09-27T17:04:55Z</time>
      </trkpt>
      <trkpt lat="40.54948" lon="-8.42666">
        <ele>115.456</ele>
        <time>2020-09-27T17:04:57Z</time>
      </trkpt>
      <trkpt lat="40.54932" lon="-8.42715">
        <ele>114.884</ele>
        <time>2020-09-27T17:04:59Z</time>
      </trkpt>
      <trkpt lat="40.54917" lon="-8.4276">
        <ele>114.346</ele>
        <time>2020-09-27T17:05:01Z</time>
      </trkpt>
      <trkpt lat="40.54904" lon="-8.428">
        <ele>114.094</ele>
        <time>2020-09-27T17:05:03Z</time>
      </trkpt>
      <trkpt lat="40.54892" lon="-8.42838">
        <ele>113.994</ele>
        <time>2020-09-27T17:05:05Z</time>
      </trkpt>
      <trkpt lat="40.54882" lon="-8.42869">
        <ele>113.844</ele>
        <time>2020-09-27T17:05:07Z</time>
      </trkpt>
      <trkpt lat="40.54885" lon="-8.42894">
        <ele>113.462</ele>
        <time>2020-09-27T17:05:09Z</time>
      </trkpt>
      <trkpt lat="40.54904" lon="-8.42911">
        <ele>113.381</ele>
        <time>2020-09-27T17:05:11Z</time>
      </trkpt>
      <trkpt lat="40.54918" lon="-8.42919">
        <ele>113.461</ele>
        <time>2020-09-27T17:05:12Z</time>
      </trkpt>
      <trkpt lat="40.54952" lon="-8.42938">
        <ele>113.717</ele>
        <time>2020-09-27T17:05:14Z</time>
      </trkpt>
      <trkpt lat="40.54985" lon="-8.42968">
        <ele>113.908</ele>
        <time>2020-09-27T17:05:16Z</time>
      </trkpt>
      <trkpt lat="40.55003" lon="-8.42989">
        <ele>114.243</ele>
        <time>2020-09-27T17:05:17Z</time>
      </trkpt>
      <trkpt lat="40.5502" lon="-8.43009">
        <ele>114.365</ele>
        <time>2020-09-27T17:05:18Z</time>
      </trkpt>
      <trkpt lat="40.55051" lon="-8.43045">
        <ele>114.113</ele>
        <time>2020-09-27T17:05:20Z</time>
      </trkpt>
      <trkpt lat="40.55066" lon="-8.43063">
        <ele>114.095</ele>
        <time>2020-09-27T17:05:21Z</time>
      </trkpt>
      <trkpt lat="40.5508" lon="-8.43082">
        <ele>113.463</ele>
        <time>2020-09-27T17:05:22Z</time>
      </trkpt>
      <trkpt lat="40.55106" lon="-8.43121">
        <ele>112.793</ele>
        <time>2020-09-27T17:05:24Z</time>
      </trkpt>
      <trkpt lat="40.55131" lon="-8.43159">
        <ele>111.463</ele>
        <time>2020-09-27T17:05:26Z</time>
      </trkpt>
      <trkpt lat="40.55143" lon="-8.4318">
        <ele>110.371</ele>
        <time>2020-09-27T17:05:27Z</time>
      </trkpt>
      <trkpt lat="40.55155" lon="-8.432">
        <ele>109.583</ele>
        <time>2020-09-27T17:05:28Z</time>
      </trkpt>
      <trkpt lat="40.55178" lon="-8.43238">
        <ele>108.825</ele>
        <time>2020-09-27T17:05:30Z</time>
      </trkpt>
      <trkpt lat="40.55194" lon="-8.43253">
        <ele>108.517</ele>
        <time>2020-09-27T17:05:31Z</time>
      </trkpt>
      <trkpt lat="40.55212" lon="-8.43266">
        <ele>108.008</ele>
        <time>2020-09-27T17:05:32Z</time>
      </trkpt>
      <trkpt lat="40.55231" lon="-8.43275">
        <ele>108.733</ele>
        <time>2020-09-27T17:05:33Z</time>
      </trkpt>
      <trkpt lat="40.5525" lon="-8.43282">
        <ele>109.065</ele>
        <time>2020-09-27T17:05:34Z</time>
      </trkpt>
      <trkpt lat="40.55284" lon="-8.43294">
        <ele>109.183</ele>
        <time>2020-09-27T17:05:36Z</time>
      </trkpt>
      <trkpt lat="40.55301" lon="-8.433">
        <ele>109.115</ele>
        <time>2020-09-27T17:05:37Z</time>
      </trkpt>
      <trkpt lat="40.55332" lon="-8.43314">
        <ele>109.163</ele>
        <time>2020-09-27T17:05:39Z</time>
      </trkpt>
      <trkpt lat="40.55363" lon="-8.43329">
        <ele>108.783</ele>
        <time>2020-09-27T17:05:41Z</time>
      </trkpt>
      <trkpt lat="40.5538" lon="-8.43336">
        <ele>108.273</ele>
        <time>2020-09-27T17:05:42Z</time>
      </trkpt>
      <trkpt lat="40.55398" lon="-8.43341">
        <ele>107.531</ele>
        <time>2020-09-27T17:05:43Z</time>
      </trkpt>
      <trkpt lat="40.55437" lon="-8.43344">
        <ele>106.496</ele>
        <time>2020-09-27T17:05:45Z</time>
      </trkpt>
      <trkpt lat="40.55457" lon="-8.43344">
        <ele>105.231</ele>
        <time>2020-09-27T17:05:46Z</time>
      </trkpt>
      <trkpt lat="40.55499" lon="-8.43343">
        <ele>103.724</ele>
        <time>2020-09-27T17:05:48Z</time>
      </trkpt>
      <trkpt lat="40.55541" lon="-8.43347">
        <ele>101.708</ele>
        <time>2020-09-27T17:05:50Z</time>
      </trkpt>
      <trkpt lat="40.55574" lon="-8.43351">
        <ele>99.934</ele>
        <time>2020-09-27T17:05:52Z</time>
      </trkpt>
      <trkpt lat="40.55587" lon="-8.43354">
        <ele>98.796</ele>
        <time>2020-09-27T17:05:53Z</time>
      </trkpt>
      <trkpt lat="40.55605" lon="-8.4336">
        <ele>97.354</ele>
        <time>2020-09-27T17:05:55Z</time>
      </trkpt>
      <trkpt lat="40.55619" lon="-8.43379">
        <ele>96.036</ele>
        <time>2020-09-27T17:05:57Z</time>
      </trkpt>
      <trkpt lat="40.55627" lon="-8.43392">
        <ele>95.134</ele>
        <time>2020-09-27T17:05:58Z</time>
      </trkpt>
      <trkpt lat="40.55645" lon="-8.4341">
        <ele>94.084</ele>
        <time>2020-09-27T17:06:00Z</time>
      </trkpt>
      <trkpt lat="40.55658" lon="-8.43412">
        <ele>92.974</ele>
        <time>2020-09-27T17:06:01Z</time>
      </trkpt>
      <trkpt lat="40.55688" lon="-8.43415">
        <ele>91.672</ele>
        <time>2020-09-27T17:06:03Z</time>
      </trkpt>
      <trkpt lat="40.55716" lon="-8.43421">
        <ele>89.364</ele>
        <time>2020-09-27T17:06:05Z</time>
      </trkpt>
      <trkpt lat="40.5574" lon="-8.43433">
        <ele>86.906</ele>
        <time>2020-09-27T17:06:07Z</time>
      </trkpt>
      <trkpt lat="40.55751" lon="-8.43441">
        <ele>85.116</ele>
        <time>2020-09-27T17:06:08Z</time>
      </trkpt>
      <trkpt lat="40.55762" lon="-8.43448">
        <ele>83.608</ele>
        <time>2020-09-27T17:06:09Z</time>
      </trkpt>
      <trkpt lat="40.55773" lon="-8.43456">
        <ele>82.251</ele>
        <time>2020-09-27T17:06:10Z</time>
      </trkpt>
      <trkpt lat="40.55794" lon="-8.43469">
        <ele>80.983</ele>
        <time>2020-09-27T17:06:12Z</time>
      </trkpt>
      <trkpt lat="40.55806" lon="-8.43473">
        <ele>79.971</ele>
        <time>2020-09-27T17:06:13Z</time>
      </trkpt>
      <trkpt lat="40.55818" lon="-8.43477">
        <ele>78.983</ele>
        <time>2020-09-27T17:06:14Z</time>
      </trkpt>
      <trkpt lat="40.55832" lon="-8.43481">
        <ele>77.751</ele>
        <time>2020-09-27T17:06:15Z</time>
      </trkpt>
      <trkpt lat="40.55861" lon="-8.4349">
        <ele>75.731</ele>
        <time>2020-09-27T17:06:17Z</time>
      </trkpt>
      <trkpt lat="40.55888" lon="-8.43503">
        <ele>73.471</ele>
        <time>2020-09-27T17:06:19Z</time>
      </trkpt>
      <trkpt lat="40.55917" lon="-8.4354">
        <ele>69.187</ele>
        <time>2020-09-27T17:06:22Z</time>
      </trkpt>
      <trkpt lat="40.5593" lon="-8.43572">
        <ele>65.826</ele>
        <time>2020-09-27T17:06:24Z</time>
      </trkpt>
      <trkpt lat="40.55965" lon="-8.43633">
        <ele>61.593</ele>
        <time>2020-09-27T17:06:28Z</time>
      </trkpt>
      <trkpt lat="40.55992" lon="-8.43671">
        <ele>58.633</ele>
        <time>2020-09-27T17:06:31Z</time>
      </trkpt>
      <trkpt lat="40.56017" lon="-8.43705">
        <ele>57.843</ele>
        <time>2020-09-27T17:06:34Z</time>
      </trkpt>
      <trkpt lat="40.56039" lon="-8.43735">
        <ele>57.533</ele>
        <time>2020-09-27T17:06:37Z</time>
      </trkpt>
      <trkpt lat="40.56051" lon="-8.43765">
        <ele>57.382</ele>
        <time>2020-09-27T17:06:40Z</time>
      </trkpt>
      <trkpt lat="40.56055" lon="-8.43784">
        <ele>57.117</ele>
        <time>2020-09-27T17:06:42Z</time>
      </trkpt>
      <trkpt lat="40.5606" lon="-8.438">
        <ele>60.183</ele>
        <time>2020-09-27T17:06:44Z</time>
      </trkpt>
      <trkpt lat="40.56066" lon="-8.43823">
        <ele>59.263</ele>
        <time>2020-09-27T17:06:47Z</time>
      </trkpt>
      <trkpt lat="40.56068" lon="-8.43848">
        <ele>56.733</ele>
        <time>2020-09-27T17:06:50Z</time>
      </trkpt>
      <trkpt lat="40.56069" lon="-8.43866">
        <ele>54.763</ele>
        <time>2020-09-27T17:06:52Z</time>
      </trkpt>
      <trkpt lat="40.56078" lon="-8.43905">
        <ele>51.539</ele>
        <time>2020-09-27T17:06:56Z</time>
      </trkpt>
      <trkpt lat="40.56078" lon="-8.43938">
        <ele>48.521</ele>
        <time>2020-09-27T17:06:59Z</time>
      </trkpt>
      <trkpt lat="40.5607" lon="-8.43975">
        <ele>49.298</ele>
        <time>2020-09-27T17:07:02Z</time>
      </trkpt>
      <trkpt lat="40.56062" lon="-8.44014">
        <ele>48.018</ele>
        <time>2020-09-27T17:07:05Z</time>
      </trkpt>
      <trkpt lat="40.56061" lon="-8.44036">
        <ele>47.298</ele>
        <time>2020-09-27T17:07:07Z</time>
      </trkpt>
      <trkpt lat="40.56084" lon="-8.4407">
        <ele>47.678</ele>
        <time>2020-09-27T17:07:11Z</time>
      </trkpt>
      <trkpt lat="40.56117" lon="-8.44104">
        <ele>48.495</ele>
        <time>2020-09-27T17:07:15Z</time>
      </trkpt>
      <trkpt lat="40.5614" lon="-8.44157">
        <ele>49.423</ele>
        <time>2020-09-27T17:07:19Z</time>
      </trkpt>
      <trkpt lat="40.56151" lon="-8.44206">
        <ele>49.654</ele>
        <time>2020-09-27T17:07:22Z</time>
      </trkpt>
      <trkpt lat="40.56167" lon="-8.44247">
        <ele>49.694</ele>
        <time>2020-09-27T17:07:25Z</time>
      </trkpt>
      <trkpt lat="40.56191" lon="-8.44273">
        <ele>49.554</ele>
        <time>2020-09-27T17:07:28Z</time>
      </trkpt>
      <trkpt lat="40.56222" lon="-8.44287">
        <ele>49.484</ele>
        <time>2020-09-27T17:07:31Z</time>
      </trkpt>
      <trkpt lat="40.56258" lon="-8.44295">
        <ele>48.793</ele>
        <time>2020-09-27T17:07:34Z</time>
      </trkpt>
      <trkpt lat="40.56303" lon="-8.44323">
        <ele>47.721</ele>
        <time>2020-09-27T17:07:38Z</time>
      </trkpt>
      <trkpt lat="40.56332" lon="-8.44361">
        <ele>46.544</ele>
        <time>2020-09-27T17:07:41Z</time>
      </trkpt>
      <trkpt lat="40.56366" lon="-8.44409">
        <ele>45.514</ele>
        <time>2020-09-27T17:07:45Z</time>
      </trkpt>
      <trkpt lat="40.56409" lon="-8.44437">
        <ele>49.194</ele>
        <time>2020-09-27T17:07:49Z</time>
      </trkpt>
      <trkpt lat="40.56454" lon="-8.44451">
        <ele>49.054</ele>
        <time>2020-09-27T17:07:52Z</time>
      </trkpt>
      <trkpt lat="40.5649" lon="-8.44499">
        <ele>46.873</ele>
        <time>2020-09-27T17:07:55Z</time>
      </trkpt>
      <trkpt lat="40.56525" lon="-8.44564">
        <ele>44.813</ele>
        <time>2020-09-27T17:07:59Z</time>
      </trkpt>
      <trkpt lat="40.56549" lon="-8.44608">
        <ele>43.922</ele>
        <time>2020-09-27T17:08:02Z</time>
      </trkpt>
      <trkpt lat="40.56573" lon="-8.44647">
        <ele>43.422</ele>
        <time>2020-09-27T17:08:05Z</time>
      </trkpt>
      <trkpt lat="40.56592" lon="-8.44678">
        <ele>42.422</ele>
        <time>2020-09-27T17:08:08Z</time>
      </trkpt>
      <trkpt lat="40.56611" lon="-8.44692">
        <ele>41.812</ele>
        <time>2020-09-27T17:08:11Z</time>
      </trkpt>
      <trkpt lat="40.56621" lon="-8.44694">
        <ele>41.098</ele>
        <time>2020-09-27T17:08:14Z</time>
      </trkpt>
      <trkpt lat="40.56627" lon="-8.44699">
        <ele>40.226</ele>
        <time>2020-09-27T17:09:14Z</time>
      </trkpt>
      <trkpt lat="40.56617" lon="-8.44698">
        <ele>39.974</ele>
        <time>2020-09-27T17:09:18Z</time>
      </trkpt>
      <trkpt lat="40.56605" lon="-8.44703">
        <ele>39.874</ele>
        <time>2020-09-27T17:09:21Z</time>
      </trkpt>
      <trkpt lat="40.56618" lon="-8.44744">
        <ele>40.444</ele>
        <time>2020-09-27T17:09:25Z</time>
      </trkpt>
      <trkpt lat="40.56637" lon="-8.4479">
        <ele>41.494</ele>
        <time>2020-09-27T17:09:29Z</time>
      </trkpt>
      <trkpt lat="40.56637" lon="-8.44809">
        <ele>41.899</ele>
        <time>2020-09-27T17:09:32Z</time>
      </trkpt>
      <trkpt lat="40.56619" lon="-8.44841">
        <ele>42.327</ele>
        <time>2020-09-27T17:09:35Z</time>
      </trkpt>
      <trkpt lat="40.56608" lon="-8.44869">
        <ele>42.914</ele>
        <time>2020-09-27T17:09:38Z</time>
      </trkpt>
      <trkpt lat="40.56617" lon="-8.44898">
        <ele>43.214</ele>
        <time>2020-09-27T17:09:41Z</time>
      </trkpt>
      <trkpt lat="40.5665" lon="-8.4493">
        <ele>42.824</ele>
        <time>2020-09-27T17:09:45Z</time>
      </trkpt>
      <trkpt lat="40.5668" lon="-8.44972">
        <ele>42.184</ele>
        <time>2020-09-27T17:09:49Z</time>
      </trkpt>
      <trkpt lat="40.56692" lon="-8.44997">
        <ele>41.512</ele>
        <time>2020-09-27T17:09:51Z</time>
      </trkpt>
      <trkpt lat="40.56726" lon="-8.45037">
        <ele>41.805</ele>
        <time>2020-09-27T17:09:55Z</time>
      </trkpt>
      <trkpt lat="40.56752" lon="-8.4507">
        <ele>42.196</ele>
        <time>2020-09-27T17:09:58Z</time>
      </trkpt>
      <trkpt lat="40.56801" lon="-8.45102">
        <ele>42.796</ele>
        <time>2020-09-27T17:10:02Z</time>
      </trkpt>
      <trkpt lat="40.56843" lon="-8.45088">
        <ele>44.866</ele>
        <time>2020-09-27T17:10:05Z</time>
      </trkpt>
      <trkpt lat="40.56887" lon="-8.4504">
        <ele>45.726</ele>
        <time>2020-09-27T17:10:09Z</time>
      </trkpt>
      <trkpt lat="40.56922" lon="-8.45005">
        <ele>46.015</ele>
        <time>2020-09-27T17:10:12Z</time>
      </trkpt>
      <trkpt lat="40.56952" lon="-8.44975">
        <ele>45.511</ele>
        <time>2020-09-27T17:10:15Z</time>
      </trkpt>
      <trkpt lat="40.56979" lon="-8.44949">
        <ele>45.536</ele>
        <time>2020-09-27T17:10:18Z</time>
      </trkpt>
      <trkpt lat="40.56994" lon="-8.44932">
        <ele>48.186</ele>
        <time>2020-09-27T17:10:20Z</time>
      </trkpt>
      <trkpt lat="40.57019" lon="-8.44906">
        <ele>47.196</ele>
        <time>2020-09-27T17:10:23Z</time>
      </trkpt>
      <trkpt lat="40.57048" lon="-8.44877">
        <ele>46.456</ele>
        <time>2020-09-27T17:10:26Z</time>
      </trkpt>
      <trkpt lat="40.57084" lon="-8.44844">
        <ele>46.185</ele>
        <time>2020-09-27T17:10:29Z</time>
      </trkpt>
      <trkpt lat="40.57139" lon="-8.44814">
        <ele>47.317</ele>
        <time>2020-09-27T17:10:33Z</time>
      </trkpt>
      <trkpt lat="40.5716" lon="-8.44804">
        <ele>48.293</ele>
        <time>2020-09-27T17:10:35Z</time>
      </trkpt>
      <trkpt lat="40.57179" lon="-8.44793">
        <ele>48.933</ele>
        <time>2020-09-27T17:10:40Z</time>
      </trkpt>
      <trkpt lat="40.57191" lon="-8.44782">
        <ele>48.753</ele>
        <time>2020-09-27T17:10:44Z</time>
      </trkpt>
      <trkpt lat="40.57205" lon="-8.44776">
        <ele>48.113</ele>
        <time>2020-09-27T17:10:47Z</time>
      </trkpt>
      <trkpt lat="40.57227" lon="-8.4479">
        <ele>47.995</ele>
        <time>2020-09-27T17:10:50Z</time>
      </trkpt>
      <trkpt lat="40.57263" lon="-8.448">
        <ele>48.723</ele>
        <time>2020-09-27T17:10:53Z</time>
      </trkpt>
      <trkpt lat="40.57305" lon="-8.44809">
        <ele>49.974</ele>
        <time>2020-09-27T17:10:56Z</time>
      </trkpt>
      <trkpt lat="40.57364" lon="-8.44803">
        <ele>52.664</ele>
        <time>2020-09-27T17:11:00Z</time>
      </trkpt>
      <trkpt lat="40.57419" lon="-8.44798">
        <ele>55.884</ele>
        <time>2020-09-27T17:11:04Z</time>
      </trkpt>
      <trkpt lat="40.57459" lon="-8.44797">
        <ele>58.364</ele>
        <time>2020-09-27T17:11:07Z</time>
      </trkpt>
      <trkpt lat="40.57504" lon="-8.44808">
        <ele>60.485</ele>
        <time>2020-09-27T17:11:11Z</time>
      </trkpt>
      <trkpt lat="40.57545" lon="-8.44812">
        <ele>62.017</ele>
        <time>2020-09-27T17:11:14Z</time>
      </trkpt>
      <trkpt lat="40.57592" lon="-8.44814">
        <ele>63.453</ele>
        <time>2020-09-27T17:11:17Z</time>
      </trkpt>
      <trkpt lat="40.57617" lon="-8.44817">
        <ele>65.063</ele>
        <time>2020-09-27T17:11:19Z</time>
      </trkpt>
      <trkpt lat="40.5763" lon="-8.4482">
        <ele>66.183</ele>
        <time>2020-09-27T17:11:21Z</time>
      </trkpt>
      <trkpt lat="40.57639" lon="-8.44841">
        <ele>67.113</ele>
        <time>2020-09-27T17:11:24Z</time>
      </trkpt>
      <trkpt lat="40.57636" lon="-8.44884">
        <ele>68.134</ele>
        <time>2020-09-27T17:11:27Z</time>
      </trkpt>
      <trkpt lat="40.5764" lon="-8.44908">
        <ele>68.91</ele>
        <time>2020-09-27T17:11:30Z</time>
      </trkpt>
      <trkpt lat="40.57678" lon="-8.44929">
        <ele>69.968</ele>
        <time>2020-09-27T17:11:33Z</time>
      </trkpt>
      <trkpt lat="40.57724" lon="-8.44962">
        <ele>71.288</ele>
        <time>2020-09-27T17:11:36Z</time>
      </trkpt>
      <trkpt lat="40.57789" lon="-8.45008">
        <ele>73.138</ele>
        <time>2020-09-27T17:11:40Z</time>
      </trkpt>
      <trkpt lat="40.57836" lon="-8.45039">
        <ele>75.048</ele>
        <time>2020-09-27T17:11:43Z</time>
      </trkpt>
      <trkpt lat="40.57882" lon="-8.45069">
        <ele>77.268</ele>
        <time>2020-09-27T17:11:46Z</time>
      </trkpt>
      <trkpt lat="40.57915" lon="-8.45087">
        <ele>79.126</ele>
        <time>2020-09-27T17:11:48Z</time>
      </trkpt>
      <trkpt lat="40.57995" lon="-8.4509">
        <ele>81.631</ele>
        <time>2020-09-27T17:11:52Z</time>
      </trkpt>
      <trkpt lat="40.58066" lon="-8.45085">
        <ele>83.951</ele>
        <time>2020-09-27T17:11:55Z</time>
      </trkpt>
      <trkpt lat="40.58147" lon="-8.4508">
        <ele>86.961</ele>
        <time>2020-09-27T17:11:58Z</time>
      </trkpt>
      <trkpt lat="40.582" lon="-8.45077">
        <ele>89.541</ele>
        <time>2020-09-27T17:12:00Z</time>
      </trkpt>
      <trkpt lat="40.58253" lon="-8.45068">
        <ele>92.063</ele>
        <time>2020-09-27T17:12:02Z</time>
      </trkpt>
      <trkpt lat="40.5835" lon="-8.45018">
        <ele>94.418</ele>
        <time>2020-09-27T17:12:06Z</time>
      </trkpt>
      <trkpt lat="40.58422" lon="-8.44971">
        <ele>94.641</ele>
        <time>2020-09-27T17:12:09Z</time>
      </trkpt>
      <trkpt lat="40.58498" lon="-8.44928">
        <ele>97.021</ele>
        <time>2020-09-27T17:12:12Z</time>
      </trkpt>
      <trkpt lat="40.58578" lon="-8.44903">
        <ele>100.491</ele>
        <time>2020-09-27T17:12:15Z</time>
      </trkpt>
      <trkpt lat="40.58634" lon="-8.44903">
        <ele>102.671</ele>
        <time>2020-09-27T17:12:17Z</time>
      </trkpt>
      <trkpt lat="40.58719" lon="-8.44925">
        <ele>104.564</ele>
        <time>2020-09-27T17:12:20Z</time>
      </trkpt>
      <trkpt lat="40.588" lon="-8.44968">
        <ele>106.916</ele>
        <time>2020-09-27T17:12:23Z</time>
      </trkpt>
      <trkpt lat="40.58849" lon="-8.45009">
        <ele>108.421</ele>
        <time>2020-09-27T17:12:25Z</time>
      </trkpt>
      <trkpt lat="40.58911" lon="-8.4508">
        <ele>109.631</ele>
        <time>2020-09-27T17:12:28Z</time>
      </trkpt>
      <trkpt lat="40.58972" lon="-8.45156">
        <ele>110.491</ele>
        <time>2020-09-27T17:12:32Z</time>
      </trkpt>
      <trkpt lat="40.59022" lon="-8.45215">
        <ele>110.731</ele>
        <time>2020-09-27T17:12:36Z</time>
      </trkpt>
      <trkpt lat="40.59042" lon="-8.45238">
        <ele>110.985</ele>
        <time>2020-09-27T17:12:38Z</time>
      </trkpt>
      <trkpt lat="40.59058" lon="-8.45258">
        <ele>111.717</ele>
        <time>2020-09-27T17:12:41Z</time>
      </trkpt>
      <trkpt lat="40.5907" lon="-8.45271">
        <ele>111.743</ele>
        <time>2020-09-27T17:13:09Z</time>
      </trkpt>
      <trkpt lat="40.59079" lon="-8.45283">
        <ele>112.023</ele>
        <time>2020-09-27T17:13:11Z</time>
      </trkpt>
      <trkpt lat="40.59095" lon="-8.45302">
        <ele>112.343</ele>
        <time>2020-09-27T17:13:14Z</time>
      </trkpt>
      <trkpt lat="40.59121" lon="-8.45336">
        <ele>112.653</ele>
        <time>2020-09-27T17:13:18Z</time>
      </trkpt>
      <trkpt lat="40.59136" lon="-8.45355">
        <ele>112.987</ele>
        <time>2020-09-27T17:13:20Z</time>
      </trkpt>
      <trkpt lat="40.59171" lon="-8.45396">
        <ele>113.526</ele>
        <time>2020-09-27T17:13:24Z</time>
      </trkpt>
      <trkpt lat="40.59189" lon="-8.45419">
        <ele>113.843</ele>
        <time>2020-09-27T17:13:26Z</time>
      </trkpt>
      <trkpt lat="40.59205" lon="-8.45438">
        <ele>114.393</ele>
        <time>2020-09-27T17:13:28Z</time>
      </trkpt>
      <trkpt lat="40.59237" lon="-8.45479">
        <ele>115.023</ele>
        <time>2020-09-27T17:13:32Z</time>
      </trkpt>
      <trkpt lat="40.59255" lon="-8.45501">
        <ele>115.283</ele>
        <time>2020-09-27T17:13:34Z</time>
      </trkpt>
      <trkpt lat="40.59294" lon="-8.45544">
        <ele>115.851</ele>
        <time>2020-09-27T17:13:38Z</time>
      </trkpt>
      <trkpt lat="40.59312" lon="-8.45561">
        <ele>114.401</ele>
        <time>2020-09-27T17:13:40Z</time>
      </trkpt>
      <trkpt lat="40.59331" lon="-8.45578">
        <ele>114.611</ele>
        <time>2020-09-27T17:13:42Z</time>
      </trkpt>
      <trkpt lat="40.59349" lon="-8.45593">
        <ele>115.008</ele>
        <time>2020-09-27T17:13:44Z</time>
      </trkpt>
      <trkpt lat="40.59366" lon="-8.45608">
        <ele>115.49</ele>
        <time>2020-09-27T17:13:46Z</time>
      </trkpt>
      <trkpt lat="40.59375" lon="-8.45615">
        <ele>115.792</ele>
        <time>2020-09-27T17:13:47Z</time>
      </trkpt>
      <trkpt lat="40.59393" lon="-8.45631">
        <ele>115.94</ele>
        <time>2020-09-27T17:13:49Z</time>
      </trkpt>
      <trkpt lat="40.59412" lon="-8.45646">
        <ele>116.152</ele>
        <time>2020-09-27T17:13:51Z</time>
      </trkpt>
      <trkpt lat="40.59428" lon="-8.45661">
        <ele>116.34</ele>
        <time>2020-09-27T17:13:53Z</time>
      </trkpt>
      <trkpt lat="40.59442" lon="-8.45672">
        <ele>116.67</ele>
        <time>2020-09-27T17:13:55Z</time>
      </trkpt>
      <trkpt lat="40.59447" lon="-8.45676">
        <ele>116.87</ele>
        <time>2020-09-27T17:13:56Z</time>
      </trkpt>
      <trkpt lat="40.59452" lon="-8.45679">
        <ele>117.058</ele>
        <time>2020-09-27T17:13:57Z</time>
      </trkpt>
      <trkpt lat="40.59456" lon="-8.4568">
        <ele>117.079</ele>
        <time>2020-09-27T17:13:58Z</time>
      </trkpt>
      <trkpt lat="40.59466" lon="-8.45682">
        <ele>117.105</ele>
        <time>2020-09-27T17:14:00Z</time>
      </trkpt>
      <trkpt lat="40.59473" lon="-8.45684">
        <ele>117.225</ele>
        <time>2020-09-27T17:14:01Z</time>
      </trkpt>
      <trkpt lat="40.59486" lon="-8.45696">
        <ele>117.108</ele>
        <time>2020-09-27T17:14:03Z</time>
      </trkpt>
      <trkpt lat="40.59502" lon="-8.45719">
        <ele>117.162</ele>
        <time>2020-09-27T17:14:05Z</time>
      </trkpt>
      <trkpt lat="40.59512" lon="-8.45729">
        <ele>117.114</ele>
        <time>2020-09-27T17:14:06Z</time>
      </trkpt>
      <trkpt lat="40.59535" lon="-8.45748">
        <ele>117.212</ele>
        <time>2020-09-27T17:14:08Z</time>
      </trkpt>
      <trkpt lat="40.59559" lon="-8.45769">
        <ele>117.144</ele>
        <time>2020-09-27T17:14:10Z</time>
      </trkpt>
      <trkpt lat="40.59572" lon="-8.4578">
        <ele>117.192</ele>
        <time>2020-09-27T17:14:11Z</time>
      </trkpt>
      <trkpt lat="40.59599" lon="-8.45804">
        <ele>117.262</ele>
        <time>2020-09-27T17:14:13Z</time>
      </trkpt>
      <trkpt lat="40.59613" lon="-8.45817">
        <ele>117.242</ele>
        <time>2020-09-27T17:14:14Z</time>
      </trkpt>
      <trkpt lat="40.59643" lon="-8.45842">
        <ele>117.08</ele>
        <time>2020-09-27T17:14:16Z</time>
      </trkpt>
      <trkpt lat="40.59658" lon="-8.45855">
        <ele>116.996</ele>
        <time>2020-09-27T17:14:17Z</time>
      </trkpt>
      <trkpt lat="40.59674" lon="-8.45867">
        <ele>116.931</ele>
        <time>2020-09-27T17:14:18Z</time>
      </trkpt>
      <trkpt lat="40.59706" lon="-8.45893">
        <ele>116.924</ele>
        <time>2020-09-27T17:14:20Z</time>
      </trkpt>
      <trkpt lat="40.59739" lon="-8.45921">
        <ele>116.908</ele>
        <time>2020-09-27T17:14:22Z</time>
      </trkpt>
      <trkpt lat="40.59771" lon="-8.45948">
        <ele>116.724</ele>
        <time>2020-09-27T17:14:24Z</time>
      </trkpt>
      <trkpt lat="40.59787" lon="-8.45962">
        <ele>116.616</ele>
        <time>2020-09-27T17:14:25Z</time>
      </trkpt>
      <trkpt lat="40.59804" lon="-8.45976">
        <ele>116.774</ele>
        <time>2020-09-27T17:14:26Z</time>
      </trkpt>
      <trkpt lat="40.59821" lon="-8.45991">
        <ele>116.666</ele>
        <time>2020-09-27T17:14:27Z</time>
      </trkpt>
      <trkpt lat="40.59855" lon="-8.4602">
        <ele>116.464</ele>
        <time>2020-09-27T17:14:29Z</time>
      </trkpt>
      <trkpt lat="40.59872" lon="-8.46034">
        <ele>116.254</ele>
        <time>2020-09-27T17:14:30Z</time>
      </trkpt>
      <trkpt lat="40.59906" lon="-8.46062">
        <ele>115.854</ele>
        <time>2020-09-27T17:14:32Z</time>
      </trkpt>
      <trkpt lat="40.59923" lon="-8.46076">
        <ele>115.492</ele>
        <time>2020-09-27T17:14:33Z</time>
      </trkpt>
      <trkpt lat="40.59957" lon="-8.46105">
        <ele>115.088</ele>
        <time>2020-09-27T17:14:35Z</time>
      </trkpt>
      <trkpt lat="40.59991" lon="-8.46134">
        <ele>114.424</ele>
        <time>2020-09-27T17:14:37Z</time>
      </trkpt>
      <trkpt lat="40.60008" lon="-8.46149">
        <ele>114.026</ele>
        <time>2020-09-27T17:14:38Z</time>
      </trkpt>
      <trkpt lat="40.60044" lon="-8.46179">
        <ele>113.508</ele>
        <time>2020-09-27T17:14:40Z</time>
      </trkpt>
      <trkpt lat="40.60081" lon="-8.46207">
        <ele>113.233</ele>
        <time>2020-09-27T17:14:42Z</time>
      </trkpt>
      <trkpt lat="40.601" lon="-8.46222">
        <ele>113.065</ele>
        <time>2020-09-27T17:14:43Z</time>
      </trkpt>
      <trkpt lat="40.60136" lon="-8.46253">
        <ele>112.923</ele>
        <time>2020-09-27T17:14:45Z</time>
      </trkpt>
      <trkpt lat="40.60154" lon="-8.46269">
        <ele>112.635</ele>
        <time>2020-09-27T17:14:46Z</time>
      </trkpt>
      <trkpt lat="40.60173" lon="-8.46285">
        <ele>112.483</ele>
        <time>2020-09-27T17:14:47Z</time>
      </trkpt>
      <trkpt lat="40.6021" lon="-8.46317">
        <ele>111.993</ele>
        <time>2020-09-27T17:14:49Z</time>
      </trkpt>
      <trkpt lat="40.60229" lon="-8.46333">
        <ele>111.673</ele>
        <time>2020-09-27T17:14:50Z</time>
      </trkpt>
      <trkpt lat="40.60267" lon="-8.46365">
        <ele>111.331</ele>
        <time>2020-09-27T17:14:52Z</time>
      </trkpt>
      <trkpt lat="40.60305" lon="-8.46397">
        <ele>110.986</ele>
        <time>2020-09-27T17:14:54Z</time>
      </trkpt>
      <trkpt lat="40.60324" lon="-8.46413">
        <ele>110.46</ele>
        <time>2020-09-27T17:14:55Z</time>
      </trkpt>
      <trkpt lat="40.60361" lon="-8.46444">
        <ele>109.826</ele>
        <time>2020-09-27T17:14:57Z</time>
      </trkpt>
      <trkpt lat="40.60379" lon="-8.4646">
        <ele>109.308</ele>
        <time>2020-09-27T17:14:58Z</time>
      </trkpt>
      <trkpt lat="40.60416" lon="-8.46491">
        <ele>108.743</ele>
        <time>2020-09-27T17:15:00Z</time>
      </trkpt>
      <trkpt lat="40.60435" lon="-8.46506">
        <ele>108.375</ele>
        <time>2020-09-27T17:15:01Z</time>
      </trkpt>
      <trkpt lat="40.60472" lon="-8.46537">
        <ele>108.083</ele>
        <time>2020-09-27T17:15:03Z</time>
      </trkpt>
      <trkpt lat="40.60491" lon="-8.46552">
        <ele>107.775</ele>
        <time>2020-09-27T17:15:04Z</time>
      </trkpt>
      <trkpt lat="40.60509" lon="-8.46568">
        <ele>107.483</ele>
        <time>2020-09-27T17:15:05Z</time>
      </trkpt>
      <trkpt lat="40.60548" lon="-8.46595">
        <ele>107.113</ele>
        <time>2020-09-27T17:15:07Z</time>
      </trkpt>
      <trkpt lat="40.60567" lon="-8.46606">
        <ele>107.093</ele>
        <time>2020-09-27T17:15:08Z</time>
      </trkpt>
      <trkpt lat="40.60585" lon="-8.46615">
        <ele>106.941</ele>
        <time>2020-09-27T17:15:09Z</time>
      </trkpt>
      <trkpt lat="40.6062" lon="-8.46628">
        <ele>106.551</ele>
        <time>2020-09-27T17:15:11Z</time>
      </trkpt>
      <trkpt lat="40.60636" lon="-8.46632">
        <ele>106.101</ele>
        <time>2020-09-27T17:15:12Z</time>
      </trkpt>
      <trkpt lat="40.60653" lon="-8.46636">
        <ele>105.811</ele>
        <time>2020-09-27T17:15:13Z</time>
      </trkpt>
      <trkpt lat="40.6067" lon="-8.4664">
        <ele>105.508</ele>
        <time>2020-09-27T17:15:14Z</time>
      </trkpt>
      <trkpt lat="40.6071" lon="-8.4664">
        <ele>105.49</ele>
        <time>2020-09-27T17:15:16Z</time>
      </trkpt>
      <trkpt lat="40.6073" lon="-8.46636">
        <ele>105.262</ele>
        <time>2020-09-27T17:15:17Z</time>
      </trkpt>
      <trkpt lat="40.60765" lon="-8.46624">
        <ele>105.27</ele>
        <time>2020-09-27T17:15:19Z</time>
      </trkpt>
      <trkpt lat="40.6078" lon="-8.46618">
        <ele>105.152</ele>
        <time>2020-09-27T17:15:20Z</time>
      </trkpt>
      <trkpt lat="40.60807" lon="-8.466">
        <ele>105.46</ele>
        <time>2020-09-27T17:15:22Z</time>
      </trkpt>
      <trkpt lat="40.6082" lon="-8.46588">
        <ele>105.79</ele>
        <time>2020-09-27T17:15:23Z</time>
      </trkpt>
      <trkpt lat="40.60832" lon="-8.46574">
        <ele>106.09</ele>
        <time>2020-09-27T17:15:24Z</time>
      </trkpt>
      <trkpt lat="40.60844" lon="-8.46558">
        <ele>106.298</ele>
        <time>2020-09-27T17:15:25Z</time>
      </trkpt>
      <trkpt lat="40.60859" lon="-8.46525">
        <ele>107.351</ele>
        <time>2020-09-27T17:15:27Z</time>
      </trkpt>
      <trkpt lat="40.60865" lon="-8.46498">
        <ele>108.601</ele>
        <time>2020-09-27T17:15:29Z</time>
      </trkpt>
      <trkpt lat="40.60879" lon="-8.4649">
        <ele>109.311</ele>
        <time>2020-09-27T17:15:31Z</time>
      </trkpt>
      <trkpt lat="40.60895" lon="-8.46505">
        <ele>109.708</ele>
        <time>2020-09-27T17:15:33Z</time>
      </trkpt>
      <trkpt lat="40.60898" lon="-8.46518">
        <ele>109.69</ele>
        <time>2020-09-27T17:15:34Z</time>
      </trkpt>
      <trkpt lat="40.60897" lon="-8.46532">
        <ele>109.182</ele>
        <time>2020-09-27T17:15:35Z</time>
      </trkpt>
      <trkpt lat="40.60893" lon="-8.46546">
        <ele>108.68</ele>
        <time>2020-09-27T17:15:36Z</time>
      </trkpt>
      <trkpt lat="40.6089" lon="-8.46561">
        <ele>108.092</ele>
        <time>2020-09-27T17:15:37Z</time>
      </trkpt>
      <trkpt lat="40.60896" lon="-8.46586">
        <ele>107.25</ele>
        <time>2020-09-27T17:15:39Z</time>
      </trkpt>
      <trkpt lat="40.60905" lon="-8.46594">
        <ele>106.87</ele>
        <time>2020-09-27T17:15:40Z</time>
      </trkpt>
      <trkpt lat="40.60917" lon="-8.46596">
        <ele>106.72</ele>
        <time>2020-09-27T17:15:41Z</time>
      </trkpt>
      <trkpt lat="40.60946" lon="-8.46585">
        <ele>106.448</ele>
        <time>2020-09-27T17:15:43Z</time>
      </trkpt>
      <trkpt lat="40.60963" lon="-8.46578">
        <ele>106.242</ele>
        <time>2020-09-27T17:15:44Z</time>
      </trkpt>
      <trkpt lat="40.60983" lon="-8.46571">
        <ele>106.222</ele>
        <time>2020-09-27T17:15:45Z</time>
      </trkpt>
      <trkpt lat="40.61004" lon="-8.46564">
        <ele>106.414</ele>
        <time>2020-09-27T17:15:46Z</time>
      </trkpt>
      <trkpt lat="40.61049" lon="-8.4655">
        <ele>106.508</ele>
        <time>2020-09-27T17:15:48Z</time>
      </trkpt>
      <trkpt lat="40.61073" lon="-8.46542">
        <ele>106.649</ele>
        <time>2020-09-27T17:15:49Z</time>
      </trkpt>
      <trkpt lat="40.61097" lon="-8.46532">
        <ele>106.781</ele>
        <time>2020-09-27T17:15:50Z</time>
      </trkpt>
      <trkpt lat="40.61144" lon="-8.46515">
        <ele>107.029</ele>
        <time>2020-09-27T17:15:52Z</time>
      </trkpt>
      <trkpt lat="40.61167" lon="-8.46506">
        <ele>107.161</ele>
        <time>2020-09-27T17:15:53Z</time>
      </trkpt>
      <trkpt lat="40.61215" lon="-8.4649">
        <ele>107.229</ele>
        <time>2020-09-27T17:15:55Z</time>
      </trkpt>
      <trkpt lat="40.61263" lon="-8.46471">
        <ele>107.659</ele>
        <time>2020-09-27T17:15:57Z</time>
      </trkpt>
      <trkpt lat="40.61312" lon="-8.46453">
        <ele>107.739</ele>
        <time>2020-09-27T17:15:59Z</time>
      </trkpt>
      <trkpt lat="40.61336" lon="-8.46444">
        <ele>107.627</ele>
        <time>2020-09-27T17:16:00Z</time>
      </trkpt>
      <trkpt lat="40.6136" lon="-8.46435">
        <ele>107.612</ele>
        <time>2020-09-27T17:16:01Z</time>
      </trkpt>
      <trkpt lat="40.61409" lon="-8.46415">
        <ele>107.832</ele>
        <time>2020-09-27T17:16:03Z</time>
      </trkpt>
      <trkpt lat="40.61433" lon="-8.46406">
        <ele>107.905</ele>
        <time>2020-09-27T17:16:04Z</time>
      </trkpt>
      <trkpt lat="40.61476" lon="-8.46388">
        <ele>107.608</ele>
        <time>2020-09-27T17:16:06Z</time>
      </trkpt>
      <trkpt lat="40.61496" lon="-8.46381">
        <ele>107.676</ele>
        <time>2020-09-27T17:16:07Z</time>
      </trkpt>
      <trkpt lat="40.61515" lon="-8.46374">
        <ele>107.628</ele>
        <time>2020-09-27T17:16:08Z</time>
      </trkpt>
      <trkpt lat="40.6155" lon="-8.4636">
        <ele>107.936</ele>
        <time>2020-09-27T17:16:10Z</time>
      </trkpt>
      <trkpt lat="40.61583" lon="-8.46348">
        <ele>108.228</ele>
        <time>2020-09-27T17:16:12Z</time>
      </trkpt>
      <trkpt lat="40.61613" lon="-8.46337">
        <ele>108.636</ele>
        <time>2020-09-27T17:16:14Z</time>
      </trkpt>
      <trkpt lat="40.61629" lon="-8.46331">
        <ele>108.796</ele>
        <time>2020-09-27T17:16:15Z</time>
      </trkpt>
      <trkpt lat="40.61645" lon="-8.46325">
        <ele>108.936</ele>
        <time>2020-09-27T17:16:16Z</time>
      </trkpt>
      <trkpt lat="40.61661" lon="-8.46319">
        <ele>109.164</ele>
        <time>2020-09-27T17:16:17Z</time>
      </trkpt>
      <trkpt lat="40.61691" lon="-8.46307">
        <ele>109.142</ele>
        <time>2020-09-27T17:16:19Z</time>
      </trkpt>
      <trkpt lat="40.61705" lon="-8.46301">
        <ele>109.222</ele>
        <time>2020-09-27T17:16:20Z</time>
      </trkpt>
      <trkpt lat="40.61731" lon="-8.4629">
        <ele>109.214</ele>
        <time>2020-09-27T17:16:22Z</time>
      </trkpt>
      <trkpt lat="40.61753" lon="-8.46281">
        <ele>109.208</ele>
        <time>2020-09-27T17:16:24Z</time>
      </trkpt>
      <trkpt lat="40.61772" lon="-8.46274">
        <ele>109.299</ele>
        <time>2020-09-27T17:16:26Z</time>
      </trkpt>
      <trkpt lat="40.61789" lon="-8.46267">
        <ele>109.491</ele>
        <time>2020-09-27T17:16:28Z</time>
      </trkpt>
      <trkpt lat="40.61799" lon="-8.46263">
        <ele>109.589</ele>
        <time>2020-09-27T17:16:29Z</time>
      </trkpt>
      <trkpt lat="40.61822" lon="-8.46254">
        <ele>109.611</ele>
        <time>2020-09-27T17:16:31Z</time>
      </trkpt>
      <trkpt lat="40.61847" lon="-8.46244">
        <ele>109.799</ele>
        <time>2020-09-27T17:16:33Z</time>
      </trkpt>
      <trkpt lat="40.61861" lon="-8.46239">
        <ele>109.969</ele>
        <time>2020-09-27T17:16:34Z</time>
      </trkpt>
      <trkpt lat="40.6189" lon="-8.46228">
        <ele>110.049</ele>
        <time>2020-09-27T17:16:36Z</time>
      </trkpt>
      <trkpt lat="40.61919" lon="-8.46216">
        <ele>110.177</ele>
        <time>2020-09-27T17:16:38Z</time>
      </trkpt>
      <trkpt lat="40.61933" lon="-8.46211">
        <ele>110.129</ele>
        <time>2020-09-27T17:16:39Z</time>
      </trkpt>
      <trkpt lat="40.61947" lon="-8.46205">
        <ele>110.2</ele>
        <time>2020-09-27T17:16:40Z</time>
      </trkpt>
      <trkpt lat="40.61978" lon="-8.46195">
        <ele>110.42</ele>
        <time>2020-09-27T17:16:42Z</time>
      </trkpt>
      <trkpt lat="40.62009" lon="-8.46184">
        <ele>110.608</ele>
        <time>2020-09-27T17:16:44Z</time>
      </trkpt>
      <trkpt lat="40.62025" lon="-8.46178">
        <ele>110.797</ele>
        <time>2020-09-27T17:16:45Z</time>
      </trkpt>
      <trkpt lat="40.62042" lon="-8.46173">
        <ele>110.939</ele>
        <time>2020-09-27T17:16:46Z</time>
      </trkpt>
      <trkpt lat="40.62077" lon="-8.46165">
        <ele>111.227</ele>
        <time>2020-09-27T17:16:48Z</time>
      </trkpt>
      <trkpt lat="40.62095" lon="-8.46163">
        <ele>111.459</ele>
        <time>2020-09-27T17:16:49Z</time>
      </trkpt>
      <trkpt lat="40.62131" lon="-8.4616">
        <ele>111.547</ele>
        <time>2020-09-27T17:16:51Z</time>
      </trkpt>
      <trkpt lat="40.62168" lon="-8.46156">
        <ele>111.587</ele>
        <time>2020-09-27T17:16:53Z</time>
      </trkpt>
      <trkpt lat="40.62201" lon="-8.46152">
        <ele>111.787</ele>
        <time>2020-09-27T17:16:55Z</time>
      </trkpt>
      <trkpt lat="40.62236" lon="-8.46148">
        <ele>111.735</ele>
        <time>2020-09-27T17:16:57Z</time>
      </trkpt>
      <trkpt lat="40.62273" lon="-8.46145">
        <ele>111.667</ele>
        <time>2020-09-27T17:16:59Z</time>
      </trkpt>
      <trkpt lat="40.62312" lon="-8.46141">
        <ele>111.081</ele>
        <time>2020-09-27T17:17:01Z</time>
      </trkpt>
      <trkpt lat="40.62333" lon="-8.46139">
        <ele>110.419</ele>
        <time>2020-09-27T17:17:02Z</time>
      </trkpt>
      <trkpt lat="40.62375" lon="-8.46135">
        <ele>109.408</ele>
        <time>2020-09-27T17:17:04Z</time>
      </trkpt>
      <trkpt lat="40.62416" lon="-8.46131">
        <ele>108.421</ele>
        <time>2020-09-27T17:17:06Z</time>
      </trkpt>
      <trkpt lat="40.62457" lon="-8.46131">
        <ele>106.433</ele>
        <time>2020-09-27T17:17:08Z</time>
      </trkpt>
      <trkpt lat="40.62478" lon="-8.46135">
        <ele>104.711</ele>
        <time>2020-09-27T17:17:09Z</time>
      </trkpt>
      <trkpt lat="40.625" lon="-8.46141">
        <ele>103.033</ele>
        <time>2020-09-27T17:17:10Z</time>
      </trkpt>
      <trkpt lat="40.62521" lon="-8.46148">
        <ele>101.751</ele>
        <time>2020-09-27T17:17:11Z</time>
      </trkpt>
      <trkpt lat="40.62558" lon="-8.46166">
        <ele>100.281</ele>
        <time>2020-09-27T17:17:13Z</time>
      </trkpt>
      <trkpt lat="40.62591" lon="-8.46191">
        <ele>98.781</ele>
        <time>2020-09-27T17:17:15Z</time>
      </trkpt>
      <trkpt lat="40.6262" lon="-8.46219">
        <ele>98.629</ele>
        <time>2020-09-27T17:17:17Z</time>
      </trkpt>
      <trkpt lat="40.62633" lon="-8.46235">
        <ele>98.257</ele>
        <time>2020-09-27T17:17:18Z</time>
      </trkpt>
      <trkpt lat="40.62656" lon="-8.46267">
        <ele>96.9</ele>
        <time>2020-09-27T17:17:20Z</time>
      </trkpt>
      <trkpt lat="40.62667" lon="-8.46283">
        <ele>95.72</ele>
        <time>2020-09-27T17:17:21Z</time>
      </trkpt>
      <trkpt lat="40.62693" lon="-8.4632">
        <ele>94.908</ele>
        <time>2020-09-27T17:17:23Z</time>
      </trkpt>
      <trkpt lat="40.62706" lon="-8.46341">
        <ele>93.94</ele>
        <time>2020-09-27T17:17:24Z</time>
      </trkpt>
      <trkpt lat="40.62736" lon="-8.46384">
        <ele>93.052</ele>
        <time>2020-09-27T17:17:26Z</time>
      </trkpt>
      <trkpt lat="40.62752" lon="-8.46406">
        <ele>91.72</ele>
        <time>2020-09-27T17:17:27Z</time>
      </trkpt>
      <trkpt lat="40.62782" lon="-8.46448">
        <ele>89.652</ele>
        <time>2020-09-27T17:17:29Z</time>
      </trkpt>
      <trkpt lat="40.62797" lon="-8.46471">
        <ele>88.08</ele>
        <time>2020-09-27T17:17:30Z</time>
      </trkpt>
      <trkpt lat="40.62829" lon="-8.46518">
        <ele>85.99</ele>
        <time>2020-09-27T17:17:32Z</time>
      </trkpt>
      <trkpt lat="40.62846" lon="-8.46544">
        <ele>83.97</ele>
        <time>2020-09-27T17:17:33Z</time>
      </trkpt>
      <trkpt lat="40.62883" lon="-8.46596">
        <ele>81.738</ele>
        <time>2020-09-27T17:17:35Z</time>
      </trkpt>
      <trkpt lat="40.6292" lon="-8.46646">
        <ele>79.179</ele>
        <time>2020-09-27T17:17:37Z</time>
      </trkpt>
      <trkpt lat="40.62937" lon="-8.4667">
        <ele>76.805</ele>
        <time>2020-09-27T17:17:38Z</time>
      </trkpt>
      <trkpt lat="40.62968" lon="-8.46716">
        <ele>74.425</ele>
        <time>2020-09-27T17:17:40Z</time>
      </trkpt>
      <trkpt lat="40.62983" lon="-8.46737">
        <ele>72.508</ele>
        <time>2020-09-27T17:17:41Z</time>
      </trkpt>
      <trkpt lat="40.63012" lon="-8.46778">
        <ele>70.652</ele>
        <time>2020-09-27T17:17:43Z</time>
      </trkpt>
      <trkpt lat="40.63025" lon="-8.46798">
        <ele>69.274</ele>
        <time>2020-09-27T17:17:44Z</time>
      </trkpt>
      <trkpt lat="40.63052" lon="-8.46837">
        <ele>67.492</ele>
        <time>2020-09-27T17:17:46Z</time>
      </trkpt>
      <trkpt lat="40.63079" lon="-8.46875">
        <ele>65.174</ele>
        <time>2020-09-27T17:17:48Z</time>
      </trkpt>
      <trkpt lat="40.63093" lon="-8.46895">
        <ele>66.042</ele>
        <time>2020-09-27T17:17:49Z</time>
      </trkpt>
      <trkpt lat="40.63124" lon="-8.46934">
        <ele>63.972</ele>
        <time>2020-09-27T17:17:51Z</time>
      </trkpt>
      <trkpt lat="40.63142" lon="-8.46953">
        <ele>61.782</ele>
        <time>2020-09-27T17:17:52Z</time>
      </trkpt>
      <trkpt lat="40.6318" lon="-8.46987">
        <ele>58.93</ele>
        <time>2020-09-27T17:17:54Z</time>
      </trkpt>
      <trkpt lat="40.63201" lon="-8.47003">
        <ele>56.778</ele>
        <time>2020-09-27T17:17:55Z</time>
      </trkpt>
      <trkpt lat="40.63246" lon="-8.47027">
        <ele>54.633</ele>
        <time>2020-09-27T17:17:57Z</time>
      </trkpt>
      <trkpt lat="40.63268" lon="-8.47036">
        <ele>57.026</ele>
        <time>2020-09-27T17:17:58Z</time>
      </trkpt>
      <trkpt lat="40.63312" lon="-8.47047">
        <ele>55.908</ele>
        <time>2020-09-27T17:18:00Z</time>
      </trkpt>
      <trkpt lat="40.63354" lon="-8.47052">
        <ele>54.272</ele>
        <time>2020-09-27T17:18:02Z</time>
      </trkpt>
      <trkpt lat="40.63375" lon="-8.47053">
        <ele>54.414</ele>
        <time>2020-09-27T17:18:03Z</time>
      </trkpt>
      <trkpt lat="40.63397" lon="-8.47054">
        <ele>53.612</ele>
        <time>2020-09-27T17:18:04Z</time>
      </trkpt>
      <trkpt lat="40.63441" lon="-8.47058">
        <ele>53.084</ele>
        <time>2020-09-27T17:18:06Z</time>
      </trkpt>
      <trkpt lat="40.63484" lon="-8.47062">
        <ele>53.242</ele>
        <time>2020-09-27T17:18:08Z</time>
      </trkpt>
      <trkpt lat="40.63505" lon="-8.47063">
        <ele>53.552</ele>
        <time>2020-09-27T17:18:09Z</time>
      </trkpt>
      <trkpt lat="40.63546" lon="-8.47064">
        <ele>54.112</ele>
        <time>2020-09-27T17:18:11Z</time>
      </trkpt>
      <trkpt lat="40.63584" lon="-8.47059">
        <ele>55.09</ele>
        <time>2020-09-27T17:18:13Z</time>
      </trkpt>
      <trkpt lat="40.63621" lon="-8.4705">
        <ele>55.828</ele>
        <time>2020-09-27T17:18:15Z</time>
      </trkpt>
      <trkpt lat="40.63639" lon="-8.47044">
        <ele>56.789</ele>
        <time>2020-09-27T17:18:16Z</time>
      </trkpt>
      <trkpt lat="40.63657" lon="-8.47036">
        <ele>57.317</ele>
        <time>2020-09-27T17:18:17Z</time>
      </trkpt>
      <trkpt lat="40.63676" lon="-8.47026">
        <ele>57.808</ele>
        <time>2020-09-27T17:18:18Z</time>
      </trkpt>
      <trkpt lat="40.63715" lon="-8.47007">
        <ele>58.537</ele>
        <time>2020-09-27T17:18:20Z</time>
      </trkpt>
      <trkpt lat="40.63737" lon="-8.46998">
        <ele>59.079</ele>
        <time>2020-09-27T17:18:21Z</time>
      </trkpt>
      <trkpt lat="40.63782" lon="-8.46977">
        <ele>59.667</ele>
        <time>2020-09-27T17:18:23Z</time>
      </trkpt>
      <trkpt lat="40.63826" lon="-8.46954">
        <ele>60.119</ele>
        <time>2020-09-27T17:18:25Z</time>
      </trkpt>
      <trkpt lat="40.63871" lon="-8.46932">
        <ele>60.397</ele>
        <time>2020-09-27T17:18:27Z</time>
      </trkpt>
      <trkpt lat="40.63894" lon="-8.4692">
        <ele>60.697</ele>
        <time>2020-09-27T17:18:28Z</time>
      </trkpt>
      <trkpt lat="40.63916" lon="-8.46909">
        <ele>61.147</ele>
        <time>2020-09-27T17:18:29Z</time>
      </trkpt>
      <trkpt lat="40.63961" lon="-8.46886">
        <ele>61.375</ele>
        <time>2020-09-27T17:18:31Z</time>
      </trkpt>
      <trkpt lat="40.63984" lon="-8.46875">
        <ele>61.742</ele>
        <time>2020-09-27T17:18:32Z</time>
      </trkpt>
      <trkpt lat="40.64031" lon="-8.46852">
        <ele>62.122</ele>
        <time>2020-09-27T17:18:34Z</time>
      </trkpt>
      <trkpt lat="40.64055" lon="-8.4684">
        <ele>62.514</ele>
        <time>2020-09-27T17:18:35Z</time>
      </trkpt>
      <trkpt lat="40.64103" lon="-8.46815">
        <ele>62.708</ele>
        <time>2020-09-27T17:18:37Z</time>
      </trkpt>
      <trkpt lat="40.64128" lon="-8.46802">
        <ele>62.729</ele>
        <time>2020-09-27T17:18:38Z</time>
      </trkpt>
      <trkpt lat="40.64178" lon="-8.46774">
        <ele>63.141</ele>
        <time>2020-09-27T17:18:40Z</time>
      </trkpt>
      <trkpt lat="40.64204" lon="-8.46761">
        <ele>63.239</ele>
        <time>2020-09-27T17:18:41Z</time>
      </trkpt>
      <trkpt lat="40.6423" lon="-8.46748">
        <ele>63.311</ele>
        <time>2020-09-27T17:18:42Z</time>
      </trkpt>
      <trkpt lat="40.64258" lon="-8.46734">
        <ele>63.419</ele>
        <time>2020-09-27T17:18:43Z</time>
      </trkpt>
      <trkpt lat="40.64312" lon="-8.46706">
        <ele>63.519</ele>
        <time>2020-09-27T17:18:45Z</time>
      </trkpt>
      <trkpt lat="40.6434" lon="-8.46693">
        <ele>66.689</ele>
        <time>2020-09-27T17:18:46Z</time>
      </trkpt>
      <trkpt lat="40.64367" lon="-8.46679">
        <ele>67.047</ele>
        <time>2020-09-27T17:18:47Z</time>
      </trkpt>
      <trkpt lat="40.64421" lon="-8.46652">
        <ele>66.156</ele>
        <time>2020-09-27T17:18:49Z</time>
      </trkpt>
      <trkpt lat="40.64476" lon="-8.4663">
        <ele>65.359</ele>
        <time>2020-09-27T17:18:51Z</time>
      </trkpt>
      <trkpt lat="40.6453" lon="-8.4661">
        <ele>65.214</ele>
        <time>2020-09-27T17:18:53Z</time>
      </trkpt>
      <trkpt lat="40.64557" lon="-8.466">
        <ele>65.408</ele>
        <time>2020-09-27T17:18:54Z</time>
      </trkpt>
      <trkpt lat="40.64609" lon="-8.46581">
        <ele>65.79</ele>
        <time>2020-09-27T17:18:56Z</time>
      </trkpt>
      <trkpt lat="40.64662" lon="-8.46561">
        <ele>66.192</ele>
        <time>2020-09-27T17:18:58Z</time>
      </trkpt>
      <trkpt lat="40.64688" lon="-8.4655">
        <ele>66.89</ele>
        <time>2020-09-27T17:18:59Z</time>
      </trkpt>
      <trkpt lat="40.6474" lon="-8.46529">
        <ele>67.892</ele>
        <time>2020-09-27T17:19:01Z</time>
      </trkpt>
      <trkpt lat="40.64796" lon="-8.46509">
        <ele>69.32</ele>
        <time>2020-09-27T17:19:03Z</time>
      </trkpt>
      <trkpt lat="40.64853" lon="-8.46501">
        <ele>71.71</ele>
        <time>2020-09-27T17:19:05Z</time>
      </trkpt>
      <trkpt lat="40.64883" lon="-8.46502">
        <ele>73.85</ele>
        <time>2020-09-27T17:19:06Z</time>
      </trkpt>
      <trkpt lat="40.64941" lon="-8.4652">
        <ele>76.798</ele>
        <time>2020-09-27T17:19:08Z</time>
      </trkpt>
      <trkpt lat="40.64997" lon="-8.46552">
        <ele>79.619</ele>
        <time>2020-09-27T17:19:10Z</time>
      </trkpt>
      <trkpt lat="40.65052" lon="-8.46588">
        <ele>83.409</ele>
        <time>2020-09-27T17:19:12Z</time>
      </trkpt>
      <trkpt lat="40.6508" lon="-8.46603">
        <ele>86.319</ele>
        <time>2020-09-27T17:19:13Z</time>
      </trkpt>
      <trkpt lat="40.65109" lon="-8.46617">
        <ele>88.508</ele>
        <time>2020-09-27T17:19:14Z</time>
      </trkpt>
      <trkpt lat="40.65138" lon="-8.46629">
        <ele>89.956</ele>
        <time>2020-09-27T17:19:15Z</time>
      </trkpt>
      <trkpt lat="40.65199" lon="-8.46644">
        <ele>92.318</ele>
        <time>2020-09-27T17:19:17Z</time>
      </trkpt>
      <trkpt lat="40.6523" lon="-8.46649">
        <ele>94.056</ele>
        <time>2020-09-27T17:19:18Z</time>
      </trkpt>
      <trkpt lat="40.65289" lon="-8.46664">
        <ele>96.058</ele>
        <time>2020-09-27T17:19:20Z</time>
      </trkpt>
      <trkpt lat="40.65317" lon="-8.46676">
        <ele>98.066</ele>
        <time>2020-09-27T17:19:21Z</time>
      </trkpt>
      <trkpt lat="40.65346" lon="-8.4669">
        <ele>99.786</ele>
        <time>2020-09-27T17:19:22Z</time>
      </trkpt>
      <trkpt lat="40.654" lon="-8.46725">
        <ele>102.286</ele>
        <time>2020-09-27T17:19:24Z</time>
      </trkpt>
      <trkpt lat="40.65425" lon="-8.46745">
        <ele>104.984</ele>
        <time>2020-09-27T17:19:25Z</time>
      </trkpt>
      <trkpt lat="40.65449" lon="-8.46769">
        <ele>107.577</ele>
        <time>2020-09-27T17:19:26Z</time>
      </trkpt>
      <trkpt lat="40.65495" lon="-8.46819">
        <ele>110.761</ele>
        <time>2020-09-27T17:19:28Z</time>
      </trkpt>
      <trkpt lat="40.6554" lon="-8.46871">
        <ele>114.427</ele>
        <time>2020-09-27T17:19:30Z</time>
      </trkpt>
      <trkpt lat="40.65583" lon="-8.46921">
        <ele>117.908</ele>
        <time>2020-09-27T17:19:32Z</time>
      </trkpt>
      <trkpt lat="40.65624" lon="-8.46969">
        <ele>121.352</ele>
        <time>2020-09-27T17:19:34Z</time>
      </trkpt>
      <trkpt lat="40.65662" lon="-8.47012">
        <ele>124.024</ele>
        <time>2020-09-27T17:19:36Z</time>
      </trkpt>
      <trkpt lat="40.65696" lon="-8.4705">
        <ele>126.142</ele>
        <time>2020-09-27T17:19:38Z</time>
      </trkpt>
      <trkpt lat="40.65724" lon="-8.47081">
        <ele>127.894</ele>
        <time>2020-09-27T17:19:40Z</time>
      </trkpt>
      <trkpt lat="40.65747" lon="-8.47105">
        <ele>129.212</ele>
        <time>2020-09-27T17:19:42Z</time>
      </trkpt>
      <trkpt lat="40.65757" lon="-8.47115">
        <ele>129.942</ele>
        <time>2020-09-27T17:19:43Z</time>
      </trkpt>
      <trkpt lat="40.65765" lon="-8.47124">
        <ele>130.672</ele>
        <time>2020-09-27T17:19:44Z</time>
      </trkpt>
      <trkpt lat="40.65772" lon="-8.47133">
        <ele>130.81</ele>
        <time>2020-09-27T17:19:45Z</time>
      </trkpt>
      <trkpt lat="40.65784" lon="-8.47148">
        <ele>131.063</ele>
        <time>2020-09-27T17:19:47Z</time>
      </trkpt>
      <trkpt lat="40.65789" lon="-8.47154">
        <ele>131.344</ele>
        <time>2020-09-27T17:19:48Z</time>
      </trkpt>
      <trkpt lat="40.65794" lon="-8.4716">
        <ele>131.418</ele>
        <time>2020-09-27T17:19:49Z</time>
      </trkpt>
      <trkpt lat="40.658" lon="-8.47168">
        <ele>131.408</ele>
        <time>2020-09-27T17:19:51Z</time>
      </trkpt>
      <trkpt lat="40.65809" lon="-8.47176">
        <ele>134.531</ele>
        <time>2020-09-27T17:20:10Z</time>
      </trkpt>
      <trkpt lat="40.65828" lon="-8.47197">
        <ele>135.233</ele>
        <time>2020-09-27T17:20:12Z</time>
      </trkpt>
      <trkpt lat="40.65839" lon="-8.4721">
        <ele>135.621</ele>
        <time>2020-09-27T17:20:13Z</time>
      </trkpt>
      <trkpt lat="40.65866" lon="-8.47241">
        <ele>135.993</ele>
        <time>2020-09-27T17:20:15Z</time>
      </trkpt>
      <trkpt lat="40.6588" lon="-8.47257">
        <ele>136.191</ele>
        <time>2020-09-27T17:20:16Z</time>
      </trkpt>
      <trkpt lat="40.65895" lon="-8.47274">
        <ele>136.221</ele>
        <time>2020-09-27T17:20:17Z</time>
      </trkpt>
      <trkpt lat="40.65926" lon="-8.4731">
        <ele>136.341</ele>
        <time>2020-09-27T17:20:19Z</time>
      </trkpt>
      <trkpt lat="40.65958" lon="-8.47348">
        <ele>136.339</ele>
        <time>2020-09-27T17:20:21Z</time>
      </trkpt>
      <trkpt lat="40.65991" lon="-8.47385">
        <ele>136.331</ele>
        <time>2020-09-27T17:20:23Z</time>
      </trkpt>
      <trkpt lat="40.66009" lon="-8.47403">
        <ele>136.361</ele>
        <time>2020-09-27T17:20:24Z</time>
      </trkpt>
      <trkpt lat="40.66027" lon="-8.4742">
        <ele>136.307</ele>
        <time>2020-09-27T17:20:25Z</time>
      </trkpt>
      <trkpt lat="40.66045" lon="-8.47436">
        <ele>136.308</ele>
        <time>2020-09-27T17:20:26Z</time>
      </trkpt>
      <trkpt lat="40.66083" lon="-8.47464">
        <ele>136.358</ele>
        <time>2020-09-27T17:20:28Z</time>
      </trkpt>
      <trkpt lat="40.66103" lon="-8.47476">
        <ele>136.31</ele>
        <time>2020-09-27T17:20:29Z</time>
      </trkpt>
      <trkpt lat="40.66143" lon="-8.47497">
        <ele>136.368</ele>
        <time>2020-09-27T17:20:31Z</time>
      </trkpt>
      <trkpt lat="40.66163" lon="-8.47505">
        <ele>136.38</ele>
        <time>2020-09-27T17:20:32Z</time>
      </trkpt>
      <trkpt lat="40.66184" lon="-8.47512">
        <ele>136.378</ele>
        <time>2020-09-27T17:20:33Z</time>
      </trkpt>
      <trkpt lat="40.66227" lon="-8.47523">
        <ele>136.378</ele>
        <time>2020-09-27T17:20:35Z</time>
      </trkpt>
      <trkpt lat="40.66248" lon="-8.47527">
        <ele>136.378</ele>
        <time>2020-09-27T17:20:36Z</time>
      </trkpt>
      <trkpt lat="40.6627" lon="-8.47531">
        <ele>136.396</ele>
        <time>2020-09-27T17:20:37Z</time>
      </trkpt>
      <trkpt lat="40.66313" lon="-8.47537">
        <ele>136.337</ele>
        <time>2020-09-27T17:20:39Z</time>
      </trkpt>
      <trkpt lat="40.66335" lon="-8.4754">
        <ele>136.349</ele>
        <time>2020-09-27T17:20:40Z</time>
      </trkpt>
      <trkpt lat="40.66379" lon="-8.47546">
        <ele>136.313</ele>
        <time>2020-09-27T17:20:42Z</time>
      </trkpt>
      <trkpt lat="40.66426" lon="-8.47551">
        <ele>136.308</ele>
        <time>2020-09-27T17:20:44Z</time>
      </trkpt>
      <trkpt lat="40.6645" lon="-8.47552">
        <ele>136.318</ele>
        <time>2020-09-27T17:20:45Z</time>
      </trkpt>
      <trkpt lat="40.66473" lon="-8.47552">
        <ele>136.39</ele>
        <time>2020-09-27T17:20:46Z</time>
      </trkpt>
      <trkpt lat="40.66498" lon="-8.47551">
        <ele>136.388</ele>
        <time>2020-09-27T17:20:47Z</time>
      </trkpt>
      <trkpt lat="40.66522" lon="-8.47549">
        <ele>136.34</ele>
        <time>2020-09-27T17:20:48Z</time>
      </trkpt>
      <trkpt lat="40.66547" lon="-8.47547">
        <ele>136.388</ele>
        <time>2020-09-27T17:20:49Z</time>
      </trkpt>
      <trkpt lat="40.66595" lon="-8.47539">
        <ele>136.338</ele>
        <time>2020-09-27T17:20:51Z</time>
      </trkpt>
      <trkpt lat="40.6662" lon="-8.47533">
        <ele>136.318</ele>
        <time>2020-09-27T17:20:52Z</time>
      </trkpt>
      <trkpt lat="40.66644" lon="-8.47527">
        <ele>136.326</ele>
        <time>2020-09-27T17:20:53Z</time>
      </trkpt>
      <trkpt lat="40.66693" lon="-8.47512">
        <ele>136.323</ele>
        <time>2020-09-27T17:20:55Z</time>
      </trkpt>
      <trkpt lat="40.66739" lon="-8.47497">
        <ele>136.383</ele>
        <time>2020-09-27T17:20:57Z</time>
      </trkpt>
      <trkpt lat="40.66761" lon="-8.47492">
        <ele>136.311</ele>
        <time>2020-09-27T17:20:58Z</time>
      </trkpt>
      <trkpt lat="40.66802" lon="-8.4748">
        <ele>136.308</ele>
        <time>2020-09-27T17:21:00Z</time>
      </trkpt>
      <trkpt lat="40.66821" lon="-8.47473">
        <ele>136.397</ele>
        <time>2020-09-27T17:21:01Z</time>
      </trkpt>
      <trkpt lat="40.6686" lon="-8.47459">
        <ele>136.389</ele>
        <time>2020-09-27T17:21:03Z</time>
      </trkpt>
      <trkpt lat="40.66881" lon="-8.47448">
        <ele>136.397</ele>
        <time>2020-09-27T17:21:04Z</time>
      </trkpt>
      <trkpt lat="40.66902" lon="-8.47436">
        <ele>136.319</ele>
        <time>2020-09-27T17:21:05Z</time>
      </trkpt>
      <trkpt lat="40.66924" lon="-8.47423">
        <ele>136.337</ele>
        <time>2020-09-27T17:21:06Z</time>
      </trkpt>
      <trkpt lat="40.66947" lon="-8.47411">
        <ele>140.067</ele>
        <time>2020-09-27T17:21:07Z</time>
      </trkpt>
      <trkpt lat="40.66992" lon="-8.47388">
        <ele>141.347</ele>
        <time>2020-09-27T17:21:09Z</time>
      </trkpt>
      <trkpt lat="40.67014" lon="-8.47377">
        <ele>142.125</ele>
        <time>2020-09-27T17:21:10Z</time>
      </trkpt>
      <trkpt lat="40.67037" lon="-8.47366">
        <ele>142.415</ele>
        <time>2020-09-27T17:21:11Z</time>
      </trkpt>
      <trkpt lat="40.67083" lon="-8.47343">
        <ele>142.065</ele>
        <time>2020-09-27T17:21:13Z</time>
      </trkpt>
      <trkpt lat="40.67106" lon="-8.47333">
        <ele>141.511</ele>
        <time>2020-09-27T17:21:14Z</time>
      </trkpt>
      <trkpt lat="40.67152" lon="-8.47312">
        <ele>140.808</ele>
        <time>2020-09-27T17:21:16Z</time>
      </trkpt>
      <trkpt lat="40.67177" lon="-8.47303">
        <ele>140.186</ele>
        <time>2020-09-27T17:21:17Z</time>
      </trkpt>
      <trkpt lat="40.67201" lon="-8.47293">
        <ele>139.488</ele>
        <time>2020-09-27T17:21:18Z</time>
      </trkpt>
      <trkpt lat="40.67249" lon="-8.47274">
        <ele>138.956</ele>
        <time>2020-09-27T17:21:20Z</time>
      </trkpt>
      <trkpt lat="40.67298" lon="-8.47255">
        <ele>138.578</ele>
        <time>2020-09-27T17:21:22Z</time>
      </trkpt>
      <trkpt lat="40.67346" lon="-8.47237">
        <ele>142.546</ele>
        <time>2020-09-27T17:21:24Z</time>
      </trkpt>
      <trkpt lat="40.67383" lon="-8.47242">
        <ele>144.266</ele>
        <time>2020-09-27T17:21:25Z</time>
      </trkpt>
      <trkpt lat="40.67412" lon="-8.47241">
        <ele>145.846</ele>
        <time>2020-09-27T17:21:26Z</time>
      </trkpt>
      <trkpt lat="40.67439" lon="-8.47238">
        <ele>146.964</ele>
        <time>2020-09-27T17:21:27Z</time>
      </trkpt>
      <trkpt lat="40.67464" lon="-8.47234">
        <ele>147.743</ele>
        <time>2020-09-27T17:21:28Z</time>
      </trkpt>
      <trkpt lat="40.67487" lon="-8.47229">
        <ele>148.464</ele>
        <time>2020-09-27T17:21:29Z</time>
      </trkpt>
      <trkpt lat="40.6751" lon="-8.47223">
        <ele>149.71</ele>
        <time>2020-09-27T17:21:30Z</time>
      </trkpt>
      <trkpt lat="40.67551" lon="-8.47216">
        <ele>149.508</ele>
        <time>2020-09-27T17:21:32Z</time>
      </trkpt>
      <trkpt lat="40.67572" lon="-8.47211">
        <ele>149.899</ele>
        <time>2020-09-27T17:21:33Z</time>
      </trkpt>
      <trkpt lat="40.67611" lon="-8.472">
        <ele>150.171</ele>
        <time>2020-09-27T17:21:35Z</time>
      </trkpt>
      <trkpt lat="40.67642" lon="-8.47181">
        <ele>150.949</ele>
        <time>2020-09-27T17:21:37Z</time>
      </trkpt>
      <trkpt lat="40.67646" lon="-8.47173">
        <ele>151.321</ele>
        <time>2020-09-27T17:21:38Z</time>
      </trkpt>
      <trkpt lat="40.67695" lon="-8.47171">
        <ele>151.849</ele>
        <time>2020-09-27T17:21:40Z</time>
      </trkpt>
      <trkpt lat="40.67717" lon="-8.47166">
        <ele>152.589</ele>
        <time>2020-09-27T17:21:41Z</time>
      </trkpt>
      <trkpt lat="40.6776" lon="-8.47156">
        <ele>153.279</ele>
        <time>2020-09-27T17:21:43Z</time>
      </trkpt>
      <trkpt lat="40.67782" lon="-8.4715">
        <ele>153.917</ele>
        <time>2020-09-27T17:21:44Z</time>
      </trkpt>
      <trkpt lat="40.67804" lon="-8.47144">
        <ele>154.897</ele>
        <time>2020-09-27T17:21:45Z</time>
      </trkpt>
      <trkpt lat="40.67849" lon="-8.47132">
        <ele>155.823</ele>
        <time>2020-09-27T17:21:47Z</time>
      </trkpt>
      <trkpt lat="40.67893" lon="-8.47119">
        <ele>156.825</ele>
        <time>2020-09-27T17:21:49Z</time>
      </trkpt>
      <trkpt lat="40.67936" lon="-8.47106">
        <ele>157.608</ele>
        <time>2020-09-27T17:21:51Z</time>
      </trkpt>
      <trkpt lat="40.67956" lon="-8.47099">
        <ele>157.834</ele>
        <time>2020-09-27T17:21:52Z</time>
      </trkpt>
      <trkpt lat="40.67975" lon="-8.47093">
        <ele>158.046</ele>
        <time>2020-09-27T17:21:53Z</time>
      </trkpt>
      <trkpt lat="40.6801" lon="-8.47079">
        <ele>158.394</ele>
        <time>2020-09-27T17:21:55Z</time>
      </trkpt>
      <trkpt lat="40.68023" lon="-8.4707">
        <ele>158.786</ele>
        <time>2020-09-27T17:21:56Z</time>
      </trkpt>
      <trkpt lat="40.68034" lon="-8.4706">
        <ele>158.754</ele>
        <time>2020-09-27T17:21:57Z</time>
      </trkpt>
      <trkpt lat="40.68058" lon="-8.47037">
        <ele>158.834</ele>
        <time>2020-09-27T17:21:59Z</time>
      </trkpt>
      <trkpt lat="40.68087" lon="-8.47026">
        <ele>159.264</ele>
        <time>2020-09-27T17:22:01Z</time>
      </trkpt>
      <trkpt lat="40.68118" lon="-8.47034">
        <ele>160.512</ele>
        <time>2020-09-27T17:22:03Z</time>
      </trkpt>
      <trkpt lat="40.68151" lon="-8.47038">
        <ele>161.959</ele>
        <time>2020-09-27T17:22:05Z</time>
      </trkpt>
      <trkpt lat="40.6818" lon="-8.47033">
        <ele>162.803</ele>
        <time>2020-09-27T17:22:07Z</time>
      </trkpt>
      <trkpt lat="40.68213" lon="-8.47018">
        <ele>163.223</ele>
        <time>2020-09-27T17:22:09Z</time>
      </trkpt>
      <trkpt lat="40.68231" lon="-8.47013">
        <ele>163.608</ele>
        <time>2020-09-27T17:22:10Z</time>
      </trkpt>
      <trkpt lat="40.68265" lon="-8.47003">
        <ele>163.98</ele>
        <time>2020-09-27T17:22:12Z</time>
      </trkpt>
      <trkpt lat="40.68283" lon="-8.46999">
        <ele>164.252</ele>
        <time>2020-09-27T17:22:13Z</time>
      </trkpt>
      <trkpt lat="40.68322" lon="-8.46988">
        <ele>164.39</ele>
        <time>2020-09-27T17:22:15Z</time>
      </trkpt>
      <trkpt lat="40.68365" lon="-8.46975">
        <ele>164.742</ele>
        <time>2020-09-27T17:22:17Z</time>
      </trkpt>
      <trkpt lat="40.68387" lon="-8.46968">
        <ele>165.01</ele>
        <time>2020-09-27T17:22:18Z</time>
      </trkpt>
      <trkpt lat="40.68408" lon="-8.46961">
        <ele>165.23</ele>
        <time>2020-09-27T17:22:19Z</time>
      </trkpt>
      <trkpt lat="40.68447" lon="-8.46948">
        <ele>165.53</ele>
        <time>2020-09-27T17:22:21Z</time>
      </trkpt>
      <trkpt lat="40.68481" lon="-8.46937">
        <ele>165.958</ele>
        <time>2020-09-27T17:22:23Z</time>
      </trkpt>
      <trkpt lat="40.68498" lon="-8.46932">
        <ele>166.112</ele>
        <time>2020-09-27T17:22:24Z</time>
      </trkpt>
      <trkpt lat="40.68516" lon="-8.46926">
        <ele>166.232</ele>
        <time>2020-09-27T17:22:25Z</time>
      </trkpt>
      <trkpt lat="40.68554" lon="-8.46914">
        <ele>166.505</ele>
        <time>2020-09-27T17:22:27Z</time>
      </trkpt>
      <trkpt lat="40.68573" lon="-8.46909">
        <ele>166.608</ele>
        <time>2020-09-27T17:22:28Z</time>
      </trkpt>
      <trkpt lat="40.68615" lon="-8.46902">
        <ele>166.946</ele>
        <time>2020-09-27T17:22:30Z</time>
      </trkpt>
      <trkpt lat="40.68658" lon="-8.469">
        <ele>170.988</ele>
        <time>2020-09-27T17:22:32Z</time>
      </trkpt>
      <trkpt lat="40.6868" lon="-8.46901">
        <ele>174.946</ele>
        <time>2020-09-27T17:22:33Z</time>
      </trkpt>
      <trkpt lat="40.68725" lon="-8.46908">
        <ele>178.518</ele>
        <time>2020-09-27T17:22:35Z</time>
      </trkpt>
      <trkpt lat="40.68748" lon="-8.46914">
        <ele>179.426</ele>
        <time>2020-09-27T17:22:36Z</time>
      </trkpt>
      <trkpt lat="40.68793" lon="-8.46931">
        <ele>178.336</ele>
        <time>2020-09-27T17:22:38Z</time>
      </trkpt>
      <trkpt lat="40.68815" lon="-8.46942">
        <ele>177.286</ele>
        <time>2020-09-27T17:22:39Z</time>
      </trkpt>
      <trkpt lat="40.68837" lon="-8.46955">
        <ele>176.234</ele>
        <time>2020-09-27T17:22:40Z</time>
      </trkpt>
      <trkpt lat="40.68859" lon="-8.46965">
        <ele>173.733</ele>
        <time>2020-09-27T17:22:41Z</time>
      </trkpt>
      <trkpt lat="40.689" lon="-8.46995">
        <ele>171.823</ele>
        <time>2020-09-27T17:22:43Z</time>
      </trkpt>
      <trkpt lat="40.68939" lon="-8.47033">
        <ele>171.015</ele>
        <time>2020-09-27T17:22:45Z</time>
      </trkpt>
      <trkpt lat="40.68957" lon="-8.47054">
        <ele>170.508</ele>
        <time>2020-09-27T17:22:46Z</time>
      </trkpt>
      <trkpt lat="40.6899" lon="-8.47101">
        <ele>169.838</ele>
        <time>2020-09-27T17:22:48Z</time>
      </trkpt>
      <trkpt lat="40.69019" lon="-8.47149">
        <ele>168.95</ele>
        <time>2020-09-27T17:22:50Z</time>
      </trkpt>
      <trkpt lat="40.69032" lon="-8.47172">
        <ele>168.148</ele>
        <time>2020-09-27T17:22:51Z</time>
      </trkpt>
      <trkpt lat="40.69056" lon="-8.47213">
        <ele>167.13</ele>
        <time>2020-09-27T17:22:53Z</time>
      </trkpt>
      <trkpt lat="40.69067" lon="-8.47233">
        <ele>166.458</ele>
        <time>2020-09-27T17:22:54Z</time>
      </trkpt>
      <trkpt lat="40.69088" lon="-8.47268">
        <ele>165.698</ele>
        <time>2020-09-27T17:22:56Z</time>
      </trkpt>
      <trkpt lat="40.69108" lon="-8.47296">
        <ele>164.748</ele>
        <time>2020-09-27T17:22:58Z</time>
      </trkpt>
      <trkpt lat="40.69119" lon="-8.47306">
        <ele>164.246</ele>
        <time>2020-09-27T17:22:59Z</time>
      </trkpt>
      <trkpt lat="40.69129" lon="-8.47316">
        <ele>163.816</ele>
        <time>2020-09-27T17:23:00Z</time>
      </trkpt>
      <trkpt lat="40.69144" lon="-8.47339">
        <ele>162.576</ele>
        <time>2020-09-27T17:23:02Z</time>
      </trkpt>
      <trkpt lat="40.69158" lon="-8.4737">
        <ele>161.013</ele>
        <time>2020-09-27T17:23:04Z</time>
      </trkpt>
      <trkpt lat="40.69168" lon="-8.47387">
        <ele>159.808</ele>
        <time>2020-09-27T17:23:05Z</time>
      </trkpt>
      <trkpt lat="40.69189" lon="-8.4742">
        <ele>158.416</ele>
        <time>2020-09-27T17:23:07Z</time>
      </trkpt>
      <trkpt lat="40.692" lon="-8.47438">
        <ele>157.258</ele>
        <time>2020-09-27T17:23:08Z</time>
      </trkpt>
      <trkpt lat="40.6922" lon="-8.47472">
        <ele>155.836</ele>
        <time>2020-09-27T17:23:10Z</time>
      </trkpt>
      <trkpt lat="40.69241" lon="-8.47507">
        <ele>153.988</ele>
        <time>2020-09-27T17:23:12Z</time>
      </trkpt>
      <trkpt lat="40.69252" lon="-8.47526">
        <ele>152.586</ele>
        <time>2020-09-27T17:23:13Z</time>
      </trkpt>
      <trkpt lat="40.69264" lon="-8.47545">
        <ele>151.136</ele>
        <time>2020-09-27T17:23:14Z</time>
      </trkpt>
      <trkpt lat="40.69285" lon="-8.4758">
        <ele>149.366</ele>
        <time>2020-09-27T17:23:16Z</time>
      </trkpt>
      <trkpt lat="40.69306" lon="-8.47615">
        <ele>152.384</ele>
        <time>2020-09-27T17:23:18Z</time>
      </trkpt>
      <trkpt lat="40.69328" lon="-8.47647">
        <ele>151.072</ele>
        <time>2020-09-27T17:23:20Z</time>
      </trkpt>
      <trkpt lat="40.6934" lon="-8.47663">
        <ele>149.513</ele>
        <time>2020-09-27T17:23:21Z</time>
      </trkpt>
      <trkpt lat="40.69366" lon="-8.47695">
        <ele>147.614</ele>
        <time>2020-09-27T17:23:23Z</time>
      </trkpt>
      <trkpt lat="40.69396" lon="-8.47725">
        <ele>145.808</ele>
        <time>2020-09-27T17:23:25Z</time>
      </trkpt>
      <trkpt lat="40.69412" lon="-8.47739">
        <ele>144.632</ele>
        <time>2020-09-27T17:23:26Z</time>
      </trkpt>
      <trkpt lat="40.69431" lon="-8.47753">
        <ele>143.954</ele>
        <time>2020-09-27T17:23:27Z</time>
      </trkpt>
      <trkpt lat="40.69472" lon="-8.47778">
        <ele>143.912</ele>
        <time>2020-09-27T17:23:29Z</time>
      </trkpt>
      <trkpt lat="40.69513" lon="-8.47799">
        <ele>146.194</ele>
        <time>2020-09-27T17:23:31Z</time>
      </trkpt>
      <trkpt lat="40.69533" lon="-8.47809">
        <ele>146.582</ele>
        <time>2020-09-27T17:23:32Z</time>
      </trkpt>
      <trkpt lat="40.69573" lon="-8.47828">
        <ele>146.972</ele>
        <time>2020-09-27T17:23:34Z</time>
      </trkpt>
      <trkpt lat="40.69593" lon="-8.47838">
        <ele>147.662</ele>
        <time>2020-09-27T17:23:35Z</time>
      </trkpt>
      <trkpt lat="40.69635" lon="-8.47858">
        <ele>149.41</ele>
        <time>2020-09-27T17:23:37Z</time>
      </trkpt>
      <trkpt lat="40.69657" lon="-8.47868">
        <ele>151.032</ele>
        <time>2020-09-27T17:23:38Z</time>
      </trkpt>
      <trkpt lat="40.69679" lon="-8.47878">
        <ele>152.492</ele>
        <time>2020-09-27T17:23:39Z</time>
      </trkpt>
      <trkpt lat="40.69701" lon="-8.47889">
        <ele>153.711</ele>
        <time>2020-09-27T17:23:40Z</time>
      </trkpt>
      <trkpt lat="40.69723" lon="-8.479">
        <ele>155.008</ele>
        <time>2020-09-27T17:23:41Z</time>
      </trkpt>
      <trkpt lat="40.69771" lon="-8.47922">
        <ele>156.848</ele>
        <time>2020-09-27T17:23:43Z</time>
      </trkpt>
      <trkpt lat="40.69795" lon="-8.47934">
        <ele>158.62</ele>
        <time>2020-09-27T17:23:44Z</time>
      </trkpt>
      <trkpt lat="40.69844" lon="-8.47956">
        <ele>160.718</ele>
        <time>2020-09-27T17:23:46Z</time>
      </trkpt>
      <trkpt lat="40.6989" lon="-8.47977">
        <ele>163.17</ele>
        <time>2020-09-27T17:23:48Z</time>
      </trkpt>
      <trkpt lat="40.69934" lon="-8.47999">
        <ele>165.898</ele>
        <time>2020-09-27T17:23:50Z</time>
      </trkpt>
      <trkpt lat="40.69977" lon="-8.48021">
        <ele>168.428</ele>
        <time>2020-09-27T17:23:52Z</time>
      </trkpt>
      <trkpt lat="40.69998" lon="-8.48031">
        <ele>170.278</ele>
        <time>2020-09-27T17:23:53Z</time>
      </trkpt>
      <trkpt lat="40.7002" lon="-8.48042">
        <ele>171.476</ele>
        <time>2020-09-27T17:23:54Z</time>
      </trkpt>
      <trkpt lat="40.70062" lon="-8.48063">
        <ele>172.778</ele>
        <time>2020-09-27T17:23:56Z</time>
      </trkpt>
      <trkpt lat="40.70082" lon="-8.48074">
        <ele>173.733</ele>
        <time>2020-09-27T17:23:57Z</time>
      </trkpt>
      <trkpt lat="40.70124" lon="-8.48094">
        <ele>175.426</ele>
        <time>2020-09-27T17:23:59Z</time>
      </trkpt>
      <trkpt lat="40.70165" lon="-8.48115">
        <ele>177.008</ele>
        <time>2020-09-27T17:24:01Z</time>
      </trkpt>
      <trkpt lat="40.70206" lon="-8.48135">
        <ele>178.422</ele>
        <time>2020-09-27T17:24:03Z</time>
      </trkpt>
      <trkpt lat="40.70245" lon="-8.48155">
        <ele>179.654</ele>
        <time>2020-09-27T17:24:05Z</time>
      </trkpt>
      <trkpt lat="40.70284" lon="-8.48175">
        <ele>180.442</ele>
        <time>2020-09-27T17:24:07Z</time>
      </trkpt>
      <trkpt lat="40.70322" lon="-8.48194">
        <ele>181.074</ele>
        <time>2020-09-27T17:24:09Z</time>
      </trkpt>
      <trkpt lat="40.70359" lon="-8.48212">
        <ele>181.312</ele>
        <time>2020-09-27T17:24:11Z</time>
      </trkpt>
      <trkpt lat="40.70396" lon="-8.4823">
        <ele>181.622</ele>
        <time>2020-09-27T17:24:13Z</time>
      </trkpt>
      <trkpt lat="40.70414" lon="-8.48239">
        <ele>181.962</ele>
        <time>2020-09-27T17:24:14Z</time>
      </trkpt>
      <trkpt lat="40.7045" lon="-8.48255">
        <ele>182.45</ele>
        <time>2020-09-27T17:24:16Z</time>
      </trkpt>
      <trkpt lat="40.70467" lon="-8.48262">
        <ele>182.911</ele>
        <time>2020-09-27T17:24:17Z</time>
      </trkpt>
      <trkpt lat="40.70484" lon="-8.48269">
        <ele>183.521</ele>
        <time>2020-09-27T17:24:18Z</time>
      </trkpt>
      <trkpt lat="40.705" lon="-8.48275">
        <ele>184.003</ele>
        <time>2020-09-27T17:24:19Z</time>
      </trkpt>
      <trkpt lat="40.70514" lon="-8.48281">
        <ele>184.508</ele>
        <time>2020-09-27T17:24:20Z</time>
      </trkpt>
      <trkpt lat="40.70527" lon="-8.48285">
        <ele>184.976</ele>
        <time>2020-09-27T17:24:21Z</time>
      </trkpt>
      <trkpt lat="40.7055" lon="-8.48292">
        <ele>185.558</ele>
        <time>2020-09-27T17:24:23Z</time>
      </trkpt>
      <trkpt lat="40.7056" lon="-8.48295">
        <ele>185.936</ele>
        <time>2020-09-27T17:24:24Z</time>
      </trkpt>
      <trkpt lat="40.70577" lon="-8.48297">
        <ele>186.378</ele>
        <time>2020-09-27T17:24:26Z</time>
      </trkpt>
      <trkpt lat="40.70589" lon="-8.48296">
        <ele>186.566</ele>
        <time>2020-09-27T17:24:28Z</time>
      </trkpt>
      <trkpt lat="40.70596" lon="-8.48294">
        <ele>186.846</ele>
        <time>2020-09-27T17:24:31Z</time>
      </trkpt>
      <trkpt lat="40.70601" lon="-8.48292">
        <ele>187.016</ele>
        <time>2020-09-27T17:24:32Z</time>
      </trkpt>
      <trkpt lat="40.70615" lon="-8.48285">
        <ele>188.464</ele>
        <time>2020-09-27T17:24:34Z</time>
      </trkpt>
      <trkpt lat="40.70632" lon="-8.48277">
        <ele>188.673</ele>
        <time>2020-09-27T17:24:36Z</time>
      </trkpt>
      <trkpt lat="40.7064" lon="-8.48277">
        <ele>188.885</ele>
        <time>2020-09-27T17:24:37Z</time>
      </trkpt>
      <trkpt lat="40.70648" lon="-8.4828">
        <ele>188.913</ele>
        <time>2020-09-27T17:24:38Z</time>
      </trkpt>
      <trkpt lat="40.70656" lon="-8.48288">
        <ele>189.008</ele>
        <time>2020-09-27T17:24:39Z</time>
      </trkpt>
      <trkpt lat="40.70665" lon="-8.48298">
        <ele>189.162</ele>
        <time>2020-09-27T17:24:40Z</time>
      </trkpt>
      <trkpt lat="40.70675" lon="-8.48308">
        <ele>189.194</ele>
        <time>2020-09-27T17:24:41Z</time>
      </trkpt>
      <trkpt lat="40.70698" lon="-8.48318">
        <ele>189.352</ele>
        <time>2020-09-27T17:24:43Z</time>
      </trkpt>
      <trkpt lat="40.70711" lon="-8.48318">
        <ele>189.494</ele>
        <time>2020-09-27T17:24:44Z</time>
      </trkpt>
      <trkpt lat="40.70723" lon="-8.48318">
        <ele>189.612</ele>
        <time>2020-09-27T17:24:45Z</time>
      </trkpt>
      <trkpt lat="40.70735" lon="-8.48317">
        <ele>189.862</ele>
        <time>2020-09-27T17:24:46Z</time>
      </trkpt>
      <trkpt lat="40.70762" lon="-8.48315">
        <ele>190.142</ele>
        <time>2020-09-27T17:24:48Z</time>
      </trkpt>
      <trkpt lat="40.70775" lon="-8.48313">
        <ele>190.55</ele>
        <time>2020-09-27T17:24:49Z</time>
      </trkpt>
      <trkpt lat="40.70803" lon="-8.4831">
        <ele>190.921</ele>
        <time>2020-09-27T17:24:51Z</time>
      </trkpt>
      <trkpt lat="40.70816" lon="-8.48308">
        <ele>191.241</ele>
        <time>2020-09-27T17:24:52Z</time>
      </trkpt>
      <trkpt lat="40.70844" lon="-8.48303">
        <ele>191.705</ele>
        <time>2020-09-27T17:24:54Z</time>
      </trkpt>
      <trkpt lat="40.70872" lon="-8.48298">
        <ele>192.308</ele>
        <time>2020-09-27T17:24:56Z</time>
      </trkpt>
      <trkpt lat="40.70886" lon="-8.48295">
        <ele>192.827</ele>
        <time>2020-09-27T17:24:57Z</time>
      </trkpt>
      <trkpt lat="40.70899" lon="-8.48292">
        <ele>193.219</ele>
        <time>2020-09-27T17:24:58Z</time>
      </trkpt>
      <trkpt lat="40.70926" lon="-8.48287">
        <ele>193.727</ele>
        <time>2020-09-27T17:25:00Z</time>
      </trkpt>
      <trkpt lat="40.7094" lon="-8.48284">
        <ele>194.129</ele>
        <time>2020-09-27T17:25:01Z</time>
      </trkpt>
      <trkpt lat="40.70954" lon="-8.48281">
        <ele>194.547</ele>
        <time>2020-09-27T17:25:02Z</time>
      </trkpt>
      <trkpt lat="40.70981" lon="-8.48275">
        <ele>194.827</ele>
        <time>2020-09-27T17:25:04Z</time>
      </trkpt>
      <trkpt lat="40.71007" lon="-8.48269">
        <ele>195.467</ele>
        <time>2020-09-27T17:25:06Z</time>
      </trkpt>
      <trkpt lat="40.71034" lon="-8.48265">
        <ele>196.165</ele>
        <time>2020-09-27T17:25:08Z</time>
      </trkpt>
      <trkpt lat="40.71048" lon="-8.48263">
        <ele>199.632</ele>
        <time>2020-09-27T17:25:09Z</time>
      </trkpt>
      <trkpt lat="40.71075" lon="-8.4826">
        <ele>199.492</ele>
        <time>2020-09-27T17:25:11Z</time>
      </trkpt>
      <trkpt lat="40.71088" lon="-8.4826">
        <ele>199.111</ele>
        <time>2020-09-27T17:25:12Z</time>
      </trkpt>
      <trkpt lat="40.71101" lon="-8.48261">
        <ele>198.908</ele>
        <time>2020-09-27T17:25:13Z</time>
      </trkpt>
      <trkpt lat="40.71125" lon="-8.48263">
        <ele>198.918</ele>
        <time>2020-09-27T17:25:15Z</time>
      </trkpt>
      <trkpt lat="40.71136" lon="-8.48265">
        <ele>199.09</ele>
        <time>2020-09-27T17:25:16Z</time>
      </trkpt>
      <trkpt lat="40.71155" lon="-8.48268">
        <ele>199.058</ele>
        <time>2020-09-27T17:25:18Z</time>
      </trkpt>
      <trkpt lat="40.71174" lon="-8.48272">
        <ele>199.16</ele>
        <time>2020-09-27T17:25:20Z</time>
      </trkpt>
      <trkpt lat="40.71191" lon="-8.48276">
        <ele>199.228</ele>
        <time>2020-09-27T17:25:22Z</time>
      </trkpt>
      <trkpt lat="40.71207" lon="-8.48279">
        <ele>199.288</ele>
        <time>2020-09-27T17:25:24Z</time>
      </trkpt>
      <trkpt lat="40.71224" lon="-8.4828">
        <ele>199.478</ele>
        <time>2020-09-27T17:25:26Z</time>
      </trkpt>
      <trkpt lat="40.7124" lon="-8.48277">
        <ele>199.486</ele>
        <time>2020-09-27T17:25:28Z</time>
      </trkpt>
      <trkpt lat="40.71256" lon="-8.48273">
        <ele>199.216</ele>
        <time>2020-09-27T17:25:30Z</time>
      </trkpt>
      <trkpt lat="40.71264" lon="-8.48274">
        <ele>199.176</ele>
        <time>2020-09-27T17:25:31Z</time>
      </trkpt>
      <trkpt lat="40.71278" lon="-8.48287">
        <ele>198.913</ele>
        <time>2020-09-27T17:25:33Z</time>
      </trkpt>
      <trkpt lat="40.71294" lon="-8.48303">
        <ele>198.608</ele>
        <time>2020-09-27T17:25:35Z</time>
      </trkpt>
      <trkpt lat="40.71303" lon="-8.48309">
        <ele>198.376</ele>
        <time>2020-09-27T17:25:36Z</time>
      </trkpt>
      <trkpt lat="40.71314" lon="-8.48315">
        <ele>198.098</ele>
        <time>2020-09-27T17:25:37Z</time>
      </trkpt>
      <trkpt lat="40.71325" lon="-8.4832">
        <ele>197.756</ele>
        <time>2020-09-27T17:25:38Z</time>
      </trkpt>
      <trkpt lat="40.7135" lon="-8.48329">
        <ele>197.218</ele>
        <time>2020-09-27T17:25:40Z</time>
      </trkpt>
      <trkpt lat="40.71363" lon="-8.48333">
        <ele>196.876</ele>
        <time>2020-09-27T17:25:41Z</time>
      </trkpt>
      <trkpt lat="40.71376" lon="-8.48338">
        <ele>196.536</ele>
        <time>2020-09-27T17:25:42Z</time>
      </trkpt>
      <trkpt lat="40.71389" lon="-8.48341">
        <ele>196.126</ele>
        <time>2020-09-27T17:25:43Z</time>
      </trkpt>
      <trkpt lat="40.71416" lon="-8.48349">
        <ele>195.634</ele>
        <time>2020-09-27T17:25:45Z</time>
      </trkpt>
      <trkpt lat="40.71429" lon="-8.48353">
        <ele>195.248</ele>
        <time>2020-09-27T17:25:46Z</time>
      </trkpt>
      <trkpt lat="40.71453" lon="-8.48359">
        <ele>194.961</ele>
        <time>2020-09-27T17:25:48Z</time>
      </trkpt>
      <trkpt lat="40.71465" lon="-8.48363">
        <ele>194.817</ele>
        <time>2020-09-27T17:25:49Z</time>
      </trkpt>
      <trkpt lat="40.71488" lon="-8.4837">
        <ele>194.908</ele>
        <time>2020-09-27T17:25:51Z</time>
      </trkpt>
      <trkpt lat="40.715" lon="-8.48373">
        <ele>195.149</ele>
        <time>2020-09-27T17:25:52Z</time>
      </trkpt>
      <trkpt lat="40.71522" lon="-8.48379">
        <ele>195.361</ele>
        <time>2020-09-27T17:25:54Z</time>
      </trkpt>
      <trkpt lat="40.71535" lon="-8.48383">
        <ele>195.439</ele>
        <time>2020-09-27T17:25:55Z</time>
      </trkpt>
      <trkpt lat="40.71561" lon="-8.4839">
        <ele>195.691</ele>
        <time>2020-09-27T17:25:57Z</time>
      </trkpt>
      <trkpt lat="40.71574" lon="-8.48395">
        <ele>195.799</ele>
        <time>2020-09-27T17:25:58Z</time>
      </trkpt>
      <trkpt lat="40.716" lon="-8.48402">
        <ele>195.829</ele>
        <time>2020-09-27T17:26:00Z</time>
      </trkpt>
      <trkpt lat="40.71626" lon="-8.4841">
        <ele>195.779</ele>
        <time>2020-09-27T17:26:02Z</time>
      </trkpt>
      <trkpt lat="40.7164" lon="-8.48415">
        <ele>195.647</ele>
        <time>2020-09-27T17:26:03Z</time>
      </trkpt>
      <trkpt lat="40.71671" lon="-8.48424">
        <ele>195.587</ele>
        <time>2020-09-27T17:26:05Z</time>
      </trkpt>
      <trkpt lat="40.71702" lon="-8.48433">
        <ele>195.242</ele>
        <time>2020-09-27T17:26:07Z</time>
      </trkpt>
      <trkpt lat="40.71717" lon="-8.48436">
        <ele>195.026</ele>
        <time>2020-09-27T17:26:08Z</time>
      </trkpt>
      <trkpt lat="40.71747" lon="-8.48445">
        <ele>194.508</ele>
        <time>2020-09-27T17:26:10Z</time>
      </trkpt>
      <trkpt lat="40.71763" lon="-8.48449">
        <ele>194.113</ele>
        <time>2020-09-27T17:26:11Z</time>
      </trkpt>
      <trkpt lat="40.71793" lon="-8.48458">
        <ele>193.645</ele>
        <time>2020-09-27T17:26:13Z</time>
      </trkpt>
      <trkpt lat="40.71824" lon="-8.48467">
        <ele>193.563</ele>
        <time>2020-09-27T17:26:15Z</time>
      </trkpt>
      <trkpt lat="40.71855" lon="-8.48476">
        <ele>193.215</ele>
        <time>2020-09-27T17:26:17Z</time>
      </trkpt>
      <trkpt lat="40.71872" lon="-8.48481">
        <ele>193.113</ele>
        <time>2020-09-27T17:26:18Z</time>
      </trkpt>
      <trkpt lat="40.71889" lon="-8.48486">
        <ele>193.063</ele>
        <time>2020-09-27T17:26:19Z</time>
      </trkpt>
      <trkpt lat="40.71907" lon="-8.48492">
        <ele>193.283</ele>
        <time>2020-09-27T17:26:20Z</time>
      </trkpt>
      <trkpt lat="40.71947" lon="-8.48504">
        <ele>193.741</ele>
        <time>2020-09-27T17:26:22Z</time>
      </trkpt>
      <trkpt lat="40.71966" lon="-8.48509">
        <ele>194.197</ele>
        <time>2020-09-27T17:26:23Z</time>
      </trkpt>
      <trkpt lat="40.72004" lon="-8.4852">
        <ele>194.423</ele>
        <time>2020-09-27T17:26:25Z</time>
      </trkpt>
      <trkpt lat="40.72047" lon="-8.48533">
        <ele>194.525</ele>
        <time>2020-09-27T17:26:27Z</time>
      </trkpt>
      <trkpt lat="40.72071" lon="-8.4854">
        <ele>194.408</ele>
        <time>2020-09-27T17:26:28Z</time>
      </trkpt>
      <trkpt lat="40.72118" lon="-8.48553">
        <ele>194.034</ele>
        <time>2020-09-27T17:26:30Z</time>
      </trkpt>
      <trkpt lat="40.7214" lon="-8.48559">
        <ele>193.586</ele>
        <time>2020-09-27T17:26:31Z</time>
      </trkpt>
      <trkpt lat="40.72163" lon="-8.48565">
        <ele>193.024</ele>
        <time>2020-09-27T17:26:32Z</time>
      </trkpt>
      <trkpt lat="40.72209" lon="-8.4858">
        <ele>192.196</ele>
        <time>2020-09-27T17:26:34Z</time>
      </trkpt>
      <trkpt lat="40.72232" lon="-8.48587">
        <ele>191.384</ele>
        <time>2020-09-27T17:26:35Z</time>
      </trkpt>
      <trkpt lat="40.72279" lon="-8.48601">
        <ele>190.184</ele>
        <time>2020-09-27T17:26:37Z</time>
      </trkpt>
      <trkpt lat="40.72324" lon="-8.48614">
        <ele>189.294</ele>
        <time>2020-09-27T17:26:39Z</time>
      </trkpt>
      <trkpt lat="40.72369" lon="-8.48627">
        <ele>188.352</ele>
        <time>2020-09-27T17:26:41Z</time>
      </trkpt>
      <trkpt lat="40.72391" lon="-8.48633">
        <ele>187.328</ele>
        <time>2020-09-27T17:26:42Z</time>
      </trkpt>
      <trkpt lat="40.72412" lon="-8.4864">
        <ele>186.089</ele>
        <time>2020-09-27T17:26:43Z</time>
      </trkpt>
      <trkpt lat="40.72433" lon="-8.48646">
        <ele>185.217</ele>
        <time>2020-09-27T17:26:44Z</time>
      </trkpt>
      <trkpt lat="40.72453" lon="-8.48652">
        <ele>184.608</ele>
        <time>2020-09-27T17:26:45Z</time>
      </trkpt>
      <trkpt lat="40.72491" lon="-8.48663">
        <ele>183.847</ele>
        <time>2020-09-27T17:26:47Z</time>
      </trkpt>
      <trkpt lat="40.7253" lon="-8.48676">
        <ele>183.359</ele>
        <time>2020-09-27T17:26:49Z</time>
      </trkpt>
      <trkpt lat="40.7257" lon="-8.48689">
        <ele>183.417</ele>
        <time>2020-09-27T17:26:51Z</time>
      </trkpt>
      <trkpt lat="40.72592" lon="-8.48697">
        <ele>183.469</ele>
        <time>2020-09-27T17:26:52Z</time>
      </trkpt>
      <trkpt lat="40.72613" lon="-8.48704">
        <ele>183.487</ele>
        <time>2020-09-27T17:26:53Z</time>
      </trkpt>
      <trkpt lat="40.72636" lon="-8.48711">
        <ele>183.347</ele>
        <time>2020-09-27T17:26:54Z</time>
      </trkpt>
      <trkpt lat="40.72681" lon="-8.48724">
        <ele>183.067</ele>
        <time>2020-09-27T17:26:56Z</time>
      </trkpt>
      <trkpt lat="40.72728" lon="-8.48739">
        <ele>182.845</ele>
        <time>2020-09-27T17:26:58Z</time>
      </trkpt>
      <trkpt lat="40.72776" lon="-8.48752">
        <ele>182.938</ele>
        <time>2020-09-27T17:27:00Z</time>
      </trkpt>
      <trkpt lat="40.72824" lon="-8.48765">
        <ele>182.97</ele>
        <time>2020-09-27T17:27:02Z</time>
      </trkpt>
      <trkpt lat="40.72872" lon="-8.4878">
        <ele>183.017</ele>
        <time>2020-09-27T17:27:04Z</time>
      </trkpt>
      <trkpt lat="40.72921" lon="-8.48794">
        <ele>183.008</ele>
        <time>2020-09-27T17:27:06Z</time>
      </trkpt>
      <trkpt lat="40.72945" lon="-8.48801">
        <ele>183.128</ele>
        <time>2020-09-27T17:27:07Z</time>
      </trkpt>
      <trkpt lat="40.72967" lon="-8.48808">
        <ele>183.16</ele>
        <time>2020-09-27T17:27:08Z</time>
      </trkpt>
      <trkpt lat="40.72989" lon="-8.48815">
        <ele>183.068</ele>
        <time>2020-09-27T17:27:09Z</time>
      </trkpt>
      <trkpt lat="40.73028" lon="-8.48827">
        <ele>183.23</ele>
        <time>2020-09-27T17:27:11Z</time>
      </trkpt>
      <trkpt lat="40.73046" lon="-8.48832">
        <ele>183.348</ele>
        <time>2020-09-27T17:27:12Z</time>
      </trkpt>
      <trkpt lat="40.73065" lon="-8.48837">
        <ele>183.228</ele>
        <time>2020-09-27T17:27:13Z</time>
      </trkpt>
      <trkpt lat="40.73102" lon="-8.48842">
        <ele>183.018</ele>
        <time>2020-09-27T17:27:15Z</time>
      </trkpt>
      <trkpt lat="40.7314" lon="-8.48843">
        <ele>182.766</ele>
        <time>2020-09-27T17:27:17Z</time>
      </trkpt>
      <trkpt lat="40.7316" lon="-8.48842">
        <ele>182.474</ele>
        <time>2020-09-27T17:27:18Z</time>
      </trkpt>
      <trkpt lat="40.73198" lon="-8.48841">
        <ele>181.956</ele>
        <time>2020-09-27T17:27:20Z</time>
      </trkpt>
      <trkpt lat="40.73235" lon="-8.4884">
        <ele>181.521</ele>
        <time>2020-09-27T17:27:22Z</time>
      </trkpt>
      <trkpt lat="40.73255" lon="-8.4884">
        <ele>181.108</ele>
        <time>2020-09-27T17:27:23Z</time>
      </trkpt>
      <trkpt lat="40.73277" lon="-8.4884">
        <ele>180.712</ele>
        <time>2020-09-27T17:27:24Z</time>
      </trkpt>
      <trkpt lat="40.73321" lon="-8.48839">
        <ele>180.194</ele>
        <time>2020-09-27T17:27:26Z</time>
      </trkpt>
      <trkpt lat="40.73345" lon="-8.48838">
        <ele>179.772</ele>
        <time>2020-09-27T17:27:27Z</time>
      </trkpt>
      <trkpt lat="40.73368" lon="-8.48837">
        <ele>179.444</ele>
        <time>2020-09-27T17:27:28Z</time>
      </trkpt>
      <trkpt lat="40.73416" lon="-8.48837">
        <ele>179.462</ele>
        <time>2020-09-27T17:27:30Z</time>
      </trkpt>
      <trkpt lat="40.73463" lon="-8.48837">
        <ele>179.352</ele>
        <time>2020-09-27T17:27:32Z</time>
      </trkpt>
      <trkpt lat="40.73484" lon="-8.48836">
        <ele>179.342</ele>
        <time>2020-09-27T17:27:33Z</time>
      </trkpt>
      <trkpt lat="40.73504" lon="-8.48835">
        <ele>179.38</ele>
        <time>2020-09-27T17:27:34Z</time>
      </trkpt>
      <trkpt lat="40.73541" lon="-8.48835">
        <ele>179.293</ele>
        <time>2020-09-27T17:27:36Z</time>
      </trkpt>
      <trkpt lat="40.73574" lon="-8.48835">
        <ele>179.065</ele>
        <time>2020-09-27T17:27:38Z</time>
      </trkpt>
      <trkpt lat="40.7359" lon="-8.48835">
        <ele>178.721</ele>
        <time>2020-09-27T17:27:39Z</time>
      </trkpt>
      <trkpt lat="40.7362" lon="-8.48839">
        <ele>178.308</ele>
        <time>2020-09-27T17:27:41Z</time>
      </trkpt>
      <trkpt lat="40.73648" lon="-8.4885">
        <ele>177.734</ele>
        <time>2020-09-27T17:27:43Z</time>
      </trkpt>
      <trkpt lat="40.73673" lon="-8.48866">
        <ele>177.166</ele>
        <time>2020-09-27T17:27:45Z</time>
      </trkpt>
      <trkpt lat="40.73685" lon="-8.48875">
        <ele>176.744</ele>
        <time>2020-09-27T17:27:46Z</time>
      </trkpt>
      <trkpt lat="40.73696" lon="-8.48884">
        <ele>176.586</ele>
        <time>2020-09-27T17:27:47Z</time>
      </trkpt>
      <trkpt lat="40.73708" lon="-8.48893">
        <ele>176.554</ele>
        <time>2020-09-27T17:27:48Z</time>
      </trkpt>
      <trkpt lat="40.73731" lon="-8.48908">
        <ele>176.354</ele>
        <time>2020-09-27T17:27:50Z</time>
      </trkpt>
      <trkpt lat="40.73741" lon="-8.48916">
        <ele>178.044</ele>
        <time>2020-09-27T17:27:51Z</time>
      </trkpt>
      <trkpt lat="40.73752" lon="-8.48923">
        <ele>178.572</ele>
        <time>2020-09-27T17:27:52Z</time>
      </trkpt>
      <trkpt lat="40.73762" lon="-8.4893">
        <ele>178.173</ele>
        <time>2020-09-27T17:27:53Z</time>
      </trkpt>
      <trkpt lat="40.73782" lon="-8.48943">
        <ele>177.485</ele>
        <time>2020-09-27T17:27:55Z</time>
      </trkpt>
      <trkpt lat="40.73803" lon="-8.48957">
        <ele>177.013</ele>
        <time>2020-09-27T17:27:57Z</time>
      </trkpt>
      <trkpt lat="40.73825" lon="-8.4897">
        <ele>177.008</ele>
        <time>2020-09-27T17:27:59Z</time>
      </trkpt>
      <trkpt lat="40.73836" lon="-8.48976">
        <ele>177.242</ele>
        <time>2020-09-27T17:28:00Z</time>
      </trkpt>
      <trkpt lat="40.73848" lon="-8.4898">
        <ele>177.784</ele>
        <time>2020-09-27T17:28:01Z</time>
      </trkpt>
      <trkpt lat="40.73874" lon="-8.48988">
        <ele>178.742</ele>
        <time>2020-09-27T17:28:03Z</time>
      </trkpt>
      <trkpt lat="40.73887" lon="-8.48992">
        <ele>179.724</ele>
        <time>2020-09-27T17:28:04Z</time>
      </trkpt>
      <trkpt lat="40.73914" lon="-8.49">
        <ele>180.582</ele>
        <time>2020-09-27T17:28:06Z</time>
      </trkpt>
      <trkpt lat="40.73928" lon="-8.49003">
        <ele>181.262</ele>
        <time>2020-09-27T17:28:07Z</time>
      </trkpt>
      <trkpt lat="40.7394" lon="-8.49007">
        <ele>182.042</ele>
        <time>2020-09-27T17:28:08Z</time>
      </trkpt>
      <trkpt lat="40.73952" lon="-8.4901">
        <ele>182.91</ele>
        <time>2020-09-27T17:28:09Z</time>
      </trkpt>
      <trkpt lat="40.73965" lon="-8.49013">
        <ele>183.898</ele>
        <time>2020-09-27T17:28:10Z</time>
      </trkpt>
      <trkpt lat="40.73991" lon="-8.4902">
        <ele>185.215</ele>
        <time>2020-09-27T17:28:12Z</time>
      </trkpt>
      <trkpt lat="40.74003" lon="-8.49023">
        <ele>186.226</ele>
        <time>2020-09-27T17:28:13Z</time>
      </trkpt>
      <trkpt lat="40.74026" lon="-8.4903">
        <ele>186.808</ele>
        <time>2020-09-27T17:28:15Z</time>
      </trkpt>
      <trkpt lat="40.74047" lon="-8.49035">
        <ele>187.544</ele>
        <time>2020-09-27T17:28:17Z</time>
      </trkpt>
      <trkpt lat="40.74056" lon="-8.49037">
        <ele>187.976</ele>
        <time>2020-09-27T17:28:18Z</time>
      </trkpt>
      <trkpt lat="40.74075" lon="-8.49041">
        <ele>188.534</ele>
        <time>2020-09-27T17:28:20Z</time>
      </trkpt>
      <trkpt lat="40.74088" lon="-8.49044">
        <ele>189.156</ele>
        <time>2020-09-27T17:28:21Z</time>
      </trkpt>
      <trkpt lat="40.74114" lon="-8.49052">
        <ele>189.124</ele>
        <time>2020-09-27T17:28:23Z</time>
      </trkpt>
      <trkpt lat="40.74128" lon="-8.49057">
        <ele>189.434</ele>
        <time>2020-09-27T17:28:24Z</time>
      </trkpt>
      <trkpt lat="40.74143" lon="-8.49061">
        <ele>189.734</ele>
        <time>2020-09-27T17:28:25Z</time>
      </trkpt>
      <trkpt lat="40.74159" lon="-8.49064">
        <ele>189.892</ele>
        <time>2020-09-27T17:28:26Z</time>
      </trkpt>
      <trkpt lat="40.74192" lon="-8.49066">
        <ele>190.355</ele>
        <time>2020-09-27T17:28:28Z</time>
      </trkpt>
      <trkpt lat="40.74206" lon="-8.49065">
        <ele>190.607</ele>
        <time>2020-09-27T17:28:29Z</time>
      </trkpt>
      <trkpt lat="40.74232" lon="-8.49062">
        <ele>190.817</ele>
        <time>2020-09-27T17:28:31Z</time>
      </trkpt>
      <trkpt lat="40.74253" lon="-8.49061">
        <ele>191.208</ele>
        <time>2020-09-27T17:28:33Z</time>
      </trkpt>
      <trkpt lat="40.74273" lon="-8.4906">
        <ele>191.85</ele>
        <time>2020-09-27T17:28:35Z</time>
      </trkpt>
      <trkpt lat="40.74293" lon="-8.49059">
        <ele>192.172</ele>
        <time>2020-09-27T17:28:37Z</time>
      </trkpt>
      <trkpt lat="40.74303" lon="-8.49058">
        <ele>192.23</ele>
        <time>2020-09-27T17:28:38Z</time>
      </trkpt>
      <trkpt lat="40.74312" lon="-8.49057">
        <ele>192.222</ele>
        <time>2020-09-27T17:28:39Z</time>
      </trkpt>
      <trkpt lat="40.7432" lon="-8.49057">
        <ele>192.33</ele>
        <time>2020-09-27T17:28:40Z</time>
      </trkpt>
      <trkpt lat="40.74337" lon="-8.49056">
        <ele>192.22</ele>
        <time>2020-09-27T17:28:42Z</time>
      </trkpt>
      <trkpt lat="40.74353" lon="-8.49055">
        <ele>192.27</ele>
        <time>2020-09-27T17:28:44Z</time>
      </trkpt>
      <trkpt lat="40.74371" lon="-8.49054">
        <ele>192.178</ele>
        <time>2020-09-27T17:28:46Z</time>
      </trkpt>
      <trkpt lat="40.74379" lon="-8.49053">
        <ele>191.924</ele>
        <time>2020-09-27T17:28:47Z</time>
      </trkpt>
      <trkpt lat="40.74395" lon="-8.49052">
        <ele>192.104</ele>
        <time>2020-09-27T17:28:49Z</time>
      </trkpt>
      <trkpt lat="40.74404" lon="-8.49051">
        <ele>191.914</ele>
        <time>2020-09-27T17:28:50Z</time>
      </trkpt>
      <trkpt lat="40.74425" lon="-8.49051">
        <ele>191.308</ele>
        <time>2020-09-27T17:28:52Z</time>
      </trkpt>
      <trkpt lat="40.74437" lon="-8.49051">
        <ele>190.787</ele>
        <time>2020-09-27T17:28:53Z</time>
      </trkpt>
      <trkpt lat="40.74452" lon="-8.49051">
        <ele>190.119</ele>
        <time>2020-09-27T17:28:54Z</time>
      </trkpt>
      <trkpt lat="40.7447" lon="-8.4905">
        <ele>189.687</ele>
        <time>2020-09-27T17:28:55Z</time>
      </trkpt>
      <trkpt lat="40.74506" lon="-8.49046">
        <ele>189.249</ele>
        <time>2020-09-27T17:28:57Z</time>
      </trkpt>
      <trkpt lat="40.74524" lon="-8.49045">
        <ele>189.227</ele>
        <time>2020-09-27T17:28:58Z</time>
      </trkpt>
      <trkpt lat="40.74562" lon="-8.49044">
        <ele>188.477</ele>
        <time>2020-09-27T17:29:00Z</time>
      </trkpt>
      <trkpt lat="40.74581" lon="-8.49046">
        <ele>188.057</ele>
        <time>2020-09-27T17:29:01Z</time>
      </trkpt>
      <trkpt lat="40.74618" lon="-8.4905">
        <ele>188.095</ele>
        <time>2020-09-27T17:29:03Z</time>
      </trkpt>
      <trkpt lat="40.74652" lon="-8.49053">
        <ele>188.545</ele>
        <time>2020-09-27T17:29:05Z</time>
      </trkpt>
      <trkpt lat="40.74668" lon="-8.49055">
        <ele>189.047</ele>
        <time>2020-09-27T17:29:06Z</time>
      </trkpt>
      <trkpt lat="40.74684" lon="-8.49056">
        <ele>189.411</ele>
        <time>2020-09-27T17:29:07Z</time>
      </trkpt>
      <trkpt lat="40.74701" lon="-8.49058">
        <ele>189.908</ele>
        <time>2020-09-27T17:29:08Z</time>
      </trkpt>
      <trkpt lat="40.74731" lon="-8.49061">
        <ele>190.649</ele>
        <time>2020-09-27T17:29:10Z</time>
      </trkpt>
      <trkpt lat="40.74758" lon="-8.49063">
        <ele>191.841</ele>
        <time>2020-09-27T17:29:12Z</time>
      </trkpt>
      <trkpt lat="40.74771" lon="-8.49063">
        <ele>192.889</ele>
        <time>2020-09-27T17:29:13Z</time>
      </trkpt>
      <trkpt lat="40.74797" lon="-8.49059">
        <ele>193.741</ele>
        <time>2020-09-27T17:29:15Z</time>
      </trkpt>
      <trkpt lat="40.74823" lon="-8.49046">
        <ele>194.859</ele>
        <time>2020-09-27T17:29:17Z</time>
      </trkpt>
      <trkpt lat="40.74835" lon="-8.49038">
        <ele>195.669</ele>
        <time>2020-09-27T17:29:18Z</time>
      </trkpt>
      <trkpt lat="40.74856" lon="-8.49021">
        <ele>196.359</ele>
        <time>2020-09-27T17:29:20Z</time>
      </trkpt>
      <trkpt lat="40.74866" lon="-8.49012">
        <ele>196.757</ele>
        <time>2020-09-27T17:29:21Z</time>
      </trkpt>
      <trkpt lat="40.74889" lon="-8.48992">
        <ele>197.024</ele>
        <time>2020-09-27T17:29:23Z</time>
      </trkpt>
      <trkpt lat="40.74902" lon="-8.48982">
        <ele>197.204</ele>
        <time>2020-09-27T17:29:24Z</time>
      </trkpt>
      <trkpt lat="40.74914" lon="-8.48971">
        <ele>197.414</ele>
        <time>2020-09-27T17:29:25Z</time>
      </trkpt>
      <trkpt lat="40.74937" lon="-8.48951">
        <ele>197.408</ele>
        <time>2020-09-27T17:29:27Z</time>
      </trkpt>
      <trkpt lat="40.74958" lon="-8.48932">
        <ele>197.397</ele>
        <time>2020-09-27T17:29:29Z</time>
      </trkpt>
      <trkpt lat="40.74978" lon="-8.48914">
        <ele>197.349</ele>
        <time>2020-09-27T17:29:31Z</time>
      </trkpt>
      <trkpt lat="40.74988" lon="-8.48906">
        <ele>197.337</ele>
        <time>2020-09-27T17:29:32Z</time>
      </trkpt>
      <trkpt lat="40.75008" lon="-8.48889">
        <ele>197.489</ele>
        <time>2020-09-27T17:29:34Z</time>
      </trkpt>
      <trkpt lat="40.75018" lon="-8.48881">
        <ele>197.637</ele>
        <time>2020-09-27T17:29:35Z</time>
      </trkpt>
      <trkpt lat="40.75028" lon="-8.48873">
        <ele>197.637</ele>
        <time>2020-09-27T17:29:36Z</time>
      </trkpt>
      <trkpt lat="40.75047" lon="-8.48858">
        <ele>197.667</ele>
        <time>2020-09-27T17:29:38Z</time>
      </trkpt>
      <trkpt lat="40.75058" lon="-8.4885">
        <ele>197.755</ele>
        <time>2020-09-27T17:29:39Z</time>
      </trkpt>
      <trkpt lat="40.75078" lon="-8.48837">
        <ele>198.019</ele>
        <time>2020-09-27T17:29:41Z</time>
      </trkpt>
      <trkpt lat="40.75089" lon="-8.48832">
        <ele>198.309</ele>
        <time>2020-09-27T17:29:42Z</time>
      </trkpt>
      <trkpt lat="40.75107" lon="-8.48823">
        <ele>198.619</ele>
        <time>2020-09-27T17:29:44Z</time>
      </trkpt>
      <trkpt lat="40.75116" lon="-8.48819">
        <ele>198.908</ele>
        <time>2020-09-27T17:29:45Z</time>
      </trkpt>
      <trkpt lat="40.75124" lon="-8.48815">
        <ele>199.066</ele>
        <time>2020-09-27T17:29:46Z</time>
      </trkpt>
      <trkpt lat="40.75132" lon="-8.48812">
        <ele>199.188</ele>
        <time>2020-09-27T17:29:47Z</time>
      </trkpt>
      <trkpt lat="40.7514" lon="-8.48808">
        <ele>199.286</ele>
        <time>2020-09-27T17:29:48Z</time>
      </trkpt>
      <trkpt lat="40.75155" lon="-8.48801">
        <ele>199.548</ele>
        <time>2020-09-27T17:29:50Z</time>
      </trkpt>
      <trkpt lat="40.75164" lon="-8.48797">
        <ele>199.886</ele>
        <time>2020-09-27T17:29:51Z</time>
      </trkpt>
      <trkpt lat="40.75182" lon="-8.48789">
        <ele>200.376</ele>
        <time>2020-09-27T17:29:53Z</time>
      </trkpt>
      <trkpt lat="40.75192" lon="-8.48784">
        <ele>200.336</ele>
        <time>2020-09-27T17:29:54Z</time>
      </trkpt>
      <trkpt lat="40.75202" lon="-8.48779">
        <ele>200.484</ele>
        <time>2020-09-27T17:29:55Z</time>
      </trkpt>
      <trkpt lat="40.75223" lon="-8.48769">
        <ele>200.428</ele>
        <time>2020-09-27T17:29:57Z</time>
      </trkpt>
      <trkpt lat="40.75235" lon="-8.48763">
        <ele>200.689</ele>
        <time>2020-09-27T17:29:58Z</time>
      </trkpt>
      <trkpt lat="40.75259" lon="-8.48752">
        <ele>201.217</ele>
        <time>2020-09-27T17:30:00Z</time>
      </trkpt>
      <trkpt lat="40.75272" lon="-8.48746">
        <ele>201.308</ele>
        <time>2020-09-27T17:30:01Z</time>
      </trkpt>
      <trkpt lat="40.75284" lon="-8.4874">
        <ele>201.697</ele>
        <time>2020-09-27T17:30:02Z</time>
      </trkpt>
      <trkpt lat="40.75307" lon="-8.4873">
        <ele>201.769</ele>
        <time>2020-09-27T17:30:04Z</time>
      </trkpt>
      <trkpt lat="40.75318" lon="-8.48725">
        <ele>202.027</ele>
        <time>2020-09-27T17:30:05Z</time>
      </trkpt>
      <trkpt lat="40.75329" lon="-8.4872">
        <ele>202.299</ele>
        <time>2020-09-27T17:30:06Z</time>
      </trkpt>
      <trkpt lat="40.75338" lon="-8.48715">
        <ele>202.437</ele>
        <time>2020-09-27T17:30:07Z</time>
      </trkpt>
      <trkpt lat="40.75353" lon="-8.48707">
        <ele>202.347</ele>
        <time>2020-09-27T17:30:09Z</time>
      </trkpt>
      <trkpt lat="40.75365" lon="-8.48701">
        <ele>202.267</ele>
        <time>2020-09-27T17:30:11Z</time>
      </trkpt>
      <trkpt lat="40.75376" lon="-8.48696">
        <ele>202.075</ele>
        <time>2020-09-27T17:30:13Z</time>
      </trkpt>
      <trkpt lat="40.75383" lon="-8.48694">
        <ele>202.155</ele>
        <time>2020-09-27T17:30:14Z</time>
      </trkpt>
      <trkpt lat="40.7539" lon="-8.48691">
        <ele>201.907</ele>
        <time>2020-09-27T17:30:15Z</time>
      </trkpt>
      <trkpt lat="40.75398" lon="-8.48687">
        <ele>201.517</ele>
        <time>2020-09-27T17:30:16Z</time>
      </trkpt>
      <trkpt lat="40.75415" lon="-8.48678">
        <ele>201.308</ele>
        <time>2020-09-27T17:30:18Z</time>
      </trkpt>
      <trkpt lat="40.75422" lon="-8.48675">
        <ele>201.23</ele>
        <time>2020-09-27T17:30:19Z</time>
      </trkpt>
      <trkpt lat="40.7543" lon="-8.48671">
        <ele>201.212</ele>
        <time>2020-09-27T17:30:20Z</time>
      </trkpt>
      <trkpt lat="40.75447" lon="-8.48664">
        <ele>201.32</ele>
        <time>2020-09-27T17:30:22Z</time>
      </trkpt>
      <trkpt lat="40.75468" lon="-8.48655">
        <ele>201.282</ele>
        <time>2020-09-27T17:30:24Z</time>
      </trkpt>
      <trkpt lat="40.75487" lon="-8.48645">
        <ele>200.64</ele>
        <time>2020-09-27T17:30:26Z</time>
      </trkpt>
      <trkpt lat="40.75496" lon="-8.48641">
        <ele>200.38</ele>
        <time>2020-09-27T17:30:27Z</time>
      </trkpt>
      <trkpt lat="40.75505" lon="-8.48637">
        <ele>200.08</ele>
        <time>2020-09-27T17:30:28Z</time>
      </trkpt>
      <trkpt lat="40.75521" lon="-8.48629">
        <ele>199.178</ele>
        <time>2020-09-27T17:30:30Z</time>
      </trkpt>
      <trkpt lat="40.7553" lon="-8.48625">
        <ele>198.453</ele>
        <time>2020-09-27T17:30:31Z</time>
      </trkpt>
      <trkpt lat="40.75551" lon="-8.48615">
        <ele>197.704</ele>
        <time>2020-09-27T17:30:33Z</time>
      </trkpt>
      <trkpt lat="40.75575" lon="-8.48603">
        <ele>197.214</ele>
        <time>2020-09-27T17:30:35Z</time>
      </trkpt>
      <trkpt lat="40.75597" lon="-8.48593">
        <ele>197.108</ele>
        <time>2020-09-27T17:30:37Z</time>
      </trkpt>
      <trkpt lat="40.75609" lon="-8.48588">
        <ele>197.28</ele>
        <time>2020-09-27T17:30:38Z</time>
      </trkpt>
      <trkpt lat="40.75631" lon="-8.48577">
        <ele>197.492</ele>
        <time>2020-09-27T17:30:40Z</time>
      </trkpt>
      <trkpt lat="40.75641" lon="-8.48573">
        <ele>197.53</ele>
        <time>2020-09-27T17:30:41Z</time>
      </trkpt>
      <trkpt lat="40.7565" lon="-8.48569">
        <ele>197.642</ele>
        <time>2020-09-27T17:30:42Z</time>
      </trkpt>
      <trkpt lat="40.75657" lon="-8.48565">
        <ele>197.71</ele>
        <time>2020-09-27T17:30:43Z</time>
      </trkpt>
      <trkpt lat="40.75671" lon="-8.48559">
        <ele>197.93</ele>
        <time>2020-09-27T17:30:45Z</time>
      </trkpt>
      <trkpt lat="40.75678" lon="-8.48556">
        <ele>196.24</ele>
        <time>2020-09-27T17:30:46Z</time>
      </trkpt>
      <trkpt lat="40.75694" lon="-8.48548">
        <ele>196.458</ele>
        <time>2020-09-27T17:30:48Z</time>
      </trkpt>
      <trkpt lat="40.75711" lon="-8.48541">
        <ele>196.991</ele>
        <time>2020-09-27T17:30:50Z</time>
      </trkpt>
      <trkpt lat="40.75729" lon="-8.48532">
        <ele>197.381</ele>
        <time>2020-09-27T17:30:52Z</time>
      </trkpt>
      <trkpt lat="40.75738" lon="-8.48527">
        <ele>197.619</ele>
        <time>2020-09-27T17:30:53Z</time>
      </trkpt>
      <trkpt lat="40.75748" lon="-8.48523">
        <ele>197.908</ele>
        <time>2020-09-27T17:30:54Z</time>
      </trkpt>
      <trkpt lat="40.75769" lon="-8.48514">
        <ele>198.124</ele>
        <time>2020-09-27T17:30:56Z</time>
      </trkpt>
      <trkpt lat="40.7578" lon="-8.4851">
        <ele>198.426</ele>
        <time>2020-09-27T17:30:57Z</time>
      </trkpt>
      <trkpt lat="40.75791" lon="-8.48505">
        <ele>198.214</ele>
        <time>2020-09-27T17:30:58Z</time>
      </trkpt>
      <trkpt lat="40.75809" lon="-8.48498">
        <ele>198.466</ele>
        <time>2020-09-27T17:31:00Z</time>
      </trkpt>
      <trkpt lat="40.75824" lon="-8.48491">
        <ele>198.814</ele>
        <time>2020-09-27T17:31:02Z</time>
      </trkpt>
      <trkpt lat="40.75837" lon="-8.48486">
        <ele>199.274</ele>
        <time>2020-09-27T17:31:04Z</time>
      </trkpt>
      <trkpt lat="40.75848" lon="-8.48482">
        <ele>199.624</ele>
        <time>2020-09-27T17:31:06Z</time>
      </trkpt>
      <trkpt lat="40.75861" lon="-8.48477">
        <ele>200.132</ele>
        <time>2020-09-27T17:31:08Z</time>
      </trkpt>
      <trkpt lat="40.75869" lon="-8.48474">
        <ele>200.483</ele>
        <time>2020-09-27T17:31:09Z</time>
      </trkpt>
      <trkpt lat="40.75876" lon="-8.48471">
        <ele>200.725</ele>
        <time>2020-09-27T17:31:10Z</time>
      </trkpt>
      <trkpt lat="40.75884" lon="-8.48467">
        <ele>200.917</ele>
        <time>2020-09-27T17:31:11Z</time>
      </trkpt>
      <trkpt lat="40.75893" lon="-8.48464">
        <ele>201.008</ele>
        <time>2020-09-27T17:31:12Z</time>
      </trkpt>
      <trkpt lat="40.75903" lon="-8.4846">
        <ele>201.253</ele>
        <time>2020-09-27T17:31:13Z</time>
      </trkpt>
      <trkpt lat="40.75923" lon="-8.48451">
        <ele>201.115</ele>
        <time>2020-09-27T17:31:15Z</time>
      </trkpt>
      <trkpt lat="40.75944" lon="-8.48442">
        <ele>201.183</ele>
        <time>2020-09-27T17:31:17Z</time>
      </trkpt>
      <trkpt lat="40.75954" lon="-8.48439">
        <ele>201.195</ele>
        <time>2020-09-27T17:31:18Z</time>
      </trkpt>
      <trkpt lat="40.75975" lon="-8.4843">
        <ele>201.023</ele>
        <time>2020-09-27T17:31:20Z</time>
      </trkpt>
      <trkpt lat="40.76002" lon="-8.48419">
        <ele>200.873</ele>
        <time>2020-09-27T17:31:22Z</time>
      </trkpt>
      <trkpt lat="40.76025" lon="-8.4841">
        <ele>200.493</ele>
        <time>2020-09-27T17:31:24Z</time>
      </trkpt>
      <trkpt lat="40.76035" lon="-8.48406">
        <ele>200.181</ele>
        <time>2020-09-27T17:31:25Z</time>
      </trkpt>
      <trkpt lat="40.76045" lon="-8.48401">
        <ele>199.969</ele>
        <time>2020-09-27T17:31:26Z</time>
      </trkpt>
      <trkpt lat="40.76067" lon="-8.48392">
        <ele>199.704</ele>
        <time>2020-09-27T17:31:28Z</time>
      </trkpt>
      <trkpt lat="40.76092" lon="-8.48383">
        <ele>199.624</ele>
        <time>2020-09-27T17:31:30Z</time>
      </trkpt>
      <trkpt lat="40.76106" lon="-8.48378">
        <ele>199.408</ele>
        <time>2020-09-27T17:31:31Z</time>
      </trkpt>
      <trkpt lat="40.76134" lon="-8.48366">
        <ele>199.211</ele>
        <time>2020-09-27T17:31:33Z</time>
      </trkpt>
      <trkpt lat="40.76161" lon="-8.48356">
        <ele>198.743</ele>
        <time>2020-09-27T17:31:35Z</time>
      </trkpt>
      <trkpt lat="40.76184" lon="-8.48346">
        <ele>198.421</ele>
        <time>2020-09-27T17:31:37Z</time>
      </trkpt>
      <trkpt lat="40.76197" lon="-8.48341">
        <ele>198.443</ele>
        <time>2020-09-27T17:31:38Z</time>
      </trkpt>
      <trkpt lat="40.7621" lon="-8.48336">
        <ele>198.471</ele>
        <time>2020-09-27T17:31:39Z</time>
      </trkpt>
      <trkpt lat="40.76224" lon="-8.4833">
        <ele>198.451</ele>
        <time>2020-09-27T17:31:40Z</time>
      </trkpt>
      <trkpt lat="40.76248" lon="-8.4832">
        <ele>198.561</ele>
        <time>2020-09-27T17:31:42Z</time>
      </trkpt>
      <trkpt lat="40.7626" lon="-8.48316">
        <ele>198.779</ele>
        <time>2020-09-27T17:31:43Z</time>
      </trkpt>
      <trkpt lat="40.76282" lon="-8.48308">
        <ele>199.036</ele>
        <time>2020-09-27T17:31:45Z</time>
      </trkpt>
      <trkpt lat="40.76308" lon="-8.48297">
        <ele>199.317</ele>
        <time>2020-09-27T17:31:47Z</time>
      </trkpt>
      <trkpt lat="40.76322" lon="-8.48291">
        <ele>199.318</ele>
        <time>2020-09-27T17:31:48Z</time>
      </trkpt>
      <trkpt lat="40.76351" lon="-8.48279">
        <ele>199.308</ele>
        <time>2020-09-27T17:31:50Z</time>
      </trkpt>
      <trkpt lat="40.76367" lon="-8.48272">
        <ele>199.378</ele>
        <time>2020-09-27T17:31:51Z</time>
      </trkpt>
      <trkpt lat="40.76383" lon="-8.48266">
        <ele>199.35</ele>
        <time>2020-09-27T17:31:52Z</time>
      </trkpt>
      <trkpt lat="40.76413" lon="-8.48254">
        <ele>199.378</ele>
        <time>2020-09-27T17:31:54Z</time>
      </trkpt>
      <trkpt lat="40.76442" lon="-8.48243">
        <ele>199.18</ele>
        <time>2020-09-27T17:31:56Z</time>
      </trkpt>
      <trkpt lat="40.76471" lon="-8.48233">
        <ele>199.238</ele>
        <time>2020-09-27T17:31:58Z</time>
      </trkpt>
      <trkpt lat="40.76485" lon="-8.48228">
        <ele>199.148</ele>
        <time>2020-09-27T17:31:59Z</time>
      </trkpt>
      <trkpt lat="40.76513" lon="-8.48221">
        <ele>198.878</ele>
        <time>2020-09-27T17:32:01Z</time>
      </trkpt>
      <trkpt lat="40.76526" lon="-8.4822">
        <ele>198.826</ele>
        <time>2020-09-27T17:32:02Z</time>
      </trkpt>
      <trkpt lat="40.76551" lon="-8.48219">
        <ele>198.787</ele>
        <time>2020-09-27T17:32:04Z</time>
      </trkpt>
      <trkpt lat="40.76562" lon="-8.48219">
        <ele>198.642</ele>
        <time>2020-09-27T17:32:05Z</time>
      </trkpt>
      <trkpt lat="40.76573" lon="-8.4822">
        <ele>198.526</ele>
        <time>2020-09-27T17:32:06Z</time>
      </trkpt>
      <trkpt lat="40.76596" lon="-8.48223">
        <ele>198.408</ele>
        <time>2020-09-27T17:32:08Z</time>
      </trkpt>
      <trkpt lat="40.76608" lon="-8.48226">
        <ele>198.353</ele>
        <time>2020-09-27T17:32:09Z</time>
      </trkpt>
      <trkpt lat="40.76633" lon="-8.48232">
        <ele>197.975</ele>
        <time>2020-09-27T17:32:11Z</time>
      </trkpt>
      <trkpt lat="40.7666" lon="-8.48239">
        <ele>197.253</ele>
        <time>2020-09-27T17:32:13Z</time>
      </trkpt>
      <trkpt lat="40.76688" lon="-8.48246">
        <ele>196.515</ele>
        <time>2020-09-27T17:32:15Z</time>
      </trkpt>
      <trkpt lat="40.76713" lon="-8.48253">
        <ele>195.843</ele>
        <time>2020-09-27T17:32:17Z</time>
      </trkpt>
      <trkpt lat="40.76726" lon="-8.48256">
        <ele>195.153</ele>
        <time>2020-09-27T17:32:18Z</time>
      </trkpt>
      <trkpt lat="40.76738" lon="-8.48259">
        <ele>194.673</ele>
        <time>2020-09-27T17:32:19Z</time>
      </trkpt>
      <trkpt lat="40.76762" lon="-8.48265">
        <ele>194.011</ele>
        <time>2020-09-27T17:32:21Z</time>
      </trkpt>
      <trkpt lat="40.76787" lon="-8.48272">
        <ele>193.682</ele>
        <time>2020-09-27T17:32:23Z</time>
      </trkpt>
      <trkpt lat="40.76799" lon="-8.48275">
        <ele>193.443</ele>
        <time>2020-09-27T17:32:24Z</time>
      </trkpt>
      <trkpt lat="40.76824" lon="-8.48281">
        <ele>193.417</ele>
        <time>2020-09-27T17:32:26Z</time>
      </trkpt>
      <trkpt lat="40.76836" lon="-8.48284">
        <ele>193.408</ele>
        <time>2020-09-27T17:32:27Z</time>
      </trkpt>
      <trkpt lat="40.76863" lon="-8.48291">
        <ele>193.463</ele>
        <time>2020-09-27T17:32:29Z</time>
      </trkpt>
      <trkpt lat="40.76892" lon="-8.48299">
        <ele>193.355</ele>
        <time>2020-09-27T17:32:31Z</time>
      </trkpt>
      <trkpt lat="40.76923" lon="-8.48308">
        <ele>193.273</ele>
        <time>2020-09-27T17:32:33Z</time>
      </trkpt>
      <trkpt lat="40.76952" lon="-8.48315">
        <ele>193.285</ele>
        <time>2020-09-27T17:32:35Z</time>
      </trkpt>
      <trkpt lat="40.76965" lon="-8.48318">
        <ele>193.383</ele>
        <time>2020-09-27T17:32:36Z</time>
      </trkpt>
      <trkpt lat="40.76977" lon="-8.48322">
        <ele>193.483</ele>
        <time>2020-09-27T17:32:37Z</time>
      </trkpt>
      <trkpt lat="40.76988" lon="-8.48325">
        <ele>193.513</ele>
        <time>2020-09-27T17:32:38Z</time>
      </trkpt>
      <trkpt lat="40.77001" lon="-8.48328">
        <ele>193.691</ele>
        <time>2020-09-27T17:32:39Z</time>
      </trkpt>
      <trkpt lat="40.77027" lon="-8.48334">
        <ele>193.844</ele>
        <time>2020-09-27T17:32:41Z</time>
      </trkpt>
      <trkpt lat="40.77052" lon="-8.48341">
        <ele>194.005</ele>
        <time>2020-09-27T17:32:43Z</time>
      </trkpt>
      <trkpt lat="40.77076" lon="-8.48347">
        <ele>194.215</ele>
        <time>2020-09-27T17:32:45Z</time>
      </trkpt>
      <trkpt lat="40.77101" lon="-8.48354">
        <ele>194.208</ele>
        <time>2020-09-27T17:32:47Z</time>
      </trkpt>
      <trkpt lat="40.77128" lon="-8.48361">
        <ele>194.199</ele>
        <time>2020-09-27T17:32:49Z</time>
      </trkpt>
      <trkpt lat="40.77143" lon="-8.48364">
        <ele>194.041</ele>
        <time>2020-09-27T17:32:50Z</time>
      </trkpt>
      <trkpt lat="40.77174" lon="-8.48372">
        <ele>193.639</ele>
        <time>2020-09-27T17:32:52Z</time>
      </trkpt>
      <trkpt lat="40.77204" lon="-8.4838">
        <ele>193.341</ele>
        <time>2020-09-27T17:32:54Z</time>
      </trkpt>
      <trkpt lat="40.77232" lon="-8.48387">
        <ele>193.289</ele>
        <time>2020-09-27T17:32:56Z</time>
      </trkpt>
      <trkpt lat="40.77246" lon="-8.48391">
        <ele>193.389</ele>
        <time>2020-09-27T17:32:57Z</time>
      </trkpt>
      <trkpt lat="40.77261" lon="-8.48394">
        <ele>193.529</ele>
        <time>2020-09-27T17:32:58Z</time>
      </trkpt>
      <trkpt lat="40.77291" lon="-8.48402">
        <ele>194.057</ele>
        <time>2020-09-27T17:33:00Z</time>
      </trkpt>
      <trkpt lat="40.77321" lon="-8.4841">
        <ele>194.749</ele>
        <time>2020-09-27T17:33:02Z</time>
      </trkpt>
      <trkpt lat="40.77336" lon="-8.48414">
        <ele>195.202</ele>
        <time>2020-09-27T17:33:03Z</time>
      </trkpt>
      <trkpt lat="40.77368" lon="-8.48422">
        <ele>195.722</ele>
        <time>2020-09-27T17:33:05Z</time>
      </trkpt>
      <trkpt lat="40.774" lon="-8.48429">
        <ele>196.008</ele>
        <time>2020-09-27T17:33:07Z</time>
      </trkpt>
      <trkpt lat="40.77415" lon="-8.48433">
        <ele>196.389</ele>
        <time>2020-09-27T17:33:08Z</time>
      </trkpt>
      <trkpt lat="40.77442" lon="-8.4844">
        <ele>196.581</ele>
        <time>2020-09-27T17:33:10Z</time>
      </trkpt>
      <trkpt lat="40.77455" lon="-8.48444">
        <ele>196.629</ele>
        <time>2020-09-27T17:33:11Z</time>
      </trkpt>
      <trkpt lat="40.7748" lon="-8.4845">
        <ele>196.651</ele>
        <time>2020-09-27T17:33:13Z</time>
      </trkpt>
      <trkpt lat="40.77492" lon="-8.48453">
        <ele>196.539</ele>
        <time>2020-09-27T17:33:14Z</time>
      </trkpt>
      <trkpt lat="40.77514" lon="-8.48458">
        <ele>196.449</ele>
        <time>2020-09-27T17:33:16Z</time>
      </trkpt>
      <trkpt lat="40.77537" lon="-8.48464">
        <ele>196.129</ele>
        <time>2020-09-27T17:33:18Z</time>
      </trkpt>
      <trkpt lat="40.77562" lon="-8.4847">
        <ele>195.617</ele>
        <time>2020-09-27T17:33:20Z</time>
      </trkpt>
      <trkpt lat="40.77588" lon="-8.48476">
        <ele>194.999</ele>
        <time>2020-09-27T17:33:22Z</time>
      </trkpt>
      <trkpt lat="40.77601" lon="-8.48479">
        <ele>194.207</ele>
        <time>2020-09-27T17:33:23Z</time>
      </trkpt>
      <trkpt lat="40.77629" lon="-8.48482">
        <ele>193.427</ele>
        <time>2020-09-27T17:33:25Z</time>
      </trkpt>
      <trkpt lat="40.77644" lon="-8.48482">
        <ele>192.708</ele>
        <time>2020-09-27T17:33:26Z</time>
      </trkpt>
      <trkpt lat="40.77674" lon="-8.48474">
        <ele>191.854</ele>
        <time>2020-09-27T17:33:28Z</time>
      </trkpt>
      <trkpt lat="40.77689" lon="-8.48467">
        <ele>190.846</ele>
        <time>2020-09-27T17:33:29Z</time>
      </trkpt>
      <trkpt lat="40.7772" lon="-8.48452">
        <ele>189.714</ele>
        <time>2020-09-27T17:33:31Z</time>
      </trkpt>
      <trkpt lat="40.7775" lon="-8.48439">
        <ele>189.296</ele>
        <time>2020-09-27T17:33:33Z</time>
      </trkpt>
      <trkpt lat="40.77782" lon="-8.48426">
        <ele>187.774</ele>
        <time>2020-09-27T17:33:35Z</time>
      </trkpt>
      <trkpt lat="40.77798" lon="-8.48419">
        <ele>186.484</ele>
        <time>2020-09-27T17:33:36Z</time>
      </trkpt>
      <trkpt lat="40.77832" lon="-8.48403">
        <ele>185.134</ele>
        <time>2020-09-27T17:33:38Z</time>
      </trkpt>
      <trkpt lat="40.77849" lon="-8.48395">
        <ele>184.152</ele>
        <time>2020-09-27T17:33:39Z</time>
      </trkpt>
      <trkpt lat="40.77884" lon="-8.4838">
        <ele>183.228</ele>
        <time>2020-09-27T17:33:41Z</time>
      </trkpt>
      <trkpt lat="40.77902" lon="-8.48372">
        <ele>182.689</ele>
        <time>2020-09-27T17:33:42Z</time>
      </trkpt>
      <trkpt lat="40.77919" lon="-8.48364">
        <ele>182.217</ele>
        <time>2020-09-27T17:33:43Z</time>
      </trkpt>
      <trkpt lat="40.77954" lon="-8.48348">
        <ele>182.408</ele>
        <time>2020-09-27T17:33:45Z</time>
      </trkpt>
      <trkpt lat="40.77989" lon="-8.48333">
        <ele>182.777</ele>
        <time>2020-09-27T17:33:47Z</time>
      </trkpt>
      <trkpt lat="40.78023" lon="-8.48318">
        <ele>183.299</ele>
        <time>2020-09-27T17:33:49Z</time>
      </trkpt>
      <trkpt lat="40.78056" lon="-8.48305">
        <ele>184.087</ele>
        <time>2020-09-27T17:33:51Z</time>
      </trkpt>
      <trkpt lat="40.78071" lon="-8.48298">
        <ele>184.759</ele>
        <time>2020-09-27T17:33:52Z</time>
      </trkpt>
      <trkpt lat="40.78099" lon="-8.48285">
        <ele>185.647</ele>
        <time>2020-09-27T17:33:54Z</time>
      </trkpt>
      <trkpt lat="40.78126" lon="-8.48273">
        <ele>186.677</ele>
        <time>2020-09-27T17:33:56Z</time>
      </trkpt>
      <trkpt lat="40.78139" lon="-8.48267">
        <ele>187.547</ele>
        <time>2020-09-27T17:33:57Z</time>
      </trkpt>
      <trkpt lat="40.78153" lon="-8.48261">
        <ele>188.355</ele>
        <time>2020-09-27T17:33:58Z</time>
      </trkpt>
      <trkpt lat="40.78181" lon="-8.48249">
        <ele>189.333</ele>
        <time>2020-09-27T17:34:00Z</time>
      </trkpt>
      <trkpt lat="40.78195" lon="-8.48242">
        <ele>190.223</ele>
        <time>2020-09-27T17:34:01Z</time>
      </trkpt>
      <trkpt lat="40.78224" lon="-8.48229">
        <ele>191.215</ele>
        <time>2020-09-27T17:34:03Z</time>
      </trkpt>
      <trkpt lat="40.78239" lon="-8.48222">
        <ele>192.008</ele>
        <time>2020-09-27T17:34:04Z</time>
      </trkpt>
      <trkpt lat="40.78254" lon="-8.48215">
        <ele>192.868</ele>
        <time>2020-09-27T17:34:05Z</time>
      </trkpt>
      <trkpt lat="40.78269" lon="-8.48208">
        <ele>193.61</ele>
        <time>2020-09-27T17:34:06Z</time>
      </trkpt>
      <trkpt lat="40.78299" lon="-8.48195">
        <ele>194.028</ele>
        <time>2020-09-27T17:34:08Z</time>
      </trkpt>
      <trkpt lat="40.7833" lon="-8.48183">
        <ele>195.24</ele>
        <time>2020-09-27T17:34:10Z</time>
      </trkpt>
      <trkpt lat="40.78346" lon="-8.48177">
        <ele>196.358</ele>
        <time>2020-09-27T17:34:11Z</time>
      </trkpt>
      <trkpt lat="40.78377" lon="-8.48167">
        <ele>197.898</ele>
        <time>2020-09-27T17:34:13Z</time>
      </trkpt>
      <trkpt lat="40.78392" lon="-8.48164">
        <ele>199.178</ele>
        <time>2020-09-27T17:34:14Z</time>
      </trkpt>
      <trkpt lat="40.7842" lon="-8.48158">
        <ele>200.656</ele>
        <time>2020-09-27T17:34:16Z</time>
      </trkpt>
      <trkpt lat="40.78433" lon="-8.48155">
        <ele>201.815</ele>
        <time>2020-09-27T17:34:17Z</time>
      </trkpt>
      <trkpt lat="40.7846" lon="-8.4815">
        <ele>203.165</ele>
        <time>2020-09-27T17:34:19Z</time>
      </trkpt>
      <trkpt lat="40.78486" lon="-8.48146">
        <ele>204.511</ele>
        <time>2020-09-27T17:34:21Z</time>
      </trkpt>
      <trkpt lat="40.785" lon="-8.48144">
        <ele>205.808</ele>
        <time>2020-09-27T17:34:22Z</time>
      </trkpt>
      <trkpt lat="40.78525" lon="-8.48142">
        <ele>206.656</ele>
        <time>2020-09-27T17:34:24Z</time>
      </trkpt>
      <trkpt lat="40.78551" lon="-8.48141">
        <ele>208.098</ele>
        <time>2020-09-27T17:34:26Z</time>
      </trkpt>
      <trkpt lat="40.78564" lon="-8.4814">
        <ele>209.126</ele>
        <time>2020-09-27T17:34:27Z</time>
      </trkpt>
      <trkpt lat="40.78591" lon="-8.48141">
        <ele>210.498</ele>
        <time>2020-09-27T17:34:29Z</time>
      </trkpt>
      <trkpt lat="40.78619" lon="-8.48142">
        <ele>211.946</ele>
        <time>2020-09-27T17:34:31Z</time>
      </trkpt>
      <trkpt lat="40.78634" lon="-8.48143">
        <ele>213.236</ele>
        <time>2020-09-27T17:34:32Z</time>
      </trkpt>
      <trkpt lat="40.78649" lon="-8.48144">
        <ele>214.366</ele>
        <time>2020-09-27T17:34:33Z</time>
      </trkpt>
      <trkpt lat="40.7868" lon="-8.48147">
        <ele>215.564</ele>
        <time>2020-09-27T17:34:35Z</time>
      </trkpt>
      <trkpt lat="40.78712" lon="-8.4815">
        <ele>216.861</ele>
        <time>2020-09-27T17:34:37Z</time>
      </trkpt>
      <trkpt lat="40.78728" lon="-8.48151">
        <ele>217.821</ele>
        <time>2020-09-27T17:34:38Z</time>
      </trkpt>
      <trkpt lat="40.78758" lon="-8.48153">
        <ele>218.913</ele>
        <time>2020-09-27T17:34:40Z</time>
      </trkpt>
      <trkpt lat="40.78785" lon="-8.48155">
        <ele>220.108</ele>
        <time>2020-09-27T17:34:42Z</time>
      </trkpt>
      <trkpt lat="40.78799" lon="-8.48156">
        <ele>221.061</ele>
        <time>2020-09-27T17:34:43Z</time>
      </trkpt>
      <trkpt lat="40.78826" lon="-8.48159">
        <ele>221.693</ele>
        <time>2020-09-27T17:34:45Z</time>
      </trkpt>
      <trkpt lat="40.7884" lon="-8.48161">
        <ele>222.191</ele>
        <time>2020-09-27T17:34:46Z</time>
      </trkpt>
      <trkpt lat="40.78855" lon="-8.48162">
        <ele>221.033</ele>
        <time>2020-09-27T17:34:47Z</time>
      </trkpt>
      <trkpt lat="40.78869" lon="-8.48163">
        <ele>220.991</ele>
        <time>2020-09-27T17:34:48Z</time>
      </trkpt>
      <trkpt lat="40.78899" lon="-8.48165">
        <ele>221.541</ele>
        <time>2020-09-27T17:34:50Z</time>
      </trkpt>
      <trkpt lat="40.7893" lon="-8.48166">
        <ele>222.391</ele>
        <time>2020-09-27T17:34:52Z</time>
      </trkpt>
      <trkpt lat="40.78946" lon="-8.48167">
        <ele>222.979</ele>
        <time>2020-09-27T17:34:53Z</time>
      </trkpt>
      <trkpt lat="40.78962" lon="-8.48167">
        <ele>223.548</ele>
        <time>2020-09-27T17:34:54Z</time>
      </trkpt>
      <trkpt lat="40.78995" lon="-8.48166">
        <ele>224.161</ele>
        <time>2020-09-27T17:34:56Z</time>
      </trkpt>
      <trkpt lat="40.79012" lon="-8.48164">
        <ele>224.717</ele>
        <time>2020-09-27T17:34:57Z</time>
      </trkpt>
      <trkpt lat="40.79046" lon="-8.48161">
        <ele>225.308</ele>
        <time>2020-09-27T17:34:59Z</time>
      </trkpt>
      <trkpt lat="40.79082" lon="-8.48155">
        <ele>226.269</ele>
        <time>2020-09-27T17:35:01Z</time>
      </trkpt>
      <trkpt lat="40.79101" lon="-8.4815">
        <ele>226.851</ele>
        <time>2020-09-27T17:35:02Z</time>
      </trkpt>
      <trkpt lat="40.7912" lon="-8.48145">
        <ele>227.339</ele>
        <time>2020-09-27T17:35:03Z</time>
      </trkpt>
      <trkpt lat="40.79139" lon="-8.48139">
        <ele>227.611</ele>
        <time>2020-09-27T17:35:04Z</time>
      </trkpt>
      <trkpt lat="40.79158" lon="-8.48134">
        <ele>227.259</ele>
        <time>2020-09-27T17:35:05Z</time>
      </trkpt>
      <trkpt lat="40.79197" lon="-8.48123">
        <ele>227.659</ele>
        <time>2020-09-27T17:35:07Z</time>
      </trkpt>
      <trkpt lat="40.79236" lon="-8.48113">
        <ele>228.389</ele>
        <time>2020-09-27T17:35:09Z</time>
      </trkpt>
      <trkpt lat="40.79274" lon="-8.48102">
        <ele>228.627</ele>
        <time>2020-09-27T17:35:11Z</time>
      </trkpt>
      <trkpt lat="40.79291" lon="-8.48097">
        <ele>229.086</ele>
        <time>2020-09-27T17:35:12Z</time>
      </trkpt>
      <trkpt lat="40.79322" lon="-8.48087">
        <ele>229.56</ele>
        <time>2020-09-27T17:35:14Z</time>
      </trkpt>
      <trkpt lat="40.79336" lon="-8.48083">
        <ele>229.926</ele>
        <time>2020-09-27T17:35:15Z</time>
      </trkpt>
      <trkpt lat="40.79351" lon="-8.48079">
        <ele>230.208</ele>
        <time>2020-09-27T17:35:16Z</time>
      </trkpt>
      <trkpt lat="40.79366" lon="-8.48074">
        <ele>230.423</ele>
        <time>2020-09-27T17:35:17Z</time>
      </trkpt>
      <trkpt lat="40.79395" lon="-8.48065">
        <ele>228.675</ele>
        <time>2020-09-27T17:35:19Z</time>
      </trkpt>
      <trkpt lat="40.79411" lon="-8.4806">
        <ele>228.773</ele>
        <time>2020-09-27T17:35:20Z</time>
      </trkpt>
      <trkpt lat="40.79439" lon="-8.48052">
        <ele>229.715</ele>
        <time>2020-09-27T17:35:22Z</time>
      </trkpt>
      <trkpt lat="40.79467" lon="-8.48045">
        <ele>230.743</ele>
        <time>2020-09-27T17:35:24Z</time>
      </trkpt>
      <trkpt lat="40.79495" lon="-8.4804">
        <ele>231.743</ele>
        <time>2020-09-27T17:35:26Z</time>
      </trkpt>
      <trkpt lat="40.7951" lon="-8.48039">
        <ele>232.453</ele>
        <time>2020-09-27T17:35:27Z</time>
      </trkpt>
      <trkpt lat="40.79539" lon="-8.48039">
        <ele>232.941</ele>
        <time>2020-09-27T17:35:29Z</time>
      </trkpt>
      <trkpt lat="40.7957" lon="-8.48041">
        <ele>233.589</ele>
        <time>2020-09-27T17:35:31Z</time>
      </trkpt>
      <trkpt lat="40.796" lon="-8.48045">
        <ele>234.106</ele>
        <time>2020-09-27T17:35:33Z</time>
      </trkpt>
      <trkpt lat="40.79615" lon="-8.48048">
        <ele>234.626</ele>
        <time>2020-09-27T17:35:34Z</time>
      </trkpt>
      <trkpt lat="40.79646" lon="-8.48057">
        <ele>235.108</ele>
        <time>2020-09-27T17:35:36Z</time>
      </trkpt>
      <trkpt lat="40.79662" lon="-8.48063">
        <ele>235.593</ele>
        <time>2020-09-27T17:35:37Z</time>
      </trkpt>
      <trkpt lat="40.79679" lon="-8.48071">
        <ele>235.935</ele>
        <time>2020-09-27T17:35:38Z</time>
      </trkpt>
      <trkpt lat="40.79696" lon="-8.48078">
        <ele>236.313</ele>
        <time>2020-09-27T17:35:39Z</time>
      </trkpt>
      <trkpt lat="40.79727" lon="-8.48093">
        <ele>237.015</ele>
        <time>2020-09-27T17:35:41Z</time>
      </trkpt>
      <trkpt lat="40.79754" lon="-8.48105">
        <ele>237.763</ele>
        <time>2020-09-27T17:35:43Z</time>
      </trkpt>
      <trkpt lat="40.79778" lon="-8.48116">
        <ele>234.643</ele>
        <time>2020-09-27T17:35:45Z</time>
      </trkpt>
      <trkpt lat="40.79789" lon="-8.48121">
        <ele>234.363</ele>
        <time>2020-09-27T17:35:46Z</time>
      </trkpt>
      <trkpt lat="40.79814" lon="-8.4813">
        <ele>235.731</ele>
        <time>2020-09-27T17:35:48Z</time>
      </trkpt>
      <trkpt lat="40.79827" lon="-8.48134">
        <ele>237.192</ele>
        <time>2020-09-27T17:35:49Z</time>
      </trkpt>
      <trkpt lat="40.79856" lon="-8.48138">
        <ele>238.673</ele>
        <time>2020-09-27T17:35:51Z</time>
      </trkpt>
      <trkpt lat="40.79871" lon="-8.48138">
        <ele>239.82</ele>
        <time>2020-09-27T17:35:52Z</time>
      </trkpt>
      <trkpt lat="40.79886" lon="-8.48137">
        <ele>240.608</ele>
        <time>2020-09-27T17:35:53Z</time>
      </trkpt>
      <trkpt lat="40.79901" lon="-8.48135">
        <ele>241.334</ele>
        <time>2020-09-27T17:35:54Z</time>
      </trkpt>
      <trkpt lat="40.79931" lon="-8.48129">
        <ele>240.026</ele>
        <time>2020-09-27T17:35:56Z</time>
      </trkpt>
      <trkpt lat="40.79945" lon="-8.48124">
        <ele>240.164</ele>
        <time>2020-09-27T17:35:57Z</time>
      </trkpt>
      <trkpt lat="40.79959" lon="-8.48118">
        <ele>240.786</ele>
        <time>2020-09-27T17:35:58Z</time>
      </trkpt>
      <trkpt lat="40.79986" lon="-8.48105">
        <ele>241.424</ele>
        <time>2020-09-27T17:36:00Z</time>
      </trkpt>
      <trkpt lat="40.8001" lon="-8.48088">
        <ele>241.864</ele>
        <time>2020-09-27T17:36:02Z</time>
      </trkpt>
      <trkpt lat="40.80021" lon="-8.48079">
        <ele>242.034</ele>
        <time>2020-09-27T17:36:03Z</time>
      </trkpt>
      <trkpt lat="40.80041" lon="-8.48059">
        <ele>241.792</ele>
        <time>2020-09-27T17:36:05Z</time>
      </trkpt>
      <trkpt lat="40.8005" lon="-8.48048">
        <ele>241.325</ele>
        <time>2020-09-27T17:36:06Z</time>
      </trkpt>
      <trkpt lat="40.8007" lon="-8.48024">
        <ele>240.826</ele>
        <time>2020-09-27T17:36:08Z</time>
      </trkpt>
      <trkpt lat="40.8009" lon="-8.47996">
        <ele>240.008</ele>
        <time>2020-09-27T17:36:10Z</time>
      </trkpt>
      <trkpt lat="40.80101" lon="-8.4798">
        <ele>239.208</ele>
        <time>2020-09-27T17:36:11Z</time>
      </trkpt>
      <trkpt lat="40.80112" lon="-8.47965">
        <ele>238.557</ele>
        <time>2020-09-27T17:36:12Z</time>
      </trkpt>
      <trkpt lat="40.80135" lon="-8.47933">
        <ele>237.639</ele>
        <time>2020-09-27T17:36:14Z</time>
      </trkpt>
      <trkpt lat="40.80159" lon="-8.47901">
        <ele>236.627</ele>
        <time>2020-09-27T17:36:16Z</time>
      </trkpt>
      <trkpt lat="40.80182" lon="-8.47868">
        <ele>235.429</ele>
        <time>2020-09-27T17:36:18Z</time>
      </trkpt>
      <trkpt lat="40.80206" lon="-8.47835">
        <ele>234.067</ele>
        <time>2020-09-27T17:36:20Z</time>
      </trkpt>
      <trkpt lat="40.80218" lon="-8.47819">
        <ele>233.077</ele>
        <time>2020-09-27T17:36:21Z</time>
      </trkpt>
      <trkpt lat="40.8023" lon="-8.47801">
        <ele>232.027</ele>
        <time>2020-09-27T17:36:22Z</time>
      </trkpt>
      <trkpt lat="40.80244" lon="-8.47784">
        <ele>231.125</ele>
        <time>2020-09-27T17:36:23Z</time>
      </trkpt>
      <trkpt lat="40.80275" lon="-8.4775">
        <ele>230.798</ele>
        <time>2020-09-27T17:36:25Z</time>
      </trkpt>
      <trkpt lat="40.80292" lon="-8.47735">
        <ele>229.815</ele>
        <time>2020-09-27T17:36:26Z</time>
      </trkpt>
      <trkpt lat="40.80329" lon="-8.4771">
        <ele>228.326</ele>
        <time>2020-09-27T17:36:28Z</time>
      </trkpt>
      <trkpt lat="40.80364" lon="-8.47692">
        <ele>226.908</ele>
        <time>2020-09-27T17:36:30Z</time>
      </trkpt>
      <trkpt lat="40.80399" lon="-8.47682">
        <ele>225.134</ele>
        <time>2020-09-27T17:36:32Z</time>
      </trkpt>
      <trkpt lat="40.80434" lon="-8.47677">
        <ele>223.136</ele>
        <time>2020-09-27T17:36:34Z</time>
      </trkpt>
      <trkpt lat="40.80453" lon="-8.47676">
        <ele>221.434</ele>
        <time>2020-09-27T17:36:35Z</time>
      </trkpt>
      <trkpt lat="40.80471" lon="-8.47676">
        <ele>219.846</ele>
        <time>2020-09-27T17:36:36Z</time>
      </trkpt>
      <trkpt lat="40.8051" lon="-8.47675">
        <ele>217.674</ele>
        <time>2020-09-27T17:36:38Z</time>
      </trkpt>
      <trkpt lat="40.80549" lon="-8.47675">
        <ele>215.464</ele>
        <time>2020-09-27T17:36:40Z</time>
      </trkpt>
      <trkpt lat="40.80569" lon="-8.47674">
        <ele>215.284</ele>
        <time>2020-09-27T17:36:41Z</time>
      </trkpt>
      <trkpt lat="40.80589" lon="-8.47674">
        <ele>214.142</ele>
        <time>2020-09-27T17:36:42Z</time>
      </trkpt>
      <trkpt lat="40.80629" lon="-8.47674">
        <ele>212.225</ele>
        <time>2020-09-27T17:36:44Z</time>
      </trkpt>
      <trkpt lat="40.8065" lon="-8.47673">
        <ele>210.526</ele>
        <time>2020-09-27T17:36:45Z</time>
      </trkpt>
      <trkpt lat="40.80671" lon="-8.47673">
        <ele>209.108</ele>
        <time>2020-09-27T17:36:46Z</time>
      </trkpt>
      <trkpt lat="40.80711" lon="-8.47671">
        <ele>207.308</ele>
        <time>2020-09-27T17:36:48Z</time>
      </trkpt>
      <trkpt lat="40.80731" lon="-8.47669">
        <ele>205.767</ele>
        <time>2020-09-27T17:36:49Z</time>
      </trkpt>
      <trkpt lat="40.80772" lon="-8.47662">
        <ele>203.919</ele>
        <time>2020-09-27T17:36:51Z</time>
      </trkpt>
      <trkpt lat="40.80811" lon="-8.47655">
        <ele>202.277</ele>
        <time>2020-09-27T17:36:53Z</time>
      </trkpt>
      <trkpt lat="40.80831" lon="-8.47652">
        <ele>200.919</ele>
        <time>2020-09-27T17:36:54Z</time>
      </trkpt>
      <trkpt lat="40.80869" lon="-8.47647">
        <ele>199.977</ele>
        <time>2020-09-27T17:36:56Z</time>
      </trkpt>
      <trkpt lat="40.80907" lon="-8.47642">
        <ele>199.287</ele>
        <time>2020-09-27T17:36:58Z</time>
      </trkpt>
      <trkpt lat="40.80925" lon="-8.47639">
        <ele>198.967</ele>
        <time>2020-09-27T17:36:59Z</time>
      </trkpt>
      <trkpt lat="40.80962" lon="-8.47634">
        <ele>202.995</ele>
        <time>2020-09-27T17:37:01Z</time>
      </trkpt>
      <trkpt lat="40.8098" lon="-8.47631">
        <ele>206.939</ele>
        <time>2020-09-27T17:37:02Z</time>
      </trkpt>
      <trkpt lat="40.80998" lon="-8.47628">
        <ele>210.901</ele>
        <time>2020-09-27T17:37:03Z</time>
      </trkpt>
      <trkpt lat="40.81016" lon="-8.47625">
        <ele>212.921</ele>
        <time>2020-09-27T17:37:04Z</time>
      </trkpt>
      <trkpt lat="40.81051" lon="-8.47619">
        <ele>210.208</ele>
        <time>2020-09-27T17:37:06Z</time>
      </trkpt>
      <trkpt lat="40.8107" lon="-8.47616">
        <ele>207.428</ele>
        <time>2020-09-27T17:37:07Z</time>
      </trkpt>
      <trkpt lat="40.81089" lon="-8.47613">
        <ele>205.06</ele>
        <time>2020-09-27T17:37:08Z</time>
      </trkpt>
      <trkpt lat="40.81129" lon="-8.47607">
        <ele>202.698</ele>
        <time>2020-09-27T17:37:10Z</time>
      </trkpt>
      <trkpt lat="40.81149" lon="-8.47604">
        <ele>200.85</ele>
        <time>2020-09-27T17:37:11Z</time>
      </trkpt>
      <trkpt lat="40.8119" lon="-8.47597">
        <ele>198.778</ele>
        <time>2020-09-27T17:37:13Z</time>
      </trkpt>
      <trkpt lat="40.81211" lon="-8.47593">
        <ele>196.858</ele>
        <time>2020-09-27T17:37:14Z</time>
      </trkpt>
      <trkpt lat="40.81231" lon="-8.47589">
        <ele>195.168</ele>
        <time>2020-09-27T17:37:15Z</time>
      </trkpt>
      <trkpt lat="40.8127" lon="-8.47579">
        <ele>193.026</ele>
        <time>2020-09-27T17:37:17Z</time>
      </trkpt>
      <trkpt lat="40.8129" lon="-8.47574">
        <ele>191.861</ele>
        <time>2020-09-27T17:37:18Z</time>
      </trkpt>
      <trkpt lat="40.81331" lon="-8.47562">
        <ele>195.821</ele>
        <time>2020-09-27T17:37:20Z</time>
      </trkpt>
      <trkpt lat="40.81351" lon="-8.47555">
        <ele>196.513</ele>
        <time>2020-09-27T17:37:21Z</time>
      </trkpt>
      <trkpt lat="40.81372" lon="-8.47548">
        <ele>194.608</ele>
        <time>2020-09-27T17:37:22Z</time>
      </trkpt>
      <trkpt lat="40.81412" lon="-8.47534">
        <ele>191.181</ele>
        <time>2020-09-27T17:37:24Z</time>
      </trkpt>
      <trkpt lat="40.81451" lon="-8.47517">
        <ele>187.243</ele>
        <time>2020-09-27T17:37:26Z</time>
      </trkpt>
      <trkpt lat="40.81492" lon="-8.47499">
        <ele>183.331</ele>
        <time>2020-09-27T17:37:28Z</time>
      </trkpt>
      <trkpt lat="40.81534" lon="-8.47477">
        <ele>179.533</ele>
        <time>2020-09-27T17:37:30Z</time>
      </trkpt>
      <trkpt lat="40.81577" lon="-8.47453">
        <ele>175.911</ele>
        <time>2020-09-27T17:37:32Z</time>
      </trkpt>
      <trkpt lat="40.81619" lon="-8.47428">
        <ele>172.411</ele>
        <time>2020-09-27T17:37:34Z</time>
      </trkpt>
      <trkpt lat="40.8164" lon="-8.47415">
        <ele>169.741</ele>
        <time>2020-09-27T17:37:35Z</time>
      </trkpt>
      <trkpt lat="40.81682" lon="-8.47387">
        <ele>167.369</ele>
        <time>2020-09-27T17:37:37Z</time>
      </trkpt>
      <trkpt lat="40.81722" lon="-8.4736">
        <ele>165.651</ele>
        <time>2020-09-27T17:37:39Z</time>
      </trkpt>
      <trkpt lat="40.81741" lon="-8.47347">
        <ele>164.201</ele>
        <time>2020-09-27T17:37:40Z</time>
      </trkpt>
      <trkpt lat="40.8176" lon="-8.47335">
        <ele>164.211</ele>
        <time>2020-09-27T17:37:41Z</time>
      </trkpt>
      <trkpt lat="40.8178" lon="-8.47322">
        <ele>164.008</ele>
        <time>2020-09-27T17:37:42Z</time>
      </trkpt>
      <trkpt lat="40.818" lon="-8.4731">
        <ele>164.15</ele>
        <time>2020-09-27T17:37:43Z</time>
      </trkpt>
      <trkpt lat="40.81839" lon="-8.47285">
        <ele>164.122</ele>
        <time>2020-09-27T17:37:45Z</time>
      </trkpt>
      <trkpt lat="40.81878" lon="-8.47259">
        <ele>164.12</ele>
        <time>2020-09-27T17:37:47Z</time>
      </trkpt>
      <trkpt lat="40.81918" lon="-8.47233">
        <ele>164.432</ele>
        <time>2020-09-27T17:37:49Z</time>
      </trkpt>
      <trkpt lat="40.81937" lon="-8.47219">
        <ele>164.88</ele>
        <time>2020-09-27T17:37:50Z</time>
      </trkpt>
      <trkpt lat="40.81976" lon="-8.47194">
        <ele>165.41</ele>
        <time>2020-09-27T17:37:52Z</time>
      </trkpt>
      <trkpt lat="40.82015" lon="-8.47169">
        <ele>165.93</ele>
        <time>2020-09-27T17:37:54Z</time>
      </trkpt>
      <trkpt lat="40.82054" lon="-8.47143">
        <ele>166.148</ele>
        <time>2020-09-27T17:37:56Z</time>
      </trkpt>
      <trkpt lat="40.82093" lon="-8.47117">
        <ele>166.092</ele>
        <time>2020-09-27T17:37:58Z</time>
      </trkpt>
      <trkpt lat="40.82113" lon="-8.47104">
        <ele>165.873</ele>
        <time>2020-09-27T17:37:59Z</time>
      </trkpt>
      <trkpt lat="40.82133" lon="-8.47091">
        <ele>165.42</ele>
        <time>2020-09-27T17:38:00Z</time>
      </trkpt>
      <trkpt lat="40.82174" lon="-8.47065">
        <ele>164.208</ele>
        <time>2020-09-27T17:38:02Z</time>
      </trkpt>
      <trkpt lat="40.82215" lon="-8.47037">
        <ele>163.424</ele>
        <time>2020-09-27T17:38:04Z</time>
      </trkpt>
      <trkpt lat="40.82236" lon="-8.47024">
        <ele>162.766</ele>
        <time>2020-09-27T17:38:05Z</time>
      </trkpt>
      <trkpt lat="40.82257" lon="-8.4701">
        <ele>161.984</ele>
        <time>2020-09-27T17:38:06Z</time>
      </trkpt>
      <trkpt lat="40.823" lon="-8.46982">
        <ele>160.516</ele>
        <time>2020-09-27T17:38:08Z</time>
      </trkpt>
      <trkpt lat="40.82343" lon="-8.46954">
        <ele>159.264</ele>
        <time>2020-09-27T17:38:10Z</time>
      </trkpt>
      <trkpt lat="40.82387" lon="-8.46925">
        <ele>157.984</ele>
        <time>2020-09-27T17:38:12Z</time>
      </trkpt>
      <trkpt lat="40.8243" lon="-8.46897">
        <ele>157.254</ele>
        <time>2020-09-27T17:38:14Z</time>
      </trkpt>
      <trkpt lat="40.82451" lon="-8.46883">
        <ele>156.792</ele>
        <time>2020-09-27T17:38:15Z</time>
      </trkpt>
      <trkpt lat="40.82472" lon="-8.46869">
        <ele>156.348</ele>
        <time>2020-09-27T17:38:16Z</time>
      </trkpt>
      <trkpt lat="40.82492" lon="-8.46856">
        <ele>156.061</ele>
        <time>2020-09-27T17:38:17Z</time>
      </trkpt>
      <trkpt lat="40.82532" lon="-8.46831">
        <ele>160.017</ele>
        <time>2020-09-27T17:38:19Z</time>
      </trkpt>
      <trkpt lat="40.82552" lon="-8.46819">
        <ele>163.808</ele>
        <time>2020-09-27T17:38:20Z</time>
      </trkpt>
      <trkpt lat="40.82593" lon="-8.468">
        <ele>163.239</ele>
        <time>2020-09-27T17:38:22Z</time>
      </trkpt>
      <trkpt lat="40.82636" lon="-8.46786">
        <ele>161.661</ele>
        <time>2020-09-27T17:38:24Z</time>
      </trkpt>
      <trkpt lat="40.8268" lon="-8.46777">
        <ele>159.989</ele>
        <time>2020-09-27T17:38:26Z</time>
      </trkpt>
      <trkpt lat="40.82702" lon="-8.46776">
        <ele>158.641</ele>
        <time>2020-09-27T17:38:27Z</time>
      </trkpt>
      <trkpt lat="40.82725" lon="-8.46775">
        <ele>157.589</ele>
        <time>2020-09-27T17:38:28Z</time>
      </trkpt>
      <trkpt lat="40.82772" lon="-8.46781">
        <ele>161.599</ele>
        <time>2020-09-27T17:38:30Z</time>
      </trkpt>
      <trkpt lat="40.82796" lon="-8.46787">
        <ele>165.539</ele>
        <time>2020-09-27T17:38:31Z</time>
      </trkpt>
      <trkpt lat="40.82822" lon="-8.46795">
        <ele>168.167</ele>
        <time>2020-09-27T17:38:32Z</time>
      </trkpt>
      <trkpt lat="40.82878" lon="-8.46819">
        <ele>165.851</ele>
        <time>2020-09-27T17:38:34Z</time>
      </trkpt>
      <trkpt lat="40.82906" lon="-8.46834">
        <ele>163.501</ele>
        <time>2020-09-27T17:38:35Z</time>
      </trkpt>
      <trkpt lat="40.82966" lon="-8.46868">
        <ele>161.711</ele>
        <time>2020-09-27T17:38:37Z</time>
      </trkpt>
      <trkpt lat="40.83029" lon="-8.46907">
        <ele>159.408</ele>
        <time>2020-09-27T17:38:39Z</time>
      </trkpt>
      <trkpt lat="40.83088" lon="-8.46944">
        <ele>157.17</ele>
        <time>2020-09-27T17:38:41Z</time>
      </trkpt>
      <trkpt lat="40.83117" lon="-8.46961">
        <ele>155.572</ele>
        <time>2020-09-27T17:38:42Z</time>
      </trkpt>
      <trkpt lat="40.8317" lon="-8.46994">
        <ele>154.06</ele>
        <time>2020-09-27T17:38:44Z</time>
      </trkpt>
      <trkpt lat="40.83196" lon="-8.47009">
        <ele>152.732</ele>
        <time>2020-09-27T17:38:45Z</time>
      </trkpt>
      <trkpt lat="40.83241" lon="-8.47036">
        <ele>151.44</ele>
        <time>2020-09-27T17:38:47Z</time>
      </trkpt>
      <trkpt lat="40.83281" lon="-8.47063">
        <ele>150.68</ele>
        <time>2020-09-27T17:38:49Z</time>
      </trkpt>
      <trkpt lat="40.83302" lon="-8.47082">
        <ele>150.81</ele>
        <time>2020-09-27T17:38:50Z</time>
      </trkpt>
      <trkpt lat="40.83341" lon="-8.47117">
        <ele>154.798</ele>
        <time>2020-09-27T17:38:52Z</time>
      </trkpt>
      <trkpt lat="40.83359" lon="-8.4713">
        <ele>158.128</ele>
        <time>2020-09-27T17:38:53Z</time>
      </trkpt>
      <trkpt lat="40.83395" lon="-8.47149">
        <ele>162.189</ele>
        <time>2020-09-27T17:38:55Z</time>
      </trkpt>
      <trkpt lat="40.83411" lon="-8.47158">
        <ele>166.117</ele>
        <time>2020-09-27T17:38:56Z</time>
      </trkpt>
      <trkpt lat="40.83438" lon="-8.47177">
        <ele>170.108</ele>
        <time>2020-09-27T17:38:58Z</time>
      </trkpt>
      <trkpt lat="40.83451" lon="-8.47183">
        <ele>174.117</ele>
        <time>2020-09-27T17:38:59Z</time>
      </trkpt>
      <trkpt lat="40.83474" lon="-8.47182">
        <ele>178.159</ele>
        <time>2020-09-27T17:39:01Z</time>
      </trkpt>
      <trkpt lat="40.83489" lon="-8.47158">
        <ele>182.157</ele>
        <time>2020-09-27T17:39:03Z</time>
      </trkpt>
      <trkpt lat="40.83487" lon="-8.47123">
        <ele>182.569</ele>
        <time>2020-09-27T17:39:05Z</time>
      </trkpt>
      <trkpt lat="40.83481" lon="-8.47105">
        <ele>182.277</ele>
        <time>2020-09-27T17:39:06Z</time>
      </trkpt>
      <trkpt lat="40.83465" lon="-8.47066">
        <ele>180.827</ele>
        <time>2020-09-27T17:39:08Z</time>
      </trkpt>
      <trkpt lat="40.83459" lon="-8.47045">
        <ele>179.587</ele>
        <time>2020-09-27T17:39:09Z</time>
      </trkpt>
      <trkpt lat="40.83451" lon="-8.46999">
        <ele>178.115</ele>
        <time>2020-09-27T17:39:11Z</time>
      </trkpt>
      <trkpt lat="40.83452" lon="-8.46949">
        <ele>177.653</ele>
        <time>2020-09-27T17:39:13Z</time>
      </trkpt>
      <trkpt lat="40.83457" lon="-8.46922">
        <ele>176.804</ele>
        <time>2020-09-27T17:39:14Z</time>
      </trkpt>
      <trkpt lat="40.83475" lon="-8.46871">
        <ele>175.714</ele>
        <time>2020-09-27T17:39:16Z</time>
      </trkpt>
      <trkpt lat="40.83488" lon="-8.46845">
        <ele>174.908</ele>
        <time>2020-09-27T17:39:17Z</time>
      </trkpt>
      <trkpt lat="40.83523" lon="-8.46802">
        <ele>174.56</ele>
        <time>2020-09-27T17:39:19Z</time>
      </trkpt>
      <trkpt lat="40.83565" lon="-8.46766">
        <ele>174.652</ele>
        <time>2020-09-27T17:39:21Z</time>
      </trkpt>
      <trkpt lat="40.83586" lon="-8.46749">
        <ele>175.08</ele>
        <time>2020-09-27T17:39:22Z</time>
      </trkpt>
      <trkpt lat="40.83607" lon="-8.46732">
        <ele>175.692</ele>
        <time>2020-09-27T17:39:23Z</time>
      </trkpt>
      <trkpt lat="40.8365" lon="-8.46698">
        <ele>177.28</ele>
        <time>2020-09-27T17:39:25Z</time>
      </trkpt>
      <trkpt lat="40.837" lon="-8.46675">
        <ele>179.08</ele>
        <time>2020-09-27T17:39:27Z</time>
      </trkpt>
      <trkpt lat="40.83755" lon="-8.46671">
        <ele>180.96</ele>
        <time>2020-09-27T17:39:29Z</time>
      </trkpt>
      <trkpt lat="40.83807" lon="-8.46665">
        <ele>182.858</ele>
        <time>2020-09-27T17:39:31Z</time>
        <extensions>
          <visugpx:TrkExtension xmlns:visugpx="https://www.visugpx.com/editgpx/">
            <visugpx:node>4</visugpx:node>
            </visugpx:TrkExtension>
        </extensions>
      </trkpt>
      <trkpt lat="40.83829" lon="-8.46654">
        <ele>153.4</ele>
      </trkpt>
      <trkpt lat="40.83856" lon="-8.4664">
        <ele>151.7</ele>
      </trkpt>
      <trkpt lat="40.83894" lon="-8.46608">
        <ele>147.2</ele>
      </trkpt>
      <trkpt lat="40.83933" lon="-8.46554">
        <ele>142.6</ele>
      </trkpt>
      <trkpt lat="40.83966" lon="-8.4649">
        <ele>141.2</ele>
      </trkpt>
      <trkpt lat="40.83997" lon="-8.46436">
        <ele>143.3</ele>
      </trkpt>
      <trkpt lat="40.84074" lon="-8.46348">
        <ele>148.3</ele>
      </trkpt>
      <trkpt lat="40.84135" lon="-8.46287">
        <ele>153.6</ele>
      </trkpt>
      <trkpt lat="40.84178" lon="-8.46256">
        <ele>160.8</ele>
      </trkpt>
      <trkpt lat="40.84203" lon="-8.46246">
        <ele>165.4</ele>
      </trkpt>
      <trkpt lat="40.84242" lon="-8.46238">
        <ele>173.4</ele>
      </trkpt>
      <trkpt lat="40.8446" lon="-8.46218">
        <ele>182</ele>
      </trkpt>
      <trkpt lat="40.84504" lon="-8.46206">
        <ele>178.3</ele>
      </trkpt>
      <trkpt lat="40.84511" lon="-8.46204">
        <ele>177.7</ele>
      </trkpt>
      <trkpt lat="40.84518" lon="-8.46199">
        <ele>176.2</ele>
      </trkpt>
      <trkpt lat="40.84562" lon="-8.46175">
        <ele>169.7</ele>
      </trkpt>
      <trkpt lat="40.84592" lon="-8.46159">
        <ele>166.5</ele>
      </trkpt>
      <trkpt lat="40.84597" lon="-8.46162">
        <ele>167.2</ele>
      </trkpt>
      <trkpt lat="40.84599" lon="-8.46165">
        <ele>167.9</ele>
      </trkpt>
      <trkpt lat="40.846" lon="-8.46169">
        <ele>168.9</ele>
      </trkpt>
      <trkpt lat="40.84602" lon="-8.46181">
        <ele>172.3</ele>
      </trkpt>
      <trkpt lat="40.84599" lon="-8.46195">
        <ele>176.2</ele>
      </trkpt>
      <trkpt lat="40.84597" lon="-8.46203">
        <ele>178.5</ele>
      </trkpt>
      <trkpt lat="40.8459" lon="-8.46215">
        <ele>181.9</ele>
      </trkpt>
      <trkpt lat="40.8458" lon="-8.46223">
        <ele>184.2</ele>
      </trkpt>
      <trkpt lat="40.84589" lon="-8.46228">
        <ele>185.6</ele>
      </trkpt>
      <trkpt lat="40.84599" lon="-8.46232">
        <ele>186.7</ele>
      </trkpt>
      <trkpt lat="40.84607" lon="-8.46223">
        <ele>184.1</ele>
      </trkpt>
      <trkpt lat="40.84625" lon="-8.46187">
        <ele>174.1</ele>
      </trkpt>
      <trkpt lat="40.84638" lon="-8.46181">
        <ele>172.6</ele>
      </trkpt>
      <trkpt lat="40.84642" lon="-8.46177">
        <ele>171.5</ele>
      </trkpt>
      <trkpt lat="40.84644" lon="-8.46194">
        <ele>176.1</ele>
      </trkpt>
      <trkpt lat="40.84651" lon="-8.46208">
        <ele>179.9</ele>
      </trkpt>
      <trkpt lat="40.84682" lon="-8.46219">
        <ele>184.9</ele>
      </trkpt>
      <trkpt lat="40.84699" lon="-8.46228">
        <ele>189.4</ele>
      </trkpt>
      <trkpt lat="40.84722" lon="-8.46214">
        <ele>189</ele>
      </trkpt>
      <trkpt lat="40.84732" lon="-8.46215">
        <ele>190.6</ele>
      </trkpt>
      <trkpt lat="40.84753" lon="-8.46224">
        <ele>195.2</ele>
      </trkpt>
      <trkpt lat="40.84766" lon="-8.4624">
        <ele>199.7</ele>
      </trkpt>
      <trkpt lat="40.84778" lon="-8.46248">
        <ele>202.5</ele>
      </trkpt>
      <trkpt lat="40.84796" lon="-8.46238">
        <ele>201.1</ele>
      </trkpt>
      <trkpt lat="40.84832" lon="-8.46248">
        <ele>206.3</ele>
      </trkpt>
      <trkpt lat="40.84836" lon="-8.46236">
        <ele>202.9</ele>
      </trkpt>
      <trkpt lat="40.84828" lon="-8.4619">
        <ele>188.9</ele>
      </trkpt>
      <trkpt lat="40.84833" lon="-8.46161">
        <ele>181</ele>
      </trkpt>
      <trkpt lat="40.8485" lon="-8.46145">
        <ele>180.4</ele>
      </trkpt>
      <trkpt lat="40.84865" lon="-8.46144">
        <ele>182.2</ele>
      </trkpt>
      <trkpt lat="40.84884" lon="-8.46155">
        <ele>186.7</ele>
      </trkpt>
      <trkpt lat="40.84892" lon="-8.46149">
        <ele>186.7</ele>
      </trkpt>
      <trkpt lat="40.84898" lon="-8.46128">
        <ele>183.9</ele>
      </trkpt>
      <trkpt lat="40.84902" lon="-8.46079">
        <ele>176.1</ele>
      </trkpt>
      <trkpt lat="40.8491" lon="-8.46065">
        <ele>174.6</ele>
      </trkpt>
      <trkpt lat="40.84949" lon="-8.46045">
        <ele>178.2</ele>
      </trkpt>
      <trkpt lat="40.84965" lon="-8.4605">
        <ele>182.5</ele>
      </trkpt>
      <trkpt lat="40.84973" lon="-8.46042">
        <ele>182.6</ele>
      </trkpt>
      <trkpt lat="40.84985" lon="-8.46002">
        <ele>177.3</ele>
      </trkpt>
      <trkpt lat="40.85002" lon="-8.46045">
        <ele>189</ele>
      </trkpt>
      <trkpt lat="40.85014" lon="-8.4608">
        <ele>197.9</ele>
      </trkpt>
      <trkpt lat="40.85017" lon="-8.4611">
        <ele>202.6</ele>
      </trkpt>
      <trkpt lat="40.85013" lon="-8.46137">
        <ele>205.5</ele>
      </trkpt>
      <trkpt lat="40.85006" lon="-8.46155">
        <ele>206.6</ele>
      </trkpt>
      <trkpt lat="40.85046" lon="-8.46183">
        <ele>218.3</ele>
      </trkpt>
      <trkpt lat="40.85068" lon="-8.46188">
        <ele>222.9</ele>
      </trkpt>
      <trkpt lat="40.85093" lon="-8.46202">
        <ele>228.5</ele>
      </trkpt>
      <trkpt lat="40.85118" lon="-8.46222">
        <ele>234.2</ele>
      </trkpt>
      <trkpt lat="40.85152" lon="-8.46234">
        <ele>240.1</ele>
      </trkpt>
      <trkpt lat="40.8518" lon="-8.46236">
        <ele>242.8</ele>
      </trkpt>
      <trkpt lat="40.85205" lon="-8.46212">
        <ele>239.2</ele>
      </trkpt>
      <trkpt lat="40.85221" lon="-8.46204">
        <ele>237.4</ele>
      </trkpt>
      <trkpt lat="40.85285" lon="-8.46229">
        <ele>244.5</ele>
      </trkpt>
      <trkpt lat="40.85324" lon="-8.46243">
        <ele>249.1</ele>
      </trkpt>
      <trkpt lat="40.85352" lon="-8.46249">
        <ele>250.3</ele>
      </trkpt>
      <trkpt lat="40.85365" lon="-8.46237">
        <ele>247.1</ele>
      </trkpt>
      <trkpt lat="40.85369" lon="-8.46226">
        <ele>244.4</ele>
      </trkpt>
      <trkpt lat="40.85377" lon="-8.46237">
        <ele>246.8</ele>
      </trkpt>
      <trkpt lat="40.85389" lon="-8.46259">
        <ele>251.5</ele>
      </trkpt>
      <trkpt lat="40.85397" lon="-8.46279">
        <ele>255.5</ele>
      </trkpt>
      <trkpt lat="40.85395" lon="-8.46295">
        <ele>258.8</ele>
      </trkpt>
      <trkpt lat="40.8539" lon="-8.46307">
        <ele>261.5</ele>
      </trkpt>
      <trkpt lat="40.85376" lon="-8.46315">
        <ele>263.6</ele>
      </trkpt>
      <trkpt lat="40.85363" lon="-8.4633">
        <ele>267.2</ele>
      </trkpt>
      <trkpt lat="40.85379" lon="-8.46332">
        <ele>267.1</ele>
      </trkpt>
      <trkpt lat="40.85401" lon="-8.4634">
        <ele>267.1</ele>
      </trkpt>
      <trkpt lat="40.85413" lon="-8.46346">
        <ele>267.2</ele>
      </trkpt>
      <trkpt lat="40.85412" lon="-8.46359">
        <ele>268.3</ele>
      </trkpt>
      <trkpt lat="40.85407" lon="-8.46375">
        <ele>269.7</ele>
      </trkpt>
      <trkpt lat="40.85395" lon="-8.46382">
        <ele>270.6</ele>
      </trkpt>
      <trkpt lat="40.85369" lon="-8.46381">
        <ele>271.1</ele>
      </trkpt>
      <trkpt lat="40.85352" lon="-8.4638">
        <ele>271.4</ele>
      </trkpt>
      <trkpt lat="40.85357" lon="-8.46389">
        <ele>271.9</ele>
      </trkpt>
      <trkpt lat="40.85362" lon="-8.46426">
        <ele>273.7</ele>
      </trkpt>
      <trkpt lat="40.85364" lon="-8.46435">
        <ele>273.7</ele>
      </trkpt>
      <trkpt lat="40.85367" lon="-8.4644">
        <ele>273.8</ele>
      </trkpt>
      <trkpt lat="40.85371" lon="-8.46441">
        <ele>273.8</ele>
      </trkpt>
      <trkpt lat="40.85375" lon="-8.46444">
        <ele>273.8</ele>
      </trkpt>
      <trkpt lat="40.85378" lon="-8.46449">
        <ele>273.9</ele>
      </trkpt>
      <trkpt lat="40.85379" lon="-8.46455">
        <ele>274</ele>
      </trkpt>
      <trkpt lat="40.85379" lon="-8.46461">
        <ele>274.1</ele>
      </trkpt>
      <trkpt lat="40.85377" lon="-8.46466">
        <ele>274.1</ele>
      </trkpt>
      <trkpt lat="40.85374" lon="-8.46471">
        <ele>274.1</ele>
      </trkpt>
      <trkpt lat="40.85372" lon="-8.46486">
        <ele>274.2</ele>
      </trkpt>
      <trkpt lat="40.85368" lon="-8.46509">
        <ele>273.4</ele>
      </trkpt>
      <trkpt lat="40.85388" lon="-8.46525">
        <ele>272.7</ele>
      </trkpt>
      <trkpt lat="40.85483" lon="-8.46585">
        <ele>274.4</ele>
      </trkpt>
      <trkpt lat="40.85581" lon="-8.4665">
        <ele>273.9</ele>
      </trkpt>
      <trkpt lat="40.85591" lon="-8.4666">
        <ele>273.6</ele>
      </trkpt>
      <trkpt lat="40.85598" lon="-8.46674">
        <ele>272.8</ele>
      </trkpt>
      <trkpt lat="40.85602" lon="-8.46685">
        <ele>272.2</ele>
      </trkpt>
      <trkpt lat="40.85608" lon="-8.46713">
        <ele>270.4</ele>
      </trkpt>
      <trkpt lat="40.85617" lon="-8.46765">
        <ele>267.7</ele>
      </trkpt>
      <trkpt lat="40.85619" lon="-8.46783">
        <ele>266.7</ele>
      </trkpt>
      <trkpt lat="40.85627" lon="-8.46817">
        <ele>265.7</ele>
      </trkpt>
      <trkpt lat="40.85662" lon="-8.4686">
        <ele>268.9</ele>
      </trkpt>
      <trkpt lat="40.8575" lon="-8.46956">
        <ele>268.8</ele>
      </trkpt>
      <trkpt lat="40.85806" lon="-8.47016">
        <ele>266.4</ele>
      </trkpt>
      <trkpt lat="40.85924" lon="-8.47132">
        <ele>254.8</ele>
      </trkpt>
      <trkpt lat="40.85981" lon="-8.47188">
        <ele>258.8</ele>
      </trkpt>
      <trkpt lat="40.86014" lon="-8.47223">
        <ele>256.7</ele>
      </trkpt>
      <trkpt lat="40.86016" lon="-8.4722">
        <ele>257.1</ele>
      </trkpt>
      <trkpt lat="40.86019" lon="-8.47218">
        <ele>257.4</ele>
      </trkpt>
      <trkpt lat="40.86025" lon="-8.47219">
        <ele>257.3</ele>
      </trkpt>
      <trkpt lat="40.86028" lon="-8.47221">
        <ele>257</ele>
      </trkpt>
      <trkpt lat="40.8603" lon="-8.47224">
        <ele>256.7</ele>
      </trkpt>
      <trkpt lat="40.86031" lon="-8.47228">
        <ele>256.2</ele>
      </trkpt>
      <trkpt lat="40.86031" lon="-8.47232">
        <ele>255.7</ele>
      </trkpt>
      <trkpt lat="40.8603" lon="-8.47236">
        <ele>255.2</ele>
      </trkpt>
      <trkpt lat="40.86028" lon="-8.47239">
        <ele>254.7</ele>
      </trkpt>
      <trkpt lat="40.86039" lon="-8.4725">
        <ele>253.9</ele>
      </trkpt>
      <trkpt lat="40.86065" lon="-8.47289">
        <ele>251.3</ele>
      </trkpt>
      <trkpt lat="40.86268" lon="-8.47564">
        <ele>213.3</ele>
      </trkpt>
      <trkpt lat="40.86283" lon="-8.47578">
        <ele>212</ele>
      </trkpt>
      <trkpt lat="40.86297" lon="-8.47589">
        <ele>210.7</ele>
      </trkpt>
      <trkpt lat="40.86316" lon="-8.47601">
        <ele>208.7</ele>
      </trkpt>
      <trkpt lat="40.86337" lon="-8.47609">
        <ele>207.2</ele>
      </trkpt>
      <trkpt lat="40.86356" lon="-8.47615">
        <ele>207.5</ele>
      </trkpt>
      <trkpt lat="40.86374" lon="-8.47616">
        <ele>208.5</ele>
      </trkpt>
      <trkpt lat="40.86418" lon="-8.47615">
        <ele>211.4</ele>
      </trkpt>
      <trkpt lat="40.86839" lon="-8.47573">
        <ele>168.5</ele>
      </trkpt>
      <trkpt lat="40.87032" lon="-8.47556">
        <ele>180.8</ele>
      </trkpt>
      <trkpt lat="40.87071" lon="-8.47559">
        <ele>186.4</ele>
      </trkpt>
      <trkpt lat="40.8715" lon="-8.47574">
        <ele>199.2</ele>
      </trkpt>
      <trkpt lat="40.87163" lon="-8.47577">
        <ele>201.3</ele>
      </trkpt>
      <trkpt lat="40.87177" lon="-8.47579">
        <ele>201.7</ele>
      </trkpt>
      <trkpt lat="40.87192" lon="-8.47581">
        <ele>201.3</ele>
      </trkpt>
      <trkpt lat="40.87193" lon="-8.47583">
        <ele>201.4</ele>
      </trkpt>
      <trkpt lat="40.87196" lon="-8.47581">
        <ele>201.2</ele>
      </trkpt>
      <trkpt lat="40.87197" lon="-8.4758">
        <ele>201.2</ele>
      </trkpt>
      <trkpt lat="40.872" lon="-8.4758">
        <ele>201.1</ele>
      </trkpt>
      <trkpt lat="40.87202" lon="-8.47582">
        <ele>201.1</ele>
      </trkpt>
      <trkpt lat="40.87204" lon="-8.47584">
        <ele>201.1</ele>
      </trkpt>
      <trkpt lat="40.87205" lon="-8.47587">
        <ele>201</ele>
      </trkpt>
      <trkpt lat="40.87206" lon="-8.47591">
        <ele>200.9</ele>
      </trkpt>
      <trkpt lat="40.8727" lon="-8.47602">
        <ele>199.2</ele>
      </trkpt>
      <trkpt lat="40.87314" lon="-8.47609">
        <ele>197.3</ele>
      </trkpt>
      <trkpt lat="40.87372" lon="-8.47618">
        <ele>192.1</ele>
      </trkpt>
      <trkpt lat="40.87401" lon="-8.47618">
        <ele>189.4</ele>
      </trkpt>
      <trkpt lat="40.87439" lon="-8.47609">
        <ele>188</ele>
      </trkpt>
      <trkpt lat="40.87482" lon="-8.47588">
        <ele>188</ele>
      </trkpt>
      <trkpt lat="40.87518" lon="-8.4757">
        <ele>190.7</ele>
      </trkpt>
      <trkpt lat="40.8765" lon="-8.47498">
        <ele>198.2</ele>
      </trkpt>
      <trkpt lat="40.87736" lon="-8.47449">
        <ele>197.3</ele>
      </trkpt>
      <trkpt lat="40.87796" lon="-8.47416">
        <ele>195.5</ele>
      </trkpt>
      <trkpt lat="40.87812" lon="-8.47407">
        <ele>195.6</ele>
      </trkpt>
      <trkpt lat="40.87845" lon="-8.47391">
        <ele>196.4</ele>
      </trkpt>
      <trkpt lat="40.87879" lon="-8.47376">
        <ele>197.7</ele>
      </trkpt>
      <trkpt lat="40.879" lon="-8.4737">
        <ele>198.4</ele>
      </trkpt>
      <trkpt lat="40.879" lon="-8.47367">
        <ele>198.3</ele>
      </trkpt>
      <trkpt lat="40.87905" lon="-8.47361">
        <ele>198.2</ele>
      </trkpt>
      <trkpt lat="40.87907" lon="-8.4736">
        <ele>198.2</ele>
      </trkpt>
      <trkpt lat="40.87908" lon="-8.4736">
        <ele>198.3</ele>
      </trkpt>
      <trkpt lat="40.87914" lon="-8.47364">
        <ele>198.7</ele>
      </trkpt>
      <trkpt lat="40.87915" lon="-8.47366">
        <ele>198.9</ele>
      </trkpt>
      <trkpt lat="40.87927" lon="-8.4736">
        <ele>199.1</ele>
      </trkpt>
      <trkpt lat="40.87944" lon="-8.47354">
        <ele>199.7</ele>
      </trkpt>
      <trkpt lat="40.87968" lon="-8.47349">
        <ele>200.8</ele>
      </trkpt>
      <trkpt lat="40.88041" lon="-8.47337">
        <ele>203.2</ele>
      </trkpt>
      <trkpt lat="40.88091" lon="-8.47332">
        <ele>204.2</ele>
      </trkpt>
      <trkpt lat="40.88114" lon="-8.4733">
        <ele>205</ele>
      </trkpt>
      <trkpt lat="40.88133" lon="-8.47329">
        <ele>205.7</ele>
      </trkpt>
      <trkpt lat="40.88174" lon="-8.47327">
        <ele>206.8</ele>
      </trkpt>
      <trkpt lat="40.88284" lon="-8.4732">
        <ele>205.8</ele>
      </trkpt>
      <trkpt lat="40.88296" lon="-8.47321">
        <ele>205.5</ele>
      </trkpt>
      <trkpt lat="40.88317" lon="-8.47312">
        <ele>204.8</ele>
      </trkpt>
      <trkpt lat="40.88352" lon="-8.47301">
        <ele>204.5</ele>
      </trkpt>
      <trkpt lat="40.88375" lon="-8.47298">
        <ele>204.8</ele>
      </trkpt>
      <trkpt lat="40.88379" lon="-8.47297">
        <ele>204.8</ele>
      </trkpt>
      <trkpt lat="40.88402" lon="-8.47302">
        <ele>205.2</ele>
      </trkpt>
      <trkpt lat="40.88441" lon="-8.47276">
        <ele>205.8</ele>
      </trkpt>
      <trkpt lat="40.88464" lon="-8.47257">
        <ele>206.4</ele>
      </trkpt>
      <trkpt lat="40.88476" lon="-8.47245">
        <ele>206.7</ele>
      </trkpt>
      <trkpt lat="40.88515" lon="-8.47191">
        <ele>208.1</ele>
      </trkpt>
      <trkpt lat="40.88519" lon="-8.4718">
        <ele>208.3</ele>
      </trkpt>
      <trkpt lat="40.88523" lon="-8.47159">
        <ele>208.4</ele>
      </trkpt>
      <trkpt lat="40.88524" lon="-8.47152">
        <ele>208.3</ele>
      </trkpt>
      <trkpt lat="40.88526" lon="-8.47152">
        <ele>208.4</ele>
      </trkpt>
      <trkpt lat="40.88554" lon="-8.47138">
        <ele>208.7</ele>
      </trkpt>
      <trkpt lat="40.88558" lon="-8.47136">
        <ele>208.8</ele>
      </trkpt>
      <trkpt lat="40.8857" lon="-8.4713">
        <ele>208.9</ele>
      </trkpt>
      <trkpt lat="40.88584" lon="-8.47124">
        <ele>209</ele>
      </trkpt>
      <trkpt lat="40.88592" lon="-8.47127">
        <ele>209.3</ele>
      </trkpt>
      <trkpt lat="40.88627" lon="-8.47127">
        <ele>210.1</ele>
      </trkpt>
      <trkpt lat="40.88644" lon="-8.47129">
        <ele>210.6</ele>
      </trkpt>
      <trkpt lat="40.88674" lon="-8.47145">
        <ele>210.8</ele>
      </trkpt>
      <trkpt lat="40.88694" lon="-8.47161">
        <ele>209</ele>
      </trkpt>
      <trkpt lat="40.88697" lon="-8.47163">
        <ele>208.7</ele>
      </trkpt>
      <trkpt lat="40.88731" lon="-8.47187">
        <ele>205.9</ele>
      </trkpt>
      <trkpt lat="40.88768" lon="-8.47206">
        <ele>202.1</ele>
      </trkpt>
      <trkpt lat="40.88788" lon="-8.47216">
        <ele>199.5</ele>
      </trkpt>
      <trkpt lat="40.88833" lon="-8.47241">
        <ele>194.4</ele>
      </trkpt>
      <trkpt lat="40.88845" lon="-8.47246">
        <ele>192.9</ele>
      </trkpt>
      <trkpt lat="40.8886" lon="-8.47259">
        <ele>190.7</ele>
      </trkpt>
      <trkpt lat="40.88884" lon="-8.47271">
        <ele>186.7</ele>
      </trkpt>
      <trkpt lat="40.88922" lon="-8.47298">
        <ele>181.5</ele>
      </trkpt>
      <trkpt lat="40.8899" lon="-8.47354">
        <ele>182</ele>
      </trkpt>
      <trkpt lat="40.89034" lon="-8.47417">
        <ele>183.8</ele>
      </trkpt>
      <trkpt lat="40.89047" lon="-8.47444">
        <ele>182.7</ele>
      </trkpt>
      <trkpt lat="40.89051" lon="-8.47449">
        <ele>182.5</ele>
      </trkpt>
      <trkpt lat="40.89059" lon="-8.4745">
        <ele>182.7</ele>
      </trkpt>
      <trkpt lat="40.89064" lon="-8.47448">
        <ele>182.9</ele>
      </trkpt>
      <trkpt lat="40.89068" lon="-8.47445">
        <ele>183.2</ele>
      </trkpt>
      <trkpt lat="40.89073" lon="-8.4744">
        <ele>183.6</ele>
      </trkpt>
      <trkpt lat="40.89078" lon="-8.47437">
        <ele>183.9</ele>
      </trkpt>
      <trkpt lat="40.89083" lon="-8.47436">
        <ele>184.1</ele>
      </trkpt>
      <trkpt lat="40.89089" lon="-8.47437">
        <ele>184.5</ele>
      </trkpt>
      <trkpt lat="40.89093" lon="-8.4744">
        <ele>184.6</ele>
      </trkpt>
      <trkpt lat="40.89096" lon="-8.47444">
        <ele>184.6</ele>
      </trkpt>
      <trkpt lat="40.89109" lon="-8.47439">
        <ele>185.9</ele>
      </trkpt>
      <trkpt lat="40.89117" lon="-8.47432">
        <ele>187</ele>
      </trkpt>
      <trkpt lat="40.89119" lon="-8.4742">
        <ele>188.2</ele>
      </trkpt>
      <trkpt lat="40.89116" lon="-8.47377">
        <ele>189.3</ele>
      </trkpt>
      <trkpt lat="40.89121" lon="-8.47321">
        <ele>191</ele>
      </trkpt>
      <trkpt lat="40.89123" lon="-8.47314">
        <ele>191.2</ele>
      </trkpt>
      <trkpt lat="40.89159" lon="-8.47257">
        <ele>192.8</ele>
      </trkpt>
      <trkpt lat="40.89162" lon="-8.47253">
        <ele>192.9</ele>
      </trkpt>
      <trkpt lat="40.8917" lon="-8.47245">
        <ele>193.4</ele>
      </trkpt>
      <trkpt lat="40.89183" lon="-8.47241">
        <ele>194.9</ele>
      </trkpt>
      <trkpt lat="40.89215" lon="-8.47227">
        <ele>198.3</ele>
      </trkpt>
      <trkpt lat="40.89233" lon="-8.47197">
        <ele>200.3</ele>
      </trkpt>
      <trkpt lat="40.89237" lon="-8.47185">
        <ele>200.7</ele>
      </trkpt>
      <trkpt lat="40.89243" lon="-8.47191">
        <ele>201.3</ele>
      </trkpt>
      <trkpt lat="40.89273" lon="-8.47194">
        <ele>204</ele>
      </trkpt>
      <trkpt lat="40.8932" lon="-8.47203">
        <ele>208.2</ele>
      </trkpt>
      <trkpt lat="40.8934" lon="-8.47201">
        <ele>209.8</ele>
      </trkpt>
      <trkpt lat="40.89355" lon="-8.47203">
        <ele>210.6</ele>
      </trkpt>
      <trkpt lat="40.8942" lon="-8.47218">
        <ele>214.8</ele>
      </trkpt>
      <trkpt lat="40.89448" lon="-8.47223">
        <ele>217.8</ele>
      </trkpt>
      <trkpt lat="40.89481" lon="-8.47234">
        <ele>221.9</ele>
      </trkpt>
      <trkpt lat="40.89511" lon="-8.47239">
        <ele>225.4</ele>
      </trkpt>
      <trkpt lat="40.89536" lon="-8.47249">
        <ele>228.8</ele>
      </trkpt>
      <trkpt lat="40.89548" lon="-8.47253">
        <ele>230.3</ele>
      </trkpt>
      <trkpt lat="40.89568" lon="-8.47261">
        <ele>232.3</ele>
      </trkpt>
      <trkpt lat="40.89573" lon="-8.47263">
        <ele>232.8</ele>
      </trkpt>
      <trkpt lat="40.89639" lon="-8.47296">
        <ele>232.9</ele>
      </trkpt>
      <trkpt lat="40.89669" lon="-8.47308">
        <ele>232.7</ele>
      </trkpt>
      <trkpt lat="40.89694" lon="-8.47319">
        <ele>233.9</ele>
      </trkpt>
      <trkpt lat="40.89709" lon="-8.473">
        <ele>235.1</ele>
      </trkpt>
      <trkpt lat="40.89732" lon="-8.47272">
        <ele>236.8</ele>
      </trkpt>
      <trkpt lat="40.89825" lon="-8.4734">
        <ele>236.5</ele>
      </trkpt>
      <trkpt lat="40.89952" lon="-8.47429">
        <ele>227.8</ele>
      </trkpt>
      <trkpt lat="40.89958" lon="-8.47426">
        <ele>227.9</ele>
      </trkpt>
      <trkpt lat="40.89968" lon="-8.47419">
        <ele>228.2</ele>
      </trkpt>
      <trkpt lat="40.89995" lon="-8.4743">
        <ele>227.3</ele>
      </trkpt>
      <trkpt lat="40.90023" lon="-8.47435">
        <ele>227.1</ele>
      </trkpt>
      <trkpt lat="40.90045" lon="-8.47435">
        <ele>227.3</ele>
      </trkpt>
      <trkpt lat="40.90058" lon="-8.47433">
        <ele>227.6</ele>
      </trkpt>
      <trkpt lat="40.90066" lon="-8.4741">
        <ele>229.5</ele>
      </trkpt>
      <trkpt lat="40.90079" lon="-8.47406">
        <ele>230.2</ele>
      </trkpt>
      <trkpt lat="40.90088" lon="-8.47401">
        <ele>231.2</ele>
      </trkpt>
      <trkpt lat="40.90117" lon="-8.47384">
        <ele>235.1</ele>
      </trkpt>
      <trkpt lat="40.90116" lon="-8.47381">
        <ele>235.4</ele>
      </trkpt>
      <trkpt lat="40.90118" lon="-8.47373">
        <ele>236.3</ele>
      </trkpt>
      <trkpt lat="40.90122" lon="-8.4737">
        <ele>236.8</ele>
      </trkpt>
      <trkpt lat="40.90124" lon="-8.4737">
        <ele>236.9</ele>
      </trkpt>
      <trkpt lat="40.90124" lon="-8.4736">
        <ele>237.9</ele>
      </trkpt>
      <trkpt lat="40.90131" lon="-8.47274">
        <ele>248.8</ele>
      </trkpt>
      <trkpt lat="40.90131" lon="-8.4726">
        <ele>250.6</ele>
      </trkpt>
      <trkpt lat="40.90149" lon="-8.47269">
        <ele>249.6</ele>
      </trkpt>
      <trkpt lat="40.90172" lon="-8.47282">
        <ele>248.3</ele>
      </trkpt>
      <trkpt lat="40.90195" lon="-8.47291">
        <ele>248.1</ele>
      </trkpt>
      <trkpt lat="40.90258" lon="-8.47304">
        <ele>250.3</ele>
      </trkpt>
      <trkpt lat="40.90275" lon="-8.47306">
        <ele>251.6</ele>
      </trkpt>
      <trkpt lat="40.9033" lon="-8.47318">
        <ele>255.3</ele>
      </trkpt>
      <trkpt lat="40.90342" lon="-8.47322">
        <ele>255.2</ele>
      </trkpt>
      <trkpt lat="40.90363" lon="-8.47333">
        <ele>254.7</ele>
      </trkpt>
      <trkpt lat="40.90413" lon="-8.47366">
        <ele>251.2</ele>
      </trkpt>
      <trkpt lat="40.9047" lon="-8.47389">
        <ele>247</ele>
      </trkpt>
      <trkpt lat="40.90503" lon="-8.47397">
        <ele>244.8</ele>
      </trkpt>
      <trkpt lat="40.90528" lon="-8.47407">
        <ele>243.6</ele>
      </trkpt>
      <trkpt lat="40.90594" lon="-8.47445">
        <ele>240.7</ele>
      </trkpt>
      <trkpt lat="40.90656" lon="-8.4749">
        <ele>239.8</ele>
      </trkpt>
      <trkpt lat="40.90676" lon="-8.47499">
        <ele>240.5</ele>
      </trkpt>
      <trkpt lat="40.90741" lon="-8.47522">
        <ele>241</ele>
      </trkpt>
      <trkpt lat="40.90787" lon="-8.4751">
        <ele>242.7</ele>
      </trkpt>
      <trkpt lat="40.90822" lon="-8.47502">
        <ele>243</ele>
      </trkpt>
      <trkpt lat="40.90857" lon="-8.47498">
        <ele>242.9</ele>
      </trkpt>
      <trkpt lat="40.90896" lon="-8.4749">
        <ele>242</ele>
      </trkpt>
      <trkpt lat="40.90996" lon="-8.47472">
        <ele>234.5</ele>
      </trkpt>
      <trkpt lat="40.91031" lon="-8.47468">
        <ele>229.1</ele>
      </trkpt>
      <trkpt lat="40.91048" lon="-8.47469">
        <ele>226.6</ele>
      </trkpt>
      <trkpt lat="40.9106" lon="-8.47463">
        <ele>224.2</ele>
      </trkpt>
      <trkpt lat="40.91064" lon="-8.47469">
        <ele>224.1</ele>
      </trkpt>
      <trkpt lat="40.91076" lon="-8.47481">
        <ele>223.1</ele>
      </trkpt>
      <trkpt lat="40.91124" lon="-8.47508">
        <ele>222.7</ele>
      </trkpt>
      <trkpt lat="40.9114" lon="-8.47526">
        <ele>224.6</ele>
      </trkpt>
      <trkpt lat="40.91142" lon="-8.47519">
        <ele>223.5</ele>
      </trkpt>
      <trkpt lat="40.91152" lon="-8.47505">
        <ele>221.2</ele>
      </trkpt>
      <trkpt lat="40.91165" lon="-8.47492">
        <ele>218.8</ele>
      </trkpt>
      <trkpt lat="40.91197" lon="-8.47471">
        <ele>211.5</ele>
      </trkpt>
      <trkpt lat="40.91203" lon="-8.47465">
        <ele>210.2</ele>
      </trkpt>
      <trkpt lat="40.91205" lon="-8.47462">
        <ele>209.7</ele>
      </trkpt>
      <trkpt lat="40.9121" lon="-8.47452">
        <ele>208.3</ele>
      </trkpt>
      <trkpt lat="40.91213" lon="-8.47441">
        <ele>207.2</ele>
      </trkpt>
      <trkpt lat="40.91219" lon="-8.47351">
        <ele>205.6</ele>
      </trkpt>
      <trkpt lat="40.91222" lon="-8.4733">
        <ele>205.7</ele>
      </trkpt>
      <trkpt lat="40.91227" lon="-8.47316">
        <ele>205.9</ele>
      </trkpt>
      <trkpt lat="40.91236" lon="-8.47284">
        <ele>206.4</ele>
      </trkpt>
      <trkpt lat="40.91241" lon="-8.47265">
        <ele>206.8</ele>
      </trkpt>
      <trkpt lat="40.91251" lon="-8.47192">
        <ele>208.5</ele>
      </trkpt>
      <trkpt lat="40.91306" lon="-8.47204">
        <ele>212.7</ele>
      </trkpt>
      <trkpt lat="40.91355" lon="-8.47216">
        <ele>216.9</ele>
      </trkpt>
      <trkpt lat="40.91381" lon="-8.47221">
        <ele>219.2</ele>
      </trkpt>
      <trkpt lat="40.91383" lon="-8.47221">
        <ele>219.4</ele>
      </trkpt>
      <trkpt lat="40.91417" lon="-8.47223">
        <ele>222.4</ele>
      </trkpt>
      <trkpt lat="40.91448" lon="-8.47222">
        <ele>225.5</ele>
      </trkpt>
      <trkpt lat="40.91473" lon="-8.47224">
        <ele>227.9</ele>
      </trkpt>
      <trkpt lat="40.9151" lon="-8.47232">
        <ele>230.2</ele>
      </trkpt>
      <trkpt lat="40.91567" lon="-8.47248">
        <ele>227</ele>
      </trkpt>
      <trkpt lat="40.9159" lon="-8.47252">
        <ele>226</ele>
      </trkpt>
      <trkpt lat="40.91602" lon="-8.47252">
        <ele>225.9</ele>
      </trkpt>
      <trkpt lat="40.91675" lon="-8.47251">
        <ele>226.1</ele>
      </trkpt>
      <trkpt lat="40.91697" lon="-8.47245">
        <ele>227.5</ele>
      </trkpt>
      <trkpt lat="40.91716" lon="-8.47231">
        <ele>229.7</ele>
      </trkpt>
      <trkpt lat="40.91719" lon="-8.47229">
        <ele>230</ele>
      </trkpt>
      <trkpt lat="40.91744" lon="-8.4721">
        <ele>232.3</ele>
      </trkpt>
      <trkpt lat="40.91747" lon="-8.47207">
        <ele>232.7</ele>
      </trkpt>
      <trkpt lat="40.91779" lon="-8.47184">
        <ele>234.9</ele>
      </trkpt>
      <trkpt lat="40.91799" lon="-8.47183">
        <ele>234.9</ele>
      </trkpt>
      <trkpt lat="40.91839" lon="-8.47185">
        <ele>234.5</ele>
      </trkpt>
      <trkpt lat="40.91845" lon="-8.47186">
        <ele>234.6</ele>
      </trkpt>
      <trkpt lat="40.91859" lon="-8.47187">
        <ele>234.7</ele>
      </trkpt>
      <trkpt lat="40.91933" lon="-8.47163">
        <ele>235.2</ele>
      </trkpt>
      <trkpt lat="40.91982" lon="-8.4714">
        <ele>231.3</ele>
      </trkpt>
      <trkpt lat="40.92009" lon="-8.4712">
        <ele>228</ele>
      </trkpt>
      <trkpt lat="40.92042" lon="-8.47092">
        <ele>224.1</ele>
      </trkpt>
      <trkpt lat="40.92064" lon="-8.47075">
        <ele>223</ele>
      </trkpt>
      <trkpt lat="40.92123" lon="-8.47048">
        <ele>225.6</ele>
      </trkpt>
      <trkpt lat="40.92142" lon="-8.47045">
        <ele>226.6</ele>
      </trkpt>
      <trkpt lat="40.92213" lon="-8.47043">
        <ele>229.3</ele>
      </trkpt>
      <trkpt lat="40.92224" lon="-8.47027">
        <ele>231.1</ele>
      </trkpt>
      <trkpt lat="40.92231" lon="-8.47014">
        <ele>232.5</ele>
      </trkpt>
      <trkpt lat="40.92242" lon="-8.46987">
        <ele>234.7</ele>
      </trkpt>
      <trkpt lat="40.92356" lon="-8.46873">
        <ele>241.8</ele>
      </trkpt>
      <trkpt lat="40.92368" lon="-8.46866">
        <ele>241.6</ele>
      </trkpt>
      <trkpt lat="40.92385" lon="-8.46866">
        <ele>240.3</ele>
      </trkpt>
      <trkpt lat="40.92556" lon="-8.46892">
        <ele>235.3</ele>
      </trkpt>
      <trkpt lat="40.92615" lon="-8.46899">
        <ele>235.5</ele>
      </trkpt>
      <trkpt lat="40.92702" lon="-8.46909">
        <ele>236.7</ele>
      </trkpt>
      <trkpt lat="40.92721" lon="-8.46904">
        <ele>239</ele>
      </trkpt>
      <trkpt lat="40.92736" lon="-8.46894">
        <ele>242.3</ele>
      </trkpt>
      <trkpt lat="40.9277" lon="-8.46837">
        <ele>254.3</ele>
      </trkpt>
      <trkpt lat="40.92785" lon="-8.46828">
        <ele>252.4</ele>
      </trkpt>
      <trkpt lat="40.92791" lon="-8.46825">
        <ele>251.2</ele>
      </trkpt>
      <trkpt lat="40.92809" lon="-8.46825">
        <ele>247.5</ele>
      </trkpt>
      <trkpt lat="40.92838" lon="-8.46837">
        <ele>241.4</ele>
      </trkpt>
      <trkpt lat="40.92846" lon="-8.46841">
        <ele>239.2</ele>
      </trkpt>
      <trkpt lat="40.92889" lon="-8.46859">
        <ele>229.5</ele>
      </trkpt>
      <trkpt lat="40.92894" lon="-8.4686">
        <ele>228.6</ele>
      </trkpt>
      <trkpt lat="40.92903" lon="-8.46861">
        <ele>227</ele>
      </trkpt>
      <trkpt lat="40.92932" lon="-8.46863">
        <ele>225.8</ele>
      </trkpt>
      <trkpt lat="40.92983" lon="-8.4687">
        <ele>229.3</ele>
      </trkpt>
      <trkpt lat="40.93017" lon="-8.46874">
        <ele>231.8</ele>
      </trkpt>
      <trkpt lat="40.93026" lon="-8.46875">
        <ele>232.5</ele>
      </trkpt>
      <trkpt lat="40.93048" lon="-8.46878">
        <ele>234.3</ele>
      </trkpt>
      <trkpt lat="40.93111" lon="-8.46885">
        <ele>238.8</ele>
      </trkpt>
      <trkpt lat="40.93117" lon="-8.46887">
        <ele>239.1</ele>
      </trkpt>
      <trkpt lat="40.93118" lon="-8.46884">
        <ele>239.2</ele>
      </trkpt>
      <trkpt lat="40.93123" lon="-8.46879">
        <ele>239.7</ele>
      </trkpt>
      <trkpt lat="40.93128" lon="-8.46879">
        <ele>240.1</ele>
      </trkpt>
      <trkpt lat="40.93131" lon="-8.4688">
        <ele>240.2</ele>
      </trkpt>
      <trkpt lat="40.93133" lon="-8.46883">
        <ele>240.2</ele>
      </trkpt>
      <trkpt lat="40.93134" lon="-8.46886">
        <ele>240.2</ele>
      </trkpt>
      <trkpt lat="40.93135" lon="-8.4689">
        <ele>240.1</ele>
      </trkpt>
      <trkpt lat="40.93133" lon="-8.46897">
        <ele>239.6</ele>
      </trkpt>
      <trkpt lat="40.93131" lon="-8.469">
        <ele>239.4</ele>
      </trkpt>
      <trkpt lat="40.93129" lon="-8.46902">
        <ele>239.2</ele>
      </trkpt>
      <trkpt lat="40.9313" lon="-8.4691">
        <ele>238.9</ele>
      </trkpt>
      <trkpt lat="40.9313" lon="-8.46926">
        <ele>238.4</ele>
      </trkpt>
      <trkpt lat="40.93124" lon="-8.47107">
        <ele>235</ele>
      </trkpt>
      <trkpt lat="40.93134" lon="-8.4711">
        <ele>236</ele>
      </trkpt>
      <trkpt lat="40.9314" lon="-8.47116">
        <ele>236.6</ele>
      </trkpt>
      <trkpt lat="40.9315" lon="-8.47125">
        <ele>237.5</ele>
      </trkpt>
      <trkpt lat="40.9318" lon="-8.47155">
        <ele>240.3</ele>
      </trkpt>
      <trkpt lat="40.93195" lon="-8.47163">
        <ele>241.7</ele>
      </trkpt>
      <trkpt lat="40.93206" lon="-8.4717">
        <ele>242.7</ele>
      </trkpt>
      <trkpt lat="40.93246" lon="-8.47187">
        <ele>245.9</ele>
      </trkpt>
      <trkpt lat="40.93268" lon="-8.47199">
        <ele>246.3</ele>
      </trkpt>
      <trkpt lat="40.93292" lon="-8.4721">
        <ele>246.4</ele>
      </trkpt>
      <trkpt lat="40.93303" lon="-8.47219">
        <ele>246.2</ele>
      </trkpt>
      <trkpt lat="40.9331" lon="-8.47235">
        <ele>245.5</ele>
      </trkpt>
      <trkpt lat="40.93336" lon="-8.47311">
        <ele>245.1</ele>
      </trkpt>
      <trkpt lat="40.93346" lon="-8.47325">
        <ele>245.6</ele>
      </trkpt>
      <trkpt lat="40.93357" lon="-8.47333">
        <ele>246.1</ele>
      </trkpt>
      <trkpt lat="40.9342" lon="-8.4736">
        <ele>249.2</ele>
      </trkpt>
      <trkpt lat="40.93474" lon="-8.47384">
        <ele>246.1</ele>
      </trkpt>
      <trkpt lat="40.93482" lon="-8.47388">
        <ele>245.5</ele>
      </trkpt>
      <trkpt lat="40.93485" lon="-8.47384">
        <ele>245.5</ele>
      </trkpt>
      <trkpt lat="40.93487" lon="-8.47382">
        <ele>245.4</ele>
      </trkpt>
      <trkpt lat="40.93491" lon="-8.47381">
        <ele>245.2</ele>
      </trkpt>
      <trkpt lat="40.93494" lon="-8.47382">
        <ele>245</ele>
      </trkpt>
      <trkpt lat="40.93498" lon="-8.47386">
        <ele>244.6</ele>
      </trkpt>
      <trkpt lat="40.93499" lon="-8.4739">
        <ele>244.3</ele>
      </trkpt>
      <trkpt lat="40.93499" lon="-8.47396">
        <ele>244.1</ele>
      </trkpt>
      <trkpt lat="40.9356" lon="-8.47431">
        <ele>246</ele>
      </trkpt>
      <trkpt lat="40.93585" lon="-8.47445">
        <ele>246.8</ele>
      </trkpt>
      <trkpt lat="40.93683" lon="-8.47472">
        <ele>255.1</ele>
      </trkpt>
      <trkpt lat="40.93704" lon="-8.47474">
        <ele>255.4</ele>
      </trkpt>
      <trkpt lat="40.93761" lon="-8.47467">
        <ele>257</ele>
      </trkpt>
      <trkpt lat="40.93771" lon="-8.47462">
        <ele>257.2</ele>
      </trkpt>
      <trkpt lat="40.93773" lon="-8.4746">
        <ele>257.3</ele>
      </trkpt>
      <trkpt lat="40.93783" lon="-8.47446">
        <ele>258.2</ele>
      </trkpt>
      <trkpt lat="40.93787" lon="-8.47436">
        <ele>258.8</ele>
      </trkpt>
      <trkpt lat="40.93799" lon="-8.47418">
        <ele>259.6</ele>
      </trkpt>
      <trkpt lat="40.93806" lon="-8.47412">
        <ele>259.4</ele>
      </trkpt>
      <trkpt lat="40.93823" lon="-8.47404">
        <ele>258.7</ele>
      </trkpt>
      <trkpt lat="40.93841" lon="-8.47405">
        <ele>257.9</ele>
      </trkpt>
      <trkpt lat="40.93857" lon="-8.47415">
        <ele>257.2</ele>
      </trkpt>
      <trkpt lat="40.93864" lon="-8.47422">
        <ele>256.5</ele>
      </trkpt>
      <trkpt lat="40.93874" lon="-8.47441">
        <ele>254.8</ele>
      </trkpt>
      <trkpt lat="40.93877" lon="-8.47452">
        <ele>253.8</ele>
      </trkpt>
      <trkpt lat="40.93879" lon="-8.47464">
        <ele>252.8</ele>
      </trkpt>
      <trkpt lat="40.9389" lon="-8.47472">
        <ele>251.5</ele>
      </trkpt>
      <trkpt lat="40.93901" lon="-8.47474">
        <ele>250.6</ele>
      </trkpt>
      <trkpt lat="40.93932" lon="-8.47466">
        <ele>251.4</ele>
      </trkpt>
      <trkpt lat="40.93954" lon="-8.47466">
        <ele>253</ele>
      </trkpt>
      <trkpt lat="40.94064" lon="-8.47475">
        <ele>257</ele>
      </trkpt>
      <trkpt lat="40.94097" lon="-8.47479">
        <ele>256.5</ele>
      </trkpt>
      <trkpt lat="40.94114" lon="-8.47486">
        <ele>255.1</ele>
      </trkpt>
      <trkpt lat="40.94131" lon="-8.47493">
        <ele>253.7</ele>
      </trkpt>
      <trkpt lat="40.94254" lon="-8.47583">
        <ele>240.2</ele>
      </trkpt>
      <trkpt lat="40.94259" lon="-8.47584">
        <ele>240.3</ele>
      </trkpt>
      <trkpt lat="40.94286" lon="-8.47596">
        <ele>240.8</ele>
      </trkpt>
      <trkpt lat="40.94298" lon="-8.47599">
        <ele>241</ele>
      </trkpt>
      <trkpt lat="40.94312" lon="-8.47602">
        <ele>241.1</ele>
      </trkpt>
      <trkpt lat="40.94331" lon="-8.47608">
        <ele>240.9</ele>
      </trkpt>
      <trkpt lat="40.94346" lon="-8.47622">
        <ele>239.9</ele>
      </trkpt>
      <trkpt lat="40.94363" lon="-8.4765">
        <ele>238</ele>
      </trkpt>
      <trkpt lat="40.94383" lon="-8.47696">
        <ele>237.3</ele>
      </trkpt>
      <trkpt lat="40.94384" lon="-8.47699">
        <ele>237.3</ele>
      </trkpt>
      <trkpt lat="40.94387" lon="-8.47708">
        <ele>237.4</ele>
      </trkpt>
      <trkpt lat="40.94384" lon="-8.4774">
        <ele>237.4</ele>
      </trkpt>
      <trkpt lat="40.94388" lon="-8.47751">
        <ele>237.6</ele>
      </trkpt>
      <trkpt lat="40.9439" lon="-8.47755">
        <ele>237.6</ele>
      </trkpt>
      <trkpt lat="40.94398" lon="-8.47767">
        <ele>237.8</ele>
      </trkpt>
      <trkpt lat="40.94413" lon="-8.47802">
        <ele>237.6</ele>
      </trkpt>
      <trkpt lat="40.94427" lon="-8.47833">
        <ele>237.4</ele>
      </trkpt>
      <trkpt lat="40.9443" lon="-8.4784">
        <ele>236.9</ele>
      </trkpt>
      <trkpt lat="40.9445" lon="-8.47862">
        <ele>235.7</ele>
      </trkpt>
      <trkpt lat="40.94459" lon="-8.47866">
        <ele>235.8</ele>
      </trkpt>
      <trkpt lat="40.94475" lon="-8.47862">
        <ele>236.8</ele>
      </trkpt>
      <trkpt lat="40.9448" lon="-8.47862">
        <ele>237.1</ele>
      </trkpt>
      <trkpt lat="40.94499" lon="-8.47861">
        <ele>238</ele>
      </trkpt>
      <trkpt lat="40.94558" lon="-8.47859">
        <ele>236.1</ele>
      </trkpt>
      <trkpt lat="40.94582" lon="-8.47858">
        <ele>235.3</ele>
      </trkpt>
      <trkpt lat="40.94608" lon="-8.47861">
        <ele>235</ele>
      </trkpt>
      <trkpt lat="40.94652" lon="-8.47872">
        <ele>234.2</ele>
      </trkpt>
      <trkpt lat="40.94724" lon="-8.47887">
        <ele>233.4</ele>
      </trkpt>
      <trkpt lat="40.94751" lon="-8.47894">
        <ele>233</ele>
      </trkpt>
      <trkpt lat="40.9476" lon="-8.47901">
        <ele>232.8</ele>
      </trkpt>
      <trkpt lat="40.94772" lon="-8.4792">
        <ele>231.8</ele>
      </trkpt>
      <trkpt lat="40.94797" lon="-8.47981">
        <ele>232.9</ele>
      </trkpt>
      <trkpt lat="40.94804" lon="-8.48016">
        <ele>232.8</ele>
      </trkpt>
      <trkpt lat="40.94807" lon="-8.48036">
        <ele>232.6</ele>
      </trkpt>
      <trkpt lat="40.94827" lon="-8.48146">
        <ele>232.8</ele>
      </trkpt>
      <trkpt lat="40.94833" lon="-8.48169">
        <ele>233.1</ele>
      </trkpt>
      <trkpt lat="40.94838" lon="-8.48176">
        <ele>233.8</ele>
      </trkpt>
      <trkpt lat="40.94845" lon="-8.48185">
        <ele>234.7</ele>
      </trkpt>
      <trkpt lat="40.94891" lon="-8.48227">
        <ele>240</ele>
      </trkpt>
      <trkpt lat="40.94904" lon="-8.48239">
        <ele>241.6</ele>
      </trkpt>
      <trkpt lat="40.94914" lon="-8.48242">
        <ele>242.4</ele>
      </trkpt>
      <trkpt lat="40.94924" lon="-8.48246">
        <ele>242.9</ele>
      </trkpt>
      <trkpt lat="40.9494" lon="-8.48244">
        <ele>243</ele>
      </trkpt>
      <trkpt lat="40.94949" lon="-8.48246">
        <ele>243.2</ele>
      </trkpt>
      <trkpt lat="40.94956" lon="-8.48252">
        <ele>243.4</ele>
      </trkpt>
      <trkpt lat="40.94957" lon="-8.48266">
        <ele>242.8</ele>
      </trkpt>
      <trkpt lat="40.94958" lon="-8.48321">
        <ele>240.5</ele>
      </trkpt>
      <trkpt lat="40.9496" lon="-8.48333">
        <ele>240.1</ele>
      </trkpt>
      <trkpt lat="40.9497" lon="-8.48342">
        <ele>239.9</ele>
      </trkpt>
      <trkpt lat="40.95013" lon="-8.48374">
        <ele>238.9</ele>
      </trkpt>
      <trkpt lat="40.9503" lon="-8.48394">
        <ele>238</ele>
      </trkpt>
      <trkpt lat="40.95073" lon="-8.48451">
        <ele>236.4</ele>
      </trkpt>
      <trkpt lat="40.95082" lon="-8.48463">
        <ele>236.2</ele>
      </trkpt>
      <trkpt lat="40.95113" lon="-8.4851">
        <ele>235.1</ele>
      </trkpt>
      <trkpt lat="40.9512" lon="-8.48525">
        <ele>235</ele>
      </trkpt>
      <trkpt lat="40.95124" lon="-8.48538">
        <ele>234.8</ele>
      </trkpt>
      <trkpt lat="40.95124" lon="-8.48551">
        <ele>234.4</ele>
      </trkpt>
      <trkpt lat="40.95108" lon="-8.48602">
        <ele>232.7</ele>
      </trkpt>
      <trkpt lat="40.95103" lon="-8.48624">
        <ele>232.8</ele>
      </trkpt>
      <trkpt lat="40.95096" lon="-8.48668">
        <ele>233.3</ele>
      </trkpt>
      <trkpt lat="40.95106" lon="-8.48675">
        <ele>233.5</ele>
      </trkpt>
      <trkpt lat="40.95129" lon="-8.48676">
        <ele>233.9</ele>
      </trkpt>
      <trkpt lat="40.95176" lon="-8.48694">
        <ele>234</ele>
      </trkpt>
      <trkpt lat="40.95231" lon="-8.48732">
        <ele>234.7</ele>
      </trkpt>
      <trkpt lat="40.95256" lon="-8.48747">
        <ele>235.8</ele>
      </trkpt>
      <trkpt lat="40.9531" lon="-8.48771">
        <ele>234.1</ele>
      </trkpt>
      <trkpt lat="40.95327" lon="-8.48772">
        <ele>233.6</ele>
      </trkpt>
      <trkpt lat="40.95349" lon="-8.48766">
        <ele>233.7</ele>
      </trkpt>
      <trkpt lat="40.95355" lon="-8.48764">
        <ele>233.8</ele>
      </trkpt>
      <trkpt lat="40.95367" lon="-8.48762">
        <ele>233.9</ele>
      </trkpt>
      <trkpt lat="40.95389" lon="-8.48764">
        <ele>234</ele>
      </trkpt>
      <trkpt lat="40.95415" lon="-8.48769">
        <ele>233.9</ele>
      </trkpt>
      <trkpt lat="40.95547" lon="-8.48827">
        <ele>230.5</ele>
      </trkpt>
      <trkpt lat="40.95571" lon="-8.48829">
        <ele>230.2</ele>
      </trkpt>
      <trkpt lat="40.9564" lon="-8.48837">
        <ele>225.4</ele>
      </trkpt>
      <trkpt lat="40.95651" lon="-8.48839">
        <ele>224.5</ele>
      </trkpt>
      <trkpt lat="40.95662" lon="-8.48842">
        <ele>223.7</ele>
      </trkpt>
      <trkpt lat="40.9568" lon="-8.48854">
        <ele>222.4</ele>
      </trkpt>
      <trkpt lat="40.95732" lon="-8.48894">
        <ele>217.8</ele>
      </trkpt>
      <trkpt lat="40.95743" lon="-8.48897">
        <ele>216.6</ele>
      </trkpt>
      <trkpt lat="40.9575" lon="-8.489">
        <ele>215.8</ele>
      </trkpt>
      <trkpt lat="40.95802" lon="-8.48902">
        <ele>209.1</ele>
      </trkpt>
      <trkpt lat="40.95913" lon="-8.4892">
        <ele>201.3</ele>
      </trkpt>
      <trkpt lat="40.95945" lon="-8.48926">
        <ele>200.5</ele>
      </trkpt>
      <trkpt lat="40.95974" lon="-8.48928">
        <ele>199.5</ele>
      </trkpt>
      <trkpt lat="40.95988" lon="-8.48931">
        <ele>198.7</ele>
      </trkpt>
      <trkpt lat="40.96008" lon="-8.48939">
        <ele>197.1</ele>
      </trkpt>
      <trkpt lat="40.96033" lon="-8.48955">
        <ele>194.6</ele>
      </trkpt>
      <trkpt lat="40.96054" lon="-8.48962">
        <ele>193.3</ele>
      </trkpt>
      <trkpt lat="40.9607" lon="-8.48971">
        <ele>191.8</ele>
      </trkpt>
      <trkpt lat="40.96106" lon="-8.49">
        <ele>188.5</ele>
      </trkpt>
      <trkpt lat="40.96134" lon="-8.49011">
        <ele>188.8</ele>
      </trkpt>
      <trkpt lat="40.96142" lon="-8.49012">
        <ele>189</ele>
      </trkpt>
      <trkpt lat="40.96144" lon="-8.49011">
        <ele>189.1</ele>
      </trkpt>
      <trkpt lat="40.96148" lon="-8.49008">
        <ele>189.3</ele>
      </trkpt>
      <trkpt lat="40.96154" lon="-8.48993">
        <ele>190</ele>
      </trkpt>
      <trkpt lat="40.96159" lon="-8.48984">
        <ele>190.5</ele>
      </trkpt>
      <trkpt lat="40.96171" lon="-8.48974">
        <ele>191.1</ele>
      </trkpt>
      <trkpt lat="40.96178" lon="-8.48968">
        <ele>191.7</ele>
      </trkpt>
      <trkpt lat="40.96204" lon="-8.48949">
        <ele>193.3</ele>
      </trkpt>
      <trkpt lat="40.96213" lon="-8.48947">
        <ele>193.6</ele>
      </trkpt>
      <trkpt lat="40.96222" lon="-8.48952">
        <ele>193.9</ele>
      </trkpt>
      <trkpt lat="40.9627" lon="-8.48985">
        <ele>195.1</ele>
      </trkpt>
      <trkpt lat="40.96324" lon="-8.49027">
        <ele>193.1</ele>
      </trkpt>
      <trkpt lat="40.96335" lon="-8.49037">
        <ele>192.5</ele>
      </trkpt>
      <trkpt lat="40.96342" lon="-8.49047">
        <ele>192.3</ele>
      </trkpt>
      <trkpt lat="40.96361" lon="-8.49075">
        <ele>192.2</ele>
      </trkpt>
      <trkpt lat="40.96382" lon="-8.49105">
        <ele>192.5</ele>
      </trkpt>
      <trkpt lat="40.96387" lon="-8.49098">
        <ele>193.4</ele>
      </trkpt>
      <trkpt lat="40.96399" lon="-8.49094">
        <ele>194.8</ele>
      </trkpt>
      <trkpt lat="40.96413" lon="-8.49097">
        <ele>196</ele>
      </trkpt>
      <trkpt lat="40.9643" lon="-8.49109">
        <ele>196.7</ele>
      </trkpt>
      <trkpt lat="40.96438" lon="-8.4911">
        <ele>197.3</ele>
      </trkpt>
      <trkpt lat="40.96456" lon="-8.49103">
        <ele>198.9</ele>
      </trkpt>
      <trkpt lat="40.96477" lon="-8.49093">
        <ele>200.9</ele>
      </trkpt>
      <trkpt lat="40.96496" lon="-8.49079">
        <ele>202.9</ele>
      </trkpt>
      <trkpt lat="40.9651" lon="-8.49067">
        <ele>204.3</ele>
      </trkpt>
      <trkpt lat="40.96525" lon="-8.4906">
        <ele>205.6</ele>
      </trkpt>
      <trkpt lat="40.96547" lon="-8.49059">
        <ele>206.9</ele>
      </trkpt>
      <trkpt lat="40.96597" lon="-8.49077">
        <ele>207.1</ele>
      </trkpt>
      <trkpt lat="40.9662" lon="-8.49076">
        <ele>206.4</ele>
      </trkpt>
      <trkpt lat="40.96643" lon="-8.49077">
        <ele>205.5</ele>
      </trkpt>
      <trkpt lat="40.96669" lon="-8.49082">
        <ele>204.2</ele>
      </trkpt>
      <trkpt lat="40.96674" lon="-8.49081">
        <ele>204.5</ele>
      </trkpt>
      <trkpt lat="40.967" lon="-8.49079">
        <ele>205.3</ele>
      </trkpt>
      <trkpt lat="40.96771" lon="-8.49071">
        <ele>205.7</ele>
      </trkpt>
      <trkpt lat="40.96777" lon="-8.49076">
        <ele>204.6</ele>
      </trkpt>
      <trkpt lat="40.96795" lon="-8.4907">
        <ele>203.9</ele>
      </trkpt>
      <trkpt lat="40.9683" lon="-8.49053">
        <ele>203.6</ele>
      </trkpt>
      <trkpt lat="40.96844" lon="-8.49053">
        <ele>201.9</ele>
      </trkpt>
      <trkpt lat="40.96854" lon="-8.49067">
        <ele>198.5</ele>
      </trkpt>
      <trkpt lat="40.9686" lon="-8.4909">
        <ele>195</ele>
      </trkpt>
      <trkpt lat="40.9687" lon="-8.49108">
        <ele>192.8</ele>
      </trkpt>
      <trkpt lat="40.96883" lon="-8.49118">
        <ele>190</ele>
      </trkpt>
      <trkpt lat="40.96888" lon="-8.4912">
        <ele>189</ele>
      </trkpt>
      <trkpt lat="40.96901" lon="-8.49134">
        <ele>185.4</ele>
      </trkpt>
      <trkpt lat="40.9691" lon="-8.49141">
        <ele>182.9</ele>
      </trkpt>
      <trkpt lat="40.96919" lon="-8.49147">
        <ele>181.1</ele>
      </trkpt>
      <trkpt lat="40.96927" lon="-8.49146">
        <ele>181.7</ele>
      </trkpt>
      <trkpt lat="40.96952" lon="-8.49145">
        <ele>183.6</ele>
      </trkpt>
      <trkpt lat="40.96964" lon="-8.49149">
        <ele>184</ele>
      </trkpt>
      <trkpt lat="40.96987" lon="-8.49161">
        <ele>184</ele>
      </trkpt>
      <trkpt lat="40.96997" lon="-8.49161">
        <ele>184.6</ele>
      </trkpt>
      <trkpt lat="40.97028" lon="-8.49158">
        <ele>187.3</ele>
      </trkpt>
      <trkpt lat="40.97055" lon="-8.49203">
        <ele>184</ele>
      </trkpt>
      <trkpt lat="40.97064" lon="-8.49224">
        <ele>182.4</ele>
      </trkpt>
      <trkpt lat="40.97071" lon="-8.49236">
        <ele>181.6</ele>
      </trkpt>
      <trkpt lat="40.97078" lon="-8.49244">
        <ele>181.3</ele>
      </trkpt>
      <trkpt lat="40.97117" lon="-8.49274">
        <ele>181.7</ele>
      </trkpt>
      <trkpt lat="40.97138" lon="-8.49283">
        <ele>182.4</ele>
      </trkpt>
      <trkpt lat="40.97159" lon="-8.4929">
        <ele>183.1</ele>
      </trkpt>
      <trkpt lat="40.97173" lon="-8.49297">
        <ele>182.8</ele>
      </trkpt>
      <trkpt lat="40.9718" lon="-8.49302">
        <ele>182.3</ele>
      </trkpt>
      <trkpt lat="40.97199" lon="-8.49307">
        <ele>182.3</ele>
      </trkpt>
      <trkpt lat="40.97235" lon="-8.49312">
        <ele>183.1</ele>
      </trkpt>
      <trkpt lat="40.9728" lon="-8.49324">
        <ele>184.9</ele>
      </trkpt>
      <trkpt lat="40.97283" lon="-8.49325">
        <ele>185.1</ele>
      </trkpt>
      <trkpt lat="40.97299" lon="-8.49329">
        <ele>186.4</ele>
      </trkpt>
      <trkpt lat="40.97406" lon="-8.49415">
        <ele>192.1</ele>
      </trkpt>
      <trkpt lat="40.97444" lon="-8.4946">
        <ele>186.7</ele>
      </trkpt>
      <trkpt lat="40.97487" lon="-8.49515">
        <ele>184</ele>
      </trkpt>
      <trkpt lat="40.97501" lon="-8.49541">
        <ele>184.1</ele>
      </trkpt>
      <trkpt lat="40.97503" lon="-8.49551">
        <ele>183.7</ele>
      </trkpt>
      <trkpt lat="40.97506" lon="-8.49566">
        <ele>183.1</ele>
      </trkpt>
      <trkpt lat="40.97506" lon="-8.49625">
        <ele>181.8</ele>
      </trkpt>
      <trkpt lat="40.97509" lon="-8.49636">
        <ele>181.7</ele>
      </trkpt>
      <trkpt lat="40.97529" lon="-8.49654">
        <ele>182.2</ele>
      </trkpt>
      <trkpt lat="40.97618" lon="-8.49746">
        <ele>178.4</ele>
      </trkpt>
      <trkpt lat="40.97688" lon="-8.49814">
        <ele>164.1</ele>
      </trkpt>
      <trkpt lat="40.97727" lon="-8.49845">
        <ele>156.7</ele>
      </trkpt>
      <trkpt lat="40.97751" lon="-8.49863">
        <ele>152</ele>
      </trkpt>
      <trkpt lat="40.97762" lon="-8.49861">
        <ele>152.2</ele>
      </trkpt>
      <trkpt lat="40.97771" lon="-8.49859">
        <ele>152.5</ele>
      </trkpt>
      <trkpt lat="40.97809" lon="-8.49846">
        <ele>154.5</ele>
      </trkpt>
      <trkpt lat="40.97826" lon="-8.49836">
        <ele>156.5</ele>
      </trkpt>
      <trkpt lat="40.97834" lon="-8.49831">
        <ele>157.3</ele>
      </trkpt>
      <trkpt lat="40.9789" lon="-8.49799">
        <ele>152</ele>
      </trkpt>
      <trkpt lat="40.97892" lon="-8.49805">
        <ele>150.9</ele>
      </trkpt>
      <trkpt lat="40.97926" lon="-8.49858">
        <ele>142.4</ele>
      </trkpt>
      <trkpt lat="40.97929" lon="-8.49879">
        <ele>141.1</ele>
      </trkpt>
      <trkpt lat="40.97931" lon="-8.49925">
        <ele>138.8</ele>
      </trkpt>
      <trkpt lat="40.97932" lon="-8.49929">
        <ele>138.8</ele>
      </trkpt>
      <trkpt lat="40.9796" lon="-8.49932">
        <ele>140.4</ele>
      </trkpt>
      <trkpt lat="40.97996" lon="-8.49917">
        <ele>142.8</ele>
      </trkpt>
      <trkpt lat="40.98017" lon="-8.49916">
        <ele>144.2</ele>
      </trkpt>
      <trkpt lat="40.98036" lon="-8.49925">
        <ele>145.3</ele>
      </trkpt>
      <trkpt lat="40.98036" lon="-8.49936">
        <ele>145</ele>
      </trkpt>
      <trkpt lat="40.98041" lon="-8.49953">
        <ele>144.7</ele>
      </trkpt>
      <trkpt lat="40.98043" lon="-8.49963">
        <ele>144.4</ele>
      </trkpt>
      <trkpt lat="40.9805" lon="-8.49963">
        <ele>144.7</ele>
      </trkpt>
      <trkpt lat="40.98067" lon="-8.49962">
        <ele>145.5</ele>
      </trkpt>
      <trkpt lat="40.98091" lon="-8.49953">
        <ele>146.6</ele>
      </trkpt>
      <trkpt lat="40.98131" lon="-8.49933">
        <ele>147.2</ele>
      </trkpt>
      <trkpt lat="40.9814" lon="-8.49926">
        <ele>147.6</ele>
      </trkpt>
      <trkpt lat="40.98162" lon="-8.49904">
        <ele>149.1</ele>
      </trkpt>
      <trkpt lat="40.9817" lon="-8.49898">
        <ele>149.4</ele>
      </trkpt>
      <trkpt lat="40.98202" lon="-8.49886">
        <ele>149.4</ele>
      </trkpt>
      <trkpt lat="40.98213" lon="-8.49885">
        <ele>149.1</ele>
      </trkpt>
      <trkpt lat="40.98218" lon="-8.49887">
        <ele>148.7</ele>
      </trkpt>
      <trkpt lat="40.98222" lon="-8.4989">
        <ele>148.2</ele>
      </trkpt>
      <trkpt lat="40.98224" lon="-8.49892">
        <ele>147.9</ele>
      </trkpt>
      <trkpt lat="40.98276" lon="-8.50003">
        <ele>138.6</ele>
      </trkpt>
      <trkpt lat="40.98288" lon="-8.5003">
        <ele>138.4</ele>
      </trkpt>
      <trkpt lat="40.98341" lon="-8.50023">
        <ele>140.3</ele>
      </trkpt>
      <trkpt lat="40.98345" lon="-8.50011">
        <ele>140.7</ele>
      </trkpt>
      <trkpt lat="40.98357" lon="-8.49997">
        <ele>141.7</ele>
      </trkpt>
      <trkpt lat="40.984" lon="-8.49962">
        <ele>144.3</ele>
      </trkpt>
      <trkpt lat="40.98437" lon="-8.49925">
        <ele>145.7</ele>
      </trkpt>
      <trkpt lat="40.98479" lon="-8.49875">
        <ele>148.6</ele>
      </trkpt>
      <trkpt lat="40.98498" lon="-8.49853">
        <ele>149.2</ele>
      </trkpt>
      <trkpt lat="40.985" lon="-8.49873">
        <ele>149.5</ele>
      </trkpt>
      <trkpt lat="40.98508" lon="-8.49892">
        <ele>150.3</ele>
      </trkpt>
      <trkpt lat="40.98516" lon="-8.49899">
        <ele>151</ele>
      </trkpt>
      <trkpt lat="40.98546" lon="-8.49911">
        <ele>153.3</ele>
      </trkpt>
      <trkpt lat="40.9861" lon="-8.49928">
        <ele>155.4</ele>
      </trkpt>
      <trkpt lat="40.98633" lon="-8.49938">
        <ele>154.7</ele>
      </trkpt>
      <trkpt lat="40.98665" lon="-8.49958">
        <ele>153.1</ele>
      </trkpt>
      <trkpt lat="40.98673" lon="-8.49967">
        <ele>152.5</ele>
      </trkpt>
      <trkpt lat="40.98682" lon="-8.49985">
        <ele>151.5</ele>
      </trkpt>
      <trkpt lat="40.98695" lon="-8.49998">
        <ele>150.8</ele>
      </trkpt>
      <trkpt lat="40.98705" lon="-8.50006">
        <ele>150.2</ele>
      </trkpt>
      <trkpt lat="40.98748" lon="-8.50023">
        <ele>148.4</ele>
      </trkpt>
      <trkpt lat="40.98756" lon="-8.50024">
        <ele>148.4</ele>
      </trkpt>
      <trkpt lat="40.98758" lon="-8.50016">
        <ele>149</ele>
      </trkpt>
      <trkpt lat="40.98762" lon="-8.50005">
        <ele>149.9</ele>
      </trkpt>
      <trkpt lat="40.98764" lon="-8.49952">
        <ele>152.8</ele>
      </trkpt>
      <trkpt lat="40.98784" lon="-8.49946">
        <ele>153.9</ele>
      </trkpt>
      <trkpt lat="40.98827" lon="-8.4995">
        <ele>155.4</ele>
      </trkpt>
      <trkpt lat="40.98863" lon="-8.49963">
        <ele>155.4</ele>
      </trkpt>
      <trkpt lat="40.98894" lon="-8.49977">
        <ele>155.1</ele>
      </trkpt>
      <trkpt lat="40.98923" lon="-8.49995">
        <ele>154.5</ele>
      </trkpt>
      <trkpt lat="40.98947" lon="-8.50016">
        <ele>153.8</ele>
      </trkpt>
      <trkpt lat="40.98964" lon="-8.50037">
        <ele>152.9</ele>
      </trkpt>
      <trkpt lat="40.98978" lon="-8.5005">
        <ele>152.2</ele>
      </trkpt>
      <trkpt lat="40.98999" lon="-8.50059">
        <ele>151.7</ele>
      </trkpt>
      <trkpt lat="40.99052" lon="-8.50068">
        <ele>150.7</ele>
      </trkpt>
      <trkpt lat="40.99061" lon="-8.50075">
        <ele>150</ele>
      </trkpt>
      <trkpt lat="40.99068" lon="-8.50086">
        <ele>148.9</ele>
      </trkpt>
      <trkpt lat="40.99106" lon="-8.50098">
        <ele>147.7</ele>
      </trkpt>
      <trkpt lat="40.99129" lon="-8.50102">
        <ele>147.6</ele>
      </trkpt>
      <trkpt lat="40.99142" lon="-8.50094">
        <ele>148.9</ele>
      </trkpt>
      <trkpt lat="40.99159" lon="-8.50074">
        <ele>151.7</ele>
      </trkpt>
      <trkpt lat="40.99193" lon="-8.50062">
        <ele>152.9</ele>
      </trkpt>
      <trkpt lat="40.99207" lon="-8.50059">
        <ele>153.1</ele>
      </trkpt>
      <trkpt lat="40.99214" lon="-8.50058">
        <ele>153.1</ele>
      </trkpt>
      <trkpt lat="40.99232" lon="-8.50069">
        <ele>152.1</ele>
      </trkpt>
      <trkpt lat="40.99261" lon="-8.50094">
        <ele>150.1</ele>
      </trkpt>
      <trkpt lat="40.99271" lon="-8.50112">
        <ele>148.5</ele>
      </trkpt>
      <trkpt lat="40.99281" lon="-8.50123">
        <ele>147.9</ele>
      </trkpt>
      <trkpt lat="40.99285" lon="-8.50134">
        <ele>147.1</ele>
      </trkpt>
      <trkpt lat="40.99304" lon="-8.50189">
        <ele>144.9</ele>
      </trkpt>
      <trkpt lat="40.9932" lon="-8.50193">
        <ele>146.3</ele>
      </trkpt>
      <trkpt lat="40.99372" lon="-8.50207">
        <ele>151.1</ele>
      </trkpt>
      <trkpt lat="40.99382" lon="-8.50207">
        <ele>152.1</ele>
      </trkpt>
      <trkpt lat="40.99406" lon="-8.50202">
        <ele>155.2</ele>
      </trkpt>
      <trkpt lat="40.99418" lon="-8.502">
        <ele>156.6</ele>
      </trkpt>
      <trkpt lat="40.99443" lon="-8.50196">
        <ele>157.9</ele>
      </trkpt>
      <trkpt lat="40.99461" lon="-8.50197">
        <ele>158.2</ele>
      </trkpt>
      <trkpt lat="40.99472" lon="-8.50196">
        <ele>158.7</ele>
      </trkpt>
      <trkpt lat="40.99496" lon="-8.50195">
        <ele>159.5</ele>
      </trkpt>
      <trkpt lat="40.99535" lon="-8.50199">
        <ele>158.9</ele>
      </trkpt>
      <trkpt lat="40.99541" lon="-8.50201">
        <ele>158.7</ele>
      </trkpt>
      <trkpt lat="40.9958" lon="-8.502">
        <ele>158.8</ele>
      </trkpt>
      <trkpt lat="40.99604" lon="-8.50199">
        <ele>160.9</ele>
      </trkpt>
      <trkpt lat="40.9967" lon="-8.50213">
        <ele>167</ele>
      </trkpt>
      <trkpt lat="40.9968" lon="-8.50214">
        <ele>167.2</ele>
      </trkpt>
      <trkpt lat="40.99686" lon="-8.50211">
        <ele>167.2</ele>
      </trkpt>
      <trkpt lat="40.99705" lon="-8.5019">
        <ele>167.5</ele>
      </trkpt>
      <trkpt lat="40.99711" lon="-8.50182">
        <ele>167.5</ele>
      </trkpt>
      <trkpt lat="40.99716" lon="-8.50177">
        <ele>167.6</ele>
      </trkpt>
      <trkpt lat="40.99739" lon="-8.50149">
        <ele>169.3</ele>
      </trkpt>
      <trkpt lat="40.99753" lon="-8.50127">
        <ele>170.8</ele>
      </trkpt>
      <trkpt lat="40.99764" lon="-8.50142">
        <ele>169.7</ele>
      </trkpt>
      <trkpt lat="40.99784" lon="-8.50172">
        <ele>167.9</ele>
      </trkpt>
      <trkpt lat="40.99809" lon="-8.50202">
        <ele>167.4</ele>
      </trkpt>
      <trkpt lat="40.99849" lon="-8.50245">
        <ele>166.1</ele>
      </trkpt>
      <trkpt lat="40.99926" lon="-8.503">
        <ele>166.8</ele>
      </trkpt>
      <trkpt lat="40.99988" lon="-8.50398">
        <ele>165.2</ele>
      </trkpt>
      <trkpt lat="41.00012" lon="-8.50446">
        <ele>161.8</ele>
      </trkpt>
      <trkpt lat="41.00046" lon="-8.50461">
        <ele>155.8</ele>
      </trkpt>
      <trkpt lat="41.00054" lon="-8.50471">
        <ele>154.6</ele>
      </trkpt>
      <trkpt lat="41.0007" lon="-8.50515">
        <ele>152</ele>
      </trkpt>
      <trkpt lat="41.00113" lon="-8.50576">
        <ele>140.5</ele>
      </trkpt>
      <trkpt lat="41.00121" lon="-8.50584">
        <ele>138.6</ele>
      </trkpt>
      <trkpt lat="41.00127" lon="-8.50588">
        <ele>137</ele>
      </trkpt>
      <trkpt lat="41.00132" lon="-8.50599">
        <ele>134.8</ele>
      </trkpt>
      <trkpt lat="41.00133" lon="-8.50613">
        <ele>132.9</ele>
      </trkpt>
      <trkpt lat="41.00134" lon="-8.50619">
        <ele>132</ele>
      </trkpt>
      <trkpt lat="41.00141" lon="-8.50664">
        <ele>125.9</ele>
      </trkpt>
      <trkpt lat="41.00143" lon="-8.50673">
        <ele>126.3</ele>
      </trkpt>
      <trkpt lat="41.00149" lon="-8.5068">
        <ele>126.9</ele>
      </trkpt>
      <trkpt lat="41.00212" lon="-8.507">
        <ele>125.3</ele>
      </trkpt>
      <trkpt lat="41.00244" lon="-8.50716">
        <ele>125.4</ele>
      </trkpt>
      <trkpt lat="41.00268" lon="-8.50748">
        <ele>130</ele>
      </trkpt>
      <trkpt lat="41.00308" lon="-8.50822">
        <ele>144</ele>
      </trkpt>
      <trkpt lat="41.00324" lon="-8.50816">
        <ele>141.5</ele>
      </trkpt>
      <trkpt lat="41.00357" lon="-8.50772">
        <ele>129.9</ele>
      </trkpt>
      <trkpt lat="41.00375" lon="-8.50752">
        <ele>125.3</ele>
      </trkpt>
      <trkpt lat="41.00413" lon="-8.50793">
        <ele>126.6</ele>
      </trkpt>
      <trkpt lat="41.00434" lon="-8.50819">
        <ele>130</ele>
      </trkpt>
      <trkpt lat="41.00443" lon="-8.50796">
        <ele>128.7</ele>
      </trkpt>
      <trkpt lat="41.00455" lon="-8.50775">
        <ele>128.1</ele>
      </trkpt>
      <trkpt lat="41.00463" lon="-8.5076">
        <ele>127.8</ele>
      </trkpt>
      <trkpt lat="41.00469" lon="-8.50752">
        <ele>127.8</ele>
      </trkpt>
      <trkpt lat="41.00472" lon="-8.50749">
        <ele>127.9</ele>
      </trkpt>
      <trkpt lat="41.005" lon="-8.50768">
        <ele>132.1</ele>
      </trkpt>
      <trkpt lat="41.00541" lon="-8.50795">
        <ele>137.9</ele>
      </trkpt>
      <trkpt lat="41.00582" lon="-8.50829">
        <ele>145.4</ele>
      </trkpt>
      <trkpt lat="41.00598" lon="-8.50844">
        <ele>147.7</ele>
      </trkpt>
      <trkpt lat="41.00609" lon="-8.50854">
        <ele>149.3</ele>
      </trkpt>
      <trkpt lat="41.00631" lon="-8.50874">
        <ele>153.2</ele>
      </trkpt>
      <trkpt lat="41.00676" lon="-8.5091">
        <ele>164.2</ele>
      </trkpt>
      <trkpt lat="41.00699" lon="-8.5094">
        <ele>174.1</ele>
      </trkpt>
      <trkpt lat="41.00726" lon="-8.5099">
        <ele>189</ele>
      </trkpt>
      <trkpt lat="41.0073" lon="-8.51003">
        <ele>191.9</ele>
      </trkpt>
      <trkpt lat="41.00736" lon="-8.51018">
        <ele>194</ele>
      </trkpt>
      <trkpt lat="41.00758" lon="-8.51067">
        <ele>197.1</ele>
      </trkpt>
      <trkpt lat="41.00764" lon="-8.51094">
        <ele>195.3</ele>
      </trkpt>
      <trkpt lat="41.00768" lon="-8.51112">
        <ele>193</ele>
      </trkpt>
      <trkpt lat="41.00775" lon="-8.5111">
        <ele>192</ele>
      </trkpt>
      <trkpt lat="41.00821" lon="-8.51107">
        <ele>184.5</ele>
      </trkpt>
      <trkpt lat="41.0084" lon="-8.5111">
        <ele>182.2</ele>
      </trkpt>
      <trkpt lat="41.00854" lon="-8.51119">
        <ele>181.8</ele>
      </trkpt>
      <trkpt lat="41.00861" lon="-8.51129">
        <ele>181.4</ele>
      </trkpt>
      <trkpt lat="41.00864" lon="-8.51132">
        <ele>181.3</ele>
      </trkpt>
      <trkpt lat="41.00874" lon="-8.51147">
        <ele>180.9</ele>
      </trkpt>
      <trkpt lat="41.00879" lon="-8.51161">
        <ele>180.6</ele>
      </trkpt>
      <trkpt lat="41.00885" lon="-8.51174">
        <ele>180.2</ele>
      </trkpt>
      <trkpt lat="41.00899" lon="-8.51201">
        <ele>179.6</ele>
      </trkpt>
      <trkpt lat="41.00914" lon="-8.51214">
        <ele>179.4</ele>
      </trkpt>
      <trkpt lat="41.00922" lon="-8.51223">
        <ele>179.6</ele>
      </trkpt>
      <trkpt lat="41.00929" lon="-8.51234">
        <ele>179.9</ele>
      </trkpt>
      <trkpt lat="41.00934" lon="-8.51246">
        <ele>180.1</ele>
      </trkpt>
      <trkpt lat="41.00938" lon="-8.51257">
        <ele>180.3</ele>
      </trkpt>
      <trkpt lat="41.00984" lon="-8.51301">
        <ele>183.2</ele>
      </trkpt>
      <trkpt lat="41.01003" lon="-8.51331">
        <ele>184.2</ele>
      </trkpt>
      <trkpt lat="41.01006" lon="-8.51333">
        <ele>184.4</ele>
      </trkpt>
      <trkpt lat="41.0101" lon="-8.51337">
        <ele>184.7</ele>
      </trkpt>
      <trkpt lat="41.01017" lon="-8.51339">
        <ele>185.2</ele>
      </trkpt>
      <trkpt lat="41.01051" lon="-8.51349">
        <ele>187.3</ele>
      </trkpt>
      <trkpt lat="41.01067" lon="-8.51359">
        <ele>188.2</ele>
      </trkpt>
      <trkpt lat="41.01073" lon="-8.51363">
        <ele>188.5</ele>
      </trkpt>
      <trkpt lat="41.0113" lon="-8.51434">
        <ele>193.7</ele>
      </trkpt>
      <trkpt lat="41.01194" lon="-8.51483">
        <ele>200.3</ele>
      </trkpt>
      <trkpt lat="41.01284" lon="-8.5157">
        <ele>204.7</ele>
      </trkpt>
      <trkpt lat="41.01495" lon="-8.51678">
        <ele>201.2</ele>
      </trkpt>
      <trkpt lat="41.01513" lon="-8.51689">
        <ele>200.6</ele>
      </trkpt>
      <trkpt lat="41.01521" lon="-8.51693">
        <ele>200.4</ele>
      </trkpt>
      <trkpt lat="41.01631" lon="-8.51722">
        <ele>196.2</ele>
      </trkpt>
      <trkpt lat="41.01703" lon="-8.51743">
        <ele>195.2</ele>
      </trkpt>
      <trkpt lat="41.01853" lon="-8.5181">
        <ele>188.4</ele>
      </trkpt>
      <trkpt lat="41.01972" lon="-8.51854">
        <ele>184.7</ele>
      </trkpt>
      <trkpt lat="41.02005" lon="-8.51826">
        <ele>186.4</ele>
      </trkpt>
      <trkpt lat="41.02016" lon="-8.51824">
        <ele>186.3</ele>
      </trkpt>
      <trkpt lat="41.02036" lon="-8.51823">
        <ele>185.9</ele>
      </trkpt>
      <trkpt lat="41.02054" lon="-8.51823">
        <ele>185.5</ele>
      </trkpt>
      <trkpt lat="41.02062" lon="-8.51825">
        <ele>185.3</ele>
      </trkpt>
      <trkpt lat="41.0207" lon="-8.51827">
        <ele>185.2</ele>
      </trkpt>
      <trkpt lat="41.02117" lon="-8.5184">
        <ele>183.1</ele>
      </trkpt>
      <trkpt lat="41.02193" lon="-8.51861">
        <ele>177.3</ele>
      </trkpt>
      <trkpt lat="41.02252" lon="-8.51879">
        <ele>169.8</ele>
      </trkpt>
      <trkpt lat="41.02256" lon="-8.51882">
        <ele>169.5</ele>
      </trkpt>
      <trkpt lat="41.02278" lon="-8.51899">
        <ele>167.3</ele>
      </trkpt>
      <trkpt lat="41.02303" lon="-8.51912">
        <ele>164.4</ele>
      </trkpt>
      <trkpt lat="41.02315" lon="-8.51915">
        <ele>163</ele>
      </trkpt>
      <trkpt lat="41.02328" lon="-8.51915">
        <ele>161.7</ele>
      </trkpt>
      <trkpt lat="41.02344" lon="-8.51912">
        <ele>160.3</ele>
      </trkpt>
      <trkpt lat="41.02356" lon="-8.51906">
        <ele>159.5</ele>
      </trkpt>
      <trkpt lat="41.02365" lon="-8.519">
        <ele>159</ele>
      </trkpt>
      <trkpt lat="41.02502" lon="-8.51722">
        <ele>136.2</ele>
      </trkpt>
      <trkpt lat="41.02517" lon="-8.51747">
        <ele>137.8</ele>
      </trkpt>
      <trkpt lat="41.02525" lon="-8.51766">
        <ele>138.7</ele>
      </trkpt>
      <trkpt lat="41.02533" lon="-8.51802">
        <ele>141.5</ele>
      </trkpt>
      <trkpt lat="41.02537" lon="-8.51833">
        <ele>144.5</ele>
      </trkpt>
      <trkpt lat="41.0254" lon="-8.51881">
        <ele>144.7</ele>
      </trkpt>
      <trkpt lat="41.0255" lon="-8.51965">
        <ele>135.7</ele>
      </trkpt>
      <trkpt lat="41.02548" lon="-8.51991">
        <ele>131.8</ele>
      </trkpt>
      <trkpt lat="41.02544" lon="-8.52008">
        <ele>130.1</ele>
      </trkpt>
      <trkpt lat="41.02544" lon="-8.5205">
        <ele>124.7</ele>
      </trkpt>
      <trkpt lat="41.02545" lon="-8.52062">
        <ele>122.9</ele>
      </trkpt>
      <trkpt lat="41.02551" lon="-8.52071">
        <ele>120.4</ele>
      </trkpt>
      <trkpt lat="41.02556" lon="-8.52087">
        <ele>117.6</ele>
      </trkpt>
      <trkpt lat="41.02552" lon="-8.52096">
        <ele>118.8</ele>
      </trkpt>
      <trkpt lat="41.02552" lon="-8.52105">
        <ele>119</ele>
      </trkpt>
      <trkpt lat="41.0256" lon="-8.5211">
        <ele>117.1</ele>
      </trkpt>
      <trkpt lat="41.02575" lon="-8.52127">
        <ele>113.6</ele>
      </trkpt>
      <trkpt lat="41.02585" lon="-8.52148">
        <ele>111.9</ele>
      </trkpt>
      <trkpt lat="41.02585" lon="-8.52158">
        <ele>112</ele>
      </trkpt>
      <trkpt lat="41.02574" lon="-8.52181">
        <ele>114.2</ele>
      </trkpt>
      <trkpt lat="41.02574" lon="-8.52198">
        <ele>113.8</ele>
      </trkpt>
      <trkpt lat="41.02578" lon="-8.52214">
        <ele>112.3</ele>
      </trkpt>
      <trkpt lat="41.02583" lon="-8.5222">
        <ele>110.8</ele>
      </trkpt>
      <trkpt lat="41.02597" lon="-8.52215">
        <ele>112.2</ele>
      </trkpt>
      <trkpt lat="41.02623" lon="-8.52211">
        <ele>114.7</ele>
      </trkpt>
      <trkpt lat="41.02639" lon="-8.52212">
        <ele>116.3</ele>
      </trkpt>
      <trkpt lat="41.02654" lon="-8.52214">
        <ele>117.6</ele>
      </trkpt>
      <trkpt lat="41.02701" lon="-8.52239">
        <ele>122.4</ele>
      </trkpt>
      <trkpt lat="41.02721" lon="-8.52252">
        <ele>124.4</ele>
      </trkpt>
      <trkpt lat="41.02732" lon="-8.5226">
        <ele>125.3</ele>
      </trkpt>
      <trkpt lat="41.02755" lon="-8.52275">
        <ele>126.9</ele>
      </trkpt>
      <trkpt lat="41.02785" lon="-8.52295">
        <ele>128.2</ele>
      </trkpt>
      <trkpt lat="41.02799" lon="-8.52308">
        <ele>128.4</ele>
      </trkpt>
      <trkpt lat="41.02813" lon="-8.5232">
        <ele>128.6</ele>
      </trkpt>
      <trkpt lat="41.02845" lon="-8.5235">
        <ele>129.1</ele>
      </trkpt>
      <trkpt lat="41.02902" lon="-8.52389">
        <ele>132.5</ele>
      </trkpt>
      <trkpt lat="41.02947" lon="-8.52406">
        <ele>132.7</ele>
      </trkpt>
      <trkpt lat="41.02999" lon="-8.52429">
        <ele>130.4</ele>
      </trkpt>
      <trkpt lat="41.03057" lon="-8.5247">
        <ele>135.2</ele>
      </trkpt>
      <trkpt lat="41.03141" lon="-8.52502">
        <ele>145.9</ele>
      </trkpt>
      <trkpt lat="41.03183" lon="-8.52524">
        <ele>149.1</ele>
      </trkpt>
      <trkpt lat="41.03228" lon="-8.52554">
        <ele>150.1</ele>
      </trkpt>
      <trkpt lat="41.03338" lon="-8.52636">
        <ele>157</ele>
      </trkpt>
      <trkpt lat="41.03378" lon="-8.52661">
        <ele>160.7</ele>
      </trkpt>
      <trkpt lat="41.03494" lon="-8.52721">
        <ele>162.6</ele>
      </trkpt>
      <trkpt lat="41.03549" lon="-8.52759">
        <ele>166</ele>
      </trkpt>
      <trkpt lat="41.03596" lon="-8.52788">
        <ele>170.3</ele>
      </trkpt>
      <trkpt lat="41.03716" lon="-8.52803">
        <ele>178.6</ele>
      </trkpt>
      <trkpt lat="41.03724" lon="-8.52804">
        <ele>179.2</ele>
      </trkpt>
      <trkpt lat="41.03809" lon="-8.52933">
        <ele>172.6</ele>
      </trkpt>
      <trkpt lat="41.03846" lon="-8.53025">
        <ele>173.9</ele>
      </trkpt>
      <trkpt lat="41.03863" lon="-8.53081">
        <ele>178.1</ele>
      </trkpt>
      <trkpt lat="41.03868" lon="-8.53168">
        <ele>174.1</ele>
      </trkpt>
      <trkpt lat="41.03862" lon="-8.53207">
        <ele>175.5</ele>
      </trkpt>
      <trkpt lat="41.03873" lon="-8.53209">
        <ele>176</ele>
      </trkpt>
      <trkpt lat="41.0391" lon="-8.53216">
        <ele>177.4</ele>
      </trkpt>
      <trkpt lat="41.03921" lon="-8.53222">
        <ele>177.9</ele>
      </trkpt>
      <trkpt lat="41.03959" lon="-8.53242">
        <ele>179.9</ele>
      </trkpt>
      <trkpt lat="41.03948" lon="-8.53286">
        <ele>180.2</ele>
      </trkpt>
      <trkpt lat="41.0394" lon="-8.5332">
        <ele>180.6</ele>
      </trkpt>
      <trkpt lat="41.03967" lon="-8.53384">
        <ele>183.8</ele>
      </trkpt>
      <trkpt lat="41.03973" lon="-8.53394">
        <ele>184.5</ele>
      </trkpt>
      <trkpt lat="41.03979" lon="-8.5343">
        <ele>185.7</ele>
      </trkpt>
      <trkpt lat="41.03982" lon="-8.53487">
        <ele>185.4</ele>
      </trkpt>
      <trkpt lat="41.03984" lon="-8.53527">
        <ele>182.2</ele>
      </trkpt>
      <trkpt lat="41.03995" lon="-8.53538">
        <ele>181.3</ele>
      </trkpt>
      <trkpt lat="41.04025" lon="-8.53572">
        <ele>177.1</ele>
      </trkpt>
      <trkpt lat="41.04045" lon="-8.53594">
        <ele>173.7</ele>
      </trkpt>
      <trkpt lat="41.04064" lon="-8.53629">
        <ele>167.7</ele>
      </trkpt>
      <trkpt lat="41.04124" lon="-8.53711">
        <ele>163.3</ele>
      </trkpt>
      <trkpt lat="41.04129" lon="-8.53729">
        <ele>161.8</ele>
      </trkpt>
      <trkpt lat="41.0413" lon="-8.53749">
        <ele>159.5</ele>
      </trkpt>
      <trkpt lat="41.04128" lon="-8.5377">
        <ele>157.2</ele>
      </trkpt>
      <trkpt lat="41.04127" lon="-8.53792">
        <ele>155</ele>
      </trkpt>
      <trkpt lat="41.04128" lon="-8.53807">
        <ele>153.5</ele>
      </trkpt>
      <trkpt lat="41.04129" lon="-8.5382">
        <ele>152.2</ele>
      </trkpt>
      <trkpt lat="41.04132" lon="-8.5385">
        <ele>150</ele>
      </trkpt>
      <trkpt lat="41.04141" lon="-8.53894">
        <ele>147.7</ele>
      </trkpt>
      <trkpt lat="41.0415" lon="-8.53933">
        <ele>147.3</ele>
      </trkpt>
      <trkpt lat="41.04151" lon="-8.53939">
        <ele>147.7</ele>
      </trkpt>
      <trkpt lat="41.04156" lon="-8.53956">
        <ele>148.7</ele>
      </trkpt>
      <trkpt lat="41.04176" lon="-8.54016">
        <ele>153.4</ele>
      </trkpt>
      <trkpt lat="41.0421" lon="-8.541">
        <ele>160.7</ele>
      </trkpt>
      <trkpt lat="41.04262" lon="-8.542">
        <ele>165.1</ele>
      </trkpt>
      <trkpt lat="41.04267" lon="-8.54209">
        <ele>165.3</ele>
      </trkpt>
      <trkpt lat="41.04267" lon="-8.54215">
        <ele>165.4</ele>
      </trkpt>
      <trkpt lat="41.04267" lon="-8.54228">
        <ele>165.5</ele>
      </trkpt>
      <trkpt lat="41.04269" lon="-8.54235">
        <ele>165.7</ele>
      </trkpt>
      <trkpt lat="41.04274" lon="-8.54254">
        <ele>166.1</ele>
      </trkpt>
      <trkpt lat="41.04276" lon="-8.54271">
        <ele>166.2</ele>
      </trkpt>
      <trkpt lat="41.04323" lon="-8.54276">
        <ele>168.7</ele>
      </trkpt>
      <trkpt lat="41.0437" lon="-8.54277">
        <ele>167.8</ele>
      </trkpt>
      <trkpt lat="41.0441" lon="-8.54273">
        <ele>166.1</ele>
      </trkpt>
      <trkpt lat="41.04462" lon="-8.5424">
        <ele>161.7</ele>
      </trkpt>
      <trkpt lat="41.0448" lon="-8.54228">
        <ele>160</ele>
      </trkpt>
      <trkpt lat="41.04517" lon="-8.5422">
        <ele>158.6</ele>
      </trkpt>
      <trkpt lat="41.04618" lon="-8.54193">
        <ele>158</ele>
      </trkpt>
      <trkpt lat="41.04698" lon="-8.5423">
        <ele>159.8</ele>
      </trkpt>
      <trkpt lat="41.04719" lon="-8.54221">
        <ele>160.4</ele>
      </trkpt>
      <trkpt lat="41.04763" lon="-8.54215">
        <ele>162</ele>
      </trkpt>
      <trkpt lat="41.04794" lon="-8.54202">
        <ele>163</ele>
      </trkpt>
      <trkpt lat="41.0481" lon="-8.54246">
        <ele>166.4</ele>
      </trkpt>
      <trkpt lat="41.04818" lon="-8.54264">
        <ele>168.1</ele>
      </trkpt>
      <trkpt lat="41.04831" lon="-8.54285">
        <ele>170.8</ele>
      </trkpt>
      <trkpt lat="41.04837" lon="-8.54289">
        <ele>171.5</ele>
      </trkpt>
      <trkpt lat="41.04855" lon="-8.5429">
        <ele>172.4</ele>
      </trkpt>
      <trkpt lat="41.04858" lon="-8.54292">
        <ele>172.7</ele>
      </trkpt>
      <trkpt lat="41.04882" lon="-8.54338">
        <ele>177.6</ele>
      </trkpt>
      <trkpt lat="41.04886" lon="-8.54343">
        <ele>178.2</ele>
      </trkpt>
      <trkpt lat="41.04896" lon="-8.54352">
        <ele>179.2</ele>
      </trkpt>
      <trkpt lat="41.0493" lon="-8.54378">
        <ele>182.1</ele>
      </trkpt>
      <trkpt lat="41.04945" lon="-8.54385">
        <ele>182.8</ele>
      </trkpt>
      <trkpt lat="41.05022" lon="-8.54413">
        <ele>184.7</ele>
      </trkpt>
      <trkpt lat="41.05037" lon="-8.54422">
        <ele>185.2</ele>
      </trkpt>
      <trkpt lat="41.05061" lon="-8.54431">
        <ele>186.2</ele>
      </trkpt>
      <trkpt lat="41.05068" lon="-8.54434">
        <ele>186.7</ele>
      </trkpt>
      <trkpt lat="41.05081" lon="-8.54444">
        <ele>188.2</ele>
      </trkpt>
      <trkpt lat="41.05124" lon="-8.54478">
        <ele>193.2</ele>
      </trkpt>
      <trkpt lat="41.05283" lon="-8.54599">
        <ele>183.2</ele>
      </trkpt>
      <trkpt lat="41.05288" lon="-8.54603">
        <ele>182.6</ele>
      </trkpt>
      <trkpt lat="41.05369" lon="-8.5467">
        <ele>178.7</ele>
      </trkpt>
      <trkpt lat="41.05377" lon="-8.54677">
        <ele>177.9</ele>
      </trkpt>
      <trkpt lat="41.05391" lon="-8.54693">
        <ele>176.4</ele>
      </trkpt>
      <trkpt lat="41.05461" lon="-8.54789">
        <ele>163.4</ele>
      </trkpt>
      <trkpt lat="41.05641" lon="-8.54918">
        <ele>141.6</ele>
      </trkpt>
      <trkpt lat="41.05778" lon="-8.55004">
        <ele>136</ele>
      </trkpt>
      <trkpt lat="41.05798" lon="-8.55031">
        <ele>135.6</ele>
      </trkpt>
      <trkpt lat="41.05813" lon="-8.55054">
        <ele>135.4</ele>
      </trkpt>
      <trkpt lat="41.05835" lon="-8.55085">
        <ele>135.1</ele>
      </trkpt>
      <trkpt lat="41.05856" lon="-8.55112">
        <ele>136.8</ele>
      </trkpt>
      <trkpt lat="41.05861" lon="-8.55117">
        <ele>137.1</ele>
      </trkpt>
      <trkpt lat="41.05864" lon="-8.5512">
        <ele>137.2</ele>
      </trkpt>
      <trkpt lat="41.05885" lon="-8.55137">
        <ele>138</ele>
      </trkpt>
      <trkpt lat="41.05957" lon="-8.55201">
        <ele>142</ele>
      </trkpt>
      <trkpt lat="41.05964" lon="-8.55209">
        <ele>142.4</ele>
      </trkpt>
      <trkpt lat="41.05974" lon="-8.55224">
        <ele>143.1</ele>
      </trkpt>
      <trkpt lat="41.05965" lon="-8.55387">
        <ele>151.9</ele>
      </trkpt>
      <trkpt lat="41.0596" lon="-8.55422">
        <ele>153.8</ele>
      </trkpt>
      <trkpt lat="41.05955" lon="-8.55443">
        <ele>153.3</ele>
      </trkpt>
      <trkpt lat="41.05951" lon="-8.55462">
        <ele>152.8</ele>
      </trkpt>
      <trkpt lat="41.05952" lon="-8.55465">
        <ele>152.7</ele>
      </trkpt>
      <trkpt lat="41.05953" lon="-8.55468">
        <ele>152.6</ele>
      </trkpt>
      <trkpt lat="41.05958" lon="-8.55479">
        <ele>152.1</ele>
      </trkpt>
      <trkpt lat="41.06161" lon="-8.55697">
        <ele>133.3</ele>
      </trkpt>
      <trkpt lat="41.06225" lon="-8.55784">
        <ele>131</ele>
      </trkpt>
      <trkpt lat="41.0625" lon="-8.55845">
        <ele>133.3</ele>
      </trkpt>
      <trkpt lat="41.06255" lon="-8.55853">
        <ele>133.4</ele>
      </trkpt>
      <trkpt lat="41.06258" lon="-8.55849">
        <ele>133.3</ele>
      </trkpt>
      <trkpt lat="41.06264" lon="-8.55844">
        <ele>133.1</ele>
      </trkpt>
      <trkpt lat="41.06271" lon="-8.55844">
        <ele>133</ele>
      </trkpt>
      <trkpt lat="41.06274" lon="-8.55845">
        <ele>133</ele>
      </trkpt>
      <trkpt lat="41.06276" lon="-8.55847">
        <ele>133</ele>
      </trkpt>
      <trkpt lat="41.06278" lon="-8.5585">
        <ele>133</ele>
      </trkpt>
      <trkpt lat="41.06281" lon="-8.55857">
        <ele>133.1</ele>
      </trkpt>
      <trkpt lat="41.06282" lon="-8.55861">
        <ele>133.2</ele>
      </trkpt>
      <trkpt lat="41.06281" lon="-8.55864">
        <ele>133.2</ele>
      </trkpt>
      <trkpt lat="41.06278" lon="-8.55875">
        <ele>133.5</ele>
      </trkpt>
      <trkpt lat="41.06273" lon="-8.55879">
        <ele>133.7</ele>
      </trkpt>
      <trkpt lat="41.06267" lon="-8.5588">
        <ele>133.8</ele>
      </trkpt>
      <trkpt lat="41.06264" lon="-8.5588">
        <ele>133.9</ele>
      </trkpt>
      <trkpt lat="41.06268" lon="-8.55898">
        <ele>134.2</ele>
      </trkpt>
      <trkpt lat="41.06411" lon="-8.56234">
        <ele>150.9</ele>
      </trkpt>
      <trkpt lat="41.06416" lon="-8.56245">
        <ele>151.8</ele>
      </trkpt>
      <trkpt lat="41.06445" lon="-8.56349">
        <ele>150.7</ele>
      </trkpt>
      <trkpt lat="41.06448" lon="-8.56368">
        <ele>150.2</ele>
      </trkpt>
      <trkpt lat="41.06449" lon="-8.56387">
        <ele>149.5</ele>
      </trkpt>
      <trkpt lat="41.06443" lon="-8.56485">
        <ele>151.5</ele>
      </trkpt>
      <trkpt lat="41.06458" lon="-8.56524">
        <ele>154.1</ele>
      </trkpt>
      <trkpt lat="41.06495" lon="-8.5662">
        <ele>159.1</ele>
      </trkpt>
      <trkpt lat="41.06535" lon="-8.56625">
        <ele>162.2</ele>
      </trkpt>
      <trkpt lat="41.0656" lon="-8.56627">
        <ele>164.2</ele>
      </trkpt>
      <trkpt lat="41.06577" lon="-8.56635">
        <ele>165.3</ele>
      </trkpt>
      <trkpt lat="41.06597" lon="-8.56654">
        <ele>165.5</ele>
      </trkpt>
      <trkpt lat="41.06615" lon="-8.56673">
        <ele>166.3</ele>
      </trkpt>
      <trkpt lat="41.06655" lon="-8.5672">
        <ele>170.3</ele>
      </trkpt>
      <trkpt lat="41.06664" lon="-8.56731">
        <ele>170.9</ele>
      </trkpt>
      <trkpt lat="41.06691" lon="-8.56753">
        <ele>169.3</ele>
      </trkpt>
      <trkpt lat="41.06713" lon="-8.56765">
        <ele>167.5</ele>
      </trkpt>
      <trkpt lat="41.06721" lon="-8.56768">
        <ele>166.8</ele>
      </trkpt>
      <trkpt lat="41.06736" lon="-8.56773">
        <ele>165.5</ele>
      </trkpt>
      <trkpt lat="41.06764" lon="-8.56766">
        <ele>162.2</ele>
      </trkpt>
      <trkpt lat="41.06811" lon="-8.56761">
        <ele>157.6</ele>
      </trkpt>
      <trkpt lat="41.06867" lon="-8.5678">
        <ele>158.2</ele>
      </trkpt>
      <trkpt lat="41.06882" lon="-8.56797">
        <ele>160.8</ele>
      </trkpt>
      <trkpt lat="41.06888" lon="-8.56803">
        <ele>161.8</ele>
      </trkpt>
      <trkpt lat="41.06963" lon="-8.56838">
        <ele>163.9</ele>
      </trkpt>
      <trkpt lat="41.06998" lon="-8.56851">
        <ele>163.1</ele>
      </trkpt>
      <trkpt lat="41.07021" lon="-8.56864">
        <ele>164.5</ele>
      </trkpt>
      <trkpt lat="41.07078" lon="-8.56913">
        <ele>167.1</ele>
      </trkpt>
      <trkpt lat="41.07102" lon="-8.56927">
        <ele>168.2</ele>
      </trkpt>
      <trkpt lat="41.07111" lon="-8.56931">
        <ele>168.6</ele>
      </trkpt>
      <trkpt lat="41.07112" lon="-8.56925">
        <ele>167.9</ele>
      </trkpt>
      <trkpt lat="41.07114" lon="-8.56921">
        <ele>167.5</ele>
      </trkpt>
      <trkpt lat="41.07121" lon="-8.56917">
        <ele>167</ele>
      </trkpt>
      <trkpt lat="41.07125" lon="-8.56917">
        <ele>167</ele>
      </trkpt>
      <trkpt lat="41.07128" lon="-8.56919">
        <ele>167.2</ele>
      </trkpt>
      <trkpt lat="41.07133" lon="-8.56926">
        <ele>167.7</ele>
      </trkpt>
      <trkpt lat="41.07134" lon="-8.5693">
        <ele>168</ele>
      </trkpt>
      <trkpt lat="41.07151" lon="-8.56921">
        <ele>167.2</ele>
      </trkpt>
      <trkpt lat="41.07161" lon="-8.56916">
        <ele>167</ele>
      </trkpt>
      <trkpt lat="41.07175" lon="-8.56913">
        <ele>166.7</ele>
      </trkpt>
      <trkpt lat="41.07213" lon="-8.56918">
        <ele>166.5</ele>
      </trkpt>
      <trkpt lat="41.07229" lon="-8.56918">
        <ele>166.3</ele>
      </trkpt>
      <trkpt lat="41.07258" lon="-8.56915">
        <ele>164.9</ele>
      </trkpt>
      <trkpt lat="41.07314" lon="-8.56891">
        <ele>157.7</ele>
      </trkpt>
      <trkpt lat="41.0734" lon="-8.5689">
        <ele>154.8</ele>
      </trkpt>
      <trkpt lat="41.07411" lon="-8.56906">
        <ele>150.1</ele>
      </trkpt>
      <trkpt lat="41.07412" lon="-8.56907">
        <ele>150.1</ele>
      </trkpt>
      <trkpt lat="41.07419" lon="-8.5691">
        <ele>149.8</ele>
      </trkpt>
      <trkpt lat="41.07429" lon="-8.56915">
        <ele>149.9</ele>
      </trkpt>
      <trkpt lat="41.07473" lon="-8.56925">
        <ele>149.8</ele>
      </trkpt>
      <trkpt lat="41.075" lon="-8.56929">
        <ele>149.6</ele>
      </trkpt>
      <trkpt lat="41.07511" lon="-8.56929">
        <ele>149.1</ele>
      </trkpt>
      <trkpt lat="41.0755" lon="-8.56909">
        <ele>147</ele>
      </trkpt>
      <trkpt lat="41.07579" lon="-8.56898">
        <ele>144.9</ele>
      </trkpt>
      <trkpt lat="41.07594" lon="-8.56894">
        <ele>144.7</ele>
      </trkpt>
      <trkpt lat="41.076" lon="-8.56894">
        <ele>144.9</ele>
      </trkpt>
      <trkpt lat="41.07605" lon="-8.56894">
        <ele>145.1</ele>
      </trkpt>
      <trkpt lat="41.07624" lon="-8.56894">
        <ele>145.7</ele>
      </trkpt>
      <trkpt lat="41.07652" lon="-8.569">
        <ele>146.6</ele>
      </trkpt>
      <trkpt lat="41.07659" lon="-8.56901">
        <ele>146.8</ele>
      </trkpt>
      <trkpt lat="41.0768" lon="-8.56909">
        <ele>147.8</ele>
      </trkpt>
      <trkpt lat="41.0769" lon="-8.56914">
        <ele>148.4</ele>
      </trkpt>
      <trkpt lat="41.077" lon="-8.56922">
        <ele>149</ele>
      </trkpt>
      <trkpt lat="41.07736" lon="-8.56944">
        <ele>151.2</ele>
      </trkpt>
      <trkpt lat="41.07748" lon="-8.56954">
        <ele>151.9</ele>
      </trkpt>
      <trkpt lat="41.07767" lon="-8.56975">
        <ele>153</ele>
      </trkpt>
      <trkpt lat="41.07777" lon="-8.56981">
        <ele>153.5</ele>
      </trkpt>
      <trkpt lat="41.07777" lon="-8.56976">
        <ele>153.5</ele>
      </trkpt>
      <trkpt lat="41.07781" lon="-8.56969">
        <ele>153.7</ele>
      </trkpt>
      <trkpt lat="41.07784" lon="-8.56968">
        <ele>153.9</ele>
      </trkpt>
      <trkpt lat="41.07787" lon="-8.56968">
        <ele>154</ele>
      </trkpt>
      <trkpt lat="41.07789" lon="-8.56962">
        <ele>154.1</ele>
      </trkpt>
      <trkpt lat="41.07821" lon="-8.56936">
        <ele>155.6</ele>
      </trkpt>
      <trkpt lat="41.07855" lon="-8.56915">
        <ele>157</ele>
      </trkpt>
      <trkpt lat="41.07862" lon="-8.5691">
        <ele>157.3</ele>
      </trkpt>
      <trkpt lat="41.07877" lon="-8.569">
        <ele>157.9</ele>
      </trkpt>
      <trkpt lat="41.07946" lon="-8.56858">
        <ele>157.7</ele>
      </trkpt>
      <trkpt lat="41.07984" lon="-8.56839">
        <ele>155.8</ele>
      </trkpt>
      <trkpt lat="41.08024" lon="-8.56823">
        <ele>155.7</ele>
      </trkpt>
      <trkpt lat="41.08089" lon="-8.56806">
        <ele>159.3</ele>
      </trkpt>
      <trkpt lat="41.08108" lon="-8.56799">
        <ele>159.8</ele>
      </trkpt>
      <trkpt lat="41.0813" lon="-8.56806">
        <ele>159.3</ele>
      </trkpt>
      <trkpt lat="41.08169" lon="-8.56811">
        <ele>159.1</ele>
      </trkpt>
      <trkpt lat="41.08204" lon="-8.56797">
        <ele>159.4</ele>
      </trkpt>
      <trkpt lat="41.08221" lon="-8.56782">
        <ele>159.5</ele>
      </trkpt>
      <trkpt lat="41.08237" lon="-8.56762">
        <ele>159.4</ele>
      </trkpt>
      <trkpt lat="41.08248" lon="-8.5675">
        <ele>159.1</ele>
      </trkpt>
      <trkpt lat="41.08297" lon="-8.56797">
        <ele>155.4</ele>
      </trkpt>
      <trkpt lat="41.08303" lon="-8.56807">
        <ele>155.2</ele>
      </trkpt>
      <trkpt lat="41.08307" lon="-8.56821">
        <ele>155.3</ele>
      </trkpt>
      <trkpt lat="41.08331" lon="-8.56837">
        <ele>154.3</ele>
      </trkpt>
      <trkpt lat="41.08357" lon="-8.56839">
        <ele>153.4</ele>
      </trkpt>
      <trkpt lat="41.08422" lon="-8.56885">
        <ele>154.6</ele>
      </trkpt>
      <trkpt lat="41.08435" lon="-8.56893">
        <ele>155.1</ele>
      </trkpt>
      <trkpt lat="41.08484" lon="-8.5693">
        <ele>159.5</ele>
      </trkpt>
      <trkpt lat="41.08536" lon="-8.56949">
        <ele>160.9</ele>
      </trkpt>
      <trkpt lat="41.08572" lon="-8.56966">
        <ele>161</ele>
      </trkpt>
      <trkpt lat="41.08596" lon="-8.56976">
        <ele>159.4</ele>
      </trkpt>
      <trkpt lat="41.08634" lon="-8.56993">
        <ele>156.1</ele>
      </trkpt>
      <trkpt lat="41.08637" lon="-8.56994">
        <ele>155.9</ele>
      </trkpt>
      <trkpt lat="41.08646" lon="-8.57">
        <ele>155.7</ele>
      </trkpt>
      <trkpt lat="41.08658" lon="-8.57006">
        <ele>154.6</ele>
      </trkpt>
      <trkpt lat="41.08665" lon="-8.57016">
        <ele>154.5</ele>
      </trkpt>
      <trkpt lat="41.0867" lon="-8.57026">
        <ele>154.5</ele>
      </trkpt>
      <trkpt lat="41.08673" lon="-8.57048">
        <ele>155.7</ele>
      </trkpt>
      <trkpt lat="41.08675" lon="-8.57079">
        <ele>157.8</ele>
      </trkpt>
      <trkpt lat="41.08672" lon="-8.57148">
        <ele>156.2</ele>
      </trkpt>
      <trkpt lat="41.08673" lon="-8.57163">
        <ele>155.5</ele>
      </trkpt>
      <trkpt lat="41.08675" lon="-8.57175">
        <ele>154.5</ele>
      </trkpt>
      <trkpt lat="41.08679" lon="-8.57188">
        <ele>153.1</ele>
      </trkpt>
      <trkpt lat="41.08687" lon="-8.57199">
        <ele>151.7</ele>
      </trkpt>
      <trkpt lat="41.08701" lon="-8.57213">
        <ele>149.8</ele>
      </trkpt>
      <trkpt lat="41.08714" lon="-8.57223">
        <ele>148.5</ele>
      </trkpt>
      <trkpt lat="41.08731" lon="-8.57229">
        <ele>147.3</ele>
      </trkpt>
      <trkpt lat="41.08748" lon="-8.5723">
        <ele>146.3</ele>
      </trkpt>
      <trkpt lat="41.08762" lon="-8.57228">
        <ele>141.5</ele>
      </trkpt>
      <trkpt lat="41.0878" lon="-8.57225">
        <ele>134.3</ele>
      </trkpt>
      <trkpt lat="41.08814" lon="-8.57225">
        <ele>120.8</ele>
      </trkpt>
      <trkpt lat="41.08831" lon="-8.57218">
        <ele>113.8</ele>
      </trkpt>
      <trkpt lat="41.08847" lon="-8.57209">
        <ele>112.9</ele>
      </trkpt>
      <trkpt lat="41.08852" lon="-8.57183">
        <ele>112</ele>
      </trkpt>
      <trkpt lat="41.08865" lon="-8.57144">
        <ele>110.5</ele>
      </trkpt>
      <trkpt lat="41.08872" lon="-8.57132">
        <ele>109.9</ele>
      </trkpt>
      <trkpt lat="41.0888" lon="-8.57131">
        <ele>109.9</ele>
      </trkpt>
      <trkpt lat="41.08907" lon="-8.57148">
        <ele>111.5</ele>
      </trkpt>
      <trkpt lat="41.08935" lon="-8.57166">
        <ele>113.2</ele>
      </trkpt>
      <trkpt lat="41.08942" lon="-8.57172">
        <ele>113.5</ele>
      </trkpt>
      <trkpt lat="41.08962" lon="-8.57175">
        <ele>114</ele>
      </trkpt>
      <trkpt lat="41.09047" lon="-8.57222">
        <ele>113.9</ele>
      </trkpt>
      <trkpt lat="41.09108" lon="-8.57253">
        <ele>108.6</ele>
      </trkpt>
      <trkpt lat="41.09159" lon="-8.57273">
        <ele>102.9</ele>
      </trkpt>
      <trkpt lat="41.09166" lon="-8.57277">
        <ele>102.4</ele>
      </trkpt>
      <trkpt lat="41.09189" lon="-8.57288">
        <ele>103.3</ele>
      </trkpt>
      <trkpt lat="41.09209" lon="-8.57313">
        <ele>104.5</ele>
      </trkpt>
      <trkpt lat="41.0929" lon="-8.57428">
        <ele>109.7</ele>
      </trkpt>
      <trkpt lat="41.09353" lon="-8.57522">
        <ele>112.8</ele>
      </trkpt>
      <trkpt lat="41.09413" lon="-8.57604">
        <ele>117.1</ele>
      </trkpt>
      <trkpt lat="41.09422" lon="-8.57616">
        <ele>118.3</ele>
      </trkpt>
      <trkpt lat="41.09425" lon="-8.57621">
        <ele>118.9</ele>
      </trkpt>
      <trkpt lat="41.09515" lon="-8.57749">
        <ele>129.2</ele>
      </trkpt>
      <trkpt lat="41.0959" lon="-8.57851">
        <ele>133</ele>
      </trkpt>
      <trkpt lat="41.09595" lon="-8.57859">
        <ele>133.5</ele>
      </trkpt>
      <trkpt lat="41.09619" lon="-8.57894">
        <ele>135.3</ele>
      </trkpt>
      <trkpt lat="41.09657" lon="-8.5795">
        <ele>135.6</ele>
      </trkpt>
      <trkpt lat="41.0971" lon="-8.58018">
        <ele>138.5</ele>
      </trkpt>
      <trkpt lat="41.09743" lon="-8.58053">
        <ele>140.8</ele>
      </trkpt>
      <trkpt lat="41.09753" lon="-8.5806">
        <ele>141.6</ele>
      </trkpt>
      <trkpt lat="41.09765" lon="-8.58097">
        <ele>142.8</ele>
      </trkpt>
      <trkpt lat="41.09803" lon="-8.5821">
        <ele>146.5</ele>
      </trkpt>
      <trkpt lat="41.09813" lon="-8.58239">
        <ele>147.2</ele>
      </trkpt>
      <trkpt lat="41.09822" lon="-8.58274">
        <ele>148.5</ele>
      </trkpt>
      <trkpt lat="41.09845" lon="-8.58356">
        <ele>153.8</ele>
      </trkpt>
      <trkpt lat="41.09852" lon="-8.58393">
        <ele>156.2</ele>
      </trkpt>
      <trkpt lat="41.09869" lon="-8.5841">
        <ele>159.4</ele>
      </trkpt>
      <trkpt lat="41.09893" lon="-8.58423">
        <ele>163.4</ele>
      </trkpt>
      <trkpt lat="41.09909" lon="-8.58421">
        <ele>165.9</ele>
      </trkpt>
      <trkpt lat="41.09923" lon="-8.58416">
        <ele>168.4</ele>
      </trkpt>
      <trkpt lat="41.09929" lon="-8.58417">
        <ele>169.8</ele>
      </trkpt>
      <trkpt lat="41.09947" lon="-8.58426">
        <ele>174.2</ele>
      </trkpt>
      <trkpt lat="41.09953" lon="-8.58429">
        <ele>175.8</ele>
      </trkpt>
      <trkpt lat="41.09958" lon="-8.58427">
        <ele>176.9</ele>
      </trkpt>
      <trkpt lat="41.09966" lon="-8.58428">
        <ele>178.8</ele>
      </trkpt>
      <trkpt lat="41.09973" lon="-8.58433">
        <ele>180.7</ele>
      </trkpt>
      <trkpt lat="41.09978" lon="-8.58441">
        <ele>182.4</ele>
      </trkpt>
      <trkpt lat="41.0998" lon="-8.58449">
        <ele>183.3</ele>
      </trkpt>
      <trkpt lat="41.0998" lon="-8.58456">
        <ele>183.7</ele>
      </trkpt>
      <trkpt lat="41.09979" lon="-8.58463">
        <ele>183.8</ele>
      </trkpt>
      <trkpt lat="41.09976" lon="-8.5847">
        <ele>183.4</ele>
      </trkpt>
      <trkpt lat="41.09977" lon="-8.58482">
        <ele>184.4</ele>
      </trkpt>
      <trkpt lat="41.0998" lon="-8.58502">
        <ele>186.4</ele>
      </trkpt>
      <trkpt lat="41.09986" lon="-8.58514">
        <ele>189</ele>
      </trkpt>
      <trkpt lat="41.10018" lon="-8.58549">
        <ele>196</ele>
      </trkpt>
      <trkpt lat="41.10122" lon="-8.5864">
        <ele>200.5</ele>
      </trkpt>
      <trkpt lat="41.10141" lon="-8.58657">
        <ele>199.4</ele>
      </trkpt>
      <trkpt lat="41.10153" lon="-8.58669">
        <ele>198.6</ele>
      </trkpt>
      <trkpt lat="41.10163" lon="-8.58678">
        <ele>197.9</ele>
      </trkpt>
      <trkpt lat="41.10224" lon="-8.58737">
        <ele>201.3</ele>
      </trkpt>
      <trkpt lat="41.10278" lon="-8.58793">
        <ele>203.1</ele>
      </trkpt>
      <trkpt lat="41.10301" lon="-8.58818">
        <ele>204.4</ele>
      </trkpt>
      <trkpt lat="41.10307" lon="-8.58822">
        <ele>204.7</ele>
      </trkpt>
      <trkpt lat="41.10311" lon="-8.58817">
        <ele>204.5</ele>
      </trkpt>
      <trkpt lat="41.1032" lon="-8.58811">
        <ele>204.2</ele>
      </trkpt>
      <trkpt lat="41.1033" lon="-8.58814">
        <ele>204.6</ele>
      </trkpt>
      <trkpt lat="41.10335" lon="-8.58819">
        <ele>205</ele>
      </trkpt>
      <trkpt lat="41.10338" lon="-8.58825">
        <ele>205.4</ele>
      </trkpt>
      <trkpt lat="41.10339" lon="-8.58833">
        <ele>206</ele>
      </trkpt>
      <trkpt lat="41.10339" lon="-8.5884">
        <ele>206.3</ele>
      </trkpt>
      <trkpt lat="41.10347" lon="-8.58865">
        <ele>207.5</ele>
      </trkpt>
      <trkpt lat="41.10365" lon="-8.58887">
        <ele>208.3</ele>
      </trkpt>
      <trkpt lat="41.10381" lon="-8.58907">
        <ele>209</ele>
      </trkpt>
      <trkpt lat="41.10388" lon="-8.58914">
        <ele>209.2</ele>
      </trkpt>
      <trkpt lat="41.10422" lon="-8.58957">
        <ele>209.4</ele>
      </trkpt>
      <trkpt lat="41.1043" lon="-8.58968">
        <ele>209.2</ele>
      </trkpt>
      <trkpt lat="41.10437" lon="-8.58974">
        <ele>209</ele>
      </trkpt>
      <trkpt lat="41.10549" lon="-8.59107">
        <ele>202.9</ele>
      </trkpt>
      <trkpt lat="41.1057" lon="-8.59132">
        <ele>201.9</ele>
      </trkpt>
      <trkpt lat="41.10614" lon="-8.59182">
        <ele>201.5</ele>
      </trkpt>
      <trkpt lat="41.1065" lon="-8.59224">
        <ele>201.4</ele>
      </trkpt>
      <trkpt lat="41.10655" lon="-8.5923">
        <ele>201.3</ele>
      </trkpt>
      <trkpt lat="41.10675" lon="-8.59254">
        <ele>201.1</ele>
      </trkpt>
      <trkpt lat="41.1069" lon="-8.59273">
        <ele>201</ele>
      </trkpt>
      <trkpt lat="41.1076" lon="-8.59361">
        <ele>200.6</ele>
      </trkpt>
      <trkpt lat="41.10791" lon="-8.59401">
        <ele>200.5</ele>
      </trkpt>
      <trkpt lat="41.10808" lon="-8.59426">
        <ele>200.1</ele>
      </trkpt>
      <trkpt lat="41.10814" lon="-8.59435">
        <ele>199.8</ele>
      </trkpt>
      <trkpt lat="41.10818" lon="-8.59441">
        <ele>199.6</ele>
      </trkpt>
      <trkpt lat="41.1083" lon="-8.5946">
        <ele>199.3</ele>
      </trkpt>
      <trkpt lat="41.1085" lon="-8.59501">
        <ele>198.3</ele>
      </trkpt>
      <trkpt lat="41.10854" lon="-8.59511">
        <ele>197.7</ele>
      </trkpt>
      <trkpt lat="41.1088" lon="-8.59578">
        <ele>194</ele>
      </trkpt>
      <trkpt lat="41.10887" lon="-8.59599">
        <ele>193</ele>
      </trkpt>
      <trkpt lat="41.10894" lon="-8.59632">
        <ele>191.4</ele>
      </trkpt>
      <trkpt lat="41.10901" lon="-8.59656">
        <ele>190.5</ele>
      </trkpt>
      <trkpt lat="41.10911" lon="-8.59682">
        <ele>190.9</ele>
      </trkpt>
      <trkpt lat="41.10919" lon="-8.59697">
        <ele>191.9</ele>
      </trkpt>
      <trkpt lat="41.10928" lon="-8.59711">
        <ele>192.7</ele>
      </trkpt>
      <trkpt lat="41.10944" lon="-8.59732">
        <ele>193.8</ele>
      </trkpt>
      <trkpt lat="41.10975" lon="-8.59764">
        <ele>194.8</ele>
      </trkpt>
      <trkpt lat="41.11009" lon="-8.59793">
        <ele>195</ele>
      </trkpt>
      <trkpt lat="41.1102" lon="-8.598">
        <ele>194.9</ele>
      </trkpt>
      <trkpt lat="41.11038" lon="-8.59811">
        <ele>194.9</ele>
      </trkpt>
      <trkpt lat="41.11081" lon="-8.59838">
        <ele>194.9</ele>
      </trkpt>
      <trkpt lat="41.11098" lon="-8.59849">
        <ele>195.3</ele>
      </trkpt>
      <trkpt lat="41.11114" lon="-8.59861">
        <ele>195.8</ele>
      </trkpt>
      <trkpt lat="41.11129" lon="-8.59874">
        <ele>196.2</ele>
      </trkpt>
      <trkpt lat="41.11147" lon="-8.59894">
        <ele>196.6</ele>
      </trkpt>
      <trkpt lat="41.11154" lon="-8.59902">
        <ele>196.7</ele>
      </trkpt>
      <trkpt lat="41.11158" lon="-8.59907">
        <ele>196.8</ele>
      </trkpt>
      <trkpt lat="41.11174" lon="-8.59928">
        <ele>196.2</ele>
      </trkpt>
      <trkpt lat="41.11181" lon="-8.59938">
        <ele>195.5</ele>
      </trkpt>
      <trkpt lat="41.11194" lon="-8.59956">
        <ele>194.2</ele>
      </trkpt>
      <trkpt lat="41.11207" lon="-8.59975">
        <ele>192.6</ele>
      </trkpt>
      <trkpt lat="41.11213" lon="-8.59984">
        <ele>191.8</ele>
      </trkpt>
      <trkpt lat="41.11222" lon="-8.59998">
        <ele>190.5</ele>
      </trkpt>
      <trkpt lat="41.11291" lon="-8.60097">
        <ele>183.5</ele>
      </trkpt>
      <trkpt lat="41.11296" lon="-8.60103">
        <ele>183.7</ele>
      </trkpt>
      <trkpt lat="41.113" lon="-8.60111">
        <ele>183.8</ele>
      </trkpt>
      <trkpt lat="41.11357" lon="-8.6019">
        <ele>185.4</ele>
      </trkpt>
      <trkpt lat="41.11361" lon="-8.60195">
        <ele>185.5</ele>
      </trkpt>
      <trkpt lat="41.11363" lon="-8.60199">
        <ele>185.6</ele>
      </trkpt>
      <trkpt lat="41.11392" lon="-8.60239">
        <ele>187.7</ele>
      </trkpt>
      <trkpt lat="41.11422" lon="-8.60291">
        <ele>189.3</ele>
      </trkpt>
      <trkpt lat="41.11425" lon="-8.60297">
        <ele>189.1</ele>
      </trkpt>
      <trkpt lat="41.11432" lon="-8.60309">
        <ele>188.6</ele>
      </trkpt>
      <trkpt lat="41.11455" lon="-8.60365">
        <ele>183.4</ele>
      </trkpt>
      <trkpt lat="41.11459" lon="-8.60375">
        <ele>182.2</ele>
      </trkpt>
      <trkpt lat="41.11461" lon="-8.60381">
        <ele>181.5</ele>
      </trkpt>
      <trkpt lat="41.11512" lon="-8.60496">
        <ele>170.3</ele>
      </trkpt>
      <trkpt lat="41.11518" lon="-8.60509">
        <ele>169.1</ele>
      </trkpt>
      <trkpt lat="41.11529" lon="-8.60535">
        <ele>166.3</ele>
      </trkpt>
      <trkpt lat="41.11532" lon="-8.60541">
        <ele>165.7</ele>
      </trkpt>
      <trkpt lat="41.11539" lon="-8.60556">
        <ele>164</ele>
      </trkpt>
      <trkpt lat="41.11549" lon="-8.6058">
        <ele>161.2</ele>
      </trkpt>
      <trkpt lat="41.11555" lon="-8.60594">
        <ele>159.4</ele>
      </trkpt>
      <trkpt lat="41.11558" lon="-8.60607">
        <ele>157.9</ele>
      </trkpt>
      <trkpt lat="41.11559" lon="-8.6063">
        <ele>155.4</ele>
      </trkpt>
      <trkpt lat="41.11559" lon="-8.60638">
        <ele>154.5</ele>
      </trkpt>
      <trkpt lat="41.11559" lon="-8.60643">
        <ele>153.9</ele>
      </trkpt>
      <trkpt lat="41.11562" lon="-8.60644">
        <ele>153.9</ele>
      </trkpt>
      <trkpt lat="41.11564" lon="-8.60649">
        <ele>153.5</ele>
      </trkpt>
      <trkpt lat="41.11566" lon="-8.60653">
        <ele>153.2</ele>
      </trkpt>
      <trkpt lat="41.11565" lon="-8.60671">
        <ele>151.4</ele>
      </trkpt>
      <trkpt lat="41.11564" lon="-8.60675">
        <ele>151.2</ele>
      </trkpt>
      <trkpt lat="41.11561" lon="-8.60677">
        <ele>150.8</ele>
      </trkpt>
      <trkpt lat="41.11563" lon="-8.60679">
        <ele>150.9</ele>
      </trkpt>
      <trkpt lat="41.1157" lon="-8.60686">
        <ele>151</ele>
      </trkpt>
      <trkpt lat="41.11596" lon="-8.60709">
        <ele>152.3</ele>
      </trkpt>
      <trkpt lat="41.11601" lon="-8.60714">
        <ele>152.6</ele>
      </trkpt>
      <trkpt lat="41.11676" lon="-8.60779">
        <ele>157.5</ele>
      </trkpt>
      <trkpt lat="41.117" lon="-8.6079">
        <ele>157</ele>
      </trkpt>
      <trkpt lat="41.11708" lon="-8.60794">
        <ele>156.9</ele>
      </trkpt>
      <trkpt lat="41.11712" lon="-8.60796">
        <ele>156.9</ele>
      </trkpt>
      <trkpt lat="41.11725" lon="-8.60803">
        <ele>156.8</ele>
      </trkpt>
      <trkpt lat="41.11746" lon="-8.60812">
        <ele>157</ele>
      </trkpt>
      <trkpt lat="41.11765" lon="-8.60822">
        <ele>157</ele>
      </trkpt>
      <trkpt lat="41.11784" lon="-8.60831">
        <ele>157</ele>
      </trkpt>
      <trkpt lat="41.11794" lon="-8.60836">
        <ele>156.9</ele>
      </trkpt>
      <trkpt lat="41.11814" lon="-8.60845">
        <ele>156.2</ele>
      </trkpt>
      <trkpt lat="41.11848" lon="-8.60859">
        <ele>155.3</ele>
      </trkpt>
      <trkpt lat="41.11926" lon="-8.60899">
        <ele>155.2</ele>
      </trkpt>
      <trkpt lat="41.11931" lon="-8.60901">
        <ele>155.2</ele>
      </trkpt>
      <trkpt lat="41.11987" lon="-8.60928">
        <ele>155.2</ele>
      </trkpt>
      <trkpt lat="41.12074" lon="-8.60994">
        <ele>148.9</ele>
      </trkpt>
      <trkpt lat="41.1208" lon="-8.60999">
        <ele>148.2</ele>
      </trkpt>
      <trkpt lat="41.12084" lon="-8.61002">
        <ele>147.9</ele>
      </trkpt>
      <trkpt lat="41.12123" lon="-8.61036">
        <ele>144.6</ele>
      </trkpt>
      <trkpt lat="41.12205" lon="-8.61097">
        <ele>139.3</ele>
      </trkpt>
      <trkpt lat="41.12223" lon="-8.61112">
        <ele>138.5</ele>
      </trkpt>
      <trkpt lat="41.12252" lon="-8.61136">
        <ele>137.9</ele>
      </trkpt>
      <trkpt lat="41.12253" lon="-8.61138">
        <ele>137.9</ele>
      </trkpt>
      <trkpt lat="41.12263" lon="-8.61146">
        <ele>137.5</ele>
      </trkpt>
      <trkpt lat="41.12273" lon="-8.61151">
        <ele>137.1</ele>
      </trkpt>
      <trkpt lat="41.12275" lon="-8.61152">
        <ele>137</ele>
      </trkpt>
      <trkpt lat="41.12276" lon="-8.61153">
        <ele>137</ele>
      </trkpt>
      <trkpt lat="41.12355" lon="-8.61193">
        <ele>131.6</ele>
      </trkpt>
      <trkpt lat="41.12364" lon="-8.61197">
        <ele>130.7</ele>
      </trkpt>
      <trkpt lat="41.12373" lon="-8.61201">
        <ele>129.9</ele>
      </trkpt>
      <trkpt lat="41.12397" lon="-8.61213">
        <ele>128.2</ele>
      </trkpt>
      <trkpt lat="41.12411" lon="-8.61215">
        <ele>127.3</ele>
      </trkpt>
      <trkpt lat="41.12341" lon="-8.61415">
        <ele>128.8</ele>
      </trkpt>
      <trkpt lat="41.12337" lon="-8.61425">
        <ele>128.1</ele>
      </trkpt>
      <trkpt lat="41.12344" lon="-8.61442">
        <ele>126.4</ele>
      </trkpt>
      <trkpt lat="41.12354" lon="-8.61465">
        <ele>124.2</ele>
      </trkpt>
      <trkpt lat="41.12389" lon="-8.61538">
        <ele>117.7</ele>
      </trkpt>
      <trkpt lat="41.12409" lon="-8.61579">
        <ele>114.3</ele>
      </trkpt>
      <trkpt lat="41.12413" lon="-8.61585">
        <ele>113.9</ele>
      </trkpt>
      <trkpt lat="41.12433" lon="-8.61623">
        <ele>112.2</ele>
      </trkpt>
      <trkpt lat="41.1245" lon="-8.61654">
        <ele>110.7</ele>
      </trkpt>
      <trkpt lat="41.1246" lon="-8.61672">
        <ele>109.8</ele>
      </trkpt>
      <trkpt lat="41.12509" lon="-8.61761">
        <ele>107.1</ele>
      </trkpt>
      <trkpt lat="41.12513" lon="-8.61769">
        <ele>106.6</ele>
      </trkpt>
      <trkpt lat="41.12533" lon="-8.6178">
        <ele>105.9</ele>
      </trkpt>
      <trkpt lat="41.12547" lon="-8.61789">
        <ele>105.4</ele>
      </trkpt>
      <trkpt lat="41.1256" lon="-8.61796">
        <ele>105.2</ele>
      </trkpt>
      <trkpt lat="41.12597" lon="-8.61815">
        <ele>104.6</ele>
      </trkpt>
      <trkpt lat="41.12779" lon="-8.61918">
        <ele>97.3</ele>
      </trkpt>
      <trkpt lat="41.12802" lon="-8.61931">
        <ele>96.5</ele>
      </trkpt>
      <trkpt lat="41.1293" lon="-8.61996">
        <ele>83.8</ele>
      </trkpt>
      <trkpt lat="41.12912" lon="-8.62054">
        <ele>85.4</ele>
      </trkpt>
      <trkpt lat="41.12885" lon="-8.62112">
        <ele>85.5</ele>
      </trkpt>
      <trkpt lat="41.12839" lon="-8.62197">
        <ele>86.4</ele>
      </trkpt>
      <trkpt lat="41.12799" lon="-8.62274">
        <ele>87.5</ele>
      </trkpt>
      <trkpt lat="41.12757" lon="-8.62353">
        <ele>88.8</ele>
      </trkpt>
      <trkpt lat="41.12732" lon="-8.624">
        <ele>79</ele>
      </trkpt>
      <trkpt lat="41.12697" lon="-8.6247">
        <ele>77.7</ele>
      </trkpt>
      <trkpt lat="41.1269" lon="-8.62482">
        <ele>78.1</ele>
      </trkpt>
      <trkpt lat="41.12716" lon="-8.62508">
        <ele>78.4</ele>
      </trkpt>
      <trkpt lat="41.12729" lon="-8.6252">
        <ele>78.2</ele>
      </trkpt>
      <trkpt lat="41.12739" lon="-8.62529">
        <ele>77.9</ele>
      </trkpt>
      <trkpt lat="41.12739" lon="-8.62546">
        <ele>77.8</ele>
      </trkpt>
      <trkpt lat="41.12741" lon="-8.6256">
        <ele>77.6</ele>
      </trkpt>
      <trkpt lat="41.12747" lon="-8.62577">
        <ele>77.2</ele>
      </trkpt>
      <trkpt lat="41.12755" lon="-8.62593">
        <ele>77</ele>
      </trkpt>
      <trkpt lat="41.12791" lon="-8.62628">
        <ele>77.3</ele>
      </trkpt>
      <trkpt lat="41.12821" lon="-8.62655">
        <ele>78.4</ele>
      </trkpt>
      <trkpt lat="41.12845" lon="-8.62676">
        <ele>79.5</ele>
      </trkpt>
      <trkpt lat="41.12865" lon="-8.62674">
        <ele>79.6</ele>
      </trkpt>
      <trkpt lat="41.12883" lon="-8.62676">
        <ele>79.9</ele>
      </trkpt>
      <trkpt lat="41.12891" lon="-8.62684">
        <ele>80.2</ele>
      </trkpt>
      <trkpt lat="41.12895" lon="-8.62696">
        <ele>80.5</ele>
      </trkpt>
      <trkpt lat="41.12898" lon="-8.62704">
        <ele>80.8</ele>
      </trkpt>
      <trkpt lat="41.12918" lon="-8.627">
        <ele>80.8</ele>
      </trkpt>
      <trkpt lat="41.12944" lon="-8.62693">
        <ele>80.3</ele>
      </trkpt>
      <trkpt lat="41.12958" lon="-8.62686">
        <ele>79.8</ele>
      </trkpt>
      <trkpt lat="41.1297" lon="-8.62675">
        <ele>79.1</ele>
      </trkpt>
      <trkpt lat="41.12975" lon="-8.62669">
        <ele>78.7</ele>
      </trkpt>
      <trkpt lat="41.12983" lon="-8.62651">
        <ele>77.5</ele>
      </trkpt>
      <trkpt lat="41.12988" lon="-8.62626">
        <ele>75.8</ele>
      </trkpt>
      <trkpt lat="41.12985" lon="-8.62608">
        <ele>74.8</ele>
      </trkpt>
      <trkpt lat="41.12986" lon="-8.62592">
        <ele>73.9</ele>
      </trkpt>
      <trkpt lat="41.12989" lon="-8.62576">
        <ele>73</ele>
      </trkpt>
      <trkpt lat="41.12996" lon="-8.62562">
        <ele>72.3</ele>
      </trkpt>
      <trkpt lat="41.13009" lon="-8.62547">
        <ele>72.2</ele>
      </trkpt>
      <trkpt lat="41.13021" lon="-8.6254">
        <ele>72.6</ele>
      </trkpt>
      <trkpt lat="41.13034" lon="-8.62538">
        <ele>73.2</ele>
      </trkpt>
      <trkpt lat="41.13046" lon="-8.62539">
        <ele>73.9</ele>
      </trkpt>
      <trkpt lat="41.13058" lon="-8.62545">
        <ele>74.8</ele>
      </trkpt>
      <trkpt lat="41.13069" lon="-8.62555">
        <ele>75.8</ele>
      </trkpt>
      <trkpt lat="41.13077" lon="-8.62569">
        <ele>76.9</ele>
      </trkpt>
      <trkpt lat="41.13082" lon="-8.62584">
        <ele>77.9</ele>
      </trkpt>
      <trkpt lat="41.13084" lon="-8.62601">
        <ele>78.6</ele>
      </trkpt>
      <trkpt lat="41.13089" lon="-8.62616">
        <ele>79.2</ele>
      </trkpt>
      <trkpt lat="41.13093" lon="-8.62622">
        <ele>79.4</ele>
      </trkpt>
      <trkpt lat="41.13107" lon="-8.62629">
        <ele>79.8</ele>
      </trkpt>
      <trkpt lat="41.13326" lon="-8.6272">
        <ele>86.3</ele>
      </trkpt>
      <trkpt lat="41.13335" lon="-8.62723">
        <ele>86.3</ele>
      </trkpt>
      <trkpt lat="41.13343" lon="-8.62727">
        <ele>86.3</ele>
      </trkpt>
      <trkpt lat="41.13433" lon="-8.62764">
        <ele>85.1</ele>
      </trkpt>
      <trkpt lat="41.13441" lon="-8.62767">
        <ele>84.4</ele>
      </trkpt>
      <trkpt lat="41.13447" lon="-8.6277">
        <ele>83.9</ele>
      </trkpt>
      <trkpt lat="41.13543" lon="-8.62809">
        <ele>75.8</ele>
      </trkpt>
      <trkpt lat="41.13619" lon="-8.6284">
        <ele>71.6</ele>
      </trkpt>
      <trkpt lat="41.13621" lon="-8.62836">
        <ele>71.3</ele>
      </trkpt>
      <trkpt lat="41.13624" lon="-8.62833">
        <ele>71.1</ele>
      </trkpt>
      <trkpt lat="41.13627" lon="-8.62832">
        <ele>70.9</ele>
      </trkpt>
      <trkpt lat="41.13631" lon="-8.62832">
        <ele>70.7</ele>
      </trkpt>
      <trkpt lat="41.13634" lon="-8.62833">
        <ele>70.6</ele>
      </trkpt>
      <trkpt lat="41.13637" lon="-8.62836">
        <ele>70.5</ele>
      </trkpt>
      <trkpt lat="41.1364" lon="-8.62844">
        <ele>70.7</ele>
      </trkpt>
      <trkpt lat="41.13641" lon="-8.62849">
        <ele>70.9</ele>
      </trkpt>
      <trkpt lat="41.1364" lon="-8.62853">
        <ele>71.1</ele>
      </trkpt>
      <trkpt lat="41.13638" lon="-8.62856">
        <ele>71.3</ele>
      </trkpt>
      <trkpt lat="41.13636" lon="-8.6286">
        <ele>71.5</ele>
      </trkpt>
      <trkpt lat="41.13629" lon="-8.62863">
        <ele>72</ele>
      </trkpt>
      <trkpt lat="41.13626" lon="-8.62862">
        <ele>72.2</ele>
      </trkpt>
      <trkpt lat="41.13622" lon="-8.6286">
        <ele>72.3</ele>
      </trkpt>
      <trkpt lat="41.1362" lon="-8.62857">
        <ele>72.3</ele>
      </trkpt>
      <trkpt lat="41.1368" lon="-8.63003">
        <ele>70</ele>
      </trkpt>
      <trkpt lat="41.13683" lon="-8.63001">
        <ele>69.7</ele>
      </trkpt>
      <trkpt lat="41.13686" lon="-8.63001">
        <ele>69.4</ele>
      </trkpt>
      <trkpt lat="41.1369" lon="-8.63002">
        <ele>69.1</ele>
      </trkpt>
      <trkpt lat="41.13725" lon="-8.62991">
        <ele>66.1</ele>
      </trkpt>
      <trkpt lat="41.13752" lon="-8.62984">
        <ele>63.7</ele>
      </trkpt>
      <trkpt lat="41.13794" lon="-8.62976">
        <ele>61.2</ele>
      </trkpt>
      <trkpt lat="41.1384" lon="-8.62971">
        <ele>58.7</ele>
      </trkpt>
      <trkpt lat="41.139" lon="-8.6298">
        <ele>55.6</ele>
      </trkpt>
      <trkpt lat="41.13959" lon="-8.62992">
        <ele>51.8</ele>
      </trkpt>
      <trkpt lat="41.14009" lon="-8.62992">
        <ele>48.9</ele>
      </trkpt>
      <trkpt lat="41.14047" lon="-8.62981">
        <ele>46.4</ele>
      </trkpt>
      <trkpt lat="41.14099" lon="-8.62954">
        <ele>43</ele>
      </trkpt>
      <trkpt lat="41.1412" lon="-8.62951">
        <ele>42.9</ele>
      </trkpt>
      <trkpt lat="41.14137" lon="-8.62953">
        <ele>43.1</ele>
      </trkpt>
      <trkpt lat="41.14154" lon="-8.6296">
        <ele>44.1</ele>
      </trkpt>
      <trkpt lat="41.14177" lon="-8.62978">
        <ele>47.3</ele>
      </trkpt>
      <trkpt lat="41.1419" lon="-8.62997">
        <ele>50.9</ele>
      </trkpt>
      <trkpt lat="41.14201" lon="-8.63021">
        <ele>55.7</ele>
      </trkpt>
      <trkpt lat="41.14218" lon="-8.63059">
        <ele>61.7</ele>
      </trkpt>
      <trkpt lat="41.14225" lon="-8.63093">
        <ele>64.1</ele>
      </trkpt>
      <trkpt lat="41.14225" lon="-8.63122">
        <ele>62</ele>
      </trkpt>
      <trkpt lat="41.14221" lon="-8.63144">
        <ele>61.4</ele>
      </trkpt>
      <trkpt lat="41.14208" lon="-8.63193">
        <ele>62.2</ele>
      </trkpt>
      <trkpt lat="41.14207" lon="-8.63211">
        <ele>61.2</ele>
      </trkpt>
      <trkpt lat="41.1421" lon="-8.6323">
        <ele>58.9</ele>
      </trkpt>
      <trkpt lat="41.14224" lon="-8.63271">
        <ele>54</ele>
      </trkpt>
      <trkpt lat="41.14236" lon="-8.63297">
        <ele>52.3</ele>
      </trkpt>
      <trkpt lat="41.14261" lon="-8.63343">
        <ele>51</ele>
      </trkpt>
      <trkpt lat="41.14276" lon="-8.63366">
        <ele>51.1</ele>
      </trkpt>
      <trkpt lat="41.14296" lon="-8.63375">
        <ele>47.7</ele>
      </trkpt>
      <trkpt lat="41.14393" lon="-8.63405">
        <ele>29.7</ele>
      </trkpt>
      <trkpt lat="41.14401" lon="-8.63423">
        <ele>32.7</ele>
      </trkpt>
      <trkpt lat="41.1442" lon="-8.63468">
        <ele>44.7</ele>
      </trkpt>
      <trkpt lat="41.14438" lon="-8.63502">
        <ele>47.5</ele>
      </trkpt>
      <trkpt lat="41.14451" lon="-8.63521">
        <ele>43.6</ele>
      </trkpt>
      <trkpt lat="41.14458" lon="-8.63532">
        <ele>41.8</ele>
      </trkpt>
      <trkpt lat="41.14492" lon="-8.63578">
        <ele>33.5</ele>
      </trkpt>
      <trkpt lat="41.14554" lon="-8.63667">
        <ele>28.2</ele>
      </trkpt>
      <trkpt lat="41.14576" lon="-8.63727">
        <ele>33.8</ele>
      </trkpt>
      <trkpt lat="41.14603" lon="-8.63751">
        <ele>32.2</ele>
      </trkpt>
      <trkpt lat="41.14616" lon="-8.63771">
        <ele>34.3</ele>
      </trkpt>
      <trkpt lat="41.1463" lon="-8.63814">
        <ele>40.7</ele>
      </trkpt>
      <trkpt lat="41.14636" lon="-8.63858">
        <ele>46.8</ele>
      </trkpt>
      <trkpt lat="41.14639" lon="-8.639">
        <ele>52.2</ele>
      </trkpt>
      <trkpt lat="41.1464" lon="-8.63945">
        <ele>55.1</ele>
      </trkpt>
      <trkpt lat="41.14639" lon="-8.63968">
        <ele>55.9</ele>
      </trkpt>
      <trkpt lat="41.14633" lon="-8.64015">
        <ele>56.7</ele>
      </trkpt>
      <trkpt lat="41.14628" lon="-8.6404">
        <ele>55.9</ele>
      </trkpt>
      <trkpt lat="41.14601" lon="-8.64142">
        <ele>60.2</ele>
      </trkpt>
      <trkpt lat="41.14585" lon="-8.642">
        <ele>61.4</ele>
      </trkpt>
      <trkpt lat="41.14583" lon="-8.64221">
        <ele>59.2</ele>
      </trkpt>
      <trkpt lat="41.14581" lon="-8.64235">
        <ele>57.4</ele>
      </trkpt>
      <trkpt lat="41.14554" lon="-8.64332">
        <ele>40.6</ele>
      </trkpt>
      <trkpt lat="41.1453" lon="-8.64401">
        <ele>32.5</ele>
      </trkpt>
      <trkpt lat="41.14528" lon="-8.64407">
        <ele>31.8</ele>
      </trkpt>
      <trkpt lat="41.14514" lon="-8.64447">
        <ele>25.6</ele>
      </trkpt>
      <trkpt lat="41.14498" lon="-8.64493">
        <ele>15.6</ele>
      </trkpt>
      <trkpt lat="41.14497" lon="-8.64496">
        <ele>15</ele>
      </trkpt>
      <trkpt lat="41.14494" lon="-8.64508">
        <ele>13.9</ele>
      </trkpt>
      <trkpt lat="41.14484" lon="-8.64537">
        <ele>13.1</ele>
      </trkpt>
      <trkpt lat="41.14475" lon="-8.64563">
        <ele>11.1</ele>
      </trkpt>
      <trkpt lat="41.14458" lon="-8.64615">
        <ele>7.2</ele>
      </trkpt>
      <trkpt lat="41.14462" lon="-8.64618">
        <ele>6.8</ele>
      </trkpt>
      <trkpt lat="41.14474" lon="-8.64625">
        <ele>5.6</ele>
      </trkpt>
      <trkpt lat="41.14475" lon="-8.64629">
        <ele>5.3</ele>
      </trkpt>
      <trkpt lat="41.14799" lon="-8.64819">
        <ele>0.2</ele>
      </trkpt>
      <trkpt lat="41.14808" lon="-8.64823">
        <ele>0.1</ele>
      </trkpt>
      <trkpt lat="41.14815" lon="-8.64826">
        <ele>0.1</ele>
      </trkpt>
      <trkpt lat="41.14805" lon="-8.64861">
        <ele>8</ele>
      </trkpt>
      <trkpt lat="41.14803" lon="-8.64874">
        <ele>8</ele>
      </trkpt>
      <trkpt lat="41.14804" lon="-8.64879">
        <ele>8</ele>
      </trkpt>
      <trkpt lat="41.14794" lon="-8.64903">
        <ele>8</ele>
      </trkpt>
      <trkpt lat="41.14781" lon="-8.64957">
        <ele>7</ele>
      </trkpt>
      <trkpt lat="41.1478" lon="-8.64979">
        <ele>5.9</ele>
      </trkpt>
      <trkpt lat="41.14812" lon="-8.65198">
        <ele>-1.7</ele>
      </trkpt>
      <trkpt lat="41.14813" lon="-8.65201">
        <ele>-1.6</ele>
      </trkpt>
      <trkpt lat="41.14821" lon="-8.65276">
        <ele>-1.9</ele>
      </trkpt>
      <trkpt lat="41.14823" lon="-8.65297">
        <ele>-2.9</ele>
      </trkpt>
      <trkpt lat="41.14816" lon="-8.65336">
        <ele>-3.9</ele>
      </trkpt>
      <trkpt lat="41.1481" lon="-8.65364">
        <ele>-2.8</ele>
      </trkpt>
      <trkpt lat="41.14809" lon="-8.65366">
        <ele>-2.7</ele>
      </trkpt>
      <trkpt lat="41.14796" lon="-8.65408">
        <ele>-1.3</ele>
      </trkpt>
      <trkpt lat="41.14834" lon="-8.65423">
        <ele>-1.4</ele>
      </trkpt>
      <trkpt lat="41.14837" lon="-8.65425">
        <ele>-0.9</ele>
      </trkpt>
      <trkpt lat="41.14842" lon="-8.65427">
        <ele>-0.2</ele>
      </trkpt>
      <trkpt lat="41.1485" lon="-8.65431">
        <ele>0.9</ele>
      </trkpt>
      <trkpt lat="41.14853" lon="-8.65432">
        <ele>1.3</ele>
      </trkpt>
      <trkpt lat="41.14859" lon="-8.65434">
        <ele>2</ele>
      </trkpt>
      <trkpt lat="41.14874" lon="-8.65407">
        <ele>2</ele>
      </trkpt>
      <trkpt lat="41.14881" lon="-8.65406">
        <ele>2.8</ele>
      </trkpt>
      <trkpt lat="41.14886" lon="-8.65408">
        <ele>3.4</ele>
      </trkpt>
      <trkpt lat="41.14888" lon="-8.65416">
        <ele>3.9</ele>
      </trkpt>
      <trkpt lat="41.14886" lon="-8.65421">
        <ele>4</ele>
      </trkpt>
      <trkpt lat="41.1489" lon="-8.65424">
        <ele>4.6</ele>
      </trkpt>
      <trkpt lat="41.14888" lon="-8.65427">
        <ele>4.5</ele>
      </trkpt>
      <trkpt lat="41.14873" lon="-8.65466">
        <ele>5.6</ele>
      </trkpt>
      <trkpt lat="41.14868" lon="-8.65514">
        <ele>7.6</ele>
      </trkpt>
      <trkpt lat="41.14865" lon="-8.65524">
        <ele>7.5</ele>
      </trkpt>
      <trkpt lat="41.14869" lon="-8.65566">
        <ele>8</ele>
      </trkpt>
      <trkpt lat="41.14874" lon="-8.6557">
        <ele>8.4</ele>
      </trkpt>
      <trkpt lat="41.14879" lon="-8.65576">
        <ele>8.7</ele>
      </trkpt>
      <trkpt lat="41.1489" lon="-8.65579">
        <ele>9.4</ele>
      </trkpt>
      <trkpt lat="41.14904" lon="-8.65575">
        <ele>10.2</ele>
      </trkpt>
      <trkpt lat="41.14912" lon="-8.65575">
        <ele>10.7</ele>
      </trkpt>
      <trkpt lat="41.14917" lon="-8.65578">
        <ele>11</ele>
      </trkpt>
      <trkpt lat="41.14923" lon="-8.65586">
        <ele>11.8</ele>
      </trkpt>
      <trkpt lat="41.14925" lon="-8.65603">
        <ele>13.7</ele>
      </trkpt>
      <trkpt lat="41.14925" lon="-8.65612">
        <ele>14.6</ele>
      </trkpt>
      <trkpt lat="41.14928" lon="-8.65614">
        <ele>15</ele>
      </trkpt>
      <trkpt lat="41.14941" lon="-8.65634">
        <ele>17.6</ele>
      </trkpt>
      <trkpt lat="41.14949" lon="-8.65649">
        <ele>19.3</ele>
      </trkpt>
      <trkpt lat="41.1496" lon="-8.65669">
        <ele>21.1</ele>
      </trkpt>
      <trkpt lat="41.14972" lon="-8.65685">
        <ele>22.1</ele>
      </trkpt>
      <trkpt lat="41.1498" lon="-8.65692">
        <ele>22.4</ele>
      </trkpt>
      <trkpt lat="41.14988" lon="-8.65697">
        <ele>22.6</ele>
      </trkpt>
      <trkpt lat="41.15001" lon="-8.65701">
        <ele>22.8</ele>
      </trkpt>
      <trkpt lat="41.15003" lon="-8.65702">
        <ele>22.9</ele>
      </trkpt>
      <trkpt lat="41.15042" lon="-8.65714">
        <ele>24.3</ele>
      </trkpt>
      <trkpt lat="41.1506" lon="-8.65723">
        <ele>25.6</ele>
      </trkpt>
      <trkpt lat="41.15065" lon="-8.65727">
        <ele>26.1</ele>
      </trkpt>
      <trkpt lat="41.15069" lon="-8.65732">
        <ele>26.6</ele>
      </trkpt>
      <trkpt lat="41.15072" lon="-8.65738">
        <ele>27.3</ele>
      </trkpt>
      <trkpt lat="41.15077" lon="-8.65753">
        <ele>28.9</ele>
      </trkpt>
      <trkpt lat="41.15083" lon="-8.6578">
        <ele>31.5</ele>
      </trkpt>
      <trkpt lat="41.15087" lon="-8.65793">
        <ele>32.7</ele>
      </trkpt>
      <trkpt lat="41.15091" lon="-8.65801">
        <ele>33.4</ele>
      </trkpt>
      <trkpt lat="41.15087" lon="-8.65819">
        <ele>34.8</ele>
      </trkpt>
      <trkpt lat="41.15092" lon="-8.65829">
        <ele>35.7</ele>
      </trkpt>
      <trkpt lat="41.15107" lon="-8.65853">
        <ele>37.2</ele>
      </trkpt>
      <trkpt lat="41.15116" lon="-8.65865">
        <ele>37.8</ele>
      </trkpt>
      <trkpt lat="41.15127" lon="-8.65875">
        <ele>38.3</ele>
      </trkpt>
      <trkpt lat="41.15138" lon="-8.65883">
        <ele>38.6</ele>
      </trkpt>
      <trkpt lat="41.15173" lon="-8.65902">
        <ele>40.1</ele>
      </trkpt>
      <trkpt lat="41.15196" lon="-8.65909">
        <ele>42.6</ele>
      </trkpt>
      <trkpt lat="41.15245" lon="-8.65917">
        <ele>47.5</ele>
      </trkpt>
      <trkpt lat="41.15268" lon="-8.65915">
        <ele>48</ele>
      </trkpt>
      <trkpt lat="41.1529" lon="-8.65911">
        <ele>48</ele>
      </trkpt>
      <trkpt lat="41.15302" lon="-8.65907">
        <ele>48.1</ele>
      </trkpt>
      <trkpt lat="41.15309" lon="-8.65905">
        <ele>48.2</ele>
      </trkpt>
      <trkpt lat="41.1532" lon="-8.65906">
        <ele>48.2</ele>
      </trkpt>
      <trkpt lat="41.15325" lon="-8.6591">
        <ele>48.1</ele>
      </trkpt>
      <trkpt lat="41.1533" lon="-8.65917">
        <ele>48</ele>
      </trkpt>
      <trkpt lat="41.15332" lon="-8.65925">
        <ele>48.9</ele>
      </trkpt>
      <trkpt lat="41.15323" lon="-8.65944">
        <ele>50.9</ele>
      </trkpt>
      <trkpt lat="41.15305" lon="-8.66001">
        <ele>56.4</ele>
      </trkpt>
      <trkpt lat="41.15301" lon="-8.66024">
        <ele>57.4</ele>
      </trkpt>
      <trkpt lat="41.15288" lon="-8.66131">
        <ele>59.3</ele>
      </trkpt>
      <trkpt lat="41.15296" lon="-8.66154">
        <ele>59.3</ele>
      </trkpt>
      <trkpt lat="41.15306" lon="-8.66161">
        <ele>59.4</ele>
      </trkpt>
      <trkpt lat="41.15314" lon="-8.66167">
        <ele>59.5</ele>
      </trkpt>
      <trkpt lat="41.15346" lon="-8.66188">
        <ele>59.1</ele>
      </trkpt>
      <trkpt lat="41.15357" lon="-8.66196">
        <ele>58.7</ele>
      </trkpt>
      <trkpt lat="41.15443" lon="-8.66256">
        <ele>57.9</ele>
      </trkpt>
      <trkpt lat="41.1544" lon="-8.66256">
        <ele>57.9</ele>
      </trkpt>
      <trkpt lat="41.15462" lon="-8.66272">
        <ele>58.1</ele>
      </trkpt>
      <trkpt lat="41.15465" lon="-8.66274">
        <ele>58.1</ele>
      </trkpt>
      <trkpt lat="41.15472" lon="-8.66279">
        <ele>58.3</ele>
      </trkpt>
      <trkpt lat="41.15501" lon="-8.66299">
        <ele>59.8</ele>
      </trkpt>
      <trkpt lat="41.15507" lon="-8.66303">
        <ele>60</ele>
      </trkpt>
      <trkpt lat="41.15515" lon="-8.6631">
        <ele>60.4</ele>
      </trkpt>
      <trkpt lat="41.15584" lon="-8.66358">
        <ele>62.9</ele>
      </trkpt>
      <trkpt lat="41.1565" lon="-8.66401">
        <ele>64.3</ele>
      </trkpt>
      <trkpt lat="41.15659" lon="-8.66409">
        <ele>64.6</ele>
      </trkpt>
      <trkpt lat="41.15667" lon="-8.66415">
        <ele>64.9</ele>
      </trkpt>
      <trkpt lat="41.15692" lon="-8.66434">
        <ele>63.3</ele>
      </trkpt>
      <trkpt lat="41.15712" lon="-8.66448">
        <ele>61.9</ele>
      </trkpt>
      <trkpt lat="41.15721" lon="-8.66454">
        <ele>61.2</ele>
      </trkpt>
      <trkpt lat="41.15746" lon="-8.66467">
        <ele>59.3</ele>
      </trkpt>
      <trkpt lat="41.15778" lon="-8.6649">
        <ele>59.3</ele>
      </trkpt>
      <trkpt lat="41.15781" lon="-8.66487">
        <ele>59.4</ele>
      </trkpt>
      <trkpt lat="41.15784" lon="-8.66483">
        <ele>59.4</ele>
      </trkpt>
      <trkpt lat="41.15813" lon="-8.66471">
        <ele>59.8</ele>
      </trkpt>
      <trkpt lat="41.1582" lon="-8.66473">
        <ele>59.8</ele>
      </trkpt>
      <trkpt lat="41.15822" lon="-8.66474">
        <ele>59.9</ele>
      </trkpt>
      <trkpt lat="41.15835" lon="-8.66483">
        <ele>60</ele>
      </trkpt>
      <trkpt lat="41.1584" lon="-8.66486">
        <ele>60.2</ele>
      </trkpt>
      <trkpt lat="41.15839" lon="-8.66495">
        <ele>60.2</ele>
      </trkpt>
      <trkpt lat="41.15838" lon="-8.665">
        <ele>60.2</ele>
      </trkpt>
      <trkpt lat="41.15845" lon="-8.66523">
        <ele>60.5</ele>
      </trkpt>
      <trkpt lat="41.1585" lon="-8.66531">
        <ele>60.7</ele>
      </trkpt>
      <trkpt lat="41.15897" lon="-8.66563">
        <ele>60.7</ele>
      </trkpt>
      <trkpt lat="41.15907" lon="-8.6657">
        <ele>60.5</ele>
      </trkpt>
      <trkpt lat="41.15952" lon="-8.66602">
        <ele>60.7</ele>
      </trkpt>
      <trkpt lat="41.15956" lon="-8.66611">
        <ele>60.6</ele>
      </trkpt>
      <trkpt lat="41.15976" lon="-8.66624">
        <ele>61</ele>
      </trkpt>
      <trkpt lat="41.16122" lon="-8.66724">
        <ele>58.5</ele>
      </trkpt>
      <trkpt lat="41.16127" lon="-8.66727">
        <ele>58.4</ele>
      </trkpt>
      <trkpt lat="41.16131" lon="-8.66721">
        <ele>58.1</ele>
      </trkpt>
      <trkpt lat="41.16133" lon="-8.66718">
        <ele>57.9</ele>
      </trkpt>
      <trkpt lat="41.16141" lon="-8.66715">
        <ele>57.6</ele>
      </trkpt>
      <trkpt lat="41.16145" lon="-8.66716">
        <ele>57.4</ele>
      </trkpt>
      <trkpt lat="41.16147" lon="-8.66718">
        <ele>57.4</ele>
      </trkpt>
      <trkpt lat="41.16148" lon="-8.66721">
        <ele>57.4</ele>
      </trkpt>
      <trkpt lat="41.16149" lon="-8.66725">
        <ele>57.4</ele>
      </trkpt>
      <trkpt lat="41.16154" lon="-8.66728">
        <ele>57.3</ele>
      </trkpt>
      <trkpt lat="41.16173" lon="-8.66742">
        <ele>56.6</ele>
      </trkpt>
      <trkpt lat="41.16175" lon="-8.66743">
        <ele>56.5</ele>
      </trkpt>
      <trkpt lat="41.16183" lon="-8.66748">
        <ele>56.2</ele>
      </trkpt>
      <trkpt lat="41.16197" lon="-8.66758">
        <ele>55.5</ele>
      </trkpt>
      <trkpt lat="41.16204" lon="-8.66762">
        <ele>55.1</ele>
      </trkpt>
      <trkpt lat="41.16218" lon="-8.66772">
        <ele>54.4</ele>
      </trkpt>
      <trkpt lat="41.16243" lon="-8.66788">
        <ele>52.9</ele>
      </trkpt>
      <trkpt lat="41.16246" lon="-8.6679">
        <ele>52.7</ele>
      </trkpt>
      <trkpt lat="41.16294" lon="-8.66822">
        <ele>49.2</ele>
      </trkpt>
      <trkpt lat="41.163" lon="-8.66827">
        <ele>48.6</ele>
      </trkpt>
      <trkpt lat="41.16323" lon="-8.66843">
        <ele>46.6</ele>
      </trkpt>
      <trkpt lat="41.16327" lon="-8.66846">
        <ele>46.3</ele>
      </trkpt>
      <trkpt lat="41.16337" lon="-8.66861">
        <ele>45.4</ele>
      </trkpt>
      <trkpt lat="41.16338" lon="-8.66867">
        <ele>45.2</ele>
      </trkpt>
      <trkpt lat="41.1634" lon="-8.66875">
        <ele>45</ele>
      </trkpt>
      <trkpt lat="41.16343" lon="-8.66874">
        <ele>44.8</ele>
      </trkpt>
      <trkpt lat="41.16346" lon="-8.66873">
        <ele>44.5</ele>
      </trkpt>
      <trkpt lat="41.16371" lon="-8.66866">
        <ele>42.6</ele>
      </trkpt>
      <trkpt lat="41.16375" lon="-8.66867">
        <ele>42.3</ele>
      </trkpt>
      <trkpt lat="41.16378" lon="-8.66868">
        <ele>42.1</ele>
      </trkpt>
      <trkpt lat="41.16403" lon="-8.66861">
        <ele>40.1</ele>
      </trkpt>
      <trkpt lat="41.16416" lon="-8.66861">
        <ele>39.1</ele>
      </trkpt>
      <trkpt lat="41.16428" lon="-8.66857">
        <ele>38.5</ele>
      </trkpt>
      <trkpt lat="41.16432" lon="-8.66856">
        <ele>38.3</ele>
      </trkpt>
      <trkpt lat="41.16433" lon="-8.66856">
        <ele>38.3</ele>
      </trkpt>
      <trkpt lat="41.16439" lon="-8.66887">
        <ele>37.9</ele>
      </trkpt>
      <trkpt lat="41.16447" lon="-8.66898">
        <ele>37.3</ele>
      </trkpt>
      <trkpt lat="41.16451" lon="-8.66896">
        <ele>37.1</ele>
      </trkpt>
      <trkpt lat="41.16458" lon="-8.66894">
        <ele>36.8</ele>
      </trkpt>
      <trkpt lat="41.16459" lon="-8.66898">
        <ele>36.7</ele>
      </trkpt>
      <trkpt lat="41.16462" lon="-8.66913">
        <ele>36.3</ele>
      </trkpt>
      <trkpt lat="41.16489" lon="-8.67072">
        <ele>32.8</ele>
      </trkpt>
      <trkpt lat="41.16495" lon="-8.6707">
        <ele>32</ele>
      </trkpt>
      <trkpt lat="41.16496" lon="-8.6707">
        <ele>31.9</ele>
      </trkpt>
      <trkpt lat="41.165" lon="-8.67072">
        <ele>31.3</ele>
      </trkpt>
      <trkpt lat="41.16503" lon="-8.67077">
        <ele>31</ele>
      </trkpt>
      <trkpt lat="41.16506" lon="-8.67091">
        <ele>31</ele>
      </trkpt>
      <trkpt lat="41.16507" lon="-8.67096">
        <ele>31.2</ele>
      </trkpt>
      <trkpt lat="41.16509" lon="-8.6711">
        <ele>31.8</ele>
      </trkpt>
      <trkpt lat="41.16519" lon="-8.67161">
        <ele>32.8</ele>
      </trkpt>
      <trkpt lat="41.1652" lon="-8.67165">
        <ele>32.8</ele>
      </trkpt>
      <trkpt lat="41.16524" lon="-8.67171">
        <ele>32.4</ele>
      </trkpt>
      <trkpt lat="41.16527" lon="-8.67172">
        <ele>31.9</ele>
      </trkpt>
      <trkpt lat="41.16561" lon="-8.67174">
        <ele>26.8</ele>
      </trkpt>
      <trkpt lat="41.16561" lon="-8.67178">
        <ele>26.9</ele>
      </trkpt>
      <trkpt lat="41.16561" lon="-8.67186">
        <ele>27.2</ele>
      </trkpt>
      <trkpt lat="41.16561" lon="-8.67192">
        <ele>27.5</ele>
      </trkpt>
      <trkpt lat="41.16569" lon="-8.67217">
        <ele>27.3</ele>
      </trkpt>
      <trkpt lat="41.1657" lon="-8.67227">
        <ele>27.6</ele>
      </trkpt>
      <trkpt lat="41.16557" lon="-8.67229">
        <ele>29.4</ele>
      </trkpt>
      <trkpt lat="41.16555" lon="-8.67231">
        <ele>29.7</ele>
      </trkpt>
      <trkpt lat="41.16554" lon="-8.6724">
        <ele>30.2</ele>
      </trkpt>
      <trkpt lat="41.16567" lon="-8.67273">
        <ele>29.2</ele>
      </trkpt>
      <trkpt lat="41.16566" lon="-8.67294">
        <ele>29.5</ele>
      </trkpt>
      <trkpt lat="41.16568" lon="-8.67302">
        <ele>29.4</ele>
      </trkpt>
      <trkpt lat="41.1657" lon="-8.67304">
        <ele>29.3</ele>
      </trkpt>
      <trkpt lat="41.16579" lon="-8.67309">
        <ele>28.7</ele>
      </trkpt>
      <trkpt lat="41.16578" lon="-8.67314">
        <ele>28.9</ele>
      </trkpt>
      <trkpt lat="41.16575" lon="-8.67332">
        <ele>29.4</ele>
      </trkpt>
      <trkpt lat="41.16575" lon="-8.67339">
        <ele>29.6</ele>
      </trkpt>
      <trkpt lat="41.16582" lon="-8.67371">
        <ele>30</ele>
      </trkpt>
      <trkpt lat="41.16583" lon="-8.67388">
        <ele>30.3</ele>
      </trkpt>
      <trkpt lat="41.16589" lon="-8.67405">
        <ele>30.4</ele>
      </trkpt>
      <trkpt lat="41.1659" lon="-8.67435">
        <ele>31</ele>
      </trkpt>
      <trkpt lat="41.16598" lon="-8.67457">
        <ele>30.8</ele>
      </trkpt>
      <trkpt lat="41.166" lon="-8.67467">
        <ele>30.8</ele>
      </trkpt>
      <trkpt lat="41.16601" lon="-8.67486">
        <ele>31.1</ele>
      </trkpt>
      <trkpt lat="41.1661" lon="-8.67512">
        <ele>30.5</ele>
      </trkpt>
      <trkpt lat="41.1661" lon="-8.67533">
        <ele>30.6</ele>
      </trkpt>
      <trkpt lat="41.16618" lon="-8.6756">
        <ele>30</ele>
      </trkpt>
      <trkpt lat="41.16619" lon="-8.67582">
        <ele>30</ele>
      </trkpt>
      <trkpt lat="41.16628" lon="-8.67599">
        <ele>29.6</ele>
      </trkpt>
      <trkpt lat="41.16632" lon="-8.67633">
        <ele>30.1</ele>
      </trkpt>
      <trkpt lat="41.16637" lon="-8.67645">
        <ele>30</ele>
      </trkpt>
      <trkpt lat="41.16645" lon="-8.67673">
        <ele>29.7</ele>
      </trkpt>
      <trkpt lat="41.16646" lon="-8.67688">
        <ele>29.4</ele>
      </trkpt>
      <trkpt lat="41.16647" lon="-8.67697">
        <ele>29.2</ele>
      </trkpt>
      <trkpt lat="41.16652" lon="-8.67722">
        <ele>28.5</ele>
      </trkpt>
      <trkpt lat="41.16654" lon="-8.67736">
        <ele>28.1</ele>
      </trkpt>
      <trkpt lat="41.1666" lon="-8.67748">
        <ele>27.5</ele>
      </trkpt>
      <trkpt lat="41.16665" lon="-8.67766">
        <ele>27.3</ele>
      </trkpt>
      <trkpt lat="41.16667" lon="-8.67773">
        <ele>27.3</ele>
      </trkpt>
      <trkpt lat="41.16669" lon="-8.67786">
        <ele>27.3</ele>
      </trkpt>
      <trkpt lat="41.16676" lon="-8.67806">
        <ele>27</ele>
      </trkpt>
      <trkpt lat="41.16681" lon="-8.67834">
        <ele>27</ele>
      </trkpt>
      <trkpt lat="41.1669" lon="-8.6787">
        <ele>26.9</ele>
      </trkpt>
      <trkpt lat="41.16691" lon="-8.67924">
        <ele>27.4</ele>
      </trkpt>
      <trkpt lat="41.16691" lon="-8.67927">
        <ele>27.3</ele>
      </trkpt>
      <trkpt lat="41.16693" lon="-8.67947">
        <ele>26.8</ele>
      </trkpt>
      <trkpt lat="41.16693" lon="-8.67953">
        <ele>26.7</ele>
      </trkpt>
      <trkpt lat="41.16697" lon="-8.67979">
        <ele>26</ele>
      </trkpt>
      <trkpt lat="41.16699" lon="-8.67983">
        <ele>25.8</ele>
      </trkpt>
      <trkpt lat="41.16702" lon="-8.67986">
        <ele>25.6</ele>
      </trkpt>
      <trkpt lat="41.16709" lon="-8.67989">
        <ele>25.2</ele>
      </trkpt>
      <trkpt lat="41.16708" lon="-8.67997">
        <ele>25.1</ele>
      </trkpt>
      <trkpt lat="41.16704" lon="-8.68007">
        <ele>25.2</ele>
      </trkpt>
      <trkpt lat="41.16708" lon="-8.68016">
        <ele>25</ele>
      </trkpt>
      <trkpt lat="41.16732" lon="-8.68036">
        <ele>23.6</ele>
      </trkpt>
      <trkpt lat="41.16756" lon="-8.68051">
        <ele>22.1</ele>
      </trkpt>
      <trkpt lat="41.16762" lon="-8.68053">
        <ele>21.8</ele>
      </trkpt>
      <trkpt lat="41.16803" lon="-8.68109">
        <ele>20.8</ele>
      </trkpt>
      <trkpt lat="41.16802" lon="-8.68115">
        <ele>21.1</ele>
      </trkpt>
      <trkpt lat="41.16799" lon="-8.68149">
        <ele>22.9</ele>
      </trkpt>
      <trkpt lat="41.16794" lon="-8.68164">
        <ele>23.8</ele>
      </trkpt>
      <trkpt lat="41.16796" lon="-8.68183">
        <ele>23.7</ele>
      </trkpt>
      <trkpt lat="41.16783" lon="-8.68215">
        <ele>23.7</ele>
      </trkpt>
      <trkpt lat="41.1678" lon="-8.6823">
        <ele>23.7</ele>
      </trkpt>
      <trkpt lat="41.16781" lon="-8.6824">
        <ele>23.6</ele>
      </trkpt>
      <trkpt lat="41.16802" lon="-8.68291">
        <ele>22.1</ele>
      </trkpt>
      <trkpt lat="41.16801" lon="-8.68301">
        <ele>22.1</ele>
      </trkpt>
      <trkpt lat="41.16794" lon="-8.68336">
        <ele>21.9</ele>
      </trkpt>
      <trkpt lat="41.16794" lon="-8.68343">
        <ele>21.9</ele>
      </trkpt>
      <trkpt lat="41.16804" lon="-8.68396">
        <ele>21</ele>
      </trkpt>
      <trkpt lat="41.16818" lon="-8.68441">
        <ele>20</ele>
      </trkpt>
      <trkpt lat="41.16821" lon="-8.68447">
        <ele>19.8</ele>
      </trkpt>
      <trkpt lat="41.16833" lon="-8.68461">
        <ele>19</ele>
      </trkpt>
      <trkpt lat="41.16845" lon="-8.68476">
        <ele>17.9</ele>
      </trkpt>
      <trkpt lat="41.16847" lon="-8.68483">
        <ele>17.8</ele>
      </trkpt>
      <trkpt lat="41.16847" lon="-8.68495">
        <ele>17.8</ele>
      </trkpt>
      <trkpt lat="41.16852" lon="-8.68502">
        <ele>17.4</ele>
      </trkpt>
      <trkpt lat="41.16853" lon="-8.68503">
        <ele>17.3</ele>
      </trkpt>
      <trkpt lat="41.16855" lon="-8.68503">
        <ele>17.1</ele>
      </trkpt>
      <trkpt lat="41.16858" lon="-8.68503">
        <ele>16.8</ele>
      </trkpt>
      <trkpt lat="41.16861" lon="-8.68502">
        <ele>16.6</ele>
      </trkpt>
      <trkpt lat="41.16862" lon="-8.68509">
        <ele>16.3</ele>
      </trkpt>
      <trkpt lat="41.16868" lon="-8.68526">
        <ele>15.4</ele>
      </trkpt>
      <trkpt lat="41.16874" lon="-8.68534">
        <ele>14.8</ele>
      </trkpt>
      <trkpt lat="41.16893" lon="-8.68556">
        <ele>12.9</ele>
      </trkpt>
      <trkpt lat="41.16901" lon="-8.68568">
        <ele>12.2</ele>
      </trkpt>
      <trkpt lat="41.16907" lon="-8.68585">
        <ele>11.6</ele>
      </trkpt>
      <trkpt lat="41.16918" lon="-8.68643">
        <ele>11.7</ele>
      </trkpt>
      <trkpt lat="41.16918" lon="-8.68656">
        <ele>11.8</ele>
      </trkpt>
      <trkpt lat="41.16913" lon="-8.68691">
        <ele>11.5</ele>
      </trkpt>
      <trkpt lat="41.16912" lon="-8.68732">
        <ele>10.6</ele>
      </trkpt>
      <trkpt lat="41.16911" lon="-8.68742">
        <ele>10.4</ele>
      </trkpt>
      <trkpt lat="41.16911" lon="-8.68746">
        <ele>10.3</ele>
      </trkpt>
      <trkpt lat="41.16912" lon="-8.6875">
        <ele>10.2</ele>
      </trkpt>
      <trkpt lat="41.16916" lon="-8.68768">
        <ele>9.4</ele>
      </trkpt>
      <trkpt lat="41.16917" lon="-8.68769">
        <ele>9.3</ele>
      </trkpt>
      <trkpt lat="41.16922" lon="-8.6878">
        <ele>8.6</ele>
      </trkpt>
      <trkpt lat="41.16924" lon="-8.6878">
        <ele>8.5</ele>
      </trkpt>
      <trkpt lat="41.16966" lon="-8.68785">
        <ele>6.3</ele>
      </trkpt>
      <trkpt lat="41.16976" lon="-8.68787">
        <ele>5.7</ele>
      </trkpt>
      <trkpt lat="41.16983" lon="-8.68728">
        <ele>6.8</ele>
      </trkpt>
      <trkpt lat="41.17008" lon="-8.68719">
        <ele>6</ele>
      </trkpt>
      <trkpt lat="41.1703" lon="-8.68713">
        <ele>5.9</ele>
      </trkpt>
      <trkpt lat="41.17059" lon="-8.68719">
        <ele>5.2</ele>
      </trkpt>
      <trkpt lat="41.17097" lon="-8.68767">
        <ele>3.2</ele>
      </trkpt>
      <trkpt lat="41.17115" lon="-8.68787">
        <ele>3.4</ele>
      </trkpt>
      <trkpt lat="41.17145" lon="-8.68823">
        <ele>3.7</ele>
      </trkpt>
      <trkpt lat="41.17183" lon="-8.6885">
        <ele>3.7</ele>
      </trkpt>
      <trkpt lat="41.17185" lon="-8.68852">
        <ele>3.6</ele>
      </trkpt>
      <trkpt lat="41.17202" lon="-8.68875">
        <ele>2.6</ele>
      </trkpt>
      <trkpt lat="41.17222" lon="-8.68904">
        <ele>0.9</ele>
      </trkpt>
      <trkpt lat="41.17252" lon="-8.68912">
        <ele>0.4</ele>
      </trkpt>
      <trkpt lat="41.17275" lon="-8.68915">
        <ele>0.1</ele>
      </trkpt>
      <trkpt lat="41.17293" lon="-8.68924">
      </trkpt>
      <trkpt lat="41.17311" lon="-8.68932">
        <ele>4</ele>
      </trkpt>
      <trkpt lat="41.17328" lon="-8.68937">
        <ele>4</ele>
      </trkpt>
      <trkpt lat="41.17341" lon="-8.68938">
        <ele>0.3</ele>
      </trkpt>
      <trkpt lat="41.17352" lon="-8.68936">
        <ele>0.7</ele>
      </trkpt>
      <trkpt lat="41.17372" lon="-8.68928">
        <ele>1.6</ele>
      </trkpt>
      <trkpt lat="41.1738" lon="-8.68928">
        <ele>1.9</ele>
      </trkpt>
      <trkpt lat="41.17389" lon="-8.6893">
        <ele>2.2</ele>
      </trkpt>
      <trkpt lat="41.17392" lon="-8.68932">
        <ele>2.3</ele>
      </trkpt>
      <trkpt lat="41.17929" lon="-8.69357">
        <ele>0.5</ele>
      </trkpt>
      <trkpt lat="41.17955" lon="-8.69378">
        <ele>1.1</ele>
      </trkpt>
      <trkpt lat="41.17957" lon="-8.69379">
        <ele>1.1</ele>
      </trkpt>
      <trkpt lat="41.17971" lon="-8.69382">
        <ele>1.4</ele>
      </trkpt>
      <trkpt lat="41.18011" lon="-8.69391">
        <ele>2</ele>
      </trkpt>
      <trkpt lat="41.18017" lon="-8.69393">
        <ele>2.1</ele>
      </trkpt>
      <trkpt lat="41.18061" lon="-8.69422">
        <ele>2.7</ele>
      </trkpt>
      <trkpt lat="41.18065" lon="-8.69425">
        <ele>2.8</ele>
      </trkpt>
      <trkpt lat="41.1807" lon="-8.69428">
        <ele>2.9</ele>
      </trkpt>
      <trkpt lat="41.18082" lon="-8.69436">
        <ele>3</ele>
      </trkpt>
      <trkpt lat="41.18183" lon="-8.69383">
        <ele>9.1</ele>
      </trkpt>
      <trkpt lat="41.18189" lon="-8.69379">
        <ele>9.3</ele>
      </trkpt>
      <trkpt lat="41.18274" lon="-8.69461">
        <ele>7.3</ele>
      </trkpt>
      <trkpt lat="41.18278" lon="-8.69465">
        <ele>7.3</ele>
      </trkpt>
      <trkpt lat="41.18283" lon="-8.69471">
        <ele>7.4</ele>
      </trkpt>
      <trkpt lat="41.1834" lon="-8.69525">
        <ele>8.1</ele>
      </trkpt>
      <trkpt lat="41.18346" lon="-8.69531">
        <ele>8</ele>
      </trkpt>
      <trkpt lat="41.18384" lon="-8.69568">
        <ele>7.5</ele>
      </trkpt>
      <trkpt lat="41.18395" lon="-8.69579">
        <ele>7.6</ele>
      </trkpt>
      <trkpt lat="41.18414" lon="-8.69597">
        <ele>7.4</ele>
      </trkpt>
      <trkpt lat="41.18442" lon="-8.69624">
        <ele>6.5</ele>
      </trkpt>
      <trkpt lat="41.18452" lon="-8.69634">
        <ele>6.2</ele>
      </trkpt>
      <trkpt lat="41.18473" lon="-8.69654">
        <ele>5.5</ele>
      </trkpt>
      <trkpt lat="41.18492" lon="-8.6967">
        <ele>5</ele>
      </trkpt>
      <trkpt lat="41.18496" lon="-8.69672">
        <ele>5</ele>
      </trkpt>
      <trkpt lat="41.18512" lon="-8.69678">
        <ele>5</ele>
      </trkpt>
      <trkpt lat="41.18527" lon="-8.69678">
        <ele>5</ele>
      </trkpt>
      <trkpt lat="41.18545" lon="-8.69672">
        <ele>5</ele>
      </trkpt>
      <trkpt lat="41.18563" lon="-8.69661">
        <ele>5.3</ele>
      </trkpt>
      <trkpt lat="41.18573" lon="-8.69651">
        <ele>5.7</ele>
      </trkpt>
      <trkpt lat="41.1858" lon="-8.69636">
        <ele>6.5</ele>
      </trkpt>
      <trkpt lat="41.18582" lon="-8.69629">
        <ele>6.8</ele>
      </trkpt>
      <trkpt lat="41.18582" lon="-8.69627">
        <ele>6.9</ele>
      </trkpt>
      <trkpt lat="41.18581" lon="-8.69624">
        <ele>7</ele>
      </trkpt>
      <trkpt lat="41.18581" lon="-8.69621">
        <ele>7.2</ele>
      </trkpt>
      <trkpt lat="41.18584" lon="-8.69614">
        <ele>7.5</ele>
      </trkpt>
      <trkpt lat="41.18586" lon="-8.69613">
        <ele>7.5</ele>
      </trkpt>
      <trkpt lat="41.18588" lon="-8.69612">
        <ele>7.5</ele>
      </trkpt>
      <trkpt lat="41.18592" lon="-8.69611">
        <ele>7.5</ele>
      </trkpt>
      <trkpt lat="41.18594" lon="-8.69609">
        <ele>7.5</ele>
      </trkpt>
      <trkpt lat="41.18597" lon="-8.69605">
        <ele>7.6</ele>
      </trkpt>
      <trkpt lat="41.18625" lon="-8.69563">
        <ele>8.4</ele>
      </trkpt>
      <trkpt lat="41.18665" lon="-8.69503">
        <ele>11.7</ele>
      </trkpt>
      <trkpt lat="41.18672" lon="-8.6951">
        <ele>11.1</ele>
      </trkpt>
      <trkpt lat="41.18677" lon="-8.69515">
        <ele>10.5</ele>
      </trkpt>
      <trkpt lat="41.18746" lon="-8.6941">
        <ele>10.2</ele>
      </trkpt>
      <trkpt lat="41.18777" lon="-8.69351">
        <ele>9.4</ele>
      </trkpt>
      <trkpt lat="41.18805" lon="-8.69318">
        <ele>8.7</ele>
      </trkpt>
      <trkpt lat="41.18807" lon="-8.69311">
        <ele>8.8</ele>
      </trkpt>
      <trkpt lat="41.18791" lon="-8.69301">
        <ele>9.8</ele>
      </trkpt>
      <trkpt lat="41.18784" lon="-8.69297">
        <ele>10.2</ele>
      </trkpt>
      <trkpt lat="41.18771" lon="-8.69289">
        <ele>11.1</ele>
      </trkpt>
      <trkpt lat="41.18769" lon="-8.69287">
        <ele>11.2</ele>
      </trkpt>
      <trkpt lat="41.18755" lon="-8.69284">
        <ele>11.9</ele>
      </trkpt>
      <trkpt lat="41.18746" lon="-8.69272">
        <ele>12.7</ele>
      </trkpt>
      <trkpt lat="41.18715" lon="-8.69246">
        <ele>15.1</ele>
      </trkpt>
      <trkpt lat="41.18705" lon="-8.69245">
        <ele>15.7</ele>
      </trkpt>
      <trkpt lat="41.18703" lon="-8.6925">
        <ele>15.8</ele>
      </trkpt>
      <trkpt lat="41.187" lon="-8.69255">
        <ele>15.9</ele>
      </trkpt>
      <trkpt lat="41.18681" lon="-8.69244">
        <ele>17</ele>
      </trkpt>
      <trkpt lat="41.18683" lon="-8.69239">
        <ele>16.8</ele>
      </trkpt>
      <trkpt lat="41.18687" lon="-8.69231">
        <ele>16.5</ele>
      </trkpt>
      <trkpt lat="41.18689" lon="-8.69232">
        <ele>16.4</ele>
      </trkpt>
      <trkpt lat="41.18694" lon="-8.69232">
        <ele>16.1</ele>
      </trkpt>
      <trkpt lat="41.18696" lon="-8.69231">
        <ele>16</ele>
      </trkpt>
      <trkpt lat="41.187" lon="-8.69232">
        <ele>15.8</ele>
      </trkpt>
      <trkpt lat="41.18724" lon="-8.6924">
        <ele>14.6</ele>
      </trkpt>
      <trkpt lat="41.1873" lon="-8.69243">
        <ele>14.2</ele>
      </trkpt>
      <trkpt lat="41.18735" lon="-8.69247">
        <ele>13.9</ele>
      </trkpt>
      <trkpt lat="41.1874" lon="-8.69253">
        <ele>13.5</ele>
      </trkpt>
      <trkpt lat="41.18747" lon="-8.6926">
        <ele>12.9</ele>
      </trkpt>
      <trkpt lat="41.18791" lon="-8.69326">
        <ele>9.2</ele>
      </trkpt>
      <trkpt lat="41.18836" lon="-8.69387">
        <ele>5.6</ele>
      </trkpt>
      <trkpt lat="41.18906" lon="-8.69469">
        <ele>1</ele>
      </trkpt>
      <trkpt lat="41.1895" lon="-8.69519">
        <ele>1</ele>
      </trkpt>
      <trkpt lat="41.18994" lon="-8.69563">
        <ele>1.9</ele>
      </trkpt>
      <trkpt lat="41.19034" lon="-8.696">
        <ele>4.4</ele>
      </trkpt>
      <trkpt lat="41.19052" lon="-8.69612">
        <ele>5.3</ele>
      </trkpt>
      <trkpt lat="41.19058" lon="-8.69616">
        <ele>5.7</ele>
      </trkpt>
      <trkpt lat="41.19065" lon="-8.6962">
        <ele>6</ele>
      </trkpt>
      <trkpt lat="41.19075" lon="-8.69621">
        <ele>6.2</ele>
      </trkpt>
      <trkpt lat="41.19084" lon="-8.69612">
        <ele>5.8</ele>
      </trkpt>
      <trkpt lat="41.19086" lon="-8.69608">
        <ele>5.7</ele>
      </trkpt>
      <trkpt lat="41.1909" lon="-8.69597">
        <ele>5.4</ele>
      </trkpt>
      <trkpt lat="41.19092" lon="-8.69591">
        <ele>5.3</ele>
      </trkpt>
      <trkpt lat="41.19096" lon="-8.69578">
        <ele>5.1</ele>
      </trkpt>
      <trkpt lat="41.19098" lon="-8.69573">
        <ele>5.1</ele>
      </trkpt>
      <trkpt lat="41.19101" lon="-8.69568">
        <ele>5.2</ele>
      </trkpt>
      <trkpt lat="41.19104" lon="-8.69564">
        <ele>5.3</ele>
      </trkpt>
      <trkpt lat="41.19111" lon="-8.69562">
        <ele>5.9</ele>
      </trkpt>
      <trkpt lat="41.19117" lon="-8.69563">
        <ele>6.4</ele>
      </trkpt>
      <trkpt lat="41.19121" lon="-8.69565">
        <ele>6.9</ele>
      </trkpt>
      <trkpt lat="41.19124" lon="-8.69568">
        <ele>7.3</ele>
      </trkpt>
      <trkpt lat="41.19128" lon="-8.69572">
        <ele>7.8</ele>
      </trkpt>
      <trkpt lat="41.19149" lon="-8.69582">
        <ele>10.2</ele>
      </trkpt>
      <trkpt lat="41.19158" lon="-8.69589">
        <ele>11.4</ele>
      </trkpt>
      <trkpt lat="41.19162" lon="-8.69591">
        <ele>11.8</ele>
      </trkpt>
      <trkpt lat="41.19177" lon="-8.69601">
        <ele>13.7</ele>
      </trkpt>
      <trkpt lat="41.1922" lon="-8.69629">
        <ele>19.5</ele>
      </trkpt>
      <trkpt lat="41.19242" lon="-8.69644">
        <ele>22.7</ele>
      </trkpt>
      <trkpt lat="41.19264" lon="-8.6966">
        <ele>24.8</ele>
      </trkpt>
      <trkpt lat="41.19275" lon="-8.69663">
        <ele>25.1</ele>
      </trkpt>
      <trkpt lat="41.19291" lon="-8.69667">
        <ele>25.5</ele>
      </trkpt>
      <trkpt lat="41.19312" lon="-8.69671">
        <ele>25.7</ele>
      </trkpt>
      <trkpt lat="41.19318" lon="-8.69671">
        <ele>25.8</ele>
      </trkpt>
      <trkpt lat="41.19327" lon="-8.69671">
        <ele>25.9</ele>
      </trkpt>
      <trkpt lat="41.19339" lon="-8.6967">
        <ele>25.7</ele>
      </trkpt>
      <trkpt lat="41.1936" lon="-8.69671">
        <ele>24.4</ele>
      </trkpt>
      <trkpt lat="41.19383" lon="-8.69679">
        <ele>23.2</ele>
      </trkpt>
      <trkpt lat="41.19383" lon="-8.69637">
        <ele>21.7</ele>
      </trkpt>
      <trkpt lat="41.19384" lon="-8.69626">
        <ele>21.1</ele>
      </trkpt>
      <trkpt lat="41.19385" lon="-8.69621">
        <ele>20.8</ele>
      </trkpt>
      <trkpt lat="41.19387" lon="-8.69617">
        <ele>20.6</ele>
      </trkpt>
      <trkpt lat="41.19388" lon="-8.69615">
        <ele>20.4</ele>
      </trkpt>
      <trkpt lat="41.1939" lon="-8.69613">
        <ele>20.3</ele>
      </trkpt>
      <trkpt lat="41.19411" lon="-8.6958">
        <ele>18.1</ele>
      </trkpt>
      <trkpt lat="41.19417" lon="-8.69574">
        <ele>17.8</ele>
      </trkpt>
      <trkpt lat="41.1942" lon="-8.6957">
        <ele>17.8</ele>
      </trkpt>
      <trkpt lat="41.19435" lon="-8.69566">
        <ele>18.4</ele>
      </trkpt>
      <trkpt lat="41.19501" lon="-8.69553">
        <ele>21.8</ele>
      </trkpt>
      <trkpt lat="41.19516" lon="-8.69551">
        <ele>22.2</ele>
      </trkpt>
      <trkpt lat="41.19523" lon="-8.6955">
        <ele>22.4</ele>
      </trkpt>
      <trkpt lat="41.19551" lon="-8.69538">
        <ele>23.3</ele>
      </trkpt>
      <trkpt lat="41.19587" lon="-8.69489">
        <ele>23.8</ele>
      </trkpt>
      <trkpt lat="41.19604" lon="-8.69459">
        <ele>23.6</ele>
      </trkpt>
      <trkpt lat="41.19613" lon="-8.69438">
        <ele>23.5</ele>
      </trkpt>
      <trkpt lat="41.19626" lon="-8.69438">
        <ele>23.9</ele>
      </trkpt>
      <trkpt lat="41.1966" lon="-8.69431">
        <ele>24.9</ele>
      </trkpt>
      <trkpt lat="41.19666" lon="-8.69431">
        <ele>25.1</ele>
      </trkpt>
      <trkpt lat="41.19675" lon="-8.69432">
        <ele>25.6</ele>
      </trkpt>
      <trkpt lat="41.19722" lon="-8.6945">
        <ele>27.8</ele>
      </trkpt>
      <trkpt lat="41.19746" lon="-8.69464">
        <ele>28.8</ele>
      </trkpt>
      <trkpt lat="41.19783" lon="-8.69522">
        <ele>30</ele>
      </trkpt>
      <trkpt lat="41.19786" lon="-8.69526">
        <ele>30.1</ele>
      </trkpt>
      <trkpt lat="41.19789" lon="-8.6953">
        <ele>30.2</ele>
      </trkpt>
      <trkpt lat="41.19811" lon="-8.69539">
        <ele>31.1</ele>
      </trkpt>
      <trkpt lat="41.19882" lon="-8.69544">
        <ele>33.8</ele>
      </trkpt>
      <trkpt lat="41.19902" lon="-8.69544">
        <ele>34.5</ele>
      </trkpt>
      <trkpt lat="41.19918" lon="-8.69542">
        <ele>35.1</ele>
      </trkpt>
      <trkpt lat="41.19932" lon="-8.69541">
        <ele>35.5</ele>
      </trkpt>
      <trkpt lat="41.19965" lon="-8.69538">
        <ele>36.7</ele>
      </trkpt>
      <trkpt lat="41.19968" lon="-8.69538">
        <ele>36.8</ele>
      </trkpt>
      <trkpt lat="41.20008" lon="-8.69539">
        <ele>37.9</ele>
      </trkpt>
      <trkpt lat="41.20037" lon="-8.69545">
        <ele>38</ele>
      </trkpt>
      <trkpt lat="41.20062" lon="-8.69556">
        <ele>38.1</ele>
      </trkpt>
      <trkpt lat="41.20095" lon="-8.69585">
        <ele>38.3</ele>
      </trkpt>
      <trkpt lat="41.20121" lon="-8.69611">
        <ele>39.2</ele>
      </trkpt>
      <trkpt lat="41.2013" lon="-8.69621">
        <ele>39.7</ele>
      </trkpt>
      <trkpt lat="41.20134" lon="-8.69616">
        <ele>39.8</ele>
      </trkpt>
      <trkpt lat="41.20139" lon="-8.69614">
        <ele>40</ele>
      </trkpt>
      <trkpt lat="41.20144" lon="-8.69613">
        <ele>40.1</ele>
      </trkpt>
      <trkpt lat="41.2015" lon="-8.69614">
        <ele>40.4</ele>
      </trkpt>
      <trkpt lat="41.20155" lon="-8.69617">
        <ele>40.7</ele>
      </trkpt>
      <trkpt lat="41.20159" lon="-8.69621">
        <ele>41</ele>
      </trkpt>
      <trkpt lat="41.20165" lon="-8.69635">
        <ele>41.8</ele>
      </trkpt>
      <trkpt lat="41.20165" lon="-8.69642">
        <ele>42</ele>
      </trkpt>
      <trkpt lat="41.20163" lon="-8.69649">
        <ele>42.1</ele>
      </trkpt>
      <trkpt lat="41.20161" lon="-8.69655">
        <ele>42.2</ele>
      </trkpt>
      <trkpt lat="41.20157" lon="-8.6966">
        <ele>42.1</ele>
      </trkpt>
      <trkpt lat="41.20153" lon="-8.69664">
        <ele>41.9</ele>
      </trkpt>
      <trkpt lat="41.20152" lon="-8.69671">
        <ele>41.7</ele>
      </trkpt>
      <trkpt lat="41.20146" lon="-8.69689">
        <ele>40.2</ele>
      </trkpt>
      <trkpt lat="41.20147" lon="-8.69708">
        <ele>39.2</ele>
      </trkpt>
      <trkpt lat="41.2015" lon="-8.69762">
        <ele>36.7</ele>
      </trkpt>
      <trkpt lat="41.20153" lon="-8.69776">
        <ele>36.5</ele>
      </trkpt>
      <trkpt lat="41.2016" lon="-8.69793">
        <ele>36.5</ele>
      </trkpt>
      <trkpt lat="41.20163" lon="-8.69795">
        <ele>36.7</ele>
      </trkpt>
      <trkpt lat="41.20166" lon="-8.69799">
        <ele>36.8</ele>
      </trkpt>
      <trkpt lat="41.20174" lon="-8.69802">
        <ele>37.2</ele>
      </trkpt>
      <trkpt lat="41.20188" lon="-8.69807">
        <ele>37.8</ele>
      </trkpt>
      <trkpt lat="41.202" lon="-8.69811">
        <ele>38.4</ele>
      </trkpt>
      <trkpt lat="41.20244" lon="-8.69813">
        <ele>40.9</ele>
      </trkpt>
      <trkpt lat="41.20301" lon="-8.69819">
        <ele>39.4</ele>
      </trkpt>
      <trkpt lat="41.20325" lon="-8.69823">
        <ele>38.5</ele>
      </trkpt>
      <trkpt lat="41.2039" lon="-8.69827">
        <ele>36.3</ele>
      </trkpt>
      <trkpt lat="41.20443" lon="-8.6983">
        <ele>34.8</ele>
      </trkpt>
      <trkpt lat="41.20566" lon="-8.69819">
        <ele>34.5</ele>
      </trkpt>
      <trkpt lat="41.20614" lon="-8.69814">
        <ele>33.9</ele>
      </trkpt>
      <trkpt lat="41.20625" lon="-8.69813">
        <ele>33.6</ele>
      </trkpt>
      <trkpt lat="41.20696" lon="-8.69806">
        <ele>32.1</ele>
      </trkpt>
      <trkpt lat="41.20803" lon="-8.69788">
        <ele>33.3</ele>
      </trkpt>
      <trkpt lat="41.20818" lon="-8.69784">
        <ele>34.1</ele>
      </trkpt>
      <trkpt lat="41.20829" lon="-8.6978">
        <ele>34.7</ele>
      </trkpt>
      <trkpt lat="41.20856" lon="-8.69764">
        <ele>36.5</ele>
      </trkpt>
      <trkpt lat="41.20867" lon="-8.69752">
        <ele>37.5</ele>
      </trkpt>
      <trkpt lat="41.20875" lon="-8.69744">
        <ele>37.9</ele>
      </trkpt>
      <trkpt lat="41.20901" lon="-8.69768">
        <ele>38.2</ele>
      </trkpt>
      <trkpt lat="41.20942" lon="-8.69808">
        <ele>37.4</ele>
      </trkpt>
      <trkpt lat="41.2109" lon="-8.69959">
        <ele>36.7</ele>
      </trkpt>
      <trkpt lat="41.21133" lon="-8.70004">
        <ele>37.1</ele>
      </trkpt>
      <trkpt lat="41.2117" lon="-8.70046">
        <ele>35.2</ele>
      </trkpt>
      <trkpt lat="41.21229" lon="-8.70123">
        <ele>33.1</ele>
      </trkpt>
      <trkpt lat="41.21287" lon="-8.70203">
        <ele>31</ele>
      </trkpt>
      <trkpt lat="41.21295" lon="-8.70214">
        <ele>31</ele>
      </trkpt>
      <trkpt lat="41.21325" lon="-8.70256">
        <ele>32</ele>
      </trkpt>
      <trkpt lat="41.21332" lon="-8.70265">
        <ele>32.2</ele>
      </trkpt>
      <trkpt lat="41.2138" lon="-8.70326">
        <ele>30.3</ele>
      </trkpt>
      <trkpt lat="41.21505" lon="-8.70494">
        <ele>27.4</ele>
      </trkpt>
      <trkpt lat="41.21527" lon="-8.70521">
        <ele>27.1</ele>
      </trkpt>
      <trkpt lat="41.21654" lon="-8.705">
        <ele>28.3</ele>
      </trkpt>
      <trkpt lat="41.21699" lon="-8.70486">
        <ele>28.3</ele>
      </trkpt>
      <trkpt lat="41.218" lon="-8.7047">
        <ele>29.3</ele>
      </trkpt>
      <trkpt lat="41.21867" lon="-8.70458">
        <ele>28.9</ele>
      </trkpt>
      <trkpt lat="41.21941" lon="-8.70444">
        <ele>27.9</ele>
      </trkpt>
      <trkpt lat="41.21991" lon="-8.70435">
        <ele>26.6</ele>
      </trkpt>
      <trkpt lat="41.22057" lon="-8.70424">
        <ele>25.4</ele>
      </trkpt>
      <trkpt lat="41.22108" lon="-8.70414">
        <ele>25.3</ele>
      </trkpt>
      <trkpt lat="41.2223" lon="-8.70389">
        <ele>26.8</ele>
      </trkpt>
      <trkpt lat="41.22241" lon="-8.70387">
        <ele>27</ele>
      </trkpt>
      <trkpt lat="41.22254" lon="-8.70393">
        <ele>26.7</ele>
      </trkpt>
      <trkpt lat="41.22263" lon="-8.70397">
        <ele>26.4</ele>
      </trkpt>
      <trkpt lat="41.2231" lon="-8.70421">
        <ele>24.5</ele>
      </trkpt>
      <trkpt lat="41.22338" lon="-8.70429">
        <ele>23.7</ele>
      </trkpt>
      <trkpt lat="41.22473" lon="-8.70457">
        <ele>22.2</ele>
      </trkpt>
      <trkpt lat="41.22487" lon="-8.70388">
        <ele>23.1</ele>
      </trkpt>
      <trkpt lat="41.22492" lon="-8.70389">
        <ele>23.1</ele>
      </trkpt>
      <trkpt lat="41.22513" lon="-8.70395">
        <ele>22.6</ele>
      </trkpt>
      <trkpt lat="41.22541" lon="-8.70407">
        <ele>21.8</ele>
      </trkpt>
      <trkpt lat="41.22576" lon="-8.70426">
        <ele>20.9</ele>
      </trkpt>
      <trkpt lat="41.22625" lon="-8.70456">
        <ele>18.3</ele>
      </trkpt>
      <trkpt lat="41.22646" lon="-8.70466">
        <ele>17.3</ele>
      </trkpt>
      <trkpt lat="41.22652" lon="-8.70469">
        <ele>17</ele>
      </trkpt>
      <trkpt lat="41.22676" lon="-8.70473">
        <ele>16.1</ele>
      </trkpt>
      <trkpt lat="41.22695" lon="-8.70476">
        <ele>15.5</ele>
      </trkpt>
      <trkpt lat="41.22705" lon="-8.70475">
        <ele>15.2</ele>
      </trkpt>
      <trkpt lat="41.22709" lon="-8.70474">
        <ele>15.1</ele>
      </trkpt>
      <trkpt lat="41.22745" lon="-8.70463">
        <ele>14.1</ele>
      </trkpt>
      <trkpt lat="41.22778" lon="-8.70454">
        <ele>15.2</ele>
      </trkpt>
      <trkpt lat="41.22805" lon="-8.70455">
        <ele>16.3</ele>
      </trkpt>
      <trkpt lat="41.22835" lon="-8.70462">
        <ele>17.5</ele>
      </trkpt>
      <trkpt lat="41.22864" lon="-8.70464">
        <ele>18.6</ele>
      </trkpt>
      <trkpt lat="41.22869" lon="-8.70462">
        <ele>18.8</ele>
      </trkpt>
      <trkpt lat="41.22887" lon="-8.70458">
        <ele>19.4</ele>
      </trkpt>
      <trkpt lat="41.22939" lon="-8.70431">
        <ele>20.5</ele>
      </trkpt>
      <trkpt lat="41.22995" lon="-8.70417">
        <ele>21</ele>
      </trkpt>
      <trkpt lat="41.23025" lon="-8.70415">
        <ele>21.3</ele>
      </trkpt>
      <trkpt lat="41.2303" lon="-8.70414">
        <ele>21.4</ele>
      </trkpt>
      <trkpt lat="41.23062" lon="-8.7043">
        <ele>22.3</ele>
      </trkpt>
      <trkpt lat="41.23099" lon="-8.70458">
        <ele>24.5</ele>
      </trkpt>
      <trkpt lat="41.23124" lon="-8.7048">
        <ele>25.9</ele>
      </trkpt>
      <trkpt lat="41.232" lon="-8.70559">
        <ele>29.4</ele>
      </trkpt>
      <trkpt lat="41.23235" lon="-8.706">
        <ele>31.3</ele>
      </trkpt>
      <trkpt lat="41.23237" lon="-8.70603">
        <ele>31.3</ele>
      </trkpt>
      <trkpt lat="41.2326" lon="-8.70627">
        <ele>31.8</ele>
      </trkpt>
      <trkpt lat="41.23308" lon="-8.70679">
        <ele>35.7</ele>
      </trkpt>
      <trkpt lat="41.23329" lon="-8.70701">
        <ele>38.7</ele>
      </trkpt>
      <trkpt lat="41.23362" lon="-8.70743">
        <ele>40.8</ele>
      </trkpt>
      <trkpt lat="41.23399" lon="-8.7077">
        <ele>41.6</ele>
      </trkpt>
      <trkpt lat="41.23438" lon="-8.70784">
        <ele>42.1</ele>
      </trkpt>
      <trkpt lat="41.23485" lon="-8.70798">
        <ele>42.8</ele>
      </trkpt>
      <trkpt lat="41.23535" lon="-8.70817">
        <ele>44.4</ele>
      </trkpt>
      <trkpt lat="41.23564" lon="-8.7083">
        <ele>45.5</ele>
      </trkpt>
      <trkpt lat="41.23593" lon="-8.70851">
        <ele>46.4</ele>
      </trkpt>
      <trkpt lat="41.23602" lon="-8.70856">
        <ele>46.3</ele>
      </trkpt>
      <trkpt lat="41.23622" lon="-8.70866">
        <ele>45.8</ele>
      </trkpt>
      <trkpt lat="41.23655" lon="-8.70879">
        <ele>44.4</ele>
      </trkpt>
      <trkpt lat="41.2369" lon="-8.70885">
        <ele>42.7</ele>
      </trkpt>
      <trkpt lat="41.23722" lon="-8.70888">
        <ele>41.1</ele>
      </trkpt>
      <trkpt lat="41.23744" lon="-8.70886">
        <ele>40.1</ele>
      </trkpt>
      <trkpt lat="41.23768" lon="-8.70888">
        <ele>39.3</ele>
      </trkpt>
      <trkpt lat="41.23791" lon="-8.70897">
        <ele>38.6</ele>
      </trkpt>
      <trkpt lat="41.23815" lon="-8.70912">
        <ele>38.1</ele>
      </trkpt>
      <trkpt lat="41.23825" lon="-8.70923">
        <ele>38</ele>
      </trkpt>
      <trkpt lat="41.23835" lon="-8.70956">
        <ele>38.5</ele>
      </trkpt>
      <trkpt lat="41.23837" lon="-8.70982">
        <ele>38.7</ele>
      </trkpt>
      <trkpt lat="41.23835" lon="-8.70999">
        <ele>38.9</ele>
      </trkpt>
      <trkpt lat="41.23826" lon="-8.71033">
        <ele>35.2</ele>
      </trkpt>
      <trkpt lat="41.23825" lon="-8.7105">
        <ele>33.5</ele>
      </trkpt>
      <trkpt lat="41.23835" lon="-8.71058">
        <ele>32.7</ele>
      </trkpt>
      <trkpt lat="41.23926" lon="-8.71101">
        <ele>29</ele>
      </trkpt>
      <trkpt lat="41.23944" lon="-8.71112">
        <ele>28.2</ele>
      </trkpt>
      <trkpt lat="41.23953" lon="-8.71122">
        <ele>27.7</ele>
      </trkpt>
      <trkpt lat="41.23959" lon="-8.71139">
        <ele>27</ele>
      </trkpt>
      <trkpt lat="41.23955" lon="-8.71196">
        <ele>25.8</ele>
      </trkpt>
      <trkpt lat="41.23954" lon="-8.71226">
        <ele>25.7</ele>
      </trkpt>
      <trkpt lat="41.23966" lon="-8.71326">
        <ele>23.6</ele>
      </trkpt>
      <trkpt lat="41.23972" lon="-8.71358">
        <ele>23</ele>
      </trkpt>
      <trkpt lat="41.23972" lon="-8.71376">
        <ele>22.8</ele>
      </trkpt>
      <trkpt lat="41.23975" lon="-8.71387">
        <ele>22.7</ele>
      </trkpt>
      <trkpt lat="41.23983" lon="-8.7139">
        <ele>22.5</ele>
      </trkpt>
      <trkpt lat="41.24019" lon="-8.71405">
        <ele>21.6</ele>
      </trkpt>
      <trkpt lat="41.24021" lon="-8.71405">
        <ele>21.5</ele>
      </trkpt>
      <trkpt lat="41.2404" lon="-8.71401">
        <ele>21</ele>
      </trkpt>
      <trkpt lat="41.24072" lon="-8.714">
        <ele>20.1</ele>
      </trkpt>
      <trkpt lat="41.24106" lon="-8.71398">
        <ele>21.1</ele>
      </trkpt>
      <trkpt lat="41.24148" lon="-8.714">
        <ele>23.2</ele>
      </trkpt>
      <trkpt lat="41.24192" lon="-8.71409">
        <ele>23.8</ele>
      </trkpt>
      <trkpt lat="41.24252" lon="-8.71423">
        <ele>24</ele>
      </trkpt>
      <trkpt lat="41.24286" lon="-8.7143">
        <ele>24.4</ele>
      </trkpt>
      <trkpt lat="41.24325" lon="-8.71436">
        <ele>24.9</ele>
      </trkpt>
      <trkpt lat="41.24348" lon="-8.71448">
        <ele>25.4</ele>
      </trkpt>
      <trkpt lat="41.24372" lon="-8.7147">
        <ele>25.9</ele>
      </trkpt>
      <trkpt lat="41.24453" lon="-8.71561">
        <ele>28.2</ele>
      </trkpt>
      <trkpt lat="41.24494" lon="-8.71602">
        <ele>28.2</ele>
      </trkpt>
      <trkpt lat="41.2452" lon="-8.7161">
        <ele>28.6</ele>
      </trkpt>
      <trkpt lat="41.24559" lon="-8.71596">
        <ele>29.4</ele>
      </trkpt>
      <trkpt lat="41.24576" lon="-8.71605">
        <ele>29.6</ele>
      </trkpt>
      <trkpt lat="41.24618" lon="-8.71639">
        <ele>29.1</ele>
      </trkpt>
      <trkpt lat="41.24677" lon="-8.71696">
        <ele>26.7</ele>
      </trkpt>
      <trkpt lat="41.24695" lon="-8.71716">
        <ele>24.5</ele>
      </trkpt>
      <trkpt lat="41.24763" lon="-8.71781">
        <ele>18.9</ele>
      </trkpt>
      <trkpt lat="41.24788" lon="-8.71797">
        <ele>18.3</ele>
      </trkpt>
      <trkpt lat="41.248" lon="-8.71803">
        <ele>18.1</ele>
      </trkpt>
      <trkpt lat="41.24802" lon="-8.71815">
        <ele>17.7</ele>
      </trkpt>
      <trkpt lat="41.24815" lon="-8.71916">
        <ele>14.2</ele>
      </trkpt>
      <trkpt lat="41.24883" lon="-8.71904">
        <ele>14.5</ele>
      </trkpt>
      <trkpt lat="41.24938" lon="-8.71894">
        <ele>16.1</ele>
      </trkpt>
      <trkpt lat="41.24969" lon="-8.71889">
        <ele>18</ele>
      </trkpt>
      <trkpt lat="41.24992" lon="-8.71888">
        <ele>19.3</ele>
      </trkpt>
      <trkpt lat="41.25017" lon="-8.71889">
        <ele>19.7</ele>
      </trkpt>
      <trkpt lat="41.25027" lon="-8.71891">
        <ele>19.6</ele>
      </trkpt>
      <trkpt lat="41.25029" lon="-8.71892">
        <ele>19.5</ele>
      </trkpt>
      <trkpt lat="41.25035" lon="-8.71893">
        <ele>19.4</ele>
      </trkpt>
      <trkpt lat="41.25041" lon="-8.71894">
        <ele>19.3</ele>
      </trkpt>
      <trkpt lat="41.25087" lon="-8.71906">
        <ele>18.2</ele>
      </trkpt>
      <trkpt lat="41.25124" lon="-8.71917">
        <ele>17.5</ele>
      </trkpt>
      <trkpt lat="41.25155" lon="-8.71928">
        <ele>17.5</ele>
      </trkpt>
      <trkpt lat="41.25162" lon="-8.7193">
        <ele>17.5</ele>
      </trkpt>
      <trkpt lat="41.25168" lon="-8.71933">
        <ele>17.4</ele>
      </trkpt>
      <trkpt lat="41.25184" lon="-8.71943">
        <ele>16.9</ele>
      </trkpt>
      <trkpt lat="41.25211" lon="-8.71956">
        <ele>16.3</ele>
      </trkpt>
      <trkpt lat="41.25225" lon="-8.71966">
        <ele>15.9</ele>
      </trkpt>
      <trkpt lat="41.25252" lon="-8.71986">
        <ele>15.3</ele>
      </trkpt>
      <trkpt lat="41.25255" lon="-8.71989">
        <ele>15.3</ele>
      </trkpt>
      <trkpt lat="41.25259" lon="-8.71992">
        <ele>15.2</ele>
      </trkpt>
      <trkpt lat="41.25287" lon="-8.72015">
        <ele>14.7</ele>
      </trkpt>
      <trkpt lat="41.25337" lon="-8.72042">
        <ele>14</ele>
      </trkpt>
      <trkpt lat="41.25401" lon="-8.72083">
        <ele>13.8</ele>
      </trkpt>
      <trkpt lat="41.25408" lon="-8.72088">
        <ele>13.6</ele>
      </trkpt>
      <trkpt lat="41.25413" lon="-8.72092">
        <ele>13.4</ele>
      </trkpt>
      <trkpt lat="41.2544" lon="-8.72112">
        <ele>12.3</ele>
      </trkpt>
      <trkpt lat="41.25459" lon="-8.72126">
        <ele>11.7</ele>
      </trkpt>
      <trkpt lat="41.25468" lon="-8.72132">
        <ele>11.5</ele>
      </trkpt>
      <trkpt lat="41.25493" lon="-8.72145">
        <ele>11.4</ele>
      </trkpt>
      <trkpt lat="41.2553" lon="-8.72159">
        <ele>10.4</ele>
      </trkpt>
      <trkpt lat="41.25556" lon="-8.72175">
        <ele>9.4</ele>
      </trkpt>
      <trkpt lat="41.25573" lon="-8.72193">
        <ele>8.5</ele>
      </trkpt>
      <trkpt lat="41.25589" lon="-8.72212">
        <ele>8</ele>
      </trkpt>
      <trkpt lat="41.25632" lon="-8.72272">
        <ele>5.6</ele>
      </trkpt>
      <trkpt lat="41.25666" lon="-8.72297">
        <ele>3.5</ele>
      </trkpt>
      <trkpt lat="41.25679" lon="-8.72303">
        <ele>2.9</ele>
      </trkpt>
      <trkpt lat="41.25688" lon="-8.72308">
        <ele>2.4</ele>
      </trkpt>
      <trkpt lat="41.25694" lon="-8.7231">
        <ele>2.2</ele>
      </trkpt>
      <trkpt lat="41.2574" lon="-8.72327">
        <ele>0.6</ele>
      </trkpt>
      <trkpt lat="41.25766" lon="-8.72333">
        <ele>5</ele>
      </trkpt>
      <trkpt lat="41.25783" lon="-8.72333">
        <ele>4.8</ele>
      </trkpt>
      <trkpt lat="41.25815" lon="-8.72325">
        <ele>0.8</ele>
      </trkpt>
      <trkpt lat="41.25836" lon="-8.72325">
        <ele>0.9</ele>
      </trkpt>
      <trkpt lat="41.2585" lon="-8.72328">
        <ele>1</ele>
      </trkpt>
      <trkpt lat="41.25883" lon="-8.72343">
        <ele>1.6</ele>
      </trkpt>
      <trkpt lat="41.25907" lon="-8.72355">
        <ele>2</ele>
      </trkpt>
      <trkpt lat="41.25927" lon="-8.72363">
        <ele>2</ele>
      </trkpt>
      <trkpt lat="41.25966" lon="-8.7238">
        <ele>1.6</ele>
      </trkpt>
      <trkpt lat="41.25989" lon="-8.7239">
        <ele>1.2</ele>
      </trkpt>
      <trkpt lat="41.26" lon="-8.72387">
        <ele>1.4</ele>
      </trkpt>
      <trkpt lat="41.26005" lon="-8.72388">
        <ele>1.6</ele>
      </trkpt>
      <trkpt lat="41.26007" lon="-8.72387">
        <ele>1.7</ele>
      </trkpt>
      <trkpt lat="41.26009" lon="-8.72387">
        <ele>1.8</ele>
      </trkpt>
      <trkpt lat="41.26012" lon="-8.72387">
        <ele>1.9</ele>
      </trkpt>
      <trkpt lat="41.2602" lon="-8.72389">
        <ele>2.2</ele>
      </trkpt>
      <trkpt lat="41.26026" lon="-8.72391">
        <ele>2.4</ele>
      </trkpt>
      <trkpt lat="41.26029" lon="-8.72392">
        <ele>2.5</ele>
      </trkpt>
      <trkpt lat="41.2603" lon="-8.72394">
        <ele>2.4</ele>
      </trkpt>
      <trkpt lat="41.26036" lon="-8.72396">
        <ele>2.6</ele>
      </trkpt>
      <trkpt lat="41.26041" lon="-8.72399">
        <ele>2.7</ele>
      </trkpt>
      <trkpt lat="41.26046" lon="-8.72403">
        <ele>2.8</ele>
      </trkpt>
      <trkpt lat="41.26066" lon="-8.72413">
        <ele>3.3</ele>
      </trkpt>
      <trkpt lat="41.26072" lon="-8.72415">
        <ele>3.5</ele>
      </trkpt>
      <trkpt lat="41.26077" lon="-8.72418">
        <ele>3.6</ele>
      </trkpt>
      <trkpt lat="41.26115" lon="-8.72437">
        <ele>3.3</ele>
      </trkpt>
      <trkpt lat="41.26181" lon="-8.72472">
        <ele>2.7</ele>
      </trkpt>
      <trkpt lat="41.26186" lon="-8.72474">
        <ele>2.9</ele>
      </trkpt>
      <trkpt lat="41.26204" lon="-8.72484">
        <ele>3.8</ele>
      </trkpt>
      <trkpt lat="41.26249" lon="-8.72507">
        <ele>6.3</ele>
      </trkpt>
      <trkpt lat="41.26374" lon="-8.72573">
        <ele>7.1</ele>
      </trkpt>
      <trkpt lat="41.2638" lon="-8.72576">
        <ele>7</ele>
      </trkpt>
      <trkpt lat="41.2647" lon="-8.72624">
        <ele>4.9</ele>
      </trkpt>
      <trkpt lat="41.26474" lon="-8.72626">
        <ele>5</ele>
      </trkpt>
      <trkpt lat="41.26481" lon="-8.7263">
        <ele>5.2</ele>
      </trkpt>
      <trkpt lat="41.26485" lon="-8.72631">
        <ele>5.4</ele>
      </trkpt>
      <trkpt lat="41.26526" lon="-8.72653">
        <ele>6.4</ele>
      </trkpt>
      <trkpt lat="41.26532" lon="-8.72656">
        <ele>6.4</ele>
      </trkpt>
      <trkpt lat="41.26539" lon="-8.72659">
        <ele>6.5</ele>
      </trkpt>
      <trkpt lat="41.26563" lon="-8.72671">
        <ele>6.4</ele>
      </trkpt>
      <trkpt lat="41.26631" lon="-8.72663">
        <ele>7.6</ele>
      </trkpt>
      <trkpt lat="41.26642" lon="-8.7266">
        <ele>7.8</ele>
      </trkpt>
      <trkpt lat="41.26663" lon="-8.72656">
        <ele>8.2</ele>
      </trkpt>
      <trkpt lat="41.26668" lon="-8.72644">
        <ele>8.5</ele>
      </trkpt>
      <trkpt lat="41.26674" lon="-8.72643">
        <ele>8.5</ele>
      </trkpt>
      <trkpt lat="41.26753" lon="-8.72631">
        <ele>8.6</ele>
      </trkpt>
      <trkpt lat="41.26761" lon="-8.7263">
        <ele>8.2</ele>
      </trkpt>
      <trkpt lat="41.26767" lon="-8.72629">
        <ele>8</ele>
      </trkpt>
      <trkpt lat="41.26868" lon="-8.72617">
        <ele>6.1</ele>
      </trkpt>
      <trkpt lat="41.26871" lon="-8.72619">
        <ele>5.8</ele>
      </trkpt>
      <trkpt lat="41.2688" lon="-8.72609">
        <ele>6.8</ele>
      </trkpt>
      <trkpt lat="41.26886" lon="-8.72608">
        <ele>6.9</ele>
      </trkpt>
      <trkpt lat="41.26908" lon="-8.72607">
        <ele>6.6</ele>
      </trkpt>
      <trkpt lat="41.26974" lon="-8.72604">
        <ele>5.7</ele>
      </trkpt>
      <trkpt lat="41.27007" lon="-8.72598">
        <ele>5.6</ele>
      </trkpt>
      <trkpt lat="41.27008" lon="-8.72599">
        <ele>5.5</ele>
      </trkpt>
      <trkpt lat="41.27081" lon="-8.72646">
        <ele>1</ele>
      </trkpt>
      <trkpt lat="41.27165" lon="-8.72717">
      </trkpt>
      <trkpt lat="41.2718" lon="-8.72728">
        <ele>0.3</ele>
      </trkpt>
      <trkpt lat="41.27229" lon="-8.72743">
        <ele>0.5</ele>
      </trkpt>
      <trkpt lat="41.27233" lon="-8.72745">
        <ele>0.4</ele>
      </trkpt>
      <trkpt lat="41.27348" lon="-8.7276">
        <ele>9</ele>
      </trkpt>
      <trkpt lat="41.27348" lon="-8.7275">
        <ele>9</ele>
      </trkpt>
      <trkpt lat="41.2735" lon="-8.72735">
        <ele>1.5</ele>
      </trkpt>
      <trkpt lat="41.27354" lon="-8.72694">
        <ele>5.9</ele>
      </trkpt>
      <trkpt lat="41.27366" lon="-8.72653">
        <ele>9.2</ele>
      </trkpt>
      <trkpt lat="41.2737" lon="-8.7264">
        <ele>9.3</ele>
      </trkpt>
      <trkpt lat="41.27395" lon="-8.72559">
        <ele>11.1</ele>
      </trkpt>
      <trkpt lat="41.27486" lon="-8.72557">
        <ele>12.8</ele>
      </trkpt>
      <trkpt lat="41.27524" lon="-8.72564">
        <ele>13.8</ele>
      </trkpt>
      <trkpt lat="41.27528" lon="-8.72555">
        <ele>14.2</ele>
      </trkpt>
      <trkpt lat="41.27573" lon="-8.72444">
        <ele>17.8</ele>
      </trkpt>
      <trkpt lat="41.27594" lon="-8.72381">
        <ele>19.2</ele>
      </trkpt>
      <trkpt lat="41.27598" lon="-8.72377">
        <ele>19.4</ele>
      </trkpt>
      <trkpt lat="41.27611" lon="-8.72372">
        <ele>19.9</ele>
      </trkpt>
      <trkpt lat="41.27615" lon="-8.72375">
        <ele>19.9</ele>
      </trkpt>
      <trkpt lat="41.27629" lon="-8.72342">
        <ele>21.4</ele>
      </trkpt>
      <trkpt lat="41.27654" lon="-8.72351">
        <ele>21.9</ele>
      </trkpt>
      <trkpt lat="41.27691" lon="-8.72367">
        <ele>23</ele>
      </trkpt>
      <trkpt lat="41.27738" lon="-8.72389">
        <ele>24.4</ele>
      </trkpt>
      <trkpt lat="41.27779" lon="-8.72214">
        <ele>30.6</ele>
      </trkpt>
      <trkpt lat="41.27845" lon="-8.72241">
        <ele>28.8</ele>
      </trkpt>
      <trkpt lat="41.27907" lon="-8.72266">
        <ele>30.3</ele>
      </trkpt>
      <trkpt lat="41.2795" lon="-8.72266">
        <ele>30.5</ele>
      </trkpt>
      <trkpt lat="41.27987" lon="-8.7226">
        <ele>30.7</ele>
      </trkpt>
      <trkpt lat="41.28002" lon="-8.72253">
        <ele>30.9</ele>
      </trkpt>
      <trkpt lat="41.28005" lon="-8.72257">
        <ele>30.8</ele>
      </trkpt>
      <trkpt lat="41.28019" lon="-8.72276">
        <ele>30.3</ele>
      </trkpt>
      <trkpt lat="41.28034" lon="-8.72286">
        <ele>30.1</ele>
      </trkpt>
      <trkpt lat="41.28149" lon="-8.72344">
        <ele>28.8</ele>
      </trkpt>
      <trkpt lat="41.28167" lon="-8.7236">
        <ele>28.7</ele>
      </trkpt>
      <trkpt lat="41.28183" lon="-8.72382">
        <ele>28.5</ele>
      </trkpt>
      <trkpt lat="41.28214" lon="-8.72413">
        <ele>28.6</ele>
      </trkpt>
      <trkpt lat="41.28221" lon="-8.72416">
        <ele>28.7</ele>
      </trkpt>
      <trkpt lat="41.28245" lon="-8.72415">
        <ele>28.9</ele>
      </trkpt>
      <trkpt lat="41.28318" lon="-8.72408">
        <ele>28.2</ele>
      </trkpt>
      <trkpt lat="41.28366" lon="-8.72407">
        <ele>27.6</ele>
      </trkpt>
      <trkpt lat="41.28434" lon="-8.7241">
        <ele>26.6</ele>
      </trkpt>
      <trkpt lat="41.28455" lon="-8.72417">
        <ele>26.1</ele>
      </trkpt>
      <trkpt lat="41.28473" lon="-8.72424">
        <ele>25.6</ele>
      </trkpt>
      <trkpt lat="41.28489" lon="-8.72432">
        <ele>25.2</ele>
      </trkpt>
      <trkpt lat="41.28509" lon="-8.72445">
        <ele>24.9</ele>
      </trkpt>
      <trkpt lat="41.28564" lon="-8.72486">
        <ele>24.2</ele>
      </trkpt>
      <trkpt lat="41.28662" lon="-8.72556">
        <ele>21.4</ele>
      </trkpt>
      <trkpt lat="41.28711" lon="-8.72587">
        <ele>19.3</ele>
      </trkpt>
      <trkpt lat="41.28741" lon="-8.726">
        <ele>18.3</ele>
      </trkpt>
      <trkpt lat="41.28748" lon="-8.72603">
        <ele>18.1</ele>
      </trkpt>
      <trkpt lat="41.28772" lon="-8.72611">
        <ele>17.4</ele>
      </trkpt>
      <trkpt lat="41.28819" lon="-8.72625">
        <ele>15.9</ele>
      </trkpt>
      <trkpt lat="41.28873" lon="-8.7264">
        <ele>17.1</ele>
      </trkpt>
      <trkpt lat="41.28896" lon="-8.72639">
        <ele>18.1</ele>
      </trkpt>
      <trkpt lat="41.28941" lon="-8.72616">
        <ele>19.6</ele>
      </trkpt>
      <trkpt lat="41.28985" lon="-8.72612">
        <ele>20.6</ele>
      </trkpt>
      <trkpt lat="41.29047" lon="-8.72584">
        <ele>22.1</ele>
      </trkpt>
      <trkpt lat="41.29082" lon="-8.72592">
        <ele>23</ele>
      </trkpt>
      <trkpt lat="41.29236" lon="-8.7264">
        <ele>23.2</ele>
      </trkpt>
      <trkpt lat="41.29236" lon="-8.72585">
        <ele>24</ele>
      </trkpt>
      <trkpt lat="41.29236" lon="-8.72555">
        <ele>24.3</ele>
      </trkpt>
      <trkpt lat="41.29243" lon="-8.72518">
        <ele>24.8</ele>
      </trkpt>
      <trkpt lat="41.29245" lon="-8.7251">
        <ele>24.9</ele>
      </trkpt>
      <trkpt lat="41.29297" lon="-8.72538">
        <ele>24.3</ele>
      </trkpt>
      <trkpt lat="41.29328" lon="-8.72552">
        <ele>23.8</ele>
      </trkpt>
      <trkpt lat="41.29335" lon="-8.72532">
        <ele>24.2</ele>
      </trkpt>
      <trkpt lat="41.29342" lon="-8.72521">
        <ele>24.3</ele>
      </trkpt>
      <trkpt lat="41.29358" lon="-8.72511">
        <ele>24.2</ele>
      </trkpt>
      <trkpt lat="41.29363" lon="-8.72506">
        <ele>24.2</ele>
      </trkpt>
      <trkpt lat="41.29382" lon="-8.72477">
        <ele>23.9</ele>
      </trkpt>
      <trkpt lat="41.29386" lon="-8.72455">
        <ele>23.9</ele>
      </trkpt>
      <trkpt lat="41.29387" lon="-8.72445">
        <ele>23.9</ele>
      </trkpt>
      <trkpt lat="41.294" lon="-8.72447">
        <ele>23.8</ele>
      </trkpt>
      <trkpt lat="41.29412" lon="-8.72449">
        <ele>23.7</ele>
      </trkpt>
      <trkpt lat="41.29454" lon="-8.72472">
        <ele>23.6</ele>
      </trkpt>
      <trkpt lat="41.29467" lon="-8.72476">
        <ele>23.7</ele>
      </trkpt>
      <trkpt lat="41.29472" lon="-8.72475">
        <ele>23.8</ele>
      </trkpt>
      <trkpt lat="41.29481" lon="-8.72469">
        <ele>23.9</ele>
      </trkpt>
      <trkpt lat="41.29492" lon="-8.72449">
        <ele>24</ele>
      </trkpt>
      <trkpt lat="41.29502" lon="-8.72445">
        <ele>24</ele>
      </trkpt>
      <trkpt lat="41.29586" lon="-8.72456">
        <ele>24</ele>
      </trkpt>
      <trkpt lat="41.2959" lon="-8.72458">
        <ele>23.9</ele>
      </trkpt>
      <trkpt lat="41.29599" lon="-8.72463">
        <ele>23.7</ele>
      </trkpt>
      <trkpt lat="41.29637" lon="-8.72486">
        <ele>22.7</ele>
      </trkpt>
      <trkpt lat="41.29655" lon="-8.72494">
        <ele>22.3</ele>
      </trkpt>
      <trkpt lat="41.2967" lon="-8.72495">
        <ele>22</ele>
      </trkpt>
      <trkpt lat="41.29681" lon="-8.72493">
        <ele>21.7</ele>
      </trkpt>
      <trkpt lat="41.29704" lon="-8.72482">
        <ele>21.1</ele>
      </trkpt>
      <trkpt lat="41.2971" lon="-8.7248">
        <ele>20.9</ele>
      </trkpt>
      <trkpt lat="41.29718" lon="-8.72478">
        <ele>20.7</ele>
      </trkpt>
      <trkpt lat="41.29719" lon="-8.72478">
        <ele>20.6</ele>
      </trkpt>
      <trkpt lat="41.29726" lon="-8.72479">
        <ele>20.4</ele>
      </trkpt>
      <trkpt lat="41.29734" lon="-8.72472">
        <ele>20.2</ele>
      </trkpt>
      <trkpt lat="41.29782" lon="-8.72487">
        <ele>19.9</ele>
      </trkpt>
      <trkpt lat="41.29809" lon="-8.72497">
        <ele>20.4</ele>
      </trkpt>
      <trkpt lat="41.29834" lon="-8.72494">
        <ele>20.9</ele>
      </trkpt>
      <trkpt lat="41.29857" lon="-8.72494">
        <ele>21.2</ele>
      </trkpt>
      <trkpt lat="41.29868" lon="-8.72494">
        <ele>21.4</ele>
      </trkpt>
      <trkpt lat="41.29937" lon="-8.72504">
        <ele>22.3</ele>
      </trkpt>
      <trkpt lat="41.2994" lon="-8.72504">
        <ele>22.3</ele>
      </trkpt>
      <trkpt lat="41.30008" lon="-8.72504">
        <ele>23.2</ele>
      </trkpt>
      <trkpt lat="41.30057" lon="-8.72515">
        <ele>24.1</ele>
      </trkpt>
      <trkpt lat="41.30072" lon="-8.72516">
        <ele>24.4</ele>
      </trkpt>
      <trkpt lat="41.30083" lon="-8.72513">
        <ele>24.5</ele>
      </trkpt>
      <trkpt lat="41.30091" lon="-8.72505">
        <ele>24.5</ele>
      </trkpt>
      <trkpt lat="41.30131" lon="-8.72487">
        <ele>25.9</ele>
      </trkpt>
      <trkpt lat="41.30178" lon="-8.72446">
        <ele>28.4</ele>
      </trkpt>
      <trkpt lat="41.30209" lon="-8.72423">
        <ele>28.5</ele>
      </trkpt>
      <trkpt lat="41.30221" lon="-8.72418">
        <ele>28.4</ele>
      </trkpt>
      <trkpt lat="41.30236" lon="-8.7242">
        <ele>28.3</ele>
      </trkpt>
      <trkpt lat="41.30313" lon="-8.7245">
        <ele>29.4</ele>
      </trkpt>
      <trkpt lat="41.30365" lon="-8.7245">
        <ele>31.5</ele>
      </trkpt>
      <trkpt lat="41.3051" lon="-8.72437">
        <ele>35.9</ele>
      </trkpt>
      <trkpt lat="41.3052" lon="-8.72438">
        <ele>35.5</ele>
      </trkpt>
      <trkpt lat="41.3054" lon="-8.72445">
        <ele>34.8</ele>
      </trkpt>
      <trkpt lat="41.30542" lon="-8.72452">
        <ele>35.1</ele>
      </trkpt>
      <trkpt lat="41.3054" lon="-8.72499">
        <ele>38.1</ele>
      </trkpt>
      <trkpt lat="41.30535" lon="-8.72592">
        <ele>38.9</ele>
      </trkpt>
      <trkpt lat="41.30592" lon="-8.72594">
        <ele>35.4</ele>
      </trkpt>
      <trkpt lat="41.30593" lon="-8.72621">
        <ele>36.5</ele>
      </trkpt>
      <trkpt lat="41.306" lon="-8.72717">
        <ele>37.2</ele>
      </trkpt>
      <trkpt lat="41.306" lon="-8.72734">
        <ele>36.9</ele>
      </trkpt>
      <trkpt lat="41.30594" lon="-8.72756">
        <ele>36.5</ele>
      </trkpt>
      <trkpt lat="41.30593" lon="-8.72775">
        <ele>35.7</ele>
      </trkpt>
      <trkpt lat="41.30597" lon="-8.72835">
        <ele>33.2</ele>
      </trkpt>
      <trkpt lat="41.30595" lon="-8.72847">
        <ele>33.3</ele>
      </trkpt>
      <trkpt lat="41.30575" lon="-8.72881">
        <ele>33.5</ele>
      </trkpt>
      <trkpt lat="41.30569" lon="-8.72896">
        <ele>33.7</ele>
      </trkpt>
      <trkpt lat="41.30578" lon="-8.73029">
        <ele>35.8</ele>
      </trkpt>
      <trkpt lat="41.30592" lon="-8.73029">
        <ele>35.4</ele>
      </trkpt>
      <trkpt lat="41.30616" lon="-8.73029">
        <ele>34.6</ele>
      </trkpt>
      <trkpt lat="41.30619" lon="-8.73029">
        <ele>34.5</ele>
      </trkpt>
      <trkpt lat="41.30662" lon="-8.7303">
        <ele>33.1</ele>
      </trkpt>
      <trkpt lat="41.30717" lon="-8.7303">
        <ele>29.5</ele>
      </trkpt>
      <trkpt lat="41.30776" lon="-8.73029">
        <ele>28.3</ele>
      </trkpt>
      <trkpt lat="41.30904" lon="-8.73031">
        <ele>29.9</ele>
      </trkpt>
      <trkpt lat="41.30953" lon="-8.73029">
        <ele>28.3</ele>
      </trkpt>
      <trkpt lat="41.31032" lon="-8.73031">
        <ele>25.5</ele>
      </trkpt>
      <trkpt lat="41.31035" lon="-8.73015">
        <ele>25.8</ele>
      </trkpt>
      <trkpt lat="41.31094" lon="-8.73039">
        <ele>23.9</ele>
      </trkpt>
      <trkpt lat="41.31105" lon="-8.7304">
        <ele>23.6</ele>
      </trkpt>
      <trkpt lat="41.31139" lon="-8.73055">
        <ele>22.8</ele>
      </trkpt>
      <trkpt lat="41.31202" lon="-8.7308">
        <ele>21.6</ele>
      </trkpt>
      <trkpt lat="41.31312" lon="-8.73123">
        <ele>20.8</ele>
      </trkpt>
      <trkpt lat="41.31407" lon="-8.73164">
        <ele>20</ele>
      </trkpt>
      <trkpt lat="41.314" lon="-8.73186">
        <ele>19.4</ele>
      </trkpt>
      <trkpt lat="41.31385" lon="-8.73252">
        <ele>17.3</ele>
      </trkpt>
      <trkpt lat="41.3143" lon="-8.73283">
        <ele>16.3</ele>
      </trkpt>
      <trkpt lat="41.31451" lon="-8.73297">
        <ele>16.1</ele>
      </trkpt>
      <trkpt lat="41.31482" lon="-8.73309">
        <ele>16.1</ele>
      </trkpt>
      <trkpt lat="41.31536" lon="-8.73323">
        <ele>14.9</ele>
      </trkpt>
      <trkpt lat="41.31603" lon="-8.73343">
        <ele>12.6</ele>
      </trkpt>
      <trkpt lat="41.31679" lon="-8.73421">
        <ele>9</ele>
      </trkpt>
      <trkpt lat="41.31755" lon="-8.73482">
        <ele>9.9</ele>
      </trkpt>
      <trkpt lat="41.31766" lon="-8.73495">
        <ele>9.6</ele>
      </trkpt>
      <trkpt lat="41.31769" lon="-8.73517">
        <ele>9.1</ele>
      </trkpt>
      <trkpt lat="41.31769" lon="-8.73535">
        <ele>8.7</ele>
      </trkpt>
      <trkpt lat="41.31776" lon="-8.73548">
        <ele>8.2</ele>
      </trkpt>
      <trkpt lat="41.31795" lon="-8.73547">
        <ele>7.8</ele>
      </trkpt>
      <trkpt lat="41.31812" lon="-8.73546">
        <ele>7.4</ele>
      </trkpt>
      <trkpt lat="41.31829" lon="-8.73537">
        <ele>7.2</ele>
      </trkpt>
      <trkpt lat="41.31862" lon="-8.73524">
        <ele>7.1</ele>
      </trkpt>
      <trkpt lat="41.31899" lon="-8.73517">
        <ele>6.8</ele>
      </trkpt>
      <trkpt lat="41.31917" lon="-8.7351">
        <ele>6.8</ele>
      </trkpt>
      <trkpt lat="41.31929" lon="-8.73496">
        <ele>6.9</ele>
      </trkpt>
      <trkpt lat="41.31967" lon="-8.73467">
        <ele>7</ele>
      </trkpt>
      <trkpt lat="41.31989" lon="-8.73448">
        <ele>7.3</ele>
      </trkpt>
      <trkpt lat="41.31997" lon="-8.73443">
        <ele>7.4</ele>
      </trkpt>
      <trkpt lat="41.32023" lon="-8.73435">
        <ele>8</ele>
      </trkpt>
      <trkpt lat="41.32046" lon="-8.73435">
        <ele>8.4</ele>
      </trkpt>
      <trkpt lat="41.32075" lon="-8.73449">
        <ele>8.8</ele>
      </trkpt>
      <trkpt lat="41.32087" lon="-8.7345">
        <ele>9</ele>
      </trkpt>
      <trkpt lat="41.32111" lon="-8.73441">
        <ele>8.8</ele>
      </trkpt>
      <trkpt lat="41.32116" lon="-8.73438">
        <ele>8.8</ele>
      </trkpt>
      <trkpt lat="41.3213" lon="-8.73421">
        <ele>8.9</ele>
      </trkpt>
      <trkpt lat="41.32139" lon="-8.73421">
        <ele>8.9</ele>
      </trkpt>
      <trkpt lat="41.32153" lon="-8.73425">
        <ele>8.8</ele>
      </trkpt>
      <trkpt lat="41.32169" lon="-8.73424">
        <ele>8.9</ele>
      </trkpt>
      <trkpt lat="41.32179" lon="-8.73421">
        <ele>9</ele>
      </trkpt>
      <trkpt lat="41.32185" lon="-8.7342">
        <ele>9.1</ele>
      </trkpt>
      <trkpt lat="41.322" lon="-8.7342">
        <ele>9.3</ele>
      </trkpt>
      <trkpt lat="41.32214" lon="-8.73415">
        <ele>9.6</ele>
      </trkpt>
      <trkpt lat="41.32225" lon="-8.73414">
        <ele>9.8</ele>
      </trkpt>
      <trkpt lat="41.32253" lon="-8.73413">
        <ele>10</ele>
      </trkpt>
      <trkpt lat="41.32263" lon="-8.73412">
        <ele>9.8</ele>
      </trkpt>
      <trkpt lat="41.32268" lon="-8.73409">
        <ele>9.7</ele>
      </trkpt>
      <trkpt lat="41.32288" lon="-8.73413">
        <ele>9.1</ele>
      </trkpt>
      <trkpt lat="41.32294" lon="-8.73418">
        <ele>8.9</ele>
      </trkpt>
      <trkpt lat="41.32306" lon="-8.7342">
        <ele>8.7</ele>
      </trkpt>
      <trkpt lat="41.32324" lon="-8.73434">
        <ele>8.4</ele>
      </trkpt>
      <trkpt lat="41.32352" lon="-8.73449">
        <ele>7.8</ele>
      </trkpt>
      <trkpt lat="41.32373" lon="-8.73472">
        <ele>7.1</ele>
      </trkpt>
      <trkpt lat="41.32381" lon="-8.73475">
        <ele>6.8</ele>
      </trkpt>
      <trkpt lat="41.32387" lon="-8.73476">
        <ele>6.5</ele>
      </trkpt>
      <trkpt lat="41.32391" lon="-8.73477">
        <ele>6.3</ele>
      </trkpt>
      <trkpt lat="41.32397" lon="-8.73475">
        <ele>6.1</ele>
      </trkpt>
      <trkpt lat="41.3247" lon="-8.7348">
        <ele>4.8</ele>
      </trkpt>
      <trkpt lat="41.3254" lon="-8.73482">
        <ele>5.4</ele>
      </trkpt>
      <trkpt lat="41.32543" lon="-8.73479">
        <ele>5.5</ele>
      </trkpt>
      <trkpt lat="41.32562" lon="-8.73468">
        <ele>6.3</ele>
      </trkpt>
      <trkpt lat="41.32566" lon="-8.73465">
        <ele>6.4</ele>
      </trkpt>
      <trkpt lat="41.32574" lon="-8.73445">
        <ele>7.1</ele>
      </trkpt>
      <trkpt lat="41.32589" lon="-8.73421">
        <ele>7.9</ele>
      </trkpt>
      <trkpt lat="41.32618" lon="-8.7341">
        <ele>8.1</ele>
      </trkpt>
      <trkpt lat="41.32632" lon="-8.73408">
        <ele>8.2</ele>
      </trkpt>
      <trkpt lat="41.32639" lon="-8.73405">
        <ele>8.2</ele>
      </trkpt>
      <trkpt lat="41.32648" lon="-8.73407">
        <ele>8.2</ele>
      </trkpt>
      <trkpt lat="41.32665" lon="-8.73405">
        <ele>8.3</ele>
      </trkpt>
      <trkpt lat="41.32685" lon="-8.73408">
        <ele>8.2</ele>
      </trkpt>
      <trkpt lat="41.32694" lon="-8.73406">
        <ele>8.3</ele>
      </trkpt>
      <trkpt lat="41.32756" lon="-8.7337">
        <ele>9.4</ele>
      </trkpt>
      <trkpt lat="41.32778" lon="-8.73365">
        <ele>10.8</ele>
      </trkpt>
      <trkpt lat="41.32813" lon="-8.73365">
        <ele>12.7</ele>
      </trkpt>
      <trkpt lat="41.32916" lon="-8.73375">
        <ele>13.5</ele>
      </trkpt>
      <trkpt lat="41.32935" lon="-8.73375">
        <ele>13.9</ele>
      </trkpt>
      <trkpt lat="41.33078" lon="-8.73382">
        <ele>16.6</ele>
      </trkpt>
      <trkpt lat="41.33167" lon="-8.73386">
        <ele>16.1</ele>
      </trkpt>
      <trkpt lat="41.33197" lon="-8.73282">
        <ele>19.6</ele>
      </trkpt>
      <trkpt lat="41.33245" lon="-8.73116">
        <ele>24.6</ele>
      </trkpt>
      <trkpt lat="41.33254" lon="-8.73096">
        <ele>24.8</ele>
      </trkpt>
      <trkpt lat="41.33287" lon="-8.73117">
        <ele>23.9</ele>
      </trkpt>
      <trkpt lat="41.33317" lon="-8.73133">
        <ele>23.3</ele>
      </trkpt>
      <trkpt lat="41.33361" lon="-8.73157">
        <ele>22.5</ele>
      </trkpt>
      <trkpt lat="41.33384" lon="-8.73169">
        <ele>21.7</ele>
      </trkpt>
      <trkpt lat="41.33548" lon="-8.7325">
        <ele>18.6</ele>
      </trkpt>
      <trkpt lat="41.33568" lon="-8.73261">
        <ele>18.6</ele>
      </trkpt>
      <trkpt lat="41.33637" lon="-8.73308">
        <ele>15.6</ele>
      </trkpt>
      <trkpt lat="41.3367" lon="-8.73326">
        <ele>13.3</ele>
      </trkpt>
      <trkpt lat="41.33673" lon="-8.73325">
        <ele>13.2</ele>
      </trkpt>
      <trkpt lat="41.33676" lon="-8.73325">
        <ele>13</ele>
      </trkpt>
      <trkpt lat="41.33679" lon="-8.73327">
        <ele>12.7</ele>
      </trkpt>
      <trkpt lat="41.33681" lon="-8.7333">
        <ele>12.5</ele>
      </trkpt>
      <trkpt lat="41.33682" lon="-8.73333">
        <ele>12.3</ele>
      </trkpt>
      <trkpt lat="41.33712" lon="-8.73356">
        <ele>10.3</ele>
      </trkpt>
      <trkpt lat="41.33802" lon="-8.73399">
        <ele>6.3</ele>
      </trkpt>
      <trkpt lat="41.3383" lon="-8.734">
        <ele>5.3</ele>
      </trkpt>
      <trkpt lat="41.3391" lon="-8.73398">
        <ele>8.2</ele>
      </trkpt>
      <trkpt lat="41.33997" lon="-8.73416">
        <ele>9</ele>
      </trkpt>
      <trkpt lat="41.34088" lon="-8.73434">
        <ele>15.7</ele>
      </trkpt>
      <trkpt lat="41.34107" lon="-8.73437">
        <ele>16</ele>
      </trkpt>
      <trkpt lat="41.34139" lon="-8.73444">
        <ele>16.7</ele>
      </trkpt>
      <trkpt lat="41.34145" lon="-8.73445">
        <ele>16.8</ele>
      </trkpt>
      <trkpt lat="41.34156" lon="-8.73441">
        <ele>17.1</ele>
      </trkpt>
      <trkpt lat="41.34164" lon="-8.73427">
        <ele>17.1</ele>
      </trkpt>
      <trkpt lat="41.34169" lon="-8.73415">
        <ele>17.2</ele>
      </trkpt>
      <trkpt lat="41.34168" lon="-8.7341">
        <ele>17.3</ele>
      </trkpt>
      <trkpt lat="41.34168" lon="-8.73404">
        <ele>17.5</ele>
      </trkpt>
      <trkpt lat="41.3417" lon="-8.73399">
        <ele>17.9</ele>
      </trkpt>
      <trkpt lat="41.34175" lon="-8.73393">
        <ele>18.4</ele>
      </trkpt>
      <trkpt lat="41.3418" lon="-8.73391">
        <ele>18.8</ele>
      </trkpt>
      <trkpt lat="41.34182" lon="-8.73391">
        <ele>19</ele>
      </trkpt>
      <trkpt lat="41.34186" lon="-8.73393">
        <ele>19.1</ele>
      </trkpt>
      <trkpt lat="41.34191" lon="-8.73397">
        <ele>19.3</ele>
      </trkpt>
      <trkpt lat="41.34195" lon="-8.73404">
        <ele>19.3</ele>
      </trkpt>
      <trkpt lat="41.34198" lon="-8.7341">
        <ele>19.2</ele>
      </trkpt>
      <trkpt lat="41.342" lon="-8.73414">
        <ele>19.1</ele>
      </trkpt>
      <trkpt lat="41.34201" lon="-8.7342">
        <ele>19</ele>
      </trkpt>
      <trkpt lat="41.342" lon="-8.73425">
        <ele>18.9</ele>
      </trkpt>
      <trkpt lat="41.34208" lon="-8.73443">
        <ele>19.2</ele>
      </trkpt>
      <trkpt lat="41.34232" lon="-8.73479">
        <ele>19.3</ele>
      </trkpt>
      <trkpt lat="41.3424" lon="-8.7347">
        <ele>19.8</ele>
      </trkpt>
      <trkpt lat="41.34337" lon="-8.73493">
        <ele>21.4</ele>
      </trkpt>
      <trkpt lat="41.34363" lon="-8.73499">
        <ele>21.8</ele>
      </trkpt>
      <trkpt lat="41.34388" lon="-8.73505">
        <ele>22.2</ele>
      </trkpt>
      <trkpt lat="41.34433" lon="-8.73515">
        <ele>23.3</ele>
      </trkpt>
      <trkpt lat="41.34449" lon="-8.73519">
        <ele>23.8</ele>
      </trkpt>
      <trkpt lat="41.34473" lon="-8.73527">
        <ele>24.6</ele>
      </trkpt>
      <trkpt lat="41.34486" lon="-8.73531">
        <ele>25.1</ele>
      </trkpt>
      <trkpt lat="41.34495" lon="-8.73538">
        <ele>25.3</ele>
      </trkpt>
      <trkpt lat="41.34499" lon="-8.73542">
        <ele>25.5</ele>
      </trkpt>
      <trkpt lat="41.34501" lon="-8.73546">
        <ele>25.5</ele>
      </trkpt>
      <trkpt lat="41.3451" lon="-8.73549">
        <ele>25.7</ele>
      </trkpt>
      <trkpt lat="41.3453" lon="-8.73565">
        <ele>26.2</ele>
      </trkpt>
      <trkpt lat="41.3455" lon="-8.73585">
        <ele>26.8</ele>
      </trkpt>
      <trkpt lat="41.34567" lon="-8.73601">
        <ele>27.1</ele>
      </trkpt>
      <trkpt lat="41.34586" lon="-8.73616">
        <ele>27.7</ele>
      </trkpt>
      <trkpt lat="41.34618" lon="-8.73644">
        <ele>27.9</ele>
      </trkpt>
      <trkpt lat="41.34661" lon="-8.73685">
        <ele>27</ele>
      </trkpt>
      <trkpt lat="41.34694" lon="-8.73711">
        <ele>25.9</ele>
      </trkpt>
      <trkpt lat="41.34715" lon="-8.73721">
        <ele>25.4</ele>
      </trkpt>
      <trkpt lat="41.34717" lon="-8.73722">
        <ele>25.3</ele>
      </trkpt>
      <trkpt lat="41.34756" lon="-8.73744">
        <ele>24.2</ele>
      </trkpt>
      <trkpt lat="41.34779" lon="-8.7375">
        <ele>23.7</ele>
      </trkpt>
      <trkpt lat="41.34784" lon="-8.73751">
        <ele>23.5</ele>
      </trkpt>
      <trkpt lat="41.34804" lon="-8.73753">
        <ele>23</ele>
      </trkpt>
      <trkpt lat="41.34814" lon="-8.73754">
        <ele>22.8</ele>
      </trkpt>
      <trkpt lat="41.34835" lon="-8.73756">
        <ele>22.4</ele>
      </trkpt>
      <trkpt lat="41.34859" lon="-8.73754">
        <ele>22.6</ele>
      </trkpt>
      <trkpt lat="41.34872" lon="-8.73753">
        <ele>22.7</ele>
      </trkpt>
      <trkpt lat="41.34898" lon="-8.73757">
        <ele>22.2</ele>
      </trkpt>
      <trkpt lat="41.3492" lon="-8.73764">
        <ele>21.4</ele>
      </trkpt>
      <trkpt lat="41.34943" lon="-8.7377">
        <ele>21.2</ele>
      </trkpt>
      <trkpt lat="41.34948" lon="-8.73772">
        <ele>21.1</ele>
      </trkpt>
      <trkpt lat="41.34957" lon="-8.73777">
        <ele>20.7</ele>
      </trkpt>
      <trkpt lat="41.3497" lon="-8.73787">
        <ele>19.8</ele>
      </trkpt>
      <trkpt lat="41.34988" lon="-8.73805">
        <ele>18.1</ele>
      </trkpt>
      <trkpt lat="41.34996" lon="-8.73814">
        <ele>17.2</ele>
      </trkpt>
      <trkpt lat="41.3501" lon="-8.7383">
        <ele>15.2</ele>
      </trkpt>
      <trkpt lat="41.35027" lon="-8.73845">
        <ele>13</ele>
      </trkpt>
      <trkpt lat="41.35047" lon="-8.73862">
        <ele>10.4</ele>
      </trkpt>
      <trkpt lat="41.35042" lon="-8.73878">
        <ele>8.6</ele>
      </trkpt>
      <trkpt lat="41.35036" lon="-8.73896">
        <ele>6.6</ele>
      </trkpt>
      <trkpt lat="41.35071" lon="-8.73914">
        <ele>3.6</ele>
      </trkpt>
      <trkpt lat="41.35165" lon="-8.73963">
        <ele>-1.6</ele>
      </trkpt>
      <trkpt lat="41.35168" lon="-8.73965">
        <ele>-1.6</ele>
      </trkpt>
      <trkpt lat="41.35184" lon="-8.73973">
        <ele>-0.7</ele>
      </trkpt>
      <trkpt lat="41.35198" lon="-8.7398">
        <ele>0.2</ele>
      </trkpt>
      <trkpt lat="41.35211" lon="-8.73987">
        <ele>1</ele>
      </trkpt>
      <trkpt lat="41.35259" lon="-8.7401">
        <ele>4.9</ele>
      </trkpt>
      <trkpt lat="41.35299" lon="-8.74031">
        <ele>7.8</ele>
      </trkpt>
      <trkpt lat="41.35311" lon="-8.74039">
        <ele>8.3</ele>
      </trkpt>
      <trkpt lat="41.35319" lon="-8.74049">
        <ele>8.3</ele>
      </trkpt>
      <trkpt lat="41.35328" lon="-8.7405">
        <ele>8.7</ele>
      </trkpt>
      <trkpt lat="41.35339" lon="-8.74049">
        <ele>9.2</ele>
      </trkpt>
      <trkpt lat="41.35374" lon="-8.74062">
        <ele>8.9</ele>
      </trkpt>
      <trkpt lat="41.3541" lon="-8.74076">
        <ele>7.8</ele>
      </trkpt>
      <trkpt lat="41.3547" lon="-8.74097">
        <ele>9.8</ele>
      </trkpt>
      <trkpt lat="41.35472" lon="-8.74097">
        <ele>9.9</ele>
      </trkpt>
      <trkpt lat="41.35474" lon="-8.74101">
        <ele>9.9</ele>
      </trkpt>
      <trkpt lat="41.35477" lon="-8.74104">
        <ele>9.9</ele>
      </trkpt>
      <trkpt lat="41.35484" lon="-8.74112">
        <ele>10.1</ele>
      </trkpt>
      <trkpt lat="41.3549" lon="-8.7412">
        <ele>10.1</ele>
      </trkpt>
      <trkpt lat="41.35514" lon="-8.74138">
        <ele>11</ele>
      </trkpt>
      <trkpt lat="41.35518" lon="-8.74143">
        <ele>11.1</ele>
      </trkpt>
      <trkpt lat="41.3552" lon="-8.74148">
        <ele>11.1</ele>
      </trkpt>
      <trkpt lat="41.3552" lon="-8.74154">
        <ele>10.9</ele>
      </trkpt>
      <trkpt lat="41.35542" lon="-8.74161">
        <ele>12.2</ele>
      </trkpt>
      <trkpt lat="41.3559" lon="-8.74176">
        <ele>15.7</ele>
      </trkpt>
      <trkpt lat="41.35602" lon="-8.7418">
        <ele>16.5</ele>
      </trkpt>
      <trkpt lat="41.35601" lon="-8.74192">
        <ele>16.7</ele>
      </trkpt>
      <trkpt lat="41.35597" lon="-8.74217">
        <ele>17.2</ele>
      </trkpt>
      <trkpt lat="41.35595" lon="-8.7423">
        <ele>17.6</ele>
      </trkpt>
      <trkpt lat="41.35643" lon="-8.74245">
        <ele>18.7</ele>
      </trkpt>
      <trkpt lat="41.35635" lon="-8.74319">
        <ele>19.2</ele>
      </trkpt>
      <trkpt lat="41.35636" lon="-8.74335">
        <ele>19.3</ele>
      </trkpt>
      <trkpt lat="41.35634" lon="-8.74359">
        <ele>18.7</ele>
      </trkpt>
      <trkpt lat="41.35632" lon="-8.74412">
        <ele>17.3</ele>
      </trkpt>
      <trkpt lat="41.35638" lon="-8.74414">
        <ele>17.4</ele>
      </trkpt>
      <trkpt lat="41.35685" lon="-8.74429">
        <ele>18.3</ele>
      </trkpt>
      <trkpt lat="41.35705" lon="-8.74447">
        <ele>18.6</ele>
      </trkpt>
      <trkpt lat="41.35726" lon="-8.74458">
        <ele>19.4</ele>
      </trkpt>
      <trkpt lat="41.35732" lon="-8.74464">
        <ele>19.5</ele>
      </trkpt>
      <trkpt lat="41.35766" lon="-8.74498">
        <ele>20.8</ele>
      </trkpt>
      <trkpt lat="41.35774" lon="-8.74506">
        <ele>21.2</ele>
      </trkpt>
      <trkpt lat="41.35803" lon="-8.74532">
        <ele>22.4</ele>
      </trkpt>
      <trkpt lat="41.35831" lon="-8.74557">
        <ele>23.2</ele>
      </trkpt>
      <trkpt lat="41.35866" lon="-8.74588">
        <ele>23.2</ele>
      </trkpt>
      <trkpt lat="41.35875" lon="-8.74596">
        <ele>23</ele>
      </trkpt>
      <trkpt lat="41.35889" lon="-8.74615">
        <ele>22.7</ele>
      </trkpt>
      <trkpt lat="41.35894" lon="-8.74623">
        <ele>22.5</ele>
      </trkpt>
      <trkpt lat="41.35897" lon="-8.74629">
        <ele>22.4</ele>
      </trkpt>
      <trkpt lat="41.35908" lon="-8.74649">
        <ele>22.2</ele>
      </trkpt>
      <trkpt lat="41.35925" lon="-8.74671">
        <ele>21.9</ele>
      </trkpt>
      <trkpt lat="41.35932" lon="-8.74677">
        <ele>21.6</ele>
      </trkpt>
      <trkpt lat="41.35934" lon="-8.74673">
        <ele>21.9</ele>
      </trkpt>
      <trkpt lat="41.35941" lon="-8.74668">
        <ele>22.2</ele>
      </trkpt>
      <trkpt lat="41.35945" lon="-8.74667">
        <ele>22.3</ele>
      </trkpt>
      <trkpt lat="41.3595" lon="-8.74668">
        <ele>22.3</ele>
      </trkpt>
      <trkpt lat="41.35957" lon="-8.74675">
        <ele>22.1</ele>
      </trkpt>
      <trkpt lat="41.35959" lon="-8.7468">
        <ele>21.9</ele>
      </trkpt>
      <trkpt lat="41.3596" lon="-8.74685">
        <ele>21.6</ele>
      </trkpt>
      <trkpt lat="41.35959" lon="-8.74691">
        <ele>21.3</ele>
      </trkpt>
      <trkpt lat="41.35958" lon="-8.74696">
        <ele>21.1</ele>
      </trkpt>
      <trkpt lat="41.35966" lon="-8.74701">
        <ele>21</ele>
      </trkpt>
      <trkpt lat="41.3604" lon="-8.74749">
        <ele>20.5</ele>
      </trkpt>
      <trkpt lat="41.36045" lon="-8.74754">
        <ele>20.4</ele>
      </trkpt>
      <trkpt lat="41.36059" lon="-8.74775">
        <ele>20.1</ele>
      </trkpt>
      <trkpt lat="41.36073" lon="-8.74795">
        <ele>19.8</ele>
      </trkpt>
      <trkpt lat="41.36087" lon="-8.74812">
        <ele>19.6</ele>
      </trkpt>
      <trkpt lat="41.36094" lon="-8.7482">
        <ele>19.7</ele>
      </trkpt>
      <trkpt lat="41.36135" lon="-8.7487">
        <ele>19.6</ele>
      </trkpt>
      <trkpt lat="41.36152" lon="-8.74892">
        <ele>19</ele>
      </trkpt>
      <trkpt lat="41.36165" lon="-8.74905">
        <ele>18.6</ele>
      </trkpt>
      <trkpt lat="41.36172" lon="-8.74909">
        <ele>18.6</ele>
      </trkpt>
      <trkpt lat="41.36176" lon="-8.7491">
        <ele>18.8</ele>
      </trkpt>
      <trkpt lat="41.36196" lon="-8.74917">
        <ele>19.4</ele>
      </trkpt>
      <trkpt lat="41.36214" lon="-8.74928">
        <ele>20</ele>
      </trkpt>
      <trkpt lat="41.36223" lon="-8.74935">
        <ele>20.3</ele>
      </trkpt>
      <trkpt lat="41.36229" lon="-8.74939">
        <ele>20.4</ele>
      </trkpt>
      <trkpt lat="41.36279" lon="-8.74978">
        <ele>20.8</ele>
      </trkpt>
      <trkpt lat="41.36333" lon="-8.75016">
        <ele>21.6</ele>
      </trkpt>
      <trkpt lat="41.36358" lon="-8.7503">
        <ele>21.9</ele>
      </trkpt>
      <trkpt lat="41.36458" lon="-8.75104">
        <ele>21.8</ele>
      </trkpt>
      <trkpt lat="41.36467" lon="-8.7511">
        <ele>21.6</ele>
      </trkpt>
      <trkpt lat="41.36489" lon="-8.75125">
        <ele>21.4</ele>
      </trkpt>
      <trkpt lat="41.36511" lon="-8.7514">
        <ele>21.1</ele>
      </trkpt>
      <trkpt lat="41.3653" lon="-8.75154">
        <ele>21.1</ele>
      </trkpt>
      <trkpt lat="41.36538" lon="-8.75164">
        <ele>21</ele>
      </trkpt>
      <trkpt lat="41.36579" lon="-8.75278">
        <ele>18.6</ele>
      </trkpt>
      <trkpt lat="41.36589" lon="-8.75295">
        <ele>17.9</ele>
      </trkpt>
      <trkpt lat="41.36637" lon="-8.75345">
        <ele>16.2</ele>
      </trkpt>
      <trkpt lat="41.36668" lon="-8.75374">
        <ele>15.5</ele>
      </trkpt>
      <trkpt lat="41.36715" lon="-8.75402">
        <ele>14.6</ele>
      </trkpt>
      <trkpt lat="41.36764" lon="-8.75431">
        <ele>13.7</ele>
      </trkpt>
      <trkpt lat="41.36765" lon="-8.75431">
        <ele>13.6</ele>
      </trkpt>
      <trkpt lat="41.36811" lon="-8.75459">
        <ele>12.8</ele>
      </trkpt>
      <trkpt lat="41.36814" lon="-8.7546">
        <ele>12.7</ele>
      </trkpt>
      <trkpt lat="41.36815" lon="-8.75461">
        <ele>12.7</ele>
      </trkpt>
      <trkpt lat="41.36821" lon="-8.75464">
        <ele>12.6</ele>
      </trkpt>
      <trkpt lat="41.36868" lon="-8.75491">
        <ele>12.2</ele>
      </trkpt>
      <trkpt lat="41.36898" lon="-8.75509">
        <ele>11.8</ele>
      </trkpt>
      <trkpt lat="41.36908" lon="-8.75515">
        <ele>11.6</ele>
      </trkpt>
      <trkpt lat="41.36942" lon="-8.75534">
        <ele>11.2</ele>
      </trkpt>
      <trkpt lat="41.36947" lon="-8.75537">
        <ele>11.1</ele>
      </trkpt>
      <trkpt lat="41.3697" lon="-8.75551">
        <ele>10.8</ele>
      </trkpt>
      <trkpt lat="41.36979" lon="-8.75557">
        <ele>10.6</ele>
      </trkpt>
      <trkpt lat="41.37038" lon="-8.75595">
        <ele>9.9</ele>
      </trkpt>
      <trkpt lat="41.37048" lon="-8.75604">
        <ele>9.7</ele>
      </trkpt>
      <trkpt lat="41.37086" lon="-8.75633">
        <ele>8.8</ele>
      </trkpt>
      <trkpt lat="41.37117" lon="-8.75664">
        <ele>8.4</ele>
      </trkpt>
      <trkpt lat="41.37142" lon="-8.7569">
        <ele>8.3</ele>
      </trkpt>
      <trkpt lat="41.37161" lon="-8.75711">
        <ele>7.9</ele>
      </trkpt>
      <trkpt lat="41.37165" lon="-8.75715">
        <ele>7.8</ele>
      </trkpt>
      <trkpt lat="41.3717" lon="-8.75718">
        <ele>7.8</ele>
      </trkpt>
      <trkpt lat="41.37178" lon="-8.75718">
        <ele>7.9</ele>
      </trkpt>
      <trkpt lat="41.37182" lon="-8.75716">
        <ele>8</ele>
      </trkpt>
      <trkpt lat="41.37185" lon="-8.75713">
        <ele>8.1</ele>
      </trkpt>
      <trkpt lat="41.37188" lon="-8.75708">
        <ele>8.3</ele>
      </trkpt>
      <trkpt lat="41.3724" lon="-8.75582">
        <ele>9.9</ele>
      </trkpt>
      <trkpt lat="41.37278" lon="-8.7549">
        <ele>13.8</ele>
      </trkpt>
      <trkpt lat="41.37349" lon="-8.75546">
        <ele>12</ele>
      </trkpt>
      <trkpt lat="41.37351" lon="-8.75535">
        <ele>12.5</ele>
      </trkpt>
      <trkpt lat="41.37353" lon="-8.75526">
        <ele>13</ele>
      </trkpt>
      <trkpt lat="41.37356" lon="-8.75512">
        <ele>13.6</ele>
      </trkpt>
      <trkpt lat="41.37359" lon="-8.755">
        <ele>14.1</ele>
      </trkpt>
      <trkpt lat="41.37366" lon="-8.75468">
        <ele>13.8</ele>
      </trkpt>
      <trkpt lat="41.3736" lon="-8.75465">
        <ele>14</ele>
      </trkpt>
      <trkpt lat="41.37355" lon="-8.75459">
        <ele>14.2</ele>
      </trkpt>
      <trkpt lat="41.37353" lon="-8.75452">
        <ele>14.3</ele>
      </trkpt>
      <trkpt lat="41.37353" lon="-8.75443">
        <ele>14.3</ele>
      </trkpt>
      <trkpt lat="41.37355" lon="-8.75435">
        <ele>14.2</ele>
      </trkpt>
      <trkpt lat="41.37359" lon="-8.75429">
        <ele>14.1</ele>
      </trkpt>
      <trkpt lat="41.37365" lon="-8.75425">
        <ele>13.9</ele>
      </trkpt>
      <trkpt lat="41.37371" lon="-8.75425">
        <ele>13.6</ele>
      </trkpt>
      <trkpt lat="41.37377" lon="-8.75428">
        <ele>13.4</ele>
      </trkpt>
      <trkpt lat="41.37382" lon="-8.75434">
        <ele>13.2</ele>
      </trkpt>
      <trkpt lat="41.37384" lon="-8.75441">
        <ele>13.2</ele>
      </trkpt>
      <trkpt lat="41.37385" lon="-8.75447">
        <ele>13.1</ele>
      </trkpt>
      <trkpt lat="41.37395" lon="-8.75458">
        <ele>12.8</ele>
      </trkpt>
      <trkpt lat="41.37444" lon="-8.75502">
        <ele>12.3</ele>
      </trkpt>
      <trkpt lat="41.37547" lon="-8.75596">
        <ele>10.9</ele>
      </trkpt>
      <trkpt lat="41.37642" lon="-8.75685">
        <ele>11</ele>
      </trkpt>
      <trkpt lat="41.37647" lon="-8.7569">
        <ele>11.2</ele>
      </trkpt>
      <trkpt lat="41.37688" lon="-8.75729">
        <ele>11.8</ele>
      </trkpt>
      <trkpt lat="41.37736" lon="-8.75767">
        <ele>8.8</ele>
      </trkpt>
      <trkpt lat="41.37751" lon="-8.75773">
        <ele>8</ele>
      </trkpt>
      <trkpt lat="41.37765" lon="-8.75778">
        <ele>7.8</ele>
      </trkpt>
      <trkpt lat="41.37794" lon="-8.75779">
        <ele>7.3</ele>
      </trkpt>
      <trkpt lat="41.37819" lon="-8.75767">
        <ele>7</ele>
      </trkpt>
      <trkpt lat="41.37829" lon="-8.7576">
        <ele>6.9</ele>
      </trkpt>
      <trkpt lat="41.37834" lon="-8.75756">
        <ele>6.9</ele>
      </trkpt>
      <trkpt lat="41.3784" lon="-8.75785">
        <ele>6.6</ele>
      </trkpt>
      <trkpt lat="41.37846" lon="-8.75829">
        <ele>6.1</ele>
      </trkpt>
      <trkpt lat="41.37847" lon="-8.75842">
        <ele>6</ele>
      </trkpt>
      <trkpt lat="41.37845" lon="-8.75865">
        <ele>6.1</ele>
      </trkpt>
      <trkpt lat="41.3784" lon="-8.75885">
        <ele>6.1</ele>
      </trkpt>
      <trkpt lat="41.37827" lon="-8.7592">
        <ele>6</ele>
      </trkpt>
      <trkpt lat="41.37873" lon="-8.75958">
        <ele>6.5</ele>
      </trkpt>
      <trkpt lat="41.37891" lon="-8.75972">
        <ele>6.5</ele>
      </trkpt>
      <trkpt lat="41.37899" lon="-8.75978">
        <ele>6.4</ele>
      </trkpt>
      <trkpt lat="41.37914" lon="-8.75991">
        <ele>6.2</ele>
      </trkpt>
      <trkpt lat="41.37929" lon="-8.76004">
        <ele>6.2</ele>
      </trkpt>
      <trkpt lat="41.37931" lon="-8.76006">
        <ele>6.2</ele>
      </trkpt>
      <trkpt lat="41.37935" lon="-8.76009">
        <ele>6.2</ele>
      </trkpt>
      <trkpt lat="41.3796" lon="-8.76029">
        <ele>6.7</ele>
      </trkpt>
      <trkpt lat="41.37908" lon="-8.76139">
        <ele>6.6</ele>
      </trkpt>
      <trkpt lat="41.37893" lon="-8.7615">
        <ele>6.6</ele>
      </trkpt>
      <trkpt lat="41.37878" lon="-8.76159">
        <ele>6.5</ele>
        <extensions>
          <visugpx:TrkExtension xmlns:visugpx="https://www.visugpx.com/editgpx/">
            <visugpx:node>5</visugpx:node>
            </visugpx:TrkExtension>
        </extensions>
      </trkpt>
    </trkseg>
  </trk>
</gpx>